<?xml version='1.0' encoding='UTF-8'?><gpx version="1.1" creator="JPX - https://github.com/jenetics/jpx" xmlns="http://www.topografix.com/GPX/1/1"><trk><trkseg><trkpt lat="37.8639116" lon="13.3085858"><ele>510.0</ele><time>2026-04-18T07:10:00.786Z</time></trkpt><trkpt lat="37.8639767" lon="13.3085724"><ele>510.0</ele><time>2026-04-18T07:10:24.838Z</time></trkpt><trkpt lat="37.864081" lon="13.3085389"><ele>510.0</ele><time>2026-04-18T07:12:08.73Z</time></trkpt><trkpt lat="37.8641559" lon="13.3085566"><ele>510.0</ele><time>2026-04-18T07:12:10.73Z</time></trkpt><trkpt lat="37.8641973" lon="13.3086258"><ele>510.0</ele><time>2026-04-18T07:12:13.73Z</time></trkpt><trkpt lat="37.8641276" lon="13.3087154"><ele>510.0</ele><time>2026-04-18T07:12:16.73Z</time></trkpt><trkpt lat="37.8640568" lon="13.3087578"><ele>510.0</ele><time>2026-04-18T07:12:17.729Z</time></trkpt><trkpt lat="37.863966" lon="13.3087981"><ele>510.0</ele><time>2026-04-18T07:12:18.73Z</time></trkpt><trkpt lat="37.8638667" lon="13.3088418"><ele>510.0</ele><time>2026-04-18T07:12:19.73Z</time></trkpt><trkpt lat="37.8637653" lon="13.308891"><ele>510.0</ele><time>2026-04-18T07:12:20.73Z</time></trkpt><trkpt lat="37.863663" lon="13.3089509"><ele>510.0</ele><time>2026-04-18T07:12:21.73Z</time></trkpt><trkpt lat="37.863559" lon="13.3090187"><ele>512.0</ele><time>2026-04-18T07:12:22.73Z</time></trkpt><trkpt lat="37.8634575" lon="13.3090883"><ele>514.0</ele><time>2026-04-18T07:12:23.73Z</time></trkpt><trkpt lat="37.8633553" lon="13.3091666"><ele>516.0</ele><time>2026-04-18T07:12:24.73Z</time></trkpt><trkpt lat="37.8632609" lon="13.3092458"><ele>518.0</ele><time>2026-04-18T07:12:25.729Z</time></trkpt><trkpt lat="37.8631679" lon="13.3093226"><ele>518.0</ele><time>2026-04-18T07:12:26.73Z</time></trkpt><trkpt lat="37.8630855" lon="13.3094064"><ele>518.0</ele><time>2026-04-18T07:12:27.73Z</time></trkpt><trkpt lat="37.8630095" lon="13.3094959"><ele>518.0</ele><time>2026-04-18T07:12:28.73Z</time></trkpt><trkpt lat="37.8629388" lon="13.3095786"><ele>518.0</ele><time>2026-04-18T07:12:29.73Z</time></trkpt><trkpt lat="37.8628687" lon="13.3096561"><ele>518.0</ele><time>2026-04-18T07:12:30.73Z</time></trkpt><trkpt lat="37.8628032" lon="13.3097271"><ele>517.8</ele><time>2026-04-18T07:12:31.73Z</time></trkpt><trkpt lat="37.862742" lon="13.3098155"><ele>517.5999999999999</ele><time>2026-04-18T07:12:32.73Z</time></trkpt><trkpt lat="37.8626797" lon="13.309911"><ele>517.4000000000001</ele><time>2026-04-18T07:12:33.73Z</time></trkpt><trkpt lat="37.8626151" lon="13.3100047"><ele>517.2</ele><time>2026-04-18T07:12:34.73Z</time></trkpt><trkpt lat="37.8625511" lon="13.3100947"><ele>517.0</ele><time>2026-04-18T07:12:35.73Z</time></trkpt><trkpt lat="37.8624862" lon="13.310183"><ele>517.0</ele><time>2026-04-18T07:12:36.73Z</time></trkpt><trkpt lat="37.8624163" lon="13.3102674"><ele>517.0</ele><time>2026-04-18T07:12:37.73Z</time></trkpt><trkpt lat="37.8623443" lon="13.3103442"><ele>517.0</ele><time>2026-04-18T07:12:38.73Z</time></trkpt><trkpt lat="37.8622803" lon="13.310422"><ele>517.0</ele><time>2026-04-18T07:12:39.73Z</time></trkpt><trkpt lat="37.8622164" lon="13.3105038"><ele>517.0</ele><time>2026-04-18T07:12:40.729Z</time></trkpt><trkpt lat="37.8621557" lon="13.3105898"><ele>519.0</ele><time>2026-04-18T07:12:41.73Z</time></trkpt><trkpt lat="37.8620967" lon="13.3106735"><ele>521.0</ele><time>2026-04-18T07:12:42.73Z</time></trkpt><trkpt lat="37.8620415" lon="13.3107599"><ele>523.0</ele><time>2026-04-18T07:12:43.73Z</time></trkpt><trkpt lat="37.8619831" lon="13.3108462"><ele>525.0</ele><time>2026-04-18T07:12:44.729Z</time></trkpt><trkpt lat="37.8619229" lon="13.3109292"><ele>527.0</ele><time>2026-04-18T07:12:45.73Z</time></trkpt><trkpt lat="37.8618543" lon="13.3110225"><ele>526.75</ele><time>2026-04-18T07:12:46.73Z</time></trkpt><trkpt lat="37.8617819" lon="13.3111244"><ele>526.5</ele><time>2026-04-18T07:12:47.73Z</time></trkpt><trkpt lat="37.8617004" lon="13.3112327"><ele>526.25</ele><time>2026-04-18T07:12:48.73Z</time></trkpt><trkpt lat="37.8616115" lon="13.3113532"><ele>526.0</ele><time>2026-04-18T07:12:49.729Z</time></trkpt><trkpt lat="37.8615265" lon="13.31148"><ele>526.0</ele><time>2026-04-18T07:12:50.73Z</time></trkpt><trkpt lat="37.8614274" lon="13.3116245"><ele>526.0</ele><time>2026-04-18T07:12:51.73Z</time></trkpt><trkpt lat="37.8613126" lon="13.3117878"><ele>526.0</ele><time>2026-04-18T07:12:52.73Z</time></trkpt><trkpt lat="37.8611951" lon="13.3119442"><ele>526.0</ele><time>2026-04-18T07:12:53.73Z</time></trkpt><trkpt lat="37.8610836" lon="13.3120991"><ele>526.0</ele><time>2026-04-18T07:12:54.73Z</time></trkpt><trkpt lat="37.8609747" lon="13.3122387"><ele>526.0</ele><time>2026-04-18T07:12:55.73Z</time></trkpt><trkpt lat="37.8608503" lon="13.3123761"><ele>523.6666666666667</ele><time>2026-04-18T07:12:56.73Z</time></trkpt><trkpt lat="37.8607105" lon="13.3124964"><ele>521.3333333333334</ele><time>2026-04-18T07:12:57.73Z</time></trkpt><trkpt lat="37.8605559" lon="13.3125909"><ele>519.0</ele><time>2026-04-18T07:12:58.73Z</time></trkpt><trkpt lat="37.8603893" lon="13.3126587"><ele>519.0</ele><time>2026-04-18T07:12:59.73Z</time></trkpt><trkpt lat="37.8602189" lon="13.3126967"><ele>519.0</ele><time>2026-04-18T07:13:00.73Z</time></trkpt><trkpt lat="37.8600415" lon="13.3127214"><ele>519.0</ele><time>2026-04-18T07:13:01.73Z</time></trkpt><trkpt lat="37.8598564" lon="13.3127422"><ele>517.3333333333334</ele><time>2026-04-18T07:13:02.73Z</time></trkpt><trkpt lat="37.8596562" lon="13.3127624"><ele>515.6666666666667</ele><time>2026-04-18T07:13:03.73Z</time></trkpt><trkpt lat="37.8594362" lon="13.3127859"><ele>514.0</ele><time>2026-04-18T07:13:04.729Z</time></trkpt><trkpt lat="37.8592022" lon="13.3128095"><ele>513.5</ele><time>2026-04-18T07:13:05.73Z</time></trkpt><trkpt lat="37.8589578" lon="13.3128414"><ele>513.0</ele><time>2026-04-18T07:13:06.73Z</time></trkpt><trkpt lat="37.8587153" lon="13.3128651"><ele>513.0</ele><time>2026-04-18T07:13:07.729Z</time></trkpt><trkpt lat="37.8584797" lon="13.3128968"><ele>513.0</ele><time>2026-04-18T07:13:08.73Z</time></trkpt><trkpt lat="37.8582533" lon="13.3129254"><ele>512.3333333333334</ele><time>2026-04-18T07:13:09.73Z</time></trkpt><trkpt lat="37.8580323" lon="13.3129512"><ele>511.6666666666667</ele><time>2026-04-18T07:13:10.73Z</time></trkpt><trkpt lat="37.8578124" lon="13.3129751"><ele>511.0</ele><time>2026-04-18T07:13:11.73Z</time></trkpt><trkpt lat="37.8576028" lon="13.3130009"><ele>511.33333333333337</ele><time>2026-04-18T07:13:12.73Z</time></trkpt><trkpt lat="37.8573926" lon="13.3130275"><ele>511.66666666666663</ele><time>2026-04-18T07:13:13.73Z</time></trkpt><trkpt lat="37.8571844" lon="13.3130692"><ele>512.0</ele><time>2026-04-18T07:13:14.73Z</time></trkpt><trkpt lat="37.8569688" lon="13.3131198"><ele>512.0</ele><time>2026-04-18T07:13:15.73Z</time></trkpt><trkpt lat="37.8567565" lon="13.3131767"><ele>512.0</ele><time>2026-04-18T07:13:16.73Z</time></trkpt><trkpt lat="37.856543" lon="13.3132356"><ele>512.0</ele><time>2026-04-18T07:13:17.73Z</time></trkpt><trkpt lat="37.8563371" lon="13.3132843"><ele>512.0</ele><time>2026-04-18T07:13:18.73Z</time></trkpt><trkpt lat="37.8561306" lon="13.3133144"><ele>512.0</ele><time>2026-04-18T07:13:19.729Z</time></trkpt><trkpt lat="37.8559276" lon="13.313329"><ele>512.0</ele><time>2026-04-18T07:13:20.73Z</time></trkpt><trkpt lat="37.8557263" lon="13.3133223"><ele>510.66666666666663</ele><time>2026-04-18T07:13:21.73Z</time></trkpt><trkpt lat="37.8555378" lon="13.3133168"><ele>509.33333333333337</ele><time>2026-04-18T07:13:22.73Z</time></trkpt><trkpt lat="37.8553567" lon="13.3133133"><ele>508.0</ele><time>2026-04-18T07:13:23.73Z</time></trkpt><trkpt lat="37.8551964" lon="13.3133052"><ele>508.0</ele><time>2026-04-18T07:13:24.73Z</time></trkpt><trkpt lat="37.8550483" lon="13.3133062"><ele>508.0</ele><time>2026-04-18T07:13:25.73Z</time></trkpt><trkpt lat="37.8549033" lon="13.3133322"><ele>508.0</ele><time>2026-04-18T07:13:26.729Z</time></trkpt><trkpt lat="37.8547613" lon="13.3134008"><ele>508.0</ele><time>2026-04-18T07:13:27.73Z</time></trkpt><trkpt lat="37.8546371" lon="13.3135211"><ele>508.0</ele><time>2026-04-18T07:13:28.73Z</time></trkpt><trkpt lat="37.8545064" lon="13.3136619"><ele>508.0</ele><time>2026-04-18T07:13:29.73Z</time></trkpt><trkpt lat="37.8543602" lon="13.3138119"><ele>508.0</ele><time>2026-04-18T07:13:30.73Z</time></trkpt><trkpt lat="37.8542059" lon="13.3139556"><ele>507.0</ele><time>2026-04-18T07:13:31.729Z</time></trkpt><trkpt lat="37.8540564" lon="13.3141131"><ele>506.0</ele><time>2026-04-18T07:13:32.73Z</time></trkpt><trkpt lat="37.8539073" lon="13.3142711"><ele>505.0</ele><time>2026-04-18T07:13:33.73Z</time></trkpt><trkpt lat="37.8537432" lon="13.3144429"><ele>505.0</ele><time>2026-04-18T07:13:34.73Z</time></trkpt><trkpt lat="37.8535756" lon="13.314626"><ele>505.0</ele><time>2026-04-18T07:13:35.73Z</time></trkpt><trkpt lat="37.8533987" lon="13.3148083"><ele>505.0</ele><time>2026-04-18T07:13:36.73Z</time></trkpt><trkpt lat="37.8532131" lon="13.3149807"><ele>502.0</ele><time>2026-04-18T07:13:37.73Z</time></trkpt><trkpt lat="37.8530323" lon="13.3151569"><ele>499.0</ele><time>2026-04-18T07:13:38.73Z</time></trkpt><trkpt lat="37.8528621" lon="13.3153468"><ele>499.0</ele><time>2026-04-18T07:13:39.73Z</time></trkpt><trkpt lat="37.8527228" lon="13.3155555"><ele>499.0</ele><time>2026-04-18T07:13:40.73Z</time></trkpt><trkpt lat="37.8525853" lon="13.3157829"><ele>499.0</ele><time>2026-04-18T07:13:41.73Z</time></trkpt><trkpt lat="37.8524502" lon="13.3159971"><ele>498.0</ele><time>2026-04-18T07:13:42.73Z</time></trkpt><trkpt lat="37.8523211" lon="13.316197"><ele>497.0</ele><time>2026-04-18T07:13:43.73Z</time></trkpt><trkpt lat="37.8522022" lon="13.3163788"><ele>496.0</ele><time>2026-04-18T07:13:44.73Z</time></trkpt><trkpt lat="37.8521048" lon="13.3165317"><ele>496.0</ele><time>2026-04-18T07:13:45.73Z</time></trkpt><trkpt lat="37.8520134" lon="13.3166566"><ele>496.0</ele><time>2026-04-18T07:13:46.73Z</time></trkpt><trkpt lat="37.8519075" lon="13.3167463"><ele>496.0</ele><time>2026-04-18T07:13:47.73Z</time></trkpt><trkpt lat="37.8518048" lon="13.3168013"><ele>496.0</ele><time>2026-04-18T07:13:48.73Z</time></trkpt><trkpt lat="37.8517028" lon="13.3168011"><ele>494.0</ele><time>2026-04-18T07:13:49.73Z</time></trkpt><trkpt lat="37.8516027" lon="13.3167599"><ele>492.0</ele><time>2026-04-18T07:13:50.73Z</time></trkpt><trkpt lat="37.8515268" lon="13.3167112"><ele>490.0</ele><time>2026-04-18T07:13:51.73Z</time></trkpt><trkpt lat="37.8514719" lon="13.3166177"><ele>488.0</ele><time>2026-04-18T07:13:52.73Z</time></trkpt><trkpt lat="37.8514343" lon="13.316515"><ele>486.0</ele><time>2026-04-18T07:13:53.735Z</time></trkpt><trkpt lat="37.8514087" lon="13.316377"><ele>485.33333333333337</ele><time>2026-04-18T07:13:54.735Z</time></trkpt><trkpt lat="37.8513961" lon="13.3161899"><ele>484.6666666666667</ele><time>2026-04-18T07:13:55.735Z</time></trkpt><trkpt lat="37.8513823" lon="13.3159821"><ele>484.0</ele><time>2026-04-18T07:13:56.735Z</time></trkpt><trkpt lat="37.851357" lon="13.315765"><ele>483.33333333333337</ele><time>2026-04-18T07:13:57.735Z</time></trkpt><trkpt lat="37.8512915" lon="13.3155508"><ele>482.66666666666663</ele><time>2026-04-18T07:13:58.735Z</time></trkpt><trkpt lat="37.8511974" lon="13.3153564"><ele>482.0</ele><time>2026-04-18T07:13:59.735Z</time></trkpt><trkpt lat="37.8510586" lon="13.3151633"><ele>476.0</ele><time>2026-04-18T07:14:00.735Z</time></trkpt><trkpt lat="37.8508891" lon="13.3149652"><ele>470.0</ele><time>2026-04-18T07:14:01.734Z</time></trkpt><trkpt lat="37.8506741" lon="13.3147632"><ele>473.5</ele><time>2026-04-18T07:14:02.735Z</time></trkpt><trkpt lat="37.8504534" lon="13.3145571"><ele>477.0</ele><time>2026-04-18T07:14:03.735Z</time></trkpt><trkpt lat="37.8502546" lon="13.3143716"><ele>471.5</ele><time>2026-04-18T07:14:04.734Z</time></trkpt><trkpt lat="37.8500634" lon="13.3141934"><ele>466.0</ele><time>2026-04-18T07:14:05.735Z</time></trkpt><trkpt lat="37.8498816" lon="13.3140199"><ele>468.0</ele><time>2026-04-18T07:14:06.735Z</time></trkpt><trkpt lat="37.849705" lon="13.31386"><ele>470.0</ele><time>2026-04-18T07:14:07.735Z</time></trkpt><trkpt lat="37.8495466" lon="13.3137106"><ele>472.0</ele><time>2026-04-18T07:14:08.735Z</time></trkpt><trkpt lat="37.8493964" lon="13.3135635"><ele>466.33333333333337</ele><time>2026-04-18T07:14:09.735Z</time></trkpt><trkpt lat="37.8492562" lon="13.31344"><ele>460.66666666666663</ele><time>2026-04-18T07:14:10.735Z</time></trkpt><trkpt lat="37.8491288" lon="13.3133177"><ele>455.0</ele><time>2026-04-18T07:14:11.735Z</time></trkpt><trkpt lat="37.8490174" lon="13.3131962"><ele>456.5</ele><time>2026-04-18T07:14:12.735Z</time></trkpt><trkpt lat="37.8489345" lon="13.3130573"><ele>458.0</ele><time>2026-04-18T07:14:13.735Z</time></trkpt><trkpt lat="37.8488719" lon="13.3128978"><ele>459.5</ele><time>2026-04-18T07:14:14.735Z</time></trkpt><trkpt lat="37.8488181" lon="13.312714"><ele>461.0</ele><time>2026-04-18T07:14:15.735Z</time></trkpt><trkpt lat="37.8487966" lon="13.3125181"><ele>461.0</ele><time>2026-04-18T07:14:16.735Z</time></trkpt><trkpt lat="37.8487754" lon="13.3123348"><ele>461.0</ele><time>2026-04-18T07:14:17.734Z</time></trkpt><trkpt lat="37.8487665" lon="13.3121547"><ele>461.0</ele><time>2026-04-18T07:14:18.735Z</time></trkpt><trkpt lat="37.8487535" lon="13.3119874"><ele>461.0</ele><time>2026-04-18T07:14:19.735Z</time></trkpt><trkpt lat="37.8487308" lon="13.3118383"><ele>460.0</ele><time>2026-04-18T07:14:20.735Z</time></trkpt><trkpt lat="37.8487082" lon="13.3117005"><ele>459.0</ele><time>2026-04-18T07:14:21.735Z</time></trkpt><trkpt lat="37.8486617" lon="13.3115783"><ele>458.0</ele><time>2026-04-18T07:14:22.735Z</time></trkpt><trkpt lat="37.8485903" lon="13.3114765"><ele>457.0</ele><time>2026-04-18T07:14:23.735Z</time></trkpt><trkpt lat="37.8485115" lon="13.3114262"><ele>456.0</ele><time>2026-04-18T07:14:24.735Z</time></trkpt><trkpt lat="37.8484266" lon="13.3114061"><ele>452.8</ele><time>2026-04-18T07:14:25.735Z</time></trkpt><trkpt lat="37.8483405" lon="13.3114235"><ele>449.6</ele><time>2026-04-18T07:14:26.735Z</time></trkpt><trkpt lat="37.8482537" lon="13.3114744"><ele>446.4</ele><time>2026-04-18T07:14:27.735Z</time></trkpt><trkpt lat="37.848176" lon="13.3115769"><ele>443.2</ele><time>2026-04-18T07:14:28.735Z</time></trkpt><trkpt lat="37.8481145" lon="13.3117298"><ele>440.0</ele><time>2026-04-18T07:14:29.735Z</time></trkpt><trkpt lat="37.8480581" lon="13.3119288"><ele>440.0</ele><time>2026-04-18T07:14:30.734Z</time></trkpt><trkpt lat="37.8479973" lon="13.3121579"><ele>440.0</ele><time>2026-04-18T07:14:31.735Z</time></trkpt><trkpt lat="37.8479237" lon="13.3123954"><ele>440.0</ele><time>2026-04-18T07:14:32.735Z</time></trkpt><trkpt lat="37.8478496" lon="13.3126409"><ele>440.66666666666663</ele><time>2026-04-18T07:14:33.735Z</time></trkpt><trkpt lat="37.8477749" lon="13.312885"><ele>441.33333333333337</ele><time>2026-04-18T07:14:34.735Z</time></trkpt><trkpt lat="37.8477008" lon="13.3131261"><ele>442.0</ele><time>2026-04-18T07:14:35.735Z</time></trkpt><trkpt lat="37.8476341" lon="13.3133521"><ele>437.0</ele><time>2026-04-18T07:14:36.735Z</time></trkpt><trkpt lat="37.8475714" lon="13.3135609"><ele>432.0</ele><time>2026-04-18T07:14:37.735Z</time></trkpt><trkpt lat="37.8475178" lon="13.3137505"><ele>427.0</ele><time>2026-04-18T07:14:38.735Z</time></trkpt><trkpt lat="37.8474753" lon="13.3139421"><ele>427.0</ele><time>2026-04-18T07:14:39.735Z</time></trkpt><trkpt lat="37.8474499" lon="13.3141567"><ele>427.0</ele><time>2026-04-18T07:14:40.735Z</time></trkpt><trkpt lat="37.8474484" lon="13.3143657"><ele>427.0</ele><time>2026-04-18T07:14:41.735Z</time></trkpt><trkpt lat="37.8474509" lon="13.3145686"><ele>425.33333333333337</ele><time>2026-04-18T07:14:42.735Z</time></trkpt><trkpt lat="37.8474603" lon="13.314783"><ele>423.66666666666663</ele><time>2026-04-18T07:14:43.735Z</time></trkpt><trkpt lat="37.8474833" lon="13.3150355"><ele>422.0</ele><time>2026-04-18T07:14:44.735Z</time></trkpt><trkpt lat="37.8475121" lon="13.3153256"><ele>419.5</ele><time>2026-04-18T07:14:45.735Z</time></trkpt><trkpt lat="37.8475653" lon="13.315667"><ele>417.0</ele><time>2026-04-18T07:14:46.735Z</time></trkpt><trkpt lat="37.8476289" lon="13.3160548"><ele>423.0</ele><time>2026-04-18T07:14:47.735Z</time></trkpt><trkpt lat="37.8476977" lon="13.316455"><ele>429.0</ele><time>2026-04-18T07:14:48.735Z</time></trkpt><trkpt lat="37.8477476" lon="13.3168425"><ele>429.0</ele><time>2026-04-18T07:14:49.735Z</time></trkpt><trkpt lat="37.8477739" lon="13.3172324"><ele>429.0</ele><time>2026-04-18T07:14:50.735Z</time></trkpt><trkpt lat="37.8477777" lon="13.3175976"><ele>429.5</ele><time>2026-04-18T07:14:51.735Z</time></trkpt><trkpt lat="37.8477868" lon="13.3179096"><ele>430.0</ele><time>2026-04-18T07:14:52.735Z</time></trkpt><trkpt lat="37.8478017" lon="13.318166"><ele>430.0</ele><time>2026-04-18T07:14:53.735Z</time></trkpt><trkpt lat="37.8478062" lon="13.3183969"><ele>430.0</ele><time>2026-04-18T07:14:54.734Z</time></trkpt><trkpt lat="37.8477605" lon="13.3186018"><ele>430.0</ele><time>2026-04-18T07:14:55.735Z</time></trkpt><trkpt lat="37.8476884" lon="13.3187913"><ele>425.0</ele><time>2026-04-18T07:14:56.734Z</time></trkpt><trkpt lat="37.8475786" lon="13.3189565"><ele>420.0</ele><time>2026-04-18T07:14:57.735Z</time></trkpt><trkpt lat="37.8474624" lon="13.3190953"><ele>415.0</ele><time>2026-04-18T07:14:58.735Z</time></trkpt><trkpt lat="37.8473164" lon="13.3191927"><ele>415.0</ele><time>2026-04-18T07:14:59.735Z</time></trkpt><trkpt lat="37.8471645" lon="13.3192563"><ele>415.0</ele><time>2026-04-18T07:15:00.735Z</time></trkpt><trkpt lat="37.8469865" lon="13.3192724"><ele>415.0</ele><time>2026-04-18T07:15:01.735Z</time></trkpt><trkpt lat="37.8468153" lon="13.3192388"><ele>415.0</ele><time>2026-04-18T07:15:02.735Z</time></trkpt><trkpt lat="37.8466433" lon="13.3191509"><ele>415.0</ele><time>2026-04-18T07:15:03.735Z</time></trkpt><trkpt lat="37.8464962" lon="13.3190052"><ele>415.0</ele><time>2026-04-18T07:15:04.735Z</time></trkpt><trkpt lat="37.8463765" lon="13.3188368"><ele>413.6666666666667</ele><time>2026-04-18T07:15:05.735Z</time></trkpt><trkpt lat="37.8462819" lon="13.3186752"><ele>412.33333333333337</ele><time>2026-04-18T07:15:06.735Z</time></trkpt><trkpt lat="37.8461754" lon="13.3185169"><ele>411.0</ele><time>2026-04-18T07:15:07.735Z</time></trkpt><trkpt lat="37.8460375" lon="13.3183197"><ele>410.5</ele><time>2026-04-18T07:15:08.734Z</time></trkpt><trkpt lat="37.8458797" lon="13.3180603"><ele>410.0</ele><time>2026-04-18T07:15:09.735Z</time></trkpt><trkpt lat="37.8456953" lon="13.3177548"><ele>410.0</ele><time>2026-04-18T07:15:10.735Z</time></trkpt><trkpt lat="37.8454849" lon="13.317427"><ele>410.0</ele><time>2026-04-18T07:15:11.735Z</time></trkpt><trkpt lat="37.845274" lon="13.3170977"><ele>411.0</ele><time>2026-04-18T07:15:12.735Z</time></trkpt><trkpt lat="37.8450787" lon="13.3167754"><ele>412.0</ele><time>2026-04-18T07:15:13.735Z</time></trkpt><trkpt lat="37.8448736" lon="13.3164545"><ele>412.0</ele><time>2026-04-18T07:15:14.735Z</time></trkpt><trkpt lat="37.8446491" lon="13.31611"><ele>412.0</ele><time>2026-04-18T07:15:15.735Z</time></trkpt><trkpt lat="37.8444189" lon="13.3157359"><ele>415.0</ele><time>2026-04-18T07:15:16.735Z</time></trkpt><trkpt lat="37.8441809" lon="13.3153597"><ele>418.0</ele><time>2026-04-18T07:15:17.735Z</time></trkpt><trkpt lat="37.8439394" lon="13.3149768"><ele>418.0</ele><time>2026-04-18T07:15:18.735Z</time></trkpt><trkpt lat="37.8437164" lon="13.314626"><ele>418.0</ele><time>2026-04-18T07:15:19.735Z</time></trkpt><trkpt lat="37.84352" lon="13.3142972"><ele>424.0</ele><time>2026-04-18T07:15:20.735Z</time></trkpt><trkpt lat="37.8433488" lon="13.313981"><ele>430.0</ele><time>2026-04-18T07:15:21.735Z</time></trkpt><trkpt lat="37.843217" lon="13.31368"><ele>430.0</ele><time>2026-04-18T07:15:22.734Z</time></trkpt><trkpt lat="37.8431194" lon="13.3133891"><ele>430.0</ele><time>2026-04-18T07:15:23.735Z</time></trkpt><trkpt lat="37.8430342" lon="13.3131014"><ele>430.0</ele><time>2026-04-18T07:15:24.735Z</time></trkpt><trkpt lat="37.842949" lon="13.3128167"><ele>430.0</ele><time>2026-04-18T07:15:25.735Z</time></trkpt><trkpt lat="37.8428749" lon="13.312541"><ele>430.0</ele><time>2026-04-18T07:15:26.735Z</time></trkpt><trkpt lat="37.842812" lon="13.3122632"><ele>430.0</ele><time>2026-04-18T07:15:27.735Z</time></trkpt><trkpt lat="37.8427544" lon="13.3119942"><ele>430.0</ele><time>2026-04-18T07:15:28.735Z</time></trkpt><trkpt lat="37.8426939" lon="13.3117235"><ele>430.0</ele><time>2026-04-18T07:15:29.735Z</time></trkpt><trkpt lat="37.8426386" lon="13.3114574"><ele>430.0</ele><time>2026-04-18T07:15:30.735Z</time></trkpt><trkpt lat="37.8425703" lon="13.311217"><ele>430.0</ele><time>2026-04-18T07:15:31.734Z</time></trkpt><trkpt lat="37.8424854" lon="13.3110154"><ele>434.33333333333337</ele><time>2026-04-18T07:15:32.735Z</time></trkpt><trkpt lat="37.8423794" lon="13.3108401"><ele>438.66666666666663</ele><time>2026-04-18T07:15:33.735Z</time></trkpt><trkpt lat="37.842242" lon="13.310684"><ele>443.0</ele><time>2026-04-18T07:15:34.735Z</time></trkpt><trkpt lat="37.8420836" lon="13.3105718"><ele>443.0</ele><time>2026-04-18T07:15:35.735Z</time></trkpt><trkpt lat="37.8419132" lon="13.3104869"><ele>443.0</ele><time>2026-04-18T07:15:36.735Z</time></trkpt><trkpt lat="37.8417378" lon="13.3104343"><ele>443.0</ele><time>2026-04-18T07:15:37.735Z</time></trkpt><trkpt lat="37.8415349" lon="13.3104135"><ele>444.5</ele><time>2026-04-18T07:15:38.735Z</time></trkpt><trkpt lat="37.8413087" lon="13.3104226"><ele>446.0</ele><time>2026-04-18T07:15:39.735Z</time></trkpt><trkpt lat="37.8410533" lon="13.3104345"><ele>448.5</ele><time>2026-04-18T07:15:40.735Z</time></trkpt><trkpt lat="37.8407791" lon="13.3104291"><ele>451.0</ele><time>2026-04-18T07:15:41.735Z</time></trkpt><trkpt lat="37.8405029" lon="13.3104305"><ele>451.0</ele><time>2026-04-18T07:15:42.735Z</time></trkpt><trkpt lat="37.8402365" lon="13.3104266"><ele>451.0</ele><time>2026-04-18T07:15:43.735Z</time></trkpt><trkpt lat="37.8399745" lon="13.3104279"><ele>453.5</ele><time>2026-04-18T07:15:44.735Z</time></trkpt><trkpt lat="37.8397075" lon="13.3104564"><ele>456.0</ele><time>2026-04-18T07:15:45.735Z</time></trkpt><trkpt lat="37.8394733" lon="13.3105105"><ele>458.66666666666663</ele><time>2026-04-18T07:15:46.735Z</time></trkpt><trkpt lat="37.8392678" lon="13.3105688"><ele>461.3333333333333</ele><time>2026-04-18T07:15:47.735Z</time></trkpt><trkpt lat="37.8390898" lon="13.3106096"><ele>464.0</ele><time>2026-04-18T07:15:48.734Z</time></trkpt><trkpt lat="37.838933" lon="13.3106308"><ele>464.0</ele><time>2026-04-18T07:15:49.735Z</time></trkpt><trkpt lat="37.8387956" lon="13.3106077"><ele>464.0</ele><time>2026-04-18T07:15:50.735Z</time></trkpt><trkpt lat="37.8386385" lon="13.3105431"><ele>464.0</ele><time>2026-04-18T07:15:51.735Z</time></trkpt><trkpt lat="37.8384604" lon="13.3104385"><ele>471.0</ele><time>2026-04-18T07:15:52.735Z</time></trkpt><trkpt lat="37.8382499" lon="13.3102916"><ele>478.0</ele><time>2026-04-18T07:15:53.735Z</time></trkpt><trkpt lat="37.8379998" lon="13.3101188"><ele>478.0</ele><time>2026-04-18T07:15:54.735Z</time></trkpt><trkpt lat="37.8377388" lon="13.3099374"><ele>478.0</ele><time>2026-04-18T07:15:55.735Z</time></trkpt><trkpt lat="37.8374886" lon="13.3097753"><ele>480.33333333333337</ele><time>2026-04-18T07:15:56.735Z</time></trkpt><trkpt lat="37.8372775" lon="13.3096437"><ele>482.66666666666663</ele><time>2026-04-18T07:15:57.734Z</time></trkpt><trkpt lat="37.8370991" lon="13.3095423"><ele>485.0</ele><time>2026-04-18T07:15:58.734Z</time></trkpt><trkpt lat="37.8369494" lon="13.3094537"><ele>485.0</ele><time>2026-04-18T07:15:59.735Z</time></trkpt><trkpt lat="37.8368307" lon="13.3093816"><ele>485.0</ele><time>2026-04-18T07:16:00.735Z</time></trkpt><trkpt lat="37.8367436" lon="13.3093106"><ele>485.0</ele><time>2026-04-18T07:16:01.735Z</time></trkpt><trkpt lat="37.836672" lon="13.3092347"><ele>485.0</ele><time>2026-04-18T07:16:02.735Z</time></trkpt><trkpt lat="37.8366072" lon="13.3091542"><ele>485.0</ele><time>2026-04-18T07:16:03.735Z</time></trkpt><trkpt lat="37.8365508" lon="13.3090623"><ele>486.49999999999994</ele><time>2026-04-18T07:16:04.735Z</time></trkpt><trkpt lat="37.8365066" lon="13.3089623"><ele>488.0</ele><time>2026-04-18T07:16:05.735Z</time></trkpt><trkpt lat="37.8364738" lon="13.3088526"><ele>489.5</ele><time>2026-04-18T07:16:06.735Z</time></trkpt><trkpt lat="37.8364514" lon="13.3087412"><ele>491.0</ele><time>2026-04-18T07:16:07.734Z</time></trkpt><trkpt lat="37.8364301" lon="13.3086335"><ele>492.49999999999994</ele><time>2026-04-18T07:16:08.734Z</time></trkpt><trkpt lat="37.8364084" lon="13.3085261"><ele>494.0</ele><time>2026-04-18T07:16:09.735Z</time></trkpt><trkpt lat="37.8363993" lon="13.3084041"><ele>494.0</ele><time>2026-04-18T07:16:10.735Z</time></trkpt><trkpt lat="37.8364012" lon="13.308271"><ele>494.0</ele><time>2026-04-18T07:16:11.735Z</time></trkpt><trkpt lat="37.8364083" lon="13.3081403"><ele>494.0</ele><time>2026-04-18T07:16:12.735Z</time></trkpt><trkpt lat="37.8363974" lon="13.3080112"><ele>494.0</ele><time>2026-04-18T07:16:13.735Z</time></trkpt><trkpt lat="37.8363796" lon="13.307883"><ele>494.0</ele><time>2026-04-18T07:16:14.735Z</time></trkpt><trkpt lat="37.836353" lon="13.3077509"><ele>494.3333333333333</ele><time>2026-04-18T07:16:15.734Z</time></trkpt><trkpt lat="37.8363171" lon="13.3076042"><ele>494.66666666666663</ele><time>2026-04-18T07:16:16.735Z</time></trkpt><trkpt lat="37.8362669" lon="13.3074209"><ele>495.0</ele><time>2026-04-18T07:16:17.735Z</time></trkpt><trkpt lat="37.83622" lon="13.3071637"><ele>495.0</ele><time>2026-04-18T07:16:18.735Z</time></trkpt><trkpt lat="37.8361766" lon="13.306907"><ele>495.0</ele><time>2026-04-18T07:16:19.735Z</time></trkpt><trkpt lat="37.8361024" lon="13.3066944"><ele>495.0</ele><time>2026-04-18T07:16:20.735Z</time></trkpt><trkpt lat="37.8360267" lon="13.306532"><ele>499.66666666666663</ele><time>2026-04-18T07:16:21.735Z</time></trkpt><trkpt lat="37.8359138" lon="13.3063925"><ele>504.3333333333333</ele><time>2026-04-18T07:16:22.735Z</time></trkpt><trkpt lat="37.8357815" lon="13.3062686"><ele>509.0</ele><time>2026-04-18T07:16:23.735Z</time></trkpt><trkpt lat="37.8356394" lon="13.3061408"><ele>509.0</ele><time>2026-04-18T07:16:24.735Z</time></trkpt><trkpt lat="37.8354991" lon="13.3060011"><ele>509.0</ele><time>2026-04-18T07:16:25.735Z</time></trkpt><trkpt lat="37.8354004" lon="13.305816"><ele>509.0</ele><time>2026-04-18T07:16:26.735Z</time></trkpt><trkpt lat="37.8352947" lon="13.3056414"><ele>507.66666666666663</ele><time>2026-04-18T07:16:27.735Z</time></trkpt><trkpt lat="37.8352164" lon="13.3054458"><ele>506.33333333333337</ele><time>2026-04-18T07:16:28.735Z</time></trkpt><trkpt lat="37.8352091" lon="13.3052035"><ele>505.0</ele><time>2026-04-18T07:16:29.734Z</time></trkpt><trkpt lat="37.8351948" lon="13.3049391"><ele>506.0</ele><time>2026-04-18T07:16:30.735Z</time></trkpt><trkpt lat="37.8351977" lon="13.3047008"><ele>507.0</ele><time>2026-04-18T07:16:31.735Z</time></trkpt><trkpt lat="37.8352033" lon="13.3044801"><ele>508.0</ele><time>2026-04-18T07:16:32.735Z</time></trkpt><trkpt lat="37.8352534" lon="13.3042657"><ele>508.0</ele><time>2026-04-18T07:16:33.735Z</time></trkpt><trkpt lat="37.835337" lon="13.3040306"><ele>508.0</ele><time>2026-04-18T07:16:34.735Z</time></trkpt><trkpt lat="37.8354474" lon="13.3037967"><ele>508.0</ele><time>2026-04-18T07:16:35.735Z</time></trkpt><trkpt lat="37.8355623" lon="13.3035538"><ele>510.6666666666667</ele><time>2026-04-18T07:16:36.735Z</time></trkpt><trkpt lat="37.8356663" lon="13.3033095"><ele>513.3333333333334</ele><time>2026-04-18T07:16:37.735Z</time></trkpt><trkpt lat="37.8357426" lon="13.3030513"><ele>516.0</ele><time>2026-04-18T07:16:38.735Z</time></trkpt><trkpt lat="37.8357843" lon="13.3027539"><ele>519.5</ele><time>2026-04-18T07:16:39.735Z</time></trkpt><trkpt lat="37.8358037" lon="13.3024333"><ele>523.0</ele><time>2026-04-18T07:16:40.735Z</time></trkpt><trkpt lat="37.8358161" lon="13.3021109"><ele>525.0</ele><time>2026-04-18T07:16:41.735Z</time></trkpt><trkpt lat="37.8358242" lon="13.3017734"><ele>527.0</ele><time>2026-04-18T07:16:42.735Z</time></trkpt><trkpt lat="37.835834" lon="13.3014158"><ele>529.5</ele><time>2026-04-18T07:16:43.735Z</time></trkpt><trkpt lat="37.8358347" lon="13.3010744"><ele>532.0</ele><time>2026-04-18T07:16:44.735Z</time></trkpt><trkpt lat="37.8358387" lon="13.3007857"><ele>531.6666666666667</ele><time>2026-04-18T07:16:45.735Z</time></trkpt><trkpt lat="37.8358487" lon="13.3005521"><ele>531.3333333333334</ele><time>2026-04-18T07:16:46.735Z</time></trkpt><trkpt lat="37.8358628" lon="13.3003714"><ele>531.0</ele><time>2026-04-18T07:16:47.735Z</time></trkpt><trkpt lat="37.8358473" lon="13.3001974"><ele>531.0</ele><time>2026-04-18T07:16:48.735Z</time></trkpt><trkpt lat="37.8357846" lon="13.3000365"><ele>531.0</ele><time>2026-04-18T07:16:49.735Z</time></trkpt><trkpt lat="37.8356582" lon="13.2998749"><ele>531.0</ele><time>2026-04-18T07:16:50.735Z</time></trkpt><trkpt lat="37.8354868" lon="13.2996886"><ele>527.5</ele><time>2026-04-18T07:16:51.735Z</time></trkpt><trkpt lat="37.8352843" lon="13.2994772"><ele>524.0</ele><time>2026-04-18T07:16:52.735Z</time></trkpt><trkpt lat="37.8350578" lon="13.2992597"><ele>528.5</ele><time>2026-04-18T07:16:53.735Z</time></trkpt><trkpt lat="37.8348614" lon="13.2990209"><ele>533.0</ele><time>2026-04-18T07:16:54.735Z</time></trkpt><trkpt lat="37.8346902" lon="13.2987796"><ele>533.0</ele><time>2026-04-18T07:16:55.735Z</time></trkpt><trkpt lat="37.8345282" lon="13.2985267"><ele>533.0</ele><time>2026-04-18T07:16:56.735Z</time></trkpt><trkpt lat="37.8343626" lon="13.2982688"><ele>536.5</ele><time>2026-04-18T07:16:57.734Z</time></trkpt><trkpt lat="37.8342019" lon="13.2980254"><ele>540.0</ele><time>2026-04-18T07:16:58.735Z</time></trkpt><trkpt lat="37.8340646" lon="13.2978201"><ele>540.0</ele><time>2026-04-18T07:16:59.734Z</time></trkpt><trkpt lat="37.8339116" lon="13.2976498"><ele>540.0</ele><time>2026-04-18T07:17:00.735Z</time></trkpt><trkpt lat="37.8337516" lon="13.297531"><ele>540.0</ele><time>2026-04-18T07:17:01.735Z</time></trkpt><trkpt lat="37.8335727" lon="13.2974555"><ele>538.0</ele><time>2026-04-18T07:17:02.735Z</time></trkpt><trkpt lat="37.8334083" lon="13.2974093"><ele>536.0</ele><time>2026-04-18T07:17:03.735Z</time></trkpt><trkpt lat="37.8332859" lon="13.2973476"><ele>534.0</ele><time>2026-04-18T07:17:04.735Z</time></trkpt><trkpt lat="37.8331834" lon="13.2972561"><ele>532.0</ele><time>2026-04-18T07:17:05.735Z</time></trkpt><trkpt lat="37.8330682" lon="13.2971353"><ele>530.6666666666667</ele><time>2026-04-18T07:17:06.734Z</time></trkpt><trkpt lat="37.8329578" lon="13.2969907"><ele>529.3333333333334</ele><time>2026-04-18T07:17:07.735Z</time></trkpt><trkpt lat="37.8328386" lon="13.2968038"><ele>528.0</ele><time>2026-04-18T07:17:08.735Z</time></trkpt><trkpt lat="37.8327185" lon="13.2965916"><ele>522.6666666666666</ele><time>2026-04-18T07:17:09.735Z</time></trkpt><trkpt lat="37.8325944" lon="13.2963661"><ele>517.3333333333333</ele><time>2026-04-18T07:17:10.735Z</time></trkpt><trkpt lat="37.8324589" lon="13.2961317"><ele>512.0</ele><time>2026-04-18T07:17:11.735Z</time></trkpt><trkpt lat="37.8323143" lon="13.2958986"><ele>512.0</ele><time>2026-04-18T07:17:12.735Z</time></trkpt><trkpt lat="37.8321753" lon="13.2956684"><ele>512.0</ele><time>2026-04-18T07:17:13.735Z</time></trkpt><trkpt lat="37.8320388" lon="13.2954384"><ele>509.0</ele><time>2026-04-18T07:17:14.735Z</time></trkpt><trkpt lat="37.8318928" lon="13.2952042"><ele>506.0</ele><time>2026-04-18T07:17:15.735Z</time></trkpt><trkpt lat="37.8317377" lon="13.2949644"><ele>500.5</ele><time>2026-04-18T07:17:16.735Z</time></trkpt><trkpt lat="37.8315765" lon="13.2947212"><ele>495.0</ele><time>2026-04-18T07:17:17.735Z</time></trkpt><trkpt lat="37.8314115" lon="13.2944745"><ele>495.0</ele><time>2026-04-18T07:17:18.735Z</time></trkpt><trkpt lat="37.8312326" lon="13.2942314"><ele>495.0</ele><time>2026-04-18T07:17:19.735Z</time></trkpt><trkpt lat="37.8310451" lon="13.2939951"><ele>490.0</ele><time>2026-04-18T07:17:20.735Z</time></trkpt><trkpt lat="37.8308528" lon="13.2937584"><ele>485.0</ele><time>2026-04-18T07:17:21.735Z</time></trkpt><trkpt lat="37.8306589" lon="13.2935243"><ele>485.0</ele><time>2026-04-18T07:17:22.735Z</time></trkpt><trkpt lat="37.8304586" lon="13.2932891"><ele>485.0</ele><time>2026-04-18T07:17:23.734Z</time></trkpt><trkpt lat="37.8302666" lon="13.2930608"><ele>482.0</ele><time>2026-04-18T07:17:24.735Z</time></trkpt><trkpt lat="37.8300835" lon="13.2928364"><ele>479.0</ele><time>2026-04-18T07:17:25.735Z</time></trkpt><trkpt lat="37.8299124" lon="13.2926194"><ele>479.0</ele><time>2026-04-18T07:17:26.735Z</time></trkpt><trkpt lat="37.8297419" lon="13.2924101"><ele>479.0</ele><time>2026-04-18T07:17:27.735Z</time></trkpt><trkpt lat="37.8295765" lon="13.2922127"><ele>475.66666666666663</ele><time>2026-04-18T07:17:28.735Z</time></trkpt><trkpt lat="37.8294156" lon="13.2920122"><ele>472.33333333333337</ele><time>2026-04-18T07:17:29.735Z</time></trkpt><trkpt lat="37.8292794" lon="13.2917992"><ele>469.0</ele><time>2026-04-18T07:17:30.735Z</time></trkpt><trkpt lat="37.8291497" lon="13.2915693"><ele>465.6666666666667</ele><time>2026-04-18T07:17:31.735Z</time></trkpt><trkpt lat="37.8290355" lon="13.2913341"><ele>462.33333333333337</ele><time>2026-04-18T07:17:32.735Z</time></trkpt><trkpt lat="37.8289079" lon="13.2911138"><ele>459.0</ele><time>2026-04-18T07:17:33.735Z</time></trkpt><trkpt lat="37.8287446" lon="13.2909"><ele>459.0</ele><time>2026-04-18T07:17:34.735Z</time></trkpt><trkpt lat="37.8285778" lon="13.29072"><ele>459.0</ele><time>2026-04-18T07:17:35.735Z</time></trkpt><trkpt lat="37.8284174" lon="13.2905747"><ele>459.0</ele><time>2026-04-18T07:17:36.735Z</time></trkpt><trkpt lat="37.8282802" lon="13.2904463"><ele>455.66666666666663</ele><time>2026-04-18T07:17:37.735Z</time></trkpt><trkpt lat="37.8281374" lon="13.29031"><ele>452.3333333333333</ele><time>2026-04-18T07:17:38.735Z</time></trkpt><trkpt lat="37.8279738" lon="13.2901724"><ele>449.0</ele><time>2026-04-18T07:17:39.735Z</time></trkpt><trkpt lat="37.827784" lon="13.2900392"><ele>448.3333333333333</ele><time>2026-04-18T07:17:40.735Z</time></trkpt><trkpt lat="37.8275985" lon="13.2899272"><ele>447.66666666666663</ele><time>2026-04-18T07:17:41.735Z</time></trkpt><trkpt lat="37.8274398" lon="13.2898203"><ele>447.0</ele><time>2026-04-18T07:17:42.735Z</time></trkpt><trkpt lat="37.8273034" lon="13.2897339"><ele>445.20000000000005</ele><time>2026-04-18T07:17:43.735Z</time></trkpt><trkpt lat="37.8271861" lon="13.2896496"><ele>443.40000000000003</ele><time>2026-04-18T07:17:44.735Z</time></trkpt><trkpt lat="37.8270857" lon="13.289568"><ele>441.59999999999997</ele><time>2026-04-18T07:17:45.735Z</time></trkpt><trkpt lat="37.8270106" lon="13.2895035"><ele>439.79999999999995</ele><time>2026-04-18T07:17:46.735Z</time></trkpt><trkpt lat="37.8269576" lon="13.2894538"><ele>438.0</ele><time>2026-04-18T07:17:47.735Z</time></trkpt><trkpt lat="37.8268812" lon="13.2894029"><ele>438.0</ele><time>2026-04-18T07:17:49.734Z</time></trkpt><trkpt lat="37.8268178" lon="13.2893946"><ele>438.0</ele><time>2026-04-18T07:17:51.735Z</time></trkpt><trkpt lat="37.8266943" lon="13.2894919"><ele>438.0</ele><time>2026-04-18T07:17:53.735Z</time></trkpt><trkpt lat="37.8266099" lon="13.2895743"><ele>438.0</ele><time>2026-04-18T07:17:54.735Z</time></trkpt><trkpt lat="37.8264952" lon="13.28967"><ele>438.75</ele><time>2026-04-18T07:17:55.735Z</time></trkpt><trkpt lat="37.8263627" lon="13.2897827"><ele>439.5</ele><time>2026-04-18T07:17:56.735Z</time></trkpt><trkpt lat="37.8262429" lon="13.2898951"><ele>440.25</ele><time>2026-04-18T07:17:57.735Z</time></trkpt><trkpt lat="37.8261283" lon="13.2899897"><ele>441.0</ele><time>2026-04-18T07:17:58.735Z</time></trkpt><trkpt lat="37.8260199" lon="13.2900588"><ele>440.75</ele><time>2026-04-18T07:17:59.735Z</time></trkpt><trkpt lat="37.825893" lon="13.2901035"><ele>440.5</ele><time>2026-04-18T07:18:00.735Z</time></trkpt><trkpt lat="37.8257704" lon="13.2901171"><ele>440.25</ele><time>2026-04-18T07:18:01.734Z</time></trkpt><trkpt lat="37.8256446" lon="13.2901179"><ele>440.0</ele><time>2026-04-18T07:18:02.735Z</time></trkpt><trkpt lat="37.8255237" lon="13.2900938"><ele>440.0</ele><time>2026-04-18T07:18:03.735Z</time></trkpt><trkpt lat="37.8254049" lon="13.2900479"><ele>440.0</ele><time>2026-04-18T07:18:04.734Z</time></trkpt><trkpt lat="37.8252918" lon="13.289975"><ele>440.0</ele><time>2026-04-18T07:18:05.735Z</time></trkpt><trkpt lat="37.8251668" lon="13.2898954"><ele>440.0</ele><time>2026-04-18T07:18:06.735Z</time></trkpt><trkpt lat="37.8250337" lon="13.289804"><ele>441.3333333333333</ele><time>2026-04-18T07:18:07.735Z</time></trkpt><trkpt lat="37.824892" lon="13.2896873"><ele>442.66666666666663</ele><time>2026-04-18T07:18:08.735Z</time></trkpt><trkpt lat="37.8247372" lon="13.2895626"><ele>444.0</ele><time>2026-04-18T07:18:09.735Z</time></trkpt><trkpt lat="37.8245849" lon="13.2894361"><ele>444.0</ele><time>2026-04-18T07:18:10.735Z</time></trkpt><trkpt lat="37.8244381" lon="13.2893281"><ele>444.0</ele><time>2026-04-18T07:18:11.734Z</time></trkpt><trkpt lat="37.8242822" lon="13.2892577"><ele>444.0</ele><time>2026-04-18T07:18:12.735Z</time></trkpt><trkpt lat="37.8241355" lon="13.2892134"><ele>446.33333333333337</ele><time>2026-04-18T07:18:13.735Z</time></trkpt><trkpt lat="37.8239957" lon="13.2892113"><ele>448.6666666666667</ele><time>2026-04-18T07:18:14.734Z</time></trkpt><trkpt lat="37.8238442" lon="13.289249"><ele>451.0</ele><time>2026-04-18T07:18:15.734Z</time></trkpt><trkpt lat="37.8236894" lon="13.2893222"><ele>451.0</ele><time>2026-04-18T07:18:16.735Z</time></trkpt><trkpt lat="37.8235241" lon="13.289417"><ele>451.0</ele><time>2026-04-18T07:18:17.735Z</time></trkpt><trkpt lat="37.8233347" lon="13.289531"><ele>451.0</ele><time>2026-04-18T07:18:18.735Z</time></trkpt><trkpt lat="37.8231324" lon="13.289647"><ele>458.0</ele><time>2026-04-18T07:18:19.735Z</time></trkpt><trkpt lat="37.8229136" lon="13.2897793"><ele>465.0</ele><time>2026-04-18T07:18:20.735Z</time></trkpt><trkpt lat="37.8226868" lon="13.2898992"><ele>465.66666666666663</ele><time>2026-04-18T07:18:21.735Z</time></trkpt><trkpt lat="37.8224854" lon="13.2900075"><ele>466.3333333333333</ele><time>2026-04-18T07:18:22.735Z</time></trkpt><trkpt lat="37.8223196" lon="13.290122"><ele>467.0</ele><time>2026-04-18T07:18:23.735Z</time></trkpt><trkpt lat="37.8221814" lon="13.2902463"><ele>467.0</ele><time>2026-04-18T07:18:24.735Z</time></trkpt><trkpt lat="37.8220542" lon="13.2903833"><ele>467.0</ele><time>2026-04-18T07:18:25.735Z</time></trkpt><trkpt lat="37.8219276" lon="13.29054"><ele>467.0</ele><time>2026-04-18T07:18:26.735Z</time></trkpt><trkpt lat="37.8218048" lon="13.2906893"><ele>469.0</ele><time>2026-04-18T07:18:27.735Z</time></trkpt><trkpt lat="37.8216852" lon="13.2908387"><ele>471.0</ele><time>2026-04-18T07:18:28.735Z</time></trkpt><trkpt lat="37.8215633" lon="13.2909789"><ele>473.0</ele><time>2026-04-18T07:18:29.735Z</time></trkpt><trkpt lat="37.8214437" lon="13.2911189"><ele>473.0</ele><time>2026-04-18T07:18:30.735Z</time></trkpt><trkpt lat="37.8213312" lon="13.2912559"><ele>473.0</ele><time>2026-04-18T07:18:31.735Z</time></trkpt><trkpt lat="37.8212228" lon="13.2913928"><ele>473.0</ele><time>2026-04-18T07:18:32.735Z</time></trkpt><trkpt lat="37.8211165" lon="13.2915281"><ele>474.25</ele><time>2026-04-18T07:18:33.734Z</time></trkpt><trkpt lat="37.8210077" lon="13.2916577"><ele>475.5</ele><time>2026-04-18T07:18:34.734Z</time></trkpt><trkpt lat="37.8208989" lon="13.2917903"><ele>476.75</ele><time>2026-04-18T07:18:35.735Z</time></trkpt><trkpt lat="37.8207915" lon="13.2919117"><ele>478.0</ele><time>2026-04-18T07:18:36.735Z</time></trkpt><trkpt lat="37.820681" lon="13.2920241"><ele>478.0</ele><time>2026-04-18T07:18:37.735Z</time></trkpt><trkpt lat="37.8205567" lon="13.2921218"><ele>478.0</ele><time>2026-04-18T07:18:38.735Z</time></trkpt><trkpt lat="37.820417" lon="13.2921935"><ele>478.0</ele><time>2026-04-18T07:18:39.735Z</time></trkpt><trkpt lat="37.8202753" lon="13.2922588"><ele>478.0</ele><time>2026-04-18T07:18:40.735Z</time></trkpt><trkpt lat="37.8201387" lon="13.2923198"><ele>480.5</ele><time>2026-04-18T07:18:41.735Z</time></trkpt><trkpt lat="37.820001" lon="13.2923808"><ele>483.0</ele><time>2026-04-18T07:18:42.735Z</time></trkpt><trkpt lat="37.8198652" lon="13.2924368"><ele>485.5</ele><time>2026-04-18T07:18:43.735Z</time></trkpt><trkpt lat="37.8197412" lon="13.2924857"><ele>488.0</ele><time>2026-04-18T07:18:44.735Z</time></trkpt><trkpt lat="37.8196268" lon="13.2925132"><ele>488.0</ele><time>2026-04-18T07:18:45.735Z</time></trkpt><trkpt lat="37.8195094" lon="13.2925063"><ele>488.0</ele><time>2026-04-18T07:18:46.735Z</time></trkpt><trkpt lat="37.8193977" lon="13.2924633"><ele>488.0</ele><time>2026-04-18T07:18:47.735Z</time></trkpt><trkpt lat="37.8192772" lon="13.2923878"><ele>488.0</ele><time>2026-04-18T07:18:48.735Z</time></trkpt><trkpt lat="37.819159" lon="13.2923188"><ele>487.25</ele><time>2026-04-18T07:18:49.735Z</time></trkpt><trkpt lat="37.8190474" lon="13.2922536"><ele>486.5</ele><time>2026-04-18T07:18:50.735Z</time></trkpt><trkpt lat="37.8189408" lon="13.2921961"><ele>485.75</ele><time>2026-04-18T07:18:51.735Z</time></trkpt><trkpt lat="37.8188313" lon="13.2921646"><ele>485.0</ele><time>2026-04-18T07:18:52.735Z</time></trkpt><trkpt lat="37.8187289" lon="13.2921645"><ele>484.99999999999994</ele><time>2026-04-18T07:18:53.735Z</time></trkpt><trkpt lat="37.8186298" lon="13.2921868"><ele>485.0</ele><time>2026-04-18T07:18:54.735Z</time></trkpt><trkpt lat="37.8185331" lon="13.2922089"><ele>485.0</ele><time>2026-04-18T07:18:55.735Z</time></trkpt><trkpt lat="37.8184476" lon="13.2922329"><ele>485.0</ele><time>2026-04-18T07:18:56.735Z</time></trkpt><trkpt lat="37.8183714" lon="13.2922478"><ele>484.99999999999994</ele><time>2026-04-18T07:18:57.735Z</time></trkpt><trkpt lat="37.8182979" lon="13.2922659"><ele>485.0</ele><time>2026-04-18T07:18:58.735Z</time></trkpt><trkpt lat="37.8182195" lon="13.2922813"><ele>486.99999999999994</ele><time>2026-04-18T07:18:59.735Z</time></trkpt><trkpt lat="37.8181425" lon="13.2922997"><ele>489.0</ele><time>2026-04-18T07:19:00.735Z</time></trkpt><trkpt lat="37.8180622" lon="13.2923173"><ele>491.0</ele><time>2026-04-18T07:19:01.735Z</time></trkpt><trkpt lat="37.8179829" lon="13.2923324"><ele>493.0</ele><time>2026-04-18T07:19:02.735Z</time></trkpt><trkpt lat="37.817902" lon="13.292347"><ele>494.99999999999994</ele><time>2026-04-18T07:19:03.735Z</time></trkpt><trkpt lat="37.817823" lon="13.2923646"><ele>497.0</ele><time>2026-04-18T07:19:04.735Z</time></trkpt><trkpt lat="37.8177429" lon="13.2923831"><ele>496.99999999999994</ele><time>2026-04-18T07:19:05.734Z</time></trkpt><trkpt lat="37.8176642" lon="13.2924007"><ele>497.0</ele><time>2026-04-18T07:19:06.735Z</time></trkpt><trkpt lat="37.8175877" lon="13.2924136"><ele>497.0</ele><time>2026-04-18T07:19:07.735Z</time></trkpt><trkpt lat="37.8175155" lon="13.2924324"><ele>497.0</ele><time>2026-04-18T07:19:08.735Z</time></trkpt><trkpt lat="37.8174482" lon="13.292464"><ele>496.99999999999994</ele><time>2026-04-18T07:19:09.734Z</time></trkpt><trkpt lat="37.8173839" lon="13.2925224"><ele>497.0</ele><time>2026-04-18T07:19:10.735Z</time></trkpt><trkpt lat="37.8173286" lon="13.2926036"><ele>497.3333333333333</ele><time>2026-04-18T07:19:11.735Z</time></trkpt><trkpt lat="37.8172808" lon="13.2927019"><ele>497.66666666666663</ele><time>2026-04-18T07:19:12.735Z</time></trkpt><trkpt lat="37.8172459" lon="13.2927928"><ele>498.0</ele><time>2026-04-18T07:19:13.735Z</time></trkpt><trkpt lat="37.8172089" lon="13.2928672"><ele>498.33333333333337</ele><time>2026-04-18T07:19:14.735Z</time></trkpt><trkpt lat="37.8171751" lon="13.292954"><ele>498.6666666666667</ele><time>2026-04-18T07:19:15.735Z</time></trkpt><trkpt lat="37.8171487" lon="13.2930397"><ele>499.0</ele><time>2026-04-18T07:19:16.734Z</time></trkpt><trkpt lat="37.8171297" lon="13.2931362"><ele>500.2</ele><time>2026-04-18T07:19:17.735Z</time></trkpt><trkpt lat="37.8171238" lon="13.2932218"><ele>501.4</ele><time>2026-04-18T07:19:18.735Z</time></trkpt><trkpt lat="37.8171334" lon="13.2933584"><ele>502.6</ele><time>2026-04-18T07:19:20.735Z</time></trkpt><trkpt lat="37.8171484" lon="13.2934947"><ele>503.8</ele><time>2026-04-18T07:19:22.735Z</time></trkpt><trkpt lat="37.8171597" lon="13.2936469"><ele>505.0</ele><time>2026-04-18T07:19:24.734Z</time></trkpt><trkpt lat="37.8171025" lon="13.293724"><ele>505.00000000000006</ele><time>2026-04-18T07:19:26.735Z</time></trkpt><trkpt lat="37.8169913" lon="13.2937892"><ele>505.0</ele><time>2026-04-18T07:19:28.735Z</time></trkpt><trkpt lat="37.8169342" lon="13.2938367"><ele>505.0</ele><time>2026-04-18T07:19:29.735Z</time></trkpt><trkpt lat="37.816878" lon="13.2938805"><ele>505.0</ele><time>2026-04-18T07:19:30.735Z</time></trkpt><trkpt lat="37.8168195" lon="13.2939213"><ele>505.00000000000006</ele><time>2026-04-18T07:19:31.735Z</time></trkpt><trkpt lat="37.8167641" lon="13.2939623"><ele>505.0</ele><time>2026-04-18T07:19:32.735Z</time></trkpt><trkpt lat="37.8167071" lon="13.294004"><ele>504.6</ele><time>2026-04-18T07:19:33.734Z</time></trkpt><trkpt lat="37.8166019" lon="13.2940791"><ele>504.2</ele><time>2026-04-18T07:19:35.735Z</time></trkpt><trkpt lat="37.8165028" lon="13.2941546"><ele>503.79999999999995</ele><time>2026-04-18T07:19:37.735Z</time></trkpt><trkpt lat="37.8164087" lon="13.2942323"><ele>503.4</ele><time>2026-04-18T07:19:39.735Z</time></trkpt><trkpt lat="37.81632" lon="13.2942918"><ele>503.0</ele><time>2026-04-18T07:19:41.735Z</time></trkpt><trkpt lat="37.8162116" lon="13.294361"><ele>502.99999999999994</ele><time>2026-04-18T07:19:43.735Z</time></trkpt><trkpt lat="37.816149" lon="13.2943901"><ele>503.0</ele><time>2026-04-18T07:19:44.735Z</time></trkpt><trkpt lat="37.8160805" lon="13.2944107"><ele>503.0</ele><time>2026-04-18T07:19:45.735Z</time></trkpt><trkpt lat="37.8160035" lon="13.2944235"><ele>503.0</ele><time>2026-04-18T07:19:46.735Z</time></trkpt><trkpt lat="37.8159197" lon="13.2944426"><ele>502.99999999999994</ele><time>2026-04-18T07:19:47.735Z</time></trkpt><trkpt lat="37.8158321" lon="13.2944683"><ele>503.0</ele><time>2026-04-18T07:19:48.735Z</time></trkpt><trkpt lat="37.8157412" lon="13.2944951"><ele>501.79999999999995</ele><time>2026-04-18T07:19:49.735Z</time></trkpt><trkpt lat="37.8156431" lon="13.2945262"><ele>500.59999999999997</ele><time>2026-04-18T07:19:50.735Z</time></trkpt><trkpt lat="37.8155475" lon="13.2945572"><ele>499.40000000000003</ele><time>2026-04-18T07:19:51.735Z</time></trkpt><trkpt lat="37.8154455" lon="13.2945893"><ele>498.20000000000005</ele><time>2026-04-18T07:19:52.735Z</time></trkpt><trkpt lat="37.815338" lon="13.2946148"><ele>497.0</ele><time>2026-04-18T07:19:53.735Z</time></trkpt><trkpt lat="37.8152295" lon="13.2946499"><ele>497.75</ele><time>2026-04-18T07:19:54.735Z</time></trkpt><trkpt lat="37.8151131" lon="13.2946986"><ele>498.5</ele><time>2026-04-18T07:19:55.735Z</time></trkpt><trkpt lat="37.8150023" lon="13.2947585"><ele>499.25</ele><time>2026-04-18T07:19:56.735Z</time></trkpt><trkpt lat="37.8148987" lon="13.2948277"><ele>500.0</ele><time>2026-04-18T07:19:57.735Z</time></trkpt><trkpt lat="37.8147993" lon="13.2949031"><ele>500.0</ele><time>2026-04-18T07:19:58.735Z</time></trkpt><trkpt lat="37.8147025" lon="13.2949783"><ele>500.0</ele><time>2026-04-18T07:19:59.734Z</time></trkpt><trkpt lat="37.8146063" lon="13.2950519"><ele>500.0</ele><time>2026-04-18T07:20:00.735Z</time></trkpt><trkpt lat="37.8145148" lon="13.2951295"><ele>500.0</ele><time>2026-04-18T07:20:01.735Z</time></trkpt><trkpt lat="37.8144304" lon="13.2952124"><ele>500.0</ele><time>2026-04-18T07:20:02.735Z</time></trkpt><trkpt lat="37.8143493" lon="13.2952917"><ele>500.2</ele><time>2026-04-18T07:20:03.735Z</time></trkpt><trkpt lat="37.8142753" lon="13.2953731"><ele>500.4</ele><time>2026-04-18T07:20:04.735Z</time></trkpt><trkpt lat="37.8142029" lon="13.2954554"><ele>500.6</ele><time>2026-04-18T07:20:05.735Z</time></trkpt><trkpt lat="37.8141308" lon="13.2955366"><ele>500.8</ele><time>2026-04-18T07:20:06.735Z</time></trkpt><trkpt lat="37.8140648" lon="13.2956139"><ele>501.0</ele><time>2026-04-18T07:20:07.735Z</time></trkpt><trkpt lat="37.8140031" lon="13.2956968"><ele>502.5</ele><time>2026-04-18T07:20:08.735Z</time></trkpt><trkpt lat="37.8139463" lon="13.2957699"><ele>504.0</ele><time>2026-04-18T07:20:09.735Z</time></trkpt><trkpt lat="37.8138937" lon="13.2958385"><ele>505.5</ele><time>2026-04-18T07:20:10.735Z</time></trkpt><trkpt lat="37.8138482" lon="13.2959036"><ele>507.0</ele><time>2026-04-18T07:20:11.735Z</time></trkpt><trkpt lat="37.8138032" lon="13.2959703"><ele>508.5</ele><time>2026-04-18T07:20:12.735Z</time></trkpt><trkpt lat="37.8137475" lon="13.2960535"><ele>510.0</ele><time>2026-04-18T07:20:13.735Z</time></trkpt><trkpt lat="37.8136715" lon="13.2961584"><ele>510.0</ele><time>2026-04-18T07:20:14.735Z</time></trkpt><trkpt lat="37.8135931" lon="13.2962616"><ele>510.0</ele><time>2026-04-18T07:20:15.735Z</time></trkpt><trkpt lat="37.8135191" lon="13.29637"><ele>510.0</ele><time>2026-04-18T07:20:16.735Z</time></trkpt><trkpt lat="37.8134556" lon="13.2964619"><ele>510.0</ele><time>2026-04-18T07:20:17.735Z</time></trkpt><trkpt lat="37.8133992" lon="13.2965541"><ele>510.0</ele><time>2026-04-18T07:20:18.735Z</time></trkpt><trkpt lat="37.8133346" lon="13.2966406"><ele>511.0</ele><time>2026-04-18T07:20:19.735Z</time></trkpt><trkpt lat="37.8132656" lon="13.2967388"><ele>512.0</ele><time>2026-04-18T07:20:20.735Z</time></trkpt><trkpt lat="37.8132005" lon="13.2968352"><ele>513.0</ele><time>2026-04-18T07:20:21.735Z</time></trkpt><trkpt lat="37.8131253" lon="13.2969235"><ele>514.0</ele><time>2026-04-18T07:20:22.735Z</time></trkpt><trkpt lat="37.813052" lon="13.2970052"><ele>515.0</ele><time>2026-04-18T07:20:23.734Z</time></trkpt><trkpt lat="37.8129845" lon="13.2970788"><ele>515.0</ele><time>2026-04-18T07:20:24.735Z</time></trkpt><trkpt lat="37.8129082" lon="13.297132"><ele>515.0</ele><time>2026-04-18T07:20:25.735Z</time></trkpt><trkpt lat="37.8128058" lon="13.2971602"><ele>515.0</ele><time>2026-04-18T07:20:26.734Z</time></trkpt><trkpt lat="37.8126985" lon="13.297166"><ele>515.0</ele><time>2026-04-18T07:20:27.735Z</time></trkpt><trkpt lat="37.8125883" lon="13.2971793"><ele>515.0</ele><time>2026-04-18T07:20:28.735Z</time></trkpt><trkpt lat="37.8124751" lon="13.2971975"><ele>515.0</ele><time>2026-04-18T07:20:29.735Z</time></trkpt><trkpt lat="37.8123678" lon="13.2972363"><ele>515.0</ele><time>2026-04-18T07:20:30.735Z</time></trkpt><trkpt lat="37.8122687" lon="13.2972929"><ele>515.0</ele><time>2026-04-18T07:20:31.735Z</time></trkpt><trkpt lat="37.8121786" lon="13.2973661"><ele>515.0</ele><time>2026-04-18T07:20:32.735Z</time></trkpt><trkpt lat="37.8121006" lon="13.2974381"><ele>515.0</ele><time>2026-04-18T07:20:33.742Z</time></trkpt><trkpt lat="37.8120328" lon="13.2974958"><ele>515.0</ele><time>2026-04-18T07:20:34.742Z</time></trkpt><trkpt lat="37.8119839" lon="13.297555"><ele>515.0</ele><time>2026-04-18T07:20:36.743Z</time></trkpt><trkpt lat="37.8119061" lon="13.2974853"><ele>515.0</ele><time>2026-04-18T07:20:39.743Z</time></trkpt><trkpt lat="37.8118227" lon="13.2973694"><ele>515.0</ele><time>2026-04-18T07:20:41.742Z</time></trkpt><trkpt lat="37.811761" lon="13.2972507"><ele>515.0</ele><time>2026-04-18T07:20:43.743Z</time></trkpt><trkpt lat="37.8117381" lon="13.2971763"><ele>512.4</ele><time>2026-04-18T07:20:44.743Z</time></trkpt><trkpt lat="37.8117231" lon="13.2970935"><ele>509.8</ele><time>2026-04-18T07:20:45.743Z</time></trkpt><trkpt lat="37.8117202" lon="13.2969977"><ele>507.20000000000005</ele><time>2026-04-18T07:20:46.743Z</time></trkpt><trkpt lat="37.8117377" lon="13.2968906"><ele>504.6</ele><time>2026-04-18T07:20:47.743Z</time></trkpt><trkpt lat="37.811768" lon="13.2967644"><ele>502.0</ele><time>2026-04-18T07:20:48.743Z</time></trkpt><trkpt lat="37.8117946" lon="13.2966199"><ele>502.0</ele><time>2026-04-18T07:20:49.742Z</time></trkpt><trkpt lat="37.8118167" lon="13.2964672"><ele>502.00000000000006</ele><time>2026-04-18T07:20:50.743Z</time></trkpt><trkpt lat="37.8118362" lon="13.2963196"><ele>502.00000000000006</ele><time>2026-04-18T07:20:51.743Z</time></trkpt><trkpt lat="37.8118574" lon="13.2961793"><ele>502.0</ele><time>2026-04-18T07:20:52.743Z</time></trkpt><trkpt lat="37.811873" lon="13.296061"><ele>502.0</ele><time>2026-04-18T07:20:53.743Z</time></trkpt><trkpt lat="37.8118831" lon="13.2959542"><ele>502.40000000000003</ele><time>2026-04-18T07:20:54.743Z</time></trkpt><trkpt lat="37.8118734" lon="13.2958633"><ele>502.80000000000007</ele><time>2026-04-18T07:20:55.742Z</time></trkpt><trkpt lat="37.8118427" lon="13.2957471"><ele>503.2</ele><time>2026-04-18T07:20:57.743Z</time></trkpt><trkpt lat="37.8117945" lon="13.295686"><ele>503.6</ele><time>2026-04-18T07:21:00.743Z</time></trkpt><trkpt lat="37.8116772" lon="13.295656"><ele>504.0</ele><time>2026-04-18T07:21:53.996Z</time></trkpt><trkpt lat="37.8115799" lon="13.2956268"><ele>504.0</ele><time>2026-04-18T07:21:54.996Z</time></trkpt><trkpt lat="37.8115013" lon="13.2956139"><ele>504.0</ele><time>2026-04-18T07:21:55.995Z</time></trkpt><trkpt lat="37.8114115" lon="13.2955803"><ele>504.0</ele><time>2026-04-18T07:21:56.996Z</time></trkpt><trkpt lat="37.8113122" lon="13.2955467"><ele>504.0</ele><time>2026-04-18T07:21:57.995Z</time></trkpt><trkpt lat="37.8112417" lon="13.2955099"><ele>504.0</ele><time>2026-04-18T07:21:58.996Z</time></trkpt><trkpt lat="37.8111855" lon="13.2954616"><ele>504.0</ele><time>2026-04-18T07:21:59.996Z</time></trkpt><trkpt lat="37.8111296" lon="13.2954008"><ele>504.3333333333333</ele><time>2026-04-18T07:22:00.996Z</time></trkpt><trkpt lat="37.8110879" lon="13.2953324"><ele>504.66666666666663</ele><time>2026-04-18T07:22:01.996Z</time></trkpt><trkpt lat="37.8110485" lon="13.2952498"><ele>505.0</ele><time>2026-04-18T07:22:02.995Z</time></trkpt><trkpt lat="37.8110172" lon="13.2951559"><ele>505.3333333333333</ele><time>2026-04-18T07:22:03.996Z</time></trkpt><trkpt lat="37.8109957" lon="13.2950584"><ele>505.66666666666663</ele><time>2026-04-18T07:22:05.995Z</time></trkpt><trkpt lat="37.8110027" lon="13.2951809"><ele>506.0</ele><time>2026-04-18T07:22:20.996Z</time></trkpt><trkpt lat="37.8110452" lon="13.2952962"><ele>505.99999999999994</ele><time>2026-04-18T07:22:21.995Z</time></trkpt><trkpt lat="37.8111032" lon="13.2954105"><ele>506.0</ele><time>2026-04-18T07:22:22.996Z</time></trkpt><trkpt lat="37.8111648" lon="13.2954908"><ele>506.0</ele><time>2026-04-18T07:22:23.996Z</time></trkpt><trkpt lat="37.8112291" lon="13.2955498"><ele>506.0</ele><time>2026-04-18T07:22:24.996Z</time></trkpt><trkpt lat="37.8112943" lon="13.295583"><ele>505.99999999999994</ele><time>2026-04-18T07:22:25.995Z</time></trkpt><trkpt lat="37.8113856" lon="13.2956164"><ele>506.0</ele><time>2026-04-18T07:22:27.996Z</time></trkpt><trkpt lat="37.8113747" lon="13.2956966"><ele>505.6</ele><time>2026-04-18T07:22:29.996Z</time></trkpt><trkpt lat="37.8112791" lon="13.2957382"><ele>505.20000000000005</ele><time>2026-04-18T07:22:31.996Z</time></trkpt><trkpt lat="37.8111711" lon="13.2957591"><ele>504.79999999999995</ele><time>2026-04-18T07:22:33.996Z</time></trkpt><trkpt lat="37.8110937" lon="13.2957855"><ele>504.4</ele><time>2026-04-18T07:22:35.995Z</time></trkpt><trkpt lat="37.8110034" lon="13.2958128"><ele>504.0</ele><time>2026-04-18T07:22:37.995Z</time></trkpt><trkpt lat="37.8109083" lon="13.2958688"><ele>505.0</ele><time>2026-04-18T07:22:39.996Z</time></trkpt><trkpt lat="37.8107979" lon="13.2959404"><ele>506.0</ele><time>2026-04-18T07:22:41.995Z</time></trkpt><trkpt lat="37.8107341" lon="13.2959951"><ele>507.0</ele><time>2026-04-18T07:22:42.995Z</time></trkpt><trkpt lat="37.8106735" lon="13.2960631"><ele>508.0</ele><time>2026-04-18T07:22:43.995Z</time></trkpt><trkpt lat="37.8106148" lon="13.2961405"><ele>509.0</ele><time>2026-04-18T07:22:44.995Z</time></trkpt><trkpt lat="37.8105523" lon="13.2962231"><ele>509.0</ele><time>2026-04-18T07:22:45.995Z</time></trkpt><trkpt lat="37.8104876" lon="13.2963127"><ele>509.0</ele><time>2026-04-18T07:22:46.996Z</time></trkpt><trkpt lat="37.8104205" lon="13.2964045"><ele>509.0</ele><time>2026-04-18T07:22:47.996Z</time></trkpt><trkpt lat="37.810352" lon="13.2964898"><ele>509.0</ele><time>2026-04-18T07:22:48.995Z</time></trkpt><trkpt lat="37.8102856" lon="13.296571"><ele>509.0</ele><time>2026-04-18T07:22:49.996Z</time></trkpt><trkpt lat="37.8102192" lon="13.2966504"><ele>510.66666666666663</ele><time>2026-04-18T07:22:50.995Z</time></trkpt><trkpt lat="37.8101535" lon="13.2967247"><ele>512.3333333333333</ele><time>2026-04-18T07:22:51.995Z</time></trkpt><trkpt lat="37.8100838" lon="13.2967949"><ele>514.0</ele><time>2026-04-18T07:22:52.996Z</time></trkpt><trkpt lat="37.8100082" lon="13.2968447"><ele>515.6666666666666</ele><time>2026-04-18T07:22:53.995Z</time></trkpt><trkpt lat="37.8099264" lon="13.2968722"><ele>517.3333333333334</ele><time>2026-04-18T07:22:54.996Z</time></trkpt><trkpt lat="37.8098393" lon="13.2968811"><ele>519.0</ele><time>2026-04-18T07:22:55.996Z</time></trkpt><trkpt lat="37.8097554" lon="13.2968808"><ele>519.0</ele><time>2026-04-18T07:22:56.996Z</time></trkpt><trkpt lat="37.8096685" lon="13.2968634"><ele>519.0</ele><time>2026-04-18T07:22:57.996Z</time></trkpt><trkpt lat="37.8095764" lon="13.2968453"><ele>519.0</ele><time>2026-04-18T07:22:58.996Z</time></trkpt><trkpt lat="37.8094774" lon="13.2968267"><ele>519.0</ele><time>2026-04-18T07:22:59.995Z</time></trkpt><trkpt lat="37.8093806" lon="13.2968059"><ele>519.0</ele><time>2026-04-18T07:23:00.996Z</time></trkpt><trkpt lat="37.8092863" lon="13.2967883"><ele>521.2</ele><time>2026-04-18T07:23:01.995Z</time></trkpt><trkpt lat="37.8091907" lon="13.2967757"><ele>523.4</ele><time>2026-04-18T07:23:02.996Z</time></trkpt><trkpt lat="37.809092" lon="13.2967712"><ele>525.6</ele><time>2026-04-18T07:23:03.995Z</time></trkpt><trkpt lat="37.8089913" lon="13.2967734"><ele>527.8</ele><time>2026-04-18T07:23:04.996Z</time></trkpt><trkpt lat="37.8088884" lon="13.296781"><ele>530.0</ele><time>2026-04-18T07:23:05.996Z</time></trkpt><trkpt lat="37.8087833" lon="13.2967883"><ele>530.0</ele><time>2026-04-18T07:23:06.995Z</time></trkpt><trkpt lat="37.8086755" lon="13.2967971"><ele>530.0</ele><time>2026-04-18T07:23:07.995Z</time></trkpt><trkpt lat="37.8085653" lon="13.2967978"><ele>530.0</ele><time>2026-04-18T07:23:08.996Z</time></trkpt><trkpt lat="37.8084544" lon="13.2968017"><ele>530.0</ele><time>2026-04-18T07:23:09.996Z</time></trkpt><trkpt lat="37.8083441" lon="13.2968092"><ele>530.0</ele><time>2026-04-18T07:23:10.996Z</time></trkpt><trkpt lat="37.8082333" lon="13.2968114"><ele>532.75</ele><time>2026-04-18T07:23:11.996Z</time></trkpt><trkpt lat="37.8081224" lon="13.296819"><ele>535.5</ele><time>2026-04-18T07:23:12.996Z</time></trkpt><trkpt lat="37.8080086" lon="13.2968317"><ele>538.25</ele><time>2026-04-18T07:23:13.995Z</time></trkpt><trkpt lat="37.8078913" lon="13.296852"><ele>541.0</ele><time>2026-04-18T07:23:14.996Z</time></trkpt><trkpt lat="37.8077724" lon="13.2968763"><ele>543.5</ele><time>2026-04-18T07:23:15.996Z</time></trkpt><trkpt lat="37.8076515" lon="13.2968944"><ele>546.0</ele><time>2026-04-18T07:23:16.996Z</time></trkpt><trkpt lat="37.8075286" lon="13.2969144"><ele>548.5</ele><time>2026-04-18T07:23:17.996Z</time></trkpt><trkpt lat="37.8074103" lon="13.2969362"><ele>551.0</ele><time>2026-04-18T07:23:18.996Z</time></trkpt><trkpt lat="37.807296" lon="13.2969595"><ele>551.0</ele><time>2026-04-18T07:23:19.995Z</time></trkpt><trkpt lat="37.8071851" lon="13.2969939"><ele>551.0</ele><time>2026-04-18T07:23:20.995Z</time></trkpt><trkpt lat="37.8070768" lon="13.2970356"><ele>551.0</ele><time>2026-04-18T07:23:21.996Z</time></trkpt><trkpt lat="37.8069654" lon="13.2970716"><ele>551.0</ele><time>2026-04-18T07:23:22.995Z</time></trkpt><trkpt lat="37.8068553" lon="13.2971062"><ele>552.4</ele><time>2026-04-18T07:23:23.996Z</time></trkpt><trkpt lat="37.8067491" lon="13.2971364"><ele>553.8</ele><time>2026-04-18T07:23:24.996Z</time></trkpt><trkpt lat="37.8066448" lon="13.2971659"><ele>555.1999999999999</ele><time>2026-04-18T07:23:25.996Z</time></trkpt><trkpt lat="37.8065397" lon="13.297194"><ele>556.6</ele><time>2026-04-18T07:23:26.995Z</time></trkpt><trkpt lat="37.8064388" lon="13.2972168"><ele>558.0</ele><time>2026-04-18T07:23:27.996Z</time></trkpt><trkpt lat="37.8063395" lon="13.2972463"><ele>559.0</ele><time>2026-04-18T07:23:28.996Z</time></trkpt><trkpt lat="37.8062456" lon="13.2972792"><ele>560.0</ele><time>2026-04-18T07:23:29.996Z</time></trkpt><trkpt lat="37.8061557" lon="13.2973063"><ele>561.0</ele><time>2026-04-18T07:23:30.996Z</time></trkpt><trkpt lat="37.8060743" lon="13.2973342"><ele>562.0</ele><time>2026-04-18T07:23:31.996Z</time></trkpt><trkpt lat="37.8060072" lon="13.2973807"><ele>563.0</ele><time>2026-04-18T07:23:32.996Z</time></trkpt><trkpt lat="37.8059477" lon="13.2975065"><ele>563.0</ele><time>2026-04-18T07:23:34.996Z</time></trkpt><trkpt lat="37.8059623" lon="13.2976806"><ele>563.0</ele><time>2026-04-18T07:23:36.996Z</time></trkpt><trkpt lat="37.8059763" lon="13.2977731"><ele>563.0</ele><time>2026-04-18T07:23:37.996Z</time></trkpt><trkpt lat="37.8059855" lon="13.2978522"><ele>563.0</ele><time>2026-04-18T07:23:38.996Z</time></trkpt><trkpt lat="37.8060043" lon="13.2979792"><ele>563.0</ele><time>2026-04-18T07:23:40.996Z</time></trkpt><trkpt lat="37.8059774" lon="13.2980524"><ele>563.0</ele><time>2026-04-18T07:23:43.995Z</time></trkpt><trkpt lat="37.805981" lon="13.2981897"><ele>563.1666666666666</ele><time>2026-04-18T07:24:00.995Z</time></trkpt><trkpt lat="37.8060159" lon="13.2982604"><ele>563.3333333333333</ele><time>2026-04-18T07:24:01.995Z</time></trkpt><trkpt lat="37.8060828" lon="13.2983646"><ele>563.5</ele><time>2026-04-18T07:24:03.996Z</time></trkpt><trkpt lat="37.8061341" lon="13.2984246"><ele>563.6666666666666</ele><time>2026-04-18T07:24:05.996Z</time></trkpt><trkpt lat="37.8061824" lon="13.2984766"><ele>563.8333333333334</ele><time>2026-04-18T07:24:09.996Z</time></trkpt><trkpt lat="37.8062322" lon="13.2985469"><ele>564.0</ele><time>2026-04-18T07:24:14.996Z</time></trkpt><trkpt lat="37.8063032" lon="13.2986358"><ele>564.0</ele><time>2026-04-18T07:24:17.995Z</time></trkpt><trkpt lat="37.8063901" lon="13.2987558"><ele>564.0</ele><time>2026-04-18T07:24:19.995Z</time></trkpt><trkpt lat="37.8064499" lon="13.2988347"><ele>564.0</ele><time>2026-04-18T07:24:20.996Z</time></trkpt><trkpt lat="37.8065102" lon="13.2989137"><ele>564.0</ele><time>2026-04-18T07:24:21.996Z</time></trkpt><trkpt lat="37.8065637" lon="13.2989846"><ele>564.0</ele><time>2026-04-18T07:24:22.995Z</time></trkpt><trkpt lat="37.8066133" lon="13.2990483"><ele>562.8571428571429</ele><time>2026-04-18T07:24:23.995Z</time></trkpt><trkpt lat="37.8066576" lon="13.299106"><ele>561.7142857142857</ele><time>2026-04-18T07:24:24.995Z</time></trkpt><trkpt lat="37.8067076" lon="13.2991587"><ele>560.5714285714286</ele><time>2026-04-18T07:24:25.996Z</time></trkpt><trkpt lat="37.8067534" lon="13.2992141"><ele>559.4285714285714</ele><time>2026-04-18T07:24:26.996Z</time></trkpt><trkpt lat="37.8067978" lon="13.2992755"><ele>558.2857142857143</ele><time>2026-04-18T07:24:27.996Z</time></trkpt><trkpt lat="37.8068439" lon="13.2993446"><ele>557.1428571428571</ele><time>2026-04-18T07:24:28.996Z</time></trkpt><trkpt lat="37.8068918" lon="13.2994147"><ele>556.0</ele><time>2026-04-18T07:24:29.996Z</time></trkpt><trkpt lat="37.8069452" lon="13.2994772"><ele>556.0</ele><time>2026-04-18T07:24:30.996Z</time></trkpt><trkpt lat="37.8070011" lon="13.2995327"><ele>556.0</ele><time>2026-04-18T07:24:31.996Z</time></trkpt><trkpt lat="37.8070722" lon="13.2996421"><ele>556.0</ele><time>2026-04-18T07:24:33.996Z</time></trkpt><trkpt lat="37.8070853" lon="13.2997975"><ele>556.0</ele><time>2026-04-18T07:24:35.995Z</time></trkpt><trkpt lat="37.8070947" lon="13.2998875"><ele>556.0</ele><time>2026-04-18T07:24:36.996Z</time></trkpt><trkpt lat="37.8071255" lon="13.2999821"><ele>557.8333333333334</ele><time>2026-04-18T07:24:37.996Z</time></trkpt><trkpt lat="37.8071772" lon="13.3000698"><ele>559.6666666666667</ele><time>2026-04-18T07:24:38.996Z</time></trkpt><trkpt lat="37.807237" lon="13.3001424"><ele>561.5</ele><time>2026-04-18T07:24:39.995Z</time></trkpt><trkpt lat="37.8073055" lon="13.3002126"><ele>563.3333333333334</ele><time>2026-04-18T07:24:40.996Z</time></trkpt><trkpt lat="37.8073743" lon="13.3002787"><ele>565.1666666666666</ele><time>2026-04-18T07:24:41.996Z</time></trkpt><trkpt lat="37.8074442" lon="13.3003444"><ele>567.0</ele><time>2026-04-18T07:24:42.996Z</time></trkpt><trkpt lat="37.8075112" lon="13.3003975"><ele>567.0</ele><time>2026-04-18T07:24:43.996Z</time></trkpt><trkpt lat="37.8075765" lon="13.3004439"><ele>567.0</ele><time>2026-04-18T07:24:44.996Z</time></trkpt><trkpt lat="37.8076535" lon="13.300476"><ele>567.0</ele><time>2026-04-18T07:24:45.995Z</time></trkpt><trkpt lat="37.8077372" lon="13.3004972"><ele>567.0</ele><time>2026-04-18T07:24:46.995Z</time></trkpt><trkpt lat="37.8078185" lon="13.3005145"><ele>567.0</ele><time>2026-04-18T07:24:47.996Z</time></trkpt><trkpt lat="37.807904" lon="13.3005297"><ele>567.0</ele><time>2026-04-18T07:24:48.996Z</time></trkpt><trkpt lat="37.8079817" lon="13.3005451"><ele>566.0</ele><time>2026-04-18T07:24:49.995Z</time></trkpt><trkpt lat="37.8080574" lon="13.3005602"><ele>565.0</ele><time>2026-04-18T07:24:50.996Z</time></trkpt><trkpt lat="37.8081296" lon="13.3005761"><ele>564.0</ele><time>2026-04-18T07:24:51.996Z</time></trkpt><trkpt lat="37.8081994" lon="13.3006002"><ele>563.0</ele><time>2026-04-18T07:24:52.996Z</time></trkpt><trkpt lat="37.8082663" lon="13.3006331"><ele>562.0</ele><time>2026-04-18T07:24:53.996Z</time></trkpt><trkpt lat="37.8083298" lon="13.3006626"><ele>561.0</ele><time>2026-04-18T07:24:54.995Z</time></trkpt><trkpt lat="37.80843" lon="13.3007256"><ele>563.1666666666666</ele><time>2026-04-18T07:24:56.995Z</time></trkpt><trkpt lat="37.8084702" lon="13.300789"><ele>565.3333333333334</ele><time>2026-04-18T07:24:58.996Z</time></trkpt><trkpt lat="37.8083951" lon="13.3008023"><ele>567.5</ele><time>2026-04-18T07:25:04.995Z</time></trkpt><trkpt lat="37.8082842" lon="13.3007554"><ele>569.6666666666667</ele><time>2026-04-18T07:25:06.996Z</time></trkpt><trkpt lat="37.8082176" lon="13.3007303"><ele>571.8333333333334</ele><time>2026-04-18T07:25:07.995Z</time></trkpt><trkpt lat="37.8081419" lon="13.3007036"><ele>574.0</ele><time>2026-04-18T07:25:08.996Z</time></trkpt><trkpt lat="37.8080522" lon="13.3006829"><ele>574.0</ele><time>2026-04-18T07:25:09.996Z</time></trkpt><trkpt lat="37.8079366" lon="13.3006875"><ele>574.0</ele><time>2026-04-18T07:25:10.996Z</time></trkpt><trkpt lat="37.8078088" lon="13.3007029"><ele>574.0</ele><time>2026-04-18T07:25:11.996Z</time></trkpt><trkpt lat="37.8076845" lon="13.3007054"><ele>574.0</ele><time>2026-04-18T07:25:12.996Z</time></trkpt><trkpt lat="37.8075663" lon="13.3006898"><ele>572.25</ele><time>2026-04-18T07:25:13.996Z</time></trkpt><trkpt lat="37.8074541" lon="13.3006356"><ele>570.5</ele><time>2026-04-18T07:25:14.995Z</time></trkpt><trkpt lat="37.8073519" lon="13.3005666"><ele>568.75</ele><time>2026-04-18T07:25:15.995Z</time></trkpt><trkpt lat="37.8072584" lon="13.3004754"><ele>567.0</ele><time>2026-04-18T07:25:16.996Z</time></trkpt><trkpt lat="37.807175" lon="13.3003736"><ele>567.0</ele><time>2026-04-18T07:25:17.996Z</time></trkpt><trkpt lat="37.8070933" lon="13.3002667"><ele>567.0</ele><time>2026-04-18T07:25:18.996Z</time></trkpt><trkpt lat="37.8070113" lon="13.3001677"><ele>567.0</ele><time>2026-04-18T07:25:19.995Z</time></trkpt><trkpt lat="37.8069206" lon="13.300072"><ele>567.0</ele><time>2026-04-18T07:25:20.996Z</time></trkpt><trkpt lat="37.8068251" lon="13.2999653"><ele>569.0</ele><time>2026-04-18T07:25:21.996Z</time></trkpt><trkpt lat="37.8067064" lon="13.2998372"><ele>571.0</ele><time>2026-04-18T07:25:22.996Z</time></trkpt><trkpt lat="37.806555" lon="13.2996958"><ele>573.0</ele><time>2026-04-18T07:25:23.995Z</time></trkpt><trkpt lat="37.8063965" lon="13.2995628"><ele>573.0</ele><time>2026-04-18T07:25:24.995Z</time></trkpt><trkpt lat="37.8062438" lon="13.2994266"><ele>573.0</ele><time>2026-04-18T07:25:25.996Z</time></trkpt><trkpt lat="37.8060993" lon="13.2992871"><ele>573.0</ele><time>2026-04-18T07:25:26.996Z</time></trkpt><trkpt lat="37.8059633" lon="13.2991642"><ele>575.0</ele><time>2026-04-18T07:25:27.995Z</time></trkpt><trkpt lat="37.8058293" lon="13.2990561"><ele>577.0</ele><time>2026-04-18T07:25:28.996Z</time></trkpt><trkpt lat="37.8056921" lon="13.298965"><ele>579.0</ele><time>2026-04-18T07:25:29.996Z</time></trkpt><trkpt lat="37.8055466" lon="13.2988898"><ele>579.0</ele><time>2026-04-18T07:25:30.996Z</time></trkpt><trkpt lat="37.8053966" lon="13.2988436"><ele>579.0</ele><time>2026-04-18T07:25:31.995Z</time></trkpt><trkpt lat="37.80526" lon="13.2988108"><ele>579.0</ele><time>2026-04-18T07:25:32.995Z</time></trkpt><trkpt lat="37.8051321" lon="13.2987689"><ele>579.0</ele><time>2026-04-18T07:25:33.995Z</time></trkpt><trkpt lat="37.805008" lon="13.2986983"><ele>583.0</ele><time>2026-04-18T07:25:34.996Z</time></trkpt><trkpt lat="37.804908" lon="13.2985938"><ele>587.0</ele><time>2026-04-18T07:25:35.995Z</time></trkpt><trkpt lat="37.8048112" lon="13.2984552"><ele>591.0</ele><time>2026-04-18T07:25:36.995Z</time></trkpt><trkpt lat="37.8047011" lon="13.2983103"><ele>595.0</ele><time>2026-04-18T07:25:37.996Z</time></trkpt><trkpt lat="37.8045408" lon="13.2981908"><ele>593.75</ele><time>2026-04-18T07:25:38.995Z</time></trkpt><trkpt lat="37.8044045" lon="13.2980706"><ele>592.5</ele><time>2026-04-18T07:25:39.996Z</time></trkpt><trkpt lat="37.8043112" lon="13.2979579"><ele>591.25</ele><time>2026-04-18T07:25:40.996Z</time></trkpt><trkpt lat="37.8042565" lon="13.2978641"><ele>590.0</ele><time>2026-04-18T07:25:41.996Z</time></trkpt><trkpt lat="37.8042069" lon="13.2978036"><ele>593.2</ele><time>2026-04-18T07:25:42.996Z</time></trkpt><trkpt lat="37.8041097" lon="13.2978374"><ele>596.4</ele><time>2026-04-18T07:25:44.996Z</time></trkpt><trkpt lat="37.8040763" lon="13.2979935"><ele>599.6</ele><time>2026-04-18T07:25:46.996Z</time></trkpt><trkpt lat="37.8041202" lon="13.2980739"><ele>602.8</ele><time>2026-04-18T07:25:47.996Z</time></trkpt><trkpt lat="37.804198" lon="13.2981627"><ele>606.0</ele><time>2026-04-18T07:25:48.995Z</time></trkpt><trkpt lat="37.8042974" lon="13.2982631"><ele>603.25</ele><time>2026-04-18T07:25:49.996Z</time></trkpt><trkpt lat="37.8044043" lon="13.2983703"><ele>600.5</ele><time>2026-04-18T07:25:50.996Z</time></trkpt><trkpt lat="37.8044997" lon="13.2984703"><ele>597.75</ele><time>2026-04-18T07:25:51.995Z</time></trkpt><trkpt lat="37.8045783" lon="13.2985667"><ele>595.0</ele><time>2026-04-18T07:25:52.996Z</time></trkpt><trkpt lat="37.8046248" lon="13.2986828"><ele>595.0</ele><time>2026-04-18T07:25:53.996Z</time></trkpt><trkpt lat="37.8046521" lon="13.2988276"><ele>595.0</ele><time>2026-04-18T07:25:54.995Z</time></trkpt><trkpt lat="37.8046606" lon="13.2989825"><ele>595.0</ele><time>2026-04-18T07:25:55.996Z</time></trkpt><trkpt lat="37.8046621" lon="13.2991211"><ele>595.0</ele><time>2026-04-18T07:25:56.996Z</time></trkpt><trkpt lat="37.8046429" lon="13.299221"><ele>595.0</ele><time>2026-04-18T07:25:57.996Z</time></trkpt><trkpt lat="37.8045886" lon="13.2992804"><ele>598.5</ele><time>2026-04-18T07:25:58.996Z</time></trkpt><trkpt lat="37.8044988" lon="13.2993017"><ele>602.0</ele><time>2026-04-18T07:25:59.996Z</time></trkpt><trkpt lat="37.8043899" lon="13.2992767"><ele>605.5</ele><time>2026-04-18T07:26:00.996Z</time></trkpt><trkpt lat="37.8042878" lon="13.2992135"><ele>609.0</ele><time>2026-04-18T07:26:01.995Z</time></trkpt><trkpt lat="37.8041415" lon="13.2990944"><ele>610.0</ele><time>2026-04-18T07:26:02.996Z</time></trkpt><trkpt lat="37.8039639" lon="13.2989475"><ele>611.0</ele><time>2026-04-18T07:26:03.995Z</time></trkpt><trkpt lat="37.8037823" lon="13.2988023"><ele>612.0</ele><time>2026-04-18T07:26:04.996Z</time></trkpt><trkpt lat="37.803617" lon="13.2986821"><ele>616.0</ele><time>2026-04-18T07:26:05.996Z</time></trkpt><trkpt lat="37.8034698" lon="13.298574"><ele>620.0</ele><time>2026-04-18T07:26:06.995Z</time></trkpt><trkpt lat="37.8033646" lon="13.2984554"><ele>624.0</ele><time>2026-04-18T07:26:07.996Z</time></trkpt><trkpt lat="37.8032845" lon="13.298288"><ele>624.0</ele><time>2026-04-18T07:26:08.995Z</time></trkpt><trkpt lat="37.8032123" lon="13.2980922"><ele>624.0</ele><time>2026-04-18T07:26:09.995Z</time></trkpt><trkpt lat="37.8031541" lon="13.2978937"><ele>624.0</ele><time>2026-04-18T07:26:10.996Z</time></trkpt><trkpt lat="37.8030858" lon="13.2977169"><ele>624.0</ele><time>2026-04-18T07:26:11.995Z</time></trkpt><trkpt lat="37.8030111" lon="13.2975688"><ele>624.0</ele><time>2026-04-18T07:26:12.996Z</time></trkpt><trkpt lat="37.8029093" lon="13.297456"><ele>624.0</ele><time>2026-04-18T07:26:13.996Z</time></trkpt><trkpt lat="37.8027957" lon="13.2973658"><ele>624.0</ele><time>2026-04-18T07:26:14.996Z</time></trkpt><trkpt lat="37.8026851" lon="13.2973028"><ele>625.6666666666666</ele><time>2026-04-18T07:26:15.995Z</time></trkpt><trkpt lat="37.8025992" lon="13.2972695"><ele>627.3333333333334</ele><time>2026-04-18T07:26:16.996Z</time></trkpt><trkpt lat="37.802512" lon="13.2972928"><ele>629.0</ele><time>2026-04-18T07:26:18.996Z</time></trkpt><trkpt lat="37.8024818" lon="13.2973961"><ele>630.6666666666667</ele><time>2026-04-18T07:26:20.996Z</time></trkpt><trkpt lat="37.8024807" lon="13.2974938"><ele>632.3333333333334</ele><time>2026-04-18T07:26:21.995Z</time></trkpt><trkpt lat="37.8025038" lon="13.2975994"><ele>634.0</ele><time>2026-04-18T07:26:22.996Z</time></trkpt><trkpt lat="37.8025363" lon="13.2977248"><ele>634.0</ele><time>2026-04-18T07:26:23.996Z</time></trkpt><trkpt lat="37.8025699" lon="13.297881"><ele>634.0</ele><time>2026-04-18T07:26:24.996Z</time></trkpt><trkpt lat="37.8026069" lon="13.29808"><ele>634.0</ele><time>2026-04-18T07:26:25.996Z</time></trkpt><trkpt lat="37.8026454" lon="13.29832"><ele>633.6666666666667</ele><time>2026-04-18T07:26:26.996Z</time></trkpt><trkpt lat="37.8026903" lon="13.2985793"><ele>633.3333333333334</ele><time>2026-04-18T07:26:27.995Z</time></trkpt><trkpt lat="37.802738" lon="13.298829"><ele>633.0</ele><time>2026-04-18T07:26:28.996Z</time></trkpt><trkpt lat="37.8028032" lon="13.2990666"><ele>633.0</ele><time>2026-04-18T07:26:29.996Z</time></trkpt><trkpt lat="37.8029198" lon="13.2992978"><ele>633.0</ele><time>2026-04-18T07:26:30.995Z</time></trkpt><trkpt lat="37.8030684" lon="13.2995248"><ele>638.5</ele><time>2026-04-18T07:26:31.995Z</time></trkpt><trkpt lat="37.8032247" lon="13.2997604"><ele>644.0</ele><time>2026-04-18T07:26:32.995Z</time></trkpt><trkpt lat="37.8033719" lon="13.2999934"><ele>640.3333333333333</ele><time>2026-04-18T07:26:33.996Z</time></trkpt><trkpt lat="37.8035043" lon="13.3002034"><ele>636.6666666666666</ele><time>2026-04-18T07:26:34.996Z</time></trkpt><trkpt lat="37.8036433" lon="13.3003977"><ele>633.0</ele><time>2026-04-18T07:26:35.996Z</time></trkpt><trkpt lat="37.8037944" lon="13.3005525"><ele>637.0</ele><time>2026-04-18T07:26:36.995Z</time></trkpt><trkpt lat="37.8039608" lon="13.3006645"><ele>641.0</ele><time>2026-04-18T07:26:37.995Z</time></trkpt><trkpt lat="37.8041466" lon="13.3007238"><ele>645.0</ele><time>2026-04-18T07:26:38.995Z</time></trkpt><trkpt lat="37.804336" lon="13.3007653"><ele>645.0</ele><time>2026-04-18T07:26:39.996Z</time></trkpt><trkpt lat="37.8044999" lon="13.3007904"><ele>645.0</ele><time>2026-04-18T07:26:40.996Z</time></trkpt><trkpt lat="37.8046054" lon="13.3008137"><ele>645.0</ele><time>2026-04-18T07:26:41.996Z</time></trkpt><trkpt lat="37.8046802" lon="13.3008495"><ele>645.0</ele><time>2026-04-18T07:26:42.996Z</time></trkpt><trkpt lat="37.8047027" lon="13.3009303"><ele>645.0</ele><time>2026-04-18T07:26:43.996Z</time></trkpt><trkpt lat="37.8047034" lon="13.3010108"><ele>645.0</ele><time>2026-04-18T07:26:44.996Z</time></trkpt><trkpt lat="37.804653" lon="13.3010683"><ele>645.0</ele><time>2026-04-18T07:26:45.995Z</time></trkpt><trkpt lat="37.8045629" lon="13.3010909"><ele>645.0</ele><time>2026-04-18T07:26:46.995Z</time></trkpt><trkpt lat="37.8044114" lon="13.3010914"><ele>645.0</ele><time>2026-04-18T07:26:47.996Z</time></trkpt><trkpt lat="37.8042044" lon="13.3010922"><ele>647.5</ele><time>2026-04-18T07:26:48.996Z</time></trkpt><trkpt lat="37.8039609" lon="13.3010945"><ele>650.0</ele><time>2026-04-18T07:26:49.995Z</time></trkpt><trkpt lat="37.8037066" lon="13.301094"><ele>652.5</ele><time>2026-04-18T07:26:50.995Z</time></trkpt><trkpt lat="37.8034691" lon="13.3010885"><ele>655.0</ele><time>2026-04-18T07:26:51.996Z</time></trkpt><trkpt lat="37.8032541" lon="13.3010457"><ele>655.0</ele><time>2026-04-18T07:26:52.996Z</time></trkpt><trkpt lat="37.8030287" lon="13.300966"><ele>655.0</ele><time>2026-04-18T07:26:53.996Z</time></trkpt><trkpt lat="37.8028032" lon="13.3008693"><ele>658.0</ele><time>2026-04-18T07:26:54.995Z</time></trkpt><trkpt lat="37.8025758" lon="13.3007697"><ele>661.0</ele><time>2026-04-18T07:26:55.995Z</time></trkpt><trkpt lat="37.802359" lon="13.3006715"><ele>660.3333333333334</ele><time>2026-04-18T07:26:56.996Z</time></trkpt><trkpt lat="37.8021554" lon="13.3005703"><ele>659.6666666666666</ele><time>2026-04-18T07:26:57.996Z</time></trkpt><trkpt lat="37.8019741" lon="13.3004893"><ele>659.0</ele><time>2026-04-18T07:26:58.996Z</time></trkpt><trkpt lat="37.8018254" lon="13.3004215"><ele>659.0</ele><time>2026-04-18T07:26:59.996Z</time></trkpt><trkpt lat="37.8017179" lon="13.3003668"><ele>659.0</ele><time>2026-04-18T07:27:00.996Z</time></trkpt><trkpt lat="37.80163" lon="13.3003385"><ele>659.0</ele><time>2026-04-18T07:27:01.996Z</time></trkpt><trkpt lat="37.8015358" lon="13.3003506"><ele>659.0</ele><time>2026-04-18T07:27:02.996Z</time></trkpt><trkpt lat="37.8014754" lon="13.3004105"><ele>659.0</ele><time>2026-04-18T07:27:03.996Z</time></trkpt><trkpt lat="37.8014489" lon="13.3005107"><ele>659.5</ele><time>2026-04-18T07:27:04.996Z</time></trkpt><trkpt lat="37.8014701" lon="13.300623"><ele>660.0</ele><time>2026-04-18T07:27:05.995Z</time></trkpt><trkpt lat="37.8015489" lon="13.3007451"><ele>660.5</ele><time>2026-04-18T07:27:06.996Z</time></trkpt><trkpt lat="37.8016736" lon="13.3008738"><ele>661.0</ele><time>2026-04-18T07:27:07.995Z</time></trkpt><trkpt lat="37.8018349" lon="13.3010209"><ele>661.0</ele><time>2026-04-18T07:27:08.996Z</time></trkpt><trkpt lat="37.8019971" lon="13.3011798"><ele>661.0</ele><time>2026-04-18T07:27:09.995Z</time></trkpt><trkpt lat="37.8021652" lon="13.3013535"><ele>661.0</ele><time>2026-04-18T07:27:11.003Z</time></trkpt><trkpt lat="37.8023337" lon="13.3015294"><ele>662.0</ele><time>2026-04-18T07:27:12.002Z</time></trkpt><trkpt lat="37.8025054" lon="13.3017072"><ele>663.0</ele><time>2026-04-18T07:27:13.003Z</time></trkpt><trkpt lat="37.8026708" lon="13.3018824"><ele>664.0</ele><time>2026-04-18T07:27:14.003Z</time></trkpt><trkpt lat="37.8028406" lon="13.3020568"><ele>664.0</ele><time>2026-04-18T07:27:15.003Z</time></trkpt><trkpt lat="37.8030065" lon="13.3022367"><ele>664.0</ele><time>2026-04-18T07:27:16.003Z</time></trkpt><trkpt lat="37.803168" lon="13.3024153"><ele>664.0</ele><time>2026-04-18T07:27:17.002Z</time></trkpt><trkpt lat="37.8033264" lon="13.3025938"><ele>666.0</ele><time>2026-04-18T07:27:18.003Z</time></trkpt><trkpt lat="37.8034842" lon="13.3027624"><ele>668.0</ele><time>2026-04-18T07:27:19.003Z</time></trkpt><trkpt lat="37.8036343" lon="13.3029235"><ele>670.0</ele><time>2026-04-18T07:27:20.003Z</time></trkpt><trkpt lat="37.8037777" lon="13.3030889"><ele>672.0</ele><time>2026-04-18T07:27:21.003Z</time></trkpt><trkpt lat="37.8039123" lon="13.3032649"><ele>674.0</ele><time>2026-04-18T07:27:22.002Z</time></trkpt><trkpt lat="37.8040212" lon="13.3034648"><ele>676.0</ele><time>2026-04-18T07:27:23.002Z</time></trkpt><trkpt lat="37.8041047" lon="13.303679"><ele>676.0</ele><time>2026-04-18T07:27:24.003Z</time></trkpt><trkpt lat="37.8041604" lon="13.3039083"><ele>676.0</ele><time>2026-04-18T07:27:25.003Z</time></trkpt><trkpt lat="37.804187" lon="13.3041529"><ele>676.0</ele><time>2026-04-18T07:27:26.003Z</time></trkpt><trkpt lat="37.8041971" lon="13.304395"><ele>678.3333333333334</ele><time>2026-04-18T07:27:27.003Z</time></trkpt><trkpt lat="37.8041887" lon="13.3046216"><ele>680.6666666666666</ele><time>2026-04-18T07:27:28.003Z</time></trkpt><trkpt lat="37.8041873" lon="13.3048261"><ele>683.0</ele><time>2026-04-18T07:27:29.003Z</time></trkpt><trkpt lat="37.8042365" lon="13.3050402"><ele>681.0</ele><time>2026-04-18T07:27:30.003Z</time></trkpt><trkpt lat="37.8043597" lon="13.305286"><ele>679.0</ele><time>2026-04-18T07:27:31.003Z</time></trkpt><trkpt lat="37.8044959" lon="13.3055323"><ele>681.0</ele><time>2026-04-18T07:27:32.003Z</time></trkpt><trkpt lat="37.8046224" lon="13.3057499"><ele>683.0</ele><time>2026-04-18T07:27:33.003Z</time></trkpt><trkpt lat="37.8047322" lon="13.3059439"><ele>685.0</ele><time>2026-04-18T07:27:34.003Z</time></trkpt><trkpt lat="37.8048244" lon="13.3061367"><ele>685.0</ele><time>2026-04-18T07:27:35.003Z</time></trkpt><trkpt lat="37.8048895" lon="13.3063489"><ele>685.0</ele><time>2026-04-18T07:27:36.003Z</time></trkpt><trkpt lat="37.8049339" lon="13.3065819"><ele>685.0</ele><time>2026-04-18T07:27:37.002Z</time></trkpt><trkpt lat="37.8049602" lon="13.3068226"><ele>687.3333333333334</ele><time>2026-04-18T07:27:38.003Z</time></trkpt><trkpt lat="37.8049709" lon="13.3070728"><ele>689.6666666666666</ele><time>2026-04-18T07:27:39.003Z</time></trkpt><trkpt lat="37.8049677" lon="13.3073382"><ele>692.0</ele><time>2026-04-18T07:27:40.002Z</time></trkpt><trkpt lat="37.8049713" lon="13.3076141"><ele>693.0</ele><time>2026-04-18T07:27:41.003Z</time></trkpt><trkpt lat="37.8049762" lon="13.3078834"><ele>694.0</ele><time>2026-04-18T07:27:42.003Z</time></trkpt><trkpt lat="37.8049839" lon="13.308152"><ele>695.0</ele><time>2026-04-18T07:27:43.003Z</time></trkpt><trkpt lat="37.8049889" lon="13.3084305"><ele>696.6666666666666</ele><time>2026-04-18T07:27:44.002Z</time></trkpt><trkpt lat="37.8049899" lon="13.3087078"><ele>698.3333333333334</ele><time>2026-04-18T07:27:45.002Z</time></trkpt><trkpt lat="37.8049935" lon="13.30897"><ele>700.0</ele><time>2026-04-18T07:27:46.002Z</time></trkpt><trkpt lat="37.8049958" lon="13.3092177"><ele>700.6666666666667</ele><time>2026-04-18T07:27:47.003Z</time></trkpt><trkpt lat="37.8049843" lon="13.3094665"><ele>701.3333333333334</ele><time>2026-04-18T07:27:48.003Z</time></trkpt><trkpt lat="37.804948" lon="13.3097224"><ele>702.0</ele><time>2026-04-18T07:27:49.002Z</time></trkpt><trkpt lat="37.8048818" lon="13.309978"><ele>702.5</ele><time>2026-04-18T07:27:50.002Z</time></trkpt><trkpt lat="37.8047926" lon="13.3102363"><ele>703.0</ele><time>2026-04-18T07:27:51.002Z</time></trkpt><trkpt lat="37.8046885" lon="13.310504"><ele>701.5</ele><time>2026-04-18T07:27:52.002Z</time></trkpt><trkpt lat="37.8045851" lon="13.3107778"><ele>700.0</ele><time>2026-04-18T07:27:53.003Z</time></trkpt><trkpt lat="37.804482" lon="13.3110522"><ele>700.0</ele><time>2026-04-18T07:27:54.003Z</time></trkpt><trkpt lat="37.8043814" lon="13.3113286"><ele>700.0</ele><time>2026-04-18T07:27:55.003Z</time></trkpt><trkpt lat="37.8042759" lon="13.311604"><ele>698.5</ele><time>2026-04-18T07:27:56.003Z</time></trkpt><trkpt lat="37.8041723" lon="13.3118822"><ele>697.0</ele><time>2026-04-18T07:27:57.002Z</time></trkpt><trkpt lat="37.8040679" lon="13.3121628"><ele>694.5</ele><time>2026-04-18T07:27:58.003Z</time></trkpt><trkpt lat="37.8039599" lon="13.3124417"><ele>692.0</ele><time>2026-04-18T07:27:59.003Z</time></trkpt><trkpt lat="37.8038576" lon="13.3127225"><ele>692.0</ele><time>2026-04-18T07:28:00.003Z</time></trkpt><trkpt lat="37.8037618" lon="13.3129947"><ele>692.0</ele><time>2026-04-18T07:28:01.003Z</time></trkpt><trkpt lat="37.8036725" lon="13.3132374"><ele>692.0</ele><time>2026-04-18T07:28:02.003Z</time></trkpt><trkpt lat="37.8036012" lon="13.3134292"><ele>691.25</ele><time>2026-04-18T07:28:03.002Z</time></trkpt><trkpt lat="37.8035362" lon="13.3135868"><ele>690.5</ele><time>2026-04-18T07:28:04.003Z</time></trkpt><trkpt lat="37.8034921" lon="13.3137348"><ele>689.75</ele><time>2026-04-18T07:28:05.002Z</time></trkpt><trkpt lat="37.8034879" lon="13.3139063"><ele>689.0</ele><time>2026-04-18T07:28:06.002Z</time></trkpt><trkpt lat="37.8035239" lon="13.3140779"><ele>687.6666666666666</ele><time>2026-04-18T07:28:07.003Z</time></trkpt><trkpt lat="37.8035979" lon="13.3142518"><ele>686.3333333333334</ele><time>2026-04-18T07:28:08.003Z</time></trkpt><trkpt lat="37.8036925" lon="13.3144327"><ele>685.0</ele><time>2026-04-18T07:28:09.002Z</time></trkpt><trkpt lat="37.8037901" lon="13.3146138"><ele>686.3333333333334</ele><time>2026-04-18T07:28:10.003Z</time></trkpt><trkpt lat="37.8038709" lon="13.3147938"><ele>687.6666666666666</ele><time>2026-04-18T07:28:11.003Z</time></trkpt><trkpt lat="37.803929" lon="13.314992"><ele>689.0</ele><time>2026-04-18T07:28:12.002Z</time></trkpt><trkpt lat="37.8039682" lon="13.3152119"><ele>689.0</ele><time>2026-04-18T07:28:13.002Z</time></trkpt><trkpt lat="37.8039782" lon="13.31545"><ele>689.0</ele><time>2026-04-18T07:28:14.003Z</time></trkpt><trkpt lat="37.8039576" lon="13.3157222"><ele>689.0</ele><time>2026-04-18T07:28:15.003Z</time></trkpt><trkpt lat="37.8039252" lon="13.3160259"><ele>688.0</ele><time>2026-04-18T07:28:16.002Z</time></trkpt><trkpt lat="37.8038994" lon="13.3163297"><ele>687.0</ele><time>2026-04-18T07:28:17.003Z</time></trkpt><trkpt lat="37.803872" lon="13.3166042"><ele>686.0</ele><time>2026-04-18T07:28:18.003Z</time></trkpt><trkpt lat="37.803854" lon="13.3168448"><ele>685.0</ele><time>2026-04-18T07:28:19.003Z</time></trkpt><trkpt lat="37.8038245" lon="13.3170318"><ele>684.0</ele><time>2026-04-18T07:28:20.003Z</time></trkpt><trkpt lat="37.8037783" lon="13.317213"><ele>682.3333333333334</ele><time>2026-04-18T07:28:21.002Z</time></trkpt><trkpt lat="37.8036919" lon="13.3173796"><ele>680.6666666666667</ele><time>2026-04-18T07:28:22.002Z</time></trkpt><trkpt lat="37.8035559" lon="13.3175514"><ele>679.0</ele><time>2026-04-18T07:28:23.002Z</time></trkpt><trkpt lat="37.8034281" lon="13.3177244"><ele>681.3333333333334</ele><time>2026-04-18T07:28:24.003Z</time></trkpt><trkpt lat="37.8033243" lon="13.3179008"><ele>683.6666666666666</ele><time>2026-04-18T07:28:25.002Z</time></trkpt><trkpt lat="37.8032612" lon="13.3180807"><ele>686.0</ele><time>2026-04-18T07:28:26.003Z</time></trkpt><trkpt lat="37.8032419" lon="13.3183133"><ele>686.0</ele><time>2026-04-18T07:28:27.002Z</time></trkpt><trkpt lat="37.8032596" lon="13.318569"><ele>686.0</ele><time>2026-04-18T07:28:28.003Z</time></trkpt><trkpt lat="37.8032927" lon="13.3188259"><ele>686.0</ele><time>2026-04-18T07:28:29.003Z</time></trkpt><trkpt lat="37.8033183" lon="13.3190584"><ele>686.0</ele><time>2026-04-18T07:28:30.003Z</time></trkpt><trkpt lat="37.8033458" lon="13.3192758"><ele>686.0</ele><time>2026-04-18T07:28:31.002Z</time></trkpt><trkpt lat="37.8033686" lon="13.3194787"><ele>686.0</ele><time>2026-04-18T07:28:32.003Z</time></trkpt><trkpt lat="37.8033865" lon="13.3196631"><ele>686.25</ele><time>2026-04-18T07:28:33.003Z</time></trkpt><trkpt lat="37.8033991" lon="13.3198374"><ele>686.5</ele><time>2026-04-18T07:28:34.003Z</time></trkpt><trkpt lat="37.8034059" lon="13.3200049"><ele>686.75</ele><time>2026-04-18T07:28:35.003Z</time></trkpt><trkpt lat="37.8033968" lon="13.3201736"><ele>687.0</ele><time>2026-04-18T07:28:36.003Z</time></trkpt><trkpt lat="37.8033761" lon="13.3203463"><ele>687.0</ele><time>2026-04-18T07:28:37.003Z</time></trkpt><trkpt lat="37.8033478" lon="13.3205207"><ele>687.0</ele><time>2026-04-18T07:28:38.003Z</time></trkpt><trkpt lat="37.8033058" lon="13.320692"><ele>687.0</ele><time>2026-04-18T07:28:39.003Z</time></trkpt><trkpt lat="37.8032445" lon="13.3208628"><ele>687.0</ele><time>2026-04-18T07:28:40.002Z</time></trkpt><trkpt lat="37.8031611" lon="13.3210353"><ele>686.0</ele><time>2026-04-18T07:28:41.003Z</time></trkpt><trkpt lat="37.8030617" lon="13.3212184"><ele>685.0</ele><time>2026-04-18T07:28:42.003Z</time></trkpt><trkpt lat="37.8029441" lon="13.3214145"><ele>684.0</ele><time>2026-04-18T07:28:43.002Z</time></trkpt><trkpt lat="37.802828" lon="13.3216145"><ele>684.0</ele><time>2026-04-18T07:28:44.003Z</time></trkpt><trkpt lat="37.8027054" lon="13.3218234"><ele>684.0</ele><time>2026-04-18T07:28:45.003Z</time></trkpt><trkpt lat="37.8025782" lon="13.3220434"><ele>684.0</ele><time>2026-04-18T07:28:46.002Z</time></trkpt><trkpt lat="37.8024476" lon="13.3222744"><ele>684.5</ele><time>2026-04-18T07:28:47.003Z</time></trkpt><trkpt lat="37.8023147" lon="13.3225091"><ele>685.0</ele><time>2026-04-18T07:28:48.003Z</time></trkpt><trkpt lat="37.802176" lon="13.3227406"><ele>685.0</ele><time>2026-04-18T07:28:49.003Z</time></trkpt><trkpt lat="37.8020388" lon="13.3229746"><ele>685.0</ele><time>2026-04-18T07:28:50.003Z</time></trkpt><trkpt lat="37.8019057" lon="13.323201"><ele>685.6666666666667</ele><time>2026-04-18T07:28:51.002Z</time></trkpt><trkpt lat="37.8017781" lon="13.3234156"><ele>686.3333333333334</ele><time>2026-04-18T07:28:52.003Z</time></trkpt><trkpt lat="37.8016562" lon="13.3236175"><ele>687.0</ele><time>2026-04-18T07:28:53.003Z</time></trkpt><trkpt lat="37.8015466" lon="13.3238049"><ele>686.0</ele><time>2026-04-18T07:28:54.003Z</time></trkpt><trkpt lat="37.8014664" lon="13.3239906"><ele>685.0</ele><time>2026-04-18T07:28:55.003Z</time></trkpt><trkpt lat="37.8014191" lon="13.3241842"><ele>684.0</ele><time>2026-04-18T07:28:56.002Z</time></trkpt><trkpt lat="37.8014199" lon="13.3244001"><ele>684.0</ele><time>2026-04-18T07:28:57.003Z</time></trkpt><trkpt lat="37.8014704" lon="13.3246183"><ele>684.0</ele><time>2026-04-18T07:28:58.003Z</time></trkpt><trkpt lat="37.8015862" lon="13.3248241"><ele>684.0</ele><time>2026-04-18T07:28:59.002Z</time></trkpt><trkpt lat="37.8017219" lon="13.3250081"><ele>685.0</ele><time>2026-04-18T07:29:00.003Z</time></trkpt><trkpt lat="37.801813" lon="13.3251807"><ele>686.0</ele><time>2026-04-18T07:29:01.003Z</time></trkpt><trkpt lat="37.8018702" lon="13.3253928"><ele>687.0</ele><time>2026-04-18T07:29:02.003Z</time></trkpt><trkpt lat="37.8018794" lon="13.3256389"><ele>686.6666666666666</ele><time>2026-04-18T07:29:03.003Z</time></trkpt><trkpt lat="37.8018327" lon="13.3258761"><ele>686.3333333333333</ele><time>2026-04-18T07:29:04.003Z</time></trkpt><trkpt lat="37.8017314" lon="13.3261312"><ele>686.0</ele><time>2026-04-18T07:29:05.003Z</time></trkpt><trkpt lat="37.8015984" lon="13.3264102"><ele>686.0</ele><time>2026-04-18T07:29:06.003Z</time></trkpt><trkpt lat="37.8014586" lon="13.3266966"><ele>686.0</ele><time>2026-04-18T07:29:07.002Z</time></trkpt><trkpt lat="37.8013411" lon="13.3269948"><ele>684.5</ele><time>2026-04-18T07:29:08.003Z</time></trkpt><trkpt lat="37.8012597" lon="13.3272956"><ele>683.0</ele><time>2026-04-18T07:29:09.003Z</time></trkpt><trkpt lat="37.8012019" lon="13.3275992"><ele>683.0</ele><time>2026-04-18T07:29:10.003Z</time></trkpt><trkpt lat="37.8011474" lon="13.3278959"><ele>683.0</ele><time>2026-04-18T07:29:11.003Z</time></trkpt><trkpt lat="37.8010917" lon="13.3281848"><ele>682.3333333333333</ele><time>2026-04-18T07:29:12.003Z</time></trkpt><trkpt lat="37.8010301" lon="13.3284564"><ele>681.6666666666666</ele><time>2026-04-18T07:29:13.003Z</time></trkpt><trkpt lat="37.8009558" lon="13.3287255"><ele>681.0</ele><time>2026-04-18T07:29:14.003Z</time></trkpt><trkpt lat="37.8008539" lon="13.3290031"><ele>685.0</ele><time>2026-04-18T07:29:15.003Z</time></trkpt><trkpt lat="37.8007372" lon="13.3292701"><ele>689.0</ele><time>2026-04-18T07:29:16.003Z</time></trkpt><trkpt lat="37.8006029" lon="13.3295293"><ele>686.0</ele><time>2026-04-18T07:29:17.003Z</time></trkpt><trkpt lat="37.800451" lon="13.3297736"><ele>683.0</ele><time>2026-04-18T07:29:18.003Z</time></trkpt><trkpt lat="37.8002706" lon="13.3300116"><ele>686.5</ele><time>2026-04-18T07:29:19.002Z</time></trkpt><trkpt lat="37.8000677" lon="13.3302292"><ele>690.0</ele><time>2026-04-18T07:29:20.003Z</time></trkpt><trkpt lat="37.7998581" lon="13.3304371"><ele>688.0</ele><time>2026-04-18T07:29:21.003Z</time></trkpt><trkpt lat="37.7996462" lon="13.3306527"><ele>686.0</ele><time>2026-04-18T07:29:22.002Z</time></trkpt><trkpt lat="37.7994392" lon="13.3308718"><ele>688.5</ele><time>2026-04-18T07:29:23.003Z</time></trkpt><trkpt lat="37.7992358" lon="13.3310914"><ele>691.0</ele><time>2026-04-18T07:29:24.003Z</time></trkpt><trkpt lat="37.7990312" lon="13.3312934"><ele>689.5</ele><time>2026-04-18T07:29:25.002Z</time></trkpt><trkpt lat="37.7988386" lon="13.3314954"><ele>688.0</ele><time>2026-04-18T07:29:26.003Z</time></trkpt><trkpt lat="37.7986627" lon="13.3317187"><ele>689.5</ele><time>2026-04-18T07:29:27.002Z</time></trkpt><trkpt lat="37.7984975" lon="13.331964"><ele>691.0</ele><time>2026-04-18T07:29:28.003Z</time></trkpt><trkpt lat="37.7983608" lon="13.3322398"><ele>691.0</ele><time>2026-04-18T07:29:29.003Z</time></trkpt><trkpt lat="37.7982399" lon="13.332544"><ele>691.0</ele><time>2026-04-18T07:29:30.003Z</time></trkpt><trkpt lat="37.7981369" lon="13.3328577"><ele>689.5</ele><time>2026-04-18T07:29:31.002Z</time></trkpt><trkpt lat="37.7980484" lon="13.3331769"><ele>688.0</ele><time>2026-04-18T07:29:32.003Z</time></trkpt><trkpt lat="37.7979602" lon="13.3334928"><ele>688.0</ele><time>2026-04-18T07:29:33.003Z</time></trkpt><trkpt lat="37.7978736" lon="13.3338005"><ele>688.0</ele><time>2026-04-18T07:29:34.002Z</time></trkpt><trkpt lat="37.7978019" lon="13.3341074"><ele>688.0</ele><time>2026-04-18T07:29:35.002Z</time></trkpt><trkpt lat="37.7977613" lon="13.3344192"><ele>688.0</ele><time>2026-04-18T07:29:36.003Z</time></trkpt><trkpt lat="37.7977477" lon="13.3347435"><ele>688.5</ele><time>2026-04-18T07:29:37.003Z</time></trkpt><trkpt lat="37.7977672" lon="13.3350705"><ele>689.0</ele><time>2026-04-18T07:29:38.003Z</time></trkpt><trkpt lat="37.7978137" lon="13.3353946"><ele>690.0</ele><time>2026-04-18T07:29:39.003Z</time></trkpt><trkpt lat="37.7978573" lon="13.335699"><ele>691.0</ele><time>2026-04-18T07:29:40.003Z</time></trkpt><trkpt lat="37.7978961" lon="13.3359874"><ele>691.0</ele><time>2026-04-18T07:29:41.002Z</time></trkpt><trkpt lat="37.797923" lon="13.3362725"><ele>691.0</ele><time>2026-04-18T07:29:42.003Z</time></trkpt><trkpt lat="37.7979322" lon="13.3365668"><ele>691.0</ele><time>2026-04-18T07:29:43.002Z</time></trkpt><trkpt lat="37.7979212" lon="13.3368715"><ele>691.0</ele><time>2026-04-18T07:29:44.003Z</time></trkpt><trkpt lat="37.7979047" lon="13.3371706"><ele>689.5</ele><time>2026-04-18T07:29:45.003Z</time></trkpt><trkpt lat="37.7978958" lon="13.3374697"><ele>688.0</ele><time>2026-04-18T07:29:46.003Z</time></trkpt><trkpt lat="37.7978899" lon="13.3377722"><ele>687.0</ele><time>2026-04-18T07:29:47.003Z</time></trkpt><trkpt lat="37.7978811" lon="13.338078"><ele>686.0</ele><time>2026-04-18T07:29:48.003Z</time></trkpt><trkpt lat="37.7978704" lon="13.3383876"><ele>686.0</ele><time>2026-04-18T07:29:49.002Z</time></trkpt><trkpt lat="37.797857" lon="13.3386927"><ele>686.0</ele><time>2026-04-18T07:29:50.003Z</time></trkpt><trkpt lat="37.797838" lon="13.3389989"><ele>685.0</ele><time>2026-04-18T07:29:51.003Z</time></trkpt><trkpt lat="37.7978077" lon="13.3393052"><ele>684.0</ele><time>2026-04-18T07:29:52.003Z</time></trkpt><trkpt lat="37.7977644" lon="13.3396149"><ele>684.0</ele><time>2026-04-18T07:29:53.003Z</time></trkpt><trkpt lat="37.7977177" lon="13.3399204"><ele>684.0</ele><time>2026-04-18T07:29:54.003Z</time></trkpt><trkpt lat="37.7976683" lon="13.3402198"><ele>686.0</ele><time>2026-04-18T07:29:55.002Z</time></trkpt><trkpt lat="37.7976128" lon="13.3405062"><ele>688.0</ele><time>2026-04-18T07:29:56.003Z</time></trkpt><trkpt lat="37.797548" lon="13.3407921"><ele>689.0</ele><time>2026-04-18T07:29:57.003Z</time></trkpt><trkpt lat="37.7974661" lon="13.3410724"><ele>690.0</ele><time>2026-04-18T07:29:58.003Z</time></trkpt><trkpt lat="37.7973606" lon="13.3413394"><ele>689.0</ele><time>2026-04-18T07:29:59.003Z</time></trkpt><trkpt lat="37.7972295" lon="13.3415973"><ele>688.0</ele><time>2026-04-18T07:30:00.003Z</time></trkpt><trkpt lat="37.7970779" lon="13.3418437"><ele>688.0</ele><time>2026-04-18T07:30:01.003Z</time></trkpt><trkpt lat="37.796919" lon="13.3420794"><ele>688.0</ele><time>2026-04-18T07:30:02.002Z</time></trkpt><trkpt lat="37.7967646" lon="13.3423118"><ele>689.5</ele><time>2026-04-18T07:30:03.003Z</time></trkpt><trkpt lat="37.7966198" lon="13.3425666"><ele>691.0</ele><time>2026-04-18T07:30:04.003Z</time></trkpt><trkpt lat="37.7964918" lon="13.3428458"><ele>689.5</ele><time>2026-04-18T07:30:05.003Z</time></trkpt><trkpt lat="37.7963848" lon="13.3431692"><ele>688.0</ele><time>2026-04-18T07:30:06.002Z</time></trkpt><trkpt lat="37.7962902" lon="13.3435288"><ele>688.0</ele><time>2026-04-18T07:30:07.003Z</time></trkpt><trkpt lat="37.7962006" lon="13.3438911"><ele>688.0</ele><time>2026-04-18T07:30:08.003Z</time></trkpt><trkpt lat="37.7961147" lon="13.344229"><ele>688.0</ele><time>2026-04-18T07:30:09.002Z</time></trkpt><trkpt lat="37.7960369" lon="13.3445405"><ele>688.0</ele><time>2026-04-18T07:30:10.002Z</time></trkpt><trkpt lat="37.7959565" lon="13.3448204"><ele>690.5</ele><time>2026-04-18T07:30:11.002Z</time></trkpt><trkpt lat="37.795888" lon="13.3451031"><ele>693.0</ele><time>2026-04-18T07:30:12.003Z</time></trkpt><trkpt lat="37.7957973" lon="13.3453944"><ele>692.5</ele><time>2026-04-18T07:30:13.002Z</time></trkpt><trkpt lat="37.7956919" lon="13.3456758"><ele>692.0</ele><time>2026-04-18T07:30:14.003Z</time></trkpt><trkpt lat="37.795564" lon="13.3459507"><ele>692.0</ele><time>2026-04-18T07:30:15.002Z</time></trkpt><trkpt lat="37.7954197" lon="13.3462044"><ele>692.0</ele><time>2026-04-18T07:30:16.003Z</time></trkpt><trkpt lat="37.795277" lon="13.3464338"><ele>692.6666666666666</ele><time>2026-04-18T07:30:17.002Z</time></trkpt><trkpt lat="37.7951486" lon="13.3466443"><ele>693.3333333333334</ele><time>2026-04-18T07:30:18.002Z</time></trkpt><trkpt lat="37.7950467" lon="13.3468465"><ele>694.0</ele><time>2026-04-18T07:30:19.003Z</time></trkpt><trkpt lat="37.7949885" lon="13.3470741"><ele>694.0</ele><time>2026-04-18T07:30:20.002Z</time></trkpt><trkpt lat="37.7949745" lon="13.3473137"><ele>694.0</ele><time>2026-04-18T07:30:21.003Z</time></trkpt><trkpt lat="37.7950053" lon="13.3475604"><ele>694.0</ele><time>2026-04-18T07:30:22.003Z</time></trkpt><trkpt lat="37.7950752" lon="13.3478056"><ele>692.5</ele><time>2026-04-18T07:30:23.003Z</time></trkpt><trkpt lat="37.7951908" lon="13.3480453"><ele>691.0</ele><time>2026-04-18T07:30:24.003Z</time></trkpt><trkpt lat="37.7953443" lon="13.34827"><ele>691.0</ele><time>2026-04-18T07:30:25.003Z</time></trkpt><trkpt lat="37.7955092" lon="13.3484588"><ele>691.0</ele><time>2026-04-18T07:30:26.003Z</time></trkpt><trkpt lat="37.7956438" lon="13.3486344"><ele>691.0</ele><time>2026-04-18T07:30:27.003Z</time></trkpt><trkpt lat="37.7957637" lon="13.3488218"><ele>694.0</ele><time>2026-04-18T07:30:28.003Z</time></trkpt><trkpt lat="37.7958556" lon="13.3490161"><ele>697.0</ele><time>2026-04-18T07:30:29.002Z</time></trkpt><trkpt lat="37.7959635" lon="13.3494138"><ele>697.0</ele><time>2026-04-18T07:30:31.002Z</time></trkpt><trkpt lat="37.7959837" lon="13.3496242"><ele>697.0</ele><time>2026-04-18T07:30:32.002Z</time></trkpt><trkpt lat="37.7960012" lon="13.3498587"><ele>697.0</ele><time>2026-04-18T07:30:33.003Z</time></trkpt><trkpt lat="37.7960131" lon="13.3501092"><ele>695.3333333333334</ele><time>2026-04-18T07:30:34.003Z</time></trkpt><trkpt lat="37.7960117" lon="13.3503813"><ele>693.6666666666666</ele><time>2026-04-18T07:30:35.002Z</time></trkpt><trkpt lat="37.7959988" lon="13.3506733"><ele>692.0</ele><time>2026-04-18T07:30:36.002Z</time></trkpt><trkpt lat="37.7959885" lon="13.3509938"><ele>697.0</ele><time>2026-04-18T07:30:37.003Z</time></trkpt><trkpt lat="37.7959812" lon="13.3513067"><ele>702.0</ele><time>2026-04-18T07:30:38.002Z</time></trkpt><trkpt lat="37.7959649" lon="13.3515841"><ele>702.0</ele><time>2026-04-18T07:30:39.002Z</time></trkpt><trkpt lat="37.7959354" lon="13.3518511"><ele>702.0</ele><time>2026-04-18T07:30:40.002Z</time></trkpt><trkpt lat="37.7958815" lon="13.3521221"><ele>702.0</ele><time>2026-04-18T07:30:41.003Z</time></trkpt><trkpt lat="37.7957986" lon="13.3524005"><ele>701.0</ele><time>2026-04-18T07:30:42.003Z</time></trkpt><trkpt lat="37.7957023" lon="13.3526974"><ele>700.0</ele><time>2026-04-18T07:30:43.003Z</time></trkpt><trkpt lat="37.7955978" lon="13.3530081"><ele>699.5</ele><time>2026-04-18T07:30:44.003Z</time></trkpt><trkpt lat="37.7954922" lon="13.3533277"><ele>699.0</ele><time>2026-04-18T07:30:45.003Z</time></trkpt><trkpt lat="37.7953937" lon="13.3536509"><ele>701.5</ele><time>2026-04-18T07:30:46.003Z</time></trkpt><trkpt lat="37.7952943" lon="13.3539983"><ele>704.0</ele><time>2026-04-18T07:30:47.003Z</time></trkpt><trkpt lat="37.7951769" lon="13.354375"><ele>704.5</ele><time>2026-04-18T07:30:48.002Z</time></trkpt><trkpt lat="37.7950556" lon="13.3547531"><ele>705.0</ele><time>2026-04-18T07:30:49.002Z</time></trkpt><trkpt lat="37.7949303" lon="13.3551027"><ele>705.0</ele><time>2026-04-18T07:30:50.003Z</time></trkpt><trkpt lat="37.7948142" lon="13.3554216"><ele>705.0</ele><time>2026-04-18T07:30:51.002Z</time></trkpt><trkpt lat="37.7947211" lon="13.3557207"><ele>704.5</ele><time>2026-04-18T07:30:52.003Z</time></trkpt><trkpt lat="37.7946373" lon="13.3559987"><ele>704.0</ele><time>2026-04-18T07:30:53.002Z</time></trkpt><trkpt lat="37.7945686" lon="13.3562692"><ele>704.0</ele><time>2026-04-18T07:30:54.002Z</time></trkpt><trkpt lat="37.7945352" lon="13.3565528"><ele>704.0</ele><time>2026-04-18T07:30:55.003Z</time></trkpt><trkpt lat="37.7945538" lon="13.356862"><ele>704.0</ele><time>2026-04-18T07:30:56.003Z</time></trkpt><trkpt lat="37.7946161" lon="13.357177"><ele>704.0</ele><time>2026-04-18T07:30:57.003Z</time></trkpt><trkpt lat="37.7947118" lon="13.357492"><ele>704.5</ele><time>2026-04-18T07:30:58.003Z</time></trkpt><trkpt lat="37.7948131" lon="13.3578136"><ele>705.0</ele><time>2026-04-18T07:30:59.002Z</time></trkpt><trkpt lat="37.7948993" lon="13.3581241"><ele>708.0</ele><time>2026-04-18T07:31:00.002Z</time></trkpt><trkpt lat="37.7949777" lon="13.3584071"><ele>711.0</ele><time>2026-04-18T07:31:01.002Z</time></trkpt><trkpt lat="37.7950541" lon="13.3586686"><ele>712.5</ele><time>2026-04-18T07:31:02.003Z</time></trkpt><trkpt lat="37.7950992" lon="13.3589495"><ele>714.0</ele><time>2026-04-18T07:31:03.003Z</time></trkpt><trkpt lat="37.7951064" lon="13.359252"><ele>714.0</ele><time>2026-04-18T07:31:04.003Z</time></trkpt><trkpt lat="37.7950869" lon="13.3595568"><ele>714.0</ele><time>2026-04-18T07:31:05.003Z</time></trkpt><trkpt lat="37.7950343" lon="13.359839"><ele>715.0</ele><time>2026-04-18T07:31:06.002Z</time></trkpt><trkpt lat="37.7949421" lon="13.3601119"><ele>716.0</ele><time>2026-04-18T07:31:07.003Z</time></trkpt><trkpt lat="37.7948056" lon="13.3603823"><ele>715.0</ele><time>2026-04-18T07:31:08.002Z</time></trkpt><trkpt lat="37.7946411" lon="13.3606553"><ele>714.0</ele><time>2026-04-18T07:31:09.003Z</time></trkpt><trkpt lat="37.7944622" lon="13.3609207"><ele>715.5</ele><time>2026-04-18T07:31:10.003Z</time></trkpt><trkpt lat="37.7942781" lon="13.3611693"><ele>717.0</ele><time>2026-04-18T07:31:11.002Z</time></trkpt><trkpt lat="37.7940909" lon="13.3614064"><ele>717.0</ele><time>2026-04-18T07:31:12.003Z</time></trkpt><trkpt lat="37.7939324" lon="13.3616696"><ele>717.0</ele><time>2026-04-18T07:31:13.003Z</time></trkpt><trkpt lat="37.7937806" lon="13.361968"><ele>717.5</ele><time>2026-04-18T07:31:14.003Z</time></trkpt><trkpt lat="37.7936326" lon="13.3622649"><ele>718.0</ele><time>2026-04-18T07:31:15.003Z</time></trkpt><trkpt lat="37.7934959" lon="13.3625423"><ele>719.5</ele><time>2026-04-18T07:31:16.003Z</time></trkpt><trkpt lat="37.7933608" lon="13.3628141"><ele>721.0</ele><time>2026-04-18T07:31:17.003Z</time></trkpt><trkpt lat="37.7932217" lon="13.3630783"><ele>721.0</ele><time>2026-04-18T07:31:18.002Z</time></trkpt><trkpt lat="37.7930901" lon="13.3633448"><ele>721.0</ele><time>2026-04-18T07:31:19.002Z</time></trkpt><trkpt lat="37.7929646" lon="13.363599"><ele>721.0</ele><time>2026-04-18T07:31:20.003Z</time></trkpt><trkpt lat="37.7928402" lon="13.3638482"><ele>721.0</ele><time>2026-04-18T07:31:21.003Z</time></trkpt><trkpt lat="37.7927169" lon="13.3640881"><ele>722.6666666666667</ele><time>2026-04-18T07:31:22.003Z</time></trkpt><trkpt lat="37.7925945" lon="13.3643255"><ele>724.3333333333334</ele><time>2026-04-18T07:31:23.002Z</time></trkpt><trkpt lat="37.7924832" lon="13.3645453"><ele>726.0</ele><time>2026-04-18T07:31:24.002Z</time></trkpt><trkpt lat="37.7923839" lon="13.364766"><ele>726.6666666666666</ele><time>2026-04-18T07:31:25.002Z</time></trkpt><trkpt lat="37.7923204" lon="13.3650152"><ele>727.3333333333333</ele><time>2026-04-18T07:31:26.003Z</time></trkpt><trkpt lat="37.7922899" lon="13.3653031"><ele>728.0</ele><time>2026-04-18T07:31:27.003Z</time></trkpt><trkpt lat="37.7922872" lon="13.3655912"><ele>728.5</ele><time>2026-04-18T07:31:28.003Z</time></trkpt><trkpt lat="37.7922968" lon="13.3658762"><ele>729.0</ele><time>2026-04-18T07:31:29.003Z</time></trkpt><trkpt lat="37.7922832" lon="13.3661659"><ele>730.5</ele><time>2026-04-18T07:31:30.003Z</time></trkpt><trkpt lat="37.7922227" lon="13.3664568"><ele>732.0</ele><time>2026-04-18T07:31:31.003Z</time></trkpt><trkpt lat="37.7921283" lon="13.3667346"><ele>732.0</ele><time>2026-04-18T07:31:32.003Z</time></trkpt><trkpt lat="37.7920115" lon="13.3669962"><ele>732.0</ele><time>2026-04-18T07:31:33.003Z</time></trkpt><trkpt lat="37.7918638" lon="13.3672402"><ele>735.5</ele><time>2026-04-18T07:31:34.003Z</time></trkpt><trkpt lat="37.7916887" lon="13.3674428"><ele>739.0</ele><time>2026-04-18T07:31:35.002Z</time></trkpt><trkpt lat="37.7915134" lon="13.3675997"><ele>739.0</ele><time>2026-04-18T07:31:36.003Z</time></trkpt><trkpt lat="37.7913461" lon="13.367736"><ele>739.0</ele><time>2026-04-18T07:31:37.002Z</time></trkpt><trkpt lat="37.7911855" lon="13.3678528"><ele>739.0</ele><time>2026-04-18T07:31:38.002Z</time></trkpt><trkpt lat="37.791033" lon="13.3679492"><ele>739.0</ele><time>2026-04-18T07:31:39.003Z</time></trkpt><trkpt lat="37.7908909" lon="13.368031"><ele>739.0</ele><time>2026-04-18T07:31:40.003Z</time></trkpt><trkpt lat="37.7907609" lon="13.3681076"><ele>739.0</ele><time>2026-04-18T07:31:41.002Z</time></trkpt><trkpt lat="37.7906441" lon="13.3681807"><ele>739.0</ele><time>2026-04-18T07:31:42.002Z</time></trkpt><trkpt lat="37.7905258" lon="13.3682488"><ele>739.0</ele><time>2026-04-18T07:31:43.003Z</time></trkpt><trkpt lat="37.7903966" lon="13.3683112"><ele>739.0</ele><time>2026-04-18T07:31:44.003Z</time></trkpt><trkpt lat="37.790262" lon="13.3683745"><ele>739.0</ele><time>2026-04-18T07:31:45.003Z</time></trkpt><trkpt lat="37.7901223" lon="13.3684394"><ele>739.0</ele><time>2026-04-18T07:31:46.003Z</time></trkpt><trkpt lat="37.7899772" lon="13.3684951"><ele>740.75</ele><time>2026-04-18T07:31:47.003Z</time></trkpt><trkpt lat="37.7898292" lon="13.3685424"><ele>742.5</ele><time>2026-04-18T07:31:48.002Z</time></trkpt><trkpt lat="37.7896848" lon="13.3685715"><ele>744.25</ele><time>2026-04-18T07:31:49.002Z</time></trkpt><trkpt lat="37.7895425" lon="13.3685909"><ele>746.0</ele><time>2026-04-18T07:31:50.003Z</time></trkpt><trkpt lat="37.7893924" lon="13.3686115"><ele>746.6666666666666</ele><time>2026-04-18T07:31:51.003Z</time></trkpt><trkpt lat="37.789223" lon="13.3686346"><ele>747.3333333333334</ele><time>2026-04-18T07:31:52.002Z</time></trkpt><trkpt lat="37.789027" lon="13.3686505"><ele>748.0</ele><time>2026-04-18T07:31:53.003Z</time></trkpt><trkpt lat="37.7888241" lon="13.3686527"><ele>748.0</ele><time>2026-04-18T07:31:54.002Z</time></trkpt><trkpt lat="37.7886094" lon="13.3686543"><ele>748.0</ele><time>2026-04-18T07:31:55.002Z</time></trkpt><trkpt lat="37.788388" lon="13.3686566"><ele>748.0</ele><time>2026-04-18T07:31:56.002Z</time></trkpt><trkpt lat="37.7881668" lon="13.3686715"><ele>745.5</ele><time>2026-04-18T07:31:57.003Z</time></trkpt><trkpt lat="37.7879377" lon="13.3687243"><ele>743.0</ele><time>2026-04-18T07:31:58.003Z</time></trkpt><trkpt lat="37.7877189" lon="13.3688122"><ele>736.0</ele><time>2026-04-18T07:31:59.002Z</time></trkpt><trkpt lat="37.7875125" lon="13.3689291"><ele>729.0</ele><time>2026-04-18T07:32:00.003Z</time></trkpt><trkpt lat="37.7873131" lon="13.3690783"><ele>729.0</ele><time>2026-04-18T07:32:01.002Z</time></trkpt><trkpt lat="37.7871346" lon="13.3692604"><ele>729.0</ele><time>2026-04-18T07:32:02.003Z</time></trkpt><trkpt lat="37.7869735" lon="13.3695003"><ele>729.5</ele><time>2026-04-18T07:32:03.002Z</time></trkpt><trkpt lat="37.7868204" lon="13.369759"><ele>730.0</ele><time>2026-04-18T07:32:04.003Z</time></trkpt><trkpt lat="37.7866793" lon="13.3700235"><ele>730.0</ele><time>2026-04-18T07:32:05.002Z</time></trkpt><trkpt lat="37.7865443" lon="13.3702931"><ele>730.0</ele><time>2026-04-18T07:32:06.003Z</time></trkpt><trkpt lat="37.786417" lon="13.3705412"><ele>727.0</ele><time>2026-04-18T07:32:07.003Z</time></trkpt><trkpt lat="37.7862908" lon="13.3707725"><ele>724.0</ele><time>2026-04-18T07:32:08.003Z</time></trkpt><trkpt lat="37.7861737" lon="13.3709891"><ele>721.0</ele><time>2026-04-18T07:32:09.003Z</time></trkpt><trkpt lat="37.7860546" lon="13.3711918"><ele>720.3333333333334</ele><time>2026-04-18T07:32:10.002Z</time></trkpt><trkpt lat="37.7859174" lon="13.3713626"><ele>719.6666666666666</ele><time>2026-04-18T07:32:11.003Z</time></trkpt><trkpt lat="37.7857489" lon="13.3714925"><ele>719.0</ele><time>2026-04-18T07:32:12.003Z</time></trkpt><trkpt lat="37.7855568" lon="13.3715838"><ele>719.0</ele><time>2026-04-18T07:32:13.003Z</time></trkpt><trkpt lat="37.7853454" lon="13.3716219"><ele>719.0</ele><time>2026-04-18T07:32:14.003Z</time></trkpt><trkpt lat="37.7851455" lon="13.3716464"><ele>719.0</ele><time>2026-04-18T07:32:15.002Z</time></trkpt><trkpt lat="37.7849572" lon="13.3716672"><ele>719.3333333333333</ele><time>2026-04-18T07:32:16.003Z</time></trkpt><trkpt lat="37.7847763" lon="13.3716402"><ele>719.6666666666666</ele><time>2026-04-18T07:32:17.003Z</time></trkpt><trkpt lat="37.7845839" lon="13.371563"><ele>720.0</ele><time>2026-04-18T07:32:18.003Z</time></trkpt><trkpt lat="37.784383" lon="13.3714308"><ele>722.0</ele><time>2026-04-18T07:32:19.003Z</time></trkpt><trkpt lat="37.7841517" lon="13.3712859"><ele>724.0</ele><time>2026-04-18T07:32:20.003Z</time></trkpt><trkpt lat="37.7839325" lon="13.3711623"><ele>724.0</ele><time>2026-04-18T07:32:21.003Z</time></trkpt><trkpt lat="37.7837262" lon="13.3710426"><ele>724.0</ele><time>2026-04-18T07:32:22.003Z</time></trkpt><trkpt lat="37.7835184" lon="13.3709314"><ele>719.6666666666667</ele><time>2026-04-18T07:32:23.002Z</time></trkpt><trkpt lat="37.7833174" lon="13.3708274"><ele>715.3333333333334</ele><time>2026-04-18T07:32:24.003Z</time></trkpt><trkpt lat="37.78312" lon="13.370743"><ele>711.0</ele><time>2026-04-18T07:32:25.003Z</time></trkpt><trkpt lat="37.7829161" lon="13.3707019"><ele>711.0</ele><time>2026-04-18T07:32:26.003Z</time></trkpt><trkpt lat="37.7827157" lon="13.3707"><ele>711.0</ele><time>2026-04-18T07:32:27.003Z</time></trkpt><trkpt lat="37.7825161" lon="13.3707208"><ele>711.0</ele><time>2026-04-18T07:32:28.003Z</time></trkpt><trkpt lat="37.7823058" lon="13.3707656"><ele>709.0</ele><time>2026-04-18T07:32:29.003Z</time></trkpt><trkpt lat="37.7820832" lon="13.3708435"><ele>707.0</ele><time>2026-04-18T07:32:30.003Z</time></trkpt><trkpt lat="37.7818417" lon="13.3709331"><ele>711.0</ele><time>2026-04-18T07:32:31.003Z</time></trkpt><trkpt lat="37.7815778" lon="13.371031"><ele>715.0</ele><time>2026-04-18T07:32:32.002Z</time></trkpt><trkpt lat="37.7813169" lon="13.3711344"><ele>715.0</ele><time>2026-04-18T07:32:33.002Z</time></trkpt><trkpt lat="37.781074" lon="13.3712364"><ele>715.0</ele><time>2026-04-18T07:32:34.003Z</time></trkpt><trkpt lat="37.7808509" lon="13.3713308"><ele>713.0</ele><time>2026-04-18T07:32:35.002Z</time></trkpt><trkpt lat="37.7806427" lon="13.3714196"><ele>711.0</ele><time>2026-04-18T07:32:36.003Z</time></trkpt><trkpt lat="37.7804456" lon="13.3715396"><ele>709.0</ele><time>2026-04-18T07:32:37.003Z</time></trkpt><trkpt lat="37.7802688" lon="13.3717049"><ele>714.0</ele><time>2026-04-18T07:32:38.003Z</time></trkpt><trkpt lat="37.780127" lon="13.3719251"><ele>719.0</ele><time>2026-04-18T07:32:39.002Z</time></trkpt><trkpt lat="37.7800158" lon="13.3721917"><ele>719.0</ele><time>2026-04-18T07:32:40.003Z</time></trkpt><trkpt lat="37.7799157" lon="13.372501"><ele>719.0</ele><time>2026-04-18T07:32:41.003Z</time></trkpt><trkpt lat="37.779825" lon="13.3728189"><ele>719.6666666666666</ele><time>2026-04-18T07:32:42.003Z</time></trkpt><trkpt lat="37.7797383" lon="13.3731074"><ele>720.3333333333334</ele><time>2026-04-18T07:32:43.002Z</time></trkpt><trkpt lat="37.7796722" lon="13.373351"><ele>721.0</ele><time>2026-04-18T07:32:44.003Z</time></trkpt><trkpt lat="37.7795905" lon="13.373544"><ele>721.0</ele><time>2026-04-18T07:32:45.003Z</time></trkpt><trkpt lat="37.7794692" lon="13.3736939"><ele>721.0</ele><time>2026-04-18T07:32:46.003Z</time></trkpt><trkpt lat="37.7793056" lon="13.37382"><ele>721.0</ele><time>2026-04-18T07:32:47.003Z</time></trkpt><trkpt lat="37.7791256" lon="13.3739122"><ele>723.0</ele><time>2026-04-18T07:32:48.003Z</time></trkpt><trkpt lat="37.7789217" lon="13.3739557"><ele>725.0</ele><time>2026-04-18T07:32:49.003Z</time></trkpt><trkpt lat="37.7787196" lon="13.373937"><ele>727.0</ele><time>2026-04-18T07:32:50.003Z</time></trkpt><trkpt lat="37.778498" lon="13.3738744"><ele>731.0</ele><time>2026-04-18T07:32:51.003Z</time></trkpt><trkpt lat="37.7782551" lon="13.3737855"><ele>735.0</ele><time>2026-04-18T07:32:52.003Z</time></trkpt><trkpt lat="37.7780076" lon="13.3737058"><ele>735.0</ele><time>2026-04-18T07:32:53.003Z</time></trkpt><trkpt lat="37.7777449" lon="13.3736156"><ele>735.0</ele><time>2026-04-18T07:32:54.003Z</time></trkpt><trkpt lat="37.7774793" lon="13.3735245"><ele>733.0</ele><time>2026-04-18T07:32:55.002Z</time></trkpt><trkpt lat="37.7772348" lon="13.3734322"><ele>731.0</ele><time>2026-04-18T07:32:56.002Z</time></trkpt><trkpt lat="37.7770158" lon="13.373345"><ele>730.3333333333333</ele><time>2026-04-18T07:32:57.002Z</time></trkpt><trkpt lat="37.7768252" lon="13.3732859"><ele>729.6666666666666</ele><time>2026-04-18T07:32:58.002Z</time></trkpt><trkpt lat="37.7766358" lon="13.3732752"><ele>729.0</ele><time>2026-04-18T07:32:59.003Z</time></trkpt><trkpt lat="37.7764302" lon="13.3733118"><ele>729.0</ele><time>2026-04-18T07:33:00.003Z</time></trkpt><trkpt lat="37.776225" lon="13.3733831"><ele>729.0</ele><time>2026-04-18T07:33:01.003Z</time></trkpt><trkpt lat="37.7759995" lon="13.3734742"><ele>729.0</ele><time>2026-04-18T07:33:02.002Z</time></trkpt><trkpt lat="37.7757669" lon="13.3735781"><ele>728.5</ele><time>2026-04-18T07:33:03.003Z</time></trkpt><trkpt lat="37.7755366" lon="13.3737029"><ele>728.0</ele><time>2026-04-18T07:33:04.003Z</time></trkpt><trkpt lat="37.7753137" lon="13.3738407"><ele>727.0</ele><time>2026-04-18T07:33:05.003Z</time></trkpt><trkpt lat="37.7751075" lon="13.3739748"><ele>726.0</ele><time>2026-04-18T07:33:06.002Z</time></trkpt><trkpt lat="37.7749171" lon="13.37408"><ele>725.0</ele><time>2026-04-18T07:33:07.003Z</time></trkpt><trkpt lat="37.774739" lon="13.3741538"><ele>725.0</ele><time>2026-04-18T07:33:08.003Z</time></trkpt><trkpt lat="37.7745629" lon="13.3741703"><ele>725.0</ele><time>2026-04-18T07:33:09.003Z</time></trkpt><trkpt lat="37.7743983" lon="13.3741102"><ele>725.0</ele><time>2026-04-18T07:33:10.003Z</time></trkpt><trkpt lat="37.7742758" lon="13.3740146"><ele>724.0</ele><time>2026-04-18T07:33:11.002Z</time></trkpt><trkpt lat="37.7741583" lon="13.3738656"><ele>723.0</ele><time>2026-04-18T07:33:12.003Z</time></trkpt><trkpt lat="37.7740295" lon="13.3736641"><ele>722.0</ele><time>2026-04-18T07:33:13.002Z</time></trkpt><trkpt lat="37.773912" lon="13.3734708"><ele>722.6666666666666</ele><time>2026-04-18T07:33:14.003Z</time></trkpt><trkpt lat="37.7737893" lon="13.3733149"><ele>723.3333333333334</ele><time>2026-04-18T07:33:15.002Z</time></trkpt><trkpt lat="37.7736521" lon="13.3732118"><ele>724.0</ele><time>2026-04-18T07:33:16.003Z</time></trkpt><trkpt lat="37.7735048" lon="13.3731663"><ele>724.0</ele><time>2026-04-18T07:33:17.003Z</time></trkpt><trkpt lat="37.773333" lon="13.3731684"><ele>724.0</ele><time>2026-04-18T07:33:18.003Z</time></trkpt><trkpt lat="37.773148" lon="13.3732215"><ele>724.0</ele><time>2026-04-18T07:33:19.002Z</time></trkpt><trkpt lat="37.7729201" lon="13.3733096"><ele>725.0</ele><time>2026-04-18T07:33:20.003Z</time></trkpt><trkpt lat="37.7726617" lon="13.3733693"><ele>726.0</ele><time>2026-04-18T07:33:21.003Z</time></trkpt><trkpt lat="37.772367" lon="13.3734281"><ele>726.0</ele><time>2026-04-18T07:33:22.002Z</time></trkpt><trkpt lat="37.7720717" lon="13.3734752"><ele>726.0</ele><time>2026-04-18T07:33:23.003Z</time></trkpt><trkpt lat="37.7718112" lon="13.3735317"><ele>727.0</ele><time>2026-04-18T07:33:24.003Z</time></trkpt><trkpt lat="37.7715867" lon="13.3735784"><ele>728.0</ele><time>2026-04-18T07:33:25.003Z</time></trkpt><trkpt lat="37.7713918" lon="13.3736102"><ele>729.0</ele><time>2026-04-18T07:33:26.003Z</time></trkpt><trkpt lat="37.7712065" lon="13.3736156"><ele>729.0</ele><time>2026-04-18T07:33:27.003Z</time></trkpt><trkpt lat="37.7710345" lon="13.373559"><ele>729.0</ele><time>2026-04-18T07:33:28.003Z</time></trkpt><trkpt lat="37.77086" lon="13.3734519"><ele>729.0</ele><time>2026-04-18T07:33:29.002Z</time></trkpt><trkpt lat="37.7706981" lon="13.3733033"><ele>727.3333333333334</ele><time>2026-04-18T07:33:30.003Z</time></trkpt><trkpt lat="37.7705671" lon="13.3731223"><ele>725.6666666666667</ele><time>2026-04-18T07:33:31.003Z</time></trkpt><trkpt lat="37.7704579" lon="13.3729308"><ele>724.0</ele><time>2026-04-18T07:33:32.002Z</time></trkpt><trkpt lat="37.7703577" lon="13.3727586"><ele>724.0</ele><time>2026-04-18T07:33:33.003Z</time></trkpt><trkpt lat="37.770234" lon="13.3726385"><ele>724.0</ele><time>2026-04-18T07:33:34.003Z</time></trkpt><trkpt lat="37.7700708" lon="13.3725482"><ele>724.0</ele><time>2026-04-18T07:33:35.003Z</time></trkpt><trkpt lat="37.769888" lon="13.3724983"><ele>724.0</ele><time>2026-04-18T07:33:36.002Z</time></trkpt><trkpt lat="37.7697142" lon="13.3724842"><ele>724.0</ele><time>2026-04-18T07:33:37.002Z</time></trkpt><trkpt lat="37.7695468" lon="13.3725019"><ele>724.0</ele><time>2026-04-18T07:33:38.003Z</time></trkpt><trkpt lat="37.7693911" lon="13.3725433"><ele>724.3333333333334</ele><time>2026-04-18T07:33:39.003Z</time></trkpt><trkpt lat="37.7692464" lon="13.3726081"><ele>724.6666666666666</ele><time>2026-04-18T07:33:40.002Z</time></trkpt><trkpt lat="37.7691186" lon="13.372704"><ele>725.0</ele><time>2026-04-18T07:33:41.002Z</time></trkpt><trkpt lat="37.769012" lon="13.3728434"><ele>723.0</ele><time>2026-04-18T07:33:42.002Z</time></trkpt><trkpt lat="37.7689513" lon="13.3730278"><ele>721.0</ele><time>2026-04-18T07:33:43.003Z</time></trkpt><trkpt lat="37.768934" lon="13.3732799"><ele>719.0</ele><time>2026-04-18T07:33:44.003Z</time></trkpt><trkpt lat="37.7689527" lon="13.373573"><ele>717.5</ele><time>2026-04-18T07:33:45.002Z</time></trkpt><trkpt lat="37.7689732" lon="13.3739128"><ele>716.0</ele><time>2026-04-18T07:33:46.003Z</time></trkpt><trkpt lat="37.7689783" lon="13.3742945"><ele>716.0</ele><time>2026-04-18T07:33:47.003Z</time></trkpt><trkpt lat="37.7689726" lon="13.3746462"><ele>716.0</ele><time>2026-04-18T07:33:48.003Z</time></trkpt><trkpt lat="37.7689891" lon="13.3749199"><ele>716.25</ele><time>2026-04-18T07:33:49.003Z</time></trkpt><trkpt lat="37.7690016" lon="13.3751225"><ele>716.5</ele><time>2026-04-18T07:33:50.003Z</time></trkpt><trkpt lat="37.7689958" lon="13.3752963"><ele>716.75</ele><time>2026-04-18T07:33:51.003Z</time></trkpt><trkpt lat="37.7689372" lon="13.3754533"><ele>717.0</ele><time>2026-04-18T07:33:52.011Z</time></trkpt><trkpt lat="37.7688322" lon="13.3756095"><ele>717.0</ele><time>2026-04-18T07:33:53.01Z</time></trkpt><trkpt lat="37.7686911" lon="13.3757133"><ele>717.0</ele><time>2026-04-18T07:33:54.011Z</time></trkpt><trkpt lat="37.7685307" lon="13.3757406"><ele>717.0</ele><time>2026-04-18T07:33:55.011Z</time></trkpt><trkpt lat="37.7683242" lon="13.3757458"><ele>718.5</ele><time>2026-04-18T07:33:56.01Z</time></trkpt><trkpt lat="37.7680725" lon="13.3757403"><ele>720.0</ele><time>2026-04-18T07:33:57.01Z</time></trkpt><trkpt lat="37.7678103" lon="13.3757516"><ele>719.0</ele><time>2026-04-18T07:33:58.011Z</time></trkpt><trkpt lat="37.7675624" lon="13.3757625"><ele>718.0</ele><time>2026-04-18T07:33:59.011Z</time></trkpt><trkpt lat="37.7673264" lon="13.3757589"><ele>718.0</ele><time>2026-04-18T07:34:00.01Z</time></trkpt><trkpt lat="37.7671033" lon="13.3757179"><ele>718.0</ele><time>2026-04-18T07:34:01.011Z</time></trkpt><trkpt lat="37.7668843" lon="13.3756297"><ele>721.5</ele><time>2026-04-18T07:34:02.011Z</time></trkpt><trkpt lat="37.7666552" lon="13.3755149"><ele>725.0</ele><time>2026-04-18T07:34:03.01Z</time></trkpt><trkpt lat="37.7664321" lon="13.3754035"><ele>725.0</ele><time>2026-04-18T07:34:04.011Z</time></trkpt><trkpt lat="37.7662038" lon="13.3753238"><ele>725.0</ele><time>2026-04-18T07:34:05.01Z</time></trkpt><trkpt lat="37.7659741" lon="13.3752891"><ele>725.3333333333333</ele><time>2026-04-18T07:34:06.011Z</time></trkpt><trkpt lat="37.7657585" lon="13.3752808"><ele>725.6666666666666</ele><time>2026-04-18T07:34:07.011Z</time></trkpt><trkpt lat="37.7655489" lon="13.3753081"><ele>726.0</ele><time>2026-04-18T07:34:08.011Z</time></trkpt><trkpt lat="37.7653569" lon="13.3753838"><ele>725.0</ele><time>2026-04-18T07:34:09.011Z</time></trkpt><trkpt lat="37.7651477" lon="13.3755124"><ele>724.0</ele><time>2026-04-18T07:34:10.011Z</time></trkpt><trkpt lat="37.7649569" lon="13.3756941"><ele>724.0</ele><time>2026-04-18T07:34:11.011Z</time></trkpt><trkpt lat="37.7647768" lon="13.3759084"><ele>724.0</ele><time>2026-04-18T07:34:12.01Z</time></trkpt><trkpt lat="37.7646317" lon="13.3761173"><ele>724.0</ele><time>2026-04-18T07:34:13.01Z</time></trkpt><trkpt lat="37.7645232" lon="13.3763391"><ele>724.0</ele><time>2026-04-18T07:34:14.011Z</time></trkpt><trkpt lat="37.7644318" lon="13.3765813"><ele>724.0</ele><time>2026-04-18T07:34:15.011Z</time></trkpt><trkpt lat="37.7643389" lon="13.3768211"><ele>724.3333333333334</ele><time>2026-04-18T07:34:16.01Z</time></trkpt><trkpt lat="37.7642471" lon="13.377046"><ele>724.6666666666666</ele><time>2026-04-18T07:34:17.01Z</time></trkpt><trkpt lat="37.7641358" lon="13.377225"><ele>725.0</ele><time>2026-04-18T07:34:18.011Z</time></trkpt><trkpt lat="37.7639961" lon="13.3773945"><ele>722.6666666666666</ele><time>2026-04-18T07:34:19.011Z</time></trkpt><trkpt lat="37.7638139" lon="13.3775183"><ele>720.3333333333334</ele><time>2026-04-18T07:34:20.011Z</time></trkpt><trkpt lat="37.7635953" lon="13.3776247"><ele>718.0</ele><time>2026-04-18T07:34:21.01Z</time></trkpt><trkpt lat="37.7633434" lon="13.3777144"><ele>717.0</ele><time>2026-04-18T07:34:22.01Z</time></trkpt><trkpt lat="37.7630564" lon="13.3778177"><ele>716.0</ele><time>2026-04-18T07:34:23.011Z</time></trkpt><trkpt lat="37.7627779" lon="13.3779147"><ele>714.0</ele><time>2026-04-18T07:34:24.01Z</time></trkpt><trkpt lat="37.7625312" lon="13.3780007"><ele>712.0</ele><time>2026-04-18T07:34:25.011Z</time></trkpt><trkpt lat="37.7623133" lon="13.3780798"><ele>709.3333333333334</ele><time>2026-04-18T07:34:26.011Z</time></trkpt><trkpt lat="37.7621188" lon="13.3781792"><ele>706.6666666666666</ele><time>2026-04-18T07:34:27.01Z</time></trkpt><trkpt lat="37.7619358" lon="13.3783418"><ele>704.0</ele><time>2026-04-18T07:34:28.01Z</time></trkpt><trkpt lat="37.7617632" lon="13.3785528"><ele>703.6666666666666</ele><time>2026-04-18T07:34:29.01Z</time></trkpt><trkpt lat="37.761611" lon="13.378763"><ele>703.3333333333334</ele><time>2026-04-18T07:34:30.011Z</time></trkpt><trkpt lat="37.7614563" lon="13.3789632"><ele>703.0</ele><time>2026-04-18T07:34:31.01Z</time></trkpt><trkpt lat="37.7612688" lon="13.3791359"><ele>698.5</ele><time>2026-04-18T07:34:32.011Z</time></trkpt><trkpt lat="37.7610596" lon="13.3792872"><ele>694.0</ele><time>2026-04-18T07:34:33.011Z</time></trkpt><trkpt lat="37.7608478" lon="13.3794377"><ele>694.0</ele><time>2026-04-18T07:34:34.011Z</time></trkpt><trkpt lat="37.7606501" lon="13.3795807"><ele>694.0</ele><time>2026-04-18T07:34:35.011Z</time></trkpt><trkpt lat="37.760469" lon="13.3797074"><ele>694.0</ele><time>2026-04-18T07:34:36.011Z</time></trkpt><trkpt lat="37.7602973" lon="13.3797961"><ele>690.3333333333334</ele><time>2026-04-18T07:34:37.011Z</time></trkpt><trkpt lat="37.7601196" lon="13.3798441"><ele>686.6666666666666</ele><time>2026-04-18T07:34:38.011Z</time></trkpt><trkpt lat="37.7599162" lon="13.3798434"><ele>683.0</ele><time>2026-04-18T07:34:39.011Z</time></trkpt><trkpt lat="37.7596996" lon="13.3797947"><ele>683.0</ele><time>2026-04-18T07:34:40.011Z</time></trkpt><trkpt lat="37.7594628" lon="13.3797294"><ele>683.0</ele><time>2026-04-18T07:34:41.01Z</time></trkpt><trkpt lat="37.7592081" lon="13.3796548"><ele>683.0</ele><time>2026-04-18T07:34:42.011Z</time></trkpt><trkpt lat="37.7589671" lon="13.3795722"><ele>683.0</ele><time>2026-04-18T07:34:43.011Z</time></trkpt><trkpt lat="37.7587574" lon="13.3794946"><ele>683.0</ele><time>2026-04-18T07:34:44.011Z</time></trkpt><trkpt lat="37.7585886" lon="13.3793976"><ele>683.0</ele><time>2026-04-18T07:34:45.01Z</time></trkpt><trkpt lat="37.7584664" lon="13.3792888"><ele>683.0</ele><time>2026-04-18T07:34:46.011Z</time></trkpt><trkpt lat="37.7583672" lon="13.3791389"><ele>685.6666666666666</ele><time>2026-04-18T07:34:47.011Z</time></trkpt><trkpt lat="37.7583034" lon="13.3789505"><ele>688.3333333333334</ele><time>2026-04-18T07:34:48.011Z</time></trkpt><trkpt lat="37.7582645" lon="13.3787059"><ele>691.0</ele><time>2026-04-18T07:34:49.011Z</time></trkpt><trkpt lat="37.7582378" lon="13.3784221"><ele>693.5</ele><time>2026-04-18T07:34:50.01Z</time></trkpt><trkpt lat="37.7582081" lon="13.3780925"><ele>696.0</ele><time>2026-04-18T07:34:51.011Z</time></trkpt><trkpt lat="37.7581746" lon="13.3777341"><ele>697.5</ele><time>2026-04-18T07:34:52.011Z</time></trkpt><trkpt lat="37.7581442" lon="13.3773331"><ele>699.0</ele><time>2026-04-18T07:34:53.01Z</time></trkpt><trkpt lat="37.7580978" lon="13.3769219"><ele>702.0</ele><time>2026-04-18T07:34:54.011Z</time></trkpt><trkpt lat="37.7580579" lon="13.3764858"><ele>705.0</ele><time>2026-04-18T07:34:55.01Z</time></trkpt><trkpt lat="37.7580222" lon="13.3760728"><ele>708.0</ele><time>2026-04-18T07:34:56.011Z</time></trkpt><trkpt lat="37.7579931" lon="13.3757285"><ele>711.0</ele><time>2026-04-18T07:34:57.01Z</time></trkpt><trkpt lat="37.7579838" lon="13.3754693"><ele>713.0</ele><time>2026-04-18T07:34:58.01Z</time></trkpt><trkpt lat="37.7579675" lon="13.3752549"><ele>715.0</ele><time>2026-04-18T07:34:59.011Z</time></trkpt><trkpt lat="37.7579513" lon="13.3750906"><ele>717.0</ele><time>2026-04-18T07:35:00.01Z</time></trkpt><trkpt lat="37.757912" lon="13.3749526"><ele>719.0</ele><time>2026-04-18T07:35:01.011Z</time></trkpt><trkpt lat="37.7578368" lon="13.3748208"><ele>719.0</ele><time>2026-04-18T07:35:02.011Z</time></trkpt><trkpt lat="37.7577293" lon="13.3747383"><ele>719.0</ele><time>2026-04-18T07:35:03.01Z</time></trkpt><trkpt lat="37.7576054" lon="13.3746913"><ele>719.0</ele><time>2026-04-18T07:35:04.011Z</time></trkpt><trkpt lat="37.7574677" lon="13.3747135"><ele>719.0</ele><time>2026-04-18T07:35:05.011Z</time></trkpt><trkpt lat="37.7573519" lon="13.3747958"><ele>720.0</ele><time>2026-04-18T07:35:06.01Z</time></trkpt><trkpt lat="37.7572522" lon="13.3749349"><ele>721.0</ele><time>2026-04-18T07:35:07.01Z</time></trkpt><trkpt lat="37.7571906" lon="13.3751127"><ele>722.0</ele><time>2026-04-18T07:35:08.011Z</time></trkpt><trkpt lat="37.7571616" lon="13.3753691"><ele>720.0</ele><time>2026-04-18T07:35:09.011Z</time></trkpt><trkpt lat="37.7571451" lon="13.3756725"><ele>718.0</ele><time>2026-04-18T07:35:10.011Z</time></trkpt><trkpt lat="37.757123" lon="13.376016"><ele>718.0</ele><time>2026-04-18T07:35:11.011Z</time></trkpt><trkpt lat="37.757101" lon="13.376338"><ele>718.0</ele><time>2026-04-18T07:35:12.011Z</time></trkpt><trkpt lat="37.7570669" lon="13.3766415"><ele>717.5</ele><time>2026-04-18T07:35:13.011Z</time></trkpt><trkpt lat="37.7570202" lon="13.3769413"><ele>717.0</ele><time>2026-04-18T07:35:14.011Z</time></trkpt><trkpt lat="37.7569405" lon="13.3772371"><ele>721.5</ele><time>2026-04-18T07:35:15.011Z</time></trkpt><trkpt lat="37.7568215" lon="13.37752"><ele>726.0</ele><time>2026-04-18T07:35:16.011Z</time></trkpt><trkpt lat="37.756687" lon="13.3777809"><ele>722.0</ele><time>2026-04-18T07:35:17.01Z</time></trkpt><trkpt lat="37.7565141" lon="13.378042"><ele>718.0</ele><time>2026-04-18T07:35:18.011Z</time></trkpt><trkpt lat="37.7562975" lon="13.3782888"><ele>718.0</ele><time>2026-04-18T07:35:19.01Z</time></trkpt><trkpt lat="37.7560794" lon="13.3785458"><ele>718.0</ele><time>2026-04-18T07:35:20.01Z</time></trkpt><trkpt lat="37.7558729" lon="13.3787898"><ele>720.0</ele><time>2026-04-18T07:35:21.01Z</time></trkpt><trkpt lat="37.7556829" lon="13.3790252"><ele>722.0</ele><time>2026-04-18T07:35:22.01Z</time></trkpt><trkpt lat="37.7554993" lon="13.3792668"><ele>722.0</ele><time>2026-04-18T07:35:23.011Z</time></trkpt><trkpt lat="37.7553316" lon="13.3795444"><ele>722.0</ele><time>2026-04-18T07:35:24.01Z</time></trkpt><trkpt lat="37.755187" lon="13.3798669"><ele>722.5</ele><time>2026-04-18T07:35:25.01Z</time></trkpt><trkpt lat="37.7550669" lon="13.3802443"><ele>723.0</ele><time>2026-04-18T07:35:26.011Z</time></trkpt><trkpt lat="37.7549539" lon="13.3806297"><ele>723.0</ele><time>2026-04-18T07:35:27.01Z</time></trkpt><trkpt lat="37.7548493" lon="13.380984"><ele>723.0</ele><time>2026-04-18T07:35:28.011Z</time></trkpt><trkpt lat="37.7547612" lon="13.3813074"><ele>722.3333333333334</ele><time>2026-04-18T07:35:29.011Z</time></trkpt><trkpt lat="37.7546652" lon="13.3815724"><ele>721.6666666666667</ele><time>2026-04-18T07:35:30.01Z</time></trkpt><trkpt lat="37.7545558" lon="13.3818077"><ele>721.0</ele><time>2026-04-18T07:35:31.011Z</time></trkpt><trkpt lat="37.7544103" lon="13.3819863"><ele>722.0</ele><time>2026-04-18T07:35:32.011Z</time></trkpt><trkpt lat="37.7542292" lon="13.3821082"><ele>723.0</ele><time>2026-04-18T07:35:33.011Z</time></trkpt><trkpt lat="37.7540507" lon="13.3821913"><ele>724.0</ele><time>2026-04-18T07:35:34.011Z</time></trkpt><trkpt lat="37.7538424" lon="13.3822194"><ele>724.0</ele><time>2026-04-18T07:35:35.011Z</time></trkpt><trkpt lat="37.7536166" lon="13.3821995"><ele>724.0</ele><time>2026-04-18T07:35:36.01Z</time></trkpt><trkpt lat="37.753368" lon="13.3821654"><ele>723.5</ele><time>2026-04-18T07:35:37.011Z</time></trkpt><trkpt lat="37.7531206" lon="13.3821558"><ele>723.0</ele><time>2026-04-18T07:35:38.011Z</time></trkpt><trkpt lat="37.752887" lon="13.3822011"><ele>723.5</ele><time>2026-04-18T07:35:39.011Z</time></trkpt><trkpt lat="37.7526313" lon="13.3823019"><ele>724.0</ele><time>2026-04-18T07:35:40.011Z</time></trkpt><trkpt lat="37.7523644" lon="13.3824156"><ele>724.0</ele><time>2026-04-18T07:35:41.011Z</time></trkpt><trkpt lat="37.7520988" lon="13.3825281"><ele>724.0</ele><time>2026-04-18T07:35:42.011Z</time></trkpt><trkpt lat="37.7518298" lon="13.3826401"><ele>726.5</ele><time>2026-04-18T07:35:43.011Z</time></trkpt><trkpt lat="37.7515628" lon="13.3827443"><ele>729.0</ele><time>2026-04-18T07:35:44.011Z</time></trkpt><trkpt lat="37.7512947" lon="13.3828486"><ele>731.0</ele><time>2026-04-18T07:35:45.011Z</time></trkpt><trkpt lat="37.7510343" lon="13.3829496"><ele>733.0</ele><time>2026-04-18T07:35:46.011Z</time></trkpt><trkpt lat="37.7507885" lon="13.3830607"><ele>728.5</ele><time>2026-04-18T07:35:47.01Z</time></trkpt><trkpt lat="37.7505647" lon="13.3831609"><ele>724.0</ele><time>2026-04-18T07:35:48.01Z</time></trkpt><trkpt lat="37.7503552" lon="13.3832633"><ele>726.3333333333334</ele><time>2026-04-18T07:35:49.011Z</time></trkpt><trkpt lat="37.7501713" lon="13.3833851"><ele>728.6666666666666</ele><time>2026-04-18T07:35:50.011Z</time></trkpt><trkpt lat="37.7500011" lon="13.3835506"><ele>731.0</ele><time>2026-04-18T07:35:51.011Z</time></trkpt><trkpt lat="37.7498313" lon="13.3837642"><ele>726.5</ele><time>2026-04-18T07:35:52.011Z</time></trkpt><trkpt lat="37.7496765" lon="13.3840149"><ele>722.0</ele><time>2026-04-18T07:35:53.011Z</time></trkpt><trkpt lat="37.7495509" lon="13.384295"><ele>722.0</ele><time>2026-04-18T07:35:54.01Z</time></trkpt><trkpt lat="37.7494275" lon="13.3845999"><ele>722.0</ele><time>2026-04-18T07:35:55.011Z</time></trkpt><trkpt lat="37.7493012" lon="13.3849235"><ele>722.0</ele><time>2026-04-18T07:35:56.011Z</time></trkpt><trkpt lat="37.7491703" lon="13.3852377"><ele>722.0</ele><time>2026-04-18T07:35:57.01Z</time></trkpt><trkpt lat="37.749054" lon="13.3855322"><ele>722.0</ele><time>2026-04-18T07:35:58.011Z</time></trkpt><trkpt lat="37.7489473" lon="13.3858238"><ele>722.0</ele><time>2026-04-18T07:35:59.011Z</time></trkpt><trkpt lat="37.7488398" lon="13.3861044"><ele>719.5</ele><time>2026-04-18T07:36:00.011Z</time></trkpt><trkpt lat="37.7487173" lon="13.3863463"><ele>717.0</ele><time>2026-04-18T07:36:01.011Z</time></trkpt><trkpt lat="37.7485501" lon="13.3865753"><ele>725.0</ele><time>2026-04-18T07:36:02.011Z</time></trkpt><trkpt lat="37.7483619" lon="13.3868165"><ele>733.0</ele><time>2026-04-18T07:36:03.01Z</time></trkpt><trkpt lat="37.7481644" lon="13.3870758"><ele>729.0</ele><time>2026-04-18T07:36:04.01Z</time></trkpt><trkpt lat="37.7479649" lon="13.3873421"><ele>725.0</ele><time>2026-04-18T07:36:05.011Z</time></trkpt><trkpt lat="37.7477731" lon="13.3876"><ele>724.0</ele><time>2026-04-18T07:36:06.01Z</time></trkpt><trkpt lat="37.747579" lon="13.3878682"><ele>723.0</ele><time>2026-04-18T07:36:07.011Z</time></trkpt><trkpt lat="37.7474049" lon="13.3881634"><ele>723.0</ele><time>2026-04-18T07:36:08.01Z</time></trkpt><trkpt lat="37.7472517" lon="13.3884806"><ele>723.0</ele><time>2026-04-18T07:36:09.011Z</time></trkpt><trkpt lat="37.7471354" lon="13.3888258"><ele>720.5</ele><time>2026-04-18T07:36:10.011Z</time></trkpt><trkpt lat="37.7470275" lon="13.3891935"><ele>718.0</ele><time>2026-04-18T07:36:11.01Z</time></trkpt><trkpt lat="37.7469269" lon="13.3895587"><ele>723.5</ele><time>2026-04-18T07:36:12.011Z</time></trkpt><trkpt lat="37.7468363" lon="13.3899258"><ele>729.0</ele><time>2026-04-18T07:36:13.01Z</time></trkpt><trkpt lat="37.7467454" lon="13.3902784"><ele>726.0</ele><time>2026-04-18T07:36:14.01Z</time></trkpt><trkpt lat="37.7466347" lon="13.3906124"><ele>723.0</ele><time>2026-04-18T07:36:15.011Z</time></trkpt><trkpt lat="37.7465191" lon="13.3909362"><ele>723.0</ele><time>2026-04-18T07:36:16.01Z</time></trkpt><trkpt lat="37.7464105" lon="13.3912546"><ele>723.0</ele><time>2026-04-18T07:36:17.011Z</time></trkpt><trkpt lat="37.7463064" lon="13.3915634"><ele>720.0</ele><time>2026-04-18T07:36:18.011Z</time></trkpt><trkpt lat="37.7461995" lon="13.3918698"><ele>717.0</ele><time>2026-04-18T07:36:19.011Z</time></trkpt><trkpt lat="37.7461" lon="13.3921938"><ele>725.5</ele><time>2026-04-18T07:36:20.011Z</time></trkpt><trkpt lat="37.7459953" lon="13.3925187"><ele>734.0</ele><time>2026-04-18T07:36:21.011Z</time></trkpt><trkpt lat="37.7458808" lon="13.3928371"><ele>730.5</ele><time>2026-04-18T07:36:22.01Z</time></trkpt><trkpt lat="37.7457762" lon="13.3931632"><ele>727.0</ele><time>2026-04-18T07:36:23.01Z</time></trkpt><trkpt lat="37.7456975" lon="13.3934902"><ele>727.0</ele><time>2026-04-18T07:36:24.011Z</time></trkpt><trkpt lat="37.7456344" lon="13.393819"><ele>727.0</ele><time>2026-04-18T07:36:25.01Z</time></trkpt><trkpt lat="37.7455732" lon="13.3941274"><ele>727.3333333333334</ele><time>2026-04-18T07:36:26.011Z</time></trkpt><trkpt lat="37.745492" lon="13.3943808"><ele>727.6666666666666</ele><time>2026-04-18T07:36:27.011Z</time></trkpt><trkpt lat="37.7454062" lon="13.394588"><ele>728.0</ele><time>2026-04-18T07:36:28.011Z</time></trkpt><trkpt lat="37.7453212" lon="13.3947564"><ele>728.0</ele><time>2026-04-18T07:36:29.011Z</time></trkpt><trkpt lat="37.745236" lon="13.3949113"><ele>728.0</ele><time>2026-04-18T07:36:30.01Z</time></trkpt><trkpt lat="37.7451541" lon="13.3950557"><ele>728.0</ele><time>2026-04-18T07:36:31.011Z</time></trkpt><trkpt lat="37.7450752" lon="13.395192"><ele>728.0</ele><time>2026-04-18T07:36:32.01Z</time></trkpt><trkpt lat="37.745006" lon="13.3953214"><ele>727.25</ele><time>2026-04-18T07:36:33.01Z</time></trkpt><trkpt lat="37.7449547" lon="13.3954571"><ele>726.5</ele><time>2026-04-18T07:36:34.01Z</time></trkpt><trkpt lat="37.7449212" lon="13.3955976"><ele>725.75</ele><time>2026-04-18T07:36:35.011Z</time></trkpt><trkpt lat="37.7449053" lon="13.3957417"><ele>725.0</ele><time>2026-04-18T07:36:36.011Z</time></trkpt><trkpt lat="37.744904" lon="13.3958948"><ele>724.5</ele><time>2026-04-18T07:36:37.011Z</time></trkpt><trkpt lat="37.7449066" lon="13.3960529"><ele>724.0</ele><time>2026-04-18T07:36:38.011Z</time></trkpt><trkpt lat="37.744928" lon="13.3962135"><ele>723.5</ele><time>2026-04-18T07:36:39.01Z</time></trkpt><trkpt lat="37.7449717" lon="13.3963769"><ele>723.0</ele><time>2026-04-18T07:36:40.011Z</time></trkpt><trkpt lat="37.7450483" lon="13.3965327"><ele>724.3333333333334</ele><time>2026-04-18T07:36:41.011Z</time></trkpt><trkpt lat="37.7451489" lon="13.3966772"><ele>725.6666666666667</ele><time>2026-04-18T07:36:42.01Z</time></trkpt><trkpt lat="37.7452586" lon="13.3968137"><ele>727.0</ele><time>2026-04-18T07:36:43.011Z</time></trkpt><trkpt lat="37.7453605" lon="13.3969497"><ele>727.0</ele><time>2026-04-18T07:36:44.011Z</time></trkpt><trkpt lat="37.745461" lon="13.397096"><ele>727.0</ele><time>2026-04-18T07:36:45.01Z</time></trkpt><trkpt lat="37.7455631" lon="13.397247"><ele>727.0</ele><time>2026-04-18T07:36:46.011Z</time></trkpt><trkpt lat="37.7456688" lon="13.3973984"><ele>723.0</ele><time>2026-04-18T07:36:47.01Z</time></trkpt><trkpt lat="37.7457738" lon="13.3975482"><ele>719.0</ele><time>2026-04-18T07:36:48.01Z</time></trkpt><trkpt lat="37.7458795" lon="13.3976974"><ele>715.0</ele><time>2026-04-18T07:36:49.011Z</time></trkpt><trkpt lat="37.7459803" lon="13.397845"><ele>715.6666666666667</ele><time>2026-04-18T07:36:50.011Z</time></trkpt><trkpt lat="37.7460718" lon="13.3979914"><ele>716.3333333333334</ele><time>2026-04-18T07:36:51.011Z</time></trkpt><trkpt lat="37.7461431" lon="13.3981576"><ele>717.0</ele><time>2026-04-18T07:36:52.011Z</time></trkpt><trkpt lat="37.7461673" lon="13.3983612"><ele>717.0</ele><time>2026-04-18T07:36:53.011Z</time></trkpt><trkpt lat="37.7461434" lon="13.3986049"><ele>717.0</ele><time>2026-04-18T07:36:54.011Z</time></trkpt><trkpt lat="37.7460989" lon="13.3988601"><ele>717.0</ele><time>2026-04-18T07:36:55.01Z</time></trkpt><trkpt lat="37.7460574" lon="13.3991045"><ele>712.6666666666666</ele><time>2026-04-18T07:36:56.011Z</time></trkpt><trkpt lat="37.7460065" lon="13.3993397"><ele>708.3333333333333</ele><time>2026-04-18T07:36:57.01Z</time></trkpt><trkpt lat="37.7459391" lon="13.3995697"><ele>704.0</ele><time>2026-04-18T07:36:58.011Z</time></trkpt><trkpt lat="37.7458607" lon="13.3997923"><ele>704.0</ele><time>2026-04-18T07:36:59.011Z</time></trkpt><trkpt lat="37.7457798" lon="13.4000173"><ele>704.0</ele><time>2026-04-18T07:37:00.011Z</time></trkpt><trkpt lat="37.7457056" lon="13.4002493"><ele>704.0</ele><time>2026-04-18T07:37:01.011Z</time></trkpt><trkpt lat="37.7456289" lon="13.4004737"><ele>704.6666666666666</ele><time>2026-04-18T07:37:02.011Z</time></trkpt><trkpt lat="37.7455649" lon="13.4007093"><ele>705.3333333333334</ele><time>2026-04-18T07:37:03.01Z</time></trkpt><trkpt lat="37.7455348" lon="13.4009681"><ele>706.0</ele><time>2026-04-18T07:37:04.011Z</time></trkpt><trkpt lat="37.7455365" lon="13.4012381"><ele>705.0</ele><time>2026-04-18T07:37:05.011Z</time></trkpt><trkpt lat="37.745552" lon="13.4015014"><ele>704.0</ele><time>2026-04-18T07:37:06.01Z</time></trkpt><trkpt lat="37.7455662" lon="13.4017412"><ele>703.0</ele><time>2026-04-18T07:37:07.011Z</time></trkpt><trkpt lat="37.7455488" lon="13.4019826"><ele>703.0</ele><time>2026-04-18T07:37:08.01Z</time></trkpt><trkpt lat="37.7454717" lon="13.4022357"><ele>703.0</ele><time>2026-04-18T07:37:09.011Z</time></trkpt><trkpt lat="37.745377" lon="13.402494"><ele>703.0</ele><time>2026-04-18T07:37:10.01Z</time></trkpt><trkpt lat="37.7452804" lon="13.4027545"><ele>698.6666666666667</ele><time>2026-04-18T07:37:11.011Z</time></trkpt><trkpt lat="37.74519" lon="13.4030161"><ele>694.3333333333334</ele><time>2026-04-18T07:37:12.011Z</time></trkpt><trkpt lat="37.745108" lon="13.4032727"><ele>690.0</ele><time>2026-04-18T07:37:13.011Z</time></trkpt><trkpt lat="37.7450334" lon="13.4035381"><ele>690.0</ele><time>2026-04-18T07:37:14.01Z</time></trkpt><trkpt lat="37.7449928" lon="13.4038271"><ele>690.0</ele><time>2026-04-18T07:37:15.01Z</time></trkpt><trkpt lat="37.7449858" lon="13.4041457"><ele>689.5</ele><time>2026-04-18T07:37:16.011Z</time></trkpt><trkpt lat="37.7449966" lon="13.4044631"><ele>689.0</ele><time>2026-04-18T07:37:17.01Z</time></trkpt><trkpt lat="37.7449964" lon="13.4047666"><ele>688.0</ele><time>2026-04-18T07:37:18.011Z</time></trkpt><trkpt lat="37.7449956" lon="13.4050568"><ele>687.0</ele><time>2026-04-18T07:37:19.01Z</time></trkpt><trkpt lat="37.7449984" lon="13.4053161"><ele>686.0</ele><time>2026-04-18T07:37:20.011Z</time></trkpt><trkpt lat="37.7449865" lon="13.4055438"><ele>685.6666666666666</ele><time>2026-04-18T07:37:21.011Z</time></trkpt><trkpt lat="37.7449138" lon="13.4057609"><ele>685.3333333333334</ele><time>2026-04-18T07:37:22.011Z</time></trkpt><trkpt lat="37.7447989" lon="13.4059888"><ele>685.0</ele><time>2026-04-18T07:37:23.011Z</time></trkpt><trkpt lat="37.7446367" lon="13.4062118"><ele>686.0</ele><time>2026-04-18T07:37:24.011Z</time></trkpt><trkpt lat="37.7444631" lon="13.406439"><ele>687.0</ele><time>2026-04-18T07:37:25.011Z</time></trkpt><trkpt lat="37.7442927" lon="13.4066801"><ele>682.5</ele><time>2026-04-18T07:37:26.01Z</time></trkpt><trkpt lat="37.7441273" lon="13.4069134"><ele>678.0</ele><time>2026-04-18T07:37:27.011Z</time></trkpt><trkpt lat="37.7439775" lon="13.4071303"><ele>678.3333333333334</ele><time>2026-04-18T07:37:28.011Z</time></trkpt><trkpt lat="37.7438397" lon="13.4073072"><ele>678.6666666666667</ele><time>2026-04-18T07:37:29.01Z</time></trkpt><trkpt lat="37.7437235" lon="13.4074749"><ele>679.0</ele><time>2026-04-18T07:37:30.011Z</time></trkpt><trkpt lat="37.7436375" lon="13.4076627"><ele>679.0</ele><time>2026-04-18T07:37:31.01Z</time></trkpt><trkpt lat="37.7436019" lon="13.407916"><ele>679.0</ele><time>2026-04-18T07:37:32.011Z</time></trkpt><trkpt lat="37.7435941" lon="13.4081961"><ele>679.0</ele><time>2026-04-18T07:37:33.011Z</time></trkpt><trkpt lat="37.7435991" lon="13.408519"><ele>674.0</ele><time>2026-04-18T07:37:34.011Z</time></trkpt><trkpt lat="37.7435955" lon="13.4088678"><ele>669.0</ele><time>2026-04-18T07:37:35.011Z</time></trkpt><trkpt lat="37.7435856" lon="13.4092126"><ele>669.0</ele><time>2026-04-18T07:37:36.011Z</time></trkpt><trkpt lat="37.7435782" lon="13.4095276"><ele>669.0</ele><time>2026-04-18T07:37:37.01Z</time></trkpt><trkpt lat="37.7435726" lon="13.4098284"><ele>667.6666666666666</ele><time>2026-04-18T07:37:38.01Z</time></trkpt><trkpt lat="37.743564" lon="13.4101004"><ele>666.3333333333333</ele><time>2026-04-18T07:37:39.011Z</time></trkpt><trkpt lat="37.7435547" lon="13.4103283"><ele>665.0</ele><time>2026-04-18T07:37:40.011Z</time></trkpt><trkpt lat="37.7435413" lon="13.4105194"><ele>665.0</ele><time>2026-04-18T07:37:41.011Z</time></trkpt><trkpt lat="37.7434828" lon="13.4107038"><ele>665.0</ele><time>2026-04-18T07:37:42.01Z</time></trkpt><trkpt lat="37.743382" lon="13.4108491"><ele>665.0</ele><time>2026-04-18T07:37:43.01Z</time></trkpt><trkpt lat="37.7432406" lon="13.4109331"><ele>665.0</ele><time>2026-04-18T07:37:44.011Z</time></trkpt><trkpt lat="37.7430697" lon="13.4109545"><ele>665.0</ele><time>2026-04-18T07:37:45.011Z</time></trkpt><trkpt lat="37.7428764" lon="13.4109315"><ele>665.0</ele><time>2026-04-18T07:37:46.01Z</time></trkpt><trkpt lat="37.7426848" lon="13.4109323"><ele>664.5</ele><time>2026-04-18T07:37:47.011Z</time></trkpt><trkpt lat="37.7424719" lon="13.4109889"><ele>664.0</ele><time>2026-04-18T07:37:48.01Z</time></trkpt><trkpt lat="37.7422268" lon="13.4110835"><ele>664.0</ele><time>2026-04-18T07:37:49.011Z</time></trkpt><trkpt lat="37.7419602" lon="13.4111851"><ele>664.0</ele><time>2026-04-18T07:37:50.011Z</time></trkpt><trkpt lat="37.7416986" lon="13.4112866"><ele>667.5</ele><time>2026-04-18T07:37:51.01Z</time></trkpt><trkpt lat="37.7414444" lon="13.4113789"><ele>671.0</ele><time>2026-04-18T07:37:52.011Z</time></trkpt><trkpt lat="37.7412101" lon="13.4114948"><ele>667.5</ele><time>2026-04-18T07:37:53.011Z</time></trkpt><trkpt lat="37.7409884" lon="13.411639"><ele>664.0</ele><time>2026-04-18T07:37:54.011Z</time></trkpt><trkpt lat="37.7407853" lon="13.4118047"><ele>664.0</ele><time>2026-04-18T07:37:55.011Z</time></trkpt><trkpt lat="37.7406097" lon="13.4119985"><ele>664.0</ele><time>2026-04-18T07:37:56.011Z</time></trkpt><trkpt lat="37.7404533" lon="13.4122149"><ele>666.5</ele><time>2026-04-18T07:37:57.011Z</time></trkpt><trkpt lat="37.7403273" lon="13.4124552"><ele>669.0</ele><time>2026-04-18T07:37:58.011Z</time></trkpt><trkpt lat="37.7402493" lon="13.412723"><ele>665.5</ele><time>2026-04-18T07:37:59.011Z</time></trkpt><trkpt lat="37.7401917" lon="13.4130215"><ele>662.0</ele><time>2026-04-18T07:38:00.011Z</time></trkpt><trkpt lat="37.7401446" lon="13.4133471"><ele>662.0</ele><time>2026-04-18T07:38:01.011Z</time></trkpt><trkpt lat="37.7400995" lon="13.4136749"><ele>662.0</ele><time>2026-04-18T07:38:02.011Z</time></trkpt><trkpt lat="37.7400621" lon="13.4140009"><ele>663.0</ele><time>2026-04-18T07:38:03.011Z</time></trkpt><trkpt lat="37.7400222" lon="13.4143175"><ele>664.0</ele><time>2026-04-18T07:38:04.011Z</time></trkpt><trkpt lat="37.7399843" lon="13.4146091"><ele>663.6666666666667</ele><time>2026-04-18T07:38:05.011Z</time></trkpt><trkpt lat="37.7399476" lon="13.4148742"><ele>663.3333333333334</ele><time>2026-04-18T07:38:06.011Z</time></trkpt><trkpt lat="37.7399064" lon="13.4151099"><ele>663.0</ele><time>2026-04-18T07:38:07.01Z</time></trkpt><trkpt lat="37.7398414" lon="13.4153287"><ele>662.0</ele><time>2026-04-18T07:38:08.01Z</time></trkpt><trkpt lat="37.7397396" lon="13.4155335"><ele>661.0</ele><time>2026-04-18T07:38:09.011Z</time></trkpt><trkpt lat="37.7395938" lon="13.4157045"><ele>660.0</ele><time>2026-04-18T07:38:10.011Z</time></trkpt><trkpt lat="37.7394108" lon="13.4158411"><ele>659.5</ele><time>2026-04-18T07:38:11.011Z</time></trkpt><trkpt lat="37.7391818" lon="13.4159671"><ele>659.0</ele><time>2026-04-18T07:38:12.011Z</time></trkpt><trkpt lat="37.7389349" lon="13.4160978"><ele>659.0</ele><time>2026-04-18T07:38:13.011Z</time></trkpt><trkpt lat="37.7386886" lon="13.4162387"><ele>659.0</ele><time>2026-04-18T07:38:14.01Z</time></trkpt><trkpt lat="37.7384292" lon="13.4163825"><ele>664.0</ele><time>2026-04-18T07:38:15.011Z</time></trkpt><trkpt lat="37.7381675" lon="13.416532"><ele>669.0</ele><time>2026-04-18T07:38:16.01Z</time></trkpt><trkpt lat="37.7379034" lon="13.4166915"><ele>669.0</ele><time>2026-04-18T07:38:17.01Z</time></trkpt><trkpt lat="37.7376245" lon="13.4168464"><ele>669.0</ele><time>2026-04-18T07:38:18.011Z</time></trkpt><trkpt lat="37.7373472" lon="13.417003"><ele>669.0</ele><time>2026-04-18T07:38:19.01Z</time></trkpt><trkpt lat="37.7370902" lon="13.4171376"><ele>669.0</ele><time>2026-04-18T07:38:20.01Z</time></trkpt><trkpt lat="37.7368553" lon="13.4172563"><ele>669.5</ele><time>2026-04-18T07:38:21.01Z</time></trkpt><trkpt lat="37.7366389" lon="13.4173385"><ele>670.0</ele><time>2026-04-18T07:38:22.011Z</time></trkpt><trkpt lat="37.7364053" lon="13.417391"><ele>670.0</ele><time>2026-04-18T07:38:23.01Z</time></trkpt><trkpt lat="37.7362091" lon="13.41741"><ele>670.0</ele><time>2026-04-18T07:38:24.01Z</time></trkpt><trkpt lat="37.7360079" lon="13.4173965"><ele>670.0</ele><time>2026-04-18T07:38:25.011Z</time></trkpt><trkpt lat="37.7358142" lon="13.4173493"><ele>671.0</ele><time>2026-04-18T07:38:26.011Z</time></trkpt><trkpt lat="37.7356237" lon="13.4172741"><ele>672.0</ele><time>2026-04-18T07:38:27.011Z</time></trkpt><trkpt lat="37.7354254" lon="13.4171691"><ele>673.0</ele><time>2026-04-18T07:38:28.011Z</time></trkpt><trkpt lat="37.7352154" lon="13.4170329"><ele>674.5</ele><time>2026-04-18T07:38:29.011Z</time></trkpt><trkpt lat="37.7349957" lon="13.4168522"><ele>676.0</ele><time>2026-04-18T07:38:30.011Z</time></trkpt><trkpt lat="37.7347588" lon="13.4166471"><ele>676.0</ele><time>2026-04-18T07:38:31.01Z</time></trkpt><trkpt lat="37.7345164" lon="13.4164383"><ele>676.0</ele><time>2026-04-18T07:38:32.011Z</time></trkpt><trkpt lat="37.734271" lon="13.4162316"><ele>676.0</ele><time>2026-04-18T07:38:33.01Z</time></trkpt><trkpt lat="37.7340237" lon="13.4160272"><ele>676.0</ele><time>2026-04-18T07:38:34.011Z</time></trkpt><trkpt lat="37.7337809" lon="13.4158221"><ele>677.0</ele><time>2026-04-18T07:38:35.011Z</time></trkpt><trkpt lat="37.7335449" lon="13.4156197"><ele>678.0</ele><time>2026-04-18T07:38:36.011Z</time></trkpt><trkpt lat="37.733314" lon="13.4154229"><ele>678.0</ele><time>2026-04-18T07:38:37.01Z</time></trkpt><trkpt lat="37.7330936" lon="13.4152293"><ele>678.0</ele><time>2026-04-18T07:38:38.011Z</time></trkpt><trkpt lat="37.7328724" lon="13.4150432"><ele>683.0</ele><time>2026-04-18T07:38:39.011Z</time></trkpt><trkpt lat="37.7326415" lon="13.4148705"><ele>688.0</ele><time>2026-04-18T07:38:40.011Z</time></trkpt><trkpt lat="37.7323987" lon="13.4147243"><ele>683.0</ele><time>2026-04-18T07:38:41.011Z</time></trkpt><trkpt lat="37.7321414" lon="13.4145948"><ele>678.0</ele><time>2026-04-18T07:38:42.01Z</time></trkpt><trkpt lat="37.7318972" lon="13.4144674"><ele>682.5</ele><time>2026-04-18T07:38:43.011Z</time></trkpt><trkpt lat="37.7316831" lon="13.4143041"><ele>687.0</ele><time>2026-04-18T07:38:44.011Z</time></trkpt><trkpt lat="37.7314932" lon="13.4141012"><ele>687.0</ele><time>2026-04-18T07:38:45.011Z</time></trkpt><trkpt lat="37.7313258" lon="13.4138952"><ele>687.0</ele><time>2026-04-18T07:38:46.011Z</time></trkpt><trkpt lat="37.7311632" lon="13.4136953"><ele>689.5</ele><time>2026-04-18T07:38:47.011Z</time></trkpt><trkpt lat="37.7309757" lon="13.4135259"><ele>692.0</ele><time>2026-04-18T07:38:48.011Z</time></trkpt><trkpt lat="37.7307642" lon="13.4133985"><ele>692.0</ele><time>2026-04-18T07:38:49.01Z</time></trkpt><trkpt lat="37.7305185" lon="13.4133037"><ele>692.0</ele><time>2026-04-18T07:38:50.01Z</time></trkpt><trkpt lat="37.7302537" lon="13.413236"><ele>694.5</ele><time>2026-04-18T07:38:51.01Z</time></trkpt><trkpt lat="37.7299902" lon="13.4131747"><ele>697.0</ele><time>2026-04-18T07:38:52.011Z</time></trkpt><trkpt lat="37.729731" lon="13.4131126"><ele>697.0</ele><time>2026-04-18T07:38:53.01Z</time></trkpt><trkpt lat="37.729495" lon="13.4130536"><ele>697.0</ele><time>2026-04-18T07:38:54.011Z</time></trkpt><trkpt lat="37.7292804" lon="13.4129949"><ele>696.3333333333334</ele><time>2026-04-18T07:38:55.011Z</time></trkpt><trkpt lat="37.729096" lon="13.4129004"><ele>695.6666666666666</ele><time>2026-04-18T07:38:56.011Z</time></trkpt><trkpt lat="37.7289538" lon="13.4127645"><ele>695.0</ele><time>2026-04-18T07:38:57.011Z</time></trkpt><trkpt lat="37.7288309" lon="13.4126346"><ele>695.0</ele><time>2026-04-18T07:38:58.01Z</time></trkpt><trkpt lat="37.7287093" lon="13.4125644"><ele>695.0</ele><time>2026-04-18T07:38:59.011Z</time></trkpt><trkpt lat="37.7285642" lon="13.4125609"><ele>695.0</ele><time>2026-04-18T07:39:00.011Z</time></trkpt><trkpt lat="37.7283859" lon="13.4126106"><ele>698.3333333333333</ele><time>2026-04-18T07:39:01.011Z</time></trkpt><trkpt lat="37.7281811" lon="13.4126622"><ele>701.6666666666666</ele><time>2026-04-18T07:39:02.01Z</time></trkpt><trkpt lat="37.7279974" lon="13.4126908"><ele>705.0</ele><time>2026-04-18T07:39:03.011Z</time></trkpt><trkpt lat="37.7278207" lon="13.4126605"><ele>706.3333333333334</ele><time>2026-04-18T07:39:04.01Z</time></trkpt><trkpt lat="37.7276474" lon="13.4125923"><ele>707.6666666666667</ele><time>2026-04-18T07:39:05.011Z</time></trkpt><trkpt lat="37.7274848" lon="13.4125246"><ele>709.0</ele><time>2026-04-18T07:39:06.011Z</time></trkpt><trkpt lat="37.72732" lon="13.4124994"><ele>709.0</ele><time>2026-04-18T07:39:07.011Z</time></trkpt><trkpt lat="37.7271509" lon="13.4125445"><ele>709.0</ele><time>2026-04-18T07:39:08.01Z</time></trkpt><trkpt lat="37.7269793" lon="13.4126262"><ele>709.0</ele><time>2026-04-18T07:39:09.01Z</time></trkpt><trkpt lat="37.7268253" lon="13.4126954"><ele>710.3333333333334</ele><time>2026-04-18T07:39:10.01Z</time></trkpt><trkpt lat="37.726664" lon="13.4126935"><ele>711.6666666666666</ele><time>2026-04-18T07:39:11.011Z</time></trkpt><trkpt lat="37.726486" lon="13.4126501"><ele>713.0</ele><time>2026-04-18T07:39:12.01Z</time></trkpt><trkpt lat="37.7263064" lon="13.4125972"><ele>713.0</ele><time>2026-04-18T07:39:13.011Z</time></trkpt><trkpt lat="37.7261073" lon="13.4125915"><ele>713.0</ele><time>2026-04-18T07:39:14.011Z</time></trkpt><trkpt lat="37.7316831" lon="13.4143041"><ele>700.0</ele><time>2026-04-18T07:38:44.011Z</time></trkpt><trkpt lat="37.7314932" lon="13.4141012"><ele>687.0</ele><time>2026-04-18T07:38:45.011Z</time></trkpt><trkpt lat="37.7313258" lon="13.4138952"><ele>685.0</ele><time>2026-04-18T07:38:46.011Z</time></trkpt><trkpt lat="37.7311632" lon="13.4136953"><ele>683.0</ele><time>2026-04-18T07:38:47.011Z</time></trkpt><trkpt lat="37.7309757" lon="13.4135259"><ele>687.5</ele><time>2026-04-18T07:38:48.011Z</time></trkpt><trkpt lat="37.7307642" lon="13.4133985"><ele>692.0</ele><time>2026-04-18T07:38:49.01Z</time></trkpt><trkpt lat="37.7305185" lon="13.4133037"><ele>692.0</ele><time>2026-04-18T07:38:50.01Z</time></trkpt><trkpt lat="37.7302537" lon="13.413236"><ele>692.0</ele><time>2026-04-18T07:38:51.01Z</time></trkpt><trkpt lat="37.7299902" lon="13.4131747"><ele>694.5</ele><time>2026-04-18T07:38:52.011Z</time></trkpt><trkpt lat="37.729731" lon="13.4131126"><ele>697.0</ele><time>2026-04-18T07:38:53.01Z</time></trkpt><trkpt lat="37.729495" lon="13.4130536"><ele>696.3333333333334</ele><time>2026-04-18T07:38:54.011Z</time></trkpt><trkpt lat="37.7292804" lon="13.4129949"><ele>695.6666666666666</ele><time>2026-04-18T07:38:55.011Z</time></trkpt><trkpt lat="37.729096" lon="13.4129004"><ele>695.0</ele><time>2026-04-18T07:38:56.011Z</time></trkpt><trkpt lat="37.7289538" lon="13.4127645"><ele>695.0</ele><time>2026-04-18T07:38:57.011Z</time></trkpt><trkpt lat="37.7288309" lon="13.4126346"><ele>695.0</ele><time>2026-04-18T07:38:58.01Z</time></trkpt><trkpt lat="37.7287093" lon="13.4125644"><ele>695.0</ele><time>2026-04-18T07:38:59.011Z</time></trkpt><trkpt lat="37.7285642" lon="13.4125609"><ele>695.0</ele><time>2026-04-18T07:39:00.011Z</time></trkpt><trkpt lat="37.7283859" lon="13.4126106"><ele>698.3333333333333</ele><time>2026-04-18T07:39:01.011Z</time></trkpt><trkpt lat="37.7281811" lon="13.4126622"><ele>701.6666666666666</ele><time>2026-04-18T07:39:02.01Z</time></trkpt><trkpt lat="37.7279974" lon="13.4126908"><ele>705.0</ele><time>2026-04-18T07:39:03.011Z</time></trkpt><trkpt lat="37.7278207" lon="13.4126605"><ele>706.3333333333334</ele><time>2026-04-18T07:39:04.01Z</time></trkpt><trkpt lat="37.7276474" lon="13.4125923"><ele>707.6666666666667</ele><time>2026-04-18T07:39:05.011Z</time></trkpt><trkpt lat="37.7274848" lon="13.4125246"><ele>709.0</ele><time>2026-04-18T07:39:06.011Z</time></trkpt><trkpt lat="37.72732" lon="13.4124994"><ele>709.0</ele><time>2026-04-18T07:39:07.011Z</time></trkpt><trkpt lat="37.7271509" lon="13.4125445"><ele>709.0</ele><time>2026-04-18T07:39:08.01Z</time></trkpt><trkpt lat="37.7269793" lon="13.4126262"><ele>709.0</ele><time>2026-04-18T07:39:09.01Z</time></trkpt><trkpt lat="37.7268253" lon="13.4126954"><ele>710.3333333333334</ele><time>2026-04-18T07:39:10.01Z</time></trkpt><trkpt lat="37.726664" lon="13.4126935"><ele>711.6666666666666</ele><time>2026-04-18T07:39:11.011Z</time></trkpt><trkpt lat="37.726486" lon="13.4126501"><ele>713.0</ele><time>2026-04-18T07:39:12.01Z</time></trkpt><trkpt lat="37.7263064" lon="13.4125972"><ele>713.0</ele><time>2026-04-18T07:39:13.011Z</time></trkpt><trkpt lat="37.7261073" lon="13.4125915"><ele>713.0</ele><time>2026-04-18T07:39:14.011Z</time></trkpt><trkpt lat="37.7258756" lon="13.4126384"><ele>713.0</ele><time>2026-04-18T07:39:15.011Z</time></trkpt><trkpt lat="37.7256488" lon="13.4127179"><ele>714.6666666666666</ele><time>2026-04-18T07:39:16.01Z</time></trkpt><trkpt lat="37.7254327" lon="13.412792"><ele>716.3333333333334</ele><time>2026-04-18T07:39:17.01Z</time></trkpt><trkpt lat="37.7252565" lon="13.412843"><ele>718.0</ele><time>2026-04-18T07:39:18.011Z</time></trkpt><trkpt lat="37.7251075" lon="13.4128627"><ele>718.0</ele><time>2026-04-18T07:39:19.011Z</time></trkpt><trkpt lat="37.7249488" lon="13.4128358"><ele>718.0</ele><time>2026-04-18T07:39:20.011Z</time></trkpt><trkpt lat="37.7247909" lon="13.4127502"><ele>718.0</ele><time>2026-04-18T07:39:21.01Z</time></trkpt><trkpt lat="37.7246121" lon="13.4126054"><ele>718.0</ele><time>2026-04-18T07:39:22.011Z</time></trkpt><trkpt lat="37.7244015" lon="13.4124293"><ele>718.0</ele><time>2026-04-18T07:39:23.011Z</time></trkpt><trkpt lat="37.7241697" lon="13.4122477"><ele>717.0</ele><time>2026-04-18T07:39:24.011Z</time></trkpt><trkpt lat="37.7239546" lon="13.4120791"><ele>716.0</ele><time>2026-04-18T07:39:25.011Z</time></trkpt><trkpt lat="37.7237805" lon="13.4119342"><ele>716.0</ele><time>2026-04-18T07:39:26.01Z</time></trkpt><trkpt lat="37.7236449" lon="13.4118276"><ele>716.0</ele><time>2026-04-18T07:39:27.01Z</time></trkpt><trkpt lat="37.7235246" lon="13.4117658"><ele>716.0</ele><time>2026-04-18T07:39:28.011Z</time></trkpt><trkpt lat="37.7234103" lon="13.411744"><ele>716.0</ele><time>2026-04-18T07:39:29.011Z</time></trkpt><trkpt lat="37.7233111" lon="13.4117711"><ele>719.0</ele><time>2026-04-18T07:39:30.011Z</time></trkpt><trkpt lat="37.7232149" lon="13.411812"><ele>722.0</ele><time>2026-04-18T07:39:31.01Z</time></trkpt><trkpt lat="37.7231353" lon="13.411844"><ele>725.0</ele><time>2026-04-18T07:39:32.01Z</time></trkpt><trkpt lat="37.7230677" lon="13.4118701"><ele>728.0</ele><time>2026-04-18T07:39:33.011Z</time></trkpt><trkpt lat="37.7229709" lon="13.4118979"><ele>731.0</ele><time>2026-04-18T07:39:35.01Z</time></trkpt><trkpt lat="37.7229127" lon="13.4119332"><ele>734.0</ele><time>2026-04-18T07:39:38.011Z</time></trkpt><trkpt lat="37.7228379" lon="13.4119731"><ele>734.0</ele><time>2026-04-18T07:40:10.011Z</time></trkpt><trkpt lat="37.722779" lon="13.4120332"><ele>734.0</ele><time>2026-04-18T07:40:11.011Z</time></trkpt><trkpt lat="37.7227081" lon="13.4121272"><ele>734.0</ele><time>2026-04-18T07:40:12.011Z</time></trkpt><trkpt lat="37.7226294" lon="13.4122794"><ele>734.0</ele><time>2026-04-18T07:40:13.01Z</time></trkpt><trkpt lat="37.7225784" lon="13.4124859"><ele>733.3333333333333</ele><time>2026-04-18T07:40:14.011Z</time></trkpt><trkpt lat="37.7225507" lon="13.4127509"><ele>732.6666666666666</ele><time>2026-04-18T07:40:15.011Z</time></trkpt><trkpt lat="37.7225325" lon="13.4130328"><ele>732.0</ele><time>2026-04-18T07:40:16.011Z</time></trkpt><trkpt lat="37.7225023" lon="13.4133218"><ele>734.6666666666666</ele><time>2026-04-18T07:40:17.01Z</time></trkpt><trkpt lat="37.7224492" lon="13.4135871"><ele>737.3333333333333</ele><time>2026-04-18T07:40:18.011Z</time></trkpt><trkpt lat="37.7223845" lon="13.4138401"><ele>740.0</ele><time>2026-04-18T07:40:19.011Z</time></trkpt><trkpt lat="37.7223301" lon="13.414089"><ele>742.0</ele><time>2026-04-18T07:40:20.011Z</time></trkpt><trkpt lat="37.7222883" lon="13.4143271"><ele>744.0</ele><time>2026-04-18T07:40:21.011Z</time></trkpt><trkpt lat="37.7222503" lon="13.4145517"><ele>746.0</ele><time>2026-04-18T07:40:22.011Z</time></trkpt><trkpt lat="37.7221768" lon="13.414779"><ele>748.0</ele><time>2026-04-18T07:40:23.011Z</time></trkpt><trkpt lat="37.7220554" lon="13.4150008"><ele>750.0</ele><time>2026-04-18T07:40:24.01Z</time></trkpt><trkpt lat="37.7219351" lon="13.4151951"><ele>752.0</ele><time>2026-04-18T07:40:25.011Z</time></trkpt><trkpt lat="37.7218351" lon="13.4153342"><ele>752.3333333333333</ele><time>2026-04-18T07:40:26.011Z</time></trkpt><trkpt lat="37.7217106" lon="13.4154174"><ele>752.6666666666666</ele><time>2026-04-18T07:40:27.01Z</time></trkpt><trkpt lat="37.7215519" lon="13.4154746"><ele>753.0</ele><time>2026-04-18T07:40:28.01Z</time></trkpt><trkpt lat="37.7213723" lon="13.4155023"><ele>753.0</ele><time>2026-04-18T07:40:29.011Z</time></trkpt><trkpt lat="37.7212149" lon="13.4155535"><ele>753.0</ele><time>2026-04-18T07:40:30.011Z</time></trkpt><trkpt lat="37.7210858" lon="13.4156533"><ele>753.0</ele><time>2026-04-18T07:40:31.01Z</time></trkpt><trkpt lat="37.7209837" lon="13.4158231"><ele>753.3333333333334</ele><time>2026-04-18T07:40:32.017Z</time></trkpt><trkpt lat="37.7208952" lon="13.4160513"><ele>753.6666666666667</ele><time>2026-04-18T07:40:33.018Z</time></trkpt><trkpt lat="37.7207837" lon="13.4163155"><ele>754.0</ele><time>2026-04-18T07:40:34.018Z</time></trkpt><trkpt lat="37.7206608" lon="13.4166157"><ele>754.0</ele><time>2026-04-18T07:40:35.017Z</time></trkpt><trkpt lat="37.7205389" lon="13.4169473"><ele>754.0</ele><time>2026-04-18T07:40:36.017Z</time></trkpt><trkpt lat="37.7204253" lon="13.4172841"><ele>747.0</ele><time>2026-04-18T07:40:37.017Z</time></trkpt><trkpt lat="37.7203125" lon="13.4175883"><ele>740.0</ele><time>2026-04-18T07:40:38.018Z</time></trkpt><trkpt lat="37.720208" lon="13.4178517"><ele>747.3333333333333</ele><time>2026-04-18T07:40:39.017Z</time></trkpt><trkpt lat="37.7201173" lon="13.4180767"><ele>754.6666666666666</ele><time>2026-04-18T07:40:40.018Z</time></trkpt><trkpt lat="37.7200333" lon="13.4182664"><ele>762.0</ele><time>2026-04-18T07:40:41.018Z</time></trkpt><trkpt lat="37.7199246" lon="13.4184163"><ele>762.0</ele><time>2026-04-18T07:40:42.018Z</time></trkpt><trkpt lat="37.7197758" lon="13.4185345"><ele>762.0</ele><time>2026-04-18T07:40:43.017Z</time></trkpt><trkpt lat="37.7196151" lon="13.4186471"><ele>762.0</ele><time>2026-04-18T07:40:44.017Z</time></trkpt><trkpt lat="37.7194529" lon="13.4187485"><ele>762.0</ele><time>2026-04-18T07:40:45.018Z</time></trkpt><trkpt lat="37.7192902" lon="13.4188185"><ele>762.0</ele><time>2026-04-18T07:40:46.018Z</time></trkpt><trkpt lat="37.7191306" lon="13.4188976"><ele>762.0</ele><time>2026-04-18T07:40:47.017Z</time></trkpt><trkpt lat="37.7189775" lon="13.4190267"><ele>762.0</ele><time>2026-04-18T07:40:48.018Z</time></trkpt><trkpt lat="37.7188554" lon="13.4191832"><ele>762.0</ele><time>2026-04-18T07:40:49.018Z</time></trkpt><trkpt lat="37.7187563" lon="13.419346"><ele>762.0</ele><time>2026-04-18T07:40:50.017Z</time></trkpt><trkpt lat="37.7186998" lon="13.4195322"><ele>761.25</ele><time>2026-04-18T07:40:51.017Z</time></trkpt><trkpt lat="37.7186495" lon="13.4197169"><ele>760.5</ele><time>2026-04-18T07:40:52.018Z</time></trkpt><trkpt lat="37.7185933" lon="13.419841"><ele>759.75</ele><time>2026-04-18T07:40:53.017Z</time></trkpt><trkpt lat="37.7184993" lon="13.4199109"><ele>759.0</ele><time>2026-04-18T07:40:54.018Z</time></trkpt><trkpt lat="37.7183627" lon="13.4199653"><ele>759.0</ele><time>2026-04-18T07:40:55.018Z</time></trkpt><trkpt lat="37.7182222" lon="13.4200224"><ele>759.0</ele><time>2026-04-18T07:40:56.018Z</time></trkpt><trkpt lat="37.7181222" lon="13.4201387"><ele>759.0</ele><time>2026-04-18T07:40:57.017Z</time></trkpt><trkpt lat="37.7180476" lon="13.4203064"><ele>759.0</ele><time>2026-04-18T07:40:58.018Z</time></trkpt><trkpt lat="37.7179615" lon="13.4205021"><ele>760.3333333333334</ele><time>2026-04-18T07:40:59.018Z</time></trkpt><trkpt lat="37.7178658" lon="13.4206702"><ele>761.6666666666667</ele><time>2026-04-18T07:41:00.017Z</time></trkpt><trkpt lat="37.7177475" lon="13.4207956"><ele>763.0</ele><time>2026-04-18T07:41:01.017Z</time></trkpt><trkpt lat="37.7175961" lon="13.4208687"><ele>763.0</ele><time>2026-04-18T07:41:02.017Z</time></trkpt><trkpt lat="37.7174394" lon="13.4209568"><ele>763.0</ele><time>2026-04-18T07:41:03.018Z</time></trkpt><trkpt lat="37.717291" lon="13.4210941"><ele>763.0</ele><time>2026-04-18T07:41:04.018Z</time></trkpt><trkpt lat="37.7171822" lon="13.4212716"><ele>764.0</ele><time>2026-04-18T07:41:05.018Z</time></trkpt><trkpt lat="37.7170839" lon="13.4214642"><ele>765.0</ele><time>2026-04-18T07:41:06.018Z</time></trkpt><trkpt lat="37.717" lon="13.42164"><ele>766.0</ele><time>2026-04-18T07:41:07.018Z</time></trkpt><trkpt lat="37.7168964" lon="13.4218075"><ele>766.0</ele><time>2026-04-18T07:41:08.018Z</time></trkpt><trkpt lat="37.7167552" lon="13.421945"><ele>766.0</ele><time>2026-04-18T07:41:09.018Z</time></trkpt><trkpt lat="37.7166111" lon="13.4220882"><ele>766.0</ele><time>2026-04-18T07:41:10.018Z</time></trkpt><trkpt lat="37.716476" lon="13.4222555"><ele>770.6666666666667</ele><time>2026-04-18T07:41:11.017Z</time></trkpt><trkpt lat="37.7163458" lon="13.422447"><ele>775.3333333333334</ele><time>2026-04-18T07:41:12.018Z</time></trkpt><trkpt lat="37.71624" lon="13.4226875"><ele>780.0</ele><time>2026-04-18T07:41:13.017Z</time></trkpt><trkpt lat="37.7161519" lon="13.4229713"><ele>776.0</ele><time>2026-04-18T07:41:14.018Z</time></trkpt><trkpt lat="37.7160717" lon="13.4232373"><ele>772.0</ele><time>2026-04-18T07:41:15.017Z</time></trkpt><trkpt lat="37.7160166" lon="13.4235059"><ele>768.0</ele><time>2026-04-18T07:41:16.018Z</time></trkpt><trkpt lat="37.7159886" lon="13.4237879"><ele>770.0</ele><time>2026-04-18T07:41:17.018Z</time></trkpt><trkpt lat="37.7159815" lon="13.4240702"><ele>772.0</ele><time>2026-04-18T07:41:18.018Z</time></trkpt><trkpt lat="37.7159986" lon="13.424349"><ele>774.0</ele><time>2026-04-18T07:41:19.018Z</time></trkpt><trkpt lat="37.7160179" lon="13.4246136"><ele>775.3333333333333</ele><time>2026-04-18T07:41:20.018Z</time></trkpt><trkpt lat="37.7160034" lon="13.4248605"><ele>776.6666666666666</ele><time>2026-04-18T07:41:21.018Z</time></trkpt><trkpt lat="37.7159551" lon="13.4251136"><ele>778.0</ele><time>2026-04-18T07:41:22.017Z</time></trkpt><trkpt lat="37.7159341" lon="13.4253712"><ele>778.6666666666666</ele><time>2026-04-18T07:41:23.018Z</time></trkpt><trkpt lat="37.7159721" lon="13.4256344"><ele>779.3333333333333</ele><time>2026-04-18T07:41:24.018Z</time></trkpt><trkpt lat="37.7160134" lon="13.4258504"><ele>780.0</ele><time>2026-04-18T07:41:25.017Z</time></trkpt><trkpt lat="37.7160269" lon="13.4260141"><ele>780.0</ele><time>2026-04-18T07:41:26.018Z</time></trkpt><trkpt lat="37.7159821" lon="13.4261798"><ele>780.0</ele><time>2026-04-18T07:41:27.018Z</time></trkpt><trkpt lat="37.7158924" lon="13.4263671"><ele>780.0</ele><time>2026-04-18T07:41:28.018Z</time></trkpt><trkpt lat="37.7157842" lon="13.4265653"><ele>781.3333333333333</ele><time>2026-04-18T07:41:29.017Z</time></trkpt><trkpt lat="37.7156983" lon="13.426803"><ele>782.6666666666666</ele><time>2026-04-18T07:41:30.017Z</time></trkpt><trkpt lat="37.7156312" lon="13.4270739"><ele>784.0</ele><time>2026-04-18T07:41:31.018Z</time></trkpt><trkpt lat="37.7155806" lon="13.427339"><ele>785.6666666666666</ele><time>2026-04-18T07:41:32.017Z</time></trkpt><trkpt lat="37.7155203" lon="13.4275677"><ele>787.3333333333333</ele><time>2026-04-18T07:41:33.018Z</time></trkpt><trkpt lat="37.7154315" lon="13.4277578"><ele>789.0</ele><time>2026-04-18T07:41:34.018Z</time></trkpt><trkpt lat="37.7153323" lon="13.4278867"><ele>788.3333333333334</ele><time>2026-04-18T07:41:35.017Z</time></trkpt><trkpt lat="37.7152628" lon="13.4279769"><ele>787.6666666666667</ele><time>2026-04-18T07:41:36.018Z</time></trkpt><trkpt lat="37.715223" lon="13.4280408"><ele>787.0</ele><time>2026-04-18T07:41:37.018Z</time></trkpt><trkpt lat="37.7151697" lon="13.4280944"><ele>786.3333333333334</ele><time>2026-04-18T07:41:41.017Z</time></trkpt><trkpt lat="37.7151577" lon="13.4281873"><ele>785.6666666666667</ele><time>2026-04-18T07:41:52.018Z</time></trkpt><trkpt lat="37.7151008" lon="13.4282687"><ele>785.0</ele><time>2026-04-18T07:41:55.018Z</time></trkpt><trkpt lat="37.7150047" lon="13.4283162"><ele>785.0</ele><time>2026-04-18T07:41:57.018Z</time></trkpt><trkpt lat="37.7149262" lon="13.4283276"><ele>785.0</ele><time>2026-04-18T07:41:58.017Z</time></trkpt><trkpt lat="37.7148171" lon="13.4283328"><ele>785.0</ele><time>2026-04-18T07:41:59.018Z</time></trkpt><trkpt lat="37.7146928" lon="13.4283333"><ele>785.0</ele><time>2026-04-18T07:42:00.018Z</time></trkpt><trkpt lat="37.7145573" lon="13.4283287"><ele>785.0</ele><time>2026-04-18T07:42:01.019Z</time></trkpt><trkpt lat="37.7144006" lon="13.4283498"><ele>784.3333333333334</ele><time>2026-04-18T07:42:02.019Z</time></trkpt><trkpt lat="37.7142185" lon="13.4284161"><ele>783.6666666666667</ele><time>2026-04-18T07:42:03.018Z</time></trkpt><trkpt lat="37.7140384" lon="13.4284949"><ele>783.0</ele><time>2026-04-18T07:42:04.019Z</time></trkpt><trkpt lat="37.7138744" lon="13.4285682"><ele>783.0</ele><time>2026-04-18T07:42:05.019Z</time></trkpt><trkpt lat="37.7137178" lon="13.428625"><ele>783.0</ele><time>2026-04-18T07:42:06.018Z</time></trkpt><trkpt lat="37.7135781" lon="13.428727"><ele>783.0</ele><time>2026-04-18T07:42:07.018Z</time></trkpt><trkpt lat="37.7134691" lon="13.4288933"><ele>784.0</ele><time>2026-04-18T07:42:08.019Z</time></trkpt><trkpt lat="37.7134006" lon="13.4291037"><ele>785.0</ele><time>2026-04-18T07:42:09.018Z</time></trkpt><trkpt lat="37.7133558" lon="13.4293267"><ele>786.0</ele><time>2026-04-18T07:42:10.019Z</time></trkpt><trkpt lat="37.7133561" lon="13.4295578"><ele>786.3333333333333</ele><time>2026-04-18T07:42:11.019Z</time></trkpt><trkpt lat="37.7133918" lon="13.4297915"><ele>786.6666666666666</ele><time>2026-04-18T07:42:12.019Z</time></trkpt><trkpt lat="37.7133999" lon="13.4300465"><ele>787.0</ele><time>2026-04-18T07:42:13.019Z</time></trkpt><trkpt lat="37.7134138" lon="13.4303247"><ele>789.0</ele><time>2026-04-18T07:42:14.018Z</time></trkpt><trkpt lat="37.7133578" lon="13.4306389"><ele>791.0</ele><time>2026-04-18T07:42:15.019Z</time></trkpt><trkpt lat="37.713316" lon="13.4309694"><ele>791.0</ele><time>2026-04-18T07:42:16.019Z</time></trkpt><trkpt lat="37.7132863" lon="13.4312641"><ele>791.0</ele><time>2026-04-18T07:42:17.019Z</time></trkpt><trkpt lat="37.7132501" lon="13.431536"><ele>792.3333333333334</ele><time>2026-04-18T07:42:18.019Z</time></trkpt><trkpt lat="37.713164" lon="13.4318013"><ele>793.6666666666667</ele><time>2026-04-18T07:42:19.018Z</time></trkpt><trkpt lat="37.71307" lon="13.4320326"><ele>795.0</ele><time>2026-04-18T07:42:20.019Z</time></trkpt><trkpt lat="37.713005" lon="13.4322464"><ele>797.0</ele><time>2026-04-18T07:42:21.018Z</time></trkpt><trkpt lat="37.7129796" lon="13.4324865"><ele>799.0</ele><time>2026-04-18T07:42:22.019Z</time></trkpt><trkpt lat="37.713001" lon="13.4327556"><ele>801.0</ele><time>2026-04-18T07:42:23.019Z</time></trkpt><trkpt lat="37.7130416" lon="13.4330393"><ele>801.5</ele><time>2026-04-18T07:42:24.018Z</time></trkpt><trkpt lat="37.7130722" lon="13.4333363"><ele>802.0</ele><time>2026-04-18T07:42:25.019Z</time></trkpt><trkpt lat="37.7130737" lon="13.4336506"><ele>803.0</ele><time>2026-04-18T07:42:26.019Z</time></trkpt><trkpt lat="37.7130618" lon="13.4339834"><ele>804.0</ele><time>2026-04-18T07:42:27.019Z</time></trkpt><trkpt lat="37.7130598" lon="13.4343141"><ele>804.0</ele><time>2026-04-18T07:42:28.019Z</time></trkpt><trkpt lat="37.7130537" lon="13.4346224"><ele>804.0</ele><time>2026-04-18T07:42:29.019Z</time></trkpt><trkpt lat="37.7130437" lon="13.4349218"><ele>805.0</ele><time>2026-04-18T07:42:30.019Z</time></trkpt><trkpt lat="37.7130344" lon="13.4351948"><ele>806.0</ele><time>2026-04-18T07:42:31.018Z</time></trkpt><trkpt lat="37.7130252" lon="13.4354573"><ele>807.0</ele><time>2026-04-18T07:42:32.019Z</time></trkpt><trkpt lat="37.7129992" lon="13.4357183"><ele>807.3333333333333</ele><time>2026-04-18T07:42:33.019Z</time></trkpt><trkpt lat="37.7129546" lon="13.4359853"><ele>807.6666666666666</ele><time>2026-04-18T07:42:34.019Z</time></trkpt><trkpt lat="37.7129009" lon="13.4362511"><ele>808.0</ele><time>2026-04-18T07:42:35.019Z</time></trkpt><trkpt lat="37.7128535" lon="13.4365222"><ele>810.5</ele><time>2026-04-18T07:42:36.019Z</time></trkpt><trkpt lat="37.7128298" lon="13.4368034"><ele>813.0</ele><time>2026-04-18T07:42:37.019Z</time></trkpt><trkpt lat="37.7128423" lon="13.437096"><ele>813.6666666666667</ele><time>2026-04-18T07:42:38.018Z</time></trkpt><trkpt lat="37.7128857" lon="13.437358"><ele>814.3333333333334</ele><time>2026-04-18T07:42:39.018Z</time></trkpt><trkpt lat="37.712946" lon="13.4375895"><ele>815.0</ele><time>2026-04-18T07:42:40.019Z</time></trkpt><trkpt lat="37.7130048" lon="13.4378041"><ele>814.0</ele><time>2026-04-18T07:42:41.019Z</time></trkpt><trkpt lat="37.7130561" lon="13.4380097"><ele>813.0</ele><time>2026-04-18T07:42:42.019Z</time></trkpt><trkpt lat="37.7131004" lon="13.4381907"><ele>812.0</ele><time>2026-04-18T07:42:43.018Z</time></trkpt><trkpt lat="37.7131435" lon="13.4383451"><ele>812.0000000000001</ele><time>2026-04-18T07:42:44.019Z</time></trkpt><trkpt lat="37.713177" lon="13.4384731"><ele>812.0</ele><time>2026-04-18T07:42:45.019Z</time></trkpt><trkpt lat="37.7131928" lon="13.4385796"><ele>812.0</ele><time>2026-04-18T07:42:46.019Z</time></trkpt><trkpt lat="37.713177" lon="13.4386639"><ele>812.0</ele><time>2026-04-18T07:42:47.019Z</time></trkpt><trkpt lat="37.7131239" lon="13.4387238"><ele>812.0000000000001</ele><time>2026-04-18T07:42:48.019Z</time></trkpt><trkpt lat="37.7130376" lon="13.4387386"><ele>812.0</ele><time>2026-04-18T07:42:49.019Z</time></trkpt><trkpt lat="37.7129345" lon="13.4387101"><ele>812.0</ele><time>2026-04-18T07:42:50.019Z</time></trkpt><trkpt lat="37.7128066" lon="13.4386458"><ele>812.0</ele><time>2026-04-18T07:42:51.019Z</time></trkpt><trkpt lat="37.7126631" lon="13.4386132"><ele>812.0</ele><time>2026-04-18T07:42:52.018Z</time></trkpt><trkpt lat="37.7125226" lon="13.4386448"><ele>812.0</ele><time>2026-04-18T07:42:53.019Z</time></trkpt><trkpt lat="37.7123796" lon="13.4387455"><ele>810.0</ele><time>2026-04-18T07:42:54.019Z</time></trkpt><trkpt lat="37.712242" lon="13.4388976"><ele>808.0</ele><time>2026-04-18T07:42:55.019Z</time></trkpt><trkpt lat="37.7121204" lon="13.4390498"><ele>806.0</ele><time>2026-04-18T07:42:56.019Z</time></trkpt><trkpt lat="37.7120085" lon="13.4391662"><ele>804.0</ele><time>2026-04-18T07:42:57.019Z</time></trkpt><trkpt lat="37.711881" lon="13.4392449"><ele>802.0</ele><time>2026-04-18T07:42:58.019Z</time></trkpt><trkpt lat="37.7117259" lon="13.4392549"><ele>800.0</ele><time>2026-04-18T07:42:59.019Z</time></trkpt><trkpt lat="37.7115434" lon="13.439227"><ele>800.0</ele><time>2026-04-18T07:43:00.019Z</time></trkpt><trkpt lat="37.7113332" lon="13.439177"><ele>800.0</ele><time>2026-04-18T07:43:01.019Z</time></trkpt><trkpt lat="37.7110934" lon="13.4391175"><ele>798.0</ele><time>2026-04-18T07:43:02.019Z</time></trkpt><trkpt lat="37.7108482" lon="13.4390654"><ele>796.0</ele><time>2026-04-18T07:43:03.019Z</time></trkpt><trkpt lat="37.710611" lon="13.4390186"><ele>796.0</ele><time>2026-04-18T07:43:04.019Z</time></trkpt><trkpt lat="37.7103959" lon="13.4389698"><ele>796.0</ele><time>2026-04-18T07:43:05.018Z</time></trkpt><trkpt lat="37.7102073" lon="13.4389296"><ele>796.0</ele><time>2026-04-18T07:43:06.019Z</time></trkpt><trkpt lat="37.7100571" lon="13.4388905"><ele>794.75</ele><time>2026-04-18T07:43:07.019Z</time></trkpt><trkpt lat="37.7099394" lon="13.4388296"><ele>793.5</ele><time>2026-04-18T07:43:08.019Z</time></trkpt><trkpt lat="37.7098435" lon="13.4387387"><ele>792.25</ele><time>2026-04-18T07:43:09.019Z</time></trkpt><trkpt lat="37.7097738" lon="13.4385983"><ele>791.0</ele><time>2026-04-18T07:43:10.019Z</time></trkpt><trkpt lat="37.7097228" lon="13.4384011"><ele>789.6666666666667</ele><time>2026-04-18T07:43:11.018Z</time></trkpt><trkpt lat="37.7097079" lon="13.4381629"><ele>788.3333333333333</ele><time>2026-04-18T07:43:12.019Z</time></trkpt><trkpt lat="37.7096932" lon="13.4378942"><ele>787.0</ele><time>2026-04-18T07:43:13.019Z</time></trkpt><trkpt lat="37.7096701" lon="13.437608"><ele>786.0</ele><time>2026-04-18T07:43:14.019Z</time></trkpt><trkpt lat="37.709643" lon="13.4373254"><ele>785.0</ele><time>2026-04-18T07:43:15.019Z</time></trkpt><trkpt lat="37.709626" lon="13.4370623"><ele>784.0</ele><time>2026-04-18T07:43:16.019Z</time></trkpt><trkpt lat="37.7096035" lon="13.4368306"><ele>782.25</ele><time>2026-04-18T07:43:17.019Z</time></trkpt><trkpt lat="37.7095922" lon="13.4366376"><ele>780.5</ele><time>2026-04-18T07:43:18.019Z</time></trkpt><trkpt lat="37.7096163" lon="13.4364831"><ele>778.75</ele><time>2026-04-18T07:43:19.019Z</time></trkpt><trkpt lat="37.7096751" lon="13.436336"><ele>777.0</ele><time>2026-04-18T07:43:20.019Z</time></trkpt><trkpt lat="37.7097783" lon="13.4361972"><ele>775.75</ele><time>2026-04-18T07:43:21.018Z</time></trkpt><trkpt lat="37.7099066" lon="13.4360975"><ele>774.5</ele><time>2026-04-18T07:43:22.018Z</time></trkpt><trkpt lat="37.710046" lon="13.4360667"><ele>773.25</ele><time>2026-04-18T07:43:23.019Z</time></trkpt><trkpt lat="37.7102024" lon="13.4360761"><ele>772.0</ele><time>2026-04-18T07:43:24.019Z</time></trkpt><trkpt lat="37.7103655" lon="13.4360983"><ele>772.0</ele><time>2026-04-18T07:43:25.019Z</time></trkpt><trkpt lat="37.7105084" lon="13.4361064"><ele>772.0</ele><time>2026-04-18T07:43:26.018Z</time></trkpt><trkpt lat="37.7106203" lon="13.4360907"><ele>772.0</ele><time>2026-04-18T07:43:27.019Z</time></trkpt><trkpt lat="37.710711" lon="13.4360317"><ele>772.0</ele><time>2026-04-18T07:43:28.019Z</time></trkpt><trkpt lat="37.710765" lon="13.4359316"><ele>772.0</ele><time>2026-04-18T07:43:29.019Z</time></trkpt><trkpt lat="37.7107759" lon="13.4358123"><ele>772.0</ele><time>2026-04-18T07:43:30.018Z</time></trkpt><trkpt lat="37.7107188" lon="13.4356683"><ele>772.0</ele><time>2026-04-18T07:43:31.018Z</time></trkpt><trkpt lat="37.7106308" lon="13.4354823"><ele>772.0</ele><time>2026-04-18T07:43:32.018Z</time></trkpt><trkpt lat="37.7105238" lon="13.435285"><ele>771.6666666666666</ele><time>2026-04-18T07:43:33.019Z</time></trkpt><trkpt lat="37.7104413" lon="13.4350684"><ele>771.3333333333333</ele><time>2026-04-18T07:43:34.018Z</time></trkpt><trkpt lat="37.7104022" lon="13.4348322"><ele>771.0</ele><time>2026-04-18T07:43:35.019Z</time></trkpt><trkpt lat="37.7103959" lon="13.4345584"><ele>770.3333333333333</ele><time>2026-04-18T07:43:36.018Z</time></trkpt><trkpt lat="37.7103857" lon="13.4342645"><ele>769.6666666666666</ele><time>2026-04-18T07:43:37.018Z</time></trkpt><trkpt lat="37.7103835" lon="13.433993"><ele>769.0</ele><time>2026-04-18T07:43:38.019Z</time></trkpt><trkpt lat="37.7103803" lon="13.4337522"><ele>769.0</ele><time>2026-04-18T07:43:39.019Z</time></trkpt><trkpt lat="37.7103543" lon="13.4335325"><ele>769.0</ele><time>2026-04-18T07:43:40.018Z</time></trkpt><trkpt lat="37.7102811" lon="13.433301"><ele>769.0</ele><time>2026-04-18T07:43:41.019Z</time></trkpt><trkpt lat="37.7101706" lon="13.4330404"><ele>762.5</ele><time>2026-04-18T07:43:42.019Z</time></trkpt><trkpt lat="37.7100683" lon="13.4327651"><ele>756.0</ele><time>2026-04-18T07:43:43.019Z</time></trkpt><trkpt lat="37.7099832" lon="13.4324887"><ele>756.0</ele><time>2026-04-18T07:43:44.019Z</time></trkpt><trkpt lat="37.7099164" lon="13.4322202"><ele>756.0</ele><time>2026-04-18T07:43:45.019Z</time></trkpt><trkpt lat="37.7098323" lon="13.4319809"><ele>756.0</ele><time>2026-04-18T07:43:46.019Z</time></trkpt><trkpt lat="37.7097286" lon="13.4317832"><ele>757.0</ele><time>2026-04-18T07:43:47.018Z</time></trkpt><trkpt lat="37.7096331" lon="13.4315991"><ele>758.0</ele><time>2026-04-18T07:43:48.019Z</time></trkpt><trkpt lat="37.7095686" lon="13.4314071"><ele>759.0</ele><time>2026-04-18T07:43:49.019Z</time></trkpt><trkpt lat="37.709537" lon="13.4311725"><ele>756.0</ele><time>2026-04-18T07:43:50.019Z</time></trkpt><trkpt lat="37.7095014" lon="13.4309073"><ele>753.0</ele><time>2026-04-18T07:43:51.019Z</time></trkpt><trkpt lat="37.7094468" lon="13.4306149"><ele>743.5</ele><time>2026-04-18T07:43:52.018Z</time></trkpt><trkpt lat="37.7093988" lon="13.4303145"><ele>734.0</ele><time>2026-04-18T07:43:53.019Z</time></trkpt><trkpt lat="37.7093701" lon="13.4300286"><ele>734.0</ele><time>2026-04-18T07:43:54.019Z</time></trkpt><trkpt lat="37.7093564" lon="13.4297697"><ele>734.0</ele><time>2026-04-18T07:43:55.019Z</time></trkpt><trkpt lat="37.7093476" lon="13.4295433"><ele>734.0</ele><time>2026-04-18T07:43:56.019Z</time></trkpt><trkpt lat="37.7093403" lon="13.4293584"><ele>733.5</ele><time>2026-04-18T07:43:57.019Z</time></trkpt><trkpt lat="37.7093563" lon="13.4291994"><ele>733.0</ele><time>2026-04-18T07:43:58.019Z</time></trkpt><trkpt lat="37.7094264" lon="13.4290538"><ele>732.5</ele><time>2026-04-18T07:43:59.019Z</time></trkpt><trkpt lat="37.7095384" lon="13.4289359"><ele>732.0</ele><time>2026-04-18T07:44:00.019Z</time></trkpt><trkpt lat="37.7096909" lon="13.4288412"><ele>732.3333333333334</ele><time>2026-04-18T07:44:01.019Z</time></trkpt><trkpt lat="37.7098509" lon="13.4287676"><ele>732.6666666666667</ele><time>2026-04-18T07:44:02.019Z</time></trkpt><trkpt lat="37.7099839" lon="13.4286769"><ele>733.0</ele><time>2026-04-18T07:44:03.019Z</time></trkpt><trkpt lat="37.710085" lon="13.4285358"><ele>733.0</ele><time>2026-04-18T07:44:04.019Z</time></trkpt><trkpt lat="37.710153" lon="13.4283277"><ele>733.0</ele><time>2026-04-18T07:44:05.019Z</time></trkpt><trkpt lat="37.7101914" lon="13.4280807"><ele>733.0</ele><time>2026-04-18T07:44:06.019Z</time></trkpt><trkpt lat="37.7102283" lon="13.4277855"><ele>734.0</ele><time>2026-04-18T07:44:07.019Z</time></trkpt><trkpt lat="37.710272" lon="13.4274496"><ele>735.0</ele><time>2026-04-18T07:44:08.019Z</time></trkpt><trkpt lat="37.7103236" lon="13.4271005"><ele>735.0</ele><time>2026-04-18T07:44:09.019Z</time></trkpt><trkpt lat="37.7103684" lon="13.4267466"><ele>735.0</ele><time>2026-04-18T07:44:10.019Z</time></trkpt><trkpt lat="37.7104142" lon="13.4264162"><ele>734.0</ele><time>2026-04-18T07:44:11.018Z</time></trkpt><trkpt lat="37.7104546" lon="13.4261141"><ele>733.0</ele><time>2026-04-18T07:44:12.018Z</time></trkpt><trkpt lat="37.7104932" lon="13.4258421"><ele>733.0</ele><time>2026-04-18T07:44:13.018Z</time></trkpt><trkpt lat="37.7105165" lon="13.4255817"><ele>733.0</ele><time>2026-04-18T07:44:14.019Z</time></trkpt><trkpt lat="37.7104826" lon="13.4253177"><ele>733.0</ele><time>2026-04-18T07:44:15.019Z</time></trkpt><trkpt lat="37.7104309" lon="13.4250743"><ele>733.0</ele><time>2026-04-18T07:44:16.019Z</time></trkpt><trkpt lat="37.7103902" lon="13.4248489"><ele>733.0</ele><time>2026-04-18T07:44:17.019Z</time></trkpt><trkpt lat="37.7103923" lon="13.4246632"><ele>733.0</ele><time>2026-04-18T07:44:18.019Z</time></trkpt><trkpt lat="37.7104235" lon="13.4244985"><ele>726.3333333333334</ele><time>2026-04-18T07:44:19.019Z</time></trkpt><trkpt lat="37.7104781" lon="13.4243319"><ele>719.6666666666666</ele><time>2026-04-18T07:44:20.019Z</time></trkpt><trkpt lat="37.710601" lon="13.4241939"><ele>713.0</ele><time>2026-04-18T07:44:21.019Z</time></trkpt><trkpt lat="37.7107636" lon="13.4241226"><ele>713.0</ele><time>2026-04-18T07:44:22.018Z</time></trkpt><trkpt lat="37.7109366" lon="13.4240706"><ele>713.0</ele><time>2026-04-18T07:44:23.019Z</time></trkpt><trkpt lat="37.7111274" lon="13.4240069"><ele>713.0</ele><time>2026-04-18T07:44:24.019Z</time></trkpt><trkpt lat="37.7113208" lon="13.4238971"><ele>706.3333333333333</ele><time>2026-04-18T07:44:25.019Z</time></trkpt><trkpt lat="37.7115" lon="13.4237778"><ele>699.6666666666666</ele><time>2026-04-18T07:44:26.019Z</time></trkpt><trkpt lat="37.7116746" lon="13.4236949"><ele>693.0</ele><time>2026-04-18T07:44:27.018Z</time></trkpt><trkpt lat="37.7118462" lon="13.4236513"><ele>695.3333333333334</ele><time>2026-04-18T07:44:28.018Z</time></trkpt><trkpt lat="37.7120312" lon="13.4236516"><ele>697.6666666666667</ele><time>2026-04-18T07:44:29.019Z</time></trkpt><trkpt lat="37.7122247" lon="13.4236676"><ele>700.0</ele><time>2026-04-18T07:44:30.018Z</time></trkpt><trkpt lat="37.7123954" lon="13.4236858"><ele>700.0</ele><time>2026-04-18T07:44:31.018Z</time></trkpt><trkpt lat="37.7125338" lon="13.4236893"><ele>700.0</ele><time>2026-04-18T07:44:32.019Z</time></trkpt><trkpt lat="37.7126293" lon="13.4236619"><ele>700.0</ele><time>2026-04-18T07:44:33.018Z</time></trkpt><trkpt lat="37.7127218" lon="13.4235736"><ele>700.0</ele><time>2026-04-18T07:44:34.019Z</time></trkpt><trkpt lat="37.7127956" lon="13.4234202"><ele>702.3333333333334</ele><time>2026-04-18T07:44:35.018Z</time></trkpt><trkpt lat="37.7128469" lon="13.4232093"><ele>704.6666666666666</ele><time>2026-04-18T07:44:36.019Z</time></trkpt><trkpt lat="37.7128893" lon="13.4229694"><ele>707.0</ele><time>2026-04-18T07:44:37.018Z</time></trkpt><trkpt lat="37.7129256" lon="13.4227367"><ele>707.0</ele><time>2026-04-18T07:44:38.019Z</time></trkpt><trkpt lat="37.7129371" lon="13.4225253"><ele>707.0</ele><time>2026-04-18T07:44:39.019Z</time></trkpt><trkpt lat="37.712912" lon="13.4223123"><ele>707.0</ele><time>2026-04-18T07:44:40.019Z</time></trkpt><trkpt lat="37.7128334" lon="13.4221078"><ele>701.0</ele><time>2026-04-18T07:44:41.019Z</time></trkpt><trkpt lat="37.7127345" lon="13.4219132"><ele>695.0</ele><time>2026-04-18T07:44:42.018Z</time></trkpt><trkpt lat="37.7126578" lon="13.4217282"><ele>689.0</ele><time>2026-04-18T07:44:43.019Z</time></trkpt><trkpt lat="37.7126302" lon="13.421532"><ele>687.0</ele><time>2026-04-18T07:44:44.019Z</time></trkpt><trkpt lat="37.7126461" lon="13.4213112"><ele>685.0</ele><time>2026-04-18T07:44:45.019Z</time></trkpt><trkpt lat="37.712695" lon="13.4210559"><ele>683.0</ele><time>2026-04-18T07:44:46.018Z</time></trkpt><trkpt lat="37.712744" lon="13.4207877"><ele>682.3333333333333</ele><time>2026-04-18T07:44:47.018Z</time></trkpt><trkpt lat="37.7127713" lon="13.4205447"><ele>681.6666666666666</ele><time>2026-04-18T07:44:48.019Z</time></trkpt><trkpt lat="37.7127643" lon="13.4203331"><ele>681.0</ele><time>2026-04-18T07:44:49.019Z</time></trkpt><trkpt lat="37.7127137" lon="13.4201466"><ele>681.0</ele><time>2026-04-18T07:44:50.018Z</time></trkpt><trkpt lat="37.7126135" lon="13.4199629"><ele>681.0</ele><time>2026-04-18T07:44:51.018Z</time></trkpt><trkpt lat="37.7124777" lon="13.419785"><ele>681.0</ele><time>2026-04-18T07:44:52.018Z</time></trkpt><trkpt lat="37.7123512" lon="13.4196115"><ele>681.3333333333334</ele><time>2026-04-18T07:44:53.019Z</time></trkpt><trkpt lat="37.7122564" lon="13.419438"><ele>681.6666666666667</ele><time>2026-04-18T07:44:54.018Z</time></trkpt><trkpt lat="37.7122013" lon="13.4192489"><ele>682.0</ele><time>2026-04-18T07:44:55.018Z</time></trkpt><trkpt lat="37.7121847" lon="13.4190394"><ele>680.6666666666667</ele><time>2026-04-18T07:44:56.019Z</time></trkpt><trkpt lat="37.7122181" lon="13.4188027"><ele>679.3333333333334</ele><time>2026-04-18T07:44:57.018Z</time></trkpt><trkpt lat="37.7122818" lon="13.418524"><ele>678.0</ele><time>2026-04-18T07:44:58.018Z</time></trkpt><trkpt lat="37.712359" lon="13.4182024"><ele>674.0</ele><time>2026-04-18T07:44:59.019Z</time></trkpt><trkpt lat="37.7124398" lon="13.4178659"><ele>670.0</ele><time>2026-04-18T07:45:00.018Z</time></trkpt><trkpt lat="37.7125154" lon="13.4175513"><ele>670.0</ele><time>2026-04-18T07:45:01.019Z</time></trkpt><trkpt lat="37.7125727" lon="13.4172515"><ele>670.0</ele><time>2026-04-18T07:45:02.019Z</time></trkpt><trkpt lat="37.7125912" lon="13.4169373"><ele>667.0</ele><time>2026-04-18T07:45:03.018Z</time></trkpt><trkpt lat="37.712568" lon="13.4165794"><ele>664.0</ele><time>2026-04-18T07:45:04.019Z</time></trkpt><trkpt lat="37.7125264" lon="13.4162081"><ele>663.5</ele><time>2026-04-18T07:45:05.019Z</time></trkpt><trkpt lat="37.7124879" lon="13.4158231"><ele>663.0</ele><time>2026-04-18T07:45:06.018Z</time></trkpt><trkpt lat="37.7124528" lon="13.4154545"><ele>662.0</ele><time>2026-04-18T07:45:07.018Z</time></trkpt><trkpt lat="37.7124203" lon="13.4151111"><ele>661.0</ele><time>2026-04-18T07:45:08.019Z</time></trkpt><trkpt lat="37.7123795" lon="13.4147783"><ele>662.5</ele><time>2026-04-18T07:45:09.019Z</time></trkpt><trkpt lat="37.712346" lon="13.4144717"><ele>664.0</ele><time>2026-04-18T07:45:10.018Z</time></trkpt><trkpt lat="37.7123263" lon="13.414204"><ele>664.0</ele><time>2026-04-18T07:45:11.018Z</time></trkpt><trkpt lat="37.7123103" lon="13.4139916"><ele>664.0</ele><time>2026-04-18T07:45:12.019Z</time></trkpt><trkpt lat="37.7122975" lon="13.4138064"><ele>664.0</ele><time>2026-04-18T07:45:13.019Z</time></trkpt><trkpt lat="37.7122669" lon="13.413655"><ele>664.0</ele><time>2026-04-18T07:45:14.019Z</time></trkpt><trkpt lat="37.7122118" lon="13.4135411"><ele>664.0</ele><time>2026-04-18T07:45:15.018Z</time></trkpt><trkpt lat="37.7121209" lon="13.413475"><ele>664.0</ele><time>2026-04-18T07:45:16.018Z</time></trkpt><trkpt lat="37.7120168" lon="13.4134826"><ele>664.0</ele><time>2026-04-18T07:45:17.018Z</time></trkpt><trkpt lat="37.7119248" lon="13.4135719"><ele>664.0</ele><time>2026-04-18T07:45:18.018Z</time></trkpt><trkpt lat="37.7118805" lon="13.4137197"><ele>657.3333333333334</ele><time>2026-04-18T07:45:19.018Z</time></trkpt><trkpt lat="37.7118614" lon="13.4139207"><ele>650.6666666666666</ele><time>2026-04-18T07:45:20.019Z</time></trkpt><trkpt lat="37.7118872" lon="13.4141537"><ele>644.0</ele><time>2026-04-18T07:45:21.018Z</time></trkpt><trkpt lat="37.7118453" lon="13.4144112"><ele>644.6666666666666</ele><time>2026-04-18T07:45:22.018Z</time></trkpt><trkpt lat="37.7117684" lon="13.4146763"><ele>645.3333333333334</ele><time>2026-04-18T07:45:23.018Z</time></trkpt><trkpt lat="37.7117129" lon="13.41488"><ele>646.0</ele><time>2026-04-18T07:45:24.019Z</time></trkpt><trkpt lat="37.7116453" lon="13.4150413"><ele>646.0</ele><time>2026-04-18T07:45:25.018Z</time></trkpt><trkpt lat="37.7115478" lon="13.4151949"><ele>646.0</ele><time>2026-04-18T07:45:26.019Z</time></trkpt><trkpt lat="37.7114187" lon="13.4153114"><ele>646.0</ele><time>2026-04-18T07:45:27.018Z</time></trkpt><trkpt lat="37.7112628" lon="13.4153716"><ele>643.0</ele><time>2026-04-18T07:45:28.019Z</time></trkpt><trkpt lat="37.7110623" lon="13.4153856"><ele>640.0</ele><time>2026-04-18T07:45:29.018Z</time></trkpt><trkpt lat="37.7108337" lon="13.415398"><ele>637.0</ele><time>2026-04-18T07:45:30.019Z</time></trkpt><trkpt lat="37.7106073" lon="13.4154089"><ele>637.0</ele><time>2026-04-18T07:45:31.019Z</time></trkpt><trkpt lat="37.7104014" lon="13.4154278"><ele>637.0</ele><time>2026-04-18T07:45:32.019Z</time></trkpt><trkpt lat="37.710214" lon="13.4154905"><ele>637.0</ele><time>2026-04-18T07:45:33.018Z</time></trkpt><trkpt lat="37.7100359" lon="13.4155937"><ele>636.0</ele><time>2026-04-18T07:45:34.019Z</time></trkpt><trkpt lat="37.709874" lon="13.4157406"><ele>635.0</ele><time>2026-04-18T07:45:35.019Z</time></trkpt><trkpt lat="37.7097305" lon="13.4159256"><ele>634.0</ele><time>2026-04-18T07:45:36.019Z</time></trkpt><trkpt lat="37.709615" lon="13.4161386"><ele>635.0</ele><time>2026-04-18T07:45:37.019Z</time></trkpt><trkpt lat="37.7095283" lon="13.4163897"><ele>636.0</ele><time>2026-04-18T07:45:38.019Z</time></trkpt><trkpt lat="37.709467" lon="13.4166806"><ele>636.0</ele><time>2026-04-18T07:45:39.019Z</time></trkpt><trkpt lat="37.7094177" lon="13.4170226"><ele>636.0</ele><time>2026-04-18T07:45:40.019Z</time></trkpt><trkpt lat="37.7093661" lon="13.4173494"><ele>628.0</ele><time>2026-04-18T07:45:41.018Z</time></trkpt><trkpt lat="37.7093222" lon="13.4176509"><ele>620.0</ele><time>2026-04-18T07:45:42.019Z</time></trkpt><trkpt lat="37.7092789" lon="13.4179071"><ele>621.0</ele><time>2026-04-18T07:45:43.019Z</time></trkpt><trkpt lat="37.7092363" lon="13.4181272"><ele>622.0</ele><time>2026-04-18T07:45:44.019Z</time></trkpt><trkpt lat="37.7091716" lon="13.4183398"><ele>623.0</ele><time>2026-04-18T07:45:45.019Z</time></trkpt><trkpt lat="37.709064" lon="13.4185034"><ele>623.0</ele><time>2026-04-18T07:45:46.019Z</time></trkpt><trkpt lat="37.7089089" lon="13.4186336"><ele>623.0</ele><time>2026-04-18T07:45:47.019Z</time></trkpt><trkpt lat="37.7087123" lon="13.418743"><ele>623.0</ele><time>2026-04-18T07:45:48.019Z</time></trkpt><trkpt lat="37.708486" lon="13.4188556"><ele>619.5</ele><time>2026-04-18T07:45:49.018Z</time></trkpt><trkpt lat="37.7082444" lon="13.4189722"><ele>616.0</ele><time>2026-04-18T07:45:50.018Z</time></trkpt><trkpt lat="37.7080205" lon="13.4190961"><ele>616.0</ele><time>2026-04-18T07:45:51.018Z</time></trkpt><trkpt lat="37.7078211" lon="13.4192061"><ele>616.0</ele><time>2026-04-18T07:45:52.019Z</time></trkpt><trkpt lat="37.7076457" lon="13.4193003"><ele>616.0</ele><time>2026-04-18T07:45:53.019Z</time></trkpt><trkpt lat="37.7075029" lon="13.4193636"><ele>614.25</ele><time>2026-04-18T07:45:54.019Z</time></trkpt><trkpt lat="37.7073927" lon="13.4193825"><ele>612.5</ele><time>2026-04-18T07:45:55.019Z</time></trkpt><trkpt lat="37.7072797" lon="13.4193383"><ele>610.75</ele><time>2026-04-18T07:45:56.018Z</time></trkpt><trkpt lat="37.707183" lon="13.4192439"><ele>609.0</ele><time>2026-04-18T07:45:57.019Z</time></trkpt><trkpt lat="37.7071056" lon="13.419107"><ele>609.0</ele><time>2026-04-18T07:45:58.019Z</time></trkpt><trkpt lat="37.7070444" lon="13.4189394"><ele>609.0</ele><time>2026-04-18T07:45:59.019Z</time></trkpt><trkpt lat="37.70699" lon="13.4187576"><ele>609.0</ele><time>2026-04-18T07:46:00.019Z</time></trkpt><trkpt lat="37.70695" lon="13.4185749"><ele>607.3333333333334</ele><time>2026-04-18T07:46:01.019Z</time></trkpt><trkpt lat="37.7069033" lon="13.4184069"><ele>605.6666666666667</ele><time>2026-04-18T07:46:02.018Z</time></trkpt><trkpt lat="37.7068072" lon="13.4182334"><ele>604.0</ele><time>2026-04-18T07:46:03.018Z</time></trkpt><trkpt lat="37.7066622" lon="13.4180385"><ele>600.5</ele><time>2026-04-18T07:46:04.019Z</time></trkpt><trkpt lat="37.7064984" lon="13.417803"><ele>597.0</ele><time>2026-04-18T07:46:05.018Z</time></trkpt><trkpt lat="37.7063435" lon="13.4175369"><ele>597.0</ele><time>2026-04-18T07:46:06.019Z</time></trkpt><trkpt lat="37.7062015" lon="13.4172778"><ele>597.0</ele><time>2026-04-18T07:46:07.018Z</time></trkpt><trkpt lat="37.7060854" lon="13.4170447"><ele>595.5</ele><time>2026-04-18T07:46:08.018Z</time></trkpt><trkpt lat="37.705994" lon="13.4168516"><ele>594.0</ele><time>2026-04-18T07:46:09.018Z</time></trkpt><trkpt lat="37.7059082" lon="13.4167064"><ele>592.5</ele><time>2026-04-18T07:46:10.018Z</time></trkpt><trkpt lat="37.7058065" lon="13.4166112"><ele>591.0</ele><time>2026-04-18T07:46:11.019Z</time></trkpt><trkpt lat="37.7056699" lon="13.4165625"><ele>591.0</ele><time>2026-04-18T07:46:12.018Z</time></trkpt><trkpt lat="37.705502" lon="13.4165801"><ele>591.0</ele><time>2026-04-18T07:46:13.019Z</time></trkpt><trkpt lat="37.7053228" lon="13.4166747"><ele>591.0</ele><time>2026-04-18T07:46:14.019Z</time></trkpt><trkpt lat="37.7051623" lon="13.4167763"><ele>590.0</ele><time>2026-04-18T07:46:15.018Z</time></trkpt><trkpt lat="37.7050356" lon="13.4168305"><ele>589.0</ele><time>2026-04-18T07:46:16.018Z</time></trkpt><trkpt lat="37.7049407" lon="13.4168167"><ele>588.0</ele><time>2026-04-18T07:46:17.018Z</time></trkpt><trkpt lat="37.7048455" lon="13.4167513"><ele>587.0</ele><time>2026-04-18T07:46:18.019Z</time></trkpt><trkpt lat="37.7047547" lon="13.4165921"><ele>587.0</ele><time>2026-04-18T07:46:19.018Z</time></trkpt><trkpt lat="37.7046583" lon="13.4163596"><ele>587.0</ele><time>2026-04-18T07:46:20.018Z</time></trkpt><trkpt lat="37.704559" lon="13.4160979"><ele>587.0</ele><time>2026-04-18T07:46:21.018Z</time></trkpt><trkpt lat="37.7044541" lon="13.415842"><ele>587.5</ele><time>2026-04-18T07:46:22.019Z</time></trkpt><trkpt lat="37.7043704" lon="13.4155856"><ele>588.0</ele><time>2026-04-18T07:46:23.019Z</time></trkpt><trkpt lat="37.704302" lon="13.4152951"><ele>588.0</ele><time>2026-04-18T07:46:24.018Z</time></trkpt><trkpt lat="37.7042279" lon="13.4150137"><ele>588.0</ele><time>2026-04-18T07:46:25.019Z</time></trkpt><trkpt lat="37.7041642" lon="13.4147508"><ele>586.0</ele><time>2026-04-18T07:46:26.019Z</time></trkpt><trkpt lat="37.7041163" lon="13.414461"><ele>584.0</ele><time>2026-04-18T07:46:27.019Z</time></trkpt><trkpt lat="37.7040574" lon="13.4141203"><ele>583.0</ele><time>2026-04-18T07:46:28.019Z</time></trkpt><trkpt lat="37.7039708" lon="13.4137774"><ele>582.0</ele><time>2026-04-18T07:46:29.018Z</time></trkpt><trkpt lat="37.7038767" lon="13.4134296"><ele>582.0</ele><time>2026-04-18T07:46:30.019Z</time></trkpt><trkpt lat="37.7037771" lon="13.4130966"><ele>582.0</ele><time>2026-04-18T07:46:31.018Z</time></trkpt><trkpt lat="37.7037018" lon="13.4127698"><ele>580.5</ele><time>2026-04-18T07:46:32.018Z</time></trkpt><trkpt lat="37.7036507" lon="13.4124662"><ele>579.0</ele><time>2026-04-18T07:46:33.019Z</time></trkpt><trkpt lat="37.703611" lon="13.412202"><ele>579.0</ele><time>2026-04-18T07:46:34.019Z</time></trkpt><trkpt lat="37.7035872" lon="13.4119743"><ele>579.0</ele><time>2026-04-18T07:46:35.019Z</time></trkpt><trkpt lat="37.7036057" lon="13.4117659"><ele>579.0</ele><time>2026-04-18T07:46:36.019Z</time></trkpt><trkpt lat="37.7036511" lon="13.4115706"><ele>579.0</ele><time>2026-04-18T07:46:37.019Z</time></trkpt><trkpt lat="37.7036896" lon="13.4113729"><ele>579.0</ele><time>2026-04-18T07:46:38.019Z</time></trkpt><trkpt lat="37.7036905" lon="13.4111391"><ele>579.0</ele><time>2026-04-18T07:46:39.019Z</time></trkpt><trkpt lat="37.7036561" lon="13.410873"><ele>579.0</ele><time>2026-04-18T07:46:40.019Z</time></trkpt><trkpt lat="37.7036169" lon="13.4105809"><ele>579.0</ele><time>2026-04-18T07:46:41.019Z</time></trkpt><trkpt lat="37.7035934" lon="13.4103006"><ele>579.0</ele><time>2026-04-18T07:46:42.019Z</time></trkpt><trkpt lat="37.7035782" lon="13.4100217"><ele>579.0</ele><time>2026-04-18T07:46:43.019Z</time></trkpt><trkpt lat="37.7035867" lon="13.4097397"><ele>579.0</ele><time>2026-04-18T07:46:44.019Z</time></trkpt><trkpt lat="37.703612" lon="13.4094538"><ele>578.6666666666666</ele><time>2026-04-18T07:46:45.019Z</time></trkpt><trkpt lat="37.7036558" lon="13.4091727"><ele>578.3333333333333</ele><time>2026-04-18T07:46:46.019Z</time></trkpt><trkpt lat="37.7037068" lon="13.4089017"><ele>578.0</ele><time>2026-04-18T07:46:47.019Z</time></trkpt><trkpt lat="37.7037802" lon="13.4086347"><ele>579.0</ele><time>2026-04-18T07:46:48.019Z</time></trkpt><trkpt lat="37.7038726" lon="13.4083915"><ele>580.0</ele><time>2026-04-18T07:46:49.019Z</time></trkpt><trkpt lat="37.7039681" lon="13.4081977"><ele>581.0</ele><time>2026-04-18T07:46:50.019Z</time></trkpt><trkpt lat="37.7040509" lon="13.4080328"><ele>580.6666666666666</ele><time>2026-04-18T07:46:51.019Z</time></trkpt><trkpt lat="37.7040999" lon="13.4078372"><ele>580.3333333333334</ele><time>2026-04-18T07:46:52.019Z</time></trkpt><trkpt lat="37.7041114" lon="13.4076035"><ele>580.0</ele><time>2026-04-18T07:46:53.019Z</time></trkpt><trkpt lat="37.7041121" lon="13.4073771"><ele>578.0</ele><time>2026-04-18T07:46:54.019Z</time></trkpt><trkpt lat="37.7040974" lon="13.4071592"><ele>576.0</ele><time>2026-04-18T07:46:55.019Z</time></trkpt><trkpt lat="37.7040288" lon="13.4069467"><ele>574.0</ele><time>2026-04-18T07:46:56.019Z</time></trkpt><trkpt lat="37.7039207" lon="13.4067167"><ele>574.0</ele><time>2026-04-18T07:46:57.019Z</time></trkpt><trkpt lat="37.7038106" lon="13.4064732"><ele>574.0</ele><time>2026-04-18T07:46:58.019Z</time></trkpt><trkpt lat="37.7037178" lon="13.4062526"><ele>574.0</ele><time>2026-04-18T07:46:59.018Z</time></trkpt><trkpt lat="37.7036574" lon="13.4060742"><ele>576.0</ele><time>2026-04-18T07:47:00.019Z</time></trkpt><trkpt lat="37.7035724" lon="13.4059464"><ele>578.0</ele><time>2026-04-18T07:47:01.019Z</time></trkpt><trkpt lat="37.703444" lon="13.4058582"><ele>580.0</ele><time>2026-04-18T07:47:02.019Z</time></trkpt><trkpt lat="37.7032899" lon="13.405807"><ele>582.0</ele><time>2026-04-18T07:47:03.019Z</time></trkpt><trkpt lat="37.7031518" lon="13.4057664"><ele>582.0</ele><time>2026-04-18T07:47:04.019Z</time></trkpt><trkpt lat="37.7030545" lon="13.4056947"><ele>582.0</ele><time>2026-04-18T07:47:05.019Z</time></trkpt><trkpt lat="37.7029898" lon="13.4055879"><ele>582.0</ele><time>2026-04-18T07:47:06.018Z</time></trkpt><trkpt lat="37.7029673" lon="13.4054486"><ele>582.0</ele><time>2026-04-18T07:47:07.019Z</time></trkpt><trkpt lat="37.702989" lon="13.4052967"><ele>581.5</ele><time>2026-04-18T07:47:08.019Z</time></trkpt><trkpt lat="37.7030549" lon="13.4051533"><ele>581.0</ele><time>2026-04-18T07:47:09.019Z</time></trkpt><trkpt lat="37.7031782" lon="13.4050244"><ele>580.5</ele><time>2026-04-18T07:47:10.019Z</time></trkpt><trkpt lat="37.7032843" lon="13.4048888"><ele>580.0</ele><time>2026-04-18T07:47:11.019Z</time></trkpt><trkpt lat="37.7033448" lon="13.4047344"><ele>580.3333333333334</ele><time>2026-04-18T07:47:12.018Z</time></trkpt><trkpt lat="37.7033589" lon="13.4045248"><ele>580.6666666666666</ele><time>2026-04-18T07:47:13.026Z</time></trkpt><trkpt lat="37.7033349" lon="13.4042688"><ele>581.0</ele><time>2026-04-18T07:47:14.026Z</time></trkpt><trkpt lat="37.7032738" lon="13.4039744"><ele>580.3333333333333</ele><time>2026-04-18T07:47:15.025Z</time></trkpt><trkpt lat="37.7032072" lon="13.4036872"><ele>579.6666666666666</ele><time>2026-04-18T07:47:16.025Z</time></trkpt><trkpt lat="37.7031563" lon="13.4034367"><ele>579.0</ele><time>2026-04-18T07:47:17.026Z</time></trkpt><trkpt lat="37.7031383" lon="13.4032212"><ele>579.0</ele><time>2026-04-18T07:47:18.025Z</time></trkpt><trkpt lat="37.7031355" lon="13.4030486"><ele>579.0</ele><time>2026-04-18T07:47:19.026Z</time></trkpt><trkpt lat="37.7030894" lon="13.4028828"><ele>579.0</ele><time>2026-04-18T07:47:20.026Z</time></trkpt><trkpt lat="37.7029876" lon="13.4027199"><ele>579.0</ele><time>2026-04-18T07:47:21.026Z</time></trkpt><trkpt lat="37.7028934" lon="13.4025589"><ele>578.6666666666666</ele><time>2026-04-18T07:47:22.026Z</time></trkpt><trkpt lat="37.7028445" lon="13.4023716"><ele>578.3333333333333</ele><time>2026-04-18T07:47:23.026Z</time></trkpt><trkpt lat="37.7028451" lon="13.4021692"><ele>578.0</ele><time>2026-04-18T07:47:24.026Z</time></trkpt><trkpt lat="37.7028714" lon="13.4019496"><ele>579.3333333333333</ele><time>2026-04-18T07:47:25.025Z</time></trkpt><trkpt lat="37.702898" lon="13.4017221"><ele>580.6666666666666</ele><time>2026-04-18T07:47:26.025Z</time></trkpt><trkpt lat="37.7029138" lon="13.4015149"><ele>582.0</ele><time>2026-04-18T07:47:27.026Z</time></trkpt><trkpt lat="37.7029259" lon="13.4013382"><ele>583.5</ele><time>2026-04-18T07:47:28.025Z</time></trkpt><trkpt lat="37.7029054" lon="13.4011777"><ele>585.0</ele><time>2026-04-18T07:47:29.026Z</time></trkpt><trkpt lat="37.7028376" lon="13.4010339"><ele>586.5</ele><time>2026-04-18T07:47:30.026Z</time></trkpt><trkpt lat="37.7027143" lon="13.4009202"><ele>588.0</ele><time>2026-04-18T07:47:31.026Z</time></trkpt><trkpt lat="37.7025542" lon="13.4008375"><ele>588.0</ele><time>2026-04-18T07:47:32.026Z</time></trkpt><trkpt lat="37.7023744" lon="13.4007622"><ele>588.0</ele><time>2026-04-18T07:47:33.025Z</time></trkpt><trkpt lat="37.7022261" lon="13.4006832"><ele>588.0</ele><time>2026-04-18T07:47:34.026Z</time></trkpt><trkpt lat="37.7021238" lon="13.4005616"><ele>585.6666666666666</ele><time>2026-04-18T07:47:35.026Z</time></trkpt><trkpt lat="37.7020428" lon="13.4003796"><ele>583.3333333333333</ele><time>2026-04-18T07:47:36.026Z</time></trkpt><trkpt lat="37.701978" lon="13.4001365"><ele>581.0</ele><time>2026-04-18T07:47:37.025Z</time></trkpt><trkpt lat="37.7019158" lon="13.3998836"><ele>586.0</ele><time>2026-04-18T07:47:38.026Z</time></trkpt><trkpt lat="37.7018534" lon="13.3996196"><ele>591.0</ele><time>2026-04-18T07:47:39.026Z</time></trkpt><trkpt lat="37.7018222" lon="13.3993351"><ele>596.0</ele><time>2026-04-18T07:47:40.025Z</time></trkpt><trkpt lat="37.7018026" lon="13.3990389"><ele>593.5</ele><time>2026-04-18T07:47:41.025Z</time></trkpt><trkpt lat="37.7017464" lon="13.3987646"><ele>591.0</ele><time>2026-04-18T07:47:42.025Z</time></trkpt><trkpt lat="37.701638" lon="13.3984933"><ele>591.0</ele><time>2026-04-18T07:47:43.025Z</time></trkpt><trkpt lat="37.7015258" lon="13.3982445"><ele>591.0</ele><time>2026-04-18T07:47:44.026Z</time></trkpt><trkpt lat="37.7014312" lon="13.3979893"><ele>589.3333333333334</ele><time>2026-04-18T07:47:45.025Z</time></trkpt><trkpt lat="37.701369" lon="13.3977353"><ele>587.6666666666667</ele><time>2026-04-18T07:47:46.026Z</time></trkpt><trkpt lat="37.701336" lon="13.3974921"><ele>586.0</ele><time>2026-04-18T07:47:47.026Z</time></trkpt><trkpt lat="37.7013309" lon="13.3972567"><ele>585.6666666666667</ele><time>2026-04-18T07:47:48.025Z</time></trkpt><trkpt lat="37.7013142" lon="13.3970275"><ele>585.3333333333334</ele><time>2026-04-18T07:47:49.026Z</time></trkpt><trkpt lat="37.7012766" lon="13.3968052"><ele>585.0</ele><time>2026-04-18T07:47:50.026Z</time></trkpt><trkpt lat="37.7012167" lon="13.3965862"><ele>585.0</ele><time>2026-04-18T07:47:51.026Z</time></trkpt><trkpt lat="37.7011532" lon="13.3963605"><ele>585.0</ele><time>2026-04-18T07:47:52.025Z</time></trkpt><trkpt lat="37.7010991" lon="13.3961561"><ele>585.0</ele><time>2026-04-18T07:47:53.025Z</time></trkpt><trkpt lat="37.7010577" lon="13.3959884"><ele>588.25</ele><time>2026-04-18T07:47:54.025Z</time></trkpt><trkpt lat="37.7009835" lon="13.3958622"><ele>591.5</ele><time>2026-04-18T07:47:55.025Z</time></trkpt><trkpt lat="37.7008686" lon="13.3957788"><ele>594.75</ele><time>2026-04-18T07:47:56.026Z</time></trkpt><trkpt lat="37.7007189" lon="13.3957313"><ele>598.0</ele><time>2026-04-18T07:47:57.026Z</time></trkpt><trkpt lat="37.7005752" lon="13.3956907"><ele>598.0</ele><time>2026-04-18T07:47:58.025Z</time></trkpt><trkpt lat="37.7004667" lon="13.3956126"><ele>598.0</ele><time>2026-04-18T07:47:59.026Z</time></trkpt><trkpt lat="37.7004124" lon="13.395494"><ele>598.0</ele><time>2026-04-18T07:48:00.025Z</time></trkpt><trkpt lat="37.7003595" lon="13.3952976"><ele>598.0</ele><time>2026-04-18T07:48:01.026Z</time></trkpt><trkpt lat="37.7003292" lon="13.3950476"><ele>596.3333333333334</ele><time>2026-04-18T07:48:02.026Z</time></trkpt><trkpt lat="37.7003099" lon="13.3947873"><ele>594.6666666666666</ele><time>2026-04-18T07:48:03.025Z</time></trkpt><trkpt lat="37.7002794" lon="13.3945586"><ele>593.0</ele><time>2026-04-18T07:48:04.026Z</time></trkpt><trkpt lat="37.7002237" lon="13.3943663"><ele>596.6666666666666</ele><time>2026-04-18T07:48:05.025Z</time></trkpt><trkpt lat="37.7001128" lon="13.3941935"><ele>600.3333333333334</ele><time>2026-04-18T07:48:06.026Z</time></trkpt><trkpt lat="37.6999884" lon="13.3940516"><ele>604.0</ele><time>2026-04-18T07:48:07.026Z</time></trkpt><trkpt lat="37.6999207" lon="13.3939238"><ele>602.6666666666667</ele><time>2026-04-18T07:48:08.026Z</time></trkpt><trkpt lat="37.6999054" lon="13.3937563"><ele>601.3333333333334</ele><time>2026-04-18T07:48:09.026Z</time></trkpt><trkpt lat="37.699915" lon="13.393547"><ele>600.0</ele><time>2026-04-18T07:48:10.026Z</time></trkpt><trkpt lat="37.6999003" lon="13.3933438"><ele>600.0</ele><time>2026-04-18T07:48:11.026Z</time></trkpt><trkpt lat="37.6998343" lon="13.3931977"><ele>600.0</ele><time>2026-04-18T07:48:12.025Z</time></trkpt><trkpt lat="37.6997316" lon="13.3930964"><ele>600.0</ele><time>2026-04-18T07:48:13.026Z</time></trkpt><trkpt lat="37.6995936" lon="13.3930228"><ele>600.0</ele><time>2026-04-18T07:48:14.026Z</time></trkpt><trkpt lat="37.6994449" lon="13.3929989"><ele>600.5</ele><time>2026-04-18T07:48:15.026Z</time></trkpt><trkpt lat="37.699312" lon="13.3929778"><ele>601.0</ele><time>2026-04-18T07:48:16.026Z</time></trkpt><trkpt lat="37.6992138" lon="13.3929183"><ele>601.5</ele><time>2026-04-18T07:48:17.025Z</time></trkpt><trkpt lat="37.6991253" lon="13.392793"><ele>602.0</ele><time>2026-04-18T07:48:18.025Z</time></trkpt><trkpt lat="37.6990639" lon="13.3926322"><ele>602.0</ele><time>2026-04-18T07:48:19.026Z</time></trkpt><trkpt lat="37.6990254" lon="13.3924795"><ele>602.0</ele><time>2026-04-18T07:48:20.026Z</time></trkpt><trkpt lat="37.6989961" lon="13.3923169"><ele>602.0</ele><time>2026-04-18T07:48:21.025Z</time></trkpt><trkpt lat="37.698982" lon="13.3921529"><ele>602.0</ele><time>2026-04-18T07:48:22.025Z</time></trkpt><trkpt lat="37.6989766" lon="13.3919935"><ele>599.0</ele><time>2026-04-18T07:48:23.025Z</time></trkpt><trkpt lat="37.6989542" lon="13.3918431"><ele>596.0</ele><time>2026-04-18T07:48:24.026Z</time></trkpt><trkpt lat="37.6988795" lon="13.3916923"><ele>593.0</ele><time>2026-04-18T07:48:25.026Z</time></trkpt><trkpt lat="37.6987511" lon="13.3915469"><ele>590.0</ele><time>2026-04-18T07:48:26.026Z</time></trkpt><trkpt lat="37.6986088" lon="13.3913869"><ele>591.0</ele><time>2026-04-18T07:48:27.025Z</time></trkpt><trkpt lat="37.6984823" lon="13.3912116"><ele>592.0</ele><time>2026-04-18T07:48:28.026Z</time></trkpt><trkpt lat="37.6983639" lon="13.391037"><ele>593.0</ele><time>2026-04-18T07:48:29.026Z</time></trkpt><trkpt lat="37.698248" lon="13.3908831"><ele>593.0</ele><time>2026-04-18T07:48:30.026Z</time></trkpt><trkpt lat="37.6981167" lon="13.3907797"><ele>593.0</ele><time>2026-04-18T07:48:31.026Z</time></trkpt><trkpt lat="37.6979704" lon="13.3907523"><ele>593.0</ele><time>2026-04-18T07:48:32.026Z</time></trkpt><trkpt lat="37.6977927" lon="13.390777"><ele>594.6666666666666</ele><time>2026-04-18T07:48:33.026Z</time></trkpt><trkpt lat="37.6976086" lon="13.3908438"><ele>596.3333333333334</ele><time>2026-04-18T07:48:34.025Z</time></trkpt><trkpt lat="37.6974423" lon="13.3909172"><ele>598.0</ele><time>2026-04-18T07:48:35.026Z</time></trkpt><trkpt lat="37.6973071" lon="13.3909949"><ele>598.0</ele><time>2026-04-18T07:48:36.026Z</time></trkpt><trkpt lat="37.6972039" lon="13.3910722"><ele>598.0</ele><time>2026-04-18T07:48:37.026Z</time></trkpt><trkpt lat="37.6971445" lon="13.391171"><ele>598.0</ele><time>2026-04-18T07:48:38.026Z</time></trkpt><trkpt lat="37.6971189" lon="13.3912831"><ele>598.0</ele><time>2026-04-18T07:48:39.026Z</time></trkpt><trkpt lat="37.6971547" lon="13.3914166"><ele>598.0</ele><time>2026-04-18T07:48:40.026Z</time></trkpt><trkpt lat="37.6972348" lon="13.3915648"><ele>599.8</ele><time>2026-04-18T07:48:41.026Z</time></trkpt><trkpt lat="37.6973029" lon="13.3916956"><ele>601.5999999999999</ele><time>2026-04-18T07:48:42.026Z</time></trkpt><trkpt lat="37.6973311" lon="13.3918115"><ele>603.4000000000001</ele><time>2026-04-18T07:48:43.026Z</time></trkpt><trkpt lat="37.6973166" lon="13.3919212"><ele>605.2</ele><time>2026-04-18T07:48:44.026Z</time></trkpt><trkpt lat="37.69725" lon="13.3920046"><ele>607.0</ele><time>2026-04-18T07:48:45.026Z</time></trkpt><trkpt lat="37.6971446" lon="13.3920498"><ele>607.0</ele><time>2026-04-18T07:48:46.026Z</time></trkpt><trkpt lat="37.6970118" lon="13.3920303"><ele>607.0</ele><time>2026-04-18T07:48:47.025Z</time></trkpt><trkpt lat="37.6968419" lon="13.3919583"><ele>607.0</ele><time>2026-04-18T07:48:48.025Z</time></trkpt><trkpt lat="37.6966414" lon="13.391871"><ele>602.0</ele><time>2026-04-18T07:48:49.026Z</time></trkpt><trkpt lat="37.696394" lon="13.3917976"><ele>597.0</ele><time>2026-04-18T07:48:50.026Z</time></trkpt><trkpt lat="37.6961454" lon="13.391759"><ele>598.0</ele><time>2026-04-18T07:48:51.025Z</time></trkpt><trkpt lat="37.6959302" lon="13.3916977"><ele>599.0</ele><time>2026-04-18T07:48:52.025Z</time></trkpt><trkpt lat="37.6957618" lon="13.3916419"><ele>600.0</ele><time>2026-04-18T07:48:53.026Z</time></trkpt><trkpt lat="37.6956095" lon="13.3915818"><ele>600.0</ele><time>2026-04-18T07:48:54.026Z</time></trkpt><trkpt lat="37.6954606" lon="13.3915018"><ele>600.0</ele><time>2026-04-18T07:48:55.026Z</time></trkpt><trkpt lat="37.695332" lon="13.3913955"><ele>600.0</ele><time>2026-04-18T07:48:56.025Z</time></trkpt><trkpt lat="37.6952604" lon="13.3912924"><ele>600.0</ele><time>2026-04-18T07:48:57.025Z</time></trkpt><trkpt lat="37.6952303" lon="13.3911721"><ele>598.0</ele><time>2026-04-18T07:48:58.026Z</time></trkpt><trkpt lat="37.6952454" lon="13.391038"><ele>596.0</ele><time>2026-04-18T07:48:59.026Z</time></trkpt><trkpt lat="37.6952905" lon="13.3909067"><ele>594.0</ele><time>2026-04-18T07:49:00.025Z</time></trkpt><trkpt lat="37.6953802" lon="13.3907908"><ele>592.0</ele><time>2026-04-18T07:49:01.025Z</time></trkpt><trkpt lat="37.6954831" lon="13.390687"><ele>592.0</ele><time>2026-04-18T07:49:02.026Z</time></trkpt><trkpt lat="37.6955594" lon="13.3905734"><ele>592.0</ele><time>2026-04-18T07:49:03.025Z</time></trkpt><trkpt lat="37.6955825" lon="13.3904635"><ele>592.0</ele><time>2026-04-18T07:49:04.026Z</time></trkpt><trkpt lat="37.6955519" lon="13.3903511"><ele>592.0</ele><time>2026-04-18T07:49:05.026Z</time></trkpt><trkpt lat="37.6954821" lon="13.3902693"><ele>592.0</ele><time>2026-04-18T07:49:06.025Z</time></trkpt><trkpt lat="37.6953753" lon="13.3902362"><ele>594.0</ele><time>2026-04-18T07:49:07.026Z</time></trkpt><trkpt lat="37.6952463" lon="13.390257"><ele>596.0</ele><time>2026-04-18T07:49:08.025Z</time></trkpt><trkpt lat="37.6950957" lon="13.3902559"><ele>598.0</ele><time>2026-04-18T07:49:09.025Z</time></trkpt><trkpt lat="37.6949259" lon="13.3902285"><ele>598.0</ele><time>2026-04-18T07:49:10.026Z</time></trkpt><trkpt lat="37.694761" lon="13.3901342"><ele>598.0</ele><time>2026-04-18T07:49:11.026Z</time></trkpt><trkpt lat="37.6946008" lon="13.389985"><ele>598.0</ele><time>2026-04-18T07:49:12.026Z</time></trkpt><trkpt lat="37.6944267" lon="13.3897556"><ele>600.5</ele><time>2026-04-18T07:49:13.026Z</time></trkpt><trkpt lat="37.6942489" lon="13.3895241"><ele>603.0</ele><time>2026-04-18T07:49:14.025Z</time></trkpt><trkpt lat="37.6940773" lon="13.3893124"><ele>603.0</ele><time>2026-04-18T07:49:15.026Z</time></trkpt><trkpt lat="37.6939229" lon="13.3891201"><ele>603.0</ele><time>2026-04-18T07:49:16.026Z</time></trkpt><trkpt lat="37.6937804" lon="13.3889548"><ele>603.0</ele><time>2026-04-18T07:49:17.025Z</time></trkpt><trkpt lat="37.6936753" lon="13.3887946"><ele>600.3333333333334</ele><time>2026-04-18T07:49:18.026Z</time></trkpt><trkpt lat="37.6936313" lon="13.3886304"><ele>597.6666666666667</ele><time>2026-04-18T07:49:19.026Z</time></trkpt><trkpt lat="37.693628" lon="13.3884344"><ele>595.0</ele><time>2026-04-18T07:49:20.026Z</time></trkpt><trkpt lat="37.6936514" lon="13.3882015"><ele>597.3333333333334</ele><time>2026-04-18T07:49:21.025Z</time></trkpt><trkpt lat="37.6936906" lon="13.3879574"><ele>599.6666666666666</ele><time>2026-04-18T07:49:22.025Z</time></trkpt><trkpt lat="37.693739" lon="13.3877354"><ele>602.0</ele><time>2026-04-18T07:49:23.026Z</time></trkpt><trkpt lat="37.6938188" lon="13.3875663"><ele>602.0</ele><time>2026-04-18T07:49:24.025Z</time></trkpt><trkpt lat="37.6938912" lon="13.3874352"><ele>602.0</ele><time>2026-04-18T07:49:25.026Z</time></trkpt><trkpt lat="37.6939333" lon="13.3873005"><ele>602.0</ele><time>2026-04-18T07:49:26.026Z</time></trkpt><trkpt lat="37.6939293" lon="13.3871519"><ele>602.0</ele><time>2026-04-18T07:49:27.026Z</time></trkpt><trkpt lat="37.6938682" lon="13.3870223"><ele>603.3333333333333</ele><time>2026-04-18T07:49:28.026Z</time></trkpt><trkpt lat="37.6937485" lon="13.3869293"><ele>604.6666666666666</ele><time>2026-04-18T07:49:29.026Z</time></trkpt><trkpt lat="37.6935842" lon="13.3868521"><ele>606.0</ele><time>2026-04-18T07:49:30.026Z</time></trkpt><trkpt lat="37.6933991" lon="13.3867927"><ele>608.0</ele><time>2026-04-18T07:49:31.026Z</time></trkpt><trkpt lat="37.6932277" lon="13.3866989"><ele>610.0</ele><time>2026-04-18T07:49:32.025Z</time></trkpt><trkpt lat="37.6930736" lon="13.3865464"><ele>612.0</ele><time>2026-04-18T07:49:33.026Z</time></trkpt><trkpt lat="37.6929428" lon="13.3863498"><ele>615.3333333333334</ele><time>2026-04-18T07:49:34.025Z</time></trkpt><trkpt lat="37.6928371" lon="13.3861459"><ele>618.6666666666667</ele><time>2026-04-18T07:49:35.026Z</time></trkpt><trkpt lat="37.6927119" lon="13.3859658"><ele>622.0</ele><time>2026-04-18T07:49:36.026Z</time></trkpt><trkpt lat="37.6925435" lon="13.3858334"><ele>622.0</ele><time>2026-04-18T07:49:37.025Z</time></trkpt><trkpt lat="37.6923693" lon="13.3857572"><ele>622.0</ele><time>2026-04-18T07:49:38.026Z</time></trkpt><trkpt lat="37.6922125" lon="13.3857085"><ele>622.0</ele><time>2026-04-18T07:49:39.026Z</time></trkpt><trkpt lat="37.6920848" lon="13.3856038"><ele>622.0</ele><time>2026-04-18T07:49:40.025Z</time></trkpt><trkpt lat="37.691969" lon="13.3854682"><ele>622.0</ele><time>2026-04-18T07:49:41.026Z</time></trkpt><trkpt lat="37.6918537" lon="13.3852683"><ele>622.0</ele><time>2026-04-18T07:49:42.026Z</time></trkpt><trkpt lat="37.6917225" lon="13.3850696"><ele>622.0</ele><time>2026-04-18T07:49:43.026Z</time></trkpt><trkpt lat="37.6915624" lon="13.3848982"><ele>622.0</ele><time>2026-04-18T07:49:44.025Z</time></trkpt><trkpt lat="37.6913753" lon="13.3847587"><ele>622.0</ele><time>2026-04-18T07:49:45.025Z</time></trkpt><trkpt lat="37.6911797" lon="13.3846609"><ele>621.6666666666667</ele><time>2026-04-18T07:49:46.025Z</time></trkpt><trkpt lat="37.6910077" lon="13.3845534"><ele>621.3333333333334</ele><time>2026-04-18T07:49:47.026Z</time></trkpt><trkpt lat="37.6908444" lon="13.3844011"><ele>621.0</ele><time>2026-04-18T07:49:48.026Z</time></trkpt><trkpt lat="37.6906932" lon="13.384186"><ele>621.0</ele><time>2026-04-18T07:49:49.026Z</time></trkpt><trkpt lat="37.6905528" lon="13.3839533"><ele>621.0</ele><time>2026-04-18T07:49:50.026Z</time></trkpt><trkpt lat="37.6904145" lon="13.3837431"><ele>621.0</ele><time>2026-04-18T07:49:51.026Z</time></trkpt><trkpt lat="37.6902701" lon="13.383568"><ele>624.3333333333334</ele><time>2026-04-18T07:49:52.026Z</time></trkpt><trkpt lat="37.6901292" lon="13.3834367"><ele>627.6666666666667</ele><time>2026-04-18T07:49:53.026Z</time></trkpt><trkpt lat="37.6899821" lon="13.38334"><ele>631.0</ele><time>2026-04-18T07:49:54.026Z</time></trkpt><trkpt lat="37.6898104" lon="13.3832817"><ele>631.0</ele><time>2026-04-18T07:49:55.026Z</time></trkpt><trkpt lat="37.6896282" lon="13.3832561"><ele>631.0</ele><time>2026-04-18T07:49:56.026Z</time></trkpt><trkpt lat="37.6894617" lon="13.3832223"><ele>631.0</ele><time>2026-04-18T07:49:57.025Z</time></trkpt><trkpt lat="37.6893157" lon="13.3831516"><ele>628.75</ele><time>2026-04-18T07:49:58.026Z</time></trkpt><trkpt lat="37.6891886" lon="13.3830391"><ele>626.5</ele><time>2026-04-18T07:49:59.025Z</time></trkpt><trkpt lat="37.6890849" lon="13.3829419"><ele>624.25</ele><time>2026-04-18T07:50:00.025Z</time></trkpt><trkpt lat="37.6889419" lon="13.3829514"><ele>622.0</ele><time>2026-04-18T07:50:01.026Z</time></trkpt><trkpt lat="37.688737" lon="13.383051"><ele>631.6666666666667</ele><time>2026-04-18T07:50:02.025Z</time></trkpt><trkpt lat="37.6885517" lon="13.3831521"><ele>641.3333333333334</ele><time>2026-04-18T07:50:03.026Z</time></trkpt><trkpt lat="37.6883564" lon="13.3832203"><ele>651.0</ele><time>2026-04-18T07:50:04.026Z</time></trkpt><trkpt lat="37.688159" lon="13.3832605"><ele>651.0</ele><time>2026-04-18T07:50:05.026Z</time></trkpt><trkpt lat="37.6879537" lon="13.3832893"><ele>651.0</ele><time>2026-04-18T07:50:06.026Z</time></trkpt><trkpt lat="37.6877425" lon="13.3833086"><ele>651.0</ele><time>2026-04-18T07:50:07.026Z</time></trkpt><trkpt lat="37.6875423" lon="13.3832998"><ele>653.0</ele><time>2026-04-18T07:50:08.026Z</time></trkpt><trkpt lat="37.6873729" lon="13.3832346"><ele>655.0</ele><time>2026-04-18T07:50:09.026Z</time></trkpt><trkpt lat="37.6872159" lon="13.3831541"><ele>657.0</ele><time>2026-04-18T07:50:10.025Z</time></trkpt><trkpt lat="37.6870379" lon="13.3831236"><ele>656.6666666666666</ele><time>2026-04-18T07:50:11.026Z</time></trkpt><trkpt lat="37.6868554" lon="13.3831693"><ele>656.3333333333333</ele><time>2026-04-18T07:50:12.025Z</time></trkpt><trkpt lat="37.6866811" lon="13.3832607"><ele>656.0</ele><time>2026-04-18T07:50:13.026Z</time></trkpt><trkpt lat="37.6865136" lon="13.3833431"><ele>656.0</ele><time>2026-04-18T07:50:14.025Z</time></trkpt><trkpt lat="37.6863724" lon="13.3834154"><ele>656.0</ele><time>2026-04-18T07:50:15.026Z</time></trkpt><trkpt lat="37.6862362" lon="13.383513"><ele>656.0</ele><time>2026-04-18T07:50:16.026Z</time></trkpt><trkpt lat="37.6861201" lon="13.3836257"><ele>653.75</ele><time>2026-04-18T07:50:17.026Z</time></trkpt><trkpt lat="37.6860069" lon="13.3837183"><ele>651.5</ele><time>2026-04-18T07:50:18.025Z</time></trkpt><trkpt lat="37.6858781" lon="13.3837682"><ele>649.25</ele><time>2026-04-18T07:50:19.026Z</time></trkpt><trkpt lat="37.6857412" lon="13.3837771"><ele>647.0</ele><time>2026-04-18T07:50:20.025Z</time></trkpt><trkpt lat="37.6855959" lon="13.3838094"><ele>655.6666666666666</ele><time>2026-04-18T07:50:21.025Z</time></trkpt><trkpt lat="37.6854329" lon="13.383874"><ele>664.3333333333334</ele><time>2026-04-18T07:50:22.026Z</time></trkpt><trkpt lat="37.6852531" lon="13.3839504"><ele>673.0</ele><time>2026-04-18T07:50:23.026Z</time></trkpt><trkpt lat="37.6850924" lon="13.384018"><ele>673.25</ele><time>2026-04-18T07:50:24.026Z</time></trkpt><trkpt lat="37.6849649" lon="13.3840576"><ele>673.5</ele><time>2026-04-18T07:50:25.026Z</time></trkpt><trkpt lat="37.6848274" lon="13.3840401"><ele>673.75</ele><time>2026-04-18T07:50:26.025Z</time></trkpt><trkpt lat="37.6846687" lon="13.383981"><ele>674.0</ele><time>2026-04-18T07:50:27.026Z</time></trkpt><trkpt lat="37.68449" lon="13.3839169"><ele>674.3333333333333</ele><time>2026-04-18T07:50:28.026Z</time></trkpt><trkpt lat="37.6843083" lon="13.3838811"><ele>674.6666666666666</ele><time>2026-04-18T07:50:29.025Z</time></trkpt><trkpt lat="37.6841263" lon="13.3838979"><ele>675.0</ele><time>2026-04-18T07:50:30.025Z</time></trkpt><trkpt lat="37.6839471" lon="13.383976"><ele>675.0</ele><time>2026-04-18T07:50:31.025Z</time></trkpt><trkpt lat="37.6837956" lon="13.3840724"><ele>675.0</ele><time>2026-04-18T07:50:32.026Z</time></trkpt><trkpt lat="37.6836497" lon="13.3841392"><ele>675.0</ele><time>2026-04-18T07:50:33.026Z</time></trkpt><trkpt lat="37.6834899" lon="13.3841537"><ele>676.3333333333334</ele><time>2026-04-18T07:50:34.026Z</time></trkpt><trkpt lat="37.6833188" lon="13.3841126"><ele>677.6666666666667</ele><time>2026-04-18T07:50:35.026Z</time></trkpt><trkpt lat="37.6831631" lon="13.3840699"><ele>679.0</ele><time>2026-04-18T07:50:36.026Z</time></trkpt><trkpt lat="37.6830061" lon="13.3840709"><ele>679.0</ele><time>2026-04-18T07:50:37.026Z</time></trkpt><trkpt lat="37.6828497" lon="13.3841593"><ele>679.0</ele><time>2026-04-18T07:50:38.026Z</time></trkpt><trkpt lat="37.6827044" lon="13.3842508"><ele>679.0</ele><time>2026-04-18T07:50:39.025Z</time></trkpt><trkpt lat="37.6825932" lon="13.3843272"><ele>679.8000000000001</ele><time>2026-04-18T07:50:40.026Z</time></trkpt><trkpt lat="37.6825023" lon="13.3843481"><ele>680.6</ele><time>2026-04-18T07:50:41.025Z</time></trkpt><trkpt lat="37.6824145" lon="13.3843178"><ele>681.4</ele><time>2026-04-18T07:50:42.026Z</time></trkpt><trkpt lat="37.6823442" lon="13.3842091"><ele>682.2</ele><time>2026-04-18T07:50:43.026Z</time></trkpt><trkpt lat="37.6822858" lon="13.3840403"><ele>683.0</ele><time>2026-04-18T07:50:44.026Z</time></trkpt><trkpt lat="37.6822475" lon="13.3838812"><ele>681.5</ele><time>2026-04-18T07:50:45.025Z</time></trkpt><trkpt lat="37.6822062" lon="13.3837419"><ele>680.0</ele><time>2026-04-18T07:50:46.026Z</time></trkpt><trkpt lat="37.6821632" lon="13.3836031"><ele>678.5</ele><time>2026-04-18T07:50:47.025Z</time></trkpt><trkpt lat="37.6821201" lon="13.3834649"><ele>677.0</ele><time>2026-04-18T07:50:48.025Z</time></trkpt><trkpt lat="37.6820799" lon="13.3833334"><ele>677.0</ele><time>2026-04-18T07:50:49.026Z</time></trkpt><trkpt lat="37.6820361" lon="13.3831955"><ele>677.0</ele><time>2026-04-18T07:50:50.025Z</time></trkpt><trkpt lat="37.681997" lon="13.3830644"><ele>677.0</ele><time>2026-04-18T07:50:51.025Z</time></trkpt><trkpt lat="37.6819601" lon="13.3829283"><ele>677.0</ele><time>2026-04-18T07:50:52.025Z</time></trkpt><trkpt lat="37.6819256" lon="13.3827909"><ele>678.75</ele><time>2026-04-18T07:50:53.025Z</time></trkpt><trkpt lat="37.6818919" lon="13.3826529"><ele>680.5</ele><time>2026-04-18T07:50:54.025Z</time></trkpt><trkpt lat="37.6818535" lon="13.3825175"><ele>682.25</ele><time>2026-04-18T07:50:55.025Z</time></trkpt><trkpt lat="37.6818147" lon="13.3823841"><ele>684.0</ele><time>2026-04-18T07:50:56.026Z</time></trkpt><trkpt lat="37.681774" lon="13.3822495"><ele>683.8000000000001</ele><time>2026-04-18T07:50:57.026Z</time></trkpt><trkpt lat="37.6817383" lon="13.3821123"><ele>683.6</ele><time>2026-04-18T07:50:58.026Z</time></trkpt><trkpt lat="37.6817021" lon="13.381977"><ele>683.4</ele><time>2026-04-18T07:50:59.026Z</time></trkpt><trkpt lat="37.6816651" lon="13.3818487"><ele>683.2</ele><time>2026-04-18T07:51:00.026Z</time></trkpt><trkpt lat="37.6816361" lon="13.3817326"><ele>683.0</ele><time>2026-04-18T07:51:01.026Z</time></trkpt><trkpt lat="37.6816111" lon="13.3816233"><ele>683.0</ele><time>2026-04-18T07:51:02.025Z</time></trkpt><trkpt lat="37.6815831" lon="13.3815342"><ele>683.0</ele><time>2026-04-18T07:51:03.026Z</time></trkpt><trkpt lat="37.6815534" lon="13.3814394"><ele>683.0</ele><time>2026-04-18T07:51:04.026Z</time></trkpt><trkpt lat="37.6815207" lon="13.3813402"><ele>683.0</ele><time>2026-04-18T07:51:05.026Z</time></trkpt><trkpt lat="37.681492" lon="13.3812324"><ele>683.0</ele><time>2026-04-18T07:51:06.026Z</time></trkpt><trkpt lat="37.6814614" lon="13.3811247"><ele>683.0</ele><time>2026-04-18T07:51:07.025Z</time></trkpt><trkpt lat="37.6814297" lon="13.3810165"><ele>683.0</ele><time>2026-04-18T07:51:08.025Z</time></trkpt><trkpt lat="37.6814004" lon="13.3809088"><ele>683.0</ele><time>2026-04-18T07:51:09.025Z</time></trkpt><trkpt lat="37.6813682" lon="13.3808014"><ele>683.0</ele><time>2026-04-18T07:51:10.026Z</time></trkpt><trkpt lat="37.681336" lon="13.3806917"><ele>683.0</ele><time>2026-04-18T07:51:11.026Z</time></trkpt><trkpt lat="37.6813072" lon="13.3805781"><ele>683.0</ele><time>2026-04-18T07:51:12.026Z</time></trkpt><trkpt lat="37.6812731" lon="13.3804691"><ele>683.3333333333333</ele><time>2026-04-18T07:51:13.025Z</time></trkpt><trkpt lat="37.6812367" lon="13.3803588"><ele>683.6666666666666</ele><time>2026-04-18T07:51:14.025Z</time></trkpt><trkpt lat="37.6812005" lon="13.3802513"><ele>684.0</ele><time>2026-04-18T07:51:15.026Z</time></trkpt><trkpt lat="37.6811711" lon="13.3801467"><ele>684.3333333333334</ele><time>2026-04-18T07:51:16.026Z</time></trkpt><trkpt lat="37.681146" lon="13.3800518"><ele>684.6666666666667</ele><time>2026-04-18T07:51:17.026Z</time></trkpt><trkpt lat="37.6811254" lon="13.3799667"><ele>685.0</ele><time>2026-04-18T07:51:18.026Z</time></trkpt><trkpt lat="37.6810889" lon="13.3798547"><ele>685.0</ele><time>2026-04-18T07:51:20.026Z</time></trkpt><trkpt lat="37.6811081" lon="13.3797596"><ele>685.0</ele><time>2026-04-18T07:51:23.025Z</time></trkpt><trkpt lat="37.6811704" lon="13.3797021"><ele>685.0</ele><time>2026-04-18T07:51:25.025Z</time></trkpt><trkpt lat="37.6812442" lon="13.3796254"><ele>685.0</ele><time>2026-04-18T07:51:27.026Z</time></trkpt><trkpt lat="37.6813315" lon="13.379536"><ele>685.0</ele><time>2026-04-18T07:51:29.026Z</time></trkpt><trkpt lat="37.6814128" lon="13.3794544"><ele>685.4</ele><time>2026-04-18T07:51:31.025Z</time></trkpt><trkpt lat="37.6814883" lon="13.3793731"><ele>685.8</ele><time>2026-04-18T07:51:33.026Z</time></trkpt><trkpt lat="37.681559" lon="13.3792792"><ele>686.2</ele><time>2026-04-18T07:51:35.025Z</time></trkpt><trkpt lat="37.6816068" lon="13.3791798"><ele>686.6</ele><time>2026-04-18T07:51:37.026Z</time></trkpt><trkpt lat="37.6816443" lon="13.3790844"><ele>687.0</ele><time>2026-04-18T07:51:39.026Z</time></trkpt><trkpt lat="37.6816803" lon="13.3789958"><ele>687.0</ele><time>2026-04-18T07:51:41.026Z</time></trkpt><trkpt lat="37.6817153" lon="13.3789114"><ele>687.0</ele><time>2026-04-18T07:51:43.026Z</time></trkpt><trkpt lat="37.68175" lon="13.3788308"><ele>687.0</ele><time>2026-04-18T07:51:45.026Z</time></trkpt><trkpt lat="37.6817841" lon="13.3787532"><ele>687.0</ele><time>2026-04-18T07:51:47.026Z</time></trkpt><trkpt lat="37.6818233" lon="13.3786734"><ele>687.0</ele><time>2026-04-18T07:51:49.026Z</time></trkpt><trkpt lat="37.6818922" lon="13.3785983"><ele>687.0</ele><time>2026-04-18T07:51:51.026Z</time></trkpt><trkpt lat="37.6820092" lon="13.3785256"><ele>686.1666666666666</ele><time>2026-04-18T07:51:53.025Z</time></trkpt><trkpt lat="37.6820858" lon="13.3784852"><ele>685.3333333333334</ele><time>2026-04-18T07:51:54.026Z</time></trkpt><trkpt lat="37.6821649" lon="13.378438"><ele>684.5</ele><time>2026-04-18T07:51:55.025Z</time></trkpt><trkpt lat="37.6822347" lon="13.3783896"><ele>683.6666666666667</ele><time>2026-04-18T07:51:56.026Z</time></trkpt><trkpt lat="37.6822959" lon="13.3783467"><ele>682.8333333333334</ele><time>2026-04-18T07:51:57.026Z</time></trkpt><trkpt lat="37.6823621" lon="13.3783083"><ele>682.0</ele><time>2026-04-18T07:51:58.025Z</time></trkpt><trkpt lat="37.6824366" lon="13.3782763"><ele>682.0</ele><time>2026-04-18T07:51:59.026Z</time></trkpt><trkpt lat="37.6825277" lon="13.3782547"><ele>682.0</ele><time>2026-04-18T07:52:00.026Z</time></trkpt><trkpt lat="37.6826211" lon="13.378239"><ele>682.0</ele><time>2026-04-18T07:52:01.025Z</time></trkpt><trkpt lat="37.6827051" lon="13.3782066"><ele>682.0</ele><time>2026-04-18T07:52:02.025Z</time></trkpt><trkpt lat="37.6827858" lon="13.3781816"><ele>682.0</ele><time>2026-04-18T07:52:03.026Z</time></trkpt><trkpt lat="37.6828696" lon="13.3781675"><ele>682.0</ele><time>2026-04-18T07:52:04.025Z</time></trkpt><trkpt lat="37.6829505" lon="13.3781768"><ele>679.8</ele><time>2026-04-18T07:52:05.026Z</time></trkpt><trkpt lat="37.6830275" lon="13.3782172"><ele>677.6</ele><time>2026-04-18T07:52:06.026Z</time></trkpt><trkpt lat="37.6831082" lon="13.3782881"><ele>675.4</ele><time>2026-04-18T07:52:07.026Z</time></trkpt><trkpt lat="37.6831869" lon="13.3783612"><ele>673.1999999999999</ele><time>2026-04-18T07:52:08.026Z</time></trkpt><trkpt lat="37.6832636" lon="13.3784365"><ele>671.0</ele><time>2026-04-18T07:52:09.026Z</time></trkpt><trkpt lat="37.6833405" lon="13.3784981"><ele>671.0</ele><time>2026-04-18T07:52:10.026Z</time></trkpt><trkpt lat="37.6834229" lon="13.3785543"><ele>671.0</ele><time>2026-04-18T07:52:11.025Z</time></trkpt><trkpt lat="37.6835066" lon="13.378605"><ele>671.0</ele><time>2026-04-18T07:52:12.025Z</time></trkpt><trkpt lat="37.6835934" lon="13.3786561"><ele>671.0</ele><time>2026-04-18T07:52:13.026Z</time></trkpt><trkpt lat="37.6836784" lon="13.378708"><ele>671.0</ele><time>2026-04-18T07:52:14.026Z</time></trkpt><trkpt lat="37.6837612" lon="13.3787663"><ele>670.0</ele><time>2026-04-18T07:52:15.025Z</time></trkpt><trkpt lat="37.6838452" lon="13.3788327"><ele>669.0</ele><time>2026-04-18T07:52:16.026Z</time></trkpt><trkpt lat="37.6839234" lon="13.3789036"><ele>668.0</ele><time>2026-04-18T07:52:17.026Z</time></trkpt><trkpt lat="37.6840051" lon="13.3789748"><ele>667.0</ele><time>2026-04-18T07:52:18.025Z</time></trkpt><trkpt lat="37.6840904" lon="13.3790424"><ele>666.0</ele><time>2026-04-18T07:52:19.026Z</time></trkpt><trkpt lat="37.6841724" lon="13.3791063"><ele>666.0</ele><time>2026-04-18T07:52:20.026Z</time></trkpt><trkpt lat="37.6842543" lon="13.3791789"><ele>666.0</ele><time>2026-04-18T07:52:21.026Z</time></trkpt><trkpt lat="37.6843238" lon="13.379265"><ele>666.0</ele><time>2026-04-18T07:52:22.026Z</time></trkpt><trkpt lat="37.6843806" lon="13.3793603"><ele>666.0</ele><time>2026-04-18T07:52:23.025Z</time></trkpt><trkpt lat="37.6844261" lon="13.3794611"><ele>666.0</ele><time>2026-04-18T07:52:24.026Z</time></trkpt><trkpt lat="37.68447" lon="13.3795608"><ele>662.1666666666666</ele><time>2026-04-18T07:52:25.026Z</time></trkpt><trkpt lat="37.6845283" lon="13.3796466"><ele>658.3333333333334</ele><time>2026-04-18T07:52:26.025Z</time></trkpt><trkpt lat="37.6846137" lon="13.3796928"><ele>654.5</ele><time>2026-04-18T07:52:27.026Z</time></trkpt><trkpt lat="37.6847047" lon="13.3796855"><ele>650.6666666666667</ele><time>2026-04-18T07:52:28.026Z</time></trkpt><trkpt lat="37.6847749" lon="13.3796192"><ele>646.8333333333334</ele><time>2026-04-18T07:52:29.026Z</time></trkpt><trkpt lat="37.6847953" lon="13.3795255"><ele>643.0</ele><time>2026-04-18T07:52:30.025Z</time></trkpt><trkpt lat="37.6847611" lon="13.3794122"><ele>643.0</ele><time>2026-04-18T07:52:31.025Z</time></trkpt><trkpt lat="37.6846795" lon="13.3793057"><ele>643.0</ele><time>2026-04-18T07:52:32.026Z</time></trkpt><trkpt lat="37.68457" lon="13.3792179"><ele>643.0</ele><time>2026-04-18T07:52:33.026Z</time></trkpt><trkpt lat="37.6844543" lon="13.3791095"><ele>643.0</ele><time>2026-04-18T07:52:34.026Z</time></trkpt><trkpt lat="37.6843303" lon="13.3789946"><ele>645.0</ele><time>2026-04-18T07:52:35.026Z</time></trkpt><trkpt lat="37.6842053" lon="13.3788793"><ele>647.0</ele><time>2026-04-18T07:52:36.025Z</time></trkpt><trkpt lat="37.6840853" lon="13.3787608"><ele>649.0</ele><time>2026-04-18T07:52:37.026Z</time></trkpt><trkpt lat="37.6839702" lon="13.3786198"><ele>649.0</ele><time>2026-04-18T07:52:38.026Z</time></trkpt><trkpt lat="37.6838692" lon="13.3784506"><ele>649.0</ele><time>2026-04-18T07:52:39.025Z</time></trkpt><trkpt lat="37.6837836" lon="13.3782743"><ele>649.0</ele><time>2026-04-18T07:52:40.026Z</time></trkpt><trkpt lat="37.6837115" lon="13.3781062"><ele>648.25</ele><time>2026-04-18T07:52:41.026Z</time></trkpt><trkpt lat="37.6836596" lon="13.3779416"><ele>647.5</ele><time>2026-04-18T07:52:42.025Z</time></trkpt><trkpt lat="37.6836472" lon="13.377769"><ele>646.75</ele><time>2026-04-18T07:52:43.025Z</time></trkpt><trkpt lat="37.6836693" lon="13.3776004"><ele>646.0</ele><time>2026-04-18T07:52:44.025Z</time></trkpt><trkpt lat="37.6837051" lon="13.3774664"><ele>646.0</ele><time>2026-04-18T07:52:45.026Z</time></trkpt><trkpt lat="37.6837514" lon="13.3773568"><ele>646.0</ele><time>2026-04-18T07:52:46.026Z</time></trkpt><trkpt lat="37.6838238" lon="13.3772968"><ele>646.0</ele><time>2026-04-18T07:52:47.026Z</time></trkpt><trkpt lat="37.6839179" lon="13.3772748"><ele>646.0</ele><time>2026-04-18T07:52:48.025Z</time></trkpt><trkpt lat="37.6840425" lon="13.3773102"><ele>646.0</ele><time>2026-04-18T07:52:49.025Z</time></trkpt><trkpt lat="37.6841861" lon="13.3773575"><ele>646.0</ele><time>2026-04-18T07:52:50.026Z</time></trkpt><trkpt lat="37.6843263" lon="13.3774045"><ele>646.0</ele><time>2026-04-18T07:52:51.026Z</time></trkpt><trkpt lat="37.6844558" lon="13.3774342"><ele>646.0</ele><time>2026-04-18T07:52:52.025Z</time></trkpt><trkpt lat="37.6845873" lon="13.3774295"><ele>646.0</ele><time>2026-04-18T07:52:53.025Z</time></trkpt><trkpt lat="37.6846844" lon="13.3773707"><ele>643.0</ele><time>2026-04-18T07:52:54.026Z</time></trkpt><trkpt lat="37.6847562" lon="13.3772513"><ele>640.0</ele><time>2026-04-18T07:52:55.026Z</time></trkpt><trkpt lat="37.6847943" lon="13.377074"><ele>637.0</ele><time>2026-04-18T07:52:56.026Z</time></trkpt><trkpt lat="37.6848221" lon="13.3768726"><ele>634.0</ele><time>2026-04-18T07:52:57.025Z</time></trkpt><trkpt lat="37.6848517" lon="13.3766852"><ele>633.75</ele><time>2026-04-18T07:52:58.026Z</time></trkpt><trkpt lat="37.6848524" lon="13.3764955"><ele>633.5</ele><time>2026-04-18T07:52:59.025Z</time></trkpt><trkpt lat="37.6848063" lon="13.3763388"><ele>633.25</ele><time>2026-04-18T07:53:00.026Z</time></trkpt><trkpt lat="37.6847194" lon="13.3761944"><ele>633.0</ele><time>2026-04-18T07:53:01.026Z</time></trkpt><trkpt lat="37.6846199" lon="13.3760364"><ele>630.6666666666666</ele><time>2026-04-18T07:53:02.026Z</time></trkpt><trkpt lat="37.6845372" lon="13.3758524"><ele>628.3333333333333</ele><time>2026-04-18T07:53:03.026Z</time></trkpt><trkpt lat="37.6844805" lon="13.3756337"><ele>626.0</ele><time>2026-04-18T07:53:04.026Z</time></trkpt><trkpt lat="37.6844472" lon="13.3754077"><ele>627.3333333333333</ele><time>2026-04-18T07:53:05.026Z</time></trkpt><trkpt lat="37.6844029" lon="13.3751982"><ele>628.6666666666666</ele><time>2026-04-18T07:53:06.025Z</time></trkpt><trkpt lat="37.6843428" lon="13.3750126"><ele>630.0</ele><time>2026-04-18T07:53:07.026Z</time></trkpt><trkpt lat="37.6842486" lon="13.3748382"><ele>626.3333333333334</ele><time>2026-04-18T07:53:08.026Z</time></trkpt><trkpt lat="37.6841348" lon="13.3746758"><ele>622.6666666666667</ele><time>2026-04-18T07:53:09.026Z</time></trkpt><trkpt lat="37.6839898" lon="13.3745545"><ele>619.0</ele><time>2026-04-18T07:53:10.026Z</time></trkpt><trkpt lat="37.6838628" lon="13.3744729"><ele>619.0</ele><time>2026-04-18T07:53:11.026Z</time></trkpt><trkpt lat="37.6837846" lon="13.3743861"><ele>619.0</ele><time>2026-04-18T07:53:12.026Z</time></trkpt><trkpt lat="37.6837365" lon="13.3742971"><ele>619.0</ele><time>2026-04-18T07:53:13.025Z</time></trkpt><trkpt lat="37.6837292" lon="13.3742021"><ele>619.0</ele><time>2026-04-18T07:53:14.026Z</time></trkpt><trkpt lat="37.6837651" lon="13.3740967"><ele>619.0</ele><time>2026-04-18T07:53:15.025Z</time></trkpt><trkpt lat="37.683861" lon="13.3740146"><ele>619.0</ele><time>2026-04-18T07:53:16.025Z</time></trkpt><trkpt lat="37.6839867" lon="13.3739997"><ele>619.0</ele><time>2026-04-18T07:53:17.025Z</time></trkpt><trkpt lat="37.6841194" lon="13.3740351"><ele>619.0</ele><time>2026-04-18T07:53:18.025Z</time></trkpt><trkpt lat="37.6842468" lon="13.3741817"><ele>619.0</ele><time>2026-04-18T07:53:19.026Z</time></trkpt><trkpt lat="37.684384" lon="13.3743521"><ele>618.0</ele><time>2026-04-18T07:53:20.026Z</time></trkpt><trkpt lat="37.6845251" lon="13.3745168"><ele>617.0</ele><time>2026-04-18T07:53:21.025Z</time></trkpt><trkpt lat="37.6846637" lon="13.3746362"><ele>616.0</ele><time>2026-04-18T07:53:22.026Z</time></trkpt><trkpt lat="37.6848191" lon="13.3747193"><ele>616.0</ele><time>2026-04-18T07:53:23.026Z</time></trkpt><trkpt lat="37.684993" lon="13.3747849"><ele>616.0</ele><time>2026-04-18T07:53:24.026Z</time></trkpt><trkpt lat="37.6851583" lon="13.3748468"><ele>616.0</ele><time>2026-04-18T07:53:25.025Z</time></trkpt><trkpt lat="37.68532" lon="13.3749164"><ele>612.3333333333334</ele><time>2026-04-18T07:53:26.026Z</time></trkpt><trkpt lat="37.6854603" lon="13.3750181"><ele>608.6666666666666</ele><time>2026-04-18T07:53:27.025Z</time></trkpt><trkpt lat="37.6855894" lon="13.3751279"><ele>605.0</ele><time>2026-04-18T07:53:28.025Z</time></trkpt><trkpt lat="37.6856935" lon="13.3752367"><ele>605.0</ele><time>2026-04-18T07:53:29.026Z</time></trkpt><trkpt lat="37.6857813" lon="13.3753399"><ele>605.0</ele><time>2026-04-18T07:53:30.025Z</time></trkpt><trkpt lat="37.6858476" lon="13.375433"><ele>605.0</ele><time>2026-04-18T07:53:31.026Z</time></trkpt><trkpt lat="37.6859113" lon="13.3755222"><ele>605.0</ele><time>2026-04-18T07:53:32.026Z</time></trkpt><trkpt lat="37.6860076" lon="13.3756231"><ele>605.0</ele><time>2026-04-18T07:53:33.026Z</time></trkpt><trkpt lat="37.6861172" lon="13.3757424"><ele>602.3333333333333</ele><time>2026-04-18T07:53:34.025Z</time></trkpt><trkpt lat="37.6862383" lon="13.3758816"><ele>599.6666666666666</ele><time>2026-04-18T07:53:35.026Z</time></trkpt><trkpt lat="37.6863561" lon="13.3760557"><ele>597.0</ele><time>2026-04-18T07:53:36.026Z</time></trkpt><trkpt lat="37.6864576" lon="13.3762639"><ele>598.6666666666666</ele><time>2026-04-18T07:53:37.025Z</time></trkpt><trkpt lat="37.6865441" lon="13.3764833"><ele>600.3333333333333</ele><time>2026-04-18T07:53:38.026Z</time></trkpt><trkpt lat="37.6866305" lon="13.3766839"><ele>602.0</ele><time>2026-04-18T07:53:39.026Z</time></trkpt><trkpt lat="37.6867179" lon="13.37684"><ele>602.0</ele><time>2026-04-18T07:53:40.025Z</time></trkpt><trkpt lat="37.6868181" lon="13.376965"><ele>602.0</ele><time>2026-04-18T07:53:41.026Z</time></trkpt><trkpt lat="37.6869212" lon="13.3770551"><ele>602.0</ele><time>2026-04-18T07:53:42.026Z</time></trkpt><trkpt lat="37.6870322" lon="13.3770986"><ele>602.0</ele><time>2026-04-18T07:53:43.025Z</time></trkpt><trkpt lat="37.6871386" lon="13.3770957"><ele>599.6</ele><time>2026-04-18T07:53:44.026Z</time></trkpt><trkpt lat="37.68722" lon="13.3770249"><ele>597.2</ele><time>2026-04-18T07:53:45.026Z</time></trkpt><trkpt lat="37.6872704" lon="13.3769197"><ele>594.8</ele><time>2026-04-18T07:53:46.026Z</time></trkpt><trkpt lat="37.6872661" lon="13.3767959"><ele>592.4</ele><time>2026-04-18T07:53:47.025Z</time></trkpt><trkpt lat="37.6871962" lon="13.37666"><ele>590.0</ele><time>2026-04-18T07:53:48.025Z</time></trkpt><trkpt lat="37.6870872" lon="13.3765173"><ele>588.6666666666666</ele><time>2026-04-18T07:53:49.026Z</time></trkpt><trkpt lat="37.6869925" lon="13.3763427"><ele>587.3333333333334</ele><time>2026-04-18T07:53:50.025Z</time></trkpt><trkpt lat="37.6869441" lon="13.3761272"><ele>586.0</ele><time>2026-04-18T07:53:51.026Z</time></trkpt><trkpt lat="37.6869111" lon="13.3759054"><ele>586.0</ele><time>2026-04-18T07:53:52.026Z</time></trkpt><trkpt lat="37.6869077" lon="13.3757086"><ele>586.0</ele><time>2026-04-18T07:53:53.032Z</time></trkpt><trkpt lat="37.6869423" lon="13.3755026"><ele>586.0</ele><time>2026-04-18T07:53:54.033Z</time></trkpt><trkpt lat="37.6870314" lon="13.3752752"><ele>586.0</ele><time>2026-04-18T07:53:55.033Z</time></trkpt><trkpt lat="37.687156" lon="13.3750124"><ele>586.0</ele><time>2026-04-18T07:53:56.033Z</time></trkpt><trkpt lat="37.6872737" lon="13.3747474"><ele>586.3333333333334</ele><time>2026-04-18T07:53:57.032Z</time></trkpt><trkpt lat="37.6873844" lon="13.3745043"><ele>586.6666666666666</ele><time>2026-04-18T07:53:58.033Z</time></trkpt><trkpt lat="37.6874815" lon="13.3742623"><ele>587.0</ele><time>2026-04-18T07:53:59.033Z</time></trkpt><trkpt lat="37.6875518" lon="13.3740317"><ele>586.6666666666666</ele><time>2026-04-18T07:54:00.032Z</time></trkpt><trkpt lat="37.6875813" lon="13.3737986"><ele>586.3333333333334</ele><time>2026-04-18T07:54:01.032Z</time></trkpt><trkpt lat="37.6875781" lon="13.3735654"><ele>586.0</ele><time>2026-04-18T07:54:02.033Z</time></trkpt><trkpt lat="37.6875638" lon="13.373314"><ele>586.0</ele><time>2026-04-18T07:54:03.032Z</time></trkpt><trkpt lat="37.6875572" lon="13.3730863"><ele>586.0</ele><time>2026-04-18T07:54:04.033Z</time></trkpt><trkpt lat="37.6875969" lon="13.3728982"><ele>586.0</ele><time>2026-04-18T07:54:05.033Z</time></trkpt><trkpt lat="37.6876873" lon="13.3727308"><ele>579.3333333333334</ele><time>2026-04-18T07:54:06.032Z</time></trkpt><trkpt lat="37.6878215" lon="13.3726001"><ele>572.6666666666666</ele><time>2026-04-18T07:54:07.033Z</time></trkpt><trkpt lat="37.6879635" lon="13.3725037"><ele>566.0</ele><time>2026-04-18T07:54:08.033Z</time></trkpt><trkpt lat="37.6880669" lon="13.3724045"><ele>566.0</ele><time>2026-04-18T07:54:09.033Z</time></trkpt><trkpt lat="37.6881082" lon="13.3723111"><ele>566.0</ele><time>2026-04-18T07:54:10.033Z</time></trkpt><trkpt lat="37.6880947" lon="13.3721877"><ele>566.0</ele><time>2026-04-18T07:54:11.033Z</time></trkpt><trkpt lat="37.6880593" lon="13.3719942"><ele>566.0</ele><time>2026-04-18T07:54:12.033Z</time></trkpt><trkpt lat="37.688004" lon="13.3717754"><ele>564.6666666666666</ele><time>2026-04-18T07:54:13.033Z</time></trkpt><trkpt lat="37.6879525" lon="13.3715288"><ele>563.3333333333334</ele><time>2026-04-18T07:54:14.033Z</time></trkpt><trkpt lat="37.6879223" lon="13.3712798"><ele>562.0</ele><time>2026-04-18T07:54:15.033Z</time></trkpt><trkpt lat="37.6878967" lon="13.3710398"><ele>561.0</ele><time>2026-04-18T07:54:16.033Z</time></trkpt><trkpt lat="37.6878616" lon="13.370829"><ele>560.0</ele><time>2026-04-18T07:54:17.032Z</time></trkpt><trkpt lat="37.6878101" lon="13.3706477"><ele>559.0</ele><time>2026-04-18T07:54:18.032Z</time></trkpt><trkpt lat="37.6877153" lon="13.3705048"><ele>559.0</ele><time>2026-04-18T07:54:19.033Z</time></trkpt><trkpt lat="37.6875719" lon="13.3704146"><ele>559.0</ele><time>2026-04-18T07:54:20.033Z</time></trkpt><trkpt lat="37.687418" lon="13.3703612"><ele>559.0</ele><time>2026-04-18T07:54:21.033Z</time></trkpt><trkpt lat="37.6872752" lon="13.3702914"><ele>559.0</ele><time>2026-04-18T07:54:22.033Z</time></trkpt><trkpt lat="37.6871525" lon="13.3701428"><ele>559.0</ele><time>2026-04-18T07:54:23.033Z</time></trkpt><trkpt lat="37.6870171" lon="13.369975"><ele>559.0</ele><time>2026-04-18T07:54:24.033Z</time></trkpt><trkpt lat="37.6869113" lon="13.3698146"><ele>559.6</ele><time>2026-04-18T07:54:25.033Z</time></trkpt><trkpt lat="37.6868362" lon="13.369687"><ele>560.2</ele><time>2026-04-18T07:54:26.032Z</time></trkpt><trkpt lat="37.6868015" lon="13.3695826"><ele>560.8000000000001</ele><time>2026-04-18T07:54:27.033Z</time></trkpt><trkpt lat="37.6868065" lon="13.3694705"><ele>561.4</ele><time>2026-04-18T07:54:28.033Z</time></trkpt><trkpt lat="37.6868589" lon="13.3693936"><ele>562.0</ele><time>2026-04-18T07:54:29.033Z</time></trkpt><trkpt lat="37.6869501" lon="13.3693661"><ele>561.25</ele><time>2026-04-18T07:54:30.033Z</time></trkpt><trkpt lat="37.6870602" lon="13.369413"><ele>560.5</ele><time>2026-04-18T07:54:31.032Z</time></trkpt><trkpt lat="37.6871672" lon="13.3695263"><ele>559.75</ele><time>2026-04-18T07:54:32.032Z</time></trkpt><trkpt lat="37.6872681" lon="13.3696739"><ele>559.0</ele><time>2026-04-18T07:54:33.032Z</time></trkpt><trkpt lat="37.6873644" lon="13.3698226"><ele>559.0</ele><time>2026-04-18T07:54:34.033Z</time></trkpt><trkpt lat="37.6874603" lon="13.3699299"><ele>559.0</ele><time>2026-04-18T07:54:35.032Z</time></trkpt><trkpt lat="37.6875773" lon="13.3699739"><ele>559.0</ele><time>2026-04-18T07:54:36.032Z</time></trkpt><trkpt lat="37.6877394" lon="13.3699799"><ele>559.0</ele><time>2026-04-18T07:54:37.033Z</time></trkpt><trkpt lat="37.6879285" lon="13.3699761"><ele>555.6666666666667</ele><time>2026-04-18T07:54:38.033Z</time></trkpt><trkpt lat="37.6881036" lon="13.3699789"><ele>552.3333333333334</ele><time>2026-04-18T07:54:39.033Z</time></trkpt><trkpt lat="37.6882691" lon="13.3699629"><ele>549.0</ele><time>2026-04-18T07:54:40.033Z</time></trkpt><trkpt lat="37.6884311" lon="13.369886"><ele>549.0</ele><time>2026-04-18T07:54:41.033Z</time></trkpt><trkpt lat="37.6885869" lon="13.3697728"><ele>549.0</ele><time>2026-04-18T07:54:42.033Z</time></trkpt><trkpt lat="37.6887346" lon="13.369622"><ele>549.0</ele><time>2026-04-18T07:54:43.033Z</time></trkpt><trkpt lat="37.6888538" lon="13.3694463"><ele>546.25</ele><time>2026-04-18T07:54:44.033Z</time></trkpt><trkpt lat="37.6889525" lon="13.3692641"><ele>543.5</ele><time>2026-04-18T07:54:45.032Z</time></trkpt><trkpt lat="37.6890179" lon="13.3690956"><ele>540.75</ele><time>2026-04-18T07:54:46.033Z</time></trkpt><trkpt lat="37.6890858" lon="13.3689763"><ele>538.0</ele><time>2026-04-18T07:54:47.033Z</time></trkpt><trkpt lat="37.6891967" lon="13.3689098"><ele>538.0</ele><time>2026-04-18T07:54:48.032Z</time></trkpt><trkpt lat="37.6893711" lon="13.3688817"><ele>538.0</ele><time>2026-04-18T07:54:49.032Z</time></trkpt><trkpt lat="37.6895822" lon="13.3688388"><ele>538.0</ele><time>2026-04-18T07:54:50.033Z</time></trkpt><trkpt lat="37.6897924" lon="13.3687398"><ele>534.0</ele><time>2026-04-18T07:54:51.033Z</time></trkpt><trkpt lat="37.6899796" lon="13.3686363"><ele>530.0</ele><time>2026-04-18T07:54:52.032Z</time></trkpt><trkpt lat="37.6901237" lon="13.3685474"><ele>526.0</ele><time>2026-04-18T07:54:53.032Z</time></trkpt><trkpt lat="37.6902415" lon="13.3684904"><ele>524.4</ele><time>2026-04-18T07:54:54.032Z</time></trkpt><trkpt lat="37.6903435" lon="13.3684601"><ele>522.8</ele><time>2026-04-18T07:54:55.033Z</time></trkpt><trkpt lat="37.6904462" lon="13.3685112"><ele>521.1999999999999</ele><time>2026-04-18T07:54:56.033Z</time></trkpt><trkpt lat="37.6905255" lon="13.3686114"><ele>519.6</ele><time>2026-04-18T07:54:57.032Z</time></trkpt><trkpt lat="37.6905312" lon="13.3687442"><ele>518.0</ele><time>2026-04-18T07:54:58.033Z</time></trkpt><trkpt lat="37.6904813" lon="13.368872"><ele>517.6666666666666</ele><time>2026-04-18T07:54:59.032Z</time></trkpt><trkpt lat="37.6903851" lon="13.3689846"><ele>517.3333333333334</ele><time>2026-04-18T07:55:00.033Z</time></trkpt><trkpt lat="37.6902355" lon="13.3690897"><ele>517.0</ele><time>2026-04-18T07:55:01.033Z</time></trkpt><trkpt lat="37.6900784" lon="13.369252"><ele>522.3333333333334</ele><time>2026-04-18T07:55:02.033Z</time></trkpt><trkpt lat="37.6899123" lon="13.3694377"><ele>527.6666666666666</ele><time>2026-04-18T07:55:03.033Z</time></trkpt><trkpt lat="37.6897538" lon="13.3695765"><ele>533.0</ele><time>2026-04-18T07:55:04.032Z</time></trkpt><trkpt lat="37.6896304" lon="13.3696737"><ele>529.75</ele><time>2026-04-18T07:55:05.033Z</time></trkpt><trkpt lat="37.6895478" lon="13.3697602"><ele>526.5</ele><time>2026-04-18T07:55:06.032Z</time></trkpt><trkpt lat="37.6895185" lon="13.369882"><ele>523.25</ele><time>2026-04-18T07:55:07.032Z</time></trkpt><trkpt lat="37.6895249" lon="13.3700513"><ele>520.0</ele><time>2026-04-18T07:55:08.033Z</time></trkpt><trkpt lat="37.6895723" lon="13.370268"><ele>520.0</ele><time>2026-04-18T07:55:09.033Z</time></trkpt><trkpt lat="37.6896406" lon="13.3705125"><ele>520.0</ele><time>2026-04-18T07:55:10.032Z</time></trkpt><trkpt lat="37.6896993" lon="13.3707457"><ele>520.0</ele><time>2026-04-18T07:55:11.032Z</time></trkpt><trkpt lat="37.6897688" lon="13.3709544"><ele>520.25</ele><time>2026-04-18T07:55:12.033Z</time></trkpt><trkpt lat="37.6898442" lon="13.3711252"><ele>520.5</ele><time>2026-04-18T07:55:13.033Z</time></trkpt><trkpt lat="37.6899231" lon="13.3712564"><ele>520.75</ele><time>2026-04-18T07:55:14.032Z</time></trkpt><trkpt lat="37.690019" lon="13.3713392"><ele>521.0</ele><time>2026-04-18T07:55:15.032Z</time></trkpt><trkpt lat="37.690147" lon="13.3713659"><ele>519.75</ele><time>2026-04-18T07:55:16.032Z</time></trkpt><trkpt lat="37.69028" lon="13.371366"><ele>518.5</ele><time>2026-04-18T07:55:17.033Z</time></trkpt><trkpt lat="37.6903933" lon="13.3713817"><ele>517.25</ele><time>2026-04-18T07:55:18.033Z</time></trkpt><trkpt lat="37.6904744" lon="13.3714725"><ele>516.0</ele><time>2026-04-18T07:55:19.033Z</time></trkpt><trkpt lat="37.6905512" lon="13.3716508"><ele>516.0</ele><time>2026-04-18T07:55:20.032Z</time></trkpt><trkpt lat="37.690595" lon="13.3719023"><ele>516.0</ele><time>2026-04-18T07:55:21.033Z</time></trkpt><trkpt lat="37.690619" lon="13.3721624"><ele>516.0</ele><time>2026-04-18T07:55:22.033Z</time></trkpt><trkpt lat="37.6906393" lon="13.3724041"><ele>517.0</ele><time>2026-04-18T07:55:23.033Z</time></trkpt><trkpt lat="37.6906545" lon="13.3725896"><ele>518.0</ele><time>2026-04-18T07:55:24.033Z</time></trkpt><trkpt lat="37.6906932" lon="13.372736"><ele>519.0</ele><time>2026-04-18T07:55:25.033Z</time></trkpt><trkpt lat="37.6907728" lon="13.3728595"><ele>520.0</ele><time>2026-04-18T07:55:26.033Z</time></trkpt><trkpt lat="37.690887" lon="13.3729153"><ele>520.0</ele><time>2026-04-18T07:55:27.032Z</time></trkpt><trkpt lat="37.6910189" lon="13.3729041"><ele>520.0</ele><time>2026-04-18T07:55:28.033Z</time></trkpt><trkpt lat="37.6911466" lon="13.3728084"><ele>520.0</ele><time>2026-04-18T07:55:29.033Z</time></trkpt><trkpt lat="37.6912929" lon="13.3726629"><ele>518.6666666666667</ele><time>2026-04-18T07:55:30.032Z</time></trkpt><trkpt lat="37.6914583" lon="13.3725203"><ele>517.3333333333334</ele><time>2026-04-18T07:55:31.033Z</time></trkpt><trkpt lat="37.6916218" lon="13.3723837"><ele>516.0</ele><time>2026-04-18T07:55:32.033Z</time></trkpt><trkpt lat="37.6917665" lon="13.3722532"><ele>515.6666666666666</ele><time>2026-04-18T07:55:33.033Z</time></trkpt><trkpt lat="37.6918786" lon="13.3721069"><ele>515.3333333333333</ele><time>2026-04-18T07:55:34.032Z</time></trkpt><trkpt lat="37.6919558" lon="13.3719155"><ele>515.0</ele><time>2026-04-18T07:55:35.032Z</time></trkpt><trkpt lat="37.6919975" lon="13.3716977"><ele>518.0</ele><time>2026-04-18T07:55:36.033Z</time></trkpt><trkpt lat="37.6920443" lon="13.3714796"><ele>521.0</ele><time>2026-04-18T07:55:37.033Z</time></trkpt><trkpt lat="37.6920963" lon="13.3712648"><ele>524.0</ele><time>2026-04-18T07:55:38.033Z</time></trkpt><trkpt lat="37.6921783" lon="13.3710622"><ele>525.0</ele><time>2026-04-18T07:55:39.033Z</time></trkpt><trkpt lat="37.6922833" lon="13.3708785"><ele>526.0</ele><time>2026-04-18T07:55:40.033Z</time></trkpt><trkpt lat="37.692416" lon="13.370723"><ele>527.0</ele><time>2026-04-18T07:55:41.033Z</time></trkpt><trkpt lat="37.6925769" lon="13.3706122"><ele>527.0</ele><time>2026-04-18T07:55:42.033Z</time></trkpt><trkpt lat="37.692755" lon="13.3705341"><ele>527.0</ele><time>2026-04-18T07:55:43.033Z</time></trkpt><trkpt lat="37.6929103" lon="13.3704752"><ele>527.0</ele><time>2026-04-18T07:55:44.033Z</time></trkpt><trkpt lat="37.6930518" lon="13.3704669"><ele>526.0</ele><time>2026-04-18T07:55:45.032Z</time></trkpt><trkpt lat="37.6931827" lon="13.3705068"><ele>525.0</ele><time>2026-04-18T07:55:46.033Z</time></trkpt><trkpt lat="37.6933016" lon="13.3705479"><ele>524.0</ele><time>2026-04-18T07:55:47.032Z</time></trkpt><trkpt lat="37.693424" lon="13.3705342"><ele>523.0</ele><time>2026-04-18T07:55:48.033Z</time></trkpt><trkpt lat="37.6935466" lon="13.3704325"><ele>529.0</ele><time>2026-04-18T07:55:49.032Z</time></trkpt><trkpt lat="37.6936899" lon="13.3702635"><ele>535.0</ele><time>2026-04-18T07:55:50.033Z</time></trkpt><trkpt lat="37.6938587" lon="13.3700639"><ele>541.0</ele><time>2026-04-18T07:55:51.033Z</time></trkpt><trkpt lat="37.6940156" lon="13.3698878"><ele>541.0</ele><time>2026-04-18T07:55:52.033Z</time></trkpt><trkpt lat="37.6941544" lon="13.3697303"><ele>541.0</ele><time>2026-04-18T07:55:53.033Z</time></trkpt><trkpt lat="37.6942816" lon="13.3695255"><ele>541.0</ele><time>2026-04-18T07:55:54.033Z</time></trkpt><trkpt lat="37.694387" lon="13.3692896"><ele>549.3333333333334</ele><time>2026-04-18T07:55:55.033Z</time></trkpt><trkpt lat="37.6944856" lon="13.3690523"><ele>557.6666666666666</ele><time>2026-04-18T07:55:56.032Z</time></trkpt><trkpt lat="37.6945681" lon="13.3688124"><ele>566.0</ele><time>2026-04-18T07:55:57.032Z</time></trkpt><trkpt lat="37.6946087" lon="13.3685244"><ele>566.0</ele><time>2026-04-18T07:55:58.033Z</time></trkpt><trkpt lat="37.6946092" lon="13.3682169"><ele>566.0</ele><time>2026-04-18T07:55:59.033Z</time></trkpt><trkpt lat="37.6945995" lon="13.3678927"><ele>566.5</ele><time>2026-04-18T07:56:00.032Z</time></trkpt><trkpt lat="37.6945829" lon="13.3675811"><ele>567.0</ele><time>2026-04-18T07:56:01.032Z</time></trkpt><trkpt lat="37.6945791" lon="13.3672937"><ele>568.0</ele><time>2026-04-18T07:56:02.033Z</time></trkpt><trkpt lat="37.6945811" lon="13.3670414"><ele>569.0</ele><time>2026-04-18T07:56:03.033Z</time></trkpt><trkpt lat="37.6945505" lon="13.3668038"><ele>570.0</ele><time>2026-04-18T07:56:04.033Z</time></trkpt><trkpt lat="37.694473" lon="13.3665579"><ele>562.0</ele><time>2026-04-18T07:56:05.033Z</time></trkpt><trkpt lat="37.6943841" lon="13.3663042"><ele>554.0</ele><time>2026-04-18T07:56:06.033Z</time></trkpt><trkpt lat="37.6943233" lon="13.3660683"><ele>546.0</ele><time>2026-04-18T07:56:07.033Z</time></trkpt><trkpt lat="37.6942858" lon="13.3658676"><ele>546.0</ele><time>2026-04-18T07:56:08.033Z</time></trkpt><trkpt lat="37.6942651" lon="13.3656962"><ele>546.0</ele><time>2026-04-18T07:56:09.032Z</time></trkpt><trkpt lat="37.6943085" lon="13.3654972"><ele>546.0</ele><time>2026-04-18T07:56:10.033Z</time></trkpt><trkpt lat="37.6943584" lon="13.3652909"><ele>550.0</ele><time>2026-04-18T07:56:11.033Z</time></trkpt><trkpt lat="37.6943535" lon="13.3650884"><ele>554.0</ele><time>2026-04-18T07:56:12.033Z</time></trkpt><trkpt lat="37.694282" lon="13.3648735"><ele>558.0</ele><time>2026-04-18T07:56:13.033Z</time></trkpt><trkpt lat="37.6941456" lon="13.3646781"><ele>562.0</ele><time>2026-04-18T07:56:14.032Z</time></trkpt><trkpt lat="37.6940034" lon="13.3644897"><ele>566.0</ele><time>2026-04-18T07:56:15.033Z</time></trkpt><trkpt lat="37.693868" lon="13.364342"><ele>570.0</ele><time>2026-04-18T07:56:16.032Z</time></trkpt><trkpt lat="37.6937395" lon="13.3642323"><ele>570.0</ele><time>2026-04-18T07:56:17.033Z</time></trkpt><trkpt lat="37.6936504" lon="13.3641158"><ele>570.0</ele><time>2026-04-18T07:56:18.033Z</time></trkpt><trkpt lat="37.6935948" lon="13.3639587"><ele>570.0</ele><time>2026-04-18T07:56:19.032Z</time></trkpt><trkpt lat="37.6935848" lon="13.3637606"><ele>570.0</ele><time>2026-04-18T07:56:20.033Z</time></trkpt><trkpt lat="37.6936229" lon="13.3635541"><ele>570.0</ele><time>2026-04-18T07:56:21.032Z</time></trkpt><trkpt lat="37.693696" lon="13.3633584"><ele>570.0</ele><time>2026-04-18T07:56:22.033Z</time></trkpt><trkpt lat="37.6937493" lon="13.3631606"><ele>570.0</ele><time>2026-04-18T07:56:23.033Z</time></trkpt><trkpt lat="37.6937663" lon="13.3629168"><ele>568.6666666666666</ele><time>2026-04-18T07:56:24.032Z</time></trkpt><trkpt lat="37.6937912" lon="13.3627172"><ele>567.3333333333333</ele><time>2026-04-18T07:56:25.033Z</time></trkpt><trkpt lat="37.6938789" lon="13.3625564"><ele>566.0</ele><time>2026-04-18T07:56:26.033Z</time></trkpt><trkpt lat="37.6940157" lon="13.3624155"><ele>566.0</ele><time>2026-04-18T07:56:27.033Z</time></trkpt><trkpt lat="37.6941701" lon="13.3622818"><ele>566.0</ele><time>2026-04-18T07:56:28.033Z</time></trkpt><trkpt lat="37.6942966" lon="13.3621219"><ele>566.0</ele><time>2026-04-18T07:56:29.033Z</time></trkpt><trkpt lat="37.6943913" lon="13.3618901"><ele>570.0</ele><time>2026-04-18T07:56:30.033Z</time></trkpt><trkpt lat="37.6944682" lon="13.361644"><ele>574.0</ele><time>2026-04-18T07:56:31.033Z</time></trkpt><trkpt lat="37.6945419" lon="13.361439"><ele>578.0</ele><time>2026-04-18T07:56:32.032Z</time></trkpt><trkpt lat="37.6946281" lon="13.3612759"><ele>579.1999999999999</ele><time>2026-04-18T07:56:33.033Z</time></trkpt><trkpt lat="37.6947054" lon="13.3611588"><ele>580.4</ele><time>2026-04-18T07:56:34.032Z</time></trkpt><trkpt lat="37.6947372" lon="13.3610574"><ele>581.5999999999999</ele><time>2026-04-18T07:56:35.033Z</time></trkpt><trkpt lat="37.6947234" lon="13.3609427"><ele>582.8</ele><time>2026-04-18T07:56:36.032Z</time></trkpt><trkpt lat="37.6946515" lon="13.3608235"><ele>584.0</ele><time>2026-04-18T07:56:37.032Z</time></trkpt><trkpt lat="37.6945264" lon="13.3607221"><ele>582.0</ele><time>2026-04-18T07:56:38.033Z</time></trkpt><trkpt lat="37.6944072" lon="13.3606195"><ele>580.0</ele><time>2026-04-18T07:56:39.033Z</time></trkpt><trkpt lat="37.6943233" lon="13.3604615"><ele>578.0</ele><time>2026-04-18T07:56:40.032Z</time></trkpt><trkpt lat="37.6942625" lon="13.3602449"><ele>578.0</ele><time>2026-04-18T07:56:41.033Z</time></trkpt><trkpt lat="37.6942181" lon="13.3599523"><ele>578.0</ele><time>2026-04-18T07:56:42.032Z</time></trkpt><trkpt lat="37.6941687" lon="13.3596301"><ele>581.0</ele><time>2026-04-18T07:56:43.032Z</time></trkpt><trkpt lat="37.6941333" lon="13.3593095"><ele>584.0</ele><time>2026-04-18T07:56:44.033Z</time></trkpt><trkpt lat="37.6941044" lon="13.3590264"><ele>588.0</ele><time>2026-04-18T07:56:45.032Z</time></trkpt><trkpt lat="37.6940699" lon="13.358803"><ele>592.0</ele><time>2026-04-18T07:56:46.033Z</time></trkpt><trkpt lat="37.6940076" lon="13.3586171"><ele>596.0</ele><time>2026-04-18T07:56:47.033Z</time></trkpt><trkpt lat="37.6939027" lon="13.3584738"><ele>596.0</ele><time>2026-04-18T07:56:48.033Z</time></trkpt><trkpt lat="37.6937426" lon="13.3583833"><ele>596.0</ele><time>2026-04-18T07:56:49.032Z</time></trkpt><trkpt lat="37.6935956" lon="13.3583336"><ele>596.0</ele><time>2026-04-18T07:56:50.033Z</time></trkpt><trkpt lat="37.6934837" lon="13.358265"><ele>594.75</ele><time>2026-04-18T07:56:51.033Z</time></trkpt><trkpt lat="37.6934269" lon="13.3581328"><ele>593.5</ele><time>2026-04-18T07:56:52.033Z</time></trkpt><trkpt lat="37.6934363" lon="13.3579819"><ele>592.25</ele><time>2026-04-18T07:56:53.032Z</time></trkpt><trkpt lat="37.6934857" lon="13.3577836"><ele>591.0</ele><time>2026-04-18T07:56:54.032Z</time></trkpt><trkpt lat="37.693547" lon="13.3575701"><ele>591.0</ele><time>2026-04-18T07:56:55.033Z</time></trkpt><trkpt lat="37.6935849" lon="13.3573889"><ele>591.0</ele><time>2026-04-18T07:56:56.033Z</time></trkpt><trkpt lat="37.693561" lon="13.3572277"><ele>591.0</ele><time>2026-04-18T07:56:57.033Z</time></trkpt><trkpt lat="37.6934828" lon="13.3570576"><ele>591.0</ele><time>2026-04-18T07:56:58.032Z</time></trkpt><trkpt lat="37.6933843" lon="13.3568989"><ele>593.3333333333334</ele><time>2026-04-18T07:56:59.032Z</time></trkpt><trkpt lat="37.6933085" lon="13.3567379"><ele>595.6666666666667</ele><time>2026-04-18T07:57:00.033Z</time></trkpt><trkpt lat="37.6932775" lon="13.3565254"><ele>598.0</ele><time>2026-04-18T07:57:01.033Z</time></trkpt><trkpt lat="37.6932788" lon="13.3562836"><ele>599.25</ele><time>2026-04-18T07:57:02.033Z</time></trkpt><trkpt lat="37.6932749" lon="13.3560728"><ele>600.5</ele><time>2026-04-18T07:57:03.033Z</time></trkpt><trkpt lat="37.693271" lon="13.3558891"><ele>601.75</ele><time>2026-04-18T07:57:04.033Z</time></trkpt><trkpt lat="37.6932736" lon="13.3557274"><ele>603.0</ele><time>2026-04-18T07:57:05.032Z</time></trkpt><trkpt lat="37.6932953" lon="13.3555889"><ele>603.5</ele><time>2026-04-18T07:57:06.033Z</time></trkpt><trkpt lat="37.6933235" lon="13.3554731"><ele>604.0</ele><time>2026-04-18T07:57:07.033Z</time></trkpt><trkpt lat="37.6933555" lon="13.355383"><ele>604.5</ele><time>2026-04-18T07:57:08.032Z</time></trkpt><trkpt lat="37.6933759" lon="13.3552916"><ele>605.0</ele><time>2026-04-18T07:57:09.033Z</time></trkpt><trkpt lat="37.6934003" lon="13.3551908"><ele>605.5</ele><time>2026-04-18T07:57:10.033Z</time></trkpt><trkpt lat="37.693437" lon="13.3550768"><ele>606.0</ele><time>2026-04-18T07:57:11.033Z</time></trkpt><trkpt lat="37.6934927" lon="13.3549619"><ele>606.0</ele><time>2026-04-18T07:57:12.032Z</time></trkpt><trkpt lat="37.693569" lon="13.3548629"><ele>606.0</ele><time>2026-04-18T07:57:13.033Z</time></trkpt><trkpt lat="37.6936409" lon="13.3547732"><ele>606.0</ele><time>2026-04-18T07:57:14.033Z</time></trkpt><trkpt lat="37.6936984" lon="13.3546893"><ele>606.0</ele><time>2026-04-18T07:57:15.032Z</time></trkpt><trkpt lat="37.6937617" lon="13.3546012"><ele>606.0</ele><time>2026-04-18T07:57:16.033Z</time></trkpt><trkpt lat="37.6938223" lon="13.3544997"><ele>608.5</ele><time>2026-04-18T07:57:17.033Z</time></trkpt><trkpt lat="37.6938702" lon="13.3543876"><ele>611.0</ele><time>2026-04-18T07:57:18.033Z</time></trkpt><trkpt lat="37.6939049" lon="13.3542305"><ele>613.5</ele><time>2026-04-18T07:57:19.033Z</time></trkpt><trkpt lat="37.6939247" lon="13.3540657"><ele>616.0</ele><time>2026-04-18T07:57:20.033Z</time></trkpt><trkpt lat="37.6939185" lon="13.3539008"><ele>616.8</ele><time>2026-04-18T07:57:21.033Z</time></trkpt><trkpt lat="37.6939086" lon="13.353747"><ele>617.6</ele><time>2026-04-18T07:57:22.033Z</time></trkpt><trkpt lat="37.6938954" lon="13.3536088"><ele>618.4</ele><time>2026-04-18T07:57:23.033Z</time></trkpt><trkpt lat="37.6938698" lon="13.3534778"><ele>619.2</ele><time>2026-04-18T07:57:24.032Z</time></trkpt><trkpt lat="37.6938407" lon="13.3533567"><ele>620.0</ele><time>2026-04-18T07:57:25.032Z</time></trkpt><trkpt lat="37.6938188" lon="13.3532288"><ele>620.0</ele><time>2026-04-18T07:57:26.033Z</time></trkpt><trkpt lat="37.6938144" lon="13.3530818"><ele>620.0</ele><time>2026-04-18T07:57:27.033Z</time></trkpt><trkpt lat="37.6938469" lon="13.3529101"><ele>620.0</ele><time>2026-04-18T07:57:28.032Z</time></trkpt><trkpt lat="37.6939071" lon="13.3527282"><ele>620.0</ele><time>2026-04-18T07:57:29.033Z</time></trkpt><trkpt lat="37.6939776" lon="13.352533"><ele>620.6666666666666</ele><time>2026-04-18T07:57:30.033Z</time></trkpt><trkpt lat="37.6940529" lon="13.3523013"><ele>621.3333333333334</ele><time>2026-04-18T07:57:31.033Z</time></trkpt><trkpt lat="37.6941503" lon="13.3520422"><ele>622.0</ele><time>2026-04-18T07:57:32.033Z</time></trkpt><trkpt lat="37.6942369" lon="13.3517419"><ele>622.0</ele><time>2026-04-18T07:57:33.033Z</time></trkpt><trkpt lat="37.6943209" lon="13.3514464"><ele>622.0</ele><time>2026-04-18T07:57:34.032Z</time></trkpt><trkpt lat="37.6943995" lon="13.3511555"><ele>625.3333333333334</ele><time>2026-04-18T07:57:35.033Z</time></trkpt><trkpt lat="37.6944692" lon="13.3509065"><ele>628.6666666666666</ele><time>2026-04-18T07:57:36.033Z</time></trkpt><trkpt lat="37.694544" lon="13.3506973"><ele>632.0</ele><time>2026-04-18T07:57:37.033Z</time></trkpt><trkpt lat="37.6946388" lon="13.350539"><ele>632.0</ele><time>2026-04-18T07:57:38.032Z</time></trkpt><trkpt lat="37.6947769" lon="13.3504308"><ele>632.0</ele><time>2026-04-18T07:57:39.033Z</time></trkpt><trkpt lat="37.6949393" lon="13.3503533"><ele>632.0</ele><time>2026-04-18T07:57:40.032Z</time></trkpt><trkpt lat="37.6950586" lon="13.3502857"><ele>632.0</ele><time>2026-04-18T07:57:41.032Z</time></trkpt><trkpt lat="37.6951225" lon="13.350193"><ele>632.0</ele><time>2026-04-18T07:57:42.032Z</time></trkpt><trkpt lat="37.6951614" lon="13.3500558"><ele>632.0</ele><time>2026-04-18T07:57:43.032Z</time></trkpt><trkpt lat="37.6951885" lon="13.3498576"><ele>632.0</ele><time>2026-04-18T07:57:44.033Z</time></trkpt><trkpt lat="37.6952174" lon="13.3496781"><ele>636.0</ele><time>2026-04-18T07:57:45.033Z</time></trkpt><trkpt lat="37.6952989" lon="13.3495028"><ele>640.0</ele><time>2026-04-18T07:57:46.032Z</time></trkpt><trkpt lat="37.6954326" lon="13.3493162"><ele>644.0</ele><time>2026-04-18T07:57:47.032Z</time></trkpt><trkpt lat="37.6955948" lon="13.3491119"><ele>644.0</ele><time>2026-04-18T07:57:48.033Z</time></trkpt><trkpt lat="37.6957528" lon="13.3489"><ele>644.0</ele><time>2026-04-18T07:57:49.033Z</time></trkpt><trkpt lat="37.6959045" lon="13.3486923"><ele>642.5</ele><time>2026-04-18T07:57:50.033Z</time></trkpt><trkpt lat="37.6960392" lon="13.3484656"><ele>641.0</ele><time>2026-04-18T07:57:51.033Z</time></trkpt><trkpt lat="37.6961635" lon="13.348213"><ele>649.0</ele><time>2026-04-18T07:57:52.032Z</time></trkpt><trkpt lat="37.6962572" lon="13.3479399"><ele>657.0</ele><time>2026-04-18T07:57:53.033Z</time></trkpt><trkpt lat="37.6963112" lon="13.3476442"><ele>657.0</ele><time>2026-04-18T07:57:54.033Z</time></trkpt><trkpt lat="37.6963446" lon="13.347315"><ele>657.0</ele><time>2026-04-18T07:57:55.033Z</time></trkpt><trkpt lat="37.696385" lon="13.3469697"><ele>657.5</ele><time>2026-04-18T07:57:56.033Z</time></trkpt><trkpt lat="37.6964606" lon="13.3466266"><ele>658.0</ele><time>2026-04-18T07:57:57.033Z</time></trkpt><trkpt lat="37.6965502" lon="13.3462801"><ele>659.0</ele><time>2026-04-18T07:57:58.033Z</time></trkpt><trkpt lat="37.6966305" lon="13.3459324"><ele>660.0</ele><time>2026-04-18T07:57:59.032Z</time></trkpt><trkpt lat="37.6966972" lon="13.3455817"><ele>660.0</ele><time>2026-04-18T07:58:00.032Z</time></trkpt><trkpt lat="37.6967461" lon="13.3452311"><ele>660.0</ele><time>2026-04-18T07:58:01.033Z</time></trkpt><trkpt lat="37.6967823" lon="13.3448861"><ele>661.0</ele><time>2026-04-18T07:58:02.032Z</time></trkpt><trkpt lat="37.6968016" lon="13.3445596"><ele>662.0</ele><time>2026-04-18T07:58:03.032Z</time></trkpt><trkpt lat="37.6968064" lon="13.3442694"><ele>662.0</ele><time>2026-04-18T07:58:04.033Z</time></trkpt><trkpt lat="37.6967892" lon="13.3440219"><ele>662.0</ele><time>2026-04-18T07:58:05.032Z</time></trkpt><trkpt lat="37.6967483" lon="13.3438219"><ele>662.0</ele><time>2026-04-18T07:58:06.033Z</time></trkpt><trkpt lat="37.6967159" lon="13.3436783"><ele>661.6</ele><time>2026-04-18T07:58:07.033Z</time></trkpt><trkpt lat="37.6967231" lon="13.3435526"><ele>661.2</ele><time>2026-04-18T07:58:08.033Z</time></trkpt><trkpt lat="37.6967843" lon="13.3434629"><ele>660.8</ele><time>2026-04-18T07:58:09.033Z</time></trkpt><trkpt lat="37.6968745" lon="13.3434688"><ele>660.4</ele><time>2026-04-18T07:58:10.033Z</time></trkpt><trkpt lat="37.6969935" lon="13.3435273"><ele>660.0</ele><time>2026-04-18T07:58:11.032Z</time></trkpt><trkpt lat="37.6971083" lon="13.3436327"><ele>662.75</ele><time>2026-04-18T07:58:12.032Z</time></trkpt><trkpt lat="37.6972233" lon="13.3437353"><ele>665.5</ele><time>2026-04-18T07:58:13.033Z</time></trkpt><trkpt lat="37.6973347" lon="13.3437823"><ele>668.25</ele><time>2026-04-18T07:58:14.033Z</time></trkpt><trkpt lat="37.6974895" lon="13.3437608"><ele>671.0</ele><time>2026-04-18T07:58:15.032Z</time></trkpt><trkpt lat="37.6976224" lon="13.3437113"><ele>671.0</ele><time>2026-04-18T07:58:16.033Z</time></trkpt><trkpt lat="37.6977451" lon="13.3436461"><ele>671.0</ele><time>2026-04-18T07:58:17.033Z</time></trkpt><trkpt lat="37.6978274" lon="13.3435256"><ele>671.0</ele><time>2026-04-18T07:58:18.033Z</time></trkpt><trkpt lat="37.6978869" lon="13.3433304"><ele>671.0</ele><time>2026-04-18T07:58:19.032Z</time></trkpt><trkpt lat="37.6979175" lon="13.3430771"><ele>679.6666666666666</ele><time>2026-04-18T07:58:20.033Z</time></trkpt><trkpt lat="37.6979484" lon="13.3428217"><ele>688.3333333333334</ele><time>2026-04-18T07:58:21.033Z</time></trkpt><trkpt lat="37.6979652" lon="13.3425811"><ele>697.0</ele><time>2026-04-18T07:58:22.032Z</time></trkpt><trkpt lat="37.6979385" lon="13.3423115"><ele>698.5</ele><time>2026-04-18T07:58:23.033Z</time></trkpt><trkpt lat="37.6978709" lon="13.3420255"><ele>700.0</ele><time>2026-04-18T07:58:24.033Z</time></trkpt><trkpt lat="37.6978296" lon="13.3417182"><ele>702.0</ele><time>2026-04-18T07:58:25.033Z</time></trkpt><trkpt lat="37.6978153" lon="13.3413677"><ele>704.0</ele><time>2026-04-18T07:58:26.033Z</time></trkpt><trkpt lat="37.6978146" lon="13.3410092"><ele>704.0</ele><time>2026-04-18T07:58:27.033Z</time></trkpt><trkpt lat="37.697816" lon="13.3407088"><ele>704.0</ele><time>2026-04-18T07:58:28.032Z</time></trkpt><trkpt lat="37.6978123" lon="13.3404623"><ele>704.0</ele><time>2026-04-18T07:58:29.033Z</time></trkpt><trkpt lat="37.6978036" lon="13.3402651"><ele>704.3333333333333</ele><time>2026-04-18T07:58:30.032Z</time></trkpt><trkpt lat="37.6977583" lon="13.3400796"><ele>704.6666666666666</ele><time>2026-04-18T07:58:31.033Z</time></trkpt><trkpt lat="37.6976592" lon="13.3398927"><ele>705.0</ele><time>2026-04-18T07:58:32.033Z</time></trkpt><trkpt lat="37.6975065" lon="13.3397342"><ele>702.25</ele><time>2026-04-18T07:58:33.032Z</time></trkpt><trkpt lat="37.6973667" lon="13.3396085"><ele>699.5</ele><time>2026-04-18T07:58:34.033Z</time></trkpt><trkpt lat="37.697271" lon="13.3394873"><ele>696.75</ele><time>2026-04-18T07:58:35.033Z</time></trkpt><trkpt lat="37.6972171" lon="13.339352"><ele>694.0</ele><time>2026-04-18T07:58:36.033Z</time></trkpt><trkpt lat="37.6972036" lon="13.3391775"><ele>694.0</ele><time>2026-04-18T07:58:37.033Z</time></trkpt><trkpt lat="37.6972378" lon="13.3389626"><ele>694.0</ele><time>2026-04-18T07:58:38.032Z</time></trkpt><trkpt lat="37.6972803" lon="13.3387198"><ele>694.0</ele><time>2026-04-18T07:58:39.033Z</time></trkpt><trkpt lat="37.6973036" lon="13.3384912"><ele>695.3333333333334</ele><time>2026-04-18T07:58:40.032Z</time></trkpt><trkpt lat="37.6973038" lon="13.3382591"><ele>696.6666666666666</ele><time>2026-04-18T07:58:41.032Z</time></trkpt><trkpt lat="37.697274" lon="13.3380104"><ele>698.0</ele><time>2026-04-18T07:58:42.033Z</time></trkpt><trkpt lat="37.6971907" lon="13.3377388"><ele>699.0</ele><time>2026-04-18T07:58:43.033Z</time></trkpt><trkpt lat="37.6971012" lon="13.3374444"><ele>700.0</ele><time>2026-04-18T07:58:44.033Z</time></trkpt><trkpt lat="37.6970381" lon="13.3371516"><ele>699.3333333333334</ele><time>2026-04-18T07:58:45.032Z</time></trkpt><trkpt lat="37.6969997" lon="13.3368976"><ele>698.6666666666666</ele><time>2026-04-18T07:58:46.033Z</time></trkpt><trkpt lat="37.6969338" lon="13.3366903"><ele>698.0</ele><time>2026-04-18T07:58:47.033Z</time></trkpt><trkpt lat="37.6968418" lon="13.3364856"><ele>700.6666666666666</ele><time>2026-04-18T07:58:48.033Z</time></trkpt><trkpt lat="37.696758" lon="13.3362412"><ele>703.3333333333334</ele><time>2026-04-18T07:58:49.032Z</time></trkpt><trkpt lat="37.6967094" lon="13.3359691"><ele>706.0</ele><time>2026-04-18T07:58:50.033Z</time></trkpt><trkpt lat="37.6966632" lon="13.3357488"><ele>706.0</ele><time>2026-04-18T07:58:51.032Z</time></trkpt><trkpt lat="37.6965868" lon="13.335582"><ele>706.0</ele><time>2026-04-18T07:58:52.032Z</time></trkpt><trkpt lat="37.6964828" lon="13.3354584"><ele>706.0</ele><time>2026-04-18T07:58:53.033Z</time></trkpt><trkpt lat="37.6963928" lon="13.3353588"><ele>706.0</ele><time>2026-04-18T07:58:54.032Z</time></trkpt><trkpt lat="37.6963301" lon="13.3352748"><ele>708.5</ele><time>2026-04-18T07:58:55.033Z</time></trkpt><trkpt lat="37.6963002" lon="13.3351663"><ele>711.0</ele><time>2026-04-18T07:58:56.033Z</time></trkpt><trkpt lat="37.6962816" lon="13.335027"><ele>713.5</ele><time>2026-04-18T07:58:57.032Z</time></trkpt><trkpt lat="37.6962613" lon="13.3348762"><ele>716.0</ele><time>2026-04-18T07:58:58.032Z</time></trkpt><trkpt lat="37.6962254" lon="13.3347135"><ele>715.0</ele><time>2026-04-18T07:58:59.033Z</time></trkpt><trkpt lat="37.6961527" lon="13.3345424"><ele>714.0</ele><time>2026-04-18T07:59:00.033Z</time></trkpt><trkpt lat="37.6960486" lon="13.3343813"><ele>713.0</ele><time>2026-04-18T07:59:01.033Z</time></trkpt><trkpt lat="37.6959409" lon="13.33422"><ele>713.0</ele><time>2026-04-18T07:59:02.033Z</time></trkpt><trkpt lat="37.6958423" lon="13.3340469"><ele>713.0</ele><time>2026-04-18T07:59:03.033Z</time></trkpt><trkpt lat="37.6957536" lon="13.3338493"><ele>713.0</ele><time>2026-04-18T07:59:04.032Z</time></trkpt><trkpt lat="37.6956751" lon="13.333632"><ele>714.0</ele><time>2026-04-18T07:59:05.032Z</time></trkpt><trkpt lat="37.6956205" lon="13.3333924"><ele>715.0</ele><time>2026-04-18T07:59:06.033Z</time></trkpt><trkpt lat="37.69558" lon="13.3331647"><ele>716.0</ele><time>2026-04-18T07:59:07.032Z</time></trkpt><trkpt lat="37.6955469" lon="13.3329552"><ele>716.0</ele><time>2026-04-18T07:59:08.032Z</time></trkpt><trkpt lat="37.6955417" lon="13.3327509"><ele>716.0</ele><time>2026-04-18T07:59:09.033Z</time></trkpt><trkpt lat="37.6955583" lon="13.332544"><ele>716.0</ele><time>2026-04-18T07:59:10.033Z</time></trkpt><trkpt lat="37.6955969" lon="13.3323377"><ele>713.6666666666666</ele><time>2026-04-18T07:59:11.033Z</time></trkpt><trkpt lat="37.6956694" lon="13.3321279"><ele>711.3333333333334</ele><time>2026-04-18T07:59:12.033Z</time></trkpt><trkpt lat="37.6957742" lon="13.3319075"><ele>709.0</ele><time>2026-04-18T07:59:13.033Z</time></trkpt><trkpt lat="37.6958877" lon="13.3316866"><ele>709.0</ele><time>2026-04-18T07:59:14.033Z</time></trkpt><trkpt lat="37.6959913" lon="13.3314638"><ele>709.0</ele><time>2026-04-18T07:59:15.033Z</time></trkpt><trkpt lat="37.6960879" lon="13.3312548"><ele>709.0</ele><time>2026-04-18T07:59:16.033Z</time></trkpt><trkpt lat="37.6961698" lon="13.3310288"><ele>708.3333333333334</ele><time>2026-04-18T07:59:17.032Z</time></trkpt><trkpt lat="37.696236" lon="13.3307815"><ele>707.6666666666666</ele><time>2026-04-18T07:59:18.033Z</time></trkpt><trkpt lat="37.6962909" lon="13.3305272"><ele>707.0</ele><time>2026-04-18T07:59:19.032Z</time></trkpt><trkpt lat="37.696343" lon="13.3302743"><ele>707.0</ele><time>2026-04-18T07:59:20.033Z</time></trkpt><trkpt lat="37.6963917" lon="13.3300367"><ele>707.0</ele><time>2026-04-18T07:59:21.033Z</time></trkpt><trkpt lat="37.6964376" lon="13.32985"><ele>707.0</ele><time>2026-04-18T07:59:22.033Z</time></trkpt><trkpt lat="37.6964964" lon="13.3296882"><ele>707.0</ele><time>2026-04-18T07:59:23.033Z</time></trkpt><trkpt lat="37.6965781" lon="13.3295774"><ele>707.0</ele><time>2026-04-18T07:59:24.033Z</time></trkpt><trkpt lat="37.6966987" lon="13.3294871"><ele>707.0</ele><time>2026-04-18T07:59:25.033Z</time></trkpt><trkpt lat="37.6968268" lon="13.3294382"><ele>707.0</ele><time>2026-04-18T07:59:26.032Z</time></trkpt><trkpt lat="37.696952" lon="13.3293855"><ele>707.0</ele><time>2026-04-18T07:59:27.033Z</time></trkpt><trkpt lat="37.697057" lon="13.3292949"><ele>707.0</ele><time>2026-04-18T07:59:28.033Z</time></trkpt><trkpt lat="37.6971544" lon="13.329159"><ele>707.0</ele><time>2026-04-18T07:59:29.033Z</time></trkpt><trkpt lat="37.6972161" lon="13.3289989"><ele>707.0</ele><time>2026-04-18T07:59:30.033Z</time></trkpt><trkpt lat="37.6972409" lon="13.3288422"><ele>707.0</ele><time>2026-04-18T07:59:31.033Z</time></trkpt><trkpt lat="37.6972068" lon="13.328685"><ele>707.0</ele><time>2026-04-18T07:59:32.033Z</time></trkpt><trkpt lat="37.6971175" lon="13.3284993"><ele>707.0</ele><time>2026-04-18T07:59:33.033Z</time></trkpt><trkpt lat="37.6970206" lon="13.3283132"><ele>707.0</ele><time>2026-04-18T07:59:34.033Z</time></trkpt><trkpt lat="37.6969371" lon="13.3281408"><ele>707.0</ele><time>2026-04-18T07:59:35.033Z</time></trkpt><trkpt lat="37.6968728" lon="13.3279801"><ele>707.0</ele><time>2026-04-18T07:59:36.033Z</time></trkpt><trkpt lat="37.6968241" lon="13.3277983"><ele>700.0</ele><time>2026-04-18T07:59:37.033Z</time></trkpt><trkpt lat="37.696803" lon="13.3275986"><ele>693.0</ele><time>2026-04-18T07:59:38.033Z</time></trkpt><trkpt lat="37.6967911" lon="13.3274042"><ele>686.0</ele><time>2026-04-18T07:59:39.032Z</time></trkpt><trkpt lat="37.6967752" lon="13.3272267"><ele>685.0</ele><time>2026-04-18T07:59:40.033Z</time></trkpt><trkpt lat="37.696787" lon="13.3270787"><ele>684.0</ele><time>2026-04-18T07:59:41.033Z</time></trkpt><trkpt lat="37.6968482" lon="13.3269581"><ele>683.0</ele><time>2026-04-18T07:59:42.032Z</time></trkpt><trkpt lat="37.6969412" lon="13.3268435"><ele>682.0</ele><time>2026-04-18T07:59:43.032Z</time></trkpt><trkpt lat="37.6970429" lon="13.3267336"><ele>682.2</ele><time>2026-04-18T07:59:44.033Z</time></trkpt><trkpt lat="37.6971111" lon="13.3266112"><ele>682.4000000000001</ele><time>2026-04-18T07:59:45.033Z</time></trkpt><trkpt lat="37.6971291" lon="13.3264775"><ele>682.5999999999999</ele><time>2026-04-18T07:59:46.033Z</time></trkpt><trkpt lat="37.6970991" lon="13.326342"><ele>682.8</ele><time>2026-04-18T07:59:47.033Z</time></trkpt><trkpt lat="37.6970277" lon="13.3262356"><ele>683.0</ele><time>2026-04-18T07:59:48.032Z</time></trkpt><trkpt lat="37.6969188" lon="13.3261726"><ele>683.0</ele><time>2026-04-18T07:59:49.032Z</time></trkpt><trkpt lat="37.6967867" lon="13.326133"><ele>683.0</ele><time>2026-04-18T07:59:50.032Z</time></trkpt><trkpt lat="37.6966672" lon="13.3261501"><ele>683.0</ele><time>2026-04-18T07:59:51.032Z</time></trkpt><trkpt lat="37.6965499" lon="13.3260819"><ele>683.0</ele><time>2026-04-18T07:59:52.033Z</time></trkpt><trkpt lat="37.6964064" lon="13.3259208"><ele>683.0</ele><time>2026-04-18T07:59:53.033Z</time></trkpt><trkpt lat="37.6962719" lon="13.325772"><ele>683.0</ele><time>2026-04-18T07:59:54.032Z</time></trkpt><trkpt lat="37.6961776" lon="13.3256516"><ele>683.0</ele><time>2026-04-18T07:59:55.033Z</time></trkpt><trkpt lat="37.6961241" lon="13.3255315"><ele>683.0</ele><time>2026-04-18T07:59:56.032Z</time></trkpt><trkpt lat="37.6961162" lon="13.3254114"><ele>681.75</ele><time>2026-04-18T07:59:57.032Z</time></trkpt><trkpt lat="37.6961547" lon="13.3252935"><ele>680.5</ele><time>2026-04-18T07:59:58.033Z</time></trkpt><trkpt lat="37.6962398" lon="13.3251881"><ele>679.25</ele><time>2026-04-18T07:59:59.033Z</time></trkpt><trkpt lat="37.6963517" lon="13.3250879"><ele>678.0</ele><time>2026-04-18T08:00:00.032Z</time></trkpt><trkpt lat="37.6964645" lon="13.3249919"><ele>678.0</ele><time>2026-04-18T08:00:01.033Z</time></trkpt><trkpt lat="37.6965739" lon="13.3248926"><ele>678.0</ele><time>2026-04-18T08:00:02.033Z</time></trkpt><trkpt lat="37.69668" lon="13.324799"><ele>678.0</ele><time>2026-04-18T08:00:03.033Z</time></trkpt><trkpt lat="37.6967826" lon="13.3247092"><ele>678.0</ele><time>2026-04-18T08:00:04.033Z</time></trkpt><trkpt lat="37.69688" lon="13.3246099"><ele>680.5</ele><time>2026-04-18T08:00:05.032Z</time></trkpt><trkpt lat="37.6969701" lon="13.3244963"><ele>683.0</ele><time>2026-04-18T08:00:06.033Z</time></trkpt><trkpt lat="37.6970512" lon="13.3243708"><ele>685.5</ele><time>2026-04-18T08:00:07.032Z</time></trkpt><trkpt lat="37.6971294" lon="13.324236"><ele>688.0</ele><time>2026-04-18T08:00:08.032Z</time></trkpt><trkpt lat="37.6972023" lon="13.3240825"><ele>688.0</ele><time>2026-04-18T08:00:09.033Z</time></trkpt><trkpt lat="37.6972739" lon="13.323922"><ele>688.0</ele><time>2026-04-18T08:00:10.033Z</time></trkpt><trkpt lat="37.6973393" lon="13.323748"><ele>688.0</ele><time>2026-04-18T08:00:11.032Z</time></trkpt><trkpt lat="37.6973875" lon="13.323555"><ele>685.3333333333334</ele><time>2026-04-18T08:00:12.033Z</time></trkpt><trkpt lat="37.6974285" lon="13.3233577"><ele>682.6666666666666</ele><time>2026-04-18T08:00:13.033Z</time></trkpt><trkpt lat="37.6974694" lon="13.323165"><ele>680.0</ele><time>2026-04-18T08:00:14.033Z</time></trkpt><trkpt lat="37.6975449" lon="13.3229887"><ele>684.0</ele><time>2026-04-18T08:00:15.033Z</time></trkpt><trkpt lat="37.6976456" lon="13.3228211"><ele>688.0</ele><time>2026-04-18T08:00:16.033Z</time></trkpt><trkpt lat="37.6977588" lon="13.3226605"><ele>692.0</ele><time>2026-04-18T08:00:17.032Z</time></trkpt><trkpt lat="37.6978717" lon="13.3225072"><ele>692.0</ele><time>2026-04-18T08:00:18.033Z</time></trkpt><trkpt lat="37.6979924" lon="13.3223957"><ele>692.0</ele><time>2026-04-18T08:00:19.033Z</time></trkpt><trkpt lat="37.6981" lon="13.3223042"><ele>692.0</ele><time>2026-04-18T08:00:20.033Z</time></trkpt><trkpt lat="37.698181" lon="13.3221977"><ele>692.0</ele><time>2026-04-18T08:00:21.033Z</time></trkpt><trkpt lat="37.6982198" lon="13.3220283"><ele>688.0</ele><time>2026-04-18T08:00:22.032Z</time></trkpt><trkpt lat="37.6982254" lon="13.3218356"><ele>684.0</ele><time>2026-04-18T08:00:23.033Z</time></trkpt><trkpt lat="37.6982257" lon="13.3216396"><ele>680.0</ele><time>2026-04-18T08:00:24.033Z</time></trkpt><trkpt lat="37.698264" lon="13.3214444"><ele>677.6666666666666</ele><time>2026-04-18T08:00:25.033Z</time></trkpt><trkpt lat="37.6983449" lon="13.3212316"><ele>675.3333333333334</ele><time>2026-04-18T08:00:26.032Z</time></trkpt><trkpt lat="37.6984286" lon="13.3210083"><ele>673.0</ele><time>2026-04-18T08:00:27.032Z</time></trkpt><trkpt lat="37.6984806" lon="13.3207675"><ele>671.0</ele><time>2026-04-18T08:00:28.032Z</time></trkpt><trkpt lat="37.6985133" lon="13.3205131"><ele>669.0</ele><time>2026-04-18T08:00:29.033Z</time></trkpt><trkpt lat="37.6985536" lon="13.3202557"><ele>667.0</ele><time>2026-04-18T08:00:30.033Z</time></trkpt><trkpt lat="37.6985977" lon="13.3200008"><ele>675.3333333333334</ele><time>2026-04-18T08:00:31.032Z</time></trkpt><trkpt lat="37.6986549" lon="13.3197591"><ele>683.6666666666666</ele><time>2026-04-18T08:00:32.032Z</time></trkpt><trkpt lat="37.6987218" lon="13.3195301"><ele>692.0</ele><time>2026-04-18T08:00:33.041Z</time></trkpt><trkpt lat="37.6987854" lon="13.3193156"><ele>692.0</ele><time>2026-04-18T08:00:34.041Z</time></trkpt><trkpt lat="37.6988488" lon="13.3191191"><ele>692.0</ele><time>2026-04-18T08:00:35.041Z</time></trkpt><trkpt lat="37.6989312" lon="13.3189608"><ele>692.0</ele><time>2026-04-18T08:00:36.041Z</time></trkpt><trkpt lat="37.6990165" lon="13.3188304"><ele>689.75</ele><time>2026-04-18T08:00:37.04Z</time></trkpt><trkpt lat="37.6990746" lon="13.3187"><ele>687.5</ele><time>2026-04-18T08:00:38.04Z</time></trkpt><trkpt lat="37.6990978" lon="13.3185675"><ele>685.25</ele><time>2026-04-18T08:00:39.041Z</time></trkpt><trkpt lat="37.6990968" lon="13.3184091"><ele>683.0</ele><time>2026-04-18T08:00:40.04Z</time></trkpt><trkpt lat="37.6990929" lon="13.3182289"><ele>678.6666666666666</ele><time>2026-04-18T08:00:41.04Z</time></trkpt><trkpt lat="37.6991242" lon="13.318038"><ele>674.3333333333334</ele><time>2026-04-18T08:00:42.04Z</time></trkpt><trkpt lat="37.6991998" lon="13.3178516"><ele>670.0</ele><time>2026-04-18T08:00:43.04Z</time></trkpt><trkpt lat="37.6993134" lon="13.3176556"><ele>673.0</ele><time>2026-04-18T08:00:44.04Z</time></trkpt><trkpt lat="37.6994355" lon="13.317469"><ele>676.0</ele><time>2026-04-18T08:00:45.041Z</time></trkpt><trkpt lat="37.6995544" lon="13.3172658"><ele>679.0</ele><time>2026-04-18T08:00:46.04Z</time></trkpt><trkpt lat="37.6996796" lon="13.3170516"><ele>679.0</ele><time>2026-04-18T08:00:47.04Z</time></trkpt><trkpt lat="37.6998018" lon="13.3168278"><ele>679.0</ele><time>2026-04-18T08:00:48.041Z</time></trkpt><trkpt lat="37.6999073" lon="13.3165849"><ele>679.0</ele><time>2026-04-18T08:00:49.041Z</time></trkpt><trkpt lat="37.699993" lon="13.3163298"><ele>676.3333333333334</ele><time>2026-04-18T08:00:50.041Z</time></trkpt><trkpt lat="37.7000751" lon="13.3160752"><ele>673.6666666666666</ele><time>2026-04-18T08:00:51.04Z</time></trkpt><trkpt lat="37.7001582" lon="13.3158446"><ele>671.0</ele><time>2026-04-18T08:00:52.041Z</time></trkpt><trkpt lat="37.7002403" lon="13.3156314"><ele>675.0</ele><time>2026-04-18T08:00:53.041Z</time></trkpt><trkpt lat="37.7003037" lon="13.3154218"><ele>679.0</ele><time>2026-04-18T08:00:54.04Z</time></trkpt><trkpt lat="37.7003048" lon="13.3151958"><ele>683.0</ele><time>2026-04-18T08:00:55.04Z</time></trkpt><trkpt lat="37.7002843" lon="13.3149566"><ele>681.6666666666666</ele><time>2026-04-18T08:00:56.041Z</time></trkpt><trkpt lat="37.7002957" lon="13.3147174"><ele>680.3333333333334</ele><time>2026-04-18T08:00:57.041Z</time></trkpt><trkpt lat="37.7003758" lon="13.3144689"><ele>679.0</ele><time>2026-04-18T08:00:58.041Z</time></trkpt><trkpt lat="37.7004455" lon="13.3142147"><ele>679.0</ele><time>2026-04-18T08:00:59.041Z</time></trkpt><trkpt lat="37.7004856" lon="13.3139526"><ele>679.0</ele><time>2026-04-18T08:01:00.041Z</time></trkpt><trkpt lat="37.700504" lon="13.3136984"><ele>679.0</ele><time>2026-04-18T08:01:01.041Z</time></trkpt><trkpt lat="37.7005028" lon="13.3134388"><ele>678.6666666666667</ele><time>2026-04-18T08:01:02.041Z</time></trkpt><trkpt lat="37.7004742" lon="13.3131907"><ele>678.3333333333334</ele><time>2026-04-18T08:01:03.041Z</time></trkpt><trkpt lat="37.7004538" lon="13.3129636"><ele>678.0</ele><time>2026-04-18T08:01:04.04Z</time></trkpt><trkpt lat="37.7004877" lon="13.3127568"><ele>678.0</ele><time>2026-04-18T08:01:05.04Z</time></trkpt><trkpt lat="37.7005589" lon="13.3125766"><ele>678.0</ele><time>2026-04-18T08:01:06.041Z</time></trkpt><trkpt lat="37.7006779" lon="13.3124151"><ele>678.0</ele><time>2026-04-18T08:01:07.041Z</time></trkpt><trkpt lat="37.7008252" lon="13.3122596"><ele>676.0</ele><time>2026-04-18T08:01:08.041Z</time></trkpt><trkpt lat="37.7009824" lon="13.3120896"><ele>674.0</ele><time>2026-04-18T08:01:09.04Z</time></trkpt><trkpt lat="37.7011285" lon="13.3119177"><ele>672.0</ele><time>2026-04-18T08:01:10.041Z</time></trkpt><trkpt lat="37.7012682" lon="13.3117468"><ele>672.0</ele><time>2026-04-18T08:01:11.04Z</time></trkpt><trkpt lat="37.7013876" lon="13.3116047"><ele>672.0</ele><time>2026-04-18T08:01:12.04Z</time></trkpt><trkpt lat="37.7015034" lon="13.3115092"><ele>672.0</ele><time>2026-04-18T08:01:13.041Z</time></trkpt><trkpt lat="37.7016122" lon="13.3114687"><ele>672.0</ele><time>2026-04-18T08:01:14.04Z</time></trkpt><trkpt lat="37.7017103" lon="13.3115069"><ele>672.0</ele><time>2026-04-18T08:01:15.041Z</time></trkpt><trkpt lat="37.7018102" lon="13.3115989"><ele>672.0</ele><time>2026-04-18T08:01:16.041Z</time></trkpt><trkpt lat="37.7019131" lon="13.3117424"><ele>672.0</ele><time>2026-04-18T08:01:17.041Z</time></trkpt><trkpt lat="37.7020292" lon="13.3118888"><ele>672.0</ele><time>2026-04-18T08:01:18.041Z</time></trkpt><trkpt lat="37.7021647" lon="13.3120083"><ele>671.0</ele><time>2026-04-18T08:01:19.041Z</time></trkpt><trkpt lat="37.702301" lon="13.3121018"><ele>670.0</ele><time>2026-04-18T08:01:20.041Z</time></trkpt><trkpt lat="37.7024277" lon="13.3121628"><ele>669.0</ele><time>2026-04-18T08:01:21.041Z</time></trkpt><trkpt lat="37.7025518" lon="13.3121781"><ele>668.0</ele><time>2026-04-18T08:01:22.041Z</time></trkpt><trkpt lat="37.7026923" lon="13.3121401"><ele>668.6666666666666</ele><time>2026-04-18T08:01:23.04Z</time></trkpt><trkpt lat="37.7028323" lon="13.3120336"><ele>669.3333333333334</ele><time>2026-04-18T08:01:24.041Z</time></trkpt><trkpt lat="37.7029933" lon="13.3118888"><ele>670.0</ele><time>2026-04-18T08:01:25.041Z</time></trkpt><trkpt lat="37.703143" lon="13.3117549"><ele>670.0</ele><time>2026-04-18T08:01:26.041Z</time></trkpt><trkpt lat="37.7032777" lon="13.3116425"><ele>670.0</ele><time>2026-04-18T08:01:27.041Z</time></trkpt><trkpt lat="37.7034055" lon="13.3115578"><ele>670.0</ele><time>2026-04-18T08:01:28.041Z</time></trkpt><trkpt lat="37.7035394" lon="13.3115189"><ele>670.0</ele><time>2026-04-18T08:01:29.04Z</time></trkpt><trkpt lat="37.7036954" lon="13.311539"><ele>669.3333333333334</ele><time>2026-04-18T08:01:30.041Z</time></trkpt><trkpt lat="37.7038671" lon="13.3116002"><ele>668.6666666666666</ele><time>2026-04-18T08:01:31.04Z</time></trkpt><trkpt lat="37.7040396" lon="13.3116777"><ele>668.0</ele><time>2026-04-18T08:01:32.041Z</time></trkpt><trkpt lat="37.7042022" lon="13.3117523"><ele>668.0</ele><time>2026-04-18T08:01:33.041Z</time></trkpt><trkpt lat="37.7043505" lon="13.3118019"><ele>668.0</ele><time>2026-04-18T08:01:34.041Z</time></trkpt><trkpt lat="37.7045039" lon="13.3117959"><ele>668.0</ele><time>2026-04-18T08:01:35.041Z</time></trkpt><trkpt lat="37.7046503" lon="13.3117094"><ele>668.6666666666666</ele><time>2026-04-18T08:01:36.041Z</time></trkpt><trkpt lat="37.7047776" lon="13.3116007"><ele>669.3333333333334</ele><time>2026-04-18T08:01:37.041Z</time></trkpt><trkpt lat="37.7049085" lon="13.3115019"><ele>670.0</ele><time>2026-04-18T08:01:38.04Z</time></trkpt><trkpt lat="37.7050645" lon="13.3114431"><ele>669.0</ele><time>2026-04-18T08:01:39.04Z</time></trkpt><trkpt lat="37.7052512" lon="13.3114236"><ele>668.0</ele><time>2026-04-18T08:01:40.041Z</time></trkpt><trkpt lat="37.7054282" lon="13.3114093"><ele>667.0</ele><time>2026-04-18T08:01:41.041Z</time></trkpt><trkpt lat="37.7055867" lon="13.3113983"><ele>667.0</ele><time>2026-04-18T08:01:42.041Z</time></trkpt><trkpt lat="37.7057279" lon="13.3114315"><ele>667.0</ele><time>2026-04-18T08:01:43.041Z</time></trkpt><trkpt lat="37.7058699" lon="13.3115164"><ele>667.0</ele><time>2026-04-18T08:01:44.041Z</time></trkpt><trkpt lat="37.7060221" lon="13.3116189"><ele>665.25</ele><time>2026-04-18T08:01:45.041Z</time></trkpt><trkpt lat="37.7061573" lon="13.3117501"><ele>663.5</ele><time>2026-04-18T08:01:46.041Z</time></trkpt><trkpt lat="37.7062583" lon="13.3118913"><ele>661.75</ele><time>2026-04-18T08:01:47.04Z</time></trkpt><trkpt lat="37.7063318" lon="13.3120214"><ele>660.0</ele><time>2026-04-18T08:01:48.04Z</time></trkpt><trkpt lat="37.7064166" lon="13.3120988"><ele>660.0</ele><time>2026-04-18T08:01:49.041Z</time></trkpt><trkpt lat="37.7065335" lon="13.3121671"><ele>660.0</ele><time>2026-04-18T08:01:50.041Z</time></trkpt><trkpt lat="37.7066706" lon="13.3122368"><ele>660.0</ele><time>2026-04-18T08:01:51.04Z</time></trkpt><trkpt lat="37.7068263" lon="13.3123218"><ele>660.0</ele><time>2026-04-18T08:01:52.04Z</time></trkpt><trkpt lat="37.7069698" lon="13.3123965"><ele>664.5</ele><time>2026-04-18T08:01:53.041Z</time></trkpt><trkpt lat="37.7071048" lon="13.3124674"><ele>669.0</ele><time>2026-04-18T08:01:54.041Z</time></trkpt><trkpt lat="37.7072269" lon="13.3125145"><ele>673.5</ele><time>2026-04-18T08:01:55.04Z</time></trkpt><trkpt lat="37.7073299" lon="13.3125173"><ele>678.0</ele><time>2026-04-18T08:01:56.041Z</time></trkpt><trkpt lat="37.7074351" lon="13.3124731"><ele>678.0</ele><time>2026-04-18T08:01:57.04Z</time></trkpt><trkpt lat="37.7075456" lon="13.3124107"><ele>678.0</ele><time>2026-04-18T08:01:58.041Z</time></trkpt><trkpt lat="37.70765" lon="13.3123322"><ele>678.0</ele><time>2026-04-18T08:01:59.041Z</time></trkpt><trkpt lat="37.7077429" lon="13.3122679"><ele>678.0</ele><time>2026-04-18T08:02:00.041Z</time></trkpt><trkpt lat="37.7078128" lon="13.3122043"><ele>678.0</ele><time>2026-04-18T08:02:01.041Z</time></trkpt><trkpt lat="37.7078657" lon="13.3121277"><ele>677.8</ele><time>2026-04-18T08:02:02.04Z</time></trkpt><trkpt lat="37.7078964" lon="13.3120171"><ele>677.5999999999999</ele><time>2026-04-18T08:02:03.04Z</time></trkpt><trkpt lat="37.7079147" lon="13.31188"><ele>677.4000000000001</ele><time>2026-04-18T08:02:04.041Z</time></trkpt><trkpt lat="37.7079244" lon="13.3117365"><ele>677.2</ele><time>2026-04-18T08:02:05.04Z</time></trkpt><trkpt lat="37.7078895" lon="13.3115801"><ele>677.0</ele><time>2026-04-18T08:02:06.041Z</time></trkpt><trkpt lat="37.7078143" lon="13.3114311"><ele>674.8</ele><time>2026-04-18T08:02:07.041Z</time></trkpt><trkpt lat="37.7077156" lon="13.3113221"><ele>672.6</ele><time>2026-04-18T08:02:08.04Z</time></trkpt><trkpt lat="37.7076182" lon="13.311267"><ele>670.4</ele><time>2026-04-18T08:02:09.041Z</time></trkpt><trkpt lat="37.7075407" lon="13.3112279"><ele>668.1999999999999</ele><time>2026-04-18T08:02:10.04Z</time></trkpt><trkpt lat="37.7074943" lon="13.3111709"><ele>666.0</ele><time>2026-04-18T08:02:11.041Z</time></trkpt><trkpt lat="37.7075152" lon="13.3110555"><ele>666.0</ele><time>2026-04-18T08:02:12.04Z</time></trkpt><trkpt lat="37.7075881" lon="13.3109713"><ele>666.0</ele><time>2026-04-18T08:02:13.04Z</time></trkpt><trkpt lat="37.7076924" lon="13.3109346"><ele>666.0</ele><time>2026-04-18T08:02:14.04Z</time></trkpt><trkpt lat="37.7077901" lon="13.3108859"><ele>666.0</ele><time>2026-04-18T08:02:15.041Z</time></trkpt><trkpt lat="37.7078632" lon="13.3107657"><ele>666.0</ele><time>2026-04-18T08:02:16.041Z</time></trkpt><trkpt lat="37.7079018" lon="13.3105565"><ele>674.3333333333334</ele><time>2026-04-18T08:02:17.041Z</time></trkpt><trkpt lat="37.7079232" lon="13.3102895"><ele>682.6666666666667</ele><time>2026-04-18T08:02:18.041Z</time></trkpt><trkpt lat="37.7079411" lon="13.3100194"><ele>691.0</ele><time>2026-04-18T08:02:19.041Z</time></trkpt><trkpt lat="37.7079581" lon="13.3098005"><ele>695.75</ele><time>2026-04-18T08:02:20.04Z</time></trkpt><trkpt lat="37.7079742" lon="13.3096351"><ele>700.5</ele><time>2026-04-18T08:02:21.04Z</time></trkpt><trkpt lat="37.7079545" lon="13.3094866"><ele>705.25</ele><time>2026-04-18T08:02:22.041Z</time></trkpt><trkpt lat="37.7078892" lon="13.3093411"><ele>710.0</ele><time>2026-04-18T08:02:23.04Z</time></trkpt><trkpt lat="37.7077923" lon="13.3092246"><ele>708.75</ele><time>2026-04-18T08:02:24.041Z</time></trkpt><trkpt lat="37.7076828" lon="13.3091419"><ele>707.5</ele><time>2026-04-18T08:02:25.041Z</time></trkpt><trkpt lat="37.7076178" lon="13.3090432"><ele>706.25</ele><time>2026-04-18T08:02:26.041Z</time></trkpt><trkpt lat="37.707619" lon="13.3088914"><ele>705.0</ele><time>2026-04-18T08:02:27.041Z</time></trkpt><trkpt lat="37.7076453" lon="13.308722"><ele>705.0</ele><time>2026-04-18T08:02:28.041Z</time></trkpt><trkpt lat="37.707621" lon="13.3085659"><ele>705.0</ele><time>2026-04-18T08:02:29.041Z</time></trkpt><trkpt lat="37.7075218" lon="13.3084156"><ele>705.0</ele><time>2026-04-18T08:02:30.041Z</time></trkpt><trkpt lat="37.7073987" lon="13.308285"><ele>705.0</ele><time>2026-04-18T08:02:31.04Z</time></trkpt><trkpt lat="37.707265" lon="13.3081972"><ele>705.0</ele><time>2026-04-18T08:02:32.041Z</time></trkpt><trkpt lat="37.7071323" lon="13.3081736"><ele>705.0</ele><time>2026-04-18T08:02:33.041Z</time></trkpt><trkpt lat="37.7070246" lon="13.3081465"><ele>705.0</ele><time>2026-04-18T08:02:34.041Z</time></trkpt><trkpt lat="37.7069571" lon="13.308061"><ele>705.0</ele><time>2026-04-18T08:02:35.041Z</time></trkpt><trkpt lat="37.7069192" lon="13.3079385"><ele>705.0</ele><time>2026-04-18T08:02:36.041Z</time></trkpt><trkpt lat="37.7069063" lon="13.307741"><ele>698.6666666666666</ele><time>2026-04-18T08:02:37.041Z</time></trkpt><trkpt lat="37.7069102" lon="13.3074914"><ele>692.3333333333333</ele><time>2026-04-18T08:02:38.041Z</time></trkpt><trkpt lat="37.7069162" lon="13.307226"><ele>686.0</ele><time>2026-04-18T08:02:39.041Z</time></trkpt><trkpt lat="37.7069229" lon="13.3069924"><ele>693.75</ele><time>2026-04-18T08:02:40.041Z</time></trkpt><trkpt lat="37.7069577" lon="13.3067923"><ele>701.5</ele><time>2026-04-18T08:02:41.041Z</time></trkpt><trkpt lat="37.7069764" lon="13.3066162"><ele>709.25</ele><time>2026-04-18T08:02:42.041Z</time></trkpt><trkpt lat="37.7069412" lon="13.3064406"><ele>717.0</ele><time>2026-04-18T08:02:43.04Z</time></trkpt><trkpt lat="37.7068594" lon="13.3062642"><ele>717.0</ele><time>2026-04-18T08:02:44.041Z</time></trkpt><trkpt lat="37.7067677" lon="13.3061114"><ele>717.0</ele><time>2026-04-18T08:02:45.041Z</time></trkpt><trkpt lat="37.7066873" lon="13.3059876"><ele>717.0</ele><time>2026-04-18T08:02:46.041Z</time></trkpt><trkpt lat="37.7065949" lon="13.3058887"><ele>717.0</ele><time>2026-04-18T08:02:47.041Z</time></trkpt><trkpt lat="37.7064882" lon="13.3058346"><ele>717.0</ele><time>2026-04-18T08:02:48.041Z</time></trkpt><trkpt lat="37.7063871" lon="13.3058462"><ele>717.0</ele><time>2026-04-18T08:02:49.041Z</time></trkpt><trkpt lat="37.706281" lon="13.3059282"><ele>717.0</ele><time>2026-04-18T08:02:50.041Z</time></trkpt><trkpt lat="37.706187" lon="13.306028"><ele>717.0</ele><time>2026-04-18T08:02:51.04Z</time></trkpt><trkpt lat="37.7060836" lon="13.3060593"><ele>715.75</ele><time>2026-04-18T08:02:52.04Z</time></trkpt><trkpt lat="37.7059963" lon="13.3060451"><ele>714.5</ele><time>2026-04-18T08:02:53.041Z</time></trkpt><trkpt lat="37.7059235" lon="13.3059419"><ele>713.25</ele><time>2026-04-18T08:02:54.041Z</time></trkpt><trkpt lat="37.705833" lon="13.3057715"><ele>712.0</ele><time>2026-04-18T08:02:55.04Z</time></trkpt><trkpt lat="37.7057032" lon="13.3055873"><ele>714.75</ele><time>2026-04-18T08:02:56.04Z</time></trkpt><trkpt lat="37.7055679" lon="13.3054388"><ele>717.5</ele><time>2026-04-18T08:02:57.04Z</time></trkpt><trkpt lat="37.7054594" lon="13.3053269"><ele>720.25</ele><time>2026-04-18T08:02:58.04Z</time></trkpt><trkpt lat="37.7054025" lon="13.3052247"><ele>723.0</ele><time>2026-04-18T08:02:59.041Z</time></trkpt><trkpt lat="37.7054071" lon="13.3050951"><ele>723.0</ele><time>2026-04-18T08:03:00.04Z</time></trkpt><trkpt lat="37.7054422" lon="13.3049293"><ele>723.0</ele><time>2026-04-18T08:03:01.04Z</time></trkpt><trkpt lat="37.7054905" lon="13.3047359"><ele>723.0</ele><time>2026-04-18T08:03:02.04Z</time></trkpt><trkpt lat="37.7055205" lon="13.3045253"><ele>725.3333333333334</ele><time>2026-04-18T08:03:03.041Z</time></trkpt><trkpt lat="37.7055531" lon="13.3043258"><ele>727.6666666666667</ele><time>2026-04-18T08:03:04.041Z</time></trkpt><trkpt lat="37.7056173" lon="13.3041361"><ele>730.0</ele><time>2026-04-18T08:03:05.041Z</time></trkpt><trkpt lat="37.7057107" lon="13.3039461"><ele>729.5</ele><time>2026-04-18T08:03:06.04Z</time></trkpt><trkpt lat="37.7057994" lon="13.3037688"><ele>729.0</ele><time>2026-04-18T08:03:07.04Z</time></trkpt><trkpt lat="37.70587" lon="13.3036014"><ele>728.5</ele><time>2026-04-18T08:03:08.041Z</time></trkpt><trkpt lat="37.7059035" lon="13.3034407"><ele>728.0</ele><time>2026-04-18T08:03:09.04Z</time></trkpt><trkpt lat="37.7058835" lon="13.3032576"><ele>731.6666666666666</ele><time>2026-04-18T08:03:10.04Z</time></trkpt><trkpt lat="37.7058352" lon="13.3030729"><ele>735.3333333333334</ele><time>2026-04-18T08:03:11.041Z</time></trkpt><trkpt lat="37.705801" lon="13.3028725"><ele>739.0</ele><time>2026-04-18T08:03:12.041Z</time></trkpt><trkpt lat="37.7057848" lon="13.3026354"><ele>739.0</ele><time>2026-04-18T08:03:13.04Z</time></trkpt><trkpt lat="37.7057723" lon="13.3023959"><ele>739.0</ele><time>2026-04-18T08:03:14.041Z</time></trkpt><trkpt lat="37.7057462" lon="13.3021748"><ele>739.0</ele><time>2026-04-18T08:03:15.04Z</time></trkpt><trkpt lat="37.7056971" lon="13.3019929"><ele>738.75</ele><time>2026-04-18T08:03:16.041Z</time></trkpt><trkpt lat="37.7056576" lon="13.3018363"><ele>738.5</ele><time>2026-04-18T08:03:17.041Z</time></trkpt><trkpt lat="37.7056565" lon="13.3016759"><ele>738.25</ele><time>2026-04-18T08:03:18.04Z</time></trkpt><trkpt lat="37.705696" lon="13.3014997"><ele>738.0</ele><time>2026-04-18T08:03:19.041Z</time></trkpt><trkpt lat="37.7057484" lon="13.3013004"><ele>738.0</ele><time>2026-04-18T08:03:20.041Z</time></trkpt><trkpt lat="37.7058244" lon="13.30112"><ele>738.0</ele><time>2026-04-18T08:03:21.04Z</time></trkpt><trkpt lat="37.7059102" lon="13.3009829"><ele>738.0</ele><time>2026-04-18T08:03:22.041Z</time></trkpt><trkpt lat="37.7060058" lon="13.3008819"><ele>738.0</ele><time>2026-04-18T08:03:23.041Z</time></trkpt><trkpt lat="37.7061052" lon="13.3007865"><ele>744.25</ele><time>2026-04-18T08:03:24.041Z</time></trkpt><trkpt lat="37.7061793" lon="13.3006732"><ele>750.5</ele><time>2026-04-18T08:03:25.041Z</time></trkpt><trkpt lat="37.7062228" lon="13.3005532"><ele>756.75</ele><time>2026-04-18T08:03:26.041Z</time></trkpt><trkpt lat="37.7062468" lon="13.3004144"><ele>763.0</ele><time>2026-04-18T08:03:27.041Z</time></trkpt><trkpt lat="37.706242" lon="13.3002513"><ele>763.0</ele><time>2026-04-18T08:03:28.041Z</time></trkpt><trkpt lat="37.7062367" lon="13.3000865"><ele>763.0</ele><time>2026-04-18T08:03:29.04Z</time></trkpt><trkpt lat="37.7062477" lon="13.2999276"><ele>763.0</ele><time>2026-04-18T08:03:30.041Z</time></trkpt><trkpt lat="37.7062867" lon="13.2997896"><ele>763.0</ele><time>2026-04-18T08:03:31.041Z</time></trkpt><trkpt lat="37.7063589" lon="13.2996668"><ele>758.0</ele><time>2026-04-18T08:03:32.041Z</time></trkpt><trkpt lat="37.706451" lon="13.2995358"><ele>753.0</ele><time>2026-04-18T08:03:33.041Z</time></trkpt><trkpt lat="37.706557" lon="13.2993986"><ele>748.0</ele><time>2026-04-18T08:03:34.041Z</time></trkpt><trkpt lat="37.7066677" lon="13.2992695"><ele>743.0</ele><time>2026-04-18T08:03:35.041Z</time></trkpt><trkpt lat="37.7067616" lon="13.2991417"><ele>743.0</ele><time>2026-04-18T08:03:36.041Z</time></trkpt><trkpt lat="37.706825" lon="13.299006"><ele>743.0</ele><time>2026-04-18T08:03:37.041Z</time></trkpt><trkpt lat="37.706848" lon="13.2988268"><ele>743.0</ele><time>2026-04-18T08:03:38.04Z</time></trkpt><trkpt lat="37.7068601" lon="13.2986246"><ele>743.0</ele><time>2026-04-18T08:03:39.041Z</time></trkpt><trkpt lat="37.7068651" lon="13.2984184"><ele>742.0</ele><time>2026-04-18T08:03:40.04Z</time></trkpt><trkpt lat="37.7068768" lon="13.2982086"><ele>741.0</ele><time>2026-04-18T08:03:41.04Z</time></trkpt><trkpt lat="37.7068828" lon="13.2980133"><ele>740.0</ele><time>2026-04-18T08:03:42.041Z</time></trkpt><trkpt lat="37.7068733" lon="13.2978321"><ele>740.0</ele><time>2026-04-18T08:03:43.04Z</time></trkpt><trkpt lat="37.7068286" lon="13.2976573"><ele>740.0</ele><time>2026-04-18T08:03:44.04Z</time></trkpt><trkpt lat="37.7067397" lon="13.2975183"><ele>740.0</ele><time>2026-04-18T08:03:45.041Z</time></trkpt><trkpt lat="37.7066171" lon="13.2974147"><ele>740.0</ele><time>2026-04-18T08:03:46.04Z</time></trkpt><trkpt lat="37.7064864" lon="13.2973309"><ele>744.6666666666666</ele><time>2026-04-18T08:03:47.041Z</time></trkpt><trkpt lat="37.7063816" lon="13.2972053"><ele>749.3333333333334</ele><time>2026-04-18T08:03:48.041Z</time></trkpt><trkpt lat="37.706291" lon="13.2970249"><ele>754.0</ele><time>2026-04-18T08:03:49.041Z</time></trkpt><trkpt lat="37.706191" lon="13.2968304"><ele>745.6666666666667</ele><time>2026-04-18T08:03:50.041Z</time></trkpt><trkpt lat="37.7060778" lon="13.2966655"><ele>737.3333333333334</ele><time>2026-04-18T08:03:51.041Z</time></trkpt><trkpt lat="37.7059689" lon="13.2965329"><ele>729.0</ele><time>2026-04-18T08:03:52.041Z</time></trkpt><trkpt lat="37.7058694" lon="13.2964317"><ele>732.75</ele><time>2026-04-18T08:03:53.041Z</time></trkpt><trkpt lat="37.7057345" lon="13.296391"><ele>736.5</ele><time>2026-04-18T08:03:54.041Z</time></trkpt><trkpt lat="37.7055794" lon="13.2963878"><ele>740.25</ele><time>2026-04-18T08:03:55.04Z</time></trkpt><trkpt lat="37.7054363" lon="13.2963663"><ele>744.0</ele><time>2026-04-18T08:03:56.04Z</time></trkpt><trkpt lat="37.7053109" lon="13.2963165"><ele>741.0</ele><time>2026-04-18T08:03:57.04Z</time></trkpt><trkpt lat="37.7052006" lon="13.2962647"><ele>738.0</ele><time>2026-04-18T08:03:58.041Z</time></trkpt><trkpt lat="37.7051053" lon="13.2962164"><ele>735.0</ele><time>2026-04-18T08:03:59.041Z</time></trkpt><trkpt lat="37.7050256" lon="13.2961493"><ele>732.0</ele><time>2026-04-18T08:04:00.04Z</time></trkpt><trkpt lat="37.7049618" lon="13.2960537"><ele>729.0</ele><time>2026-04-18T08:04:01.04Z</time></trkpt><trkpt lat="37.7049077" lon="13.2959247"><ele>729.0</ele><time>2026-04-18T08:04:02.041Z</time></trkpt><trkpt lat="37.7048412" lon="13.2957731"><ele>729.0</ele><time>2026-04-18T08:04:03.041Z</time></trkpt><trkpt lat="37.7047415" lon="13.2956122"><ele>729.0</ele><time>2026-04-18T08:04:04.041Z</time></trkpt><trkpt lat="37.7046173" lon="13.295451"><ele>730.3333333333334</ele><time>2026-04-18T08:04:05.041Z</time></trkpt><trkpt lat="37.7044846" lon="13.2953033"><ele>731.6666666666667</ele><time>2026-04-18T08:04:06.041Z</time></trkpt><trkpt lat="37.7043561" lon="13.2951652"><ele>733.0</ele><time>2026-04-18T08:04:07.041Z</time></trkpt><trkpt lat="37.7042471" lon="13.2950426"><ele>730.25</ele><time>2026-04-18T08:04:08.041Z</time></trkpt><trkpt lat="37.7041715" lon="13.2949125"><ele>727.5</ele><time>2026-04-18T08:04:09.041Z</time></trkpt><trkpt lat="37.70413" lon="13.294753"><ele>724.75</ele><time>2026-04-18T08:04:10.041Z</time></trkpt><trkpt lat="37.7041041" lon="13.2945506"><ele>722.0</ele><time>2026-04-18T08:04:11.04Z</time></trkpt><trkpt lat="37.70408" lon="13.2943205"><ele>721.3333333333333</ele><time>2026-04-18T08:04:12.041Z</time></trkpt><trkpt lat="37.7040456" lon="13.2940836"><ele>720.6666666666666</ele><time>2026-04-18T08:04:13.04Z</time></trkpt><trkpt lat="37.7040161" lon="13.2938537"><ele>720.0</ele><time>2026-04-18T08:04:14.04Z</time></trkpt><trkpt lat="37.7039881" lon="13.2936473"><ele>719.0</ele><time>2026-04-18T08:04:15.041Z</time></trkpt><trkpt lat="37.7039881" lon="13.2934676"><ele>718.0</ele><time>2026-04-18T08:04:16.04Z</time></trkpt><trkpt lat="37.7040096" lon="13.2932929"><ele>717.0</ele><time>2026-04-18T08:04:17.041Z</time></trkpt><trkpt lat="37.7040765" lon="13.2931233"><ele>716.0</ele><time>2026-04-18T08:04:18.04Z</time></trkpt><trkpt lat="37.7041534" lon="13.2929593"><ele>714.6666666666666</ele><time>2026-04-18T08:04:19.041Z</time></trkpt><trkpt lat="37.7041856" lon="13.2927774"><ele>713.3333333333334</ele><time>2026-04-18T08:04:20.041Z</time></trkpt><trkpt lat="37.7041785" lon="13.2925671"><ele>712.0</ele><time>2026-04-18T08:04:21.04Z</time></trkpt><trkpt lat="37.7041636" lon="13.2923297"><ele>711.0</ele><time>2026-04-18T08:04:22.041Z</time></trkpt><trkpt lat="37.7041648" lon="13.292078"><ele>710.0</ele><time>2026-04-18T08:04:23.041Z</time></trkpt><trkpt lat="37.7041878" lon="13.2918318"><ele>709.0</ele><time>2026-04-18T08:04:24.04Z</time></trkpt><trkpt lat="37.7041973" lon="13.2915993"><ele>707.6666666666667</ele><time>2026-04-18T08:04:25.041Z</time></trkpt><trkpt lat="37.7041842" lon="13.2913807"><ele>706.3333333333334</ele><time>2026-04-18T08:04:26.041Z</time></trkpt><trkpt lat="37.7041298" lon="13.29116"><ele>705.0</ele><time>2026-04-18T08:04:27.04Z</time></trkpt><trkpt lat="37.7040705" lon="13.2909676"><ele>705.0</ele><time>2026-04-18T08:04:28.041Z</time></trkpt><trkpt lat="37.7040475" lon="13.2907764"><ele>705.0</ele><time>2026-04-18T08:04:29.04Z</time></trkpt><trkpt lat="37.7040605" lon="13.2905624"><ele>705.0</ele><time>2026-04-18T08:04:30.041Z</time></trkpt><trkpt lat="37.7040953" lon="13.2903489"><ele>704.3333333333334</ele><time>2026-04-18T08:04:31.041Z</time></trkpt><trkpt lat="37.704114" lon="13.2901337"><ele>703.6666666666667</ele><time>2026-04-18T08:04:32.04Z</time></trkpt><trkpt lat="37.7041052" lon="13.2899078"><ele>703.0</ele><time>2026-04-18T08:04:33.041Z</time></trkpt><trkpt lat="37.7040497" lon="13.2896842"><ele>702.5</ele><time>2026-04-18T08:04:34.041Z</time></trkpt><trkpt lat="37.7039819" lon="13.2895014"><ele>702.0</ele><time>2026-04-18T08:04:35.041Z</time></trkpt><trkpt lat="37.7039377" lon="13.2893592"><ele>701.5</ele><time>2026-04-18T08:04:36.041Z</time></trkpt><trkpt lat="37.7039267" lon="13.2892481"><ele>701.0</ele><time>2026-04-18T08:04:37.041Z</time></trkpt><trkpt lat="37.7039639" lon="13.289135"><ele>701.0</ele><time>2026-04-18T08:04:38.041Z</time></trkpt><trkpt lat="37.7040405" lon="13.2890024"><ele>701.0</ele><time>2026-04-18T08:04:39.04Z</time></trkpt><trkpt lat="37.7041373" lon="13.2888748"><ele>701.0</ele><time>2026-04-18T08:04:40.041Z</time></trkpt><trkpt lat="37.7042022" lon="13.2887349"><ele>701.0</ele><time>2026-04-18T08:04:41.04Z</time></trkpt><trkpt lat="37.7042386" lon="13.2885829"><ele>700.25</ele><time>2026-04-18T08:04:42.041Z</time></trkpt><trkpt lat="37.7042566" lon="13.2884481"><ele>699.5</ele><time>2026-04-18T08:04:43.04Z</time></trkpt><trkpt lat="37.7042129" lon="13.2883235"><ele>698.75</ele><time>2026-04-18T08:04:44.041Z</time></trkpt><trkpt lat="37.7041248" lon="13.2881973"><ele>698.0</ele><time>2026-04-18T08:04:45.04Z</time></trkpt><trkpt lat="37.7040119" lon="13.2880971"><ele>700.6666666666666</ele><time>2026-04-18T08:04:46.04Z</time></trkpt><trkpt lat="37.703893" lon="13.2879931"><ele>703.3333333333334</ele><time>2026-04-18T08:04:47.041Z</time></trkpt><trkpt lat="37.7037837" lon="13.2878518"><ele>706.0</ele><time>2026-04-18T08:04:48.041Z</time></trkpt><trkpt lat="37.7036986" lon="13.2876836"><ele>706.0</ele><time>2026-04-18T08:04:49.041Z</time></trkpt><trkpt lat="37.7035986" lon="13.2875349"><ele>706.0</ele><time>2026-04-18T08:04:50.041Z</time></trkpt><trkpt lat="37.7034528" lon="13.2874283"><ele>706.0</ele><time>2026-04-18T08:04:51.041Z</time></trkpt><trkpt lat="37.7032848" lon="13.2873681"><ele>701.3333333333334</ele><time>2026-04-18T08:04:52.041Z</time></trkpt><trkpt lat="37.7031204" lon="13.2873439"><ele>696.6666666666666</ele><time>2026-04-18T08:04:53.04Z</time></trkpt><trkpt lat="37.7029493" lon="13.2873546"><ele>692.0</ele><time>2026-04-18T08:04:54.041Z</time></trkpt><trkpt lat="37.7027902" lon="13.2873954"><ele>691.75</ele><time>2026-04-18T08:04:55.041Z</time></trkpt><trkpt lat="37.7026599" lon="13.2874338"><ele>691.5</ele><time>2026-04-18T08:04:56.041Z</time></trkpt><trkpt lat="37.7025242" lon="13.287417"><ele>691.25</ele><time>2026-04-18T08:04:57.041Z</time></trkpt><trkpt lat="37.7023803" lon="13.2873462"><ele>691.0</ele><time>2026-04-18T08:04:58.041Z</time></trkpt><trkpt lat="37.7022492" lon="13.2872586"><ele>691.0</ele><time>2026-04-18T08:04:59.041Z</time></trkpt><trkpt lat="37.7021534" lon="13.2871409"><ele>691.0</ele><time>2026-04-18T08:05:00.041Z</time></trkpt><trkpt lat="37.7020851" lon="13.2869848"><ele>691.0</ele><time>2026-04-18T08:05:01.04Z</time></trkpt><trkpt lat="37.702028" lon="13.286802"><ele>691.0</ele><time>2026-04-18T08:05:02.041Z</time></trkpt><trkpt lat="37.7019576" lon="13.2866532"><ele>688.0</ele><time>2026-04-18T08:05:03.04Z</time></trkpt><trkpt lat="37.7018451" lon="13.2865567"><ele>685.0</ele><time>2026-04-18T08:05:04.041Z</time></trkpt><trkpt lat="37.7017071" lon="13.2865136"><ele>682.0</ele><time>2026-04-18T08:05:05.04Z</time></trkpt><trkpt lat="37.7015678" lon="13.2864997"><ele>679.0</ele><time>2026-04-18T08:05:06.041Z</time></trkpt><trkpt lat="37.7014542" lon="13.2864843"><ele>680.5</ele><time>2026-04-18T08:05:07.04Z</time></trkpt><trkpt lat="37.7013711" lon="13.2864151"><ele>682.0</ele><time>2026-04-18T08:05:08.041Z</time></trkpt><trkpt lat="37.7013141" lon="13.2862833"><ele>683.5</ele><time>2026-04-18T08:05:09.041Z</time></trkpt><trkpt lat="37.7012725" lon="13.2860976"><ele>685.0</ele><time>2026-04-18T08:05:10.041Z</time></trkpt><trkpt lat="37.7012234" lon="13.2859061"><ele>685.0</ele><time>2026-04-18T08:05:11.041Z</time></trkpt><trkpt lat="37.7011411" lon="13.2857454"><ele>685.0</ele><time>2026-04-18T08:05:12.041Z</time></trkpt><trkpt lat="37.7010137" lon="13.2856328"><ele>685.0</ele><time>2026-04-18T08:05:13.041Z</time></trkpt><trkpt lat="37.7008633" lon="13.2855565"><ele>683.5</ele><time>2026-04-18T08:05:14.041Z</time></trkpt><trkpt lat="37.7007445" lon="13.2854876"><ele>682.0</ele><time>2026-04-18T08:05:15.041Z</time></trkpt><trkpt lat="37.700663" lon="13.2853801"><ele>680.5</ele><time>2026-04-18T08:05:16.041Z</time></trkpt><trkpt lat="37.7006221" lon="13.2852221"><ele>679.0</ele><time>2026-04-18T08:05:17.041Z</time></trkpt><trkpt lat="37.7006168" lon="13.2850154"><ele>679.3333333333334</ele><time>2026-04-18T08:05:18.041Z</time></trkpt><trkpt lat="37.7006533" lon="13.2847617"><ele>679.6666666666666</ele><time>2026-04-18T08:05:19.04Z</time></trkpt><trkpt lat="37.7006814" lon="13.2845261"><ele>680.0</ele><time>2026-04-18T08:05:20.041Z</time></trkpt><trkpt lat="37.7007002" lon="13.2843338"><ele>680.0</ele><time>2026-04-18T08:05:21.041Z</time></trkpt><trkpt lat="37.7006837" lon="13.2841615"><ele>680.0</ele><time>2026-04-18T08:05:22.041Z</time></trkpt><trkpt lat="37.7006244" lon="13.2839796"><ele>680.0</ele><time>2026-04-18T08:05:23.041Z</time></trkpt><trkpt lat="37.7005063" lon="13.2838224"><ele>681.3333333333333</ele><time>2026-04-18T08:05:24.04Z</time></trkpt><trkpt lat="37.7003663" lon="13.2836679"><ele>682.6666666666666</ele><time>2026-04-18T08:05:25.041Z</time></trkpt><trkpt lat="37.7002397" lon="13.2835205"><ele>684.0</ele><time>2026-04-18T08:05:26.04Z</time></trkpt><trkpt lat="37.7001318" lon="13.2834027"><ele>682.4000000000001</ele><time>2026-04-18T08:05:27.041Z</time></trkpt><trkpt lat="37.7000422" lon="13.2833241"><ele>680.8</ele><time>2026-04-18T08:05:28.04Z</time></trkpt><trkpt lat="37.6999497" lon="13.2832964"><ele>679.2</ele><time>2026-04-18T08:05:29.04Z</time></trkpt><trkpt lat="37.699844" lon="13.2833285"><ele>677.5999999999999</ele><time>2026-04-18T08:05:30.041Z</time></trkpt><trkpt lat="37.6997314" lon="13.2834124"><ele>676.0</ele><time>2026-04-18T08:05:31.041Z</time></trkpt><trkpt lat="37.6996335" lon="13.2835261"><ele>676.0</ele><time>2026-04-18T08:05:32.041Z</time></trkpt><trkpt lat="37.6995226" lon="13.2835826"><ele>676.0</ele><time>2026-04-18T08:05:33.041Z</time></trkpt><trkpt lat="37.6993814" lon="13.2835882"><ele>676.0</ele><time>2026-04-18T08:05:34.041Z</time></trkpt><trkpt lat="37.6992241" lon="13.2835417"><ele>676.0</ele><time>2026-04-18T08:05:35.041Z</time></trkpt><trkpt lat="37.6990598" lon="13.2834532"><ele>675.0</ele><time>2026-04-18T08:05:36.041Z</time></trkpt><trkpt lat="37.6988738" lon="13.2833542"><ele>674.0</ele><time>2026-04-18T08:05:37.04Z</time></trkpt><trkpt lat="37.6986829" lon="13.2832561"><ele>673.0</ele><time>2026-04-18T08:05:38.041Z</time></trkpt><trkpt lat="37.6985023" lon="13.2831701"><ele>672.3333333333334</ele><time>2026-04-18T08:05:39.041Z</time></trkpt><trkpt lat="37.698341" lon="13.2830992"><ele>671.6666666666666</ele><time>2026-04-18T08:05:40.04Z</time></trkpt><trkpt lat="37.6981706" lon="13.2830667"><ele>671.0</ele><time>2026-04-18T08:05:41.04Z</time></trkpt><trkpt lat="37.6979968" lon="13.2830692"><ele>671.0</ele><time>2026-04-18T08:05:42.041Z</time></trkpt><trkpt lat="37.6978401" lon="13.2831102"><ele>671.0</ele><time>2026-04-18T08:05:43.041Z</time></trkpt><trkpt lat="37.6976971" lon="13.2831864"><ele>671.0</ele><time>2026-04-18T08:05:44.041Z</time></trkpt><trkpt lat="37.6975766" lon="13.2833197"><ele>671.3333333333333</ele><time>2026-04-18T08:05:45.041Z</time></trkpt><trkpt lat="37.6974561" lon="13.2834868"><ele>671.6666666666666</ele><time>2026-04-18T08:05:46.04Z</time></trkpt><trkpt lat="37.6973529" lon="13.2836309"><ele>672.0</ele><time>2026-04-18T08:05:47.04Z</time></trkpt><trkpt lat="37.6972476" lon="13.2837463"><ele>672.0</ele><time>2026-04-18T08:05:48.041Z</time></trkpt><trkpt lat="37.6971103" lon="13.283819"><ele>672.0</ele><time>2026-04-18T08:05:49.041Z</time></trkpt><trkpt lat="37.6969524" lon="13.2838508"><ele>672.0</ele><time>2026-04-18T08:05:50.041Z</time></trkpt><trkpt lat="37.6967708" lon="13.2838418"><ele>672.3333333333334</ele><time>2026-04-18T08:05:51.04Z</time></trkpt><trkpt lat="37.696563" lon="13.2837738"><ele>672.6666666666667</ele><time>2026-04-18T08:05:52.041Z</time></trkpt><trkpt lat="37.6963618" lon="13.2836857"><ele>673.0</ele><time>2026-04-18T08:05:53.041Z</time></trkpt><trkpt lat="37.6961638" lon="13.2836085"><ele>671.3333333333334</ele><time>2026-04-18T08:05:54.04Z</time></trkpt><trkpt lat="37.6959837" lon="13.2835462"><ele>669.6666666666666</ele><time>2026-04-18T08:05:55.041Z</time></trkpt><trkpt lat="37.6958225" lon="13.2834542"><ele>668.0</ele><time>2026-04-18T08:05:56.04Z</time></trkpt><trkpt lat="37.6956586" lon="13.2833282"><ele>668.0</ele><time>2026-04-18T08:05:57.041Z</time></trkpt><trkpt lat="37.6954991" lon="13.2831817"><ele>668.0</ele><time>2026-04-18T08:05:58.04Z</time></trkpt><trkpt lat="37.6953451" lon="13.2830239"><ele>668.0</ele><time>2026-04-18T08:05:59.041Z</time></trkpt><trkpt lat="37.6952006" lon="13.2828613"><ele>668.3333333333333</ele><time>2026-04-18T08:06:00.041Z</time></trkpt><trkpt lat="37.6950638" lon="13.2826927"><ele>668.6666666666666</ele><time>2026-04-18T08:06:01.041Z</time></trkpt><trkpt lat="37.6949389" lon="13.2825206"><ele>669.0</ele><time>2026-04-18T08:06:02.041Z</time></trkpt><trkpt lat="37.6948235" lon="13.2823307"><ele>669.6666666666666</ele><time>2026-04-18T08:06:03.04Z</time></trkpt><trkpt lat="37.6947147" lon="13.2821285"><ele>670.3333333333333</ele><time>2026-04-18T08:06:04.04Z</time></trkpt><trkpt lat="37.6946165" lon="13.2819167"><ele>671.0</ele><time>2026-04-18T08:06:05.041Z</time></trkpt><trkpt lat="37.6945313" lon="13.2816985"><ele>671.0</ele><time>2026-04-18T08:06:06.041Z</time></trkpt><trkpt lat="37.6944545" lon="13.2814726"><ele>671.0</ele><time>2026-04-18T08:06:07.041Z</time></trkpt><trkpt lat="37.6943751" lon="13.2812427"><ele>671.0</ele><time>2026-04-18T08:06:08.041Z</time></trkpt><trkpt lat="37.6942961" lon="13.2810134"><ele>669.3333333333333</ele><time>2026-04-18T08:06:09.041Z</time></trkpt><trkpt lat="37.6942044" lon="13.2807925"><ele>667.6666666666666</ele><time>2026-04-18T08:06:10.041Z</time></trkpt><trkpt lat="37.6941039" lon="13.2805708"><ele>666.0</ele><time>2026-04-18T08:06:11.041Z</time></trkpt><trkpt lat="37.6939886" lon="13.2803582"><ele>665.0</ele><time>2026-04-18T08:06:12.041Z</time></trkpt><trkpt lat="37.6938753" lon="13.2801587"><ele>664.0</ele><time>2026-04-18T08:06:13.041Z</time></trkpt><trkpt lat="37.6937657" lon="13.279969"><ele>663.0</ele><time>2026-04-18T08:06:14.04Z</time></trkpt><trkpt lat="37.6936746" lon="13.2798035"><ele>662.5</ele><time>2026-04-18T08:06:15.041Z</time></trkpt><trkpt lat="37.6936031" lon="13.2796707"><ele>662.0</ele><time>2026-04-18T08:06:16.041Z</time></trkpt><trkpt lat="37.6935522" lon="13.2795678"><ele>661.5</ele><time>2026-04-18T08:06:17.041Z</time></trkpt><trkpt lat="37.6935052" lon="13.2794933"><ele>661.0</ele><time>2026-04-18T08:06:18.041Z</time></trkpt><trkpt lat="37.6934528" lon="13.2794484"><ele>660.5</ele><time>2026-04-18T08:06:19.041Z</time></trkpt><trkpt lat="37.6933725" lon="13.2794296"><ele>660.0</ele><time>2026-04-18T08:06:20.041Z</time></trkpt><trkpt lat="37.69327" lon="13.2794313"><ele>657.0</ele><time>2026-04-18T08:06:21.04Z</time></trkpt><trkpt lat="37.6931392" lon="13.2794727"><ele>654.0</ele><time>2026-04-18T08:06:22.041Z</time></trkpt><trkpt lat="37.6929638" lon="13.2795164"><ele>651.0</ele><time>2026-04-18T08:06:23.041Z</time></trkpt><trkpt lat="37.6927685" lon="13.2795641"><ele>651.0</ele><time>2026-04-18T08:06:24.04Z</time></trkpt><trkpt lat="37.6925784" lon="13.279604"><ele>651.0</ele><time>2026-04-18T08:06:25.041Z</time></trkpt><trkpt lat="37.6924059" lon="13.279639"><ele>651.0</ele><time>2026-04-18T08:06:26.04Z</time></trkpt><trkpt lat="37.6922444" lon="13.2796742"><ele>651.0</ele><time>2026-04-18T08:06:27.041Z</time></trkpt><trkpt lat="37.692099" lon="13.2797017"><ele>651.0</ele><time>2026-04-18T08:06:28.041Z</time></trkpt><trkpt lat="37.6919826" lon="13.2797361"><ele>651.0</ele><time>2026-04-18T08:06:29.04Z</time></trkpt><trkpt lat="37.6918952" lon="13.2797896"><ele>651.0</ele><time>2026-04-18T08:06:30.041Z</time></trkpt><trkpt lat="37.6918282" lon="13.2797996"><ele>651.0</ele><time>2026-04-18T08:06:31.041Z</time></trkpt><trkpt lat="37.6917624" lon="13.2797889"><ele>649.5</ele><time>2026-04-18T08:06:32.041Z</time></trkpt><trkpt lat="37.6916778" lon="13.2797496"><ele>648.0</ele><time>2026-04-18T08:06:33.04Z</time></trkpt><trkpt lat="37.6915706" lon="13.2796696"><ele>646.5</ele><time>2026-04-18T08:06:34.04Z</time></trkpt><trkpt lat="37.6914583" lon="13.2795446"><ele>645.0</ele><time>2026-04-18T08:06:35.041Z</time></trkpt><trkpt lat="37.6913601" lon="13.2793883"><ele>645.0</ele><time>2026-04-18T08:06:36.041Z</time></trkpt><trkpt lat="37.6912666" lon="13.27921"><ele>645.0</ele><time>2026-04-18T08:06:37.041Z</time></trkpt><trkpt lat="37.6911987" lon="13.2789902"><ele>645.0</ele><time>2026-04-18T08:06:38.041Z</time></trkpt><trkpt lat="37.6911508" lon="13.2787499"><ele>645.6666666666666</ele><time>2026-04-18T08:06:39.04Z</time></trkpt><trkpt lat="37.6910999" lon="13.278499"><ele>646.3333333333333</ele><time>2026-04-18T08:06:40.04Z</time></trkpt><trkpt lat="37.691046" lon="13.2782461"><ele>647.0</ele><time>2026-04-18T08:06:41.04Z</time></trkpt><trkpt lat="37.6909879" lon="13.2780034"><ele>647.0</ele><time>2026-04-18T08:06:42.041Z</time></trkpt><trkpt lat="37.6909295" lon="13.2777677"><ele>647.0</ele><time>2026-04-18T08:06:43.041Z</time></trkpt><trkpt lat="37.6908747" lon="13.2775376"><ele>647.0</ele><time>2026-04-18T08:06:44.041Z</time></trkpt><trkpt lat="37.6908192" lon="13.2773087"><ele>644.6666666666666</ele><time>2026-04-18T08:06:45.041Z</time></trkpt><trkpt lat="37.6907633" lon="13.2770847"><ele>642.3333333333334</ele><time>2026-04-18T08:06:46.041Z</time></trkpt><trkpt lat="37.690711" lon="13.2768657"><ele>640.0</ele><time>2026-04-18T08:06:47.041Z</time></trkpt><trkpt lat="37.6906561" lon="13.2766584"><ele>640.0</ele><time>2026-04-18T08:06:48.04Z</time></trkpt><trkpt lat="37.6905969" lon="13.2764675"><ele>640.0</ele><time>2026-04-18T08:06:49.041Z</time></trkpt><trkpt lat="37.6905188" lon="13.276313"><ele>640.0</ele><time>2026-04-18T08:06:50.04Z</time></trkpt><trkpt lat="37.6904064" lon="13.2762086"><ele>640.0</ele><time>2026-04-18T08:06:51.041Z</time></trkpt><trkpt lat="37.6902709" lon="13.2761353"><ele>638.6666666666667</ele><time>2026-04-18T08:06:52.04Z</time></trkpt><trkpt lat="37.690122" lon="13.2761435"><ele>637.3333333333334</ele><time>2026-04-18T08:06:53.041Z</time></trkpt><trkpt lat="37.6899574" lon="13.276202"><ele>636.0</ele><time>2026-04-18T08:06:54.04Z</time></trkpt><trkpt lat="37.689789" lon="13.2763183"><ele>638.3333333333334</ele><time>2026-04-18T08:06:55.04Z</time></trkpt><trkpt lat="37.68963" lon="13.2764542"><ele>640.6666666666667</ele><time>2026-04-18T08:06:56.041Z</time></trkpt><trkpt lat="37.6894815" lon="13.2765657"><ele>643.0</ele><time>2026-04-18T08:06:57.041Z</time></trkpt><trkpt lat="37.6893449" lon="13.2766672"><ele>643.0</ele><time>2026-04-18T08:06:58.041Z</time></trkpt><trkpt lat="37.6892091" lon="13.2767656"><ele>643.0</ele><time>2026-04-18T08:06:59.041Z</time></trkpt><trkpt lat="37.6890835" lon="13.2768579"><ele>643.0</ele><time>2026-04-18T08:07:00.041Z</time></trkpt><trkpt lat="37.6889643" lon="13.2769407"><ele>643.0</ele><time>2026-04-18T08:07:01.04Z</time></trkpt><trkpt lat="37.6888332" lon="13.2769864"><ele>643.0</ele><time>2026-04-18T08:07:02.04Z</time></trkpt><trkpt lat="37.6886883" lon="13.2769765"><ele>643.0</ele><time>2026-04-18T08:07:03.04Z</time></trkpt><trkpt lat="37.6885352" lon="13.2769095"><ele>643.0</ele><time>2026-04-18T08:07:04.04Z</time></trkpt><trkpt lat="37.6883646" lon="13.2768234"><ele>642.0</ele><time>2026-04-18T08:07:05.041Z</time></trkpt><trkpt lat="37.6881865" lon="13.2767695"><ele>641.0</ele><time>2026-04-18T08:07:06.041Z</time></trkpt><trkpt lat="37.6880087" lon="13.276763"><ele>640.0</ele><time>2026-04-18T08:07:07.041Z</time></trkpt><trkpt lat="37.6878201" lon="13.2768"><ele>638.6666666666667</ele><time>2026-04-18T08:07:08.04Z</time></trkpt><trkpt lat="37.6876346" lon="13.2768758"><ele>637.3333333333334</ele><time>2026-04-18T08:07:09.041Z</time></trkpt><trkpt lat="37.6874482" lon="13.2769971"><ele>636.0</ele><time>2026-04-18T08:07:10.041Z</time></trkpt><trkpt lat="37.6872618" lon="13.2771512"><ele>636.3333333333334</ele><time>2026-04-18T08:07:11.041Z</time></trkpt><trkpt lat="37.6870801" lon="13.2773142"><ele>636.6666666666667</ele><time>2026-04-18T08:07:12.041Z</time></trkpt><trkpt lat="37.686897" lon="13.2774618"><ele>637.0</ele><time>2026-04-18T08:07:13.041Z</time></trkpt><trkpt lat="37.6867071" lon="13.2776063"><ele>637.0</ele><time>2026-04-18T08:07:14.05Z</time></trkpt><trkpt lat="37.6865115" lon="13.2777403"><ele>637.0</ele><time>2026-04-18T08:07:15.05Z</time></trkpt><trkpt lat="37.6863103" lon="13.2778568"><ele>637.0</ele><time>2026-04-18T08:07:16.05Z</time></trkpt><trkpt lat="37.6861002" lon="13.2779521"><ele>632.0</ele><time>2026-04-18T08:07:17.049Z</time></trkpt><trkpt lat="37.6858843" lon="13.2780297"><ele>627.0</ele><time>2026-04-18T08:07:18.05Z</time></trkpt><trkpt lat="37.6856632" lon="13.2780993"><ele>630.0</ele><time>2026-04-18T08:07:19.05Z</time></trkpt><trkpt lat="37.6854386" lon="13.2781616"><ele>633.0</ele><time>2026-04-18T08:07:20.049Z</time></trkpt><trkpt lat="37.6852144" lon="13.2782198"><ele>633.0</ele><time>2026-04-18T08:07:21.049Z</time></trkpt><trkpt lat="37.6849927" lon="13.2782863"><ele>633.0</ele><time>2026-04-18T08:07:22.049Z</time></trkpt><trkpt lat="37.6847802" lon="13.2783581"><ele>633.0</ele><time>2026-04-18T08:07:23.05Z</time></trkpt><trkpt lat="37.6845812" lon="13.2784225"><ele>632.3333333333334</ele><time>2026-04-18T08:07:24.05Z</time></trkpt><trkpt lat="37.684403" lon="13.2784813"><ele>631.6666666666667</ele><time>2026-04-18T08:07:25.05Z</time></trkpt><trkpt lat="37.684239" lon="13.2785434"><ele>631.0</ele><time>2026-04-18T08:07:26.05Z</time></trkpt><trkpt lat="37.684081" lon="13.278646"><ele>631.0</ele><time>2026-04-18T08:07:27.049Z</time></trkpt><trkpt lat="37.6839197" lon="13.2788053"><ele>631.0</ele><time>2026-04-18T08:07:28.05Z</time></trkpt><trkpt lat="37.6837679" lon="13.2789864"><ele>631.0</ele><time>2026-04-18T08:07:29.05Z</time></trkpt><trkpt lat="37.6836339" lon="13.2791605"><ele>630.0</ele><time>2026-04-18T08:07:30.05Z</time></trkpt><trkpt lat="37.6835238" lon="13.2793153"><ele>629.0</ele><time>2026-04-18T08:07:31.05Z</time></trkpt><trkpt lat="37.6834212" lon="13.2794369"><ele>628.0</ele><time>2026-04-18T08:07:32.05Z</time></trkpt><trkpt lat="37.6833161" lon="13.2795249"><ele>627.0</ele><time>2026-04-18T08:07:33.049Z</time></trkpt><trkpt lat="37.6832019" lon="13.2795552"><ele>627.0</ele><time>2026-04-18T08:07:34.05Z</time></trkpt><trkpt lat="37.6830659" lon="13.279534"><ele>627.0</ele><time>2026-04-18T08:07:35.05Z</time></trkpt><trkpt lat="37.6829359" lon="13.2794601"><ele>627.0</ele><time>2026-04-18T08:07:36.05Z</time></trkpt><trkpt lat="37.6828237" lon="13.2793351"><ele>627.0</ele><time>2026-04-18T08:07:37.05Z</time></trkpt><trkpt lat="37.682755" lon="13.2791617"><ele>627.6666666666666</ele><time>2026-04-18T08:07:38.05Z</time></trkpt><trkpt lat="37.6827212" lon="13.2789475"><ele>628.3333333333333</ele><time>2026-04-18T08:07:39.05Z</time></trkpt><trkpt lat="37.6827253" lon="13.2787056"><ele>629.0</ele><time>2026-04-18T08:07:40.05Z</time></trkpt><trkpt lat="37.6827343" lon="13.2784642"><ele>629.0</ele><time>2026-04-18T08:07:41.05Z</time></trkpt><trkpt lat="37.6827214" lon="13.2782482"><ele>629.0</ele><time>2026-04-18T08:07:42.05Z</time></trkpt><trkpt lat="37.6826914" lon="13.2780434"><ele>629.0</ele><time>2026-04-18T08:07:43.05Z</time></trkpt><trkpt lat="37.682624" lon="13.2778592"><ele>626.75</ele><time>2026-04-18T08:07:44.049Z</time></trkpt><trkpt lat="37.6825124" lon="13.2776984"><ele>624.5</ele><time>2026-04-18T08:07:45.05Z</time></trkpt><trkpt lat="37.6823985" lon="13.2775941"><ele>622.25</ele><time>2026-04-18T08:07:46.049Z</time></trkpt><trkpt lat="37.6822819" lon="13.2775468"><ele>620.0</ele><time>2026-04-18T08:07:47.05Z</time></trkpt><trkpt lat="37.6821637" lon="13.2775581"><ele>620.0</ele><time>2026-04-18T08:07:48.05Z</time></trkpt><trkpt lat="37.6820657" lon="13.277626"><ele>620.0</ele><time>2026-04-18T08:07:49.05Z</time></trkpt><trkpt lat="37.6819779" lon="13.2777692"><ele>620.0</ele><time>2026-04-18T08:07:50.049Z</time></trkpt><trkpt lat="37.6818994" lon="13.2779147"><ele>620.0</ele><time>2026-04-18T08:07:51.049Z</time></trkpt><trkpt lat="37.6818153" lon="13.2780114"><ele>620.6</ele><time>2026-04-18T08:07:52.05Z</time></trkpt><trkpt lat="37.6817233" lon="13.2780584"><ele>621.2</ele><time>2026-04-18T08:07:53.049Z</time></trkpt><trkpt lat="37.6816303" lon="13.2780494"><ele>621.8</ele><time>2026-04-18T08:07:54.049Z</time></trkpt><trkpt lat="37.6815485" lon="13.2779775"><ele>622.4</ele><time>2026-04-18T08:07:55.049Z</time></trkpt><trkpt lat="37.6815094" lon="13.2778761"><ele>623.0</ele><time>2026-04-18T08:07:56.05Z</time></trkpt><trkpt lat="37.6814953" lon="13.277717"><ele>623.0</ele><time>2026-04-18T08:07:57.05Z</time></trkpt><trkpt lat="37.681479" lon="13.2774909"><ele>623.0</ele><time>2026-04-18T08:07:58.05Z</time></trkpt><trkpt lat="37.6814504" lon="13.2772528"><ele>623.0</ele><time>2026-04-18T08:07:59.049Z</time></trkpt><trkpt lat="37.681426" lon="13.2770254"><ele>621.6666666666666</ele><time>2026-04-18T08:08:00.05Z</time></trkpt><trkpt lat="37.6814298" lon="13.2768075"><ele>620.3333333333334</ele><time>2026-04-18T08:08:01.049Z</time></trkpt><trkpt lat="37.681464" lon="13.2765794"><ele>619.0</ele><time>2026-04-18T08:08:02.049Z</time></trkpt><trkpt lat="37.6815042" lon="13.2763674"><ele>616.6666666666667</ele><time>2026-04-18T08:08:03.05Z</time></trkpt><trkpt lat="37.6815217" lon="13.276162"><ele>614.3333333333334</ele><time>2026-04-18T08:08:04.05Z</time></trkpt><trkpt lat="37.6815013" lon="13.2759501"><ele>612.0</ele><time>2026-04-18T08:08:05.05Z</time></trkpt><trkpt lat="37.6814361" lon="13.2757654"><ele>615.0</ele><time>2026-04-18T08:08:06.05Z</time></trkpt><trkpt lat="37.6813358" lon="13.2755897"><ele>618.0</ele><time>2026-04-18T08:08:07.05Z</time></trkpt><trkpt lat="37.6812098" lon="13.2754467"><ele>621.0</ele><time>2026-04-18T08:08:08.05Z</time></trkpt><trkpt lat="37.681062" lon="13.2753193"><ele>621.0</ele><time>2026-04-18T08:08:09.049Z</time></trkpt><trkpt lat="37.6809208" lon="13.2752266"><ele>621.0</ele><time>2026-04-18T08:08:10.05Z</time></trkpt><trkpt lat="37.6807941" lon="13.2751572"><ele>621.0</ele><time>2026-04-18T08:08:11.049Z</time></trkpt><trkpt lat="37.6806759" lon="13.2751042"><ele>621.0</ele><time>2026-04-18T08:08:12.05Z</time></trkpt><trkpt lat="37.6805731" lon="13.275065"><ele>621.0</ele><time>2026-04-18T08:08:13.049Z</time></trkpt><trkpt lat="37.6804829" lon="13.2750067"><ele>621.0</ele><time>2026-04-18T08:08:14.049Z</time></trkpt><trkpt lat="37.6804137" lon="13.2749179"><ele>621.0</ele><time>2026-04-18T08:08:15.049Z</time></trkpt><trkpt lat="37.6803771" lon="13.2748007"><ele>621.0</ele><time>2026-04-18T08:08:16.05Z</time></trkpt><trkpt lat="37.6803709" lon="13.2746948"><ele>621.0</ele><time>2026-04-18T08:08:17.05Z</time></trkpt><trkpt lat="37.6803845" lon="13.2746142"><ele>621.0</ele><time>2026-04-18T08:08:18.049Z</time></trkpt><trkpt lat="37.6804292" lon="13.2745178"><ele>618.2</ele><time>2026-04-18T08:08:20.05Z</time></trkpt><trkpt lat="37.68049" lon="13.2744589"><ele>615.4000000000001</ele><time>2026-04-18T08:08:23.05Z</time></trkpt><trkpt lat="37.6805319" lon="13.2743924"><ele>612.6</ele><time>2026-04-18T08:08:28.05Z</time></trkpt><trkpt lat="37.6805227" lon="13.2742564"><ele>609.8000000000001</ele><time>2026-04-18T08:09:03.05Z</time></trkpt><trkpt lat="37.6804842" lon="13.2740974"><ele>607.0</ele><time>2026-04-18T08:09:05.049Z</time></trkpt><trkpt lat="37.6804847" lon="13.2739762"><ele>605.25</ele><time>2026-04-18T08:09:06.05Z</time></trkpt><trkpt lat="37.6805067" lon="13.2738386"><ele>603.5</ele><time>2026-04-18T08:09:07.05Z</time></trkpt><trkpt lat="37.6805206" lon="13.2737078"><ele>601.75</ele><time>2026-04-18T08:09:08.049Z</time></trkpt><trkpt lat="37.6804888" lon="13.2735721"><ele>600.0</ele><time>2026-04-18T08:09:09.049Z</time></trkpt><trkpt lat="37.6804179" lon="13.2734406"><ele>600.0</ele><time>2026-04-18T08:09:10.05Z</time></trkpt><trkpt lat="37.6803321" lon="13.2733206"><ele>600.0</ele><time>2026-04-18T08:09:11.05Z</time></trkpt><trkpt lat="37.6802627" lon="13.2732064"><ele>600.0</ele><time>2026-04-18T08:09:12.05Z</time></trkpt><trkpt lat="37.6801944" lon="13.2730991"><ele>600.0</ele><time>2026-04-18T08:09:13.05Z</time></trkpt><trkpt lat="37.6801259" lon="13.2730063"><ele>602.4</ele><time>2026-04-18T08:09:14.05Z</time></trkpt><trkpt lat="37.6800568" lon="13.2729314"><ele>604.8</ele><time>2026-04-18T08:09:15.049Z</time></trkpt><trkpt lat="37.6799856" lon="13.2728691"><ele>607.2</ele><time>2026-04-18T08:09:16.05Z</time></trkpt><trkpt lat="37.6799061" lon="13.2728163"><ele>609.6</ele><time>2026-04-18T08:09:17.05Z</time></trkpt><trkpt lat="37.6798156" lon="13.2727768"><ele>612.0</ele><time>2026-04-18T08:09:18.05Z</time></trkpt><trkpt lat="37.6797336" lon="13.2727388"><ele>612.0</ele><time>2026-04-18T08:09:19.05Z</time></trkpt><trkpt lat="37.6796585" lon="13.2727044"><ele>612.0</ele><time>2026-04-18T08:09:20.05Z</time></trkpt><trkpt lat="37.6795831" lon="13.2726853"><ele>612.0</ele><time>2026-04-18T08:09:21.049Z</time></trkpt><trkpt lat="37.6795029" lon="13.2726617"><ele>612.0</ele><time>2026-04-18T08:09:22.05Z</time></trkpt><trkpt lat="37.6794246" lon="13.2726308"><ele>612.0</ele><time>2026-04-18T08:09:23.05Z</time></trkpt><trkpt lat="37.6793523" lon="13.2725917"><ele>612.0</ele><time>2026-04-18T08:09:24.049Z</time></trkpt><trkpt lat="37.6792868" lon="13.2725433"><ele>612.5</ele><time>2026-04-18T08:09:25.05Z</time></trkpt><trkpt lat="37.6792228" lon="13.2724959"><ele>613.0</ele><time>2026-04-18T08:09:26.049Z</time></trkpt><trkpt lat="37.6791564" lon="13.2724422"><ele>613.5</ele><time>2026-04-18T08:09:27.05Z</time></trkpt><trkpt lat="37.6790851" lon="13.2723851"><ele>614.0</ele><time>2026-04-18T08:09:28.05Z</time></trkpt><trkpt lat="37.6790136" lon="13.2723234"><ele>614.5</ele><time>2026-04-18T08:09:29.05Z</time></trkpt><trkpt lat="37.678944" lon="13.2722605"><ele>615.0</ele><time>2026-04-18T08:09:30.05Z</time></trkpt><trkpt lat="37.6788732" lon="13.2721994"><ele>613.3333333333334</ele><time>2026-04-18T08:09:31.05Z</time></trkpt><trkpt lat="37.6787998" lon="13.272137"><ele>611.6666666666666</ele><time>2026-04-18T08:09:32.05Z</time></trkpt><trkpt lat="37.6787235" lon="13.2720709"><ele>610.0</ele><time>2026-04-18T08:09:33.05Z</time></trkpt><trkpt lat="37.6786487" lon="13.272011"><ele>608.3333333333333</ele><time>2026-04-18T08:09:34.05Z</time></trkpt><trkpt lat="37.6785803" lon="13.2719479"><ele>606.6666666666666</ele><time>2026-04-18T08:09:35.049Z</time></trkpt><trkpt lat="37.6785201" lon="13.271895"><ele>605.0</ele><time>2026-04-18T08:09:36.05Z</time></trkpt><trkpt lat="37.67843" lon="13.2718083"><ele>605.0</ele><time>2026-04-18T08:09:38.049Z</time></trkpt><trkpt lat="37.6783537" lon="13.2717388"><ele>605.0</ele><time>2026-04-18T08:09:40.049Z</time></trkpt><trkpt lat="37.6783028" lon="13.2716907"><ele>605.0</ele><time>2026-04-18T08:09:41.05Z</time></trkpt><trkpt lat="37.6782531" lon="13.2716365"><ele>605.0</ele><time>2026-04-18T08:09:42.05Z</time></trkpt><trkpt lat="37.6781938" lon="13.2715541"><ele>605.0</ele><time>2026-04-18T08:09:44.05Z</time></trkpt><trkpt lat="37.6781395" lon="13.2714728"><ele>605.0</ele><time>2026-04-18T08:09:47.049Z</time></trkpt><trkpt lat="37.67806" lon="13.2713477"><ele>604.5</ele><time>2026-04-18T08:09:49.05Z</time></trkpt><trkpt lat="37.6780208" lon="13.2712509"><ele>604.0</ele><time>2026-04-18T08:09:50.049Z</time></trkpt><trkpt lat="37.6780078" lon="13.2711483"><ele>603.5</ele><time>2026-04-18T08:09:51.05Z</time></trkpt><trkpt lat="37.678019" lon="13.2710555"><ele>603.0</ele><time>2026-04-18T08:09:52.05Z</time></trkpt><trkpt lat="37.6780823" lon="13.2709377"><ele>602.5</ele><time>2026-04-18T08:09:54.049Z</time></trkpt><trkpt lat="37.6781571" lon="13.2708731"><ele>602.0</ele><time>2026-04-18T08:09:56.05Z</time></trkpt><trkpt lat="37.6782375" lon="13.2708064"><ele>602.0</ele><time>2026-04-18T08:09:58.05Z</time></trkpt><trkpt lat="37.6782941" lon="13.2707443"><ele>602.0</ele><time>2026-04-18T08:10:00.05Z</time></trkpt><trkpt lat="37.6783555" lon="13.2707002"><ele>602.0</ele><time>2026-04-18T08:10:01.05Z</time></trkpt><trkpt lat="37.6784521" lon="13.2706351"><ele>602.0</ele><time>2026-04-18T08:10:02.05Z</time></trkpt><trkpt lat="37.6785814" lon="13.2705656"><ele>602.0</ele><time>2026-04-18T08:10:03.049Z</time></trkpt><trkpt lat="37.6787082" lon="13.2704739"><ele>601.2</ele><time>2026-04-18T08:10:04.05Z</time></trkpt><trkpt lat="37.6788149" lon="13.270393"><ele>600.4000000000001</ele><time>2026-04-18T08:10:05.049Z</time></trkpt><trkpt lat="37.6789093" lon="13.2703226"><ele>599.5999999999999</ele><time>2026-04-18T08:10:06.049Z</time></trkpt><trkpt lat="37.6789986" lon="13.2702596"><ele>598.8</ele><time>2026-04-18T08:10:07.05Z</time></trkpt><trkpt lat="37.6790871" lon="13.2702019"><ele>598.0</ele><time>2026-04-18T08:10:08.049Z</time></trkpt><trkpt lat="37.6791763" lon="13.2701402"><ele>598.0</ele><time>2026-04-18T08:10:09.049Z</time></trkpt><trkpt lat="37.6792594" lon="13.2700798"><ele>598.0</ele><time>2026-04-18T08:10:10.05Z</time></trkpt><trkpt lat="37.6793354" lon="13.2700216"><ele>598.0</ele><time>2026-04-18T08:10:11.05Z</time></trkpt><trkpt lat="37.6794087" lon="13.2699696"><ele>598.0</ele><time>2026-04-18T08:10:12.05Z</time></trkpt><trkpt lat="37.6794806" lon="13.2699221"><ele>598.0</ele><time>2026-04-18T08:10:13.049Z</time></trkpt><trkpt lat="37.6795408" lon="13.269887"><ele>598.0</ele><time>2026-04-18T08:10:14.049Z</time></trkpt><trkpt lat="37.6796189" lon="13.2698424"><ele>595.8</ele><time>2026-04-18T08:10:17.05Z</time></trkpt><trkpt lat="37.6797059" lon="13.2697935"><ele>593.5999999999999</ele><time>2026-04-18T08:10:22.05Z</time></trkpt><trkpt lat="37.6797597" lon="13.2697496"><ele>591.4000000000001</ele><time>2026-04-18T08:10:23.049Z</time></trkpt><trkpt lat="37.6798281" lon="13.2696884"><ele>589.2</ele><time>2026-04-18T08:10:24.049Z</time></trkpt><trkpt lat="37.6799104" lon="13.2696066"><ele>587.0</ele><time>2026-04-18T08:10:25.05Z</time></trkpt><trkpt lat="37.679976" lon="13.2695061"><ele>586.8000000000001</ele><time>2026-04-18T08:10:26.05Z</time></trkpt><trkpt lat="37.6800099" lon="13.2693999"><ele>586.6</ele><time>2026-04-18T08:10:27.05Z</time></trkpt><trkpt lat="37.6800037" lon="13.2692818"><ele>586.4000000000001</ele><time>2026-04-18T08:10:28.05Z</time></trkpt><trkpt lat="37.6799473" lon="13.2691753"><ele>586.2</ele><time>2026-04-18T08:10:29.05Z</time></trkpt><trkpt lat="37.6798579" lon="13.2690801"><ele>586.0</ele><time>2026-04-18T08:10:30.05Z</time></trkpt><trkpt lat="37.6797536" lon="13.2689787"><ele>584.6666666666667</ele><time>2026-04-18T08:10:31.049Z</time></trkpt><trkpt lat="37.6796407" lon="13.2688683"><ele>583.3333333333334</ele><time>2026-04-18T08:10:32.049Z</time></trkpt><trkpt lat="37.6795208" lon="13.2687481"><ele>582.0</ele><time>2026-04-18T08:10:33.05Z</time></trkpt><trkpt lat="37.6793922" lon="13.2686201"><ele>582.0</ele><time>2026-04-18T08:10:34.05Z</time></trkpt><trkpt lat="37.6792601" lon="13.2684842"><ele>582.0</ele><time>2026-04-18T08:10:35.05Z</time></trkpt><trkpt lat="37.6791265" lon="13.2683519"><ele>582.0</ele><time>2026-04-18T08:10:36.05Z</time></trkpt><trkpt lat="37.6789926" lon="13.2682187"><ele>577.3333333333334</ele><time>2026-04-18T08:10:37.05Z</time></trkpt><trkpt lat="37.6788637" lon="13.2680953"><ele>572.6666666666667</ele><time>2026-04-18T08:10:38.049Z</time></trkpt><trkpt lat="37.6787402" lon="13.2679734"><ele>568.0</ele><time>2026-04-18T08:10:39.05Z</time></trkpt><trkpt lat="37.6786341" lon="13.2678514"><ele>569.1999999999999</ele><time>2026-04-18T08:10:40.05Z</time></trkpt><trkpt lat="37.6785473" lon="13.2677365"><ele>570.4</ele><time>2026-04-18T08:10:41.049Z</time></trkpt><trkpt lat="37.6784891" lon="13.2676283"><ele>571.5999999999999</ele><time>2026-04-18T08:10:42.049Z</time></trkpt><trkpt lat="37.6784645" lon="13.2675197"><ele>572.8</ele><time>2026-04-18T08:10:43.05Z</time></trkpt><trkpt lat="37.6784681" lon="13.2673933"><ele>574.0</ele><time>2026-04-18T08:10:44.05Z</time></trkpt><trkpt lat="37.6784894" lon="13.2672429"><ele>574.0</ele><time>2026-04-18T08:10:45.05Z</time></trkpt><trkpt lat="37.6785166" lon="13.2670869"><ele>574.0</ele><time>2026-04-18T08:10:46.05Z</time></trkpt><trkpt lat="37.6785503" lon="13.2669172"><ele>574.0</ele><time>2026-04-18T08:10:47.05Z</time></trkpt><trkpt lat="37.678592" lon="13.266732"><ele>574.0</ele><time>2026-04-18T08:10:48.05Z</time></trkpt><trkpt lat="37.6786328" lon="13.266531"><ele>568.6666666666667</ele><time>2026-04-18T08:10:49.049Z</time></trkpt><trkpt lat="37.6786772" lon="13.2663223"><ele>563.3333333333334</ele><time>2026-04-18T08:10:50.05Z</time></trkpt><trkpt lat="37.6787208" lon="13.2661002"><ele>558.0</ele><time>2026-04-18T08:10:51.05Z</time></trkpt><trkpt lat="37.678766" lon="13.2658776"><ele>558.0</ele><time>2026-04-18T08:10:52.05Z</time></trkpt><trkpt lat="37.6788104" lon="13.2656463"><ele>558.0</ele><time>2026-04-18T08:10:53.049Z</time></trkpt><trkpt lat="37.6788532" lon="13.2654146"><ele>558.0</ele><time>2026-04-18T08:10:54.049Z</time></trkpt><trkpt lat="37.6788943" lon="13.2651906"><ele>558.3333333333334</ele><time>2026-04-18T08:10:55.049Z</time></trkpt><trkpt lat="37.6789386" lon="13.2649755"><ele>558.6666666666667</ele><time>2026-04-18T08:10:56.05Z</time></trkpt><trkpt lat="37.6789822" lon="13.2647668"><ele>559.0</ele><time>2026-04-18T08:10:57.05Z</time></trkpt><trkpt lat="37.6790224" lon="13.264565"><ele>558.3333333333334</ele><time>2026-04-18T08:10:58.05Z</time></trkpt><trkpt lat="37.6790513" lon="13.2643698"><ele>557.6666666666666</ele><time>2026-04-18T08:10:59.049Z</time></trkpt><trkpt lat="37.6790661" lon="13.2641786"><ele>557.0</ele><time>2026-04-18T08:11:00.049Z</time></trkpt><trkpt lat="37.6790654" lon="13.2639729"><ele>557.3333333333333</ele><time>2026-04-18T08:11:01.049Z</time></trkpt><trkpt lat="37.6790537" lon="13.2637496"><ele>557.6666666666666</ele><time>2026-04-18T08:11:02.05Z</time></trkpt><trkpt lat="37.6790274" lon="13.2635097"><ele>558.0</ele><time>2026-04-18T08:11:03.05Z</time></trkpt><trkpt lat="37.6789961" lon="13.2632594"><ele>557.3333333333334</ele><time>2026-04-18T08:11:04.049Z</time></trkpt><trkpt lat="37.6789578" lon="13.2630168"><ele>556.6666666666667</ele><time>2026-04-18T08:11:05.05Z</time></trkpt><trkpt lat="37.6789195" lon="13.2627953"><ele>556.0</ele><time>2026-04-18T08:11:06.05Z</time></trkpt><trkpt lat="37.6788874" lon="13.2625887"><ele>556.0</ele><time>2026-04-18T08:11:07.05Z</time></trkpt><trkpt lat="37.6788699" lon="13.2623912"><ele>556.0</ele><time>2026-04-18T08:11:08.05Z</time></trkpt><trkpt lat="37.6788772" lon="13.262204"><ele>556.0</ele><time>2026-04-18T08:11:09.05Z</time></trkpt><trkpt lat="37.678914" lon="13.2620258"><ele>552.5</ele><time>2026-04-18T08:11:10.05Z</time></trkpt><trkpt lat="37.678979" lon="13.2618745"><ele>549.0</ele><time>2026-04-18T08:11:11.05Z</time></trkpt><trkpt lat="37.6790818" lon="13.2617657"><ele>545.5</ele><time>2026-04-18T08:11:12.049Z</time></trkpt><trkpt lat="37.6792232" lon="13.2616884"><ele>542.0</ele><time>2026-04-18T08:11:13.05Z</time></trkpt><trkpt lat="37.6793744" lon="13.2616618"><ele>541.0</ele><time>2026-04-18T08:11:14.05Z</time></trkpt><trkpt lat="37.6795215" lon="13.2616694"><ele>540.0</ele><time>2026-04-18T08:11:15.05Z</time></trkpt><trkpt lat="37.6796702" lon="13.2617182"><ele>539.0</ele><time>2026-04-18T08:11:16.049Z</time></trkpt><trkpt lat="37.6797947" lon="13.2618138"><ele>538.0</ele><time>2026-04-18T08:11:17.05Z</time></trkpt><trkpt lat="37.6799017" lon="13.261943"><ele>538.0</ele><time>2026-04-18T08:11:18.05Z</time></trkpt><trkpt lat="37.6799846" lon="13.2621146"><ele>538.0</ele><time>2026-04-18T08:11:19.05Z</time></trkpt><trkpt lat="37.6800338" lon="13.2623142"><ele>538.0</ele><time>2026-04-18T08:11:20.05Z</time></trkpt><trkpt lat="37.6800618" lon="13.2625416"><ele>539.6666666666667</ele><time>2026-04-18T08:11:21.05Z</time></trkpt><trkpt lat="37.6800973" lon="13.2627928"><ele>541.3333333333334</ele><time>2026-04-18T08:11:22.05Z</time></trkpt><trkpt lat="37.6801401" lon="13.2630456"><ele>543.0</ele><time>2026-04-18T08:11:23.049Z</time></trkpt><trkpt lat="37.6801816" lon="13.263302"><ele>544.6666666666666</ele><time>2026-04-18T08:11:24.05Z</time></trkpt><trkpt lat="37.680221" lon="13.2635515"><ele>546.3333333333333</ele><time>2026-04-18T08:11:25.05Z</time></trkpt><trkpt lat="37.6802594" lon="13.2637909"><ele>548.0</ele><time>2026-04-18T08:11:26.05Z</time></trkpt><trkpt lat="37.6802963" lon="13.2640151"><ele>540.3333333333333</ele><time>2026-04-18T08:11:27.05Z</time></trkpt><trkpt lat="37.6803308" lon="13.2642297"><ele>532.6666666666666</ele><time>2026-04-18T08:11:28.049Z</time></trkpt><trkpt lat="37.6803603" lon="13.2644205"><ele>525.0</ele><time>2026-04-18T08:11:29.049Z</time></trkpt><trkpt lat="37.6803925" lon="13.2645743"><ele>525.0</ele><time>2026-04-18T08:11:30.05Z</time></trkpt><trkpt lat="37.6804391" lon="13.2646891"><ele>525.0</ele><time>2026-04-18T08:11:31.05Z</time></trkpt><trkpt lat="37.6805045" lon="13.2647561"><ele>525.0</ele><time>2026-04-18T08:11:32.05Z</time></trkpt><trkpt lat="37.680576" lon="13.2647771"><ele>525.0</ele><time>2026-04-18T08:11:33.05Z</time></trkpt><trkpt lat="37.6806461" lon="13.2647375"><ele>525.0</ele><time>2026-04-18T08:11:34.05Z</time></trkpt><trkpt lat="37.6807082" lon="13.2646572"><ele>525.0</ele><time>2026-04-18T08:11:35.049Z</time></trkpt><trkpt lat="37.6807378" lon="13.2645282"><ele>525.0</ele><time>2026-04-18T08:11:36.049Z</time></trkpt><trkpt lat="37.6807427" lon="13.2643677"><ele>525.0</ele><time>2026-04-18T08:11:37.05Z</time></trkpt><trkpt lat="37.6807469" lon="13.2641842"><ele>525.0</ele><time>2026-04-18T08:11:38.049Z</time></trkpt><trkpt lat="37.6807551" lon="13.2639766"><ele>525.0</ele><time>2026-04-18T08:11:39.05Z</time></trkpt><trkpt lat="37.6807626" lon="13.263741"><ele>524.3333333333334</ele><time>2026-04-18T08:11:40.049Z</time></trkpt><trkpt lat="37.6807675" lon="13.2634943"><ele>523.6666666666667</ele><time>2026-04-18T08:11:41.049Z</time></trkpt><trkpt lat="37.680773" lon="13.2632405"><ele>523.0</ele><time>2026-04-18T08:11:42.049Z</time></trkpt><trkpt lat="37.6807794" lon="13.2629734"><ele>522.3333333333334</ele><time>2026-04-18T08:11:43.049Z</time></trkpt><trkpt lat="37.6807857" lon="13.2627077"><ele>521.6666666666666</ele><time>2026-04-18T08:11:44.05Z</time></trkpt><trkpt lat="37.6807911" lon="13.2624596"><ele>521.0</ele><time>2026-04-18T08:11:45.049Z</time></trkpt><trkpt lat="37.6807937" lon="13.2622235"><ele>519.3333333333333</ele><time>2026-04-18T08:11:46.05Z</time></trkpt><trkpt lat="37.6807865" lon="13.2619915"><ele>517.6666666666666</ele><time>2026-04-18T08:11:47.05Z</time></trkpt><trkpt lat="37.6807637" lon="13.2617557"><ele>516.0</ele><time>2026-04-18T08:11:48.049Z</time></trkpt><trkpt lat="37.6807194" lon="13.261518"><ele>513.6666666666666</ele><time>2026-04-18T08:11:49.05Z</time></trkpt><trkpt lat="37.6806395" lon="13.2612853"><ele>511.3333333333333</ele><time>2026-04-18T08:11:50.049Z</time></trkpt><trkpt lat="37.6805349" lon="13.2610522"><ele>509.0</ele><time>2026-04-18T08:11:51.049Z</time></trkpt><trkpt lat="37.6804219" lon="13.2608251"><ele>507.3333333333333</ele><time>2026-04-18T08:11:52.05Z</time></trkpt><trkpt lat="37.6803141" lon="13.260614"><ele>505.66666666666663</ele><time>2026-04-18T08:11:53.049Z</time></trkpt><trkpt lat="37.6802141" lon="13.2604162"><ele>504.0</ele><time>2026-04-18T08:11:54.05Z</time></trkpt><trkpt lat="37.6801322" lon="13.2602545"><ele>503.75</ele><time>2026-04-18T08:11:55.049Z</time></trkpt><trkpt lat="37.6800465" lon="13.2601354"><ele>503.5</ele><time>2026-04-18T08:11:56.049Z</time></trkpt><trkpt lat="37.6799414" lon="13.2600547"><ele>503.25</ele><time>2026-04-18T08:11:57.05Z</time></trkpt><trkpt lat="37.6798121" lon="13.2600414"><ele>503.0</ele><time>2026-04-18T08:11:58.05Z</time></trkpt><trkpt lat="37.6796541" lon="13.2601058"><ele>503.0</ele><time>2026-04-18T08:11:59.05Z</time></trkpt><trkpt lat="37.679488" lon="13.2602005"><ele>503.0</ele><time>2026-04-18T08:12:00.05Z</time></trkpt><trkpt lat="37.6793398" lon="13.2602927"><ele>503.0</ele><time>2026-04-18T08:12:01.05Z</time></trkpt><trkpt lat="37.6792151" lon="13.2603632"><ele>502.79999999999995</ele><time>2026-04-18T08:12:02.049Z</time></trkpt><trkpt lat="37.6791248" lon="13.2604004"><ele>502.59999999999997</ele><time>2026-04-18T08:12:03.049Z</time></trkpt><trkpt lat="37.6790517" lon="13.2603802"><ele>502.40000000000003</ele><time>2026-04-18T08:12:04.05Z</time></trkpt><trkpt lat="37.6789868" lon="13.2603105"><ele>502.20000000000005</ele><time>2026-04-18T08:12:05.05Z</time></trkpt><trkpt lat="37.6789373" lon="13.2601792"><ele>502.0</ele><time>2026-04-18T08:12:06.05Z</time></trkpt><trkpt lat="37.6789094" lon="13.2599997"><ele>502.0</ele><time>2026-04-18T08:12:07.049Z</time></trkpt><trkpt lat="37.6788827" lon="13.2598116"><ele>502.0</ele><time>2026-04-18T08:12:08.049Z</time></trkpt><trkpt lat="37.6788565" lon="13.2595977"><ele>502.0</ele><time>2026-04-18T08:12:09.05Z</time></trkpt><trkpt lat="37.6788327" lon="13.2594047"><ele>502.5</ele><time>2026-04-18T08:12:10.05Z</time></trkpt><trkpt lat="37.6788058" lon="13.2592256"><ele>503.0</ele><time>2026-04-18T08:12:11.049Z</time></trkpt><trkpt lat="37.6788055" lon="13.259063"><ele>503.5</ele><time>2026-04-18T08:12:12.05Z</time></trkpt><trkpt lat="37.6788499" lon="13.2589"><ele>504.0</ele><time>2026-04-18T08:12:13.049Z</time></trkpt><trkpt lat="37.6789455" lon="13.2587498"><ele>504.0</ele><time>2026-04-18T08:12:14.05Z</time></trkpt><trkpt lat="37.679086" lon="13.2586111"><ele>504.0</ele><time>2026-04-18T08:12:15.049Z</time></trkpt><trkpt lat="37.679218" lon="13.2584964"><ele>504.0</ele><time>2026-04-18T08:12:16.05Z</time></trkpt><trkpt lat="37.6793144" lon="13.2583844"><ele>504.0</ele><time>2026-04-18T08:12:17.049Z</time></trkpt><trkpt lat="37.6793835" lon="13.2582828"><ele>504.0</ele><time>2026-04-18T08:12:18.049Z</time></trkpt><trkpt lat="37.6794077" lon="13.258183"><ele>504.0</ele><time>2026-04-18T08:12:19.05Z</time></trkpt><trkpt lat="37.6793804" lon="13.2580887"><ele>504.0</ele><time>2026-04-18T08:12:20.049Z</time></trkpt><trkpt lat="37.6793146" lon="13.2580237"><ele>504.0</ele><time>2026-04-18T08:12:21.05Z</time></trkpt><trkpt lat="37.6792124" lon="13.2580238"><ele>504.0</ele><time>2026-04-18T08:12:22.049Z</time></trkpt><trkpt lat="37.6790877" lon="13.2580722"><ele>504.0</ele><time>2026-04-18T08:12:23.05Z</time></trkpt><trkpt lat="37.6789548" lon="13.2581359"><ele>504.0</ele><time>2026-04-18T08:12:24.05Z</time></trkpt><trkpt lat="37.6788238" lon="13.258182"><ele>504.0</ele><time>2026-04-18T08:12:25.049Z</time></trkpt><trkpt lat="37.678699" lon="13.2581942"><ele>504.25</ele><time>2026-04-18T08:12:26.049Z</time></trkpt><trkpt lat="37.6785704" lon="13.2581635"><ele>504.5</ele><time>2026-04-18T08:12:27.05Z</time></trkpt><trkpt lat="37.6784415" lon="13.2581037"><ele>504.75</ele><time>2026-04-18T08:12:28.05Z</time></trkpt><trkpt lat="37.6783238" lon="13.2580185"><ele>505.0</ele><time>2026-04-18T08:12:29.049Z</time></trkpt><trkpt lat="37.678221" lon="13.25791"><ele>508.6666666666667</ele><time>2026-04-18T08:12:30.05Z</time></trkpt><trkpt lat="37.6781239" lon="13.2577756"><ele>512.3333333333334</ele><time>2026-04-18T08:12:31.05Z</time></trkpt><trkpt lat="37.678025" lon="13.257602"><ele>516.0</ele><time>2026-04-18T08:12:32.049Z</time></trkpt><trkpt lat="37.6779133" lon="13.2574137"><ele>516.3333333333334</ele><time>2026-04-18T08:12:33.049Z</time></trkpt><trkpt lat="37.6778014" lon="13.2572102"><ele>516.6666666666667</ele><time>2026-04-18T08:12:34.05Z</time></trkpt><trkpt lat="37.67769" lon="13.2570095"><ele>517.0</ele><time>2026-04-18T08:12:35.049Z</time></trkpt><trkpt lat="37.6775799" lon="13.256812"><ele>517.0</ele><time>2026-04-18T08:12:36.05Z</time></trkpt><trkpt lat="37.6774634" lon="13.2566223"><ele>517.0</ele><time>2026-04-18T08:12:37.049Z</time></trkpt><trkpt lat="37.6773504" lon="13.2564545"><ele>517.0</ele><time>2026-04-18T08:12:38.049Z</time></trkpt><trkpt lat="37.6772523" lon="13.2563011"><ele>520.0</ele><time>2026-04-18T08:12:39.05Z</time></trkpt><trkpt lat="37.6771829" lon="13.2561251"><ele>523.0</ele><time>2026-04-18T08:12:40.049Z</time></trkpt><trkpt lat="37.6771435" lon="13.2559212"><ele>526.0</ele><time>2026-04-18T08:12:41.049Z</time></trkpt><trkpt lat="37.6771263" lon="13.2556901"><ele>529.6666666666667</ele><time>2026-04-18T08:12:42.05Z</time></trkpt><trkpt lat="37.6771042" lon="13.2554359"><ele>533.3333333333334</ele><time>2026-04-18T08:12:43.049Z</time></trkpt><trkpt lat="37.6770498" lon="13.2551987"><ele>537.0</ele><time>2026-04-18T08:12:44.05Z</time></trkpt><trkpt lat="37.6769669" lon="13.2549712"><ele>536.6666666666666</ele><time>2026-04-18T08:12:45.05Z</time></trkpt><trkpt lat="37.6768657" lon="13.2547467"><ele>536.3333333333333</ele><time>2026-04-18T08:12:46.05Z</time></trkpt><trkpt lat="37.6767617" lon="13.2545342"><ele>536.0</ele><time>2026-04-18T08:12:47.05Z</time></trkpt><trkpt lat="37.6766484" lon="13.2543403"><ele>536.0</ele><time>2026-04-18T08:12:48.049Z</time></trkpt><trkpt lat="37.6765331" lon="13.2541718"><ele>536.0</ele><time>2026-04-18T08:12:49.049Z</time></trkpt><trkpt lat="37.6764136" lon="13.2540471"><ele>536.0</ele><time>2026-04-18T08:12:50.05Z</time></trkpt><trkpt lat="37.6762873" lon="13.2539701"><ele>536.0</ele><time>2026-04-18T08:12:51.05Z</time></trkpt><trkpt lat="37.6761313" lon="13.2539597"><ele>536.0</ele><time>2026-04-18T08:12:52.049Z</time></trkpt><trkpt lat="37.675984" lon="13.2539745"><ele>536.0</ele><time>2026-04-18T08:12:53.049Z</time></trkpt><trkpt lat="37.6758531" lon="13.2539648"><ele>536.0</ele><time>2026-04-18T08:12:54.05Z</time></trkpt><trkpt lat="37.6757487" lon="13.2539034"><ele>537.0</ele><time>2026-04-18T08:12:55.05Z</time></trkpt><trkpt lat="37.6756703" lon="13.2537862"><ele>538.0</ele><time>2026-04-18T08:12:56.049Z</time></trkpt><trkpt lat="37.6756051" lon="13.2536126"><ele>539.0</ele><time>2026-04-18T08:12:57.05Z</time></trkpt><trkpt lat="37.6755501" lon="13.2534082"><ele>540.0</ele><time>2026-04-18T08:12:58.05Z</time></trkpt><trkpt lat="37.675475" lon="13.2531836"><ele>542.3333333333334</ele><time>2026-04-18T08:12:59.049Z</time></trkpt><trkpt lat="37.6753953" lon="13.2529599"><ele>544.6666666666667</ele><time>2026-04-18T08:13:00.05Z</time></trkpt><trkpt lat="37.6753265" lon="13.2527561"><ele>547.0</ele><time>2026-04-18T08:13:01.049Z</time></trkpt><trkpt lat="37.6752872" lon="13.2525589"><ele>547.0</ele><time>2026-04-18T08:13:02.05Z</time></trkpt><trkpt lat="37.6752824" lon="13.2523511"><ele>547.0</ele><time>2026-04-18T08:13:03.05Z</time></trkpt><trkpt lat="37.6753043" lon="13.2521333"><ele>547.0</ele><time>2026-04-18T08:13:04.05Z</time></trkpt><trkpt lat="37.6753388" lon="13.2519107"><ele>547.6666666666667</ele><time>2026-04-18T08:13:05.05Z</time></trkpt><trkpt lat="37.6753694" lon="13.2517022"><ele>548.3333333333334</ele><time>2026-04-18T08:13:06.049Z</time></trkpt><trkpt lat="37.6753823" lon="13.2515046"><ele>549.0</ele><time>2026-04-18T08:13:07.049Z</time></trkpt><trkpt lat="37.6753462" lon="13.2513079"><ele>546.0</ele><time>2026-04-18T08:13:08.05Z</time></trkpt><trkpt lat="37.6752713" lon="13.2510953"><ele>543.0</ele><time>2026-04-18T08:13:09.049Z</time></trkpt><trkpt lat="37.675194" lon="13.2509034"><ele>540.0</ele><time>2026-04-18T08:13:10.05Z</time></trkpt><trkpt lat="37.6751407" lon="13.250731"><ele>541.3333333333334</ele><time>2026-04-18T08:13:11.05Z</time></trkpt><trkpt lat="37.6751252" lon="13.2505514"><ele>542.6666666666667</ele><time>2026-04-18T08:13:12.05Z</time></trkpt><trkpt lat="37.6751627" lon="13.2503496"><ele>544.0</ele><time>2026-04-18T08:13:13.05Z</time></trkpt><trkpt lat="37.6752281" lon="13.2501441"><ele>544.0</ele><time>2026-04-18T08:13:14.05Z</time></trkpt><trkpt lat="37.6752652" lon="13.2499604"><ele>544.0</ele><time>2026-04-18T08:13:15.05Z</time></trkpt><trkpt lat="37.6752461" lon="13.249781"><ele>544.0</ele><time>2026-04-18T08:13:16.05Z</time></trkpt><trkpt lat="37.6751676" lon="13.249578"><ele>547.6666666666667</ele><time>2026-04-18T08:13:17.05Z</time></trkpt><trkpt lat="37.6750662" lon="13.2493833"><ele>551.3333333333334</ele><time>2026-04-18T08:13:18.05Z</time></trkpt><trkpt lat="37.6749883" lon="13.2491867"><ele>555.0</ele><time>2026-04-18T08:13:19.05Z</time></trkpt><trkpt lat="37.6749539" lon="13.2489899"><ele>556.3333333333334</ele><time>2026-04-18T08:13:20.05Z</time></trkpt><trkpt lat="37.6749579" lon="13.248784"><ele>557.6666666666667</ele><time>2026-04-18T08:13:21.05Z</time></trkpt><trkpt lat="37.6750109" lon="13.2485815"><ele>559.0</ele><time>2026-04-18T08:13:22.05Z</time></trkpt><trkpt lat="37.6751023" lon="13.2483914"><ele>559.0</ele><time>2026-04-18T08:13:23.05Z</time></trkpt><trkpt lat="37.6751945" lon="13.2482221"><ele>559.0</ele><time>2026-04-18T08:13:24.049Z</time></trkpt><trkpt lat="37.6752624" lon="13.2480748"><ele>559.0</ele><time>2026-04-18T08:13:25.05Z</time></trkpt><trkpt lat="37.6753035" lon="13.2479548"><ele>559.0</ele><time>2026-04-18T08:13:26.05Z</time></trkpt><trkpt lat="37.6753181" lon="13.2478453"><ele>563.25</ele><time>2026-04-18T08:13:27.049Z</time></trkpt><trkpt lat="37.6752696" lon="13.2477436"><ele>567.5</ele><time>2026-04-18T08:13:28.05Z</time></trkpt><trkpt lat="37.6751857" lon="13.2476661"><ele>571.75</ele><time>2026-04-18T08:13:29.05Z</time></trkpt><trkpt lat="37.675064" lon="13.2476421"><ele>576.0</ele><time>2026-04-18T08:13:30.05Z</time></trkpt><trkpt lat="37.6749274" lon="13.2476635"><ele>576.0</ele><time>2026-04-18T08:13:31.049Z</time></trkpt><trkpt lat="37.6747873" lon="13.2477068"><ele>576.0</ele><time>2026-04-18T08:13:32.049Z</time></trkpt><trkpt lat="37.674657" lon="13.2477251"><ele>576.0</ele><time>2026-04-18T08:13:33.05Z</time></trkpt><trkpt lat="37.6745471" lon="13.2477099"><ele>576.0</ele><time>2026-04-18T08:13:34.05Z</time></trkpt><trkpt lat="37.6744567" lon="13.2476312"><ele>575.25</ele><time>2026-04-18T08:13:35.05Z</time></trkpt><trkpt lat="37.6743921" lon="13.2474995"><ele>574.5</ele><time>2026-04-18T08:13:36.05Z</time></trkpt><trkpt lat="37.674354" lon="13.2473263"><ele>573.75</ele><time>2026-04-18T08:13:37.05Z</time></trkpt><trkpt lat="37.6743319" lon="13.2471162"><ele>573.0</ele><time>2026-04-18T08:13:38.05Z</time></trkpt><trkpt lat="37.674297" lon="13.2468824"><ele>573.0</ele><time>2026-04-18T08:13:39.05Z</time></trkpt><trkpt lat="37.6742217" lon="13.2466513"><ele>573.0</ele><time>2026-04-18T08:13:40.05Z</time></trkpt><trkpt lat="37.6741279" lon="13.2464481"><ele>573.0</ele><time>2026-04-18T08:13:41.05Z</time></trkpt><trkpt lat="37.6740469" lon="13.2462569"><ele>576.3333333333334</ele><time>2026-04-18T08:13:42.05Z</time></trkpt><trkpt lat="37.6739985" lon="13.2460626"><ele>579.6666666666667</ele><time>2026-04-18T08:13:43.049Z</time></trkpt><trkpt lat="37.673992" lon="13.2458379"><ele>583.0</ele><time>2026-04-18T08:13:44.049Z</time></trkpt><trkpt lat="37.674006" lon="13.2456084"><ele>583.3333333333334</ele><time>2026-04-18T08:13:45.05Z</time></trkpt><trkpt lat="37.6740362" lon="13.2453483"><ele>583.6666666666666</ele><time>2026-04-18T08:13:46.049Z</time></trkpt><trkpt lat="37.6740486" lon="13.2450726"><ele>584.0</ele><time>2026-04-18T08:13:47.05Z</time></trkpt><trkpt lat="37.6740555" lon="13.2448096"><ele>583.3333333333333</ele><time>2026-04-18T08:13:48.049Z</time></trkpt><trkpt lat="37.6740813" lon="13.2445989"><ele>582.6666666666666</ele><time>2026-04-18T08:13:49.05Z</time></trkpt><trkpt lat="37.6741299" lon="13.2444117"><ele>582.0</ele><time>2026-04-18T08:13:50.05Z</time></trkpt><trkpt lat="37.6742219" lon="13.2442449"><ele>582.0</ele><time>2026-04-18T08:13:51.049Z</time></trkpt><trkpt lat="37.6743188" lon="13.2440802"><ele>582.0</ele><time>2026-04-18T08:13:52.049Z</time></trkpt><trkpt lat="37.6743794" lon="13.2438964"><ele>582.0</ele><time>2026-04-18T08:13:53.05Z</time></trkpt><trkpt lat="37.6743841" lon="13.243699"><ele>583.6666666666666</ele><time>2026-04-18T08:13:54.056Z</time></trkpt><trkpt lat="37.6743544" lon="13.2435073"><ele>585.3333333333333</ele><time>2026-04-18T08:13:55.057Z</time></trkpt><trkpt lat="37.6742821" lon="13.243332"><ele>587.0</ele><time>2026-04-18T08:13:56.057Z</time></trkpt><trkpt lat="37.6741753" lon="13.2431952"><ele>592.6666666666666</ele><time>2026-04-18T08:13:57.057Z</time></trkpt><trkpt lat="37.6740544" lon="13.2430759"><ele>598.3333333333334</ele><time>2026-04-18T08:13:58.057Z</time></trkpt><trkpt lat="37.6739368" lon="13.242956"><ele>604.0</ele><time>2026-04-18T08:13:59.056Z</time></trkpt><trkpt lat="37.6738485" lon="13.242807"><ele>604.0</ele><time>2026-04-18T08:14:00.057Z</time></trkpt><trkpt lat="37.6737928" lon="13.2426267"><ele>604.0</ele><time>2026-04-18T08:14:01.056Z</time></trkpt><trkpt lat="37.6737596" lon="13.2424165"><ele>604.0</ele><time>2026-04-18T08:14:02.057Z</time></trkpt><trkpt lat="37.6737375" lon="13.242193"><ele>607.6666666666667</ele><time>2026-04-18T08:14:03.057Z</time></trkpt><trkpt lat="37.6737174" lon="13.241955"><ele>611.3333333333334</ele><time>2026-04-18T08:14:04.057Z</time></trkpt><trkpt lat="37.6736877" lon="13.2417174"><ele>615.0</ele><time>2026-04-18T08:14:05.056Z</time></trkpt><trkpt lat="37.6736603" lon="13.2414755"><ele>617.0</ele><time>2026-04-18T08:14:06.057Z</time></trkpt><trkpt lat="37.6736405" lon="13.2412417"><ele>619.0</ele><time>2026-04-18T08:14:07.057Z</time></trkpt><trkpt lat="37.6736216" lon="13.241029"><ele>621.0</ele><time>2026-04-18T08:14:08.057Z</time></trkpt><trkpt lat="37.6735937" lon="13.2408403"><ele>619.25</ele><time>2026-04-18T08:14:09.057Z</time></trkpt><trkpt lat="37.6735425" lon="13.2406854"><ele>617.5</ele><time>2026-04-18T08:14:10.057Z</time></trkpt><trkpt lat="37.6734572" lon="13.2405749"><ele>615.75</ele><time>2026-04-18T08:14:11.057Z</time></trkpt><trkpt lat="37.6733367" lon="13.2404969"><ele>614.0</ele><time>2026-04-18T08:14:12.057Z</time></trkpt><trkpt lat="37.6731976" lon="13.2404868"><ele>614.0</ele><time>2026-04-18T08:14:13.057Z</time></trkpt><trkpt lat="37.6730556" lon="13.2405418"><ele>614.0</ele><time>2026-04-18T08:14:14.057Z</time></trkpt><trkpt lat="37.6729327" lon="13.2406448"><ele>614.0</ele><time>2026-04-18T08:14:15.057Z</time></trkpt><trkpt lat="37.6728194" lon="13.2407753"><ele>614.0</ele><time>2026-04-18T08:14:16.057Z</time></trkpt><trkpt lat="37.6727508" lon="13.2409476"><ele>614.3333333333333</ele><time>2026-04-18T08:14:17.057Z</time></trkpt><trkpt lat="37.6727052" lon="13.2411701"><ele>614.6666666666666</ele><time>2026-04-18T08:14:18.057Z</time></trkpt><trkpt lat="37.6726682" lon="13.2413986"><ele>615.0</ele><time>2026-04-18T08:14:19.056Z</time></trkpt><trkpt lat="37.6725988" lon="13.2415993"><ele>610.3333333333334</ele><time>2026-04-18T08:14:20.056Z</time></trkpt><trkpt lat="37.6724965" lon="13.2417703"><ele>605.6666666666667</ele><time>2026-04-18T08:14:21.057Z</time></trkpt><trkpt lat="37.6723757" lon="13.2419138"><ele>601.0</ele><time>2026-04-18T08:14:22.056Z</time></trkpt><trkpt lat="37.6722213" lon="13.2420142"><ele>601.0</ele><time>2026-04-18T08:14:23.056Z</time></trkpt><trkpt lat="37.6720406" lon="13.2420888"><ele>601.0</ele><time>2026-04-18T08:14:24.057Z</time></trkpt><trkpt lat="37.6718561" lon="13.2421549"><ele>601.0</ele><time>2026-04-18T08:14:25.057Z</time></trkpt><trkpt lat="37.6716993" lon="13.2422082"><ele>606.5</ele><time>2026-04-18T08:14:26.056Z</time></trkpt><trkpt lat="37.6715769" lon="13.2422355"><ele>612.0</ele><time>2026-04-18T08:14:27.056Z</time></trkpt><trkpt lat="37.6714783" lon="13.2422223"><ele>617.5</ele><time>2026-04-18T08:14:28.056Z</time></trkpt><trkpt lat="37.6713534" lon="13.2421629"><ele>623.0</ele><time>2026-04-18T08:14:29.057Z</time></trkpt><trkpt lat="37.6712044" lon="13.2420831"><ele>623.3333333333333</ele><time>2026-04-18T08:14:30.056Z</time></trkpt><trkpt lat="37.6710512" lon="13.2420002"><ele>623.6666666666666</ele><time>2026-04-18T08:14:31.057Z</time></trkpt><trkpt lat="37.6708969" lon="13.2419198"><ele>624.0</ele><time>2026-04-18T08:14:32.057Z</time></trkpt><trkpt lat="37.6707229" lon="13.2418516"><ele>624.0</ele><time>2026-04-18T08:14:33.056Z</time></trkpt><trkpt lat="37.6705294" lon="13.2418144"><ele>624.0</ele><time>2026-04-18T08:14:34.056Z</time></trkpt><trkpt lat="37.6703296" lon="13.2417987"><ele>624.0</ele><time>2026-04-18T08:14:35.056Z</time></trkpt><trkpt lat="37.6701452" lon="13.2418082"><ele>620.5</ele><time>2026-04-18T08:14:36.057Z</time></trkpt><trkpt lat="37.6699856" lon="13.2418072"><ele>617.0</ele><time>2026-04-18T08:14:37.057Z</time></trkpt><trkpt lat="37.6698575" lon="13.2417751"><ele>613.5</ele><time>2026-04-18T08:14:38.056Z</time></trkpt><trkpt lat="37.6697406" lon="13.2416984"><ele>610.0</ele><time>2026-04-18T08:14:39.056Z</time></trkpt><trkpt lat="37.6696351" lon="13.2415782"><ele>611.75</ele><time>2026-04-18T08:14:40.056Z</time></trkpt><trkpt lat="37.6695332" lon="13.2414404"><ele>613.5</ele><time>2026-04-18T08:14:41.057Z</time></trkpt><trkpt lat="37.6694044" lon="13.2413472"><ele>615.25</ele><time>2026-04-18T08:14:42.056Z</time></trkpt><trkpt lat="37.6692561" lon="13.241309"><ele>617.0</ele><time>2026-04-18T08:14:43.057Z</time></trkpt><trkpt lat="37.6691135" lon="13.2412831"><ele>617.0</ele><time>2026-04-18T08:14:44.056Z</time></trkpt><trkpt lat="37.6689835" lon="13.2412447"><ele>617.0</ele><time>2026-04-18T08:14:45.056Z</time></trkpt><trkpt lat="37.668867" lon="13.2411698"><ele>617.0</ele><time>2026-04-18T08:14:46.056Z</time></trkpt><trkpt lat="37.6687783" lon="13.2410534"><ele>617.0</ele><time>2026-04-18T08:14:47.057Z</time></trkpt><trkpt lat="37.6687294" lon="13.2409018"><ele>617.0</ele><time>2026-04-18T08:14:48.056Z</time></trkpt><trkpt lat="37.6687233" lon="13.2407271"><ele>617.0</ele><time>2026-04-18T08:14:49.057Z</time></trkpt><trkpt lat="37.6686967" lon="13.2405853"><ele>617.0</ele><time>2026-04-18T08:14:50.057Z</time></trkpt><trkpt lat="37.6686026" lon="13.2404701"><ele>617.0</ele><time>2026-04-18T08:14:51.056Z</time></trkpt><trkpt lat="37.6684905" lon="13.2403783"><ele>617.5</ele><time>2026-04-18T08:14:52.057Z</time></trkpt><trkpt lat="37.6683811" lon="13.2402924"><ele>618.0</ele><time>2026-04-18T08:14:53.057Z</time></trkpt><trkpt lat="37.6683023" lon="13.2401638"><ele>618.5</ele><time>2026-04-18T08:14:54.057Z</time></trkpt><trkpt lat="37.6682467" lon="13.2399921"><ele>619.0</ele><time>2026-04-18T08:14:55.056Z</time></trkpt><trkpt lat="37.668214" lon="13.2397885"><ele>619.0</ele><time>2026-04-18T08:14:56.057Z</time></trkpt><trkpt lat="37.6681818" lon="13.239574"><ele>619.0</ele><time>2026-04-18T08:14:57.057Z</time></trkpt><trkpt lat="37.6681327" lon="13.2393328"><ele>619.0</ele><time>2026-04-18T08:14:58.057Z</time></trkpt><trkpt lat="37.6680569" lon="13.2390849"><ele>626.3333333333334</ele><time>2026-04-18T08:14:59.057Z</time></trkpt><trkpt lat="37.6679734" lon="13.2388435"><ele>633.6666666666666</ele><time>2026-04-18T08:15:00.056Z</time></trkpt><trkpt lat="37.6678986" lon="13.2386232"><ele>641.0</ele><time>2026-04-18T08:15:01.057Z</time></trkpt><trkpt lat="37.6678309" lon="13.2384126"><ele>626.6666666666666</ele><time>2026-04-18T08:15:02.057Z</time></trkpt><trkpt lat="37.6677523" lon="13.2382202"><ele>612.3333333333334</ele><time>2026-04-18T08:15:03.056Z</time></trkpt><trkpt lat="37.6676341" lon="13.2380371"><ele>598.0</ele><time>2026-04-18T08:15:04.056Z</time></trkpt><trkpt lat="37.6675107" lon="13.2378607"><ele>598.0</ele><time>2026-04-18T08:15:05.057Z</time></trkpt><trkpt lat="37.6674056" lon="13.2376945"><ele>598.0</ele><time>2026-04-18T08:15:06.056Z</time></trkpt><trkpt lat="37.6673242" lon="13.2375202"><ele>598.0</ele><time>2026-04-18T08:15:07.057Z</time></trkpt><trkpt lat="37.6672588" lon="13.237342"><ele>600.0</ele><time>2026-04-18T08:15:08.057Z</time></trkpt><trkpt lat="37.6672213" lon="13.2371295"><ele>602.0</ele><time>2026-04-18T08:15:09.057Z</time></trkpt><trkpt lat="37.6672232" lon="13.2368988"><ele>604.0</ele><time>2026-04-18T08:15:10.057Z</time></trkpt><trkpt lat="37.6672424" lon="13.236653"><ele>603.0</ele><time>2026-04-18T08:15:11.057Z</time></trkpt><trkpt lat="37.6672702" lon="13.2364033"><ele>602.0</ele><time>2026-04-18T08:15:12.056Z</time></trkpt><trkpt lat="37.6672644" lon="13.2361475"><ele>601.0</ele><time>2026-04-18T08:15:13.057Z</time></trkpt><trkpt lat="37.6672381" lon="13.2358884"><ele>601.3333333333334</ele><time>2026-04-18T08:15:14.057Z</time></trkpt><trkpt lat="37.6672109" lon="13.2356284"><ele>601.6666666666666</ele><time>2026-04-18T08:15:15.057Z</time></trkpt><trkpt lat="37.6671822" lon="13.235376"><ele>602.0</ele><time>2026-04-18T08:15:16.056Z</time></trkpt><trkpt lat="37.6671554" lon="13.2351559"><ele>602.0</ele><time>2026-04-18T08:15:17.056Z</time></trkpt><trkpt lat="37.6671369" lon="13.2349715"><ele>602.0</ele><time>2026-04-18T08:15:18.056Z</time></trkpt><trkpt lat="37.6671095" lon="13.2348446"><ele>602.0</ele><time>2026-04-18T08:15:19.057Z</time></trkpt><trkpt lat="37.6670712" lon="13.2347502"><ele>602.0</ele><time>2026-04-18T08:15:20.057Z</time></trkpt><trkpt lat="37.6669977" lon="13.2346892"><ele>602.0</ele><time>2026-04-18T08:15:21.056Z</time></trkpt><trkpt lat="37.6668766" lon="13.2346686"><ele>597.25</ele><time>2026-04-18T08:15:22.057Z</time></trkpt><trkpt lat="37.6667499" lon="13.2346819"><ele>592.5</ele><time>2026-04-18T08:15:23.056Z</time></trkpt><trkpt lat="37.6666075" lon="13.2347013"><ele>587.75</ele><time>2026-04-18T08:15:24.057Z</time></trkpt><trkpt lat="37.6664655" lon="13.2347177"><ele>583.0</ele><time>2026-04-18T08:15:25.057Z</time></trkpt><trkpt lat="37.6663304" lon="13.2347131"><ele>583.0</ele><time>2026-04-18T08:15:26.057Z</time></trkpt><trkpt lat="37.6662093" lon="13.2346632"><ele>583.0</ele><time>2026-04-18T08:15:27.057Z</time></trkpt><trkpt lat="37.6661339" lon="13.2345575"><ele>583.0</ele><time>2026-04-18T08:15:28.057Z</time></trkpt><trkpt lat="37.666091" lon="13.2343986"><ele>583.0</ele><time>2026-04-18T08:15:29.057Z</time></trkpt><trkpt lat="37.666106" lon="13.234213"><ele>583.0</ele><time>2026-04-18T08:15:30.056Z</time></trkpt><trkpt lat="37.6661519" lon="13.2340218"><ele>583.0</ele><time>2026-04-18T08:15:31.056Z</time></trkpt><trkpt lat="37.6662187" lon="13.2338686"><ele>583.0</ele><time>2026-04-18T08:15:32.056Z</time></trkpt><trkpt lat="37.6662537" lon="13.2337339"><ele>583.0</ele><time>2026-04-18T08:15:33.056Z</time></trkpt><trkpt lat="37.6662495" lon="13.2335953"><ele>582.0</ele><time>2026-04-18T08:15:34.057Z</time></trkpt><trkpt lat="37.6662013" lon="13.2334424"><ele>581.0</ele><time>2026-04-18T08:15:35.056Z</time></trkpt><trkpt lat="37.666125" lon="13.2333153"><ele>580.0</ele><time>2026-04-18T08:15:36.056Z</time></trkpt><trkpt lat="37.6660331" lon="13.2332109"><ele>579.0</ele><time>2026-04-18T08:15:37.056Z</time></trkpt><trkpt lat="37.6659423" lon="13.2331302"><ele>578.6</ele><time>2026-04-18T08:15:38.057Z</time></trkpt><trkpt lat="37.6658503" lon="13.2330768"><ele>578.2</ele><time>2026-04-18T08:15:39.056Z</time></trkpt><trkpt lat="37.6657587" lon="13.2330362"><ele>577.8000000000001</ele><time>2026-04-18T08:15:40.057Z</time></trkpt><trkpt lat="37.6656655" lon="13.2329975"><ele>577.4</ele><time>2026-04-18T08:15:41.057Z</time></trkpt><trkpt lat="37.665572" lon="13.2329379"><ele>577.0</ele><time>2026-04-18T08:15:42.056Z</time></trkpt><trkpt lat="37.6654864" lon="13.2328372"><ele>577.0</ele><time>2026-04-18T08:15:43.057Z</time></trkpt><trkpt lat="37.6654065" lon="13.2327035"><ele>577.0</ele><time>2026-04-18T08:15:44.056Z</time></trkpt><trkpt lat="37.6653341" lon="13.2325405"><ele>577.0</ele><time>2026-04-18T08:15:45.056Z</time></trkpt><trkpt lat="37.6652804" lon="13.2323766"><ele>577.0</ele><time>2026-04-18T08:15:46.057Z</time></trkpt><trkpt lat="37.6652316" lon="13.2322211"><ele>571.5</ele><time>2026-04-18T08:15:47.056Z</time></trkpt><trkpt lat="37.6652104" lon="13.2320527"><ele>566.0</ele><time>2026-04-18T08:15:48.056Z</time></trkpt><trkpt lat="37.6652161" lon="13.2318887"><ele>560.5</ele><time>2026-04-18T08:15:49.057Z</time></trkpt><trkpt lat="37.6652189" lon="13.2317497"><ele>555.0</ele><time>2026-04-18T08:15:50.057Z</time></trkpt><trkpt lat="37.6652029" lon="13.2316426"><ele>555.0</ele><time>2026-04-18T08:15:51.057Z</time></trkpt><trkpt lat="37.6651529" lon="13.2315542"><ele>555.0</ele><time>2026-04-18T08:15:52.056Z</time></trkpt><trkpt lat="37.6650913" lon="13.2314864"><ele>555.0</ele><time>2026-04-18T08:15:53.057Z</time></trkpt><trkpt lat="37.665011" lon="13.2314349"><ele>555.0</ele><time>2026-04-18T08:15:54.056Z</time></trkpt><trkpt lat="37.6649154" lon="13.2313885"><ele>555.0</ele><time>2026-04-18T08:15:55.056Z</time></trkpt><trkpt lat="37.6648231" lon="13.2313538"><ele>555.75</ele><time>2026-04-18T08:15:56.056Z</time></trkpt><trkpt lat="37.6647469" lon="13.2312849"><ele>556.5</ele><time>2026-04-18T08:15:57.056Z</time></trkpt><trkpt lat="37.6646916" lon="13.2311673"><ele>557.25</ele><time>2026-04-18T08:15:58.057Z</time></trkpt><trkpt lat="37.6646313" lon="13.231021"><ele>558.0</ele><time>2026-04-18T08:15:59.056Z</time></trkpt><trkpt lat="37.664617" lon="13.230844"><ele>558.0</ele><time>2026-04-18T08:16:00.057Z</time></trkpt><trkpt lat="37.664634" lon="13.2306561"><ele>558.0</ele><time>2026-04-18T08:16:01.056Z</time></trkpt><trkpt lat="37.6646564" lon="13.2304831"><ele>558.0</ele><time>2026-04-18T08:16:02.057Z</time></trkpt><trkpt lat="37.6646753" lon="13.2303338"><ele>558.0</ele><time>2026-04-18T08:16:03.056Z</time></trkpt><trkpt lat="37.6646787" lon="13.2301987"><ele>556.4</ele><time>2026-04-18T08:16:04.057Z</time></trkpt><trkpt lat="37.6647001" lon="13.2300781"><ele>554.8</ele><time>2026-04-18T08:16:05.056Z</time></trkpt><trkpt lat="37.6647536" lon="13.2299769"><ele>553.2</ele><time>2026-04-18T08:16:06.056Z</time></trkpt><trkpt lat="37.6648463" lon="13.2298975"><ele>551.6</ele><time>2026-04-18T08:16:07.056Z</time></trkpt><trkpt lat="37.6649704" lon="13.2298274"><ele>550.0</ele><time>2026-04-18T08:16:08.057Z</time></trkpt><trkpt lat="37.6650972" lon="13.2297735"><ele>547.75</ele><time>2026-04-18T08:16:09.056Z</time></trkpt><trkpt lat="37.6652191" lon="13.2297239"><ele>545.5</ele><time>2026-04-18T08:16:10.057Z</time></trkpt><trkpt lat="37.6653335" lon="13.2296827"><ele>543.25</ele><time>2026-04-18T08:16:11.057Z</time></trkpt><trkpt lat="37.6654511" lon="13.229635"><ele>541.0</ele><time>2026-04-18T08:16:12.057Z</time></trkpt><trkpt lat="37.6655627" lon="13.2295731"><ele>541.0</ele><time>2026-04-18T08:16:13.057Z</time></trkpt><trkpt lat="37.6656588" lon="13.2294838"><ele>541.0</ele><time>2026-04-18T08:16:14.057Z</time></trkpt><trkpt lat="37.6657436" lon="13.2293651"><ele>541.0</ele><time>2026-04-18T08:16:15.057Z</time></trkpt><trkpt lat="37.665812" lon="13.2292458"><ele>541.0</ele><time>2026-04-18T08:16:16.057Z</time></trkpt><trkpt lat="37.6658795" lon="13.2291244"><ele>541.0</ele><time>2026-04-18T08:16:17.056Z</time></trkpt><trkpt lat="37.6659574" lon="13.2290103"><ele>541.0</ele><time>2026-04-18T08:16:18.056Z</time></trkpt><trkpt lat="37.6660549" lon="13.2289299"><ele>541.0</ele><time>2026-04-18T08:16:19.056Z</time></trkpt><trkpt lat="37.6661736" lon="13.2288856"><ele>541.0</ele><time>2026-04-18T08:16:20.056Z</time></trkpt><trkpt lat="37.6662941" lon="13.2288895"><ele>540.8</ele><time>2026-04-18T08:16:21.056Z</time></trkpt><trkpt lat="37.666401" lon="13.2289458"><ele>540.6</ele><time>2026-04-18T08:16:22.057Z</time></trkpt><trkpt lat="37.6664817" lon="13.2290421"><ele>540.4</ele><time>2026-04-18T08:16:23.057Z</time></trkpt><trkpt lat="37.6665425" lon="13.229145"><ele>540.2</ele><time>2026-04-18T08:16:24.057Z</time></trkpt><trkpt lat="37.6665769" lon="13.2292682"><ele>540.0</ele><time>2026-04-18T08:16:25.056Z</time></trkpt><trkpt lat="37.6666214" lon="13.2293911"><ele>540.0</ele><time>2026-04-18T08:16:26.056Z</time></trkpt><trkpt lat="37.6666762" lon="13.2294917"><ele>540.0</ele><time>2026-04-18T08:16:27.057Z</time></trkpt><trkpt lat="37.6667372" lon="13.2295489"><ele>540.0</ele><time>2026-04-18T08:16:28.057Z</time></trkpt><trkpt lat="37.6668091" lon="13.2295823"><ele>540.0</ele><time>2026-04-18T08:16:29.056Z</time></trkpt><trkpt lat="37.6668786" lon="13.2295769"><ele>540.0</ele><time>2026-04-18T08:16:30.056Z</time></trkpt><trkpt lat="37.66694" lon="13.2295265"><ele>540.0</ele><time>2026-04-18T08:16:31.056Z</time></trkpt><trkpt lat="37.6669817" lon="13.2294431"><ele>540.4</ele><time>2026-04-18T08:16:32.057Z</time></trkpt><trkpt lat="37.667033" lon="13.229347"><ele>540.8</ele><time>2026-04-18T08:16:33.057Z</time></trkpt><trkpt lat="37.667081" lon="13.2292491"><ele>541.2</ele><time>2026-04-18T08:16:34.054Z</time></trkpt><trkpt lat="37.6671345" lon="13.229148"><ele>541.6</ele><time>2026-04-18T08:16:35.056Z</time></trkpt><trkpt lat="37.6672027" lon="13.2290457"><ele>542.0</ele><time>2026-04-18T08:16:36.057Z</time></trkpt><trkpt lat="37.6672893" lon="13.2289501"><ele>537.75</ele><time>2026-04-18T08:16:37.057Z</time></trkpt><trkpt lat="37.6673892" lon="13.2288572"><ele>533.5</ele><time>2026-04-18T08:16:38.057Z</time></trkpt><trkpt lat="37.6674973" lon="13.2287595"><ele>529.25</ele><time>2026-04-18T08:16:39.056Z</time></trkpt><trkpt lat="37.6676046" lon="13.2286658"><ele>525.0</ele><time>2026-04-18T08:16:40.057Z</time></trkpt><trkpt lat="37.6677141" lon="13.2285658"><ele>527.25</ele><time>2026-04-18T08:16:41.057Z</time></trkpt><trkpt lat="37.6678243" lon="13.2284595"><ele>529.5</ele><time>2026-04-18T08:16:42.057Z</time></trkpt><trkpt lat="37.6679454" lon="13.2283461"><ele>531.75</ele><time>2026-04-18T08:16:43.057Z</time></trkpt><trkpt lat="37.668069" lon="13.2282259"><ele>534.0</ele><time>2026-04-18T08:16:44.056Z</time></trkpt><trkpt lat="37.6681883" lon="13.2281098"><ele>527.6666666666666</ele><time>2026-04-18T08:16:45.057Z</time></trkpt><trkpt lat="37.6683187" lon="13.2280128"><ele>521.3333333333333</ele><time>2026-04-18T08:16:46.057Z</time></trkpt><trkpt lat="37.6684632" lon="13.2279438"><ele>515.0</ele><time>2026-04-18T08:16:47.057Z</time></trkpt><trkpt lat="37.6686082" lon="13.2279045"><ele>515.25</ele><time>2026-04-18T08:16:48.057Z</time></trkpt><trkpt lat="37.668747" lon="13.2278713"><ele>515.5</ele><time>2026-04-18T08:16:49.057Z</time></trkpt><trkpt lat="37.6688905" lon="13.2278541"><ele>515.75</ele><time>2026-04-18T08:16:50.056Z</time></trkpt><trkpt lat="37.6690404" lon="13.2278576"><ele>516.0</ele><time>2026-04-18T08:16:51.056Z</time></trkpt><trkpt lat="37.6691968" lon="13.2278719"><ele>516.0</ele><time>2026-04-18T08:16:52.057Z</time></trkpt><trkpt lat="37.6693527" lon="13.2278946"><ele>516.0</ele><time>2026-04-18T08:16:53.056Z</time></trkpt><trkpt lat="37.6695007" lon="13.2279157"><ele>516.0</ele><time>2026-04-18T08:16:54.057Z</time></trkpt><trkpt lat="37.6696402" lon="13.2279334"><ele>516.0</ele><time>2026-04-18T08:16:55.056Z</time></trkpt><trkpt lat="37.6697725" lon="13.2279623"><ele>514.5</ele><time>2026-04-18T08:16:56.057Z</time></trkpt><trkpt lat="37.6698988" lon="13.2280116"><ele>513.0</ele><time>2026-04-18T08:16:57.057Z</time></trkpt><trkpt lat="37.6700208" lon="13.2280707"><ele>511.5</ele><time>2026-04-18T08:16:58.057Z</time></trkpt><trkpt lat="37.6701367" lon="13.2281302"><ele>510.0</ele><time>2026-04-18T08:16:59.057Z</time></trkpt><trkpt lat="37.6702436" lon="13.2281659"><ele>509.25</ele><time>2026-04-18T08:17:00.057Z</time></trkpt><trkpt lat="37.6703667" lon="13.2281617"><ele>508.5</ele><time>2026-04-18T08:17:01.057Z</time></trkpt><trkpt lat="37.6704822" lon="13.2281071"><ele>507.75</ele><time>2026-04-18T08:17:02.057Z</time></trkpt><trkpt lat="37.6705977" lon="13.2280197"><ele>507.0</ele><time>2026-04-18T08:17:03.057Z</time></trkpt><trkpt lat="37.6707085" lon="13.2279294"><ele>507.0</ele><time>2026-04-18T08:17:04.057Z</time></trkpt><trkpt lat="37.6708102" lon="13.2278394"><ele>507.00000000000006</ele><time>2026-04-18T08:17:05.057Z</time></trkpt><trkpt lat="37.670905" lon="13.2277588"><ele>507.00000000000006</ele><time>2026-04-18T08:17:06.057Z</time></trkpt><trkpt lat="37.670996" lon="13.2276898"><ele>507.0</ele><time>2026-04-18T08:17:07.057Z</time></trkpt><trkpt lat="37.671089" lon="13.2276308"><ele>507.0</ele><time>2026-04-18T08:17:08.057Z</time></trkpt><trkpt lat="37.6711863" lon="13.2276023"><ele>506.6</ele><time>2026-04-18T08:17:09.056Z</time></trkpt><trkpt lat="37.6712851" lon="13.2276066"><ele>506.20000000000005</ele><time>2026-04-18T08:17:10.057Z</time></trkpt><trkpt lat="37.6713837" lon="13.2276336"><ele>505.8</ele><time>2026-04-18T08:17:11.056Z</time></trkpt><trkpt lat="37.6714775" lon="13.2276883"><ele>505.4</ele><time>2026-04-18T08:17:12.057Z</time></trkpt><trkpt lat="37.6715693" lon="13.2277559"><ele>505.0</ele><time>2026-04-18T08:17:13.057Z</time></trkpt><trkpt lat="37.671672" lon="13.2278302"><ele>505.0</ele><time>2026-04-18T08:17:14.057Z</time></trkpt><trkpt lat="37.671772" lon="13.2279225"><ele>505.0</ele><time>2026-04-18T08:17:15.056Z</time></trkpt><trkpt lat="37.6718602" lon="13.2280333"><ele>505.0</ele><time>2026-04-18T08:17:16.057Z</time></trkpt><trkpt lat="37.6719283" lon="13.2281476"><ele>505.0</ele><time>2026-04-18T08:17:17.056Z</time></trkpt><trkpt lat="37.6720018" lon="13.2282438"><ele>506.0</ele><time>2026-04-18T08:17:18.057Z</time></trkpt><trkpt lat="37.6720802" lon="13.2283081"><ele>507.0</ele><time>2026-04-18T08:17:19.056Z</time></trkpt><trkpt lat="37.6721732" lon="13.2283345"><ele>508.0</ele><time>2026-04-18T08:17:20.057Z</time></trkpt><trkpt lat="37.6722668" lon="13.2282895"><ele>509.0</ele><time>2026-04-18T08:17:21.056Z</time></trkpt><trkpt lat="37.672341" lon="13.2281978"><ele>510.0</ele><time>2026-04-18T08:17:22.057Z</time></trkpt><trkpt lat="37.6723803" lon="13.2280635"><ele>510.0</ele><time>2026-04-18T08:17:23.057Z</time></trkpt><trkpt lat="37.6723819" lon="13.2279094"><ele>510.0</ele><time>2026-04-18T08:17:24.056Z</time></trkpt><trkpt lat="37.6723581" lon="13.2277567"><ele>510.0</ele><time>2026-04-18T08:17:25.057Z</time></trkpt><trkpt lat="37.6723182" lon="13.2276183"><ele>510.0</ele><time>2026-04-18T08:17:26.056Z</time></trkpt><trkpt lat="37.6722697" lon="13.2274863"><ele>510.0</ele><time>2026-04-18T08:17:27.057Z</time></trkpt><trkpt lat="37.6722134" lon="13.2273617"><ele>510.0</ele><time>2026-04-18T08:17:28.057Z</time></trkpt><trkpt lat="37.6721471" lon="13.2272371"><ele>510.0</ele><time>2026-04-18T08:17:29.057Z</time></trkpt><trkpt lat="37.6720805" lon="13.2271127"><ele>510.0</ele><time>2026-04-18T08:17:30.057Z</time></trkpt><trkpt lat="37.6720167" lon="13.2269834"><ele>510.25</ele><time>2026-04-18T08:17:31.057Z</time></trkpt><trkpt lat="37.6719523" lon="13.226855"><ele>510.5</ele><time>2026-04-18T08:17:32.057Z</time></trkpt><trkpt lat="37.6718856" lon="13.2267205"><ele>510.75</ele><time>2026-04-18T08:17:33.057Z</time></trkpt><trkpt lat="37.6718088" lon="13.2265751"><ele>511.0</ele><time>2026-04-18T08:17:34.057Z</time></trkpt><trkpt lat="37.6717204" lon="13.2264039"><ele>506.6666666666667</ele><time>2026-04-18T08:17:35.056Z</time></trkpt><trkpt lat="37.6716261" lon="13.2262191"><ele>502.33333333333337</ele><time>2026-04-18T08:17:36.057Z</time></trkpt><trkpt lat="37.6715412" lon="13.2260406"><ele>498.0</ele><time>2026-04-18T08:17:37.057Z</time></trkpt><trkpt lat="37.6714896" lon="13.2258683"><ele>498.0</ele><time>2026-04-18T08:17:38.057Z</time></trkpt><trkpt lat="37.6714634" lon="13.2256926"><ele>498.0</ele><time>2026-04-18T08:17:39.057Z</time></trkpt><trkpt lat="37.6714666" lon="13.225513"><ele>498.0</ele><time>2026-04-18T08:17:40.057Z</time></trkpt><trkpt lat="37.6715" lon="13.2253297"><ele>498.0</ele><time>2026-04-18T08:17:41.056Z</time></trkpt><trkpt lat="37.67156" lon="13.2251686"><ele>496.25</ele><time>2026-04-18T08:17:42.056Z</time></trkpt><trkpt lat="37.6716487" lon="13.225029"><ele>494.5</ele><time>2026-04-18T08:17:43.057Z</time></trkpt><trkpt lat="37.6717472" lon="13.2249034"><ele>492.75</ele><time>2026-04-18T08:17:44.057Z</time></trkpt><trkpt lat="37.6718438" lon="13.22479"><ele>491.0</ele><time>2026-04-18T08:17:45.056Z</time></trkpt><trkpt lat="37.6719437" lon="13.2246801"><ele>489.75</ele><time>2026-04-18T08:17:46.057Z</time></trkpt><trkpt lat="37.6720366" lon="13.2245839"><ele>488.5</ele><time>2026-04-18T08:17:47.056Z</time></trkpt><trkpt lat="37.6721346" lon="13.2244999"><ele>487.25</ele><time>2026-04-18T08:17:48.057Z</time></trkpt><trkpt lat="37.6722303" lon="13.2244231"><ele>486.0</ele><time>2026-04-18T08:17:49.056Z</time></trkpt><trkpt lat="37.6723141" lon="13.2243353"><ele>486.0</ele><time>2026-04-18T08:17:50.057Z</time></trkpt><trkpt lat="37.6723715" lon="13.2242156"><ele>486.0</ele><time>2026-04-18T08:17:51.057Z</time></trkpt><trkpt lat="37.6723859" lon="13.2240748"><ele>486.0</ele><time>2026-04-18T08:17:52.057Z</time></trkpt><trkpt lat="37.6723605" lon="13.2239312"><ele>486.0</ele><time>2026-04-18T08:17:53.056Z</time></trkpt><trkpt lat="37.6723096" lon="13.2238055"><ele>486.25</ele><time>2026-04-18T08:17:54.057Z</time></trkpt><trkpt lat="37.6722264" lon="13.2237147"><ele>486.5</ele><time>2026-04-18T08:17:55.057Z</time></trkpt><trkpt lat="37.6721131" lon="13.2236581"><ele>486.75</ele><time>2026-04-18T08:17:56.057Z</time></trkpt><trkpt lat="37.671988" lon="13.2236501"><ele>487.0</ele><time>2026-04-18T08:17:57.057Z</time></trkpt><trkpt lat="37.6718572" lon="13.2236484"><ele>487.0</ele><time>2026-04-18T08:17:58.057Z</time></trkpt><trkpt lat="37.6717233" lon="13.2236431"><ele>487.0</ele><time>2026-04-18T08:17:59.057Z</time></trkpt><trkpt lat="37.6715928" lon="13.2236364"><ele>487.0</ele><time>2026-04-18T08:18:00.057Z</time></trkpt><trkpt lat="37.671457" lon="13.2236307"><ele>487.0</ele><time>2026-04-18T08:18:01.057Z</time></trkpt><trkpt lat="37.6713275" lon="13.2236277"><ele>487.0</ele><time>2026-04-18T08:18:02.057Z</time></trkpt><trkpt lat="37.6711963" lon="13.2236266"><ele>487.0</ele><time>2026-04-18T08:18:03.056Z</time></trkpt><trkpt lat="37.6710663" lon="13.223626"><ele>487.0</ele><time>2026-04-18T08:18:04.057Z</time></trkpt><trkpt lat="37.6709213" lon="13.2236275"><ele>487.0</ele><time>2026-04-18T08:18:05.057Z</time></trkpt><trkpt lat="37.6707608" lon="13.2236222"><ele>485.5</ele><time>2026-04-18T08:18:06.057Z</time></trkpt><trkpt lat="37.6706084" lon="13.2236167"><ele>484.0</ele><time>2026-04-18T08:18:07.057Z</time></trkpt><trkpt lat="37.6704679" lon="13.2236017"><ele>482.5</ele><time>2026-04-18T08:18:08.057Z</time></trkpt><trkpt lat="37.6703359" lon="13.2235893"><ele>481.0</ele><time>2026-04-18T08:18:09.056Z</time></trkpt><trkpt lat="37.670207" lon="13.223581"><ele>480.0</ele><time>2026-04-18T08:18:10.057Z</time></trkpt><trkpt lat="37.6700852" lon="13.2235736"><ele>479.0</ele><time>2026-04-18T08:18:11.057Z</time></trkpt><trkpt lat="37.6699543" lon="13.2235691"><ele>478.0</ele><time>2026-04-18T08:18:12.057Z</time></trkpt><trkpt lat="37.6698178" lon="13.2235628"><ele>477.0</ele><time>2026-04-18T08:18:13.057Z</time></trkpt><trkpt lat="37.669685" lon="13.2235492"><ele>477.0</ele><time>2026-04-18T08:18:14.057Z</time></trkpt><trkpt lat="37.6695619" lon="13.2235097"><ele>477.0</ele><time>2026-04-18T08:18:15.056Z</time></trkpt><trkpt lat="37.669439" lon="13.2234396"><ele>477.0</ele><time>2026-04-18T08:18:16.057Z</time></trkpt><trkpt lat="37.6693091" lon="13.2233211"><ele>477.0</ele><time>2026-04-18T08:18:17.057Z</time></trkpt><trkpt lat="37.669171" lon="13.2231822"><ele>476.33333333333337</ele><time>2026-04-18T08:18:18.057Z</time></trkpt><trkpt lat="37.6690456" lon="13.2230514"><ele>475.6666666666667</ele><time>2026-04-18T08:18:19.056Z</time></trkpt><trkpt lat="37.6689279" lon="13.2229311"><ele>475.0</ele><time>2026-04-18T08:18:20.056Z</time></trkpt><trkpt lat="37.6688144" lon="13.2228232"><ele>475.0</ele><time>2026-04-18T08:18:21.057Z</time></trkpt><trkpt lat="37.6687056" lon="13.222718"><ele>475.0</ele><time>2026-04-18T08:18:22.056Z</time></trkpt><trkpt lat="37.6686056" lon="13.2226242"><ele>475.0</ele><time>2026-04-18T08:18:23.057Z</time></trkpt><trkpt lat="37.6685148" lon="13.2225352"><ele>475.0</ele><time>2026-04-18T08:18:24.056Z</time></trkpt><trkpt lat="37.6684203" lon="13.2224355"><ele>474.0</ele><time>2026-04-18T08:18:25.056Z</time></trkpt><trkpt lat="37.668308" lon="13.2223318"><ele>473.0</ele><time>2026-04-18T08:18:26.056Z</time></trkpt><trkpt lat="37.6681838" lon="13.2222162"><ele>472.0</ele><time>2026-04-18T08:18:27.057Z</time></trkpt><trkpt lat="37.6680484" lon="13.2221005"><ele>472.0</ele><time>2026-04-18T08:18:28.057Z</time></trkpt><trkpt lat="37.6679099" lon="13.2219823"><ele>472.0</ele><time>2026-04-18T08:18:29.056Z</time></trkpt><trkpt lat="37.6677796" lon="13.221863"><ele>472.0</ele><time>2026-04-18T08:18:30.057Z</time></trkpt><trkpt lat="37.6676527" lon="13.2217431"><ele>470.6666666666667</ele><time>2026-04-18T08:18:31.056Z</time></trkpt><trkpt lat="37.66753" lon="13.2216172"><ele>469.33333333333337</ele><time>2026-04-18T08:18:32.057Z</time></trkpt><trkpt lat="37.6674301" lon="13.2214659"><ele>468.0</ele><time>2026-04-18T08:18:33.057Z</time></trkpt><trkpt lat="37.6673563" lon="13.2212793"><ele>468.0</ele><time>2026-04-18T08:18:34.056Z</time></trkpt><trkpt lat="37.6672922" lon="13.2210692"><ele>468.0</ele><time>2026-04-18T08:18:35.057Z</time></trkpt><trkpt lat="37.6672358" lon="13.2208588"><ele>468.0</ele><time>2026-04-18T08:18:36.057Z</time></trkpt><trkpt lat="37.6671864" lon="13.2206554"><ele>469.33333333333337</ele><time>2026-04-18T08:18:37.056Z</time></trkpt><trkpt lat="37.6671374" lon="13.2204628"><ele>470.6666666666667</ele><time>2026-04-18T08:18:38.057Z</time></trkpt><trkpt lat="37.6670915" lon="13.2202807"><ele>472.0</ele><time>2026-04-18T08:18:39.056Z</time></trkpt><trkpt lat="37.6670435" lon="13.2201066"><ele>472.0</ele><time>2026-04-18T08:18:40.057Z</time></trkpt><trkpt lat="37.6669861" lon="13.2199366"><ele>472.0</ele><time>2026-04-18T08:18:41.057Z</time></trkpt><trkpt lat="37.6669004" lon="13.2197661"><ele>472.0</ele><time>2026-04-18T08:18:42.057Z</time></trkpt><trkpt lat="37.666793" lon="13.2195967"><ele>474.5</ele><time>2026-04-18T08:18:43.056Z</time></trkpt><trkpt lat="37.6666892" lon="13.2194266"><ele>477.0</ele><time>2026-04-18T08:18:44.056Z</time></trkpt><trkpt lat="37.669685" lon="13.2235492"><ele>477.0</ele><time>2026-04-18T08:18:14.057Z</time></trkpt><trkpt lat="37.6695619" lon="13.2235097"><ele>477.0</ele><time>2026-04-18T08:18:15.056Z</time></trkpt><trkpt lat="37.669439" lon="13.2234396"><ele>477.0</ele><time>2026-04-18T08:18:16.057Z</time></trkpt><trkpt lat="37.6693091" lon="13.2233211"><ele>477.0</ele><time>2026-04-18T08:18:17.057Z</time></trkpt><trkpt lat="37.669171" lon="13.2231822"><ele>476.33333333333337</ele><time>2026-04-18T08:18:18.057Z</time></trkpt><trkpt lat="37.6690456" lon="13.2230514"><ele>475.6666666666667</ele><time>2026-04-18T08:18:19.056Z</time></trkpt><trkpt lat="37.6689279" lon="13.2229311"><ele>475.0</ele><time>2026-04-18T08:18:20.056Z</time></trkpt><trkpt lat="37.6688144" lon="13.2228232"><ele>475.0</ele><time>2026-04-18T08:18:21.057Z</time></trkpt><trkpt lat="37.6687056" lon="13.222718"><ele>475.0</ele><time>2026-04-18T08:18:22.056Z</time></trkpt><trkpt lat="37.6686056" lon="13.2226242"><ele>475.0</ele><time>2026-04-18T08:18:23.057Z</time></trkpt><trkpt lat="37.6685148" lon="13.2225352"><ele>475.0</ele><time>2026-04-18T08:18:24.056Z</time></trkpt><trkpt lat="37.6684203" lon="13.2224355"><ele>474.0</ele><time>2026-04-18T08:18:25.056Z</time></trkpt><trkpt lat="37.668308" lon="13.2223318"><ele>473.0</ele><time>2026-04-18T08:18:26.056Z</time></trkpt><trkpt lat="37.6681838" lon="13.2222162"><ele>472.0</ele><time>2026-04-18T08:18:27.057Z</time></trkpt><trkpt lat="37.6680484" lon="13.2221005"><ele>472.0</ele><time>2026-04-18T08:18:28.057Z</time></trkpt><trkpt lat="37.6679099" lon="13.2219823"><ele>472.0</ele><time>2026-04-18T08:18:29.056Z</time></trkpt><trkpt lat="37.6677796" lon="13.221863"><ele>472.0</ele><time>2026-04-18T08:18:30.057Z</time></trkpt><trkpt lat="37.6676527" lon="13.2217431"><ele>470.6666666666667</ele><time>2026-04-18T08:18:31.056Z</time></trkpt><trkpt lat="37.66753" lon="13.2216172"><ele>469.33333333333337</ele><time>2026-04-18T08:18:32.057Z</time></trkpt><trkpt lat="37.6674301" lon="13.2214659"><ele>468.0</ele><time>2026-04-18T08:18:33.057Z</time></trkpt><trkpt lat="37.6673563" lon="13.2212793"><ele>468.0</ele><time>2026-04-18T08:18:34.056Z</time></trkpt><trkpt lat="37.6672922" lon="13.2210692"><ele>468.0</ele><time>2026-04-18T08:18:35.057Z</time></trkpt><trkpt lat="37.6672358" lon="13.2208588"><ele>468.0</ele><time>2026-04-18T08:18:36.057Z</time></trkpt><trkpt lat="37.6671864" lon="13.2206554"><ele>469.33333333333337</ele><time>2026-04-18T08:18:37.056Z</time></trkpt><trkpt lat="37.6671374" lon="13.2204628"><ele>470.6666666666667</ele><time>2026-04-18T08:18:38.057Z</time></trkpt><trkpt lat="37.6670915" lon="13.2202807"><ele>472.0</ele><time>2026-04-18T08:18:39.056Z</time></trkpt><trkpt lat="37.6670435" lon="13.2201066"><ele>472.0</ele><time>2026-04-18T08:18:40.057Z</time></trkpt><trkpt lat="37.6669861" lon="13.2199366"><ele>472.0</ele><time>2026-04-18T08:18:41.057Z</time></trkpt><trkpt lat="37.6669004" lon="13.2197661"><ele>472.0</ele><time>2026-04-18T08:18:42.057Z</time></trkpt><trkpt lat="37.666793" lon="13.2195967"><ele>465.6666666666667</ele><time>2026-04-18T08:18:43.056Z</time></trkpt><trkpt lat="37.6666892" lon="13.2194266"><ele>459.33333333333337</ele><time>2026-04-18T08:18:44.056Z</time></trkpt><trkpt lat="37.66661" lon="13.2192423"><ele>453.0</ele><time>2026-04-18T08:18:45.057Z</time></trkpt><trkpt lat="37.666551" lon="13.2190535"><ele>454.5</ele><time>2026-04-18T08:18:46.056Z</time></trkpt><trkpt lat="37.6665107" lon="13.218875"><ele>456.0</ele><time>2026-04-18T08:18:47.056Z</time></trkpt><trkpt lat="37.6664811" lon="13.2186983"><ele>457.5</ele><time>2026-04-18T08:18:48.057Z</time></trkpt><trkpt lat="37.6664391" lon="13.2185367"><ele>459.0</ele><time>2026-04-18T08:18:49.057Z</time></trkpt><trkpt lat="37.6663789" lon="13.2183958"><ele>459.0</ele><time>2026-04-18T08:18:50.057Z</time></trkpt><trkpt lat="37.6662896" lon="13.2182694"><ele>459.0</ele><time>2026-04-18T08:18:51.057Z</time></trkpt><trkpt lat="37.6661608" lon="13.2181761"><ele>459.0</ele><time>2026-04-18T08:18:52.056Z</time></trkpt><trkpt lat="37.665983" lon="13.2180692"><ele>453.0</ele><time>2026-04-18T08:18:53.056Z</time></trkpt><trkpt lat="37.6657693" lon="13.2179128"><ele>447.0</ele><time>2026-04-18T08:18:54.056Z</time></trkpt><trkpt lat="37.6655368" lon="13.2177148"><ele>447.0</ele><time>2026-04-18T08:18:55.057Z</time></trkpt><trkpt lat="37.665296" lon="13.2175199"><ele>447.0</ele><time>2026-04-18T08:18:56.055Z</time></trkpt><trkpt lat="37.6650747" lon="13.2173494"><ele>445.5</ele><time>2026-04-18T08:18:57.056Z</time></trkpt><trkpt lat="37.6648727" lon="13.2171919"><ele>444.0</ele><time>2026-04-18T08:18:58.057Z</time></trkpt><trkpt lat="37.664685" lon="13.2170403"><ele>444.0</ele><time>2026-04-18T08:18:59.057Z</time></trkpt><trkpt lat="37.6645186" lon="13.2168772"><ele>444.0</ele><time>2026-04-18T08:19:00.057Z</time></trkpt><trkpt lat="37.6643685" lon="13.2166899"><ele>444.0</ele><time>2026-04-18T08:19:01.057Z</time></trkpt><trkpt lat="37.6642268" lon="13.2164695"><ele>439.0</ele><time>2026-04-18T08:19:02.057Z</time></trkpt><trkpt lat="37.6640928" lon="13.2162292"><ele>434.0</ele><time>2026-04-18T08:19:03.057Z</time></trkpt><trkpt lat="37.6639717" lon="13.2159877"><ele>434.0</ele><time>2026-04-18T08:19:04.057Z</time></trkpt><trkpt lat="37.6638688" lon="13.2157761"><ele>434.0</ele><time>2026-04-18T08:19:05.057Z</time></trkpt><trkpt lat="37.663784" lon="13.2156037"><ele>434.0</ele><time>2026-04-18T08:19:06.056Z</time></trkpt><trkpt lat="37.6637128" lon="13.2154622"><ele>432.5</ele><time>2026-04-18T08:19:07.057Z</time></trkpt><trkpt lat="37.6636754" lon="13.2153301"><ele>431.0</ele><time>2026-04-18T08:19:08.056Z</time></trkpt><trkpt lat="37.6636832" lon="13.2151956"><ele>429.5</ele><time>2026-04-18T08:19:09.057Z</time></trkpt><trkpt lat="37.6637481" lon="13.2150734"><ele>428.0</ele><time>2026-04-18T08:19:10.057Z</time></trkpt><trkpt lat="37.6638731" lon="13.21498"><ele>428.0</ele><time>2026-04-18T08:19:11.057Z</time></trkpt><trkpt lat="37.6640315" lon="13.214903"><ele>428.0</ele><time>2026-04-18T08:19:12.056Z</time></trkpt><trkpt lat="37.6641943" lon="13.2148567"><ele>428.0</ele><time>2026-04-18T08:19:13.057Z</time></trkpt><trkpt lat="37.6643531" lon="13.2148572"><ele>427.3333333333333</ele><time>2026-04-18T08:19:14.057Z</time></trkpt><trkpt lat="37.664512" lon="13.2148836"><ele>426.66666666666663</ele><time>2026-04-18T08:19:15.056Z</time></trkpt><trkpt lat="37.6646781" lon="13.2148916"><ele>426.0</ele><time>2026-04-18T08:19:16.056Z</time></trkpt><trkpt lat="37.6648454" lon="13.2148411"><ele>418.0</ele><time>2026-04-18T08:19:17.056Z</time></trkpt><trkpt lat="37.6649951" lon="13.2147456"><ele>410.0</ele><time>2026-04-18T08:19:18.057Z</time></trkpt><trkpt lat="37.6651254" lon="13.2146859"><ele>402.0</ele><time>2026-04-18T08:19:19.056Z</time></trkpt><trkpt lat="37.6652762" lon="13.214698"><ele>400.66666666666663</ele><time>2026-04-18T08:19:20.057Z</time></trkpt><trkpt lat="37.6654475" lon="13.2147655"><ele>399.3333333333333</ele><time>2026-04-18T08:19:21.057Z</time></trkpt><trkpt lat="37.6656098" lon="13.214844"><ele>398.0</ele><time>2026-04-18T08:19:22.056Z</time></trkpt><trkpt lat="37.6657365" lon="13.2149395"><ele>403.0</ele><time>2026-04-18T08:19:23.057Z</time></trkpt><trkpt lat="37.6658453" lon="13.2150285"><ele>408.0</ele><time>2026-04-18T08:19:24.056Z</time></trkpt><trkpt lat="37.6659694" lon="13.2150701"><ele>413.0</ele><time>2026-04-18T08:19:25.057Z</time></trkpt><trkpt lat="37.6661363" lon="13.215039"><ele>418.0</ele><time>2026-04-18T08:19:26.057Z</time></trkpt><trkpt lat="37.6663223" lon="13.2149582"><ele>418.0</ele><time>2026-04-18T08:19:27.057Z</time></trkpt><trkpt lat="37.666501" lon="13.2148739"><ele>418.0</ele><time>2026-04-18T08:19:28.057Z</time></trkpt><trkpt lat="37.6666639" lon="13.2147978"><ele>418.0</ele><time>2026-04-18T08:19:29.057Z</time></trkpt><trkpt lat="37.6668219" lon="13.2147287"><ele>414.75</ele><time>2026-04-18T08:19:30.057Z</time></trkpt><trkpt lat="37.6669612" lon="13.2146593"><ele>411.5</ele><time>2026-04-18T08:19:31.057Z</time></trkpt><trkpt lat="37.6670866" lon="13.214607"><ele>408.25</ele><time>2026-04-18T08:19:32.057Z</time></trkpt><trkpt lat="37.6671756" lon="13.2145531"><ele>405.0</ele><time>2026-04-18T08:19:33.057Z</time></trkpt><trkpt lat="37.6672534" lon="13.2145154"><ele>405.0</ele><time>2026-04-18T08:19:34.057Z</time></trkpt><trkpt lat="37.6673245" lon="13.21447"><ele>405.0</ele><time>2026-04-18T08:19:35.057Z</time></trkpt><trkpt lat="37.667393" lon="13.2143951"><ele>405.0</ele><time>2026-04-18T08:19:36.057Z</time></trkpt><trkpt lat="37.6674537" lon="13.2142874"><ele>405.0</ele><time>2026-04-18T08:19:37.057Z</time></trkpt><trkpt lat="37.6675016" lon="13.2141588"><ele>405.0</ele><time>2026-04-18T08:19:38.056Z</time></trkpt><trkpt lat="37.6675343" lon="13.2140436"><ele>407.0</ele><time>2026-04-18T08:19:39.057Z</time></trkpt><trkpt lat="37.6675428" lon="13.2139324"><ele>409.0</ele><time>2026-04-18T08:19:40.057Z</time></trkpt><trkpt lat="37.6675236" lon="13.2138377"><ele>411.0</ele><time>2026-04-18T08:19:41.056Z</time></trkpt><trkpt lat="37.6674773" lon="13.213744"><ele>413.0</ele><time>2026-04-18T08:19:42.057Z</time></trkpt><trkpt lat="37.6673939" lon="13.213653"><ele>415.0</ele><time>2026-04-18T08:19:43.056Z</time></trkpt><trkpt lat="37.6672762" lon="13.2135598"><ele>415.0</ele><time>2026-04-18T08:19:44.057Z</time></trkpt><trkpt lat="37.6671297" lon="13.2134706"><ele>415.0</ele><time>2026-04-18T08:19:45.057Z</time></trkpt><trkpt lat="37.6669702" lon="13.2133644"><ele>415.0</ele><time>2026-04-18T08:19:46.057Z</time></trkpt><trkpt lat="37.6667998" lon="13.2132472"><ele>417.0</ele><time>2026-04-18T08:19:47.057Z</time></trkpt><trkpt lat="37.6666144" lon="13.213125"><ele>419.0</ele><time>2026-04-18T08:19:48.057Z</time></trkpt><trkpt lat="37.6664231" lon="13.2129907"><ele>421.0</ele><time>2026-04-18T08:19:49.056Z</time></trkpt><trkpt lat="37.6662424" lon="13.2128564"><ele>416.33333333333337</ele><time>2026-04-18T08:19:50.057Z</time></trkpt><trkpt lat="37.6660711" lon="13.2127181"><ele>411.66666666666663</ele><time>2026-04-18T08:19:51.057Z</time></trkpt><trkpt lat="37.6659123" lon="13.2125638"><ele>407.0</ele><time>2026-04-18T08:19:52.057Z</time></trkpt><trkpt lat="37.6657635" lon="13.2123944"><ele>411.66666666666663</ele><time>2026-04-18T08:19:53.057Z</time></trkpt><trkpt lat="37.6656208" lon="13.2122083"><ele>416.33333333333337</ele><time>2026-04-18T08:19:54.056Z</time></trkpt><trkpt lat="37.6654981" lon="13.2120146"><ele>421.0</ele><time>2026-04-18T08:19:55.056Z</time></trkpt><trkpt lat="37.6653845" lon="13.211847"><ele>417.0</ele><time>2026-04-18T08:19:56.057Z</time></trkpt><trkpt lat="37.6652602" lon="13.2117227"><ele>413.0</ele><time>2026-04-18T08:19:57.057Z</time></trkpt><trkpt lat="37.66511" lon="13.2116645"><ele>409.0</ele><time>2026-04-18T08:19:58.056Z</time></trkpt><trkpt lat="37.6649466" lon="13.2116196"><ele>409.0</ele><time>2026-04-18T08:19:59.056Z</time></trkpt><trkpt lat="37.6647813" lon="13.2115298"><ele>409.0</ele><time>2026-04-18T08:20:00.056Z</time></trkpt><trkpt lat="37.6646269" lon="13.2113828"><ele>409.0</ele><time>2026-04-18T08:20:01.057Z</time></trkpt><trkpt lat="37.6644789" lon="13.2112263"><ele>411.33333333333337</ele><time>2026-04-18T08:20:02.057Z</time></trkpt><trkpt lat="37.664328" lon="13.2111029"><ele>413.66666666666663</ele><time>2026-04-18T08:20:03.056Z</time></trkpt><trkpt lat="37.66416" lon="13.2110267"><ele>416.0</ele><time>2026-04-18T08:20:04.057Z</time></trkpt><trkpt lat="37.663981" lon="13.2109968"><ele>416.0</ele><time>2026-04-18T08:20:05.056Z</time></trkpt><trkpt lat="37.6638192" lon="13.2109618"><ele>416.0</ele><time>2026-04-18T08:20:06.057Z</time></trkpt><trkpt lat="37.6636675" lon="13.2108937"><ele>416.0</ele><time>2026-04-18T08:20:07.056Z</time></trkpt><trkpt lat="37.6635471" lon="13.210781"><ele>414.66666666666663</ele><time>2026-04-18T08:20:08.056Z</time></trkpt><trkpt lat="37.6634648" lon="13.2106107"><ele>413.33333333333337</ele><time>2026-04-18T08:20:09.057Z</time></trkpt><trkpt lat="37.6633924" lon="13.2103843"><ele>412.0</ele><time>2026-04-18T08:20:10.057Z</time></trkpt><trkpt lat="37.6633226" lon="13.210137"><ele>412.0</ele><time>2026-04-18T08:20:11.057Z</time></trkpt><trkpt lat="37.6632404" lon="13.2098894"><ele>412.0</ele><time>2026-04-18T08:20:12.056Z</time></trkpt><trkpt lat="37.6631522" lon="13.2096502"><ele>412.0</ele><time>2026-04-18T08:20:13.056Z</time></trkpt><trkpt lat="37.6630906" lon="13.2094165"><ele>413.33333333333337</ele><time>2026-04-18T08:20:14.056Z</time></trkpt><trkpt lat="37.663057" lon="13.2091739"><ele>414.66666666666663</ele><time>2026-04-18T08:20:15.057Z</time></trkpt><trkpt lat="37.6630554" lon="13.2089134"><ele>416.0</ele><time>2026-04-18T08:20:16.057Z</time></trkpt><trkpt lat="37.6630617" lon="13.2086268"><ele>416.0</ele><time>2026-04-18T08:20:17.057Z</time></trkpt><trkpt lat="37.6630622" lon="13.20833"><ele>416.0</ele><time>2026-04-18T08:20:18.056Z</time></trkpt><trkpt lat="37.6630627" lon="13.2080407"><ele>414.0</ele><time>2026-04-18T08:20:19.056Z</time></trkpt><trkpt lat="37.6630797" lon="13.2077471"><ele>412.0</ele><time>2026-04-18T08:20:20.056Z</time></trkpt><trkpt lat="37.663118" lon="13.2074465"><ele>410.0</ele><time>2026-04-18T08:20:21.057Z</time></trkpt><trkpt lat="37.6631702" lon="13.2071269"><ele>408.0</ele><time>2026-04-18T08:20:22.056Z</time></trkpt><trkpt lat="37.6632228" lon="13.2068011"><ele>405.0</ele><time>2026-04-18T08:20:23.057Z</time></trkpt><trkpt lat="37.6632824" lon="13.2064787"><ele>402.0</ele><time>2026-04-18T08:20:24.057Z</time></trkpt><trkpt lat="37.6633469" lon="13.2061893"><ele>402.0</ele><time>2026-04-18T08:20:25.056Z</time></trkpt><trkpt lat="37.6634126" lon="13.2059277"><ele>402.0</ele><time>2026-04-18T08:20:26.056Z</time></trkpt><trkpt lat="37.6634607" lon="13.2056743"><ele>402.0</ele><time>2026-04-18T08:20:27.056Z</time></trkpt><trkpt lat="37.6634528" lon="13.2054022"><ele>402.5</ele><time>2026-04-18T08:20:28.057Z</time></trkpt><trkpt lat="37.6634245" lon="13.2051"><ele>403.0</ele><time>2026-04-18T08:20:29.056Z</time></trkpt><trkpt lat="37.6633818" lon="13.2047729"><ele>403.0</ele><time>2026-04-18T08:20:30.057Z</time></trkpt><trkpt lat="37.6633436" lon="13.2044498"><ele>403.0</ele><time>2026-04-18T08:20:31.057Z</time></trkpt><trkpt lat="37.6633176" lon="13.204153"><ele>402.6666666666667</ele><time>2026-04-18T08:20:32.057Z</time></trkpt><trkpt lat="37.6632727" lon="13.2039075"><ele>402.33333333333337</ele><time>2026-04-18T08:20:33.057Z</time></trkpt><trkpt lat="37.6632591" lon="13.2037107"><ele>402.0</ele><time>2026-04-18T08:20:34.064Z</time></trkpt><trkpt lat="37.6632781" lon="13.2035215"><ele>402.0</ele><time>2026-04-18T08:20:35.064Z</time></trkpt><trkpt lat="37.6633097" lon="13.2033271"><ele>402.0</ele><time>2026-04-18T08:20:36.064Z</time></trkpt><trkpt lat="37.6633632" lon="13.2031346"><ele>402.0</ele><time>2026-04-18T08:20:37.064Z</time></trkpt><trkpt lat="37.6634161" lon="13.2029627"><ele>401.25</ele><time>2026-04-18T08:20:38.063Z</time></trkpt><trkpt lat="37.6634681" lon="13.2028211"><ele>400.5</ele><time>2026-04-18T08:20:39.064Z</time></trkpt><trkpt lat="37.6634936" lon="13.202686"><ele>399.75</ele><time>2026-04-18T08:20:40.064Z</time></trkpt><trkpt lat="37.6634756" lon="13.2025471"><ele>399.0</ele><time>2026-04-18T08:20:41.064Z</time></trkpt><trkpt lat="37.6634242" lon="13.2024036"><ele>400.2</ele><time>2026-04-18T08:20:42.064Z</time></trkpt><trkpt lat="37.6633761" lon="13.202269"><ele>401.4</ele><time>2026-04-18T08:20:43.064Z</time></trkpt><trkpt lat="37.6633325" lon="13.2021639"><ele>402.6</ele><time>2026-04-18T08:20:44.064Z</time></trkpt><trkpt lat="37.6632823" lon="13.2020635"><ele>403.8</ele><time>2026-04-18T08:20:45.064Z</time></trkpt><trkpt lat="37.6632125" lon="13.2019938"><ele>405.0</ele><time>2026-04-18T08:20:46.064Z</time></trkpt><trkpt lat="37.6631169" lon="13.2019625"><ele>405.0</ele><time>2026-04-18T08:20:47.064Z</time></trkpt><trkpt lat="37.6629852" lon="13.2019904"><ele>405.0</ele><time>2026-04-18T08:20:48.064Z</time></trkpt><trkpt lat="37.6628438" lon="13.2020497"><ele>405.0</ele><time>2026-04-18T08:20:49.063Z</time></trkpt><trkpt lat="37.662697" lon="13.2021305"><ele>405.0</ele><time>2026-04-18T08:20:50.063Z</time></trkpt><trkpt lat="37.6625437" lon="13.2022037"><ele>406.2</ele><time>2026-04-18T08:20:51.064Z</time></trkpt><trkpt lat="37.662409" lon="13.2022644"><ele>407.4</ele><time>2026-04-18T08:20:52.064Z</time></trkpt><trkpt lat="37.662301" lon="13.2022864"><ele>408.6</ele><time>2026-04-18T08:20:53.063Z</time></trkpt><trkpt lat="37.6622063" lon="13.202292"><ele>409.8</ele><time>2026-04-18T08:20:54.063Z</time></trkpt><trkpt lat="37.662113" lon="13.2022651"><ele>411.0</ele><time>2026-04-18T08:20:55.064Z</time></trkpt><trkpt lat="37.6620211" lon="13.2021883"><ele>411.0</ele><time>2026-04-18T08:20:56.064Z</time></trkpt><trkpt lat="37.6619573" lon="13.2020718"><ele>411.0</ele><time>2026-04-18T08:20:57.063Z</time></trkpt><trkpt lat="37.6619062" lon="13.2019085"><ele>411.0</ele><time>2026-04-18T08:20:58.063Z</time></trkpt><trkpt lat="37.6618794" lon="13.2017231"><ele>411.0</ele><time>2026-04-18T08:20:59.064Z</time></trkpt><trkpt lat="37.6618921" lon="13.201525"><ele>411.66666666666663</ele><time>2026-04-18T08:21:00.064Z</time></trkpt><trkpt lat="37.6619352" lon="13.2013371"><ele>412.3333333333333</ele><time>2026-04-18T08:21:01.063Z</time></trkpt><trkpt lat="37.662007" lon="13.2011489"><ele>413.0</ele><time>2026-04-18T08:21:02.064Z</time></trkpt><trkpt lat="37.6621017" lon="13.2009807"><ele>413.0</ele><time>2026-04-18T08:21:03.064Z</time></trkpt><trkpt lat="37.6622022" lon="13.2008114"><ele>413.0</ele><time>2026-04-18T08:21:04.064Z</time></trkpt><trkpt lat="37.6622936" lon="13.2006382"><ele>413.0</ele><time>2026-04-18T08:21:05.063Z</time></trkpt><trkpt lat="37.6623743" lon="13.2004845"><ele>413.66666666666663</ele><time>2026-04-18T08:21:06.064Z</time></trkpt><trkpt lat="37.6624354" lon="13.2003235"><ele>414.33333333333337</ele><time>2026-04-18T08:21:07.063Z</time></trkpt><trkpt lat="37.6624712" lon="13.2001394"><ele>415.0</ele><time>2026-04-18T08:21:08.064Z</time></trkpt><trkpt lat="37.6624666" lon="13.1999384"><ele>415.6666666666667</ele><time>2026-04-18T08:21:09.063Z</time></trkpt><trkpt lat="37.6624379" lon="13.199711"><ele>416.33333333333337</ele><time>2026-04-18T08:21:10.064Z</time></trkpt><trkpt lat="37.6623941" lon="13.1994721"><ele>417.0</ele><time>2026-04-18T08:21:11.064Z</time></trkpt><trkpt lat="37.6623359" lon="13.1992159"><ele>418.66666666666663</ele><time>2026-04-18T08:21:12.064Z</time></trkpt><trkpt lat="37.6622764" lon="13.198955"><ele>420.3333333333333</ele><time>2026-04-18T08:21:13.064Z</time></trkpt><trkpt lat="37.6622161" lon="13.198681"><ele>422.0</ele><time>2026-04-18T08:21:14.063Z</time></trkpt><trkpt lat="37.6621535" lon="13.1984033"><ele>423.5</ele><time>2026-04-18T08:21:15.064Z</time></trkpt><trkpt lat="37.6620858" lon="13.1981176"><ele>425.0</ele><time>2026-04-18T08:21:16.063Z</time></trkpt><trkpt lat="37.6620195" lon="13.1978188"><ele>425.0</ele><time>2026-04-18T08:21:17.064Z</time></trkpt><trkpt lat="37.661958" lon="13.1975153"><ele>425.0</ele><time>2026-04-18T08:21:18.064Z</time></trkpt><trkpt lat="37.6618973" lon="13.1972156"><ele>421.0</ele><time>2026-04-18T08:21:19.063Z</time></trkpt><trkpt lat="37.6618362" lon="13.1969112"><ele>417.0</ele><time>2026-04-18T08:21:20.064Z</time></trkpt><trkpt lat="37.6617785" lon="13.1966058"><ele>419.0</ele><time>2026-04-18T08:21:21.063Z</time></trkpt><trkpt lat="37.6617185" lon="13.1962974"><ele>421.0</ele><time>2026-04-18T08:21:22.064Z</time></trkpt><trkpt lat="37.6616642" lon="13.1960113"><ele>421.0</ele><time>2026-04-18T08:21:23.063Z</time></trkpt><trkpt lat="37.6616203" lon="13.1957447"><ele>421.0</ele><time>2026-04-18T08:21:24.064Z</time></trkpt><trkpt lat="37.6615803" lon="13.1954743"><ele>421.0</ele><time>2026-04-18T08:21:25.064Z</time></trkpt><trkpt lat="37.6615508" lon="13.1951974"><ele>421.33333333333337</ele><time>2026-04-18T08:21:26.063Z</time></trkpt><trkpt lat="37.6615166" lon="13.1949285"><ele>421.66666666666663</ele><time>2026-04-18T08:21:27.064Z</time></trkpt><trkpt lat="37.6614748" lon="13.1946682"><ele>422.0</ele><time>2026-04-18T08:21:28.064Z</time></trkpt><trkpt lat="37.6614426" lon="13.1944137"><ele>422.0</ele><time>2026-04-18T08:21:29.064Z</time></trkpt><trkpt lat="37.6614194" lon="13.1941593"><ele>422.0</ele><time>2026-04-18T08:21:30.064Z</time></trkpt><trkpt lat="37.6613984" lon="13.1939085"><ele>422.0</ele><time>2026-04-18T08:21:31.064Z</time></trkpt><trkpt lat="37.6613754" lon="13.1936748"><ele>422.3333333333333</ele><time>2026-04-18T08:21:32.063Z</time></trkpt><trkpt lat="37.6613451" lon="13.1934465"><ele>422.66666666666663</ele><time>2026-04-18T08:21:33.064Z</time></trkpt><trkpt lat="37.6613026" lon="13.1932267"><ele>423.0</ele><time>2026-04-18T08:21:34.064Z</time></trkpt><trkpt lat="37.6612424" lon="13.1930024"><ele>423.66666666666663</ele><time>2026-04-18T08:21:35.064Z</time></trkpt><trkpt lat="37.6611777" lon="13.1927685"><ele>424.3333333333333</ele><time>2026-04-18T08:21:36.064Z</time></trkpt><trkpt lat="37.6611341" lon="13.192512"><ele>425.0</ele><time>2026-04-18T08:21:37.064Z</time></trkpt><trkpt lat="37.6611067" lon="13.1922446"><ele>421.3333333333333</ele><time>2026-04-18T08:21:38.064Z</time></trkpt><trkpt lat="37.6610815" lon="13.1919719"><ele>417.66666666666663</ele><time>2026-04-18T08:21:39.064Z</time></trkpt><trkpt lat="37.6610469" lon="13.1916957"><ele>414.0</ele><time>2026-04-18T08:21:40.064Z</time></trkpt><trkpt lat="37.6610155" lon="13.1914203"><ele>414.0</ele><time>2026-04-18T08:21:41.064Z</time></trkpt><trkpt lat="37.6609821" lon="13.1911382"><ele>414.0</ele><time>2026-04-18T08:21:42.064Z</time></trkpt><trkpt lat="37.6609583" lon="13.1908461"><ele>413.5</ele><time>2026-04-18T08:21:43.063Z</time></trkpt><trkpt lat="37.6609482" lon="13.1905438"><ele>413.0</ele><time>2026-04-18T08:21:44.064Z</time></trkpt><trkpt lat="37.6609455" lon="13.1902393"><ele>413.0</ele><time>2026-04-18T08:21:45.064Z</time></trkpt><trkpt lat="37.6609414" lon="13.1899291"><ele>413.0</ele><time>2026-04-18T08:21:46.063Z</time></trkpt><trkpt lat="37.6609384" lon="13.1896129"><ele>410.5</ele><time>2026-04-18T08:21:47.063Z</time></trkpt><trkpt lat="37.6609329" lon="13.1892945"><ele>408.0</ele><time>2026-04-18T08:21:48.064Z</time></trkpt><trkpt lat="37.6609283" lon="13.1889761"><ele>405.5</ele><time>2026-04-18T08:21:49.063Z</time></trkpt><trkpt lat="37.6609186" lon="13.1886701"><ele>403.0</ele><time>2026-04-18T08:21:50.063Z</time></trkpt><trkpt lat="37.6609127" lon="13.188387"><ele>403.33333333333337</ele><time>2026-04-18T08:21:51.064Z</time></trkpt><trkpt lat="37.6608986" lon="13.188126"><ele>403.66666666666663</ele><time>2026-04-18T08:21:52.064Z</time></trkpt><trkpt lat="37.6608596" lon="13.1878574"><ele>404.0</ele><time>2026-04-18T08:21:53.064Z</time></trkpt><trkpt lat="37.6607945" lon="13.1875879"><ele>403.66666666666663</ele><time>2026-04-18T08:21:54.064Z</time></trkpt><trkpt lat="37.6607083" lon="13.1873311"><ele>403.33333333333337</ele><time>2026-04-18T08:21:55.064Z</time></trkpt><trkpt lat="37.6606082" lon="13.1870731"><ele>403.0</ele><time>2026-04-18T08:21:56.063Z</time></trkpt><trkpt lat="37.6604913" lon="13.1868233"><ele>403.0</ele><time>2026-04-18T08:21:57.064Z</time></trkpt><trkpt lat="37.6603566" lon="13.1865729"><ele>403.0</ele><time>2026-04-18T08:21:58.063Z</time></trkpt><trkpt lat="37.6602174" lon="13.18632"><ele>397.5</ele><time>2026-04-18T08:21:59.064Z</time></trkpt><trkpt lat="37.6600821" lon="13.186064"><ele>392.0</ele><time>2026-04-18T08:22:00.064Z</time></trkpt><trkpt lat="37.6599511" lon="13.1858253"><ele>392.0</ele><time>2026-04-18T08:22:01.064Z</time></trkpt><trkpt lat="37.6598267" lon="13.1855964"><ele>392.0</ele><time>2026-04-18T08:22:02.064Z</time></trkpt><trkpt lat="37.6597159" lon="13.1853921"><ele>392.0</ele><time>2026-04-18T08:22:03.064Z</time></trkpt><trkpt lat="37.6596158" lon="13.1852078"><ele>392.0</ele><time>2026-04-18T08:22:04.064Z</time></trkpt><trkpt lat="37.6595302" lon="13.1850374"><ele>392.0</ele><time>2026-04-18T08:22:05.063Z</time></trkpt><trkpt lat="37.6594607" lon="13.1848869"><ele>392.0</ele><time>2026-04-18T08:22:06.064Z</time></trkpt><trkpt lat="37.6593996" lon="13.1847779"><ele>392.0</ele><time>2026-04-18T08:22:07.064Z</time></trkpt><trkpt lat="37.6593478" lon="13.184712"><ele>392.40000000000003</ele><time>2026-04-18T08:22:08.063Z</time></trkpt><trkpt lat="37.6592903" lon="13.1846676"><ele>392.8</ele><time>2026-04-18T08:22:09.063Z</time></trkpt><trkpt lat="37.6592109" lon="13.1846344"><ele>393.2</ele><time>2026-04-18T08:22:10.063Z</time></trkpt><trkpt lat="37.6591002" lon="13.1845955"><ele>393.6</ele><time>2026-04-18T08:22:11.064Z</time></trkpt><trkpt lat="37.6589729" lon="13.1845526"><ele>394.0</ele><time>2026-04-18T08:22:12.064Z</time></trkpt><trkpt lat="37.6588265" lon="13.184508"><ele>394.0</ele><time>2026-04-18T08:22:13.064Z</time></trkpt><trkpt lat="37.6586628" lon="13.1844623"><ele>394.0</ele><time>2026-04-18T08:22:14.063Z</time></trkpt><trkpt lat="37.658494" lon="13.1844096"><ele>394.0</ele><time>2026-04-18T08:22:15.063Z</time></trkpt><trkpt lat="37.6583173" lon="13.1843474"><ele>393.0</ele><time>2026-04-18T08:22:16.063Z</time></trkpt><trkpt lat="37.6581242" lon="13.1842817"><ele>392.0</ele><time>2026-04-18T08:22:17.064Z</time></trkpt><trkpt lat="37.6579213" lon="13.1842134"><ele>391.0</ele><time>2026-04-18T08:22:18.063Z</time></trkpt><trkpt lat="37.6577123" lon="13.1841418"><ele>390.6666666666667</ele><time>2026-04-18T08:22:19.064Z</time></trkpt><trkpt lat="37.6575132" lon="13.1840763"><ele>390.33333333333337</ele><time>2026-04-18T08:22:20.064Z</time></trkpt><trkpt lat="37.6573195" lon="13.1840143"><ele>390.0</ele><time>2026-04-18T08:22:21.064Z</time></trkpt><trkpt lat="37.6571314" lon="13.1839299"><ele>389.0</ele><time>2026-04-18T08:22:22.064Z</time></trkpt><trkpt lat="37.6569446" lon="13.1838138"><ele>388.0</ele><time>2026-04-18T08:22:23.063Z</time></trkpt><trkpt lat="37.6567604" lon="13.1836839"><ele>387.0</ele><time>2026-04-18T08:22:24.064Z</time></trkpt><trkpt lat="37.6565823" lon="13.1835406"><ele>387.0</ele><time>2026-04-18T08:22:25.064Z</time></trkpt><trkpt lat="37.6564077" lon="13.183385"><ele>387.0</ele><time>2026-04-18T08:22:26.064Z</time></trkpt><trkpt lat="37.6562381" lon="13.1832249"><ele>387.0</ele><time>2026-04-18T08:22:27.064Z</time></trkpt><trkpt lat="37.6560857" lon="13.1830481"><ele>385.6666666666667</ele><time>2026-04-18T08:22:28.064Z</time></trkpt><trkpt lat="37.6559445" lon="13.1828452"><ele>384.33333333333337</ele><time>2026-04-18T08:22:29.064Z</time></trkpt><trkpt lat="37.6558113" lon="13.1826154"><ele>383.0</ele><time>2026-04-18T08:22:30.064Z</time></trkpt><trkpt lat="37.6556736" lon="13.1823792"><ele>382.6666666666667</ele><time>2026-04-18T08:22:31.064Z</time></trkpt><trkpt lat="37.655527" lon="13.1821542"><ele>382.3333333333333</ele><time>2026-04-18T08:22:32.064Z</time></trkpt><trkpt lat="37.6553799" lon="13.1819537"><ele>382.0</ele><time>2026-04-18T08:22:33.063Z</time></trkpt><trkpt lat="37.6552115" lon="13.181787"><ele>380.0</ele><time>2026-04-18T08:22:34.063Z</time></trkpt><trkpt lat="37.6550329" lon="13.1816533"><ele>378.0</ele><time>2026-04-18T08:22:35.064Z</time></trkpt><trkpt lat="37.6548643" lon="13.1815529"><ele>376.0</ele><time>2026-04-18T08:22:36.064Z</time></trkpt><trkpt lat="37.6547227" lon="13.1814414"><ele>376.0</ele><time>2026-04-18T08:22:37.064Z</time></trkpt><trkpt lat="37.6546129" lon="13.181305"><ele>376.0</ele><time>2026-04-18T08:22:38.064Z</time></trkpt><trkpt lat="37.6545358" lon="13.1811389"><ele>376.0</ele><time>2026-04-18T08:22:39.064Z</time></trkpt><trkpt lat="37.6544845" lon="13.1809251"><ele>374.0</ele><time>2026-04-18T08:22:40.064Z</time></trkpt><trkpt lat="37.6544376" lon="13.1806727"><ele>372.0</ele><time>2026-04-18T08:22:41.064Z</time></trkpt><trkpt lat="37.6543907" lon="13.1804014"><ele>370.0</ele><time>2026-04-18T08:22:42.064Z</time></trkpt><trkpt lat="37.6543447" lon="13.1801644"><ele>370.0</ele><time>2026-04-18T08:22:43.064Z</time></trkpt><trkpt lat="37.6543192" lon="13.179976"><ele>370.0</ele><time>2026-04-18T08:22:44.064Z</time></trkpt><trkpt lat="37.6543249" lon="13.1797974"><ele>370.0</ele><time>2026-04-18T08:22:45.064Z</time></trkpt><trkpt lat="37.6543741" lon="13.1796093"><ele>371.0</ele><time>2026-04-18T08:22:46.063Z</time></trkpt><trkpt lat="37.6544672" lon="13.1794233"><ele>372.0</ele><time>2026-04-18T08:22:47.064Z</time></trkpt><trkpt lat="37.6545896" lon="13.1792342"><ele>373.0</ele><time>2026-04-18T08:22:48.063Z</time></trkpt><trkpt lat="37.6547162" lon="13.1790211"><ele>369.66666666666663</ele><time>2026-04-18T08:22:49.064Z</time></trkpt><trkpt lat="37.6548493" lon="13.1787987"><ele>366.3333333333333</ele><time>2026-04-18T08:22:50.064Z</time></trkpt><trkpt lat="37.654982" lon="13.1785878"><ele>363.0</ele><time>2026-04-18T08:22:51.063Z</time></trkpt><trkpt lat="37.65511" lon="13.1784032"><ele>363.0</ele><time>2026-04-18T08:22:52.064Z</time></trkpt><trkpt lat="37.6552439" lon="13.1782568"><ele>363.0</ele><time>2026-04-18T08:22:53.063Z</time></trkpt><trkpt lat="37.6553787" lon="13.1781449"><ele>363.0</ele><time>2026-04-18T08:22:54.064Z</time></trkpt><trkpt lat="37.6554984" lon="13.1780514"><ele>362.5</ele><time>2026-04-18T08:22:55.064Z</time></trkpt><trkpt lat="37.6555756" lon="13.17793"><ele>362.0</ele><time>2026-04-18T08:22:56.064Z</time></trkpt><trkpt lat="37.6556242" lon="13.1777697"><ele>361.5</ele><time>2026-04-18T08:22:57.064Z</time></trkpt><trkpt lat="37.6556399" lon="13.1775793"><ele>361.0</ele><time>2026-04-18T08:22:58.064Z</time></trkpt><trkpt lat="37.6556371" lon="13.1774109"><ele>363.5</ele><time>2026-04-18T08:22:59.064Z</time></trkpt><trkpt lat="37.6556243" lon="13.1772708"><ele>366.0</ele><time>2026-04-18T08:23:00.064Z</time></trkpt><trkpt lat="37.6555803" lon="13.1771268"><ele>368.5</ele><time>2026-04-18T08:23:01.064Z</time></trkpt><trkpt lat="37.6554926" lon="13.1770132"><ele>371.0</ele><time>2026-04-18T08:23:02.064Z</time></trkpt><trkpt lat="37.6553723" lon="13.1769503"><ele>368.6666666666667</ele><time>2026-04-18T08:23:03.064Z</time></trkpt><trkpt lat="37.6552101" lon="13.1769203"><ele>366.3333333333333</ele><time>2026-04-18T08:23:04.063Z</time></trkpt><trkpt lat="37.6550268" lon="13.1769077"><ele>364.0</ele><time>2026-04-18T08:23:05.064Z</time></trkpt><trkpt lat="37.6548548" lon="13.1769095"><ele>364.0</ele><time>2026-04-18T08:23:06.064Z</time></trkpt><trkpt lat="37.6546946" lon="13.1769175"><ele>364.0</ele><time>2026-04-18T08:23:07.064Z</time></trkpt><trkpt lat="37.6545424" lon="13.1769133"><ele>364.0</ele><time>2026-04-18T08:23:08.063Z</time></trkpt><trkpt lat="37.6543928" lon="13.1768736"><ele>362.3333333333333</ele><time>2026-04-18T08:23:09.064Z</time></trkpt><trkpt lat="37.6542379" lon="13.1767886"><ele>360.6666666666667</ele><time>2026-04-18T08:23:10.064Z</time></trkpt><trkpt lat="37.6540828" lon="13.1766694"><ele>359.0</ele><time>2026-04-18T08:23:11.064Z</time></trkpt><trkpt lat="37.6539111" lon="13.1765475"><ele>358.6666666666667</ele><time>2026-04-18T08:23:12.063Z</time></trkpt><trkpt lat="37.6537186" lon="13.1764551"><ele>358.3333333333333</ele><time>2026-04-18T08:23:13.063Z</time></trkpt><trkpt lat="37.6535012" lon="13.17639"><ele>358.0</ele><time>2026-04-18T08:23:14.063Z</time></trkpt><trkpt lat="37.6532842" lon="13.1763359"><ele>358.0</ele><time>2026-04-18T08:23:15.064Z</time></trkpt><trkpt lat="37.6530718" lon="13.1762831"><ele>358.0</ele><time>2026-04-18T08:23:16.064Z</time></trkpt><trkpt lat="37.6528735" lon="13.1762289"><ele>358.0</ele><time>2026-04-18T08:23:17.063Z</time></trkpt><trkpt lat="37.6527026" lon="13.1761865"><ele>357.0</ele><time>2026-04-18T08:23:18.064Z</time></trkpt><trkpt lat="37.6525635" lon="13.1761414"><ele>356.0</ele><time>2026-04-18T08:23:19.063Z</time></trkpt><trkpt lat="37.6524419" lon="13.1760818"><ele>355.0</ele><time>2026-04-18T08:23:20.064Z</time></trkpt><trkpt lat="37.652329" lon="13.1759822"><ele>354.0</ele><time>2026-04-18T08:23:21.064Z</time></trkpt><trkpt lat="37.652239" lon="13.175853"><ele>354.0</ele><time>2026-04-18T08:23:22.064Z</time></trkpt><trkpt lat="37.6521586" lon="13.1756995"><ele>354.0</ele><time>2026-04-18T08:23:23.063Z</time></trkpt><trkpt lat="37.6520792" lon="13.175526"><ele>354.0</ele><time>2026-04-18T08:23:24.064Z</time></trkpt><trkpt lat="37.6519888" lon="13.1753356"><ele>352.6666666666667</ele><time>2026-04-18T08:23:25.063Z</time></trkpt><trkpt lat="37.6518887" lon="13.1751397"><ele>351.33333333333337</ele><time>2026-04-18T08:23:26.063Z</time></trkpt><trkpt lat="37.6517825" lon="13.1749398"><ele>350.0</ele><time>2026-04-18T08:23:27.063Z</time></trkpt><trkpt lat="37.6516759" lon="13.1747348"><ele>350.0</ele><time>2026-04-18T08:23:28.064Z</time></trkpt><trkpt lat="37.6515724" lon="13.1745268"><ele>350.0</ele><time>2026-04-18T08:23:29.064Z</time></trkpt><trkpt lat="37.6514738" lon="13.174318"><ele>350.0</ele><time>2026-04-18T08:23:30.064Z</time></trkpt><trkpt lat="37.6513739" lon="13.1741132"><ele>351.0</ele><time>2026-04-18T08:23:31.064Z</time></trkpt><trkpt lat="37.6512744" lon="13.1739051"><ele>352.0</ele><time>2026-04-18T08:23:32.064Z</time></trkpt><trkpt lat="37.6511892" lon="13.173682"><ele>353.0</ele><time>2026-04-18T08:23:33.064Z</time></trkpt><trkpt lat="37.6511194" lon="13.1734476"><ele>349.0</ele><time>2026-04-18T08:23:34.064Z</time></trkpt><trkpt lat="37.6510486" lon="13.1732117"><ele>345.0</ele><time>2026-04-18T08:23:35.063Z</time></trkpt><trkpt lat="37.6509602" lon="13.1729877"><ele>341.0</ele><time>2026-04-18T08:23:36.063Z</time></trkpt><trkpt lat="37.650846" lon="13.172772"><ele>341.0</ele><time>2026-04-18T08:23:37.064Z</time></trkpt><trkpt lat="37.6507182" lon="13.1725524"><ele>341.0</ele><time>2026-04-18T08:23:38.064Z</time></trkpt><trkpt lat="37.6505882" lon="13.1723262"><ele>341.0</ele><time>2026-04-18T08:23:39.064Z</time></trkpt><trkpt lat="37.6504557" lon="13.1720954"><ele>343.5</ele><time>2026-04-18T08:23:40.064Z</time></trkpt><trkpt lat="37.6503173" lon="13.1718563"><ele>346.0</ele><time>2026-04-18T08:23:41.063Z</time></trkpt><trkpt lat="37.6501783" lon="13.1716215"><ele>343.3333333333333</ele><time>2026-04-18T08:23:42.063Z</time></trkpt><trkpt lat="37.650042" lon="13.1713979"><ele>340.6666666666667</ele><time>2026-04-18T08:23:43.064Z</time></trkpt><trkpt lat="37.6499164" lon="13.1711873"><ele>338.0</ele><time>2026-04-18T08:23:44.064Z</time></trkpt><trkpt lat="37.649796" lon="13.1709756"><ele>338.0</ele><time>2026-04-18T08:23:45.064Z</time></trkpt><trkpt lat="37.6496735" lon="13.170761"><ele>338.0</ele><time>2026-04-18T08:23:46.064Z</time></trkpt><trkpt lat="37.6495555" lon="13.1705545"><ele>338.0</ele><time>2026-04-18T08:23:47.063Z</time></trkpt><trkpt lat="37.6494481" lon="13.1703667"><ele>334.6666666666667</ele><time>2026-04-18T08:23:48.064Z</time></trkpt><trkpt lat="37.6493673" lon="13.1701845"><ele>331.3333333333333</ele><time>2026-04-18T08:23:49.064Z</time></trkpt><trkpt lat="37.6493178" lon="13.1700023"><ele>328.0</ele><time>2026-04-18T08:23:50.063Z</time></trkpt><trkpt lat="37.6493109" lon="13.1698175"><ele>327.3333333333333</ele><time>2026-04-18T08:23:51.063Z</time></trkpt><trkpt lat="37.6493476" lon="13.1696374"><ele>326.6666666666667</ele><time>2026-04-18T08:23:52.064Z</time></trkpt><trkpt lat="37.6494287" lon="13.1694539"><ele>326.0</ele><time>2026-04-18T08:23:53.063Z</time></trkpt><trkpt lat="37.6495045" lon="13.1692733"><ele>326.5</ele><time>2026-04-18T08:23:54.063Z</time></trkpt><trkpt lat="37.6495532" lon="13.1691056"><ele>327.0</ele><time>2026-04-18T08:23:55.064Z</time></trkpt><trkpt lat="37.6495622" lon="13.1689215"><ele>327.5</ele><time>2026-04-18T08:23:56.064Z</time></trkpt><trkpt lat="37.6495285" lon="13.1687258"><ele>328.0</ele><time>2026-04-18T08:23:57.064Z</time></trkpt><trkpt lat="37.6494511" lon="13.1685363"><ele>328.0</ele><time>2026-04-18T08:23:58.064Z</time></trkpt><trkpt lat="37.6493617" lon="13.1683839"><ele>328.0</ele><time>2026-04-18T08:23:59.063Z</time></trkpt><trkpt lat="37.6492935" lon="13.1682655"><ele>328.0</ele><time>2026-04-18T08:24:00.063Z</time></trkpt><trkpt lat="37.649214" lon="13.1681986"><ele>328.0</ele><time>2026-04-18T08:24:01.064Z</time></trkpt><trkpt lat="37.6490879" lon="13.1681899"><ele>328.0</ele><time>2026-04-18T08:24:02.064Z</time></trkpt><trkpt lat="37.6489434" lon="13.1681963"><ele>328.0</ele><time>2026-04-18T08:24:03.063Z</time></trkpt><trkpt lat="37.6487978" lon="13.1681932"><ele>328.0</ele><time>2026-04-18T08:24:04.063Z</time></trkpt><trkpt lat="37.6486592" lon="13.1681732"><ele>328.0</ele><time>2026-04-18T08:24:05.064Z</time></trkpt><trkpt lat="37.6485304" lon="13.1681255"><ele>328.0</ele><time>2026-04-18T08:24:06.063Z</time></trkpt><trkpt lat="37.6484093" lon="13.1680462"><ele>328.0</ele><time>2026-04-18T08:24:07.064Z</time></trkpt><trkpt lat="37.6483167" lon="13.167939"><ele>328.0</ele><time>2026-04-18T08:24:08.064Z</time></trkpt><trkpt lat="37.648252" lon="13.1677822"><ele>328.0</ele><time>2026-04-18T08:24:09.064Z</time></trkpt><trkpt lat="37.6482127" lon="13.1675812"><ele>328.0</ele><time>2026-04-18T08:24:10.063Z</time></trkpt><trkpt lat="37.6481826" lon="13.1673625"><ele>328.0</ele><time>2026-04-18T08:24:11.063Z</time></trkpt><trkpt lat="37.6481465" lon="13.1671274"><ele>328.0</ele><time>2026-04-18T08:24:12.064Z</time></trkpt><trkpt lat="37.6481127" lon="13.1668735"><ele>328.0</ele><time>2026-04-18T08:24:13.064Z</time></trkpt><trkpt lat="37.6480944" lon="13.1666053"><ele>328.0</ele><time>2026-04-18T08:24:14.064Z</time></trkpt><trkpt lat="37.6481001" lon="13.1663246"><ele>328.0</ele><time>2026-04-18T08:24:15.064Z</time></trkpt><trkpt lat="37.6481187" lon="13.1660249"><ele>326.5</ele><time>2026-04-18T08:24:16.063Z</time></trkpt><trkpt lat="37.6481367" lon="13.1657125"><ele>325.0</ele><time>2026-04-18T08:24:17.064Z</time></trkpt><trkpt lat="37.6481508" lon="13.165407"><ele>324.5</ele><time>2026-04-18T08:24:18.064Z</time></trkpt><trkpt lat="37.6481563" lon="13.1651158"><ele>324.0</ele><time>2026-04-18T08:24:19.063Z</time></trkpt><trkpt lat="37.6481506" lon="13.1648376"><ele>322.3333333333333</ele><time>2026-04-18T08:24:20.063Z</time></trkpt><trkpt lat="37.6481224" lon="13.1645663"><ele>320.66666666666663</ele><time>2026-04-18T08:24:21.063Z</time></trkpt><trkpt lat="37.6480731" lon="13.1643106"><ele>319.0</ele><time>2026-04-18T08:24:22.063Z</time></trkpt><trkpt lat="37.648021" lon="13.1640801"><ele>319.5</ele><time>2026-04-18T08:24:23.064Z</time></trkpt><trkpt lat="37.6479794" lon="13.1639002"><ele>320.0</ele><time>2026-04-18T08:24:24.063Z</time></trkpt><trkpt lat="37.6479099" lon="13.1637584"><ele>320.5</ele><time>2026-04-18T08:24:25.063Z</time></trkpt><trkpt lat="37.6478053" lon="13.1636358"><ele>321.0</ele><time>2026-04-18T08:24:26.063Z</time></trkpt><trkpt lat="37.6476662" lon="13.1635234"><ele>322.0</ele><time>2026-04-18T08:24:27.063Z</time></trkpt><trkpt lat="37.6475153" lon="13.1634069"><ele>323.0</ele><time>2026-04-18T08:24:28.064Z</time></trkpt><trkpt lat="37.6473761" lon="13.1632793"><ele>324.0</ele><time>2026-04-18T08:24:29.063Z</time></trkpt><trkpt lat="37.6472536" lon="13.163122"><ele>324.0</ele><time>2026-04-18T08:24:30.064Z</time></trkpt><trkpt lat="37.6471568" lon="13.1629261"><ele>324.0</ele><time>2026-04-18T08:24:31.063Z</time></trkpt><trkpt lat="37.6470623" lon="13.1627025"><ele>324.0</ele><time>2026-04-18T08:24:32.064Z</time></trkpt><trkpt lat="37.6469521" lon="13.1624613"><ele>321.0</ele><time>2026-04-18T08:24:33.063Z</time></trkpt><trkpt lat="37.6468408" lon="13.1622137"><ele>318.0</ele><time>2026-04-18T08:24:34.063Z</time></trkpt><trkpt lat="37.6467309" lon="13.161957"><ele>318.0</ele><time>2026-04-18T08:24:35.064Z</time></trkpt><trkpt lat="37.6466252" lon="13.1617085"><ele>318.0</ele><time>2026-04-18T08:24:36.063Z</time></trkpt><trkpt lat="37.6465312" lon="13.1614686"><ele>318.0</ele><time>2026-04-18T08:24:37.063Z</time></trkpt><trkpt lat="37.6464601" lon="13.1612174"><ele>319.5</ele><time>2026-04-18T08:24:38.064Z</time></trkpt><trkpt lat="37.6464194" lon="13.1609431"><ele>321.0</ele><time>2026-04-18T08:24:39.064Z</time></trkpt><trkpt lat="37.646381" lon="13.1606461"><ele>322.0</ele><time>2026-04-18T08:24:40.064Z</time></trkpt><trkpt lat="37.6463317" lon="13.1603432"><ele>323.0</ele><time>2026-04-18T08:24:41.064Z</time></trkpt><trkpt lat="37.646278" lon="13.1600492"><ele>325.5</ele><time>2026-04-18T08:24:42.063Z</time></trkpt><trkpt lat="37.6462234" lon="13.1597577"><ele>328.0</ele><time>2026-04-18T08:24:43.063Z</time></trkpt><trkpt lat="37.6461668" lon="13.1594637"><ele>321.5</ele><time>2026-04-18T08:24:44.064Z</time></trkpt><trkpt lat="37.6461032" lon="13.1591688"><ele>315.0</ele><time>2026-04-18T08:24:45.064Z</time></trkpt><trkpt lat="37.6460327" lon="13.1588727"><ele>315.0</ele><time>2026-04-18T08:24:46.064Z</time></trkpt><trkpt lat="37.6459643" lon="13.158577"><ele>315.0</ele><time>2026-04-18T08:24:47.064Z</time></trkpt><trkpt lat="37.6458959" lon="13.1582792"><ele>318.0</ele><time>2026-04-18T08:24:48.064Z</time></trkpt><trkpt lat="37.6458264" lon="13.1579819"><ele>321.0</ele><time>2026-04-18T08:24:49.063Z</time></trkpt><trkpt lat="37.6457584" lon="13.1576864"><ele>321.0</ele><time>2026-04-18T08:24:50.064Z</time></trkpt><trkpt lat="37.6456893" lon="13.1573969"><ele>321.0</ele><time>2026-04-18T08:24:51.063Z</time></trkpt><trkpt lat="37.6456174" lon="13.1571141"><ele>323.0</ele><time>2026-04-18T08:24:52.064Z</time></trkpt><trkpt lat="37.6455443" lon="13.1568512"><ele>325.0</ele><time>2026-04-18T08:24:53.064Z</time></trkpt><trkpt lat="37.6454841" lon="13.1566338"><ele>327.0</ele><time>2026-04-18T08:24:54.064Z</time></trkpt><trkpt lat="37.6454315" lon="13.1564819"><ele>325.75</ele><time>2026-04-18T08:24:55.064Z</time></trkpt><trkpt lat="37.645354" lon="13.1563557"><ele>324.5</ele><time>2026-04-18T08:24:56.064Z</time></trkpt><trkpt lat="37.6452348" lon="13.1562549"><ele>323.25</ele><time>2026-04-18T08:24:57.064Z</time></trkpt><trkpt lat="37.6450893" lon="13.1561647"><ele>322.0</ele><time>2026-04-18T08:24:58.064Z</time></trkpt><trkpt lat="37.6449249" lon="13.1561004"><ele>322.0</ele><time>2026-04-18T08:24:59.064Z</time></trkpt><trkpt lat="37.6447666" lon="13.1560359"><ele>322.0</ele><time>2026-04-18T08:25:00.063Z</time></trkpt><trkpt lat="37.6446287" lon="13.1559459"><ele>322.0</ele><time>2026-04-18T08:25:01.064Z</time></trkpt><trkpt lat="37.6445055" lon="13.1558222"><ele>319.66666666666663</ele><time>2026-04-18T08:25:02.063Z</time></trkpt><trkpt lat="37.6443849" lon="13.155674"><ele>317.3333333333333</ele><time>2026-04-18T08:25:03.064Z</time></trkpt><trkpt lat="37.6442623" lon="13.1555204"><ele>315.0</ele><time>2026-04-18T08:25:04.064Z</time></trkpt><trkpt lat="37.644144" lon="13.1553799"><ele>315.0</ele><time>2026-04-18T08:25:05.063Z</time></trkpt><trkpt lat="37.6440527" lon="13.1552581"><ele>315.0</ele><time>2026-04-18T08:25:06.063Z</time></trkpt><trkpt lat="37.6439999" lon="13.1551346"><ele>315.0</ele><time>2026-04-18T08:25:07.064Z</time></trkpt><trkpt lat="37.6439823" lon="13.1549965"><ele>315.0</ele><time>2026-04-18T08:25:08.064Z</time></trkpt><trkpt lat="37.6440111" lon="13.154846"><ele>313.0</ele><time>2026-04-18T08:25:09.064Z</time></trkpt><trkpt lat="37.6440688" lon="13.1546717"><ele>311.0</ele><time>2026-04-18T08:25:10.064Z</time></trkpt><trkpt lat="37.6441507" lon="13.1544707"><ele>309.0</ele><time>2026-04-18T08:25:11.064Z</time></trkpt><trkpt lat="37.644245" lon="13.1542531"><ele>311.0</ele><time>2026-04-18T08:25:12.064Z</time></trkpt><trkpt lat="37.644336" lon="13.1540163"><ele>313.0</ele><time>2026-04-18T08:25:13.064Z</time></trkpt><trkpt lat="37.6444372" lon="13.1537652"><ele>315.0</ele><time>2026-04-18T08:25:14.063Z</time></trkpt><trkpt lat="37.6445389" lon="13.1535328"><ele>315.0</ele><time>2026-04-18T08:25:15.064Z</time></trkpt><trkpt lat="37.6446294" lon="13.1533025"><ele>315.0</ele><time>2026-04-18T08:25:16.063Z</time></trkpt><trkpt lat="37.6446931" lon="13.1530676"><ele>315.0</ele><time>2026-04-18T08:25:17.064Z</time></trkpt><trkpt lat="37.6447267" lon="13.1528143"><ele>313.0</ele><time>2026-04-18T08:25:18.064Z</time></trkpt><trkpt lat="37.6447127" lon="13.1525393"><ele>311.0</ele><time>2026-04-18T08:25:19.064Z</time></trkpt><trkpt lat="37.6446702" lon="13.1522886"><ele>309.0</ele><time>2026-04-18T08:25:20.064Z</time></trkpt><trkpt lat="37.6446489" lon="13.1520671"><ele>307.5</ele><time>2026-04-18T08:25:21.063Z</time></trkpt><trkpt lat="37.6446577" lon="13.15188"><ele>306.0</ele><time>2026-04-18T08:25:22.064Z</time></trkpt><trkpt lat="37.6447194" lon="13.1517166"><ele>304.5</ele><time>2026-04-18T08:25:23.064Z</time></trkpt><trkpt lat="37.6448097" lon="13.1515558"><ele>303.0</ele><time>2026-04-18T08:25:24.063Z</time></trkpt><trkpt lat="37.6449228" lon="13.15138"><ele>301.3333333333333</ele><time>2026-04-18T08:25:25.064Z</time></trkpt><trkpt lat="37.6450443" lon="13.1511813"><ele>299.66666666666663</ele><time>2026-04-18T08:25:26.064Z</time></trkpt><trkpt lat="37.6451827" lon="13.1509667"><ele>298.0</ele><time>2026-04-18T08:25:27.064Z</time></trkpt><trkpt lat="37.6453336" lon="13.1507469"><ele>296.3333333333333</ele><time>2026-04-18T08:25:28.064Z</time></trkpt><trkpt lat="37.6454867" lon="13.1505314"><ele>294.6666666666667</ele><time>2026-04-18T08:25:29.064Z</time></trkpt><trkpt lat="37.6456222" lon="13.1503198"><ele>293.0</ele><time>2026-04-18T08:25:30.063Z</time></trkpt><trkpt lat="37.6457402" lon="13.1501298"><ele>293.0</ele><time>2026-04-18T08:25:31.064Z</time></trkpt><trkpt lat="37.6458348" lon="13.1499583"><ele>293.0</ele><time>2026-04-18T08:25:32.064Z</time></trkpt><trkpt lat="37.6459069" lon="13.1498128"><ele>293.0</ele><time>2026-04-18T08:25:33.064Z</time></trkpt><trkpt lat="37.6459452" lon="13.1496499"><ele>293.0</ele><time>2026-04-18T08:25:34.064Z</time></trkpt><trkpt lat="37.64594" lon="13.1494472"><ele>293.0</ele><time>2026-04-18T08:25:35.063Z</time></trkpt><trkpt lat="37.6458968" lon="13.1492231"><ele>293.0</ele><time>2026-04-18T08:25:36.064Z</time></trkpt><trkpt lat="37.6458447" lon="13.1489866"><ele>293.0</ele><time>2026-04-18T08:25:37.063Z</time></trkpt><trkpt lat="37.645799" lon="13.1487339"><ele>293.0</ele><time>2026-04-18T08:25:38.063Z</time></trkpt><trkpt lat="37.6457599" lon="13.1484653"><ele>293.0</ele><time>2026-04-18T08:25:39.064Z</time></trkpt><trkpt lat="37.6457578" lon="13.14818"><ele>293.0</ele><time>2026-04-18T08:25:40.064Z</time></trkpt><trkpt lat="37.6457767" lon="13.1478755"><ele>292.0</ele><time>2026-04-18T08:25:41.064Z</time></trkpt><trkpt lat="37.6457877" lon="13.147558"><ele>291.0</ele><time>2026-04-18T08:25:42.063Z</time></trkpt><trkpt lat="37.6457794" lon="13.1472047"><ele>291.0</ele><time>2026-04-18T08:25:43.064Z</time></trkpt><trkpt lat="37.6457428" lon="13.146834"><ele>291.0</ele><time>2026-04-18T08:25:44.064Z</time></trkpt><trkpt lat="37.6457039" lon="13.1464869"><ele>291.0</ele><time>2026-04-18T08:25:45.064Z</time></trkpt><trkpt lat="37.6456662" lon="13.1461696"><ele>291.0</ele><time>2026-04-18T08:25:46.064Z</time></trkpt><trkpt lat="37.6456105" lon="13.1458607"><ele>292.0</ele><time>2026-04-18T08:25:47.064Z</time></trkpt><trkpt lat="37.6455296" lon="13.1455601"><ele>293.0</ele><time>2026-04-18T08:25:48.064Z</time></trkpt><trkpt lat="37.6454327" lon="13.1452784"><ele>293.0</ele><time>2026-04-18T08:25:49.063Z</time></trkpt><trkpt lat="37.6453647" lon="13.145003"><ele>293.0</ele><time>2026-04-18T08:25:50.063Z</time></trkpt><trkpt lat="37.6453323" lon="13.1447125"><ele>293.5</ele><time>2026-04-18T08:25:51.063Z</time></trkpt><trkpt lat="37.6453105" lon="13.1444179"><ele>294.0</ele><time>2026-04-18T08:25:52.063Z</time></trkpt><trkpt lat="37.6452731" lon="13.1441374"><ele>291.3333333333333</ele><time>2026-04-18T08:25:53.063Z</time></trkpt><trkpt lat="37.6452109" lon="13.1438802"><ele>288.66666666666663</ele><time>2026-04-18T08:25:54.063Z</time></trkpt><trkpt lat="37.6451303" lon="13.1436351"><ele>286.0</ele><time>2026-04-18T08:25:55.064Z</time></trkpt><trkpt lat="37.6450555" lon="13.1434179"><ele>286.0</ele><time>2026-04-18T08:25:56.064Z</time></trkpt><trkpt lat="37.6450129" lon="13.1432159"><ele>286.0</ele><time>2026-04-18T08:25:57.063Z</time></trkpt><trkpt lat="37.6450065" lon="13.1430198"><ele>286.0</ele><time>2026-04-18T08:25:58.064Z</time></trkpt><trkpt lat="37.6450464" lon="13.1428018"><ele>283.66666666666663</ele><time>2026-04-18T08:25:59.063Z</time></trkpt><trkpt lat="37.645097" lon="13.1425674"><ele>281.3333333333333</ele><time>2026-04-18T08:26:00.064Z</time></trkpt><trkpt lat="37.6451488" lon="13.1423131"><ele>279.0</ele><time>2026-04-18T08:26:01.064Z</time></trkpt><trkpt lat="37.6452012" lon="13.1420607"><ele>280.3333333333333</ele><time>2026-04-18T08:26:02.064Z</time></trkpt><trkpt lat="37.6452606" lon="13.1418381"><ele>281.66666666666663</ele><time>2026-04-18T08:26:03.063Z</time></trkpt><trkpt lat="37.6453176" lon="13.1416581"><ele>283.0</ele><time>2026-04-18T08:26:04.064Z</time></trkpt><trkpt lat="37.6453883" lon="13.1415231"><ele>279.75</ele><time>2026-04-18T08:26:05.063Z</time></trkpt><trkpt lat="37.6454799" lon="13.1413997"><ele>276.5</ele><time>2026-04-18T08:26:06.064Z</time></trkpt><trkpt lat="37.6455894" lon="13.1412773"><ele>273.25</ele><time>2026-04-18T08:26:07.064Z</time></trkpt><trkpt lat="37.6457034" lon="13.1411506"><ele>270.0</ele><time>2026-04-18T08:26:08.064Z</time></trkpt><trkpt lat="37.6458178" lon="13.1410125"><ele>270.0</ele><time>2026-04-18T08:26:09.064Z</time></trkpt><trkpt lat="37.6459331" lon="13.1408678"><ele>270.0</ele><time>2026-04-18T08:26:10.063Z</time></trkpt><trkpt lat="37.6460241" lon="13.1407061"><ele>270.0</ele><time>2026-04-18T08:26:11.063Z</time></trkpt><trkpt lat="37.646089" lon="13.140543"><ele>269.6</ele><time>2026-04-18T08:26:12.064Z</time></trkpt><trkpt lat="37.6461318" lon="13.140413"><ele>269.2</ele><time>2026-04-18T08:26:13.064Z</time></trkpt><trkpt lat="37.646165" lon="13.1403108"><ele>268.8</ele><time>2026-04-18T08:26:14.064Z</time></trkpt><trkpt lat="37.6462021" lon="13.1402092"><ele>268.4</ele><time>2026-04-18T08:26:15.064Z</time></trkpt><trkpt lat="37.6462435" lon="13.1400702"><ele>268.0</ele><time>2026-04-18T08:26:16.064Z</time></trkpt><trkpt lat="37.6462975" lon="13.1399097"><ele>267.3333333333333</ele><time>2026-04-18T08:26:17.064Z</time></trkpt><trkpt lat="37.6463465" lon="13.1397194"><ele>266.6666666666667</ele><time>2026-04-18T08:26:18.063Z</time></trkpt><trkpt lat="37.6463953" lon="13.1395188"><ele>266.0</ele><time>2026-04-18T08:26:19.063Z</time></trkpt><trkpt lat="37.6464496" lon="13.1393199"><ele>266.0</ele><time>2026-04-18T08:26:20.064Z</time></trkpt><trkpt lat="37.6464987" lon="13.1391392"><ele>266.0</ele><time>2026-04-18T08:26:21.064Z</time></trkpt><trkpt lat="37.6465331" lon="13.1389781"><ele>266.0</ele><time>2026-04-18T08:26:22.063Z</time></trkpt><trkpt lat="37.6465658" lon="13.1388441"><ele>266.0</ele><time>2026-04-18T08:26:23.064Z</time></trkpt><trkpt lat="37.6465931" lon="13.1387263"><ele>267.0</ele><time>2026-04-18T08:26:24.064Z</time></trkpt><trkpt lat="37.6466096" lon="13.138615"><ele>268.0</ele><time>2026-04-18T08:26:25.063Z</time></trkpt><trkpt lat="37.6466065" lon="13.1384967"><ele>269.0</ele><time>2026-04-18T08:26:26.064Z</time></trkpt><trkpt lat="37.6465808" lon="13.138369"><ele>270.0</ele><time>2026-04-18T08:26:27.063Z</time></trkpt><trkpt lat="37.6465231" lon="13.1382375"><ele>271.0</ele><time>2026-04-18T08:26:28.064Z</time></trkpt><trkpt lat="37.6464375" lon="13.1380814"><ele>268.66666666666663</ele><time>2026-04-18T08:26:29.064Z</time></trkpt><trkpt lat="37.6463259" lon="13.1379032"><ele>266.3333333333333</ele><time>2026-04-18T08:26:30.064Z</time></trkpt><trkpt lat="37.6462081" lon="13.1377309"><ele>264.0</ele><time>2026-04-18T08:26:31.064Z</time></trkpt><trkpt lat="37.6460926" lon="13.1375528"><ele>264.0</ele><time>2026-04-18T08:26:32.063Z</time></trkpt><trkpt lat="37.6459839" lon="13.1373994"><ele>264.0</ele><time>2026-04-18T08:26:33.064Z</time></trkpt><trkpt lat="37.6458867" lon="13.1372589"><ele>264.0</ele><time>2026-04-18T08:26:34.064Z</time></trkpt><trkpt lat="37.6458091" lon="13.1371164"><ele>264.0</ele><time>2026-04-18T08:26:35.064Z</time></trkpt><trkpt lat="37.6457671" lon="13.1369681"><ele>264.0</ele><time>2026-04-18T08:26:36.064Z</time></trkpt><trkpt lat="37.6457819" lon="13.1368082"><ele>264.0</ele><time>2026-04-18T08:26:37.064Z</time></trkpt><trkpt lat="37.6458318" lon="13.1366294"><ele>264.0</ele><time>2026-04-18T08:26:38.063Z</time></trkpt><trkpt lat="37.6459173" lon="13.1364334"><ele>262.0</ele><time>2026-04-18T08:26:39.064Z</time></trkpt><trkpt lat="37.6460057" lon="13.1362258"><ele>260.0</ele><time>2026-04-18T08:26:40.064Z</time></trkpt><trkpt lat="37.6461049" lon="13.1360132"><ele>258.0</ele><time>2026-04-18T08:26:41.064Z</time></trkpt><trkpt lat="37.6462234" lon="13.135805"><ele>259.3333333333333</ele><time>2026-04-18T08:26:42.064Z</time></trkpt><trkpt lat="37.6463672" lon="13.1356056"><ele>260.66666666666663</ele><time>2026-04-18T08:26:43.064Z</time></trkpt><trkpt lat="37.6465243" lon="13.135416"><ele>262.0</ele><time>2026-04-18T08:26:44.064Z</time></trkpt><trkpt lat="37.6466852" lon="13.1352381"><ele>262.0</ele><time>2026-04-18T08:26:45.064Z</time></trkpt><trkpt lat="37.6468208" lon="13.1350513"><ele>262.0</ele><time>2026-04-18T08:26:46.064Z</time></trkpt><trkpt lat="37.6469303" lon="13.1348623"><ele>262.0</ele><time>2026-04-18T08:26:47.063Z</time></trkpt><trkpt lat="37.6470031" lon="13.1346507"><ele>264.0</ele><time>2026-04-18T08:26:48.063Z</time></trkpt><trkpt lat="37.6470451" lon="13.1344072"><ele>266.0</ele><time>2026-04-18T08:26:49.064Z</time></trkpt><trkpt lat="37.6470649" lon="13.1341497"><ele>268.0</ele><time>2026-04-18T08:26:50.064Z</time></trkpt><trkpt lat="37.647076" lon="13.1338884"><ele>268.3333333333333</ele><time>2026-04-18T08:26:51.064Z</time></trkpt><trkpt lat="37.6470982" lon="13.1336597"><ele>268.6666666666667</ele><time>2026-04-18T08:26:52.064Z</time></trkpt><trkpt lat="37.6471175" lon="13.1334492"><ele>269.0</ele><time>2026-04-18T08:26:53.064Z</time></trkpt><trkpt lat="37.6471367" lon="13.133248"><ele>268.25</ele><time>2026-04-18T08:26:54.064Z</time></trkpt><trkpt lat="37.6471547" lon="13.1330567"><ele>267.5</ele><time>2026-04-18T08:26:55.064Z</time></trkpt><trkpt lat="37.6471715" lon="13.1328837"><ele>266.75</ele><time>2026-04-18T08:26:56.063Z</time></trkpt><trkpt lat="37.6471879" lon="13.1327187"><ele>266.0</ele><time>2026-04-18T08:26:57.064Z</time></trkpt><trkpt lat="37.647208" lon="13.1325501"><ele>265.0</ele><time>2026-04-18T08:26:58.063Z</time></trkpt><trkpt lat="37.6472262" lon="13.1323754"><ele>264.0</ele><time>2026-04-18T08:26:59.064Z</time></trkpt><trkpt lat="37.6472471" lon="13.1322015"><ele>263.0</ele><time>2026-04-18T08:27:00.063Z</time></trkpt><trkpt lat="37.6472659" lon="13.1320168"><ele>262.0</ele><time>2026-04-18T08:27:01.064Z</time></trkpt><trkpt lat="37.6472842" lon="13.1318162"><ele>262.0</ele><time>2026-04-18T08:27:02.063Z</time></trkpt><trkpt lat="37.6473052" lon="13.1316157"><ele>262.0</ele><time>2026-04-18T08:27:03.064Z</time></trkpt><trkpt lat="37.6473246" lon="13.1314159"><ele>262.0</ele><time>2026-04-18T08:27:04.064Z</time></trkpt><trkpt lat="37.6473437" lon="13.1312217"><ele>261.66666666666663</ele><time>2026-04-18T08:27:05.064Z</time></trkpt><trkpt lat="37.6473578" lon="13.1310244"><ele>261.3333333333333</ele><time>2026-04-18T08:27:06.064Z</time></trkpt><trkpt lat="37.6473746" lon="13.1308295"><ele>261.0</ele><time>2026-04-18T08:27:07.064Z</time></trkpt><trkpt lat="37.6473915" lon="13.1306352"><ele>261.0</ele><time>2026-04-18T08:27:08.064Z</time></trkpt><trkpt lat="37.647408" lon="13.130442"><ele>261.0</ele><time>2026-04-18T08:27:09.064Z</time></trkpt><trkpt lat="37.6474193" lon="13.1302475"><ele>261.0</ele><time>2026-04-18T08:27:10.064Z</time></trkpt><trkpt lat="37.647424" lon="13.1300579"><ele>261.6666666666667</ele><time>2026-04-18T08:27:11.064Z</time></trkpt><trkpt lat="37.6474127" lon="13.1298696"><ele>262.33333333333337</ele><time>2026-04-18T08:27:12.064Z</time></trkpt><trkpt lat="37.6473751" lon="13.1296776"><ele>263.0</ele><time>2026-04-18T08:27:13.064Z</time></trkpt><trkpt lat="37.6473164" lon="13.1294893"><ele>263.0</ele><time>2026-04-18T08:27:14.063Z</time></trkpt><trkpt lat="37.6472457" lon="13.1293123"><ele>263.0</ele><time>2026-04-18T08:27:15.069Z</time></trkpt><trkpt lat="37.6471599" lon="13.1291384"><ele>263.0</ele><time>2026-04-18T08:27:16.069Z</time></trkpt><trkpt lat="37.6470741" lon="13.128969"><ele>265.6666666666667</ele><time>2026-04-18T08:27:17.068Z</time></trkpt><trkpt lat="37.6469867" lon="13.1287942"><ele>268.3333333333333</ele><time>2026-04-18T08:27:18.069Z</time></trkpt><trkpt lat="37.6469063" lon="13.1286257"><ele>271.0</ele><time>2026-04-18T08:27:19.069Z</time></trkpt><trkpt lat="37.6468392" lon="13.1284628"><ele>265.3333333333333</ele><time>2026-04-18T08:27:20.069Z</time></trkpt><trkpt lat="37.6467938" lon="13.1282897"><ele>259.6666666666667</ele><time>2026-04-18T08:27:21.069Z</time></trkpt><trkpt lat="37.6467825" lon="13.1280981"><ele>254.0</ele><time>2026-04-18T08:27:22.068Z</time></trkpt><trkpt lat="37.6467968" lon="13.1278885"><ele>254.0</ele><time>2026-04-18T08:27:23.069Z</time></trkpt><trkpt lat="37.646819" lon="13.1276798"><ele>254.0</ele><time>2026-04-18T08:27:24.068Z</time></trkpt><trkpt lat="37.6468317" lon="13.1274848"><ele>254.0</ele><time>2026-04-18T08:27:25.069Z</time></trkpt><trkpt lat="37.6468129" lon="13.1272893"><ele>254.0</ele><time>2026-04-18T08:27:26.069Z</time></trkpt><trkpt lat="37.6467648" lon="13.1270999"><ele>254.0</ele><time>2026-04-18T08:27:27.069Z</time></trkpt><trkpt lat="37.646699" lon="13.1269294"><ele>254.0</ele><time>2026-04-18T08:27:28.069Z</time></trkpt><trkpt lat="37.6466431" lon="13.1267703"><ele>254.0</ele><time>2026-04-18T08:27:29.069Z</time></trkpt><trkpt lat="37.6466162" lon="13.1266106"><ele>252.75</ele><time>2026-04-18T08:27:30.069Z</time></trkpt><trkpt lat="37.6466333" lon="13.1264559"><ele>251.5</ele><time>2026-04-18T08:27:31.069Z</time></trkpt><trkpt lat="37.6466983" lon="13.1263127"><ele>250.25</ele><time>2026-04-18T08:27:32.069Z</time></trkpt><trkpt lat="37.6467955" lon="13.126214"><ele>249.0</ele><time>2026-04-18T08:27:33.069Z</time></trkpt><trkpt lat="37.6469187" lon="13.1261679"><ele>251.0</ele><time>2026-04-18T08:27:34.069Z</time></trkpt><trkpt lat="37.6470505" lon="13.1261173"><ele>253.0</ele><time>2026-04-18T08:27:35.068Z</time></trkpt><trkpt lat="37.6471621" lon="13.126045"><ele>255.0</ele><time>2026-04-18T08:27:36.069Z</time></trkpt><trkpt lat="37.6472605" lon="13.1259289"><ele>257.0</ele><time>2026-04-18T08:27:37.069Z</time></trkpt><trkpt lat="37.6473323" lon="13.1257974"><ele>259.0</ele><time>2026-04-18T08:27:38.069Z</time></trkpt><trkpt lat="37.6473655" lon="13.1256368"><ele>261.0</ele><time>2026-04-18T08:27:39.068Z</time></trkpt><trkpt lat="37.6473507" lon="13.1254721"><ele>263.0</ele><time>2026-04-18T08:27:40.068Z</time></trkpt><trkpt lat="37.6472939" lon="13.1252969"><ele>265.0</ele><time>2026-04-18T08:27:41.068Z</time></trkpt><trkpt lat="37.6472284" lon="13.1251064"><ele>265.0</ele><time>2026-04-18T08:27:42.069Z</time></trkpt><trkpt lat="37.6471701" lon="13.1249066"><ele>265.0</ele><time>2026-04-18T08:27:43.069Z</time></trkpt><trkpt lat="37.6471125" lon="13.1247064"><ele>265.0</ele><time>2026-04-18T08:27:44.068Z</time></trkpt><trkpt lat="37.6470541" lon="13.1245197"><ele>264.3333333333333</ele><time>2026-04-18T08:27:45.068Z</time></trkpt><trkpt lat="37.6469865" lon="13.1243433"><ele>263.6666666666667</ele><time>2026-04-18T08:27:46.068Z</time></trkpt><trkpt lat="37.646875" lon="13.1241776"><ele>263.0</ele><time>2026-04-18T08:27:47.068Z</time></trkpt><trkpt lat="37.6467332" lon="13.124035"><ele>263.0</ele><time>2026-04-18T08:27:48.069Z</time></trkpt><trkpt lat="37.6465901" lon="13.1239007"><ele>263.0</ele><time>2026-04-18T08:27:49.069Z</time></trkpt><trkpt lat="37.6464482" lon="13.1237731"><ele>263.0</ele><time>2026-04-18T08:27:50.069Z</time></trkpt><trkpt lat="37.6463302" lon="13.1236522"><ele>263.0</ele><time>2026-04-18T08:27:51.068Z</time></trkpt><trkpt lat="37.6462325" lon="13.1235397"><ele>263.0</ele><time>2026-04-18T08:27:52.069Z</time></trkpt><trkpt lat="37.6461732" lon="13.1234189"><ele>263.0</ele><time>2026-04-18T08:27:53.069Z</time></trkpt><trkpt lat="37.64615" lon="13.1232683"><ele>263.0</ele><time>2026-04-18T08:27:54.069Z</time></trkpt><trkpt lat="37.6461621" lon="13.1230828"><ele>263.6666666666667</ele><time>2026-04-18T08:27:55.068Z</time></trkpt><trkpt lat="37.6461901" lon="13.1228768"><ele>264.3333333333333</ele><time>2026-04-18T08:27:56.069Z</time></trkpt><trkpt lat="37.6462201" lon="13.1226617"><ele>265.0</ele><time>2026-04-18T08:27:57.069Z</time></trkpt><trkpt lat="37.646243" lon="13.1224401"><ele>262.3333333333333</ele><time>2026-04-18T08:27:58.069Z</time></trkpt><trkpt lat="37.6462601" lon="13.1222204"><ele>259.6666666666667</ele><time>2026-04-18T08:27:59.069Z</time></trkpt><trkpt lat="37.6462848" lon="13.122001"><ele>257.0</ele><time>2026-04-18T08:28:00.069Z</time></trkpt><trkpt lat="37.6463147" lon="13.1217736"><ele>255.0</ele><time>2026-04-18T08:28:01.068Z</time></trkpt><trkpt lat="37.6463383" lon="13.1215478"><ele>253.0</ele><time>2026-04-18T08:28:02.068Z</time></trkpt><trkpt lat="37.6463609" lon="13.1213601"><ele>251.0</ele><time>2026-04-18T08:28:03.068Z</time></trkpt><trkpt lat="37.6464001" lon="13.1212083"><ele>251.0</ele><time>2026-04-18T08:28:04.068Z</time></trkpt><trkpt lat="37.6464715" lon="13.1210844"><ele>251.0</ele><time>2026-04-18T08:28:05.069Z</time></trkpt><trkpt lat="37.6465898" lon="13.1209919"><ele>251.0</ele><time>2026-04-18T08:28:06.069Z</time></trkpt><trkpt lat="37.6467385" lon="13.1209172"><ele>251.0</ele><time>2026-04-18T08:28:07.069Z</time></trkpt><trkpt lat="37.6468961" lon="13.1208483"><ele>250.0</ele><time>2026-04-18T08:28:08.068Z</time></trkpt><trkpt lat="37.6470381" lon="13.120781"><ele>249.0</ele><time>2026-04-18T08:28:09.068Z</time></trkpt><trkpt lat="37.6471684" lon="13.1207173"><ele>248.0</ele><time>2026-04-18T08:28:10.068Z</time></trkpt><trkpt lat="37.6472805" lon="13.1206659"><ele>247.0</ele><time>2026-04-18T08:28:11.068Z</time></trkpt><trkpt lat="37.6473763" lon="13.1206187"><ele>246.99999999999997</ele><time>2026-04-18T08:28:12.069Z</time></trkpt><trkpt lat="37.6474437" lon="13.1205588"><ele>247.0</ele><time>2026-04-18T08:28:13.068Z</time></trkpt><trkpt lat="37.647487" lon="13.1204764"><ele>247.0</ele><time>2026-04-18T08:28:14.068Z</time></trkpt><trkpt lat="37.6475081" lon="13.1203849"><ele>247.0</ele><time>2026-04-18T08:28:15.069Z</time></trkpt><trkpt lat="37.6475042" lon="13.1202805"><ele>246.99999999999997</ele><time>2026-04-18T08:28:16.068Z</time></trkpt><trkpt lat="37.647473" lon="13.1201454"><ele>247.0</ele><time>2026-04-18T08:28:17.069Z</time></trkpt><trkpt lat="37.6474341" lon="13.119979"><ele>248.0</ele><time>2026-04-18T08:28:18.068Z</time></trkpt><trkpt lat="37.6473978" lon="13.1198056"><ele>249.0</ele><time>2026-04-18T08:28:19.068Z</time></trkpt><trkpt lat="37.6473673" lon="13.1196135"><ele>250.0</ele><time>2026-04-18T08:28:20.069Z</time></trkpt><trkpt lat="37.647328" lon="13.1194222"><ele>250.0</ele><time>2026-04-18T08:28:21.069Z</time></trkpt><trkpt lat="37.6472854" lon="13.1192471"><ele>250.0</ele><time>2026-04-18T08:28:22.068Z</time></trkpt><trkpt lat="37.647238" lon="13.1190929"><ele>250.0</ele><time>2026-04-18T08:28:23.069Z</time></trkpt><trkpt lat="37.6471678" lon="13.1189585"><ele>250.0</ele><time>2026-04-18T08:28:24.069Z</time></trkpt><trkpt lat="37.6470655" lon="13.1188545"><ele>251.25</ele><time>2026-04-18T08:28:25.068Z</time></trkpt><trkpt lat="37.6469378" lon="13.1187591"><ele>252.5</ele><time>2026-04-18T08:28:26.069Z</time></trkpt><trkpt lat="37.6468132" lon="13.1186611"><ele>253.75</ele><time>2026-04-18T08:28:27.069Z</time></trkpt><trkpt lat="37.6466977" lon="13.1185327"><ele>255.0</ele><time>2026-04-18T08:28:28.069Z</time></trkpt><trkpt lat="37.6465974" lon="13.1183829"><ele>256.25</ele><time>2026-04-18T08:28:29.069Z</time></trkpt><trkpt lat="37.6465198" lon="13.1182245"><ele>257.5</ele><time>2026-04-18T08:28:30.068Z</time></trkpt><trkpt lat="37.6464717" lon="13.1180865"><ele>258.75</ele><time>2026-04-18T08:28:31.069Z</time></trkpt><trkpt lat="37.6464452" lon="13.1179622"><ele>260.0</ele><time>2026-04-18T08:28:32.069Z</time></trkpt><trkpt lat="37.6464498" lon="13.1178351"><ele>260.0</ele><time>2026-04-18T08:28:33.068Z</time></trkpt><trkpt lat="37.6464921" lon="13.1176908"><ele>260.0</ele><time>2026-04-18T08:28:34.069Z</time></trkpt><trkpt lat="37.6465585" lon="13.1175371"><ele>260.0</ele><time>2026-04-18T08:28:35.069Z</time></trkpt><trkpt lat="37.6466201" lon="13.1173892"><ele>260.0</ele><time>2026-04-18T08:28:36.068Z</time></trkpt><trkpt lat="37.6466463" lon="13.1172645"><ele>261.75</ele><time>2026-04-18T08:28:37.069Z</time></trkpt><trkpt lat="37.64664" lon="13.1171487"><ele>263.5</ele><time>2026-04-18T08:28:38.068Z</time></trkpt><trkpt lat="37.6465963" lon="13.1170262"><ele>265.25</ele><time>2026-04-18T08:28:39.068Z</time></trkpt><trkpt lat="37.6465067" lon="13.1168988"><ele>267.0</ele><time>2026-04-18T08:28:40.069Z</time></trkpt><trkpt lat="37.646397" lon="13.1167765"><ele>267.0</ele><time>2026-04-18T08:28:41.069Z</time></trkpt><trkpt lat="37.6462926" lon="13.116661"><ele>267.0</ele><time>2026-04-18T08:28:42.069Z</time></trkpt><trkpt lat="37.646207" lon="13.1165143"><ele>267.0</ele><time>2026-04-18T08:28:43.069Z</time></trkpt><trkpt lat="37.6461458" lon="13.1163202"><ele>267.0</ele><time>2026-04-18T08:28:44.068Z</time></trkpt><trkpt lat="37.6461006" lon="13.1160962"><ele>266.3333333333333</ele><time>2026-04-18T08:28:45.069Z</time></trkpt><trkpt lat="37.6460574" lon="13.1158601"><ele>265.66666666666663</ele><time>2026-04-18T08:28:46.068Z</time></trkpt><trkpt lat="37.6460049" lon="13.1156111"><ele>265.0</ele><time>2026-04-18T08:28:47.069Z</time></trkpt><trkpt lat="37.6459464" lon="13.1153366"><ele>265.0</ele><time>2026-04-18T08:28:48.069Z</time></trkpt><trkpt lat="37.6458857" lon="13.1150542"><ele>265.0</ele><time>2026-04-18T08:28:49.068Z</time></trkpt><trkpt lat="37.6458354" lon="13.1147936"><ele>265.0</ele><time>2026-04-18T08:28:50.069Z</time></trkpt><trkpt lat="37.6457908" lon="13.1145557"><ele>267.0</ele><time>2026-04-18T08:28:51.068Z</time></trkpt><trkpt lat="37.6457713" lon="13.1143209"><ele>269.0</ele><time>2026-04-18T08:28:52.068Z</time></trkpt><trkpt lat="37.6457825" lon="13.1140732"><ele>271.0</ele><time>2026-04-18T08:28:53.069Z</time></trkpt><trkpt lat="37.6457982" lon="13.113821"><ele>272.0</ele><time>2026-04-18T08:28:54.069Z</time></trkpt><trkpt lat="37.6458142" lon="13.1135835"><ele>273.0</ele><time>2026-04-18T08:28:55.068Z</time></trkpt><trkpt lat="37.6458206" lon="13.113364"><ele>274.0</ele><time>2026-04-18T08:28:56.069Z</time></trkpt><trkpt lat="37.6458175" lon="13.1131786"><ele>276.25</ele><time>2026-04-18T08:28:57.068Z</time></trkpt><trkpt lat="37.6457997" lon="13.1130262"><ele>278.5</ele><time>2026-04-18T08:28:58.069Z</time></trkpt><trkpt lat="37.645771" lon="13.1128804"><ele>280.75</ele><time>2026-04-18T08:28:59.069Z</time></trkpt><trkpt lat="37.6457355" lon="13.1127295"><ele>283.0</ele><time>2026-04-18T08:29:00.069Z</time></trkpt><trkpt lat="37.645694" lon="13.1125485"><ele>289.0</ele><time>2026-04-18T08:29:01.069Z</time></trkpt><trkpt lat="37.6456286" lon="13.1123491"><ele>295.0</ele><time>2026-04-18T08:29:02.069Z</time></trkpt><trkpt lat="37.645548" lon="13.1121447"><ele>301.0</ele><time>2026-04-18T08:29:03.069Z</time></trkpt><trkpt lat="37.6454534" lon="13.111932"><ele>301.0</ele><time>2026-04-18T08:29:04.068Z</time></trkpt><trkpt lat="37.6453407" lon="13.1117206"><ele>301.0</ele><time>2026-04-18T08:29:05.069Z</time></trkpt><trkpt lat="37.645219" lon="13.1115057"><ele>301.0</ele><time>2026-04-18T08:29:06.069Z</time></trkpt><trkpt lat="37.6450867" lon="13.1112927"><ele>301.3333333333333</ele><time>2026-04-18T08:29:07.068Z</time></trkpt><trkpt lat="37.644952" lon="13.1110758"><ele>301.6666666666667</ele><time>2026-04-18T08:29:08.069Z</time></trkpt><trkpt lat="37.6448236" lon="13.110843"><ele>302.0</ele><time>2026-04-18T08:29:09.069Z</time></trkpt><trkpt lat="37.644701" lon="13.1106094"><ele>298.0</ele><time>2026-04-18T08:29:10.069Z</time></trkpt><trkpt lat="37.644579" lon="13.1103761"><ele>294.0</ele><time>2026-04-18T08:29:11.068Z</time></trkpt><trkpt lat="37.6444525" lon="13.1101573"><ele>290.0</ele><time>2026-04-18T08:29:12.069Z</time></trkpt><trkpt lat="37.6443219" lon="13.1099537"><ele>294.33333333333337</ele><time>2026-04-18T08:29:13.069Z</time></trkpt><trkpt lat="37.6442049" lon="13.1097647"><ele>298.6666666666667</ele><time>2026-04-18T08:29:14.069Z</time></trkpt><trkpt lat="37.6441078" lon="13.1095774"><ele>303.0</ele><time>2026-04-18T08:29:15.069Z</time></trkpt><trkpt lat="37.644029" lon="13.1093671"><ele>303.0</ele><time>2026-04-18T08:29:16.069Z</time></trkpt><trkpt lat="37.6439641" lon="13.1091418"><ele>303.0</ele><time>2026-04-18T08:29:17.069Z</time></trkpt><trkpt lat="37.6439013" lon="13.1089093"><ele>303.0</ele><time>2026-04-18T08:29:18.069Z</time></trkpt><trkpt lat="37.6438434" lon="13.1086919"><ele>303.25</ele><time>2026-04-18T08:29:19.069Z</time></trkpt><trkpt lat="37.6437994" lon="13.1084878"><ele>303.5</ele><time>2026-04-18T08:29:20.068Z</time></trkpt><trkpt lat="37.6437788" lon="13.1083005"><ele>303.75</ele><time>2026-04-18T08:29:21.069Z</time></trkpt><trkpt lat="37.6437794" lon="13.1081447"><ele>304.0</ele><time>2026-04-18T08:29:22.069Z</time></trkpt><trkpt lat="37.6438006" lon="13.1080212"><ele>303.66666666666663</ele><time>2026-04-18T08:29:23.068Z</time></trkpt><trkpt lat="37.6438296" lon="13.1079254"><ele>303.3333333333333</ele><time>2026-04-18T08:29:24.068Z</time></trkpt><trkpt lat="37.6438832" lon="13.107852"><ele>303.0</ele><time>2026-04-18T08:29:25.069Z</time></trkpt><trkpt lat="37.6439459" lon="13.1077897"><ele>302.6666666666667</ele><time>2026-04-18T08:29:26.068Z</time></trkpt><trkpt lat="37.6440069" lon="13.1077311"><ele>302.33333333333337</ele><time>2026-04-18T08:29:27.069Z</time></trkpt><trkpt lat="37.6440636" lon="13.1076797"><ele>302.0</ele><time>2026-04-18T08:29:28.069Z</time></trkpt><trkpt lat="37.6441173" lon="13.1076343"><ele>302.00000000000006</ele><time>2026-04-18T08:29:29.068Z</time></trkpt><trkpt lat="37.6441734" lon="13.1075836"><ele>302.0</ele><time>2026-04-18T08:29:30.068Z</time></trkpt><trkpt lat="37.6442314" lon="13.1075333"><ele>302.0</ele><time>2026-04-18T08:29:31.069Z</time></trkpt><trkpt lat="37.6442857" lon="13.1074843"><ele>302.0</ele><time>2026-04-18T08:29:32.068Z</time></trkpt><trkpt lat="37.6443391" lon="13.107429"><ele>302.0</ele><time>2026-04-18T08:29:33.068Z</time></trkpt><trkpt lat="37.6443957" lon="13.107378"><ele>302.00000000000006</ele><time>2026-04-18T08:29:34.068Z</time></trkpt><trkpt lat="37.6444483" lon="13.1073315"><ele>302.0</ele><time>2026-04-18T08:29:35.069Z</time></trkpt><trkpt lat="37.644535" lon="13.107254"><ele>300.8571428571429</ele><time>2026-04-18T08:29:37.069Z</time></trkpt><trkpt lat="37.644598" lon="13.107186"><ele>299.7142857142857</ele><time>2026-04-18T08:29:39.068Z</time></trkpt><trkpt lat="37.6446597" lon="13.1071651"><ele>298.57142857142856</ele><time>2026-04-18T08:29:48.068Z</time></trkpt><trkpt lat="37.6446996" lon="13.1070975"><ele>297.42857142857144</ele><time>2026-04-18T08:33:52.068Z</time></trkpt><trkpt lat="37.6447615" lon="13.1070274"><ele>296.2857142857143</ele><time>2026-04-18T08:33:54.068Z</time></trkpt><trkpt lat="37.6448143" lon="13.1069727"><ele>295.14285714285717</ele><time>2026-04-18T08:33:55.077Z</time></trkpt><trkpt lat="37.6448666" lon="13.1069203"><ele>294.0</ele><time>2026-04-18T08:33:56.076Z</time></trkpt><trkpt lat="37.6449207" lon="13.1068762"><ele>294.0</ele><time>2026-04-18T08:33:57.076Z</time></trkpt><trkpt lat="37.6449723" lon="13.1068291"><ele>294.0</ele><time>2026-04-18T08:33:58.076Z</time></trkpt><trkpt lat="37.6450711" lon="13.1067451"><ele>294.0</ele><time>2026-04-18T08:34:00.077Z</time></trkpt><trkpt lat="37.6451318" lon="13.1066912"><ele>294.0</ele><time>2026-04-18T08:34:01.077Z</time></trkpt><trkpt lat="37.6452034" lon="13.1066376"><ele>294.0</ele><time>2026-04-18T08:34:02.077Z</time></trkpt><trkpt lat="37.6452784" lon="13.1065942"><ele>294.0</ele><time>2026-04-18T08:34:03.077Z</time></trkpt><trkpt lat="37.6453554" lon="13.1065666"><ele>291.8333333333333</ele><time>2026-04-18T08:34:04.077Z</time></trkpt><trkpt lat="37.6454352" lon="13.1065467"><ele>289.6666666666667</ele><time>2026-04-18T08:34:05.077Z</time></trkpt><trkpt lat="37.6455216" lon="13.1065306"><ele>287.5</ele><time>2026-04-18T08:34:06.077Z</time></trkpt><trkpt lat="37.6456033" lon="13.1065151"><ele>285.33333333333337</ele><time>2026-04-18T08:34:07.077Z</time></trkpt><trkpt lat="37.6456687" lon="13.1064978"><ele>283.1666666666667</ele><time>2026-04-18T08:34:08.077Z</time></trkpt><trkpt lat="37.6457641" lon="13.1064875"><ele>281.0</ele><time>2026-04-18T08:34:10.076Z</time></trkpt><trkpt lat="37.6458121" lon="13.1065502"><ele>283.1666666666667</ele><time>2026-04-18T08:34:12.077Z</time></trkpt><trkpt lat="37.6458591" lon="13.1066872"><ele>285.33333333333337</ele><time>2026-04-18T08:34:14.077Z</time></trkpt><trkpt lat="37.6458847" lon="13.1067729"><ele>287.5</ele><time>2026-04-18T08:34:15.077Z</time></trkpt><trkpt lat="37.645913" lon="13.1068616"><ele>289.6666666666667</ele><time>2026-04-18T08:34:16.077Z</time></trkpt><trkpt lat="37.6459415" lon="13.1069542"><ele>291.8333333333333</ele><time>2026-04-18T08:34:17.077Z</time></trkpt><trkpt lat="37.6459676" lon="13.107044"><ele>294.0</ele><time>2026-04-18T08:34:18.077Z</time></trkpt><trkpt lat="37.6459929" lon="13.1071386"><ele>294.0</ele><time>2026-04-18T08:34:19.077Z</time></trkpt><trkpt lat="37.6460177" lon="13.1072269"><ele>294.0</ele><time>2026-04-18T08:34:20.077Z</time></trkpt><trkpt lat="37.6460474" lon="13.1073181"><ele>294.0</ele><time>2026-04-18T08:34:21.077Z</time></trkpt><trkpt lat="37.646088" lon="13.1074048"><ele>294.0</ele><time>2026-04-18T08:34:22.077Z</time></trkpt><trkpt lat="37.6461312" lon="13.1074901"><ele>294.0</ele><time>2026-04-18T08:34:23.077Z</time></trkpt><trkpt lat="37.6461706" lon="13.107574"><ele>294.0</ele><time>2026-04-18T08:34:24.077Z</time></trkpt><trkpt lat="37.6462064" lon="13.1076587"><ele>295.8</ele><time>2026-04-18T08:34:25.077Z</time></trkpt><trkpt lat="37.6462487" lon="13.1077427"><ele>297.59999999999997</ele><time>2026-04-18T08:34:26.076Z</time></trkpt><trkpt lat="37.6463017" lon="13.1078317"><ele>299.4</ele><time>2026-04-18T08:34:27.077Z</time></trkpt><trkpt lat="37.6463614" lon="13.1079217"><ele>301.2</ele><time>2026-04-18T08:34:28.076Z</time></trkpt><trkpt lat="37.6464179" lon="13.1080247"><ele>303.0</ele><time>2026-04-18T08:34:29.077Z</time></trkpt><trkpt lat="37.6464681" lon="13.1081324"><ele>303.0</ele><time>2026-04-18T08:34:30.077Z</time></trkpt><trkpt lat="37.6465215" lon="13.1082416"><ele>303.0</ele><time>2026-04-18T08:34:31.077Z</time></trkpt><trkpt lat="37.6465747" lon="13.1083474"><ele>303.0</ele><time>2026-04-18T08:34:32.076Z</time></trkpt><trkpt lat="37.6466353" lon="13.1084556"><ele>303.0</ele><time>2026-04-18T08:34:33.076Z</time></trkpt><trkpt lat="37.6466978" lon="13.1085522"><ele>303.0</ele><time>2026-04-18T08:34:34.077Z</time></trkpt><trkpt lat="37.6467568" lon="13.1086512"><ele>304.0</ele><time>2026-04-18T08:34:35.077Z</time></trkpt><trkpt lat="37.6468087" lon="13.1087449"><ele>305.0</ele><time>2026-04-18T08:34:36.076Z</time></trkpt><trkpt lat="37.646849" lon="13.1088273"><ele>306.0</ele><time>2026-04-18T08:34:37.076Z</time></trkpt><trkpt lat="37.646882" lon="13.1088991"><ele>307.0</ele><time>2026-04-18T08:34:38.076Z</time></trkpt><trkpt lat="37.6469129" lon="13.108977"><ele>308.0</ele><time>2026-04-18T08:34:40.076Z</time></trkpt><trkpt lat="37.6469427" lon="13.1090591"><ele>309.0</ele><time>2026-04-18T08:34:44.077Z</time></trkpt><trkpt lat="37.6469806" lon="13.1091261"><ele>310.0</ele><time>2026-04-18T08:34:45.076Z</time></trkpt><trkpt lat="37.6470282" lon="13.1091924"><ele>310.7142857142857</ele><time>2026-04-18T08:34:46.076Z</time></trkpt><trkpt lat="37.6470725" lon="13.1092758"><ele>311.42857142857144</ele><time>2026-04-18T08:34:47.077Z</time></trkpt><trkpt lat="37.647115" lon="13.1093598"><ele>312.1428571428571</ele><time>2026-04-18T08:34:48.077Z</time></trkpt><trkpt lat="37.6471547" lon="13.1094422"><ele>312.8571428571429</ele><time>2026-04-18T08:34:49.076Z</time></trkpt><trkpt lat="37.6471934" lon="13.1095144"><ele>313.57142857142856</ele><time>2026-04-18T08:34:50.076Z</time></trkpt><trkpt lat="37.6472337" lon="13.1095897"><ele>314.2857142857143</ele><time>2026-04-18T08:34:51.077Z</time></trkpt><trkpt lat="37.6472709" lon="13.1096637"><ele>315.0</ele><time>2026-04-18T08:34:52.077Z</time></trkpt><trkpt lat="37.6473018" lon="13.1097342"><ele>315.0</ele><time>2026-04-18T08:34:53.077Z</time></trkpt><trkpt lat="37.6473508" lon="13.1098234"><ele>315.0</ele><time>2026-04-18T08:34:55.076Z</time></trkpt><trkpt lat="37.64738" lon="13.1099197"><ele>315.0</ele><time>2026-04-18T08:34:58.076Z</time></trkpt><trkpt lat="37.6474341" lon="13.1099648"><ele>315.0</ele><time>2026-04-18T08:35:19.076Z</time></trkpt><trkpt lat="37.6474936" lon="13.1100455"><ele>315.0</ele><time>2026-04-18T08:35:21.077Z</time></trkpt><trkpt lat="37.6475641" lon="13.1101763"><ele>315.0</ele><time>2026-04-18T08:35:23.076Z</time></trkpt><trkpt lat="37.6476034" lon="13.1102548"><ele>316.8</ele><time>2026-04-18T08:35:24.076Z</time></trkpt><trkpt lat="37.647646" lon="13.1103316"><ele>318.6</ele><time>2026-04-18T08:35:25.077Z</time></trkpt><trkpt lat="37.6476859" lon="13.110405"><ele>320.4</ele><time>2026-04-18T08:35:26.077Z</time></trkpt><trkpt lat="37.6477523" lon="13.1105351"><ele>322.2</ele><time>2026-04-18T08:35:28.077Z</time></trkpt><trkpt lat="37.6478158" lon="13.1106549"><ele>324.0</ele><time>2026-04-18T08:35:30.076Z</time></trkpt><trkpt lat="37.6478827" lon="13.1107814"><ele>326.1666666666667</ele><time>2026-04-18T08:35:32.076Z</time></trkpt><trkpt lat="37.6479175" lon="13.1108499"><ele>328.3333333333333</ele><time>2026-04-18T08:35:33.076Z</time></trkpt><trkpt lat="37.6479793" lon="13.110963"><ele>330.5</ele><time>2026-04-18T08:35:35.076Z</time></trkpt><trkpt lat="37.6480209" lon="13.1110365"><ele>332.66666666666663</ele><time>2026-04-18T08:35:37.077Z</time></trkpt><trkpt lat="37.6480676" lon="13.1110931"><ele>334.8333333333333</ele><time>2026-04-18T08:35:40.076Z</time></trkpt><trkpt lat="37.6481667" lon="13.1110795"><ele>337.0</ele><time>2026-04-18T08:35:42.076Z</time></trkpt><trkpt lat="37.6482382" lon="13.1110506"><ele>337.0</ele><time>2026-04-18T08:35:43.077Z</time></trkpt><trkpt lat="37.6483119" lon="13.1110323"><ele>337.0</ele><time>2026-04-18T08:35:44.077Z</time></trkpt><trkpt lat="37.6483836" lon="13.1110141"><ele>337.0</ele><time>2026-04-18T08:35:45.077Z</time></trkpt><trkpt lat="37.6484528" lon="13.1110047"><ele>337.0</ele><time>2026-04-18T08:35:46.077Z</time></trkpt><trkpt lat="37.6485803" lon="13.1109898"><ele>337.0</ele><time>2026-04-18T08:35:48.077Z</time></trkpt><trkpt lat="37.6486487" lon="13.1109574"><ele>337.0</ele><time>2026-04-18T08:35:49.076Z</time></trkpt><trkpt lat="37.6487244" lon="13.1109262"><ele>336.40000000000003</ele><time>2026-04-18T08:35:50.076Z</time></trkpt><trkpt lat="37.6488101" lon="13.1108869"><ele>335.8</ele><time>2026-04-18T08:35:51.077Z</time></trkpt><trkpt lat="37.6489012" lon="13.1108591"><ele>335.2</ele><time>2026-04-18T08:35:52.077Z</time></trkpt><trkpt lat="37.6489965" lon="13.1108496"><ele>334.6</ele><time>2026-04-18T08:35:53.077Z</time></trkpt><trkpt lat="37.6490828" lon="13.1108344"><ele>334.0</ele><time>2026-04-18T08:35:54.076Z</time></trkpt><trkpt lat="37.6491665" lon="13.1108299"><ele>334.0</ele><time>2026-04-18T08:35:55.076Z</time></trkpt><trkpt lat="37.649237" lon="13.1108257"><ele>334.0</ele><time>2026-04-18T08:35:56.077Z</time></trkpt><trkpt lat="37.6493702" lon="13.1108324"><ele>334.0</ele><time>2026-04-18T08:35:58.077Z</time></trkpt><trkpt lat="37.6494335" lon="13.1108455"><ele>334.0</ele><time>2026-04-18T08:35:59.076Z</time></trkpt><trkpt lat="37.6495405" lon="13.1108565"><ele>334.0</ele><time>2026-04-18T08:36:01.076Z</time></trkpt><trkpt lat="37.6496413" lon="13.1108637"><ele>333.0</ele><time>2026-04-18T08:36:03.077Z</time></trkpt><trkpt lat="37.649742" lon="13.1108661"><ele>332.0</ele><time>2026-04-18T08:36:05.076Z</time></trkpt><trkpt lat="37.6498571" lon="13.1108738"><ele>331.0</ele><time>2026-04-18T08:36:07.077Z</time></trkpt><trkpt lat="37.6499206" lon="13.1108724"><ele>330.0</ele><time>2026-04-18T08:36:08.077Z</time></trkpt><trkpt lat="37.6499856" lon="13.1108904"><ele>329.0</ele><time>2026-04-18T08:36:09.077Z</time></trkpt><trkpt lat="37.6500438" lon="13.110934"><ele>328.0</ele><time>2026-04-18T08:36:10.076Z</time></trkpt><trkpt lat="37.6501058" lon="13.111003"><ele>328.0</ele><time>2026-04-18T08:36:11.077Z</time></trkpt><trkpt lat="37.6501472" lon="13.1110692"><ele>328.0</ele><time>2026-04-18T08:36:12.077Z</time></trkpt><trkpt lat="37.650183" lon="13.1111349"><ele>328.0</ele><time>2026-04-18T08:36:13.076Z</time></trkpt><trkpt lat="37.6502144" lon="13.1112177"><ele>328.0</ele><time>2026-04-18T08:36:14.077Z</time></trkpt><trkpt lat="37.6502466" lon="13.1113154"><ele>328.0</ele><time>2026-04-18T08:36:15.077Z</time></trkpt><trkpt lat="37.6502734" lon="13.1114246"><ele>328.0</ele><time>2026-04-18T08:36:16.076Z</time></trkpt><trkpt lat="37.650307" lon="13.1115323"><ele>325.0</ele><time>2026-04-18T08:36:17.076Z</time></trkpt><trkpt lat="37.6503449" lon="13.1116396"><ele>322.0</ele><time>2026-04-18T08:36:18.077Z</time></trkpt><trkpt lat="37.6503961" lon="13.1117351"><ele>319.0</ele><time>2026-04-18T08:36:19.077Z</time></trkpt><trkpt lat="37.6504564" lon="13.1118308"><ele>316.0</ele><time>2026-04-18T08:36:20.076Z</time></trkpt><trkpt lat="37.650509" lon="13.1119251"><ele>313.0</ele><time>2026-04-18T08:36:21.076Z</time></trkpt><trkpt lat="37.6505592" lon="13.1120239"><ele>313.0</ele><time>2026-04-18T08:36:22.077Z</time></trkpt><trkpt lat="37.6506107" lon="13.1121169"><ele>313.0</ele><time>2026-04-18T08:36:23.076Z</time></trkpt><trkpt lat="37.6506639" lon="13.1122109"><ele>313.0</ele><time>2026-04-18T08:36:24.077Z</time></trkpt><trkpt lat="37.6507149" lon="13.1123072"><ele>313.0</ele><time>2026-04-18T08:36:25.076Z</time></trkpt><trkpt lat="37.6507643" lon="13.1124121"><ele>313.0</ele><time>2026-04-18T08:36:26.076Z</time></trkpt><trkpt lat="37.6508144" lon="13.1125134"><ele>314.8</ele><time>2026-04-18T08:36:27.077Z</time></trkpt><trkpt lat="37.6508651" lon="13.1126129"><ele>316.6</ele><time>2026-04-18T08:36:28.077Z</time></trkpt><trkpt lat="37.6509171" lon="13.1127076"><ele>318.40000000000003</ele><time>2026-04-18T08:36:29.076Z</time></trkpt><trkpt lat="37.6509717" lon="13.112806"><ele>320.20000000000005</ele><time>2026-04-18T08:36:30.077Z</time></trkpt><trkpt lat="37.6510234" lon="13.1129044"><ele>322.0</ele><time>2026-04-18T08:36:31.077Z</time></trkpt><trkpt lat="37.6510761" lon="13.1129983"><ele>320.6</ele><time>2026-04-18T08:36:32.077Z</time></trkpt><trkpt lat="37.6511287" lon="13.1130931"><ele>319.20000000000005</ele><time>2026-04-18T08:36:33.077Z</time></trkpt><trkpt lat="37.6511852" lon="13.1131797"><ele>317.8</ele><time>2026-04-18T08:36:34.076Z</time></trkpt><trkpt lat="37.6512411" lon="13.1132658"><ele>316.4</ele><time>2026-04-18T08:36:35.077Z</time></trkpt><trkpt lat="37.6513026" lon="13.1133512"><ele>315.0</ele><time>2026-04-18T08:36:36.077Z</time></trkpt><trkpt lat="37.6513649" lon="13.1134386"><ele>315.0</ele><time>2026-04-18T08:36:37.077Z</time></trkpt><trkpt lat="37.6514282" lon="13.1135173"><ele>315.0</ele><time>2026-04-18T08:36:38.076Z</time></trkpt><trkpt lat="37.6514902" lon="13.1135964"><ele>315.0</ele><time>2026-04-18T08:36:39.077Z</time></trkpt><trkpt lat="37.6515514" lon="13.1136797"><ele>315.0</ele><time>2026-04-18T08:36:40.077Z</time></trkpt><trkpt lat="37.6516155" lon="13.1137612"><ele>315.0</ele><time>2026-04-18T08:36:41.077Z</time></trkpt><trkpt lat="37.6516807" lon="13.1138508"><ele>315.0</ele><time>2026-04-18T08:36:42.077Z</time></trkpt><trkpt lat="37.6517453" lon="13.1139397"><ele>315.0</ele><time>2026-04-18T08:36:43.076Z</time></trkpt><trkpt lat="37.6518171" lon="13.1140353"><ele>315.0</ele><time>2026-04-18T08:36:44.077Z</time></trkpt><trkpt lat="37.6518879" lon="13.1141328"><ele>315.0</ele><time>2026-04-18T08:36:45.077Z</time></trkpt><trkpt lat="37.6519591" lon="13.114227"><ele>315.0</ele><time>2026-04-18T08:36:46.077Z</time></trkpt><trkpt lat="37.6520243" lon="13.1143214"><ele>314.3333333333333</ele><time>2026-04-18T08:36:47.077Z</time></trkpt><trkpt lat="37.6520825" lon="13.1144099"><ele>313.6666666666667</ele><time>2026-04-18T08:36:48.076Z</time></trkpt><trkpt lat="37.6521307" lon="13.114484"><ele>313.0</ele><time>2026-04-18T08:36:49.077Z</time></trkpt><trkpt lat="37.652179" lon="13.1145459"><ele>312.33333333333337</ele><time>2026-04-18T08:36:50.077Z</time></trkpt><trkpt lat="37.6522641" lon="13.1146482"><ele>311.6666666666667</ele><time>2026-04-18T08:36:52.077Z</time></trkpt><trkpt lat="37.6523322" lon="13.1147116"><ele>311.0</ele><time>2026-04-18T08:36:54.077Z</time></trkpt><trkpt lat="37.652381" lon="13.1147959"><ele>311.0</ele><time>2026-04-18T08:36:57.077Z</time></trkpt><trkpt lat="37.6524298" lon="13.1148996"><ele>311.0</ele><time>2026-04-18T08:36:59.077Z</time></trkpt><trkpt lat="37.6524934" lon="13.1150293"><ele>311.0</ele><time>2026-04-18T08:37:01.076Z</time></trkpt><trkpt lat="37.6525644" lon="13.115133"><ele>311.0</ele><time>2026-04-18T08:37:03.076Z</time></trkpt><trkpt lat="37.6526409" lon="13.1152426"><ele>311.0</ele><time>2026-04-18T08:37:05.077Z</time></trkpt><trkpt lat="37.6527141" lon="13.1153547"><ele>311.1666666666667</ele><time>2026-04-18T08:37:07.077Z</time></trkpt><trkpt lat="37.652774" lon="13.1154501"><ele>311.33333333333337</ele><time>2026-04-18T08:37:09.077Z</time></trkpt><trkpt lat="37.6528266" lon="13.1155319"><ele>311.5</ele><time>2026-04-18T08:37:11.076Z</time></trkpt><trkpt lat="37.6528618" lon="13.1156131"><ele>311.6666666666667</ele><time>2026-04-18T08:37:13.077Z</time></trkpt><trkpt lat="37.6528979" lon="13.1156913"><ele>311.8333333333333</ele><time>2026-04-18T08:37:15.077Z</time></trkpt><trkpt lat="37.6529716" lon="13.1157746"><ele>312.0</ele><time>2026-04-18T08:37:17.077Z</time></trkpt><trkpt lat="37.6530662" lon="13.1158241"><ele>312.4</ele><time>2026-04-18T08:37:19.076Z</time></trkpt><trkpt lat="37.6531573" lon="13.1158302"><ele>312.79999999999995</ele><time>2026-04-18T08:37:21.077Z</time></trkpt><trkpt lat="37.6532697" lon="13.1158373"><ele>313.2</ele><time>2026-04-18T08:37:23.076Z</time></trkpt><trkpt lat="37.6533783" lon="13.1158469"><ele>313.59999999999997</ele><time>2026-04-18T08:37:25.076Z</time></trkpt><trkpt lat="37.6534826" lon="13.1158442"><ele>314.0</ele><time>2026-04-18T08:37:27.077Z</time></trkpt><trkpt lat="37.6535757" lon="13.1158391"><ele>314.0</ele><time>2026-04-18T08:37:29.077Z</time></trkpt><trkpt lat="37.6536497" lon="13.1158136"><ele>314.0</ele><time>2026-04-18T08:37:31.076Z</time></trkpt><trkpt lat="37.6536334" lon="13.1157249"><ele>314.0</ele><time>2026-04-18T08:37:34.076Z</time></trkpt><trkpt lat="37.6535495" lon="13.115748"><ele>314.0</ele><time>2026-04-18T08:37:36.076Z</time></trkpt><trkpt lat="37.6534552" lon="13.1157945"><ele>314.0</ele><time>2026-04-18T08:37:38.077Z</time></trkpt><trkpt lat="37.6533309" lon="13.1158039"><ele>314.0</ele><time>2026-04-18T08:37:40.077Z</time></trkpt><trkpt lat="37.653267" lon="13.1157991"><ele>314.0</ele><time>2026-04-18T08:37:41.077Z</time></trkpt><trkpt lat="37.6532032" lon="13.1157901"><ele>314.0</ele><time>2026-04-18T08:37:42.076Z</time></trkpt><trkpt lat="37.6530847" lon="13.1157528"><ele>314.0</ele><time>2026-04-18T08:37:44.077Z</time></trkpt><trkpt lat="37.6529797" lon="13.1156709"><ele>314.0</ele><time>2026-04-18T08:37:46.076Z</time></trkpt><trkpt lat="37.6529006" lon="13.1155462"><ele>313.6666666666667</ele><time>2026-04-18T08:37:48.077Z</time></trkpt><trkpt lat="37.6528613" lon="13.1154786"><ele>313.33333333333337</ele><time>2026-04-18T08:37:49.077Z</time></trkpt><trkpt lat="37.6528212" lon="13.1154034"><ele>313.0</ele><time>2026-04-18T08:37:50.076Z</time></trkpt><trkpt lat="37.6527732" lon="13.115327"><ele>312.6666666666667</ele><time>2026-04-18T08:37:51.077Z</time></trkpt><trkpt lat="37.6527254" lon="13.1152435"><ele>312.3333333333333</ele><time>2026-04-18T08:37:52.077Z</time></trkpt><trkpt lat="37.6526753" lon="13.1151419"><ele>312.0</ele><time>2026-04-18T08:37:53.077Z</time></trkpt><trkpt lat="37.6526239" lon="13.1150214"><ele>311.75</ele><time>2026-04-18T08:37:54.076Z</time></trkpt><trkpt lat="37.6525781" lon="13.1148872"><ele>311.5</ele><time>2026-04-18T08:37:55.077Z</time></trkpt><trkpt lat="37.6525362" lon="13.1147522"><ele>311.25</ele><time>2026-04-18T08:37:56.077Z</time></trkpt><trkpt lat="37.6524959" lon="13.1146209"><ele>311.0</ele><time>2026-04-18T08:37:57.077Z</time></trkpt><trkpt lat="37.652452" lon="13.1144878"><ele>311.0</ele><time>2026-04-18T08:37:58.077Z</time></trkpt><trkpt lat="37.6524116" lon="13.1143576"><ele>311.0</ele><time>2026-04-18T08:37:59.077Z</time></trkpt><trkpt lat="37.6523695" lon="13.1142251"><ele>311.0</ele><time>2026-04-18T08:38:00.077Z</time></trkpt><trkpt lat="37.6523355" lon="13.1140903"><ele>311.0</ele><time>2026-04-18T08:38:01.077Z</time></trkpt><trkpt lat="37.6522953" lon="13.1139587"><ele>311.0</ele><time>2026-04-18T08:38:02.077Z</time></trkpt><trkpt lat="37.6522508" lon="13.1138273"><ele>309.6</ele><time>2026-04-18T08:38:03.076Z</time></trkpt><trkpt lat="37.6522078" lon="13.1137016"><ele>308.20000000000005</ele><time>2026-04-18T08:38:04.077Z</time></trkpt><trkpt lat="37.6521636" lon="13.1135723"><ele>306.79999999999995</ele><time>2026-04-18T08:38:05.077Z</time></trkpt><trkpt lat="37.6521227" lon="13.1134407"><ele>305.4</ele><time>2026-04-18T08:38:06.076Z</time></trkpt><trkpt lat="37.652083" lon="13.1133177"><ele>304.0</ele><time>2026-04-18T08:38:07.077Z</time></trkpt><trkpt lat="37.6520475" lon="13.1131972"><ele>304.0</ele><time>2026-04-18T08:38:08.077Z</time></trkpt><trkpt lat="37.6520097" lon="13.1130762"><ele>304.0</ele><time>2026-04-18T08:38:09.077Z</time></trkpt><trkpt lat="37.6519698" lon="13.1129589"><ele>304.0</ele><time>2026-04-18T08:38:10.077Z</time></trkpt><trkpt lat="37.6519308" lon="13.1128426"><ele>304.0</ele><time>2026-04-18T08:38:11.076Z</time></trkpt><trkpt lat="37.6518922" lon="13.1127211"><ele>304.0</ele><time>2026-04-18T08:38:12.076Z</time></trkpt><trkpt lat="37.651849" lon="13.1125993"><ele>304.0</ele><time>2026-04-18T08:38:13.077Z</time></trkpt><trkpt lat="37.6518045" lon="13.1124818"><ele>304.0</ele><time>2026-04-18T08:38:14.077Z</time></trkpt><trkpt lat="37.6517579" lon="13.1123609"><ele>304.0</ele><time>2026-04-18T08:38:15.076Z</time></trkpt><trkpt lat="37.6517164" lon="13.1122382"><ele>304.0</ele><time>2026-04-18T08:38:16.077Z</time></trkpt><trkpt lat="37.6516727" lon="13.1121099"><ele>304.0</ele><time>2026-04-18T08:38:17.077Z</time></trkpt><trkpt lat="37.6516275" lon="13.1119764"><ele>302.25</ele><time>2026-04-18T08:38:18.077Z</time></trkpt><trkpt lat="37.6515804" lon="13.1118361"><ele>300.5</ele><time>2026-04-18T08:38:19.076Z</time></trkpt><trkpt lat="37.6515397" lon="13.11169"><ele>298.75</ele><time>2026-04-18T08:38:20.077Z</time></trkpt><trkpt lat="37.6515036" lon="13.1115412"><ele>297.0</ele><time>2026-04-18T08:38:21.077Z</time></trkpt><trkpt lat="37.6514661" lon="13.1113912"><ele>295.6</ele><time>2026-04-18T08:38:22.077Z</time></trkpt><trkpt lat="37.6514316" lon="13.1112468"><ele>294.2</ele><time>2026-04-18T08:38:23.076Z</time></trkpt><trkpt lat="37.6514023" lon="13.1111107"><ele>292.8</ele><time>2026-04-18T08:38:24.076Z</time></trkpt><trkpt lat="37.6513766" lon="13.1109814"><ele>291.4</ele><time>2026-04-18T08:38:25.077Z</time></trkpt><trkpt lat="37.6513541" lon="13.1108592"><ele>290.0</ele><time>2026-04-18T08:38:26.076Z</time></trkpt><trkpt lat="37.6513272" lon="13.1107472"><ele>289.1666666666667</ele><time>2026-04-18T08:38:27.077Z</time></trkpt><trkpt lat="37.6513009" lon="13.11064"><ele>288.33333333333337</ele><time>2026-04-18T08:38:28.077Z</time></trkpt><trkpt lat="37.6512804" lon="13.110535"><ele>287.5</ele><time>2026-04-18T08:38:29.076Z</time></trkpt><trkpt lat="37.6512573" lon="13.1104345"><ele>286.6666666666667</ele><time>2026-04-18T08:38:30.077Z</time></trkpt><trkpt lat="37.6512338" lon="13.1103363"><ele>285.8333333333333</ele><time>2026-04-18T08:38:31.076Z</time></trkpt><trkpt lat="37.6512104" lon="13.1102361"><ele>285.0</ele><time>2026-04-18T08:38:32.077Z</time></trkpt><trkpt lat="37.6511876" lon="13.110134"><ele>285.0</ele><time>2026-04-18T08:38:33.076Z</time></trkpt><trkpt lat="37.6511691" lon="13.1100405"><ele>285.0</ele><time>2026-04-18T08:38:34.076Z</time></trkpt><trkpt lat="37.6511526" lon="13.1099503"><ele>285.0</ele><time>2026-04-18T08:38:35.077Z</time></trkpt><trkpt lat="37.6511383" lon="13.1098721"><ele>285.0</ele><time>2026-04-18T08:38:36.077Z</time></trkpt><trkpt lat="37.6511243" lon="13.1097526"><ele>285.0</ele><time>2026-04-18T08:38:38.077Z</time></trkpt><trkpt lat="37.6511234" lon="13.109664"><ele>285.0</ele><time>2026-04-18T08:38:41.077Z</time></trkpt><trkpt lat="37.6510565" lon="13.1096576"><ele>285.0</ele><time>2026-04-18T08:38:52.077Z</time></trkpt><trkpt lat="37.6510857" lon="13.1097547"><ele>285.0</ele><time>2026-04-18T08:38:55.076Z</time></trkpt><trkpt lat="37.6511187" lon="13.1098496"><ele>285.0</ele><time>2026-04-18T08:38:57.077Z</time></trkpt><trkpt lat="37.6511343" lon="13.1099398"><ele>285.0</ele><time>2026-04-18T08:38:59.076Z</time></trkpt><trkpt lat="37.651162" lon="13.1100783"><ele>285.0</ele><time>2026-04-18T08:39:01.077Z</time></trkpt><trkpt lat="37.6511897" lon="13.1102075"><ele>285.0</ele><time>2026-04-18T08:39:03.076Z</time></trkpt><trkpt lat="37.6512124" lon="13.1102933"><ele>285.0</ele><time>2026-04-18T08:39:05.076Z</time></trkpt><trkpt lat="37.6512227" lon="13.1103764"><ele>285.0</ele><time>2026-04-18T08:39:08.076Z</time></trkpt><trkpt lat="37.6512381" lon="13.1104632"><ele>285.0</ele><time>2026-04-18T08:39:11.077Z</time></trkpt><trkpt lat="37.6512253" lon="13.1103643"><ele>285.0</ele><time>2026-04-18T08:40:23.076Z</time></trkpt><trkpt lat="37.6511946" lon="13.1102193"><ele>285.0</ele><time>2026-04-18T08:40:25.077Z</time></trkpt><trkpt lat="37.6511713" lon="13.110104"><ele>285.0</ele><time>2026-04-18T08:40:27.077Z</time></trkpt><trkpt lat="37.651153" lon="13.1099784"><ele>284.6666666666667</ele><time>2026-04-18T08:40:29.077Z</time></trkpt><trkpt lat="37.6511311" lon="13.1098568"><ele>284.3333333333333</ele><time>2026-04-18T08:40:31.077Z</time></trkpt><trkpt lat="37.6511086" lon="13.1097338"><ele>284.0</ele><time>2026-04-18T08:40:33.076Z</time></trkpt><trkpt lat="37.6510773" lon="13.1095904"><ele>283.66666666666663</ele><time>2026-04-18T08:40:35.085Z</time></trkpt><trkpt lat="37.6510619" lon="13.1095126"><ele>283.3333333333333</ele><time>2026-04-18T08:40:36.085Z</time></trkpt><trkpt lat="37.6510445" lon="13.109434"><ele>283.0</ele><time>2026-04-18T08:40:37.085Z</time></trkpt><trkpt lat="37.6510135" lon="13.1092874"><ele>283.2</ele><time>2026-04-18T08:40:39.085Z</time></trkpt><trkpt lat="37.6509794" lon="13.1091367"><ele>283.4</ele><time>2026-04-18T08:40:41.085Z</time></trkpt><trkpt lat="37.6509516" lon="13.1089792"><ele>283.59999999999997</ele><time>2026-04-18T08:40:43.085Z</time></trkpt><trkpt lat="37.6509383" lon="13.1088959"><ele>283.8</ele><time>2026-04-18T08:40:44.084Z</time></trkpt><trkpt lat="37.6509257" lon="13.1088138"><ele>284.0</ele><time>2026-04-18T08:40:45.085Z</time></trkpt><trkpt lat="37.6509123" lon="13.1087314"><ele>284.0</ele><time>2026-04-18T08:40:46.085Z</time></trkpt><trkpt lat="37.6508964" lon="13.1086464"><ele>284.0</ele><time>2026-04-18T08:40:47.085Z</time></trkpt><trkpt lat="37.6508838" lon="13.1085626"><ele>284.0</ele><time>2026-04-18T08:40:48.084Z</time></trkpt><trkpt lat="37.6508731" lon="13.1084737"><ele>284.0</ele><time>2026-04-18T08:40:49.085Z</time></trkpt><trkpt lat="37.6508658" lon="13.1083837"><ele>284.0</ele><time>2026-04-18T08:40:50.085Z</time></trkpt><trkpt lat="37.6508616" lon="13.1082984"><ele>284.0</ele><time>2026-04-18T08:40:51.085Z</time></trkpt><trkpt lat="37.6508689" lon="13.1081524"><ele>283.83333333333337</ele><time>2026-04-18T08:40:53.085Z</time></trkpt><trkpt lat="37.6508674" lon="13.1080692"><ele>283.6666666666667</ele><time>2026-04-18T08:40:54.085Z</time></trkpt><trkpt lat="37.6508579" lon="13.1079633"><ele>283.5</ele><time>2026-04-18T08:40:55.085Z</time></trkpt><trkpt lat="37.6508377" lon="13.1078489"><ele>283.3333333333333</ele><time>2026-04-18T08:40:56.085Z</time></trkpt><trkpt lat="37.6508177" lon="13.1077339"><ele>283.16666666666663</ele><time>2026-04-18T08:40:57.084Z</time></trkpt><trkpt lat="37.6507935" lon="13.1076336"><ele>283.0</ele><time>2026-04-18T08:40:58.085Z</time></trkpt><trkpt lat="37.6507558" lon="13.1075312"><ele>283.0</ele><time>2026-04-18T08:40:59.084Z</time></trkpt><trkpt lat="37.650711" lon="13.1074373"><ele>283.0</ele><time>2026-04-18T08:41:00.085Z</time></trkpt><trkpt lat="37.6506646" lon="13.1073542"><ele>283.0</ele><time>2026-04-18T08:41:01.084Z</time></trkpt><trkpt lat="37.6506149" lon="13.1072815"><ele>283.0</ele><time>2026-04-18T08:41:02.085Z</time></trkpt><trkpt lat="37.6505636" lon="13.107221"><ele>283.0</ele><time>2026-04-18T08:41:03.085Z</time></trkpt><trkpt lat="37.6505043" lon="13.1071521"><ele>283.0</ele><time>2026-04-18T08:41:05.085Z</time></trkpt><trkpt lat="37.6505015" lon="13.1070713"><ele>283.0</ele><time>2026-04-18T08:41:09.085Z</time></trkpt><trkpt lat="37.6505701" lon="13.1070144"><ele>283.0</ele><time>2026-04-18T08:43:05.084Z</time></trkpt><trkpt lat="37.6506226" lon="13.1070613"><ele>283.0</ele><time>2026-04-18T08:43:09.085Z</time></trkpt><trkpt lat="37.6505863" lon="13.1069921"><ele>283.0</ele><time>2026-04-18T08:43:51.085Z</time></trkpt><trkpt lat="37.6505235" lon="13.1069997"><ele>283.0</ele><time>2026-04-18T08:45:15.192Z</time></trkpt><trkpt lat="37.6504705" lon="13.1070707"><ele>283.0</ele><time>2026-04-18T08:45:34.949Z</time></trkpt><trkpt lat="37.650443" lon="13.1069988"><ele>283.0</ele><time>2026-04-18T08:45:45.156Z</time></trkpt><trkpt lat="37.6504479" lon="13.1069116"><ele>283.0</ele><time>2026-04-18T08:46:01.287Z</time></trkpt><trkpt lat="37.6505175" lon="13.1069304"><ele>283.0</ele><time>2026-04-18T09:05:03.851Z</time></trkpt><trkpt lat="37.650536" lon="13.1068435"><ele>283.0</ele><time>2026-04-18T09:06:00.165Z</time></trkpt><trkpt lat="37.6504874" lon="13.1069233"><ele>283.0</ele><time>2026-04-18T09:06:35.137Z</time></trkpt><trkpt lat="37.6504189" lon="13.1069533"><ele>283.0</ele><time>2026-04-18T09:06:42.118Z</time></trkpt><trkpt lat="37.6503992" lon="13.107045"><ele>283.0</ele><time>2026-04-18T09:06:47.158Z</time></trkpt><trkpt lat="37.6504389" lon="13.1071115"><ele>283.0</ele><time>2026-04-18T09:06:52.172Z</time></trkpt><trkpt lat="37.6505055" lon="13.1071329"><ele>283.0</ele><time>2026-04-18T09:06:57.18Z</time></trkpt><trkpt lat="37.6505673" lon="13.1070886"><ele>283.0</ele><time>2026-04-18T09:07:03.194Z</time></trkpt><trkpt lat="37.6503973" lon="13.1070067"><ele>283.0</ele><time>2026-04-18T09:18:21.122Z</time></trkpt><trkpt lat="37.6502831" lon="13.1069444"><ele>283.0</ele><time>2026-04-18T09:18:22.121Z</time></trkpt><trkpt lat="37.6501813" lon="13.1068871"><ele>281.66666666666663</ele><time>2026-04-18T09:18:23.122Z</time></trkpt><trkpt lat="37.6500997" lon="13.1068338"><ele>280.3333333333333</ele><time>2026-04-18T09:18:24.121Z</time></trkpt><trkpt lat="37.6500275" lon="13.1067813"><ele>279.0</ele><time>2026-04-18T09:18:25.122Z</time></trkpt><trkpt lat="37.6499632" lon="13.1067276"><ele>277.6666666666667</ele><time>2026-04-18T09:18:26.122Z</time></trkpt><trkpt lat="37.649906" lon="13.1066681"><ele>276.33333333333337</ele><time>2026-04-18T09:18:27.122Z</time></trkpt><trkpt lat="37.6498643" lon="13.1065976"><ele>275.0</ele><time>2026-04-18T09:18:28.122Z</time></trkpt><trkpt lat="37.6498376" lon="13.1065124"><ele>274.6</ele><time>2026-04-18T09:18:29.122Z</time></trkpt><trkpt lat="37.6498226" lon="13.1064094"><ele>274.2</ele><time>2026-04-18T09:18:30.122Z</time></trkpt><trkpt lat="37.6498082" lon="13.1062988"><ele>273.8</ele><time>2026-04-18T09:18:31.122Z</time></trkpt><trkpt lat="37.6497868" lon="13.1061792"><ele>273.4</ele><time>2026-04-18T09:18:32.121Z</time></trkpt><trkpt lat="37.6497552" lon="13.1060507"><ele>273.0</ele><time>2026-04-18T09:18:33.122Z</time></trkpt><trkpt lat="37.6497181" lon="13.1059262"><ele>273.0</ele><time>2026-04-18T09:18:34.122Z</time></trkpt><trkpt lat="37.649674" lon="13.1058051"><ele>273.0</ele><time>2026-04-18T09:18:35.121Z</time></trkpt><trkpt lat="37.6496373" lon="13.1056812"><ele>273.0</ele><time>2026-04-18T09:18:36.122Z</time></trkpt><trkpt lat="37.6496086" lon="13.105551"><ele>273.0</ele><time>2026-04-18T09:18:37.122Z</time></trkpt><trkpt lat="37.64959" lon="13.1054158"><ele>273.0</ele><time>2026-04-18T09:18:38.121Z</time></trkpt><trkpt lat="37.6495924" lon="13.1052788"><ele>271.6</ele><time>2026-04-18T09:18:39.122Z</time></trkpt><trkpt lat="37.6496126" lon="13.1051386"><ele>270.20000000000005</ele><time>2026-04-18T09:18:40.122Z</time></trkpt><trkpt lat="37.6496418" lon="13.1049996"><ele>268.8</ele><time>2026-04-18T09:18:41.121Z</time></trkpt><trkpt lat="37.649676" lon="13.1048681"><ele>267.40000000000003</ele><time>2026-04-18T09:18:42.121Z</time></trkpt><trkpt lat="37.6497179" lon="13.1047521"><ele>266.0</ele><time>2026-04-18T09:18:43.122Z</time></trkpt><trkpt lat="37.649761" lon="13.1046316"><ele>264.2</ele><time>2026-04-18T09:18:44.121Z</time></trkpt><trkpt lat="37.649803" lon="13.1045023"><ele>262.40000000000003</ele><time>2026-04-18T09:18:45.122Z</time></trkpt><trkpt lat="37.649844" lon="13.1043737"><ele>260.6</ele><time>2026-04-18T09:18:46.121Z</time></trkpt><trkpt lat="37.6498803" lon="13.1042503"><ele>258.8</ele><time>2026-04-18T09:18:47.121Z</time></trkpt><trkpt lat="37.6499218" lon="13.1041217"><ele>257.0</ele><time>2026-04-18T09:18:48.121Z</time></trkpt><trkpt lat="37.649967" lon="13.1039873"><ele>255.25</ele><time>2026-04-18T09:18:49.121Z</time></trkpt><trkpt lat="37.6500119" lon="13.1038511"><ele>253.5</ele><time>2026-04-18T09:18:50.121Z</time></trkpt><trkpt lat="37.6500562" lon="13.1037087"><ele>251.75</ele><time>2026-04-18T09:18:51.12Z</time></trkpt><trkpt lat="37.6501006" lon="13.103562"><ele>250.0</ele><time>2026-04-18T09:18:52.121Z</time></trkpt><trkpt lat="37.6501485" lon="13.1034167"><ele>250.0</ele><time>2026-04-18T09:18:53.12Z</time></trkpt><trkpt lat="37.6501967" lon="13.1032759"><ele>250.0</ele><time>2026-04-18T09:18:54.121Z</time></trkpt><trkpt lat="37.6502434" lon="13.1031434"><ele>250.0</ele><time>2026-04-18T09:18:55.121Z</time></trkpt><trkpt lat="37.6502859" lon="13.1030166"><ele>250.0</ele><time>2026-04-18T09:18:56.121Z</time></trkpt><trkpt lat="37.650325" lon="13.1028945"><ele>250.4</ele><time>2026-04-18T09:18:57.12Z</time></trkpt><trkpt lat="37.6503633" lon="13.1027748"><ele>250.8</ele><time>2026-04-18T09:18:58.121Z</time></trkpt><trkpt lat="37.650405" lon="13.102653"><ele>251.2</ele><time>2026-04-18T09:18:59.121Z</time></trkpt><trkpt lat="37.6504606" lon="13.1025339"><ele>251.6</ele><time>2026-04-18T09:19:00.121Z</time></trkpt><trkpt lat="37.6505278" lon="13.1024125"><ele>252.0</ele><time>2026-04-18T09:19:01.12Z</time></trkpt><trkpt lat="37.650604" lon="13.1022891"><ele>250.0</ele><time>2026-04-18T09:19:02.12Z</time></trkpt><trkpt lat="37.6506846" lon="13.1021653"><ele>248.0</ele><time>2026-04-18T09:19:03.121Z</time></trkpt><trkpt lat="37.6507671" lon="13.1020404"><ele>246.0</ele><time>2026-04-18T09:19:04.121Z</time></trkpt><trkpt lat="37.6508476" lon="13.1019178"><ele>244.0</ele><time>2026-04-18T09:19:05.121Z</time></trkpt><trkpt lat="37.6509262" lon="13.1018015"><ele>244.0</ele><time>2026-04-18T09:19:06.121Z</time></trkpt><trkpt lat="37.6510002" lon="13.1016927"><ele>243.99999999999997</ele><time>2026-04-18T09:19:07.121Z</time></trkpt><trkpt lat="37.6510681" lon="13.1015928"><ele>243.99999999999997</ele><time>2026-04-18T09:19:08.121Z</time></trkpt><trkpt lat="37.6511313" lon="13.1015019"><ele>244.0</ele><time>2026-04-18T09:19:09.121Z</time></trkpt><trkpt lat="37.6511936" lon="13.1014065"><ele>244.0</ele><time>2026-04-18T09:19:10.121Z</time></trkpt><trkpt lat="37.6512617" lon="13.1013031"><ele>243.25</ele><time>2026-04-18T09:19:11.12Z</time></trkpt><trkpt lat="37.6513321" lon="13.1011984"><ele>242.5</ele><time>2026-04-18T09:19:12.121Z</time></trkpt><trkpt lat="37.6514078" lon="13.1010898"><ele>241.75</ele><time>2026-04-18T09:19:13.121Z</time></trkpt><trkpt lat="37.6514901" lon="13.1009809"><ele>241.0</ele><time>2026-04-18T09:19:14.12Z</time></trkpt><trkpt lat="37.6515796" lon="13.1008806"><ele>241.0</ele><time>2026-04-18T09:19:15.121Z</time></trkpt><trkpt lat="37.6516738" lon="13.1007878"><ele>241.00000000000003</ele><time>2026-04-18T09:19:16.121Z</time></trkpt><trkpt lat="37.6517605" lon="13.1007078"><ele>241.00000000000003</ele><time>2026-04-18T09:19:17.12Z</time></trkpt><trkpt lat="37.6518392" lon="13.1006381"><ele>241.0</ele><time>2026-04-18T09:19:18.121Z</time></trkpt><trkpt lat="37.6519076" lon="13.1005791"><ele>241.0</ele><time>2026-04-18T09:19:19.121Z</time></trkpt><trkpt lat="37.6519691" lon="13.1005288"><ele>240.57142857142858</ele><time>2026-04-18T09:19:20.121Z</time></trkpt><trkpt lat="37.6520317" lon="13.1004995"><ele>240.14285714285717</ele><time>2026-04-18T09:19:21.12Z</time></trkpt><trkpt lat="37.6520991" lon="13.1004863"><ele>239.71428571428572</ele><time>2026-04-18T09:19:22.12Z</time></trkpt><trkpt lat="37.6521681" lon="13.1004777"><ele>239.28571428571428</ele><time>2026-04-18T09:19:23.121Z</time></trkpt><trkpt lat="37.6522384" lon="13.1004591"><ele>238.85714285714286</ele><time>2026-04-18T09:19:24.121Z</time></trkpt><trkpt lat="37.6523014" lon="13.1004102"><ele>238.42857142857144</ele><time>2026-04-18T09:19:25.121Z</time></trkpt><trkpt lat="37.6523444" lon="13.1003332"><ele>238.0</ele><time>2026-04-18T09:19:26.121Z</time></trkpt><trkpt lat="37.6523749" lon="13.1002544"><ele>238.0</ele><time>2026-04-18T09:19:27.121Z</time></trkpt><trkpt lat="37.6524059" lon="13.1001676"><ele>238.0</ele><time>2026-04-18T09:19:28.12Z</time></trkpt><trkpt lat="37.6524496" lon="13.1000664"><ele>238.0</ele><time>2026-04-18T09:19:29.121Z</time></trkpt><trkpt lat="37.652511" lon="13.0999564"><ele>238.0</ele><time>2026-04-18T09:19:30.121Z</time></trkpt><trkpt lat="37.6525823" lon="13.0998452"><ele>238.0</ele><time>2026-04-18T09:19:31.121Z</time></trkpt><trkpt lat="37.652659" lon="13.0997246"><ele>237.66666666666666</ele><time>2026-04-18T09:19:32.12Z</time></trkpt><trkpt lat="37.6527481" lon="13.0995883"><ele>237.33333333333331</ele><time>2026-04-18T09:19:33.121Z</time></trkpt><trkpt lat="37.6528459" lon="13.0994359"><ele>237.0</ele><time>2026-04-18T09:19:34.121Z</time></trkpt><trkpt lat="37.6529513" lon="13.0992708"><ele>237.0</ele><time>2026-04-18T09:19:35.12Z</time></trkpt><trkpt lat="37.6530635" lon="13.099104"><ele>237.0</ele><time>2026-04-18T09:19:36.121Z</time></trkpt><trkpt lat="37.6531807" lon="13.0989347"><ele>237.0</ele><time>2026-04-18T09:19:37.12Z</time></trkpt><trkpt lat="37.6533023" lon="13.0987682"><ele>236.0</ele><time>2026-04-18T09:19:38.121Z</time></trkpt><trkpt lat="37.6534276" lon="13.0985919"><ele>235.0</ele><time>2026-04-18T09:19:39.12Z</time></trkpt><trkpt lat="37.6535556" lon="13.0984042"><ele>234.0</ele><time>2026-04-18T09:19:40.121Z</time></trkpt><trkpt lat="37.6536852" lon="13.0982123"><ele>233.33333333333331</ele><time>2026-04-18T09:19:41.121Z</time></trkpt><trkpt lat="37.6538139" lon="13.0980143"><ele>232.66666666666666</ele><time>2026-04-18T09:19:42.121Z</time></trkpt><trkpt lat="37.653943" lon="13.0978085"><ele>232.0</ele><time>2026-04-18T09:19:43.121Z</time></trkpt><trkpt lat="37.6540717" lon="13.0976005"><ele>231.0</ele><time>2026-04-18T09:19:44.121Z</time></trkpt><trkpt lat="37.6542011" lon="13.0973917"><ele>230.0</ele><time>2026-04-18T09:19:45.12Z</time></trkpt><trkpt lat="37.6543327" lon="13.0971802"><ele>229.0</ele><time>2026-04-18T09:19:46.121Z</time></trkpt><trkpt lat="37.6544669" lon="13.0969666"><ele>229.0</ele><time>2026-04-18T09:19:47.12Z</time></trkpt><trkpt lat="37.6545977" lon="13.0967514"><ele>229.0</ele><time>2026-04-18T09:19:48.12Z</time></trkpt><trkpt lat="37.6547276" lon="13.096538"><ele>229.0</ele><time>2026-04-18T09:19:49.121Z</time></trkpt><trkpt lat="37.6548574" lon="13.0963261"><ele>228.33333333333331</ele><time>2026-04-18T09:19:50.121Z</time></trkpt><trkpt lat="37.6549856" lon="13.096118"><ele>227.66666666666669</ele><time>2026-04-18T09:19:51.12Z</time></trkpt><trkpt lat="37.6551122" lon="13.0959141"><ele>227.0</ele><time>2026-04-18T09:19:52.121Z</time></trkpt><trkpt lat="37.655234" lon="13.0957107"><ele>226.33333333333334</ele><time>2026-04-18T09:19:53.121Z</time></trkpt><trkpt lat="37.6553557" lon="13.0955108"><ele>225.66666666666669</ele><time>2026-04-18T09:19:54.121Z</time></trkpt><trkpt lat="37.6554737" lon="13.095309"><ele>225.0</ele><time>2026-04-18T09:19:55.121Z</time></trkpt><trkpt lat="37.6555875" lon="13.0951057"><ele>225.0</ele><time>2026-04-18T09:19:56.12Z</time></trkpt><trkpt lat="37.6556986" lon="13.0949025"><ele>225.0</ele><time>2026-04-18T09:19:57.121Z</time></trkpt><trkpt lat="37.6558087" lon="13.0947004"><ele>225.0</ele><time>2026-04-18T09:19:58.121Z</time></trkpt><trkpt lat="37.6559147" lon="13.0944988"><ele>225.0</ele><time>2026-04-18T09:19:59.121Z</time></trkpt><trkpt lat="37.6560221" lon="13.0942999"><ele>225.0</ele><time>2026-04-18T09:20:00.121Z</time></trkpt><trkpt lat="37.6561289" lon="13.0941048"><ele>225.0</ele><time>2026-04-18T09:20:01.12Z</time></trkpt><trkpt lat="37.6562377" lon="13.0939085"><ele>227.66666666666669</ele><time>2026-04-18T09:20:02.12Z</time></trkpt><trkpt lat="37.6563449" lon="13.0937085"><ele>230.33333333333334</ele><time>2026-04-18T09:20:03.121Z</time></trkpt><trkpt lat="37.6564509" lon="13.0935089"><ele>233.0</ele><time>2026-04-18T09:20:04.121Z</time></trkpt><trkpt lat="37.6565579" lon="13.0933073"><ele>232.66666666666669</ele><time>2026-04-18T09:20:05.12Z</time></trkpt><trkpt lat="37.6566667" lon="13.0931067"><ele>232.33333333333331</ele><time>2026-04-18T09:20:06.12Z</time></trkpt><trkpt lat="37.6567767" lon="13.0929037"><ele>232.0</ele><time>2026-04-18T09:20:07.121Z</time></trkpt><trkpt lat="37.6568843" lon="13.0926995"><ele>232.66666666666666</ele><time>2026-04-18T09:20:08.12Z</time></trkpt><trkpt lat="37.6569946" lon="13.0924925"><ele>233.33333333333331</ele><time>2026-04-18T09:20:09.12Z</time></trkpt><trkpt lat="37.6571079" lon="13.0922838"><ele>234.0</ele><time>2026-04-18T09:20:10.121Z</time></trkpt><trkpt lat="37.6572227" lon="13.0920738"><ele>234.0</ele><time>2026-04-18T09:20:11.121Z</time></trkpt><trkpt lat="37.6573333" lon="13.0918692"><ele>234.0</ele><time>2026-04-18T09:20:12.121Z</time></trkpt><trkpt lat="37.6574407" lon="13.0916598"><ele>234.0</ele><time>2026-04-18T09:20:13.121Z</time></trkpt><trkpt lat="37.6575475" lon="13.0914414"><ele>234.66666666666669</ele><time>2026-04-18T09:20:14.12Z</time></trkpt><trkpt lat="37.6576631" lon="13.0912208"><ele>235.33333333333334</ele><time>2026-04-18T09:20:15.121Z</time></trkpt><trkpt lat="37.6577874" lon="13.0910026"><ele>236.0</ele><time>2026-04-18T09:20:16.121Z</time></trkpt><trkpt lat="37.6579122" lon="13.0907864"><ele>239.66666666666669</ele><time>2026-04-18T09:20:17.121Z</time></trkpt><trkpt lat="37.6580329" lon="13.0905687"><ele>243.33333333333331</ele><time>2026-04-18T09:20:18.121Z</time></trkpt><trkpt lat="37.658153" lon="13.0903461"><ele>247.0</ele><time>2026-04-18T09:20:19.12Z</time></trkpt><trkpt lat="37.6582722" lon="13.0901256"><ele>248.0</ele><time>2026-04-18T09:20:20.121Z</time></trkpt><trkpt lat="37.658393" lon="13.0899031"><ele>249.0</ele><time>2026-04-18T09:20:21.121Z</time></trkpt><trkpt lat="37.6585105" lon="13.0896788"><ele>250.0</ele><time>2026-04-18T09:20:22.121Z</time></trkpt><trkpt lat="37.6586141" lon="13.089448"><ele>250.0</ele><time>2026-04-18T09:20:23.121Z</time></trkpt><trkpt lat="37.6587108" lon="13.0892112"><ele>250.0</ele><time>2026-04-18T09:20:24.121Z</time></trkpt><trkpt lat="37.6588052" lon="13.088966"><ele>250.0</ele><time>2026-04-18T09:20:25.121Z</time></trkpt><trkpt lat="37.6589057" lon="13.0887181"><ele>250.0</ele><time>2026-04-18T09:20:26.12Z</time></trkpt><trkpt lat="37.6590115" lon="13.0884729"><ele>250.0</ele><time>2026-04-18T09:20:27.121Z</time></trkpt><trkpt lat="37.6591195" lon="13.0882302"><ele>250.0</ele><time>2026-04-18T09:20:28.121Z</time></trkpt><trkpt lat="37.6592282" lon="13.0879914"><ele>250.33333333333331</ele><time>2026-04-18T09:20:29.121Z</time></trkpt><trkpt lat="37.6593356" lon="13.087756"><ele>250.66666666666669</ele><time>2026-04-18T09:20:30.121Z</time></trkpt><trkpt lat="37.6594471" lon="13.0875317"><ele>251.0</ele><time>2026-04-18T09:20:31.121Z</time></trkpt><trkpt lat="37.6595535" lon="13.0873197"><ele>249.66666666666669</ele><time>2026-04-18T09:20:32.121Z</time></trkpt><trkpt lat="37.6596542" lon="13.0871187"><ele>248.33333333333331</ele><time>2026-04-18T09:20:33.12Z</time></trkpt><trkpt lat="37.6597483" lon="13.0869257"><ele>247.0</ele><time>2026-04-18T09:20:34.121Z</time></trkpt><trkpt lat="37.6598378" lon="13.0867414"><ele>247.33333333333331</ele><time>2026-04-18T09:20:35.12Z</time></trkpt><trkpt lat="37.6599233" lon="13.0865609"><ele>247.66666666666669</ele><time>2026-04-18T09:20:36.129Z</time></trkpt><trkpt lat="37.6600058" lon="13.0863902"><ele>248.0</ele><time>2026-04-18T09:20:37.129Z</time></trkpt><trkpt lat="37.6600843" lon="13.0862264"><ele>248.0</ele><time>2026-04-18T09:20:38.128Z</time></trkpt><trkpt lat="37.6601579" lon="13.0860687"><ele>248.0</ele><time>2026-04-18T09:20:39.129Z</time></trkpt><trkpt lat="37.6602304" lon="13.0859183"><ele>248.0</ele><time>2026-04-18T09:20:40.129Z</time></trkpt><trkpt lat="37.6603018" lon="13.0857745"><ele>248.0</ele><time>2026-04-18T09:20:41.128Z</time></trkpt><trkpt lat="37.6603734" lon="13.0856385"><ele>245.75</ele><time>2026-04-18T09:20:42.128Z</time></trkpt><trkpt lat="37.6604378" lon="13.0855037"><ele>243.5</ele><time>2026-04-18T09:20:43.129Z</time></trkpt><trkpt lat="37.6605038" lon="13.0853705"><ele>241.25</ele><time>2026-04-18T09:20:44.128Z</time></trkpt><trkpt lat="37.6605728" lon="13.0852297"><ele>239.0</ele><time>2026-04-18T09:20:45.129Z</time></trkpt><trkpt lat="37.6606442" lon="13.085072"><ele>239.33333333333334</ele><time>2026-04-18T09:20:46.129Z</time></trkpt><trkpt lat="37.6607256" lon="13.0849073"><ele>239.66666666666669</ele><time>2026-04-18T09:20:47.128Z</time></trkpt><trkpt lat="37.6608133" lon="13.084738"><ele>240.0</ele><time>2026-04-18T09:20:48.129Z</time></trkpt><trkpt lat="37.6609149" lon="13.0845652"><ele>240.0</ele><time>2026-04-18T09:20:49.129Z</time></trkpt><trkpt lat="37.6610284" lon="13.0843844"><ele>240.0</ele><time>2026-04-18T09:20:50.129Z</time></trkpt><trkpt lat="37.661152" lon="13.0841979"><ele>240.0</ele><time>2026-04-18T09:20:51.129Z</time></trkpt><trkpt lat="37.6612774" lon="13.0840035"><ele>237.66666666666669</ele><time>2026-04-18T09:20:52.128Z</time></trkpt><trkpt lat="37.6614078" lon="13.0837984"><ele>235.33333333333334</ele><time>2026-04-18T09:20:53.129Z</time></trkpt><trkpt lat="37.6615467" lon="13.083585"><ele>233.0</ele><time>2026-04-18T09:20:54.129Z</time></trkpt><trkpt lat="37.6616901" lon="13.0833556"><ele>231.5</ele><time>2026-04-18T09:20:55.129Z</time></trkpt><trkpt lat="37.661827" lon="13.0831098"><ele>230.0</ele><time>2026-04-18T09:20:56.129Z</time></trkpt><trkpt lat="37.6619469" lon="13.0828471"><ele>227.5</ele><time>2026-04-18T09:20:57.129Z</time></trkpt><trkpt lat="37.6620465" lon="13.0825682"><ele>225.0</ele><time>2026-04-18T09:20:58.129Z</time></trkpt><trkpt lat="37.6621393" lon="13.0822757"><ele>224.0</ele><time>2026-04-18T09:20:59.128Z</time></trkpt><trkpt lat="37.6622341" lon="13.0819845"><ele>223.0</ele><time>2026-04-18T09:21:00.129Z</time></trkpt><trkpt lat="37.6623302" lon="13.0816968"><ele>223.0</ele><time>2026-04-18T09:21:01.128Z</time></trkpt><trkpt lat="37.6624267" lon="13.0814152"><ele>223.0</ele><time>2026-04-18T09:21:02.129Z</time></trkpt><trkpt lat="37.6625218" lon="13.0811414"><ele>223.0</ele><time>2026-04-18T09:21:03.129Z</time></trkpt><trkpt lat="37.6626179" lon="13.0808783"><ele>223.0</ele><time>2026-04-18T09:21:04.129Z</time></trkpt><trkpt lat="37.6627075" lon="13.0806225"><ele>223.66666666666666</ele><time>2026-04-18T09:21:05.128Z</time></trkpt><trkpt lat="37.6627962" lon="13.0803823"><ele>224.33333333333331</ele><time>2026-04-18T09:21:06.129Z</time></trkpt><trkpt lat="37.662892" lon="13.0801572"><ele>225.0</ele><time>2026-04-18T09:21:07.129Z</time></trkpt><trkpt lat="37.6630046" lon="13.0799356"><ele>224.33333333333331</ele><time>2026-04-18T09:21:08.129Z</time></trkpt><trkpt lat="37.6631336" lon="13.0797186"><ele>223.66666666666666</ele><time>2026-04-18T09:21:09.128Z</time></trkpt><trkpt lat="37.6632647" lon="13.0795144"><ele>223.0</ele><time>2026-04-18T09:21:10.129Z</time></trkpt><trkpt lat="37.6633983" lon="13.0793248"><ele>223.0</ele><time>2026-04-18T09:21:11.129Z</time></trkpt><trkpt lat="37.66354" lon="13.0791446"><ele>223.0</ele><time>2026-04-18T09:21:12.129Z</time></trkpt><trkpt lat="37.6636954" lon="13.0789753"><ele>223.0</ele><time>2026-04-18T09:21:13.129Z</time></trkpt><trkpt lat="37.663858" lon="13.0788157"><ele>225.0</ele><time>2026-04-18T09:21:14.129Z</time></trkpt><trkpt lat="37.6640229" lon="13.0786561"><ele>227.0</ele><time>2026-04-18T09:21:15.128Z</time></trkpt><trkpt lat="37.6641862" lon="13.0784878"><ele>229.0</ele><time>2026-04-18T09:21:16.129Z</time></trkpt><trkpt lat="37.6643525" lon="13.0783146"><ele>228.0</ele><time>2026-04-18T09:21:17.129Z</time></trkpt><trkpt lat="37.6645205" lon="13.0781506"><ele>227.0</ele><time>2026-04-18T09:21:18.128Z</time></trkpt><trkpt lat="37.664693" lon="13.0779955"><ele>226.0</ele><time>2026-04-18T09:21:19.128Z</time></trkpt><trkpt lat="37.6648789" lon="13.0778543"><ele>226.0</ele><time>2026-04-18T09:21:20.128Z</time></trkpt><trkpt lat="37.6650755" lon="13.0777314"><ele>226.0</ele><time>2026-04-18T09:21:21.129Z</time></trkpt><trkpt lat="37.665277" lon="13.0776063"><ele>226.0</ele><time>2026-04-18T09:21:22.129Z</time></trkpt><trkpt lat="37.6654791" lon="13.0774753"><ele>225.5</ele><time>2026-04-18T09:21:23.128Z</time></trkpt><trkpt lat="37.6656797" lon="13.0773387"><ele>225.0</ele><time>2026-04-18T09:21:24.129Z</time></trkpt><trkpt lat="37.6658847" lon="13.0772034"><ele>225.0</ele><time>2026-04-18T09:21:25.128Z</time></trkpt><trkpt lat="37.6660899" lon="13.0770683"><ele>225.0</ele><time>2026-04-18T09:21:26.129Z</time></trkpt><trkpt lat="37.6662934" lon="13.0769309"><ele>226.0</ele><time>2026-04-18T09:21:27.129Z</time></trkpt><trkpt lat="37.6664977" lon="13.0767952"><ele>227.0</ele><time>2026-04-18T09:21:28.129Z</time></trkpt><trkpt lat="37.6667002" lon="13.0766582"><ele>226.0</ele><time>2026-04-18T09:21:29.128Z</time></trkpt><trkpt lat="37.6669025" lon="13.0765202"><ele>225.0</ele><time>2026-04-18T09:21:30.128Z</time></trkpt><trkpt lat="37.6671025" lon="13.0763765"><ele>225.0</ele><time>2026-04-18T09:21:31.129Z</time></trkpt><trkpt lat="37.6673" lon="13.076223"><ele>225.0</ele><time>2026-04-18T09:21:32.129Z</time></trkpt><trkpt lat="37.6674942" lon="13.0760631"><ele>225.0</ele><time>2026-04-18T09:21:33.128Z</time></trkpt><trkpt lat="37.6676865" lon="13.0759047"><ele>225.0</ele><time>2026-04-18T09:21:34.129Z</time></trkpt><trkpt lat="37.6678796" lon="13.0757501"><ele>224.5</ele><time>2026-04-18T09:21:35.129Z</time></trkpt><trkpt lat="37.6680726" lon="13.0755971"><ele>224.0</ele><time>2026-04-18T09:21:36.128Z</time></trkpt><trkpt lat="37.6682634" lon="13.0754418"><ele>224.0</ele><time>2026-04-18T09:21:37.129Z</time></trkpt><trkpt lat="37.6684527" lon="13.0752848"><ele>224.0</ele><time>2026-04-18T09:21:38.129Z</time></trkpt><trkpt lat="37.6686406" lon="13.0751287"><ele>225.0</ele><time>2026-04-18T09:21:39.129Z</time></trkpt><trkpt lat="37.6688288" lon="13.0749735"><ele>226.0</ele><time>2026-04-18T09:21:40.128Z</time></trkpt><trkpt lat="37.669017" lon="13.0748188"><ele>227.0</ele><time>2026-04-18T09:21:41.129Z</time></trkpt><trkpt lat="37.6692055" lon="13.0746672"><ele>227.0</ele><time>2026-04-18T09:21:42.128Z</time></trkpt><trkpt lat="37.669394" lon="13.0745201"><ele>227.0</ele><time>2026-04-18T09:21:43.129Z</time></trkpt><trkpt lat="37.6695788" lon="13.0743746"><ele>227.0</ele><time>2026-04-18T09:21:44.129Z</time></trkpt><trkpt lat="37.6697659" lon="13.0742288"><ele>228.66666666666669</ele><time>2026-04-18T09:21:45.128Z</time></trkpt><trkpt lat="37.6699517" lon="13.0740869"><ele>230.33333333333331</ele><time>2026-04-18T09:21:46.129Z</time></trkpt><trkpt lat="37.6701328" lon="13.073943"><ele>232.0</ele><time>2026-04-18T09:21:47.129Z</time></trkpt><trkpt lat="37.6703112" lon="13.0737962"><ele>233.0</ele><time>2026-04-18T09:21:48.128Z</time></trkpt><trkpt lat="37.670491" lon="13.073654"><ele>234.0</ele><time>2026-04-18T09:21:49.129Z</time></trkpt><trkpt lat="37.6706685" lon="13.0735081"><ele>235.0</ele><time>2026-04-18T09:21:50.129Z</time></trkpt><trkpt lat="37.670843" lon="13.0733588"><ele>236.0</ele><time>2026-04-18T09:21:51.128Z</time></trkpt><trkpt lat="37.6710113" lon="13.0732017"><ele>237.0</ele><time>2026-04-18T09:21:52.129Z</time></trkpt><trkpt lat="37.6711771" lon="13.0730291"><ele>238.0</ele><time>2026-04-18T09:21:53.128Z</time></trkpt><trkpt lat="37.6713382" lon="13.07284"><ele>238.33333333333331</ele><time>2026-04-18T09:21:54.129Z</time></trkpt><trkpt lat="37.671497" lon="13.0726475"><ele>238.66666666666669</ele><time>2026-04-18T09:21:55.129Z</time></trkpt><trkpt lat="37.6716568" lon="13.0724526"><ele>239.0</ele><time>2026-04-18T09:21:56.129Z</time></trkpt><trkpt lat="37.6718153" lon="13.0722571"><ele>240.0</ele><time>2026-04-18T09:21:57.129Z</time></trkpt><trkpt lat="37.6719733" lon="13.0720589"><ele>241.0</ele><time>2026-04-18T09:21:58.129Z</time></trkpt><trkpt lat="37.6721326" lon="13.0718602"><ele>242.0</ele><time>2026-04-18T09:21:59.128Z</time></trkpt><trkpt lat="37.6722953" lon="13.0716675"><ele>243.33333333333334</ele><time>2026-04-18T09:22:00.129Z</time></trkpt><trkpt lat="37.6724568" lon="13.0714691"><ele>244.66666666666669</ele><time>2026-04-18T09:22:01.129Z</time></trkpt><trkpt lat="37.6726188" lon="13.0712735"><ele>246.0</ele><time>2026-04-18T09:22:02.129Z</time></trkpt><trkpt lat="37.6727785" lon="13.0710817"><ele>246.0</ele><time>2026-04-18T09:22:03.128Z</time></trkpt><trkpt lat="37.6729373" lon="13.0708905"><ele>246.0</ele><time>2026-04-18T09:22:04.129Z</time></trkpt><trkpt lat="37.6730953" lon="13.0706999"><ele>246.0</ele><time>2026-04-18T09:22:05.129Z</time></trkpt><trkpt lat="37.6732385" lon="13.0704956"><ele>247.33333333333331</ele><time>2026-04-18T09:22:06.128Z</time></trkpt><trkpt lat="37.6733624" lon="13.0702702"><ele>248.66666666666666</ele><time>2026-04-18T09:22:07.128Z</time></trkpt><trkpt lat="37.6734633" lon="13.070028"><ele>250.0</ele><time>2026-04-18T09:22:08.129Z</time></trkpt><trkpt lat="37.6735429" lon="13.0697727"><ele>251.33333333333331</ele><time>2026-04-18T09:22:09.129Z</time></trkpt><trkpt lat="37.6735971" lon="13.0694988"><ele>252.66666666666669</ele><time>2026-04-18T09:22:10.128Z</time></trkpt><trkpt lat="37.6736444" lon="13.0692298"><ele>254.0</ele><time>2026-04-18T09:22:11.129Z</time></trkpt><trkpt lat="37.6736924" lon="13.0689637"><ele>254.66666666666669</ele><time>2026-04-18T09:22:12.129Z</time></trkpt><trkpt lat="37.6737405" lon="13.0686979"><ele>255.33333333333331</ele><time>2026-04-18T09:22:13.129Z</time></trkpt><trkpt lat="37.6737912" lon="13.0684386"><ele>256.0</ele><time>2026-04-18T09:22:14.128Z</time></trkpt><trkpt lat="37.6738444" lon="13.0681771"><ele>254.33333333333331</ele><time>2026-04-18T09:22:15.129Z</time></trkpt><trkpt lat="37.6738991" lon="13.0679117"><ele>252.66666666666669</ele><time>2026-04-18T09:22:16.129Z</time></trkpt><trkpt lat="37.6739536" lon="13.0676415"><ele>251.0</ele><time>2026-04-18T09:22:17.128Z</time></trkpt><trkpt lat="37.6740086" lon="13.0673706"><ele>250.0</ele><time>2026-04-18T09:22:18.129Z</time></trkpt><trkpt lat="37.6740607" lon="13.0670959"><ele>249.0</ele><time>2026-04-18T09:22:19.129Z</time></trkpt><trkpt lat="37.6741106" lon="13.0668213"><ele>248.0</ele><time>2026-04-18T09:22:20.129Z</time></trkpt><trkpt lat="37.6741647" lon="13.0665459"><ele>247.0</ele><time>2026-04-18T09:22:21.128Z</time></trkpt><trkpt lat="37.6742186" lon="13.0662742"><ele>246.0</ele><time>2026-04-18T09:22:22.129Z</time></trkpt><trkpt lat="37.6742741" lon="13.0660033"><ele>245.0</ele><time>2026-04-18T09:22:23.129Z</time></trkpt><trkpt lat="37.674329" lon="13.0657306"><ele>244.0</ele><time>2026-04-18T09:22:24.128Z</time></trkpt><trkpt lat="37.6743797" lon="13.0654545"><ele>243.0</ele><time>2026-04-18T09:22:25.128Z</time></trkpt><trkpt lat="37.6744321" lon="13.0651793"><ele>242.0</ele><time>2026-04-18T09:22:26.128Z</time></trkpt><trkpt lat="37.6744841" lon="13.0649048"><ele>242.66666666666669</ele><time>2026-04-18T09:22:27.128Z</time></trkpt><trkpt lat="37.6745377" lon="13.0646294"><ele>243.33333333333331</ele><time>2026-04-18T09:22:28.129Z</time></trkpt><trkpt lat="37.6745916" lon="13.064354"><ele>244.0</ele><time>2026-04-18T09:22:29.129Z</time></trkpt><trkpt lat="37.6746454" lon="13.0640732"><ele>244.0</ele><time>2026-04-18T09:22:30.129Z</time></trkpt><trkpt lat="37.6746992" lon="13.0637916"><ele>244.0</ele><time>2026-04-18T09:22:31.128Z</time></trkpt><trkpt lat="37.674755" lon="13.0635117"><ele>241.0</ele><time>2026-04-18T09:22:32.128Z</time></trkpt><trkpt lat="37.6748101" lon="13.0632353"><ele>238.0</ele><time>2026-04-18T09:22:33.128Z</time></trkpt><trkpt lat="37.674864" lon="13.0629565"><ele>238.0</ele><time>2026-04-18T09:22:34.129Z</time></trkpt><trkpt lat="37.6749148" lon="13.0626753"><ele>238.0</ele><time>2026-04-18T09:22:35.128Z</time></trkpt><trkpt lat="37.674967" lon="13.0623946"><ele>236.5</ele><time>2026-04-18T09:22:36.129Z</time></trkpt><trkpt lat="37.6750185" lon="13.0621153"><ele>235.0</ele><time>2026-04-18T09:22:37.128Z</time></trkpt><trkpt lat="37.6750723" lon="13.0618298"><ele>234.5</ele><time>2026-04-18T09:22:38.129Z</time></trkpt><trkpt lat="37.6751262" lon="13.0615474"><ele>234.0</ele><time>2026-04-18T09:22:39.129Z</time></trkpt><trkpt lat="37.675182" lon="13.0612695"><ele>234.0</ele><time>2026-04-18T09:22:40.129Z</time></trkpt><trkpt lat="37.6752371" lon="13.0609944"><ele>234.0</ele><time>2026-04-18T09:22:41.129Z</time></trkpt><trkpt lat="37.6752903" lon="13.0607207"><ele>234.0</ele><time>2026-04-18T09:22:42.128Z</time></trkpt><trkpt lat="37.6753409" lon="13.0604452"><ele>235.0</ele><time>2026-04-18T09:22:43.129Z</time></trkpt><trkpt lat="37.6753933" lon="13.0601729"><ele>236.0</ele><time>2026-04-18T09:22:44.128Z</time></trkpt><trkpt lat="37.6754452" lon="13.0599023"><ele>237.0</ele><time>2026-04-18T09:22:45.129Z</time></trkpt><trkpt lat="37.6754992" lon="13.059632"><ele>237.0</ele><time>2026-04-18T09:22:46.129Z</time></trkpt><trkpt lat="37.6755505" lon="13.0593601"><ele>237.0</ele><time>2026-04-18T09:22:47.129Z</time></trkpt><trkpt lat="37.6756032" lon="13.0590906"><ele>237.0</ele><time>2026-04-18T09:22:48.129Z</time></trkpt><trkpt lat="37.675654" lon="13.0588259"><ele>237.0</ele><time>2026-04-18T09:22:49.129Z</time></trkpt><trkpt lat="37.6757032" lon="13.0585586"><ele>237.0</ele><time>2026-04-18T09:22:50.129Z</time></trkpt><trkpt lat="37.6757544" lon="13.0582959"><ele>237.0</ele><time>2026-04-18T09:22:51.128Z</time></trkpt><trkpt lat="37.6758021" lon="13.0580355"><ele>237.0</ele><time>2026-04-18T09:22:52.129Z</time></trkpt><trkpt lat="37.6758505" lon="13.0577789"><ele>237.0</ele><time>2026-04-18T09:22:53.129Z</time></trkpt><trkpt lat="37.6758981" lon="13.0575227"><ele>237.0</ele><time>2026-04-18T09:22:54.129Z</time></trkpt><trkpt lat="37.6759448" lon="13.0572784"><ele>237.66666666666669</ele><time>2026-04-18T09:22:55.129Z</time></trkpt><trkpt lat="37.6759894" lon="13.0570461"><ele>238.33333333333334</ele><time>2026-04-18T09:22:56.128Z</time></trkpt><trkpt lat="37.6760304" lon="13.056827"><ele>239.0</ele><time>2026-04-18T09:22:57.129Z</time></trkpt><trkpt lat="37.6760714" lon="13.056633"><ele>239.0</ele><time>2026-04-18T09:22:58.129Z</time></trkpt><trkpt lat="37.6761098" lon="13.0564995"><ele>238.99999999999997</ele><time>2026-04-18T09:22:59.129Z</time></trkpt><trkpt lat="37.6761292" lon="13.0564179"><ele>238.99999999999997</ele><time>2026-04-18T09:23:00.128Z</time></trkpt><trkpt lat="37.6761148" lon="13.0562742"><ele>239.0</ele><time>2026-04-18T09:23:02.129Z</time></trkpt><trkpt lat="37.6760659" lon="13.0561952"><ele>239.0</ele><time>2026-04-18T09:23:03.129Z</time></trkpt><trkpt lat="37.6760014" lon="13.0561393"><ele>239.00000000000003</ele><time>2026-04-18T09:23:04.128Z</time></trkpt><trkpt lat="37.6759301" lon="13.0560947"><ele>239.0</ele><time>2026-04-18T09:23:05.129Z</time></trkpt><trkpt lat="37.6758499" lon="13.056069"><ele>239.0</ele><time>2026-04-18T09:23:06.129Z</time></trkpt><trkpt lat="37.6757669" lon="13.0560533"><ele>239.0</ele><time>2026-04-18T09:23:07.128Z</time></trkpt><trkpt lat="37.6756817" lon="13.0560277"><ele>239.00000000000003</ele><time>2026-04-18T09:23:08.128Z</time></trkpt><trkpt lat="37.6756042" lon="13.0559762"><ele>239.0</ele><time>2026-04-18T09:23:09.129Z</time></trkpt><trkpt lat="37.6755325" lon="13.055904"><ele>239.0</ele><time>2026-04-18T09:23:10.129Z</time></trkpt><trkpt lat="37.6754636" lon="13.055817"><ele>238.99999999999997</ele><time>2026-04-18T09:23:11.128Z</time></trkpt><trkpt lat="37.675413" lon="13.0557179"><ele>238.99999999999997</ele><time>2026-04-18T09:23:12.129Z</time></trkpt><trkpt lat="37.6753774" lon="13.0556054"><ele>239.0</ele><time>2026-04-18T09:23:13.128Z</time></trkpt><trkpt lat="37.6753642" lon="13.055478"><ele>239.0</ele><time>2026-04-18T09:23:14.129Z</time></trkpt><trkpt lat="37.6753675" lon="13.055349"><ele>239.0</ele><time>2026-04-18T09:23:15.129Z</time></trkpt><trkpt lat="37.6753929" lon="13.0552217"><ele>238.99999999999997</ele><time>2026-04-18T09:23:16.129Z</time></trkpt><trkpt lat="37.6754358" lon="13.0550983"><ele>238.99999999999997</ele><time>2026-04-18T09:23:17.129Z</time></trkpt><trkpt lat="37.6754988" lon="13.0549811"><ele>239.0</ele><time>2026-04-18T09:23:18.128Z</time></trkpt><trkpt lat="37.6755822" lon="13.0548937"><ele>239.0</ele><time>2026-04-18T09:23:19.129Z</time></trkpt><trkpt lat="37.6756944" lon="13.0548386"><ele>239.5</ele><time>2026-04-18T09:23:20.129Z</time></trkpt><trkpt lat="37.6758187" lon="13.054814"><ele>240.0</ele><time>2026-04-18T09:23:21.129Z</time></trkpt><trkpt lat="37.675952" lon="13.0548103"><ele>240.5</ele><time>2026-04-18T09:23:22.128Z</time></trkpt><trkpt lat="37.6760782" lon="13.0548071"><ele>241.0</ele><time>2026-04-18T09:23:23.128Z</time></trkpt><trkpt lat="37.6762196" lon="13.0548037"><ele>241.0</ele><time>2026-04-18T09:23:24.129Z</time></trkpt><trkpt lat="37.676384" lon="13.0547982"><ele>241.0</ele><time>2026-04-18T09:23:25.129Z</time></trkpt><trkpt lat="37.6765725" lon="13.0547989"><ele>241.0</ele><time>2026-04-18T09:23:26.128Z</time></trkpt><trkpt lat="37.6767672" lon="13.0548146"><ele>241.0</ele><time>2026-04-18T09:23:27.128Z</time></trkpt><trkpt lat="37.6769671" lon="13.0548289"><ele>241.0</ele><time>2026-04-18T09:23:28.128Z</time></trkpt><trkpt lat="37.6771708" lon="13.0548382"><ele>241.0</ele><time>2026-04-18T09:23:29.129Z</time></trkpt><trkpt lat="37.6773875" lon="13.0548489"><ele>241.0</ele><time>2026-04-18T09:23:30.129Z</time></trkpt><trkpt lat="37.6776043" lon="13.0548632"><ele>241.0</ele><time>2026-04-18T09:23:31.128Z</time></trkpt><trkpt lat="37.6778201" lon="13.0548781"><ele>241.0</ele><time>2026-04-18T09:23:32.129Z</time></trkpt><trkpt lat="37.6780394" lon="13.0548978"><ele>242.0</ele><time>2026-04-18T09:23:33.128Z</time></trkpt><trkpt lat="37.6782611" lon="13.0549127"><ele>243.0</ele><time>2026-04-18T09:23:34.129Z</time></trkpt><trkpt lat="37.6784825" lon="13.0549376"><ele>244.0</ele><time>2026-04-18T09:23:35.129Z</time></trkpt><trkpt lat="37.6787043" lon="13.0549543"><ele>239.5</ele><time>2026-04-18T09:23:36.129Z</time></trkpt><trkpt lat="37.6789312" lon="13.0549753"><ele>235.0</ele><time>2026-04-18T09:23:37.129Z</time></trkpt><trkpt lat="37.6791561" lon="13.054991"><ele>235.0</ele><time>2026-04-18T09:23:38.129Z</time></trkpt><trkpt lat="37.6793809" lon="13.0550076"><ele>235.0</ele><time>2026-04-18T09:23:39.129Z</time></trkpt><trkpt lat="37.6796079" lon="13.0550237"><ele>235.5</ele><time>2026-04-18T09:23:40.129Z</time></trkpt><trkpt lat="37.6798359" lon="13.0550449"><ele>236.0</ele><time>2026-04-18T09:23:41.129Z</time></trkpt><trkpt lat="37.6800602" lon="13.0550622"><ele>235.0</ele><time>2026-04-18T09:23:42.129Z</time></trkpt><trkpt lat="37.6802876" lon="13.0550873"><ele>234.0</ele><time>2026-04-18T09:23:43.129Z</time></trkpt><trkpt lat="37.6805182" lon="13.0551066"><ele>234.0</ele><time>2026-04-18T09:23:44.129Z</time></trkpt><trkpt lat="37.6807512" lon="13.0551266"><ele>234.0</ele><time>2026-04-18T09:23:45.129Z</time></trkpt><trkpt lat="37.6809869" lon="13.0551428"><ele>233.5</ele><time>2026-04-18T09:23:46.128Z</time></trkpt><trkpt lat="37.6812233" lon="13.0551537"><ele>233.0</ele><time>2026-04-18T09:23:47.129Z</time></trkpt><trkpt lat="37.6814617" lon="13.0551597"><ele>233.0</ele><time>2026-04-18T09:23:48.129Z</time></trkpt><trkpt lat="37.6816989" lon="13.0551506"><ele>233.0</ele><time>2026-04-18T09:23:49.129Z</time></trkpt><trkpt lat="37.6819365" lon="13.0551261"><ele>230.5</ele><time>2026-04-18T09:23:50.129Z</time></trkpt><trkpt lat="37.6821678" lon="13.0550917"><ele>228.0</ele><time>2026-04-18T09:23:51.129Z</time></trkpt><trkpt lat="37.6824044" lon="13.0550346"><ele>228.0</ele><time>2026-04-18T09:23:52.129Z</time></trkpt><trkpt lat="37.6826357" lon="13.054962"><ele>228.0</ele><time>2026-04-18T09:23:53.129Z</time></trkpt><trkpt lat="37.6828582" lon="13.054875"><ele>226.5</ele><time>2026-04-18T09:23:54.129Z</time></trkpt><trkpt lat="37.6830768" lon="13.0547719"><ele>225.0</ele><time>2026-04-18T09:23:55.128Z</time></trkpt><trkpt lat="37.6832926" lon="13.0546582"><ele>225.0</ele><time>2026-04-18T09:23:56.129Z</time></trkpt><trkpt lat="37.6835082" lon="13.0545386"><ele>225.0</ele><time>2026-04-18T09:23:57.129Z</time></trkpt><trkpt lat="37.6837198" lon="13.0544076"><ele>225.5</ele><time>2026-04-18T09:23:58.128Z</time></trkpt><trkpt lat="37.6839291" lon="13.0542722"><ele>226.0</ele><time>2026-04-18T09:23:59.128Z</time></trkpt><trkpt lat="37.684139" lon="13.0541384"><ele>228.0</ele><time>2026-04-18T09:24:00.129Z</time></trkpt><trkpt lat="37.6843501" lon="13.0540083"><ele>230.0</ele><time>2026-04-18T09:24:01.129Z</time></trkpt><trkpt lat="37.6845589" lon="13.0538762"><ele>230.0</ele><time>2026-04-18T09:24:02.129Z</time></trkpt><trkpt lat="37.6847711" lon="13.0537386"><ele>230.0</ele><time>2026-04-18T09:24:03.129Z</time></trkpt><trkpt lat="37.6849818" lon="13.0536004"><ele>230.0</ele><time>2026-04-18T09:24:04.128Z</time></trkpt><trkpt lat="37.6851924" lon="13.0534633"><ele>230.0</ele><time>2026-04-18T09:24:05.129Z</time></trkpt><trkpt lat="37.685403" lon="13.0533302"><ele>225.5</ele><time>2026-04-18T09:24:06.128Z</time></trkpt><trkpt lat="37.685613" lon="13.0531952"><ele>221.0</ele><time>2026-04-18T09:24:07.129Z</time></trkpt><trkpt lat="37.6858205" lon="13.0530585"><ele>221.0</ele><time>2026-04-18T09:24:08.129Z</time></trkpt><trkpt lat="37.6860305" lon="13.0529193"><ele>221.0</ele><time>2026-04-18T09:24:09.129Z</time></trkpt><trkpt lat="37.6862383" lon="13.0527833"><ele>219.5</ele><time>2026-04-18T09:24:10.129Z</time></trkpt><trkpt lat="37.686448" lon="13.0526486"><ele>218.0</ele><time>2026-04-18T09:24:11.127Z</time></trkpt><trkpt lat="37.6866549" lon="13.0525098"><ele>219.0</ele><time>2026-04-18T09:24:12.128Z</time></trkpt><trkpt lat="37.6868659" lon="13.0523746"><ele>220.0</ele><time>2026-04-18T09:24:13.127Z</time></trkpt><trkpt lat="37.6870771" lon="13.0522372"><ele>220.0</ele><time>2026-04-18T09:24:14.128Z</time></trkpt><trkpt lat="37.6872907" lon="13.0521053"><ele>220.0</ele><time>2026-04-18T09:24:15.128Z</time></trkpt><trkpt lat="37.6875027" lon="13.0519733"><ele>220.0</ele><time>2026-04-18T09:24:16.128Z</time></trkpt><trkpt lat="37.6877142" lon="13.0518408"><ele>220.0</ele><time>2026-04-18T09:24:17.128Z</time></trkpt><trkpt lat="37.6879238" lon="13.0517107"><ele>221.5</ele><time>2026-04-18T09:24:18.128Z</time></trkpt><trkpt lat="37.6881339" lon="13.0515762"><ele>223.0</ele><time>2026-04-18T09:24:19.128Z</time></trkpt><trkpt lat="37.6883428" lon="13.0514396"><ele>223.0</ele><time>2026-04-18T09:24:20.128Z</time></trkpt><trkpt lat="37.6885467" lon="13.0513137"><ele>223.0</ele><time>2026-04-18T09:24:21.128Z</time></trkpt><trkpt lat="37.688747" lon="13.0511917"><ele>223.0</ele><time>2026-04-18T09:24:22.128Z</time></trkpt><trkpt lat="37.6889551" lon="13.0510749"><ele>222.0</ele><time>2026-04-18T09:24:23.127Z</time></trkpt><trkpt lat="37.6891733" lon="13.0509737"><ele>221.0</ele><time>2026-04-18T09:24:24.128Z</time></trkpt><trkpt lat="37.6893947" lon="13.0508927"><ele>220.5</ele><time>2026-04-18T09:24:25.128Z</time></trkpt><trkpt lat="37.6896188" lon="13.0508246"><ele>220.0</ele><time>2026-04-18T09:24:26.128Z</time></trkpt><trkpt lat="37.689842" lon="13.0507666"><ele>220.0</ele><time>2026-04-18T09:24:27.128Z</time></trkpt><trkpt lat="37.6900676" lon="13.050716"><ele>220.0</ele><time>2026-04-18T09:24:28.127Z</time></trkpt><trkpt lat="37.6902941" lon="13.0506758"><ele>219.5</ele><time>2026-04-18T09:24:29.128Z</time></trkpt><trkpt lat="37.6905222" lon="13.0506353"><ele>219.0</ele><time>2026-04-18T09:24:30.128Z</time></trkpt><trkpt lat="37.690755" lon="13.050595"><ele>219.0</ele><time>2026-04-18T09:24:31.128Z</time></trkpt><trkpt lat="37.6909897" lon="13.0505528"><ele>219.0</ele><time>2026-04-18T09:24:32.128Z</time></trkpt><trkpt lat="37.6912262" lon="13.0505085"><ele>217.0</ele><time>2026-04-18T09:24:33.128Z</time></trkpt><trkpt lat="37.6914605" lon="13.050463"><ele>215.0</ele><time>2026-04-18T09:24:34.128Z</time></trkpt><trkpt lat="37.6916991" lon="13.0504188"><ele>213.5</ele><time>2026-04-18T09:24:35.128Z</time></trkpt><trkpt lat="37.6919366" lon="13.0503849"><ele>212.0</ele><time>2026-04-18T09:24:36.128Z</time></trkpt><trkpt lat="37.6921771" lon="13.0503761"><ele>212.0</ele><time>2026-04-18T09:24:37.128Z</time></trkpt><trkpt lat="37.6924108" lon="13.0504015"><ele>212.0</ele><time>2026-04-18T09:24:38.128Z</time></trkpt><trkpt lat="37.6926415" lon="13.050448"><ele>213.0</ele><time>2026-04-18T09:24:39.128Z</time></trkpt><trkpt lat="37.6928684" lon="13.0505238"><ele>214.0</ele><time>2026-04-18T09:24:40.127Z</time></trkpt><trkpt lat="37.6930881" lon="13.0506169"><ele>214.0</ele><time>2026-04-18T09:24:41.128Z</time></trkpt><trkpt lat="37.6932984" lon="13.0507325"><ele>214.0</ele><time>2026-04-18T09:24:42.127Z</time></trkpt><trkpt lat="37.6935069" lon="13.0508761"><ele>213.5</ele><time>2026-04-18T09:24:43.128Z</time></trkpt><trkpt lat="37.6937012" lon="13.0510374"><ele>213.0</ele><time>2026-04-18T09:24:44.128Z</time></trkpt><trkpt lat="37.6938907" lon="13.0512158"><ele>213.0</ele><time>2026-04-18T09:24:45.128Z</time></trkpt><trkpt lat="37.6940769" lon="13.0513971"><ele>213.0</ele><time>2026-04-18T09:24:46.128Z</time></trkpt><trkpt lat="37.6942607" lon="13.051583"><ele>210.5</ele><time>2026-04-18T09:24:47.127Z</time></trkpt><trkpt lat="37.6944449" lon="13.0517637"><ele>208.0</ele><time>2026-04-18T09:24:48.128Z</time></trkpt><trkpt lat="37.6946338" lon="13.0519436"><ele>208.0</ele><time>2026-04-18T09:24:49.128Z</time></trkpt><trkpt lat="37.6948228" lon="13.0521242"><ele>208.0</ele><time>2026-04-18T09:24:50.128Z</time></trkpt><trkpt lat="37.695012" lon="13.0523075"><ele>207.0</ele><time>2026-04-18T09:24:51.127Z</time></trkpt><trkpt lat="37.6951997" lon="13.0524962"><ele>206.0</ele><time>2026-04-18T09:24:52.128Z</time></trkpt><trkpt lat="37.6953842" lon="13.0526809"><ele>205.5</ele><time>2026-04-18T09:24:53.127Z</time></trkpt><trkpt lat="37.6955709" lon="13.0528641"><ele>205.0</ele><time>2026-04-18T09:24:54.128Z</time></trkpt><trkpt lat="37.6957597" lon="13.0530438"><ele>205.0</ele><time>2026-04-18T09:24:55.128Z</time></trkpt><trkpt lat="37.6959481" lon="13.0532233"><ele>205.0</ele><time>2026-04-18T09:24:56.128Z</time></trkpt><trkpt lat="37.696136" lon="13.0534066"><ele>203.0</ele><time>2026-04-18T09:24:57.127Z</time></trkpt><trkpt lat="37.696324" lon="13.0535891"><ele>201.0</ele><time>2026-04-18T09:24:58.128Z</time></trkpt><trkpt lat="37.6965129" lon="13.0537683"><ele>201.0</ele><time>2026-04-18T09:24:59.128Z</time></trkpt><trkpt lat="37.6967024" lon="13.0539526"><ele>201.0</ele><time>2026-04-18T09:25:00.128Z</time></trkpt><trkpt lat="37.6968904" lon="13.0541326"><ele>202.0</ele><time>2026-04-18T09:25:01.127Z</time></trkpt><trkpt lat="37.6970821" lon="13.0543088"><ele>203.0</ele><time>2026-04-18T09:25:02.128Z</time></trkpt><trkpt lat="37.69728" lon="13.054469"><ele>203.0</ele><time>2026-04-18T09:25:03.128Z</time></trkpt><trkpt lat="37.6974893" lon="13.0546052"><ele>203.0</ele><time>2026-04-18T09:25:04.128Z</time></trkpt><trkpt lat="37.6977083" lon="13.0547159"><ele>203.0</ele><time>2026-04-18T09:25:05.127Z</time></trkpt><trkpt lat="37.6979351" lon="13.0548027"><ele>203.0</ele><time>2026-04-18T09:25:06.127Z</time></trkpt><trkpt lat="37.698164" lon="13.0548679"><ele>203.0</ele><time>2026-04-18T09:25:07.128Z</time></trkpt><trkpt lat="37.6983937" lon="13.0549049"><ele>203.0</ele><time>2026-04-18T09:25:08.128Z</time></trkpt><trkpt lat="37.6986274" lon="13.0549232"><ele>203.0</ele><time>2026-04-18T09:25:09.128Z</time></trkpt><trkpt lat="37.6988596" lon="13.0549224"><ele>203.0</ele><time>2026-04-18T09:25:10.128Z</time></trkpt><trkpt lat="37.6990935" lon="13.0548968"><ele>203.0</ele><time>2026-04-18T09:25:11.128Z</time></trkpt><trkpt lat="37.6993206" lon="13.0548332"><ele>203.0</ele><time>2026-04-18T09:25:12.127Z</time></trkpt><trkpt lat="37.6995473" lon="13.0547462"><ele>201.0</ele><time>2026-04-18T09:25:13.128Z</time></trkpt><trkpt lat="37.6997639" lon="13.0546361"><ele>199.0</ele><time>2026-04-18T09:25:14.127Z</time></trkpt><trkpt lat="37.6999733" lon="13.0545044"><ele>199.0</ele><time>2026-04-18T09:25:15.128Z</time></trkpt><trkpt lat="37.7001733" lon="13.0543461"><ele>199.0</ele><time>2026-04-18T09:25:16.128Z</time></trkpt><trkpt lat="37.700361" lon="13.0541647"><ele>195.0</ele><time>2026-04-18T09:25:17.128Z</time></trkpt><trkpt lat="37.700535" lon="13.0539637"><ele>191.0</ele><time>2026-04-18T09:25:18.128Z</time></trkpt><trkpt lat="37.7006985" lon="13.053747"><ele>191.0</ele><time>2026-04-18T09:25:19.127Z</time></trkpt><trkpt lat="37.7008531" lon="13.053522"><ele>191.0</ele><time>2026-04-18T09:25:20.128Z</time></trkpt><trkpt lat="37.701008" lon="13.0532977"><ele>190.0</ele><time>2026-04-18T09:25:21.128Z</time></trkpt><trkpt lat="37.701163" lon="13.0530732"><ele>189.0</ele><time>2026-04-18T09:25:22.128Z</time></trkpt><trkpt lat="37.7013151" lon="13.0528413"><ele>189.0</ele><time>2026-04-18T09:25:23.128Z</time></trkpt><trkpt lat="37.7014648" lon="13.0526112"><ele>189.0</ele><time>2026-04-18T09:25:24.128Z</time></trkpt><trkpt lat="37.7016173" lon="13.0523805"><ele>191.0</ele><time>2026-04-18T09:25:25.128Z</time></trkpt><trkpt lat="37.7017684" lon="13.0521548"><ele>193.0</ele><time>2026-04-18T09:25:26.128Z</time></trkpt><trkpt lat="37.701921" lon="13.05193"><ele>191.5</ele><time>2026-04-18T09:25:27.127Z</time></trkpt><trkpt lat="37.7020823" lon="13.0517115"><ele>190.0</ele><time>2026-04-18T09:25:28.128Z</time></trkpt><trkpt lat="37.7022555" lon="13.051511"><ele>190.0</ele><time>2026-04-18T09:25:29.127Z</time></trkpt><trkpt lat="37.7024368" lon="13.0513176"><ele>190.0</ele><time>2026-04-18T09:25:30.128Z</time></trkpt><trkpt lat="37.7026256" lon="13.0511434"><ele>186.0</ele><time>2026-04-18T09:25:31.128Z</time></trkpt><trkpt lat="37.7028286" lon="13.0509805"><ele>182.0</ele><time>2026-04-18T09:25:32.128Z</time></trkpt><trkpt lat="37.703036" lon="13.0508386"><ele>184.0</ele><time>2026-04-18T09:25:33.127Z</time></trkpt><trkpt lat="37.7032447" lon="13.0507194"><ele>186.0</ele><time>2026-04-18T09:25:34.128Z</time></trkpt><trkpt lat="37.7034689" lon="13.050612"><ele>185.5</ele><time>2026-04-18T09:25:35.127Z</time></trkpt><trkpt lat="37.7036978" lon="13.050531"><ele>185.0</ele><time>2026-04-18T09:25:36.128Z</time></trkpt><trkpt lat="37.7039279" lon="13.050466"><ele>185.0</ele><time>2026-04-18T09:25:37.128Z</time></trkpt><trkpt lat="37.704165" lon="13.0504216"><ele>185.0</ele><time>2026-04-18T09:25:38.128Z</time></trkpt><trkpt lat="37.7044007" lon="13.0503999"><ele>185.5</ele><time>2026-04-18T09:25:39.128Z</time></trkpt><trkpt lat="37.7046418" lon="13.0503976"><ele>186.0</ele><time>2026-04-18T09:25:40.128Z</time></trkpt><trkpt lat="37.7048783" lon="13.0504138"><ele>186.0</ele><time>2026-04-18T09:25:41.127Z</time></trkpt><trkpt lat="37.7051095" lon="13.0504516"><ele>186.0</ele><time>2026-04-18T09:25:42.127Z</time></trkpt><trkpt lat="37.7053382" lon="13.0504989"><ele>184.0</ele><time>2026-04-18T09:25:43.128Z</time></trkpt><trkpt lat="37.7055632" lon="13.0505679"><ele>182.0</ele><time>2026-04-18T09:25:44.128Z</time></trkpt><trkpt lat="37.7057938" lon="13.0506394"><ele>182.0</ele><time>2026-04-18T09:25:45.128Z</time></trkpt><trkpt lat="37.7060229" lon="13.0507096"><ele>182.0</ele><time>2026-04-18T09:25:46.128Z</time></trkpt><trkpt lat="37.7062525" lon="13.0507791"><ele>178.5</ele><time>2026-04-18T09:25:47.127Z</time></trkpt><trkpt lat="37.7064806" lon="13.0508431"><ele>175.0</ele><time>2026-04-18T09:25:48.128Z</time></trkpt><trkpt lat="37.706712" lon="13.0509048"><ele>175.0</ele><time>2026-04-18T09:25:49.128Z</time></trkpt><trkpt lat="37.7069403" lon="13.050965"><ele>175.0</ele><time>2026-04-18T09:25:50.128Z</time></trkpt><trkpt lat="37.7071732" lon="13.0510225"><ele>175.0</ele><time>2026-04-18T09:25:51.128Z</time></trkpt><trkpt lat="37.7074077" lon="13.0510739"><ele>175.0</ele><time>2026-04-18T09:25:52.127Z</time></trkpt><trkpt lat="37.7076428" lon="13.05111"><ele>175.5</ele><time>2026-04-18T09:25:53.128Z</time></trkpt><trkpt lat="37.7078771" lon="13.051121"><ele>176.0</ele><time>2026-04-18T09:25:54.127Z</time></trkpt><trkpt lat="37.7081141" lon="13.0511127"><ele>176.0</ele><time>2026-04-18T09:25:55.128Z</time></trkpt><trkpt lat="37.7083449" lon="13.0510872"><ele>176.0</ele><time>2026-04-18T09:25:56.127Z</time></trkpt><trkpt lat="37.7085764" lon="13.0510443"><ele>174.5</ele><time>2026-04-18T09:25:57.128Z</time></trkpt><trkpt lat="37.7088087" lon="13.0509789"><ele>173.0</ele><time>2026-04-18T09:25:58.128Z</time></trkpt><trkpt lat="37.7090351" lon="13.0508916"><ele>173.5</ele><time>2026-04-18T09:25:59.128Z</time></trkpt><trkpt lat="37.7092609" lon="13.0507898"><ele>174.0</ele><time>2026-04-18T09:26:00.128Z</time></trkpt><trkpt lat="37.7094805" lon="13.0506703"><ele>173.0</ele><time>2026-04-18T09:26:01.127Z</time></trkpt><trkpt lat="37.7096914" lon="13.0505351"><ele>172.0</ele><time>2026-04-18T09:26:02.128Z</time></trkpt><trkpt lat="37.7098983" lon="13.0503936"><ele>172.0</ele><time>2026-04-18T09:26:03.128Z</time></trkpt><trkpt lat="37.7100903" lon="13.0502347"><ele>172.0</ele><time>2026-04-18T09:26:04.128Z</time></trkpt><trkpt lat="37.7102752" lon="13.050058"><ele>172.0</ele><time>2026-04-18T09:26:05.128Z</time></trkpt><trkpt lat="37.7104617" lon="13.0498647"><ele>172.0</ele><time>2026-04-18T09:26:06.127Z</time></trkpt><trkpt lat="37.7106436" lon="13.0496757"><ele>172.0</ele><time>2026-04-18T09:26:07.128Z</time></trkpt><trkpt lat="37.7108291" lon="13.0494962"><ele>172.0</ele><time>2026-04-18T09:26:08.127Z</time></trkpt><trkpt lat="37.7110134" lon="13.0493147"><ele>172.5</ele><time>2026-04-18T09:26:09.128Z</time></trkpt><trkpt lat="37.7111997" lon="13.049137"><ele>173.0</ele><time>2026-04-18T09:26:10.127Z</time></trkpt><trkpt lat="37.7113866" lon="13.0489536"><ele>173.0</ele><time>2026-04-18T09:26:11.128Z</time></trkpt><trkpt lat="37.7115733" lon="13.0487664"><ele>173.0</ele><time>2026-04-18T09:26:12.128Z</time></trkpt><trkpt lat="37.7117598" lon="13.0485826"><ele>173.0</ele><time>2026-04-18T09:26:13.128Z</time></trkpt><trkpt lat="37.7119485" lon="13.048396"><ele>173.0</ele><time>2026-04-18T09:26:14.127Z</time></trkpt><trkpt lat="37.7121374" lon="13.0482078"><ele>173.0</ele><time>2026-04-18T09:26:15.127Z</time></trkpt><trkpt lat="37.7123242" lon="13.0480211"><ele>173.0</ele><time>2026-04-18T09:26:16.128Z</time></trkpt><trkpt lat="37.7125093" lon="13.0478419"><ele>173.0</ele><time>2026-04-18T09:26:17.128Z</time></trkpt><trkpt lat="37.7126984" lon="13.0476592"><ele>173.0</ele><time>2026-04-18T09:26:18.128Z</time></trkpt><trkpt lat="37.7128877" lon="13.0474781"><ele>170.0</ele><time>2026-04-18T09:26:19.128Z</time></trkpt><trkpt lat="37.7130794" lon="13.0473014"><ele>167.0</ele><time>2026-04-18T09:26:20.127Z</time></trkpt><trkpt lat="37.7132793" lon="13.0471424"><ele>167.0</ele><time>2026-04-18T09:26:21.128Z</time></trkpt><trkpt lat="37.7134822" lon="13.0469896"><ele>167.0</ele><time>2026-04-18T09:26:22.127Z</time></trkpt><trkpt lat="37.713693" lon="13.0468634"><ele>168.0</ele><time>2026-04-18T09:26:23.127Z</time></trkpt><trkpt lat="37.7139096" lon="13.0467503"><ele>169.0</ele><time>2026-04-18T09:26:24.128Z</time></trkpt><trkpt lat="37.7141323" lon="13.0466565"><ele>166.5</ele><time>2026-04-18T09:26:25.127Z</time></trkpt><trkpt lat="37.7143614" lon="13.0465801"><ele>164.0</ele><time>2026-04-18T09:26:26.128Z</time></trkpt><trkpt lat="37.7145951" lon="13.0465286"><ele>164.0</ele><time>2026-04-18T09:26:27.127Z</time></trkpt><trkpt lat="37.714829" lon="13.0464975"><ele>164.0</ele><time>2026-04-18T09:26:28.128Z</time></trkpt><trkpt lat="37.715065" lon="13.0464826"><ele>163.5</ele><time>2026-04-18T09:26:29.128Z</time></trkpt><trkpt lat="37.7152989" lon="13.0464896"><ele>163.0</ele><time>2026-04-18T09:26:30.128Z</time></trkpt><trkpt lat="37.7155336" lon="13.0465211"><ele>163.0</ele><time>2026-04-18T09:26:31.128Z</time></trkpt><trkpt lat="37.7157696" lon="13.0465664"><ele>163.0</ele><time>2026-04-18T09:26:32.128Z</time></trkpt><trkpt lat="37.7159998" lon="13.0466113"><ele>163.5</ele><time>2026-04-18T09:26:33.128Z</time></trkpt><trkpt lat="37.7162331" lon="13.0466555"><ele>164.0</ele><time>2026-04-18T09:26:34.128Z</time></trkpt><trkpt lat="37.7164682" lon="13.0466931"><ele>164.0</ele><time>2026-04-18T09:26:35.128Z</time></trkpt><trkpt lat="37.7167035" lon="13.0467327"><ele>164.0</ele><time>2026-04-18T09:26:36.127Z</time></trkpt><trkpt lat="37.716937" lon="13.0467639"><ele>163.0</ele><time>2026-04-18T09:26:37.128Z</time></trkpt><trkpt lat="37.7171736" lon="13.0467854"><ele>162.0</ele><time>2026-04-18T09:26:38.127Z</time></trkpt><trkpt lat="37.7174121" lon="13.0467852"><ele>162.0</ele><time>2026-04-18T09:26:39.128Z</time></trkpt><trkpt lat="37.7176496" lon="13.046759"><ele>162.0</ele><time>2026-04-18T09:26:40.128Z</time></trkpt><trkpt lat="37.7178871" lon="13.0467216"><ele>161.0</ele><time>2026-04-18T09:26:41.128Z</time></trkpt><trkpt lat="37.718118" lon="13.0466695"><ele>160.0</ele><time>2026-04-18T09:26:42.128Z</time></trkpt><trkpt lat="37.7183469" lon="13.0465915"><ele>160.0</ele><time>2026-04-18T09:26:43.128Z</time></trkpt><trkpt lat="37.7185765" lon="13.0465003"><ele>160.0</ele><time>2026-04-18T09:26:44.127Z</time></trkpt><trkpt lat="37.7187932" lon="13.0463843"><ele>160.0</ele><time>2026-04-18T09:26:45.128Z</time></trkpt><trkpt lat="37.7190034" lon="13.046255"><ele>160.0</ele><time>2026-04-18T09:26:46.128Z</time></trkpt><trkpt lat="37.7192048" lon="13.0461087"><ele>160.0</ele><time>2026-04-18T09:26:47.128Z</time></trkpt><trkpt lat="37.7194005" lon="13.045941"><ele>160.0</ele><time>2026-04-18T09:26:48.128Z</time></trkpt><trkpt lat="37.7195859" lon="13.0457581"><ele>158.5</ele><time>2026-04-18T09:26:49.128Z</time></trkpt><trkpt lat="37.7197662" lon="13.0455619"><ele>157.0</ele><time>2026-04-18T09:26:50.128Z</time></trkpt><trkpt lat="37.7199344" lon="13.0453518"><ele>157.0</ele><time>2026-04-18T09:26:51.127Z</time></trkpt><trkpt lat="37.7200917" lon="13.0451318"><ele>157.0</ele><time>2026-04-18T09:26:52.128Z</time></trkpt><trkpt lat="37.720245" lon="13.0449082"><ele>156.0</ele><time>2026-04-18T09:26:53.128Z</time></trkpt><trkpt lat="37.7203942" lon="13.044679"><ele>155.0</ele><time>2026-04-18T09:26:54.128Z</time></trkpt><trkpt lat="37.720545" lon="13.0444514"><ele>155.0</ele><time>2026-04-18T09:26:55.128Z</time></trkpt><trkpt lat="37.7206964" lon="13.0442206"><ele>155.0</ele><time>2026-04-18T09:26:56.128Z</time></trkpt><trkpt lat="37.7208446" lon="13.0439929"><ele>154.5</ele><time>2026-04-18T09:26:57.128Z</time></trkpt><trkpt lat="37.7209962" lon="13.0437632"><ele>154.0</ele><time>2026-04-18T09:26:58.127Z</time></trkpt><trkpt lat="37.7211451" lon="13.043533"><ele>154.0</ele><time>2026-04-18T09:26:59.128Z</time></trkpt><trkpt lat="37.7212999" lon="13.0433041"><ele>154.0</ele><time>2026-04-18T09:27:00.128Z</time></trkpt><trkpt lat="37.721454" lon="13.0430786"><ele>154.5</ele><time>2026-04-18T09:27:01.128Z</time></trkpt><trkpt lat="37.7216062" lon="13.042851"><ele>155.0</ele><time>2026-04-18T09:27:02.128Z</time></trkpt><trkpt lat="37.7217623" lon="13.0426232"><ele>154.0</ele><time>2026-04-18T09:27:03.127Z</time></trkpt><trkpt lat="37.7219136" lon="13.0423914"><ele>153.0</ele><time>2026-04-18T09:27:04.127Z</time></trkpt><trkpt lat="37.7220635" lon="13.0421615"><ele>153.0</ele><time>2026-04-18T09:27:05.128Z</time></trkpt><trkpt lat="37.7222149" lon="13.0419286"><ele>153.0</ele><time>2026-04-18T09:27:06.128Z</time></trkpt><trkpt lat="37.7223654" lon="13.0416968"><ele>151.5</ele><time>2026-04-18T09:27:07.127Z</time></trkpt><trkpt lat="37.7225171" lon="13.0414694"><ele>150.0</ele><time>2026-04-18T09:27:08.127Z</time></trkpt><trkpt lat="37.7226694" lon="13.0412431"><ele>150.0</ele><time>2026-04-18T09:27:09.128Z</time></trkpt><trkpt lat="37.722824" lon="13.0410145"><ele>150.0</ele><time>2026-04-18T09:27:10.127Z</time></trkpt><trkpt lat="37.7229762" lon="13.0407872"><ele>150.0</ele><time>2026-04-18T09:27:11.127Z</time></trkpt><trkpt lat="37.7231262" lon="13.0405571"><ele>150.0</ele><time>2026-04-18T09:27:12.127Z</time></trkpt><trkpt lat="37.7232787" lon="13.0403333"><ele>150.0</ele><time>2026-04-18T09:27:13.128Z</time></trkpt><trkpt lat="37.7234337" lon="13.0401088"><ele>150.0</ele><time>2026-04-18T09:27:14.128Z</time></trkpt><trkpt lat="37.7235859" lon="13.0398822"><ele>150.0</ele><time>2026-04-18T09:27:15.127Z</time></trkpt><trkpt lat="37.7237379" lon="13.0396556"><ele>150.0</ele><time>2026-04-18T09:27:16.128Z</time></trkpt><trkpt lat="37.7238877" lon="13.0394311"><ele>150.0</ele><time>2026-04-18T09:27:17.136Z</time></trkpt><trkpt lat="37.7240388" lon="13.0392013"><ele>150.0</ele><time>2026-04-18T09:27:18.136Z</time></trkpt><trkpt lat="37.7241955" lon="13.038975"><ele>149.0</ele><time>2026-04-18T09:27:19.136Z</time></trkpt><trkpt lat="37.7243596" lon="13.0387618"><ele>148.0</ele><time>2026-04-18T09:27:20.136Z</time></trkpt><trkpt lat="37.7245374" lon="13.038559"><ele>147.5</ele><time>2026-04-18T09:27:21.136Z</time></trkpt><trkpt lat="37.724724" lon="13.0383778"><ele>147.0</ele><time>2026-04-18T09:27:22.135Z</time></trkpt><trkpt lat="37.7249211" lon="13.038213"><ele>146.5</ele><time>2026-04-18T09:27:23.135Z</time></trkpt><trkpt lat="37.7251275" lon="13.0380683"><ele>146.0</ele><time>2026-04-18T09:27:24.136Z</time></trkpt><trkpt lat="37.7253436" lon="13.0379387"><ele>145.5</ele><time>2026-04-18T09:27:25.135Z</time></trkpt><trkpt lat="37.7255635" lon="13.0378341"><ele>145.0</ele><time>2026-04-18T09:27:26.136Z</time></trkpt><trkpt lat="37.7257863" lon="13.0377452"><ele>145.0</ele><time>2026-04-18T09:27:27.135Z</time></trkpt><trkpt lat="37.7260107" lon="13.0376752"><ele>145.0</ele><time>2026-04-18T09:27:28.135Z</time></trkpt><trkpt lat="37.7262438" lon="13.0376201"><ele>144.0</ele><time>2026-04-18T09:27:29.136Z</time></trkpt><trkpt lat="37.7264791" lon="13.0375899"><ele>143.0</ele><time>2026-04-18T09:27:30.135Z</time></trkpt><trkpt lat="37.7267141" lon="13.0375758"><ele>143.0</ele><time>2026-04-18T09:27:31.135Z</time></trkpt><trkpt lat="37.7269548" lon="13.0375722"><ele>143.0</ele><time>2026-04-18T09:27:32.136Z</time></trkpt><trkpt lat="37.727189" lon="13.0375754"><ele>143.0</ele><time>2026-04-18T09:27:33.136Z</time></trkpt><trkpt lat="37.7274289" lon="13.0375816"><ele>143.0</ele><time>2026-04-18T09:27:34.136Z</time></trkpt><trkpt lat="37.7276682" lon="13.0375798"><ele>142.5</ele><time>2026-04-18T09:27:35.136Z</time></trkpt><trkpt lat="37.7279036" lon="13.0375812"><ele>142.0</ele><time>2026-04-18T09:27:36.136Z</time></trkpt><trkpt lat="37.7281398" lon="13.0375811"><ele>142.0</ele><time>2026-04-18T09:27:37.136Z</time></trkpt><trkpt lat="37.7283771" lon="13.0375878"><ele>142.0</ele><time>2026-04-18T09:27:38.136Z</time></trkpt><trkpt lat="37.7286141" lon="13.0375873"><ele>141.0</ele><time>2026-04-18T09:27:39.136Z</time></trkpt><trkpt lat="37.728852" lon="13.0375854"><ele>140.0</ele><time>2026-04-18T09:27:40.136Z</time></trkpt><trkpt lat="37.7290896" lon="13.0375833"><ele>140.0</ele><time>2026-04-18T09:27:41.135Z</time></trkpt><trkpt lat="37.7293255" lon="13.0375797"><ele>140.0</ele><time>2026-04-18T09:27:42.136Z</time></trkpt><trkpt lat="37.7295612" lon="13.0375797"><ele>140.0</ele><time>2026-04-18T09:27:43.136Z</time></trkpt><trkpt lat="37.7297999" lon="13.0375785"><ele>140.0</ele><time>2026-04-18T09:27:44.136Z</time></trkpt><trkpt lat="37.7300358" lon="13.0375807"><ele>140.0</ele><time>2026-04-18T09:27:45.136Z</time></trkpt><trkpt lat="37.7302727" lon="13.0375823"><ele>140.0</ele><time>2026-04-18T09:27:46.135Z</time></trkpt><trkpt lat="37.7305111" lon="13.0375833"><ele>140.0</ele><time>2026-04-18T09:27:47.136Z</time></trkpt><trkpt lat="37.730746" lon="13.0375771"><ele>140.0</ele><time>2026-04-18T09:27:48.136Z</time></trkpt><trkpt lat="37.7309829" lon="13.0375543"><ele>139.0</ele><time>2026-04-18T09:27:49.136Z</time></trkpt><trkpt lat="37.731218" lon="13.0375161"><ele>138.0</ele><time>2026-04-18T09:27:50.136Z</time></trkpt><trkpt lat="37.7314505" lon="13.0374564"><ele>138.0</ele><time>2026-04-18T09:27:51.136Z</time></trkpt><trkpt lat="37.731678" lon="13.0373813"><ele>138.0</ele><time>2026-04-18T09:27:52.135Z</time></trkpt><trkpt lat="37.7319046" lon="13.0372898"><ele>138.0</ele><time>2026-04-18T09:27:53.136Z</time></trkpt><trkpt lat="37.7321235" lon="13.0371777"><ele>138.0</ele><time>2026-04-18T09:27:54.136Z</time></trkpt><trkpt lat="37.7323387" lon="13.0370508"><ele>138.0</ele><time>2026-04-18T09:27:55.136Z</time></trkpt><trkpt lat="37.7325481" lon="13.036913"><ele>138.0</ele><time>2026-04-18T09:27:56.136Z</time></trkpt><trkpt lat="37.7327551" lon="13.0367748"><ele>137.0</ele><time>2026-04-18T09:27:57.136Z</time></trkpt><trkpt lat="37.732962" lon="13.0366286"><ele>136.0</ele><time>2026-04-18T09:27:58.135Z</time></trkpt><trkpt lat="37.7331661" lon="13.0364786"><ele>136.0</ele><time>2026-04-18T09:27:59.136Z</time></trkpt><trkpt lat="37.7333689" lon="13.0363271"><ele>136.0</ele><time>2026-04-18T09:28:00.136Z</time></trkpt><trkpt lat="37.7335704" lon="13.0361839"><ele>139.0</ele><time>2026-04-18T09:28:01.136Z</time></trkpt><trkpt lat="37.7337748" lon="13.036035"><ele>142.0</ele><time>2026-04-18T09:28:02.135Z</time></trkpt><trkpt lat="37.7339778" lon="13.035884"><ele>139.5</ele><time>2026-04-18T09:28:03.136Z</time></trkpt><trkpt lat="37.7341822" lon="13.0357355"><ele>137.0</ele><time>2026-04-18T09:28:04.136Z</time></trkpt><trkpt lat="37.7343867" lon="13.0355871"><ele>139.5</ele><time>2026-04-18T09:28:05.136Z</time></trkpt><trkpt lat="37.7345906" lon="13.0354383"><ele>142.0</ele><time>2026-04-18T09:28:06.135Z</time></trkpt><trkpt lat="37.7347935" lon="13.0352888"><ele>142.0</ele><time>2026-04-18T09:28:07.135Z</time></trkpt><trkpt lat="37.7349971" lon="13.0351387"><ele>142.0</ele><time>2026-04-18T09:28:08.136Z</time></trkpt><trkpt lat="37.735201" lon="13.0349889"><ele>141.5</ele><time>2026-04-18T09:28:09.136Z</time></trkpt><trkpt lat="37.735404" lon="13.0348371"><ele>141.0</ele><time>2026-04-18T09:28:10.136Z</time></trkpt><trkpt lat="37.7356068" lon="13.0346847"><ele>141.0</ele><time>2026-04-18T09:28:11.135Z</time></trkpt><trkpt lat="37.7358062" lon="13.0345365"><ele>141.0</ele><time>2026-04-18T09:28:12.136Z</time></trkpt><trkpt lat="37.7360084" lon="13.0343881"><ele>140.5</ele><time>2026-04-18T09:28:13.136Z</time></trkpt><trkpt lat="37.7362086" lon="13.0342404"><ele>140.0</ele><time>2026-04-18T09:28:14.135Z</time></trkpt><trkpt lat="37.7364121" lon="13.0340918"><ele>140.0</ele><time>2026-04-18T09:28:15.136Z</time></trkpt><trkpt lat="37.7366204" lon="13.0339494"><ele>140.0</ele><time>2026-04-18T09:28:16.136Z</time></trkpt><trkpt lat="37.7368258" lon="13.0338252"><ele>142.5</ele><time>2026-04-18T09:28:17.136Z</time></trkpt><trkpt lat="37.737054" lon="13.0337331"><ele>145.0</ele><time>2026-04-18T09:28:18.136Z</time></trkpt><trkpt lat="37.737286" lon="13.0336728"><ele>145.0</ele><time>2026-04-18T09:28:19.136Z</time></trkpt><trkpt lat="37.7375212" lon="13.0336401"><ele>145.0</ele><time>2026-04-18T09:28:20.135Z</time></trkpt><trkpt lat="37.7377514" lon="13.0336376"><ele>145.5</ele><time>2026-04-18T09:28:21.136Z</time></trkpt><trkpt lat="37.7379846" lon="13.0336619"><ele>146.0</ele><time>2026-04-18T09:28:22.136Z</time></trkpt><trkpt lat="37.7382112" lon="13.0337088"><ele>146.0</ele><time>2026-04-18T09:28:23.136Z</time></trkpt><trkpt lat="37.7384353" lon="13.0337977"><ele>146.0</ele><time>2026-04-18T09:28:24.135Z</time></trkpt><trkpt lat="37.7386544" lon="13.0338987"><ele>145.5</ele><time>2026-04-18T09:28:25.135Z</time></trkpt><trkpt lat="37.7388716" lon="13.034017"><ele>145.0</ele><time>2026-04-18T09:28:26.136Z</time></trkpt><trkpt lat="37.7390875" lon="13.0341409"><ele>148.0</ele><time>2026-04-18T09:28:27.136Z</time></trkpt><trkpt lat="37.7393061" lon="13.0342605"><ele>151.0</ele><time>2026-04-18T09:28:28.136Z</time></trkpt><trkpt lat="37.7395248" lon="13.0343763"><ele>151.0</ele><time>2026-04-18T09:28:29.136Z</time></trkpt><trkpt lat="37.7397411" lon="13.0344934"><ele>151.0</ele><time>2026-04-18T09:28:30.136Z</time></trkpt><trkpt lat="37.7399601" lon="13.0346103"><ele>151.0</ele><time>2026-04-18T09:28:31.136Z</time></trkpt><trkpt lat="37.7401774" lon="13.0347286"><ele>151.0</ele><time>2026-04-18T09:28:32.136Z</time></trkpt><trkpt lat="37.7403934" lon="13.0348464"><ele>150.0</ele><time>2026-04-18T09:28:33.136Z</time></trkpt><trkpt lat="37.7406105" lon="13.0349652"><ele>149.0</ele><time>2026-04-18T09:28:34.136Z</time></trkpt><trkpt lat="37.7408189" lon="13.0350783"><ele>151.66666666666666</ele><time>2026-04-18T09:28:35.135Z</time></trkpt><trkpt lat="37.7410143" lon="13.0351851"><ele>154.33333333333334</ele><time>2026-04-18T09:28:36.135Z</time></trkpt><trkpt lat="37.7411954" lon="13.0352864"><ele>157.0</ele><time>2026-04-18T09:28:37.136Z</time></trkpt><trkpt lat="37.7413758" lon="13.0353792"><ele>158.0</ele><time>2026-04-18T09:28:38.136Z</time></trkpt><trkpt lat="37.7415587" lon="13.035476"><ele>159.0</ele><time>2026-04-18T09:28:39.135Z</time></trkpt><trkpt lat="37.7417438" lon="13.0355792"><ele>160.0</ele><time>2026-04-18T09:28:40.136Z</time></trkpt><trkpt lat="37.7419309" lon="13.0356887"><ele>163.0</ele><time>2026-04-18T09:28:41.136Z</time></trkpt><trkpt lat="37.7421154" lon="13.0357954"><ele>166.0</ele><time>2026-04-18T09:28:42.136Z</time></trkpt><trkpt lat="37.7423044" lon="13.0359004"><ele>169.0</ele><time>2026-04-18T09:28:43.135Z</time></trkpt><trkpt lat="37.7424932" lon="13.036008"><ele>169.0</ele><time>2026-04-18T09:28:44.136Z</time></trkpt><trkpt lat="37.7426814" lon="13.0361096"><ele>169.0</ele><time>2026-04-18T09:28:45.135Z</time></trkpt><trkpt lat="37.7428774" lon="13.0362028"><ele>169.0</ele><time>2026-04-18T09:28:46.136Z</time></trkpt><trkpt lat="37.743078" lon="13.03628"><ele>172.66666666666669</ele><time>2026-04-18T09:28:47.135Z</time></trkpt><trkpt lat="37.7432854" lon="13.0363274"><ele>176.33333333333334</ele><time>2026-04-18T09:28:48.135Z</time></trkpt><trkpt lat="37.7434991" lon="13.0363506"><ele>180.0</ele><time>2026-04-18T09:28:49.135Z</time></trkpt><trkpt lat="37.7437177" lon="13.0363518"><ele>181.0</ele><time>2026-04-18T09:28:50.136Z</time></trkpt><trkpt lat="37.7439354" lon="13.0363265"><ele>182.0</ele><time>2026-04-18T09:28:51.136Z</time></trkpt><trkpt lat="37.7441516" lon="13.0362746"><ele>183.0</ele><time>2026-04-18T09:28:52.136Z</time></trkpt><trkpt lat="37.744364" lon="13.0362013"><ele>180.0</ele><time>2026-04-18T09:28:53.136Z</time></trkpt><trkpt lat="37.7445736" lon="13.0361114"><ele>177.0</ele><time>2026-04-18T09:28:54.136Z</time></trkpt><trkpt lat="37.7447823" lon="13.0360179"><ele>174.0</ele><time>2026-04-18T09:28:55.136Z</time></trkpt><trkpt lat="37.744993" lon="13.0359293"><ele>174.0</ele><time>2026-04-18T09:28:56.136Z</time></trkpt><trkpt lat="37.7452046" lon="13.0358422"><ele>174.0</ele><time>2026-04-18T09:28:57.135Z</time></trkpt><trkpt lat="37.7454174" lon="13.0357576"><ele>174.0</ele><time>2026-04-18T09:28:58.135Z</time></trkpt><trkpt lat="37.7456352" lon="13.0356734"><ele>169.0</ele><time>2026-04-18T09:28:59.136Z</time></trkpt><trkpt lat="37.7458509" lon="13.0355905"><ele>164.0</ele><time>2026-04-18T09:29:00.135Z</time></trkpt><trkpt lat="37.7460672" lon="13.0355087"><ele>158.5</ele><time>2026-04-18T09:29:01.136Z</time></trkpt><trkpt lat="37.7462852" lon="13.0354258"><ele>153.0</ele><time>2026-04-18T09:29:02.136Z</time></trkpt><trkpt lat="37.7465024" lon="13.0353558"><ele>153.0</ele><time>2026-04-18T09:29:03.136Z</time></trkpt><trkpt lat="37.7467223" lon="13.0353034"><ele>153.0</ele><time>2026-04-18T09:29:04.136Z</time></trkpt><trkpt lat="37.7469431" lon="13.0352668"><ele>153.0</ele><time>2026-04-18T09:29:05.135Z</time></trkpt><trkpt lat="37.7471621" lon="13.0352519"><ele>152.33333333333334</ele><time>2026-04-18T09:29:06.135Z</time></trkpt><trkpt lat="37.747381" lon="13.0352585"><ele>151.66666666666669</ele><time>2026-04-18T09:29:07.136Z</time></trkpt><trkpt lat="37.7475969" lon="13.0352828"><ele>151.0</ele><time>2026-04-18T09:29:08.136Z</time></trkpt><trkpt lat="37.7478116" lon="13.035323"><ele>148.33333333333334</ele><time>2026-04-18T09:29:09.136Z</time></trkpt><trkpt lat="37.7480281" lon="13.0353699"><ele>145.66666666666666</ele><time>2026-04-18T09:29:10.135Z</time></trkpt><trkpt lat="37.7482389" lon="13.0354366"><ele>143.0</ele><time>2026-04-18T09:29:11.136Z</time></trkpt><trkpt lat="37.7484489" lon="13.0355184"><ele>142.0</ele><time>2026-04-18T09:29:12.135Z</time></trkpt><trkpt lat="37.7486555" lon="13.0356166"><ele>141.0</ele><time>2026-04-18T09:29:13.136Z</time></trkpt><trkpt lat="37.7488588" lon="13.0357304"><ele>140.0</ele><time>2026-04-18T09:29:14.136Z</time></trkpt><trkpt lat="37.7490599" lon="13.0358532"><ele>140.0</ele><time>2026-04-18T09:29:15.136Z</time></trkpt><trkpt lat="37.7492659" lon="13.0359666"><ele>140.0</ele><time>2026-04-18T09:29:16.136Z</time></trkpt><trkpt lat="37.7494751" lon="13.0360816"><ele>135.5</ele><time>2026-04-18T09:29:17.136Z</time></trkpt><trkpt lat="37.7496884" lon="13.0361954"><ele>131.0</ele><time>2026-04-18T09:29:18.136Z</time></trkpt><trkpt lat="37.7499013" lon="13.0362949"><ele>131.0</ele><time>2026-04-18T09:29:19.136Z</time></trkpt><trkpt lat="37.7501186" lon="13.0363808"><ele>131.0</ele><time>2026-04-18T09:29:20.136Z</time></trkpt><trkpt lat="37.7503396" lon="13.0364523"><ele>127.0</ele><time>2026-04-18T09:29:21.136Z</time></trkpt><trkpt lat="37.7505642" lon="13.0365121"><ele>123.0</ele><time>2026-04-18T09:29:22.136Z</time></trkpt><trkpt lat="37.7507932" lon="13.0365617"><ele>123.0</ele><time>2026-04-18T09:29:23.136Z</time></trkpt><trkpt lat="37.7510226" lon="13.0366095"><ele>123.0</ele><time>2026-04-18T09:29:24.136Z</time></trkpt><trkpt lat="37.7512515" lon="13.0366549"><ele>123.5</ele><time>2026-04-18T09:29:25.135Z</time></trkpt><trkpt lat="37.7514819" lon="13.0367001"><ele>124.0</ele><time>2026-04-18T09:29:26.136Z</time></trkpt><trkpt lat="37.7517118" lon="13.0367406"><ele>122.0</ele><time>2026-04-18T09:29:27.136Z</time></trkpt><trkpt lat="37.7519414" lon="13.0367869"><ele>120.0</ele><time>2026-04-18T09:29:28.136Z</time></trkpt><trkpt lat="37.7521708" lon="13.0368323"><ele>120.0</ele><time>2026-04-18T09:29:29.136Z</time></trkpt><trkpt lat="37.7523968" lon="13.036876"><ele>120.0</ele><time>2026-04-18T09:29:30.135Z</time></trkpt><trkpt lat="37.7526189" lon="13.0369179"><ele>118.5</ele><time>2026-04-18T09:29:31.136Z</time></trkpt><trkpt lat="37.7528433" lon="13.0369633"><ele>117.0</ele><time>2026-04-18T09:29:32.136Z</time></trkpt><trkpt lat="37.7530644" lon="13.0370057"><ele>117.0</ele><time>2026-04-18T09:29:33.136Z</time></trkpt><trkpt lat="37.7532853" lon="13.0370563"><ele>117.0</ele><time>2026-04-18T09:29:34.135Z</time></trkpt><trkpt lat="37.7535039" lon="13.0370972"><ele>117.0</ele><time>2026-04-18T09:29:35.136Z</time></trkpt><trkpt lat="37.7537187" lon="13.0371406"><ele>117.0</ele><time>2026-04-18T09:29:36.135Z</time></trkpt><trkpt lat="37.7539318" lon="13.03718"><ele>117.0</ele><time>2026-04-18T09:29:37.136Z</time></trkpt><trkpt lat="37.7541441" lon="13.037218"><ele>117.0</ele><time>2026-04-18T09:29:38.136Z</time></trkpt><trkpt lat="37.7543547" lon="13.0372585"><ele>117.0</ele><time>2026-04-18T09:29:39.136Z</time></trkpt><trkpt lat="37.7545636" lon="13.0373027"><ele>117.0</ele><time>2026-04-18T09:29:40.136Z</time></trkpt><trkpt lat="37.7547735" lon="13.0373576"><ele>117.0</ele><time>2026-04-18T09:29:41.136Z</time></trkpt><trkpt lat="37.75498" lon="13.0374213"><ele>117.0</ele><time>2026-04-18T09:29:42.136Z</time></trkpt><trkpt lat="37.755185" lon="13.0375012"><ele>117.0</ele><time>2026-04-18T09:29:43.135Z</time></trkpt><trkpt lat="37.7553864" lon="13.0375913"><ele>117.0</ele><time>2026-04-18T09:29:44.135Z</time></trkpt><trkpt lat="37.7555829" lon="13.0376912"><ele>117.0</ele><time>2026-04-18T09:29:45.136Z</time></trkpt><trkpt lat="37.7557822" lon="13.0377957"><ele>117.0</ele><time>2026-04-18T09:29:46.136Z</time></trkpt><trkpt lat="37.7559764" lon="13.0378979"><ele>117.0</ele><time>2026-04-18T09:29:47.136Z</time></trkpt><trkpt lat="37.756172" lon="13.0379993"><ele>117.33333333333334</ele><time>2026-04-18T09:29:48.136Z</time></trkpt><trkpt lat="37.7563713" lon="13.0380989"><ele>117.66666666666667</ele><time>2026-04-18T09:29:49.135Z</time></trkpt><trkpt lat="37.7565713" lon="13.038199"><ele>118.0</ele><time>2026-04-18T09:29:50.136Z</time></trkpt><trkpt lat="37.7567661" lon="13.0382992"><ele>119.0</ele><time>2026-04-18T09:29:51.135Z</time></trkpt><trkpt lat="37.7569603" lon="13.0383971"><ele>120.0</ele><time>2026-04-18T09:29:52.136Z</time></trkpt><trkpt lat="37.7571564" lon="13.038492"><ele>121.0</ele><time>2026-04-18T09:29:53.135Z</time></trkpt><trkpt lat="37.7573516" lon="13.0385872"><ele>121.0</ele><time>2026-04-18T09:29:54.135Z</time></trkpt><trkpt lat="37.7575441" lon="13.0386785"><ele>121.0</ele><time>2026-04-18T09:29:55.135Z</time></trkpt><trkpt lat="37.7577372" lon="13.0387773"><ele>121.0</ele><time>2026-04-18T09:29:56.135Z</time></trkpt><trkpt lat="37.7579268" lon="13.0388799"><ele>121.33333333333334</ele><time>2026-04-18T09:29:57.136Z</time></trkpt><trkpt lat="37.7581205" lon="13.0389827"><ele>121.66666666666666</ele><time>2026-04-18T09:29:58.136Z</time></trkpt><trkpt lat="37.7583129" lon="13.0390827"><ele>122.0</ele><time>2026-04-18T09:29:59.136Z</time></trkpt><trkpt lat="37.7585072" lon="13.039186"><ele>124.66666666666666</ele><time>2026-04-18T09:30:00.136Z</time></trkpt><trkpt lat="37.758697" lon="13.0392915"><ele>127.33333333333334</ele><time>2026-04-18T09:30:01.136Z</time></trkpt><trkpt lat="37.7588844" lon="13.0394041"><ele>130.0</ele><time>2026-04-18T09:30:02.135Z</time></trkpt><trkpt lat="37.759072" lon="13.0395219"><ele>130.0</ele><time>2026-04-18T09:30:03.136Z</time></trkpt><trkpt lat="37.7592537" lon="13.0396587"><ele>130.0</ele><time>2026-04-18T09:30:04.136Z</time></trkpt><trkpt lat="37.7594292" lon="13.0398054"><ele>130.0</ele><time>2026-04-18T09:30:05.135Z</time></trkpt><trkpt lat="37.7595956" lon="13.0399681"><ele>131.33333333333334</ele><time>2026-04-18T09:30:06.135Z</time></trkpt><trkpt lat="37.7597521" lon="13.0401387"><ele>132.66666666666666</ele><time>2026-04-18T09:30:07.136Z</time></trkpt><trkpt lat="37.7599053" lon="13.0403244"><ele>134.0</ele><time>2026-04-18T09:30:08.136Z</time></trkpt><trkpt lat="37.7600472" lon="13.0405112"><ele>134.0</ele><time>2026-04-18T09:30:09.136Z</time></trkpt><trkpt lat="37.7601855" lon="13.0407033"><ele>134.0</ele><time>2026-04-18T09:30:10.136Z</time></trkpt><trkpt lat="37.7603177" lon="13.0408992"><ele>134.0</ele><time>2026-04-18T09:30:11.136Z</time></trkpt><trkpt lat="37.7604468" lon="13.0410965"><ele>133.33333333333331</ele><time>2026-04-18T09:30:12.136Z</time></trkpt><trkpt lat="37.7605733" lon="13.0412946"><ele>132.66666666666666</ele><time>2026-04-18T09:30:13.136Z</time></trkpt><trkpt lat="37.7606993" lon="13.0414936"><ele>132.0</ele><time>2026-04-18T09:30:14.135Z</time></trkpt><trkpt lat="37.7608276" lon="13.0416889"><ele>132.0</ele><time>2026-04-18T09:30:15.135Z</time></trkpt><trkpt lat="37.7609565" lon="13.0418809"><ele>132.0</ele><time>2026-04-18T09:30:16.136Z</time></trkpt><trkpt lat="37.7610872" lon="13.0420756"><ele>132.0</ele><time>2026-04-18T09:30:17.136Z</time></trkpt><trkpt lat="37.7612174" lon="13.0422771"><ele>133.0</ele><time>2026-04-18T09:30:18.136Z</time></trkpt><trkpt lat="37.7613431" lon="13.0424789"><ele>134.0</ele><time>2026-04-18T09:30:19.136Z</time></trkpt><trkpt lat="37.7614722" lon="13.0426776"><ele>135.0</ele><time>2026-04-18T09:30:20.136Z</time></trkpt><trkpt lat="37.7616087" lon="13.0428713"><ele>135.0</ele><time>2026-04-18T09:30:21.136Z</time></trkpt><trkpt lat="37.7617464" lon="13.0430558"><ele>135.0</ele><time>2026-04-18T09:30:22.136Z</time></trkpt><trkpt lat="37.7618934" lon="13.0432286"><ele>135.0</ele><time>2026-04-18T09:30:23.136Z</time></trkpt><trkpt lat="37.7620502" lon="13.0433795"><ele>135.0</ele><time>2026-04-18T09:30:24.136Z</time></trkpt><trkpt lat="37.7622166" lon="13.0435151"><ele>135.0</ele><time>2026-04-18T09:30:25.136Z</time></trkpt><trkpt lat="37.7623882" lon="13.0436355"><ele>135.0</ele><time>2026-04-18T09:30:26.136Z</time></trkpt><trkpt lat="37.7625654" lon="13.0437396"><ele>137.0</ele><time>2026-04-18T09:30:27.136Z</time></trkpt><trkpt lat="37.7627514" lon="13.0438341"><ele>139.0</ele><time>2026-04-18T09:30:28.136Z</time></trkpt><trkpt lat="37.762941" lon="13.0439118"><ele>141.0</ele><time>2026-04-18T09:30:29.136Z</time></trkpt><trkpt lat="37.7631306" lon="13.0439791"><ele>141.0</ele><time>2026-04-18T09:30:30.136Z</time></trkpt><trkpt lat="37.7633245" lon="13.0440356"><ele>141.0</ele><time>2026-04-18T09:30:31.135Z</time></trkpt><trkpt lat="37.7635201" lon="13.0440797"><ele>141.0</ele><time>2026-04-18T09:30:32.136Z</time></trkpt><trkpt lat="37.7637159" lon="13.0441139"><ele>140.33333333333334</ele><time>2026-04-18T09:30:33.135Z</time></trkpt><trkpt lat="37.7639178" lon="13.0441439"><ele>139.66666666666669</ele><time>2026-04-18T09:30:34.136Z</time></trkpt><trkpt lat="37.7641247" lon="13.0441698"><ele>139.0</ele><time>2026-04-18T09:30:35.136Z</time></trkpt><trkpt lat="37.7643373" lon="13.0441977"><ele>140.0</ele><time>2026-04-18T09:30:36.135Z</time></trkpt><trkpt lat="37.7645559" lon="13.0442259"><ele>141.0</ele><time>2026-04-18T09:30:37.135Z</time></trkpt><trkpt lat="37.7647719" lon="13.0442533"><ele>142.0</ele><time>2026-04-18T09:30:38.135Z</time></trkpt><trkpt lat="37.7649882" lon="13.0442861"><ele>144.33333333333334</ele><time>2026-04-18T09:30:39.136Z</time></trkpt><trkpt lat="37.7652029" lon="13.044332"><ele>146.66666666666666</ele><time>2026-04-18T09:30:40.135Z</time></trkpt><trkpt lat="37.7654137" lon="13.0443893"><ele>149.0</ele><time>2026-04-18T09:30:41.136Z</time></trkpt><trkpt lat="37.7656246" lon="13.0444588"><ele>149.0</ele><time>2026-04-18T09:30:42.136Z</time></trkpt><trkpt lat="37.7658341" lon="13.044538"><ele>149.0</ele><time>2026-04-18T09:30:43.136Z</time></trkpt><trkpt lat="37.7660381" lon="13.044632"><ele>149.0</ele><time>2026-04-18T09:30:44.135Z</time></trkpt><trkpt lat="37.766241" lon="13.0447344"><ele>149.0</ele><time>2026-04-18T09:30:45.135Z</time></trkpt><trkpt lat="37.7664393" lon="13.0448495"><ele>149.0</ele><time>2026-04-18T09:30:46.135Z</time></trkpt><trkpt lat="37.7666298" lon="13.0449742"><ele>149.0</ele><time>2026-04-18T09:30:47.136Z</time></trkpt><trkpt lat="37.7668099" lon="13.0451111"><ele>145.66666666666666</ele><time>2026-04-18T09:30:48.135Z</time></trkpt><trkpt lat="37.7669905" lon="13.0452576"><ele>142.33333333333334</ele><time>2026-04-18T09:30:49.136Z</time></trkpt><trkpt lat="37.7671682" lon="13.0453965"><ele>139.0</ele><time>2026-04-18T09:30:50.135Z</time></trkpt><trkpt lat="37.7673483" lon="13.0455369"><ele>139.0</ele><time>2026-04-18T09:30:51.136Z</time></trkpt><trkpt lat="37.7675278" lon="13.0456746"><ele>139.0</ele><time>2026-04-18T09:30:52.135Z</time></trkpt><trkpt lat="37.7677076" lon="13.0458098"><ele>139.0</ele><time>2026-04-18T09:30:53.135Z</time></trkpt><trkpt lat="37.7678893" lon="13.0459522"><ele>136.33333333333334</ele><time>2026-04-18T09:30:54.135Z</time></trkpt><trkpt lat="37.7680734" lon="13.0460978"><ele>133.66666666666666</ele><time>2026-04-18T09:30:55.135Z</time></trkpt><trkpt lat="37.7682563" lon="13.0462466"><ele>131.0</ele><time>2026-04-18T09:30:56.136Z</time></trkpt><trkpt lat="37.7684367" lon="13.0463972"><ele>131.0</ele><time>2026-04-18T09:30:57.136Z</time></trkpt><trkpt lat="37.7686162" lon="13.0465486"><ele>131.0</ele><time>2026-04-18T09:30:58.136Z</time></trkpt><trkpt lat="37.7687992" lon="13.0466948"><ele>131.0</ele><time>2026-04-18T09:30:59.135Z</time></trkpt><trkpt lat="37.7689938" lon="13.0468287"><ele>131.0</ele><time>2026-04-18T09:31:00.135Z</time></trkpt><trkpt lat="37.7692043" lon="13.0469423"><ele>131.0</ele><time>2026-04-18T09:31:01.136Z</time></trkpt><trkpt lat="37.7694219" lon="13.0470248"><ele>131.0</ele><time>2026-04-18T09:31:02.136Z</time></trkpt><trkpt lat="37.7696512" lon="13.0470908"><ele>131.0</ele><time>2026-04-18T09:31:03.136Z</time></trkpt><trkpt lat="37.769885" lon="13.0471345"><ele>131.0</ele><time>2026-04-18T09:31:04.136Z</time></trkpt><trkpt lat="37.770117" lon="13.0471579"><ele>131.0</ele><time>2026-04-18T09:31:05.136Z</time></trkpt><trkpt lat="37.770351" lon="13.0471685"><ele>130.5</ele><time>2026-04-18T09:31:06.136Z</time></trkpt><trkpt lat="37.770587" lon="13.0471767"><ele>130.0</ele><time>2026-04-18T09:31:07.136Z</time></trkpt><trkpt lat="37.7708201" lon="13.0471826"><ele>130.0</ele><time>2026-04-18T09:31:08.136Z</time></trkpt><trkpt lat="37.771055" lon="13.0471906"><ele>130.0</ele><time>2026-04-18T09:31:09.136Z</time></trkpt><trkpt lat="37.7712887" lon="13.0471986"><ele>130.0</ele><time>2026-04-18T09:31:10.136Z</time></trkpt><trkpt lat="37.7715264" lon="13.0472074"><ele>130.0</ele><time>2026-04-18T09:31:11.136Z</time></trkpt><trkpt lat="37.7717622" lon="13.0472145"><ele>131.5</ele><time>2026-04-18T09:31:12.135Z</time></trkpt><trkpt lat="37.7720002" lon="13.0472233"><ele>133.0</ele><time>2026-04-18T09:31:13.136Z</time></trkpt><trkpt lat="37.7722349" lon="13.0472299"><ele>133.0</ele><time>2026-04-18T09:31:14.136Z</time></trkpt><trkpt lat="37.7724704" lon="13.0472371"><ele>133.0</ele><time>2026-04-18T09:31:15.135Z</time></trkpt><trkpt lat="37.7727055" lon="13.0472437"><ele>134.0</ele><time>2026-04-18T09:31:16.135Z</time></trkpt><trkpt lat="37.7729407" lon="13.0472509"><ele>135.0</ele><time>2026-04-18T09:31:17.136Z</time></trkpt><trkpt lat="37.7731779" lon="13.0472578"><ele>135.0</ele><time>2026-04-18T09:31:18.135Z</time></trkpt><trkpt lat="37.7734126" lon="13.0472628"><ele>135.0</ele><time>2026-04-18T09:31:19.135Z</time></trkpt><trkpt lat="37.7736498" lon="13.0472667"><ele>139.5</ele><time>2026-04-18T09:31:20.135Z</time></trkpt><trkpt lat="37.7738844" lon="13.0472706"><ele>144.0</ele><time>2026-04-18T09:31:21.136Z</time></trkpt><trkpt lat="37.7741206" lon="13.0472789"><ele>149.5</ele><time>2026-04-18T09:31:22.136Z</time></trkpt><trkpt lat="37.7743571" lon="13.0472962"><ele>155.0</ele><time>2026-04-18T09:31:23.136Z</time></trkpt><trkpt lat="37.7745923" lon="13.0473394"><ele>155.0</ele><time>2026-04-18T09:31:24.136Z</time></trkpt><trkpt lat="37.7748143" lon="13.0474208"><ele>155.0</ele><time>2026-04-18T09:31:25.136Z</time></trkpt><trkpt lat="37.7750285" lon="13.0475345"><ele>157.5</ele><time>2026-04-18T09:31:26.135Z</time></trkpt><trkpt lat="37.7752312" lon="13.0476734"><ele>160.0</ele><time>2026-04-18T09:31:27.136Z</time></trkpt><trkpt lat="37.7754261" lon="13.047834"><ele>160.0</ele><time>2026-04-18T09:31:28.135Z</time></trkpt><trkpt lat="37.7756099" lon="13.0480212"><ele>160.0</ele><time>2026-04-18T09:31:29.136Z</time></trkpt><trkpt lat="37.7757758" lon="13.0482336"><ele>160.0</ele><time>2026-04-18T09:31:30.136Z</time></trkpt><trkpt lat="37.7759315" lon="13.0484604"><ele>160.0</ele><time>2026-04-18T09:31:31.135Z</time></trkpt><trkpt lat="37.7760819" lon="13.0486926"><ele>160.0</ele><time>2026-04-18T09:31:32.136Z</time></trkpt><trkpt lat="37.7762309" lon="13.0489266"><ele>160.0</ele><time>2026-04-18T09:31:33.136Z</time></trkpt><trkpt lat="37.7763787" lon="13.0491557"><ele>157.5</ele><time>2026-04-18T09:31:34.135Z</time></trkpt><trkpt lat="37.7765282" lon="13.0493869"><ele>155.0</ele><time>2026-04-18T09:31:35.135Z</time></trkpt><trkpt lat="37.7766758" lon="13.0496183"><ele>155.0</ele><time>2026-04-18T09:31:36.136Z</time></trkpt><trkpt lat="37.7768216" lon="13.0498498"><ele>155.0</ele><time>2026-04-18T09:31:37.135Z</time></trkpt><trkpt lat="37.7769679" lon="13.0500801"><ele>161.0</ele><time>2026-04-18T09:31:38.135Z</time></trkpt><trkpt lat="37.777122" lon="13.0503072"><ele>167.0</ele><time>2026-04-18T09:31:39.136Z</time></trkpt><trkpt lat="37.7772729" lon="13.0505382"><ele>167.0</ele><time>2026-04-18T09:31:40.136Z</time></trkpt><trkpt lat="37.7774251" lon="13.0507699"><ele>167.0</ele><time>2026-04-18T09:31:41.136Z</time></trkpt><trkpt lat="37.7775766" lon="13.0510008"><ele>177.5</ele><time>2026-04-18T09:31:42.135Z</time></trkpt><trkpt lat="37.7777288" lon="13.0512265"><ele>188.0</ele><time>2026-04-18T09:31:43.136Z</time></trkpt><trkpt lat="37.7778864" lon="13.0514484"><ele>181.5</ele><time>2026-04-18T09:31:44.135Z</time></trkpt><trkpt lat="37.778062" lon="13.0516513"><ele>175.0</ele><time>2026-04-18T09:31:45.136Z</time></trkpt><trkpt lat="37.77825" lon="13.0518307"><ele>175.0</ele><time>2026-04-18T09:31:46.135Z</time></trkpt><trkpt lat="37.7784482" lon="13.0519902"><ele>175.0</ele><time>2026-04-18T09:31:47.136Z</time></trkpt><trkpt lat="37.7786587" lon="13.0521299"><ele>186.0</ele><time>2026-04-18T09:31:48.136Z</time></trkpt><trkpt lat="37.7788774" lon="13.0522441"><ele>197.0</ele><time>2026-04-18T09:31:49.135Z</time></trkpt><trkpt lat="37.7791026" lon="13.0523377"><ele>197.0</ele><time>2026-04-18T09:31:50.136Z</time></trkpt><trkpt lat="37.7793329" lon="13.0524123"><ele>197.0</ele><time>2026-04-18T09:31:51.136Z</time></trkpt><trkpt lat="37.7795649" lon="13.0524677"><ele>186.5</ele><time>2026-04-18T09:31:52.136Z</time></trkpt><trkpt lat="37.7797934" lon="13.0525082"><ele>176.0</ele><time>2026-04-18T09:31:53.136Z</time></trkpt><trkpt lat="37.7800315" lon="13.0525141"><ele>174.0</ele><time>2026-04-18T09:31:54.136Z</time></trkpt><trkpt lat="37.7802682" lon="13.0525054"><ele>172.0</ele><time>2026-04-18T09:31:55.135Z</time></trkpt><trkpt lat="37.7805073" lon="13.0524891"><ele>172.0</ele><time>2026-04-18T09:31:56.136Z</time></trkpt><trkpt lat="37.7807475" lon="13.0524822"><ele>172.0</ele><time>2026-04-18T09:31:57.135Z</time></trkpt><trkpt lat="37.7809852" lon="13.0524735"><ele>170.5</ele><time>2026-04-18T09:31:58.135Z</time></trkpt><trkpt lat="37.7812223" lon="13.0524652"><ele>169.0</ele><time>2026-04-18T09:31:59.136Z</time></trkpt><trkpt lat="37.7814606" lon="13.0524619"><ele>169.0</ele><time>2026-04-18T09:32:00.136Z</time></trkpt><trkpt lat="37.7816966" lon="13.0524839"><ele>169.0</ele><time>2026-04-18T09:32:01.136Z</time></trkpt><trkpt lat="37.7819309" lon="13.0525131"><ele>167.5</ele><time>2026-04-18T09:32:02.136Z</time></trkpt><trkpt lat="37.7821613" lon="13.0525622"><ele>166.0</ele><time>2026-04-18T09:32:03.136Z</time></trkpt><trkpt lat="37.7823918" lon="13.0526315"><ele>166.0</ele><time>2026-04-18T09:32:04.135Z</time></trkpt><trkpt lat="37.7826215" lon="13.0527165"><ele>166.0</ele><time>2026-04-18T09:32:05.136Z</time></trkpt><trkpt lat="37.7828449" lon="13.0528131"><ele>166.5</ele><time>2026-04-18T09:32:06.136Z</time></trkpt><trkpt lat="37.7830651" lon="13.0529198"><ele>167.0</ele><time>2026-04-18T09:32:07.135Z</time></trkpt><trkpt lat="37.7832843" lon="13.053032"><ele>167.0</ele><time>2026-04-18T09:32:08.136Z</time></trkpt><trkpt lat="37.7835071" lon="13.0531438"><ele>167.0</ele><time>2026-04-18T09:32:09.136Z</time></trkpt><trkpt lat="37.7837321" lon="13.0532526"><ele>171.0</ele><time>2026-04-18T09:32:10.136Z</time></trkpt><trkpt lat="37.7839509" lon="13.0533617"><ele>175.0</ele><time>2026-04-18T09:32:11.136Z</time></trkpt><trkpt lat="37.7841692" lon="13.0534729"><ele>187.5</ele><time>2026-04-18T09:32:12.136Z</time></trkpt><trkpt lat="37.7843891" lon="13.0535827"><ele>200.0</ele><time>2026-04-18T09:32:13.136Z</time></trkpt><trkpt lat="37.7846091" lon="13.0536895"><ele>200.0</ele><time>2026-04-18T09:32:14.136Z</time></trkpt><trkpt lat="37.784829" lon="13.0538018"><ele>200.0</ele><time>2026-04-18T09:32:15.135Z</time></trkpt><trkpt lat="37.7850497" lon="13.0539113"><ele>209.5</ele><time>2026-04-18T09:32:16.136Z</time></trkpt><trkpt lat="37.7852678" lon="13.0540219"><ele>219.0</ele><time>2026-04-18T09:32:17.136Z</time></trkpt><trkpt lat="37.7854762" lon="13.0541271"><ele>206.66666666666666</ele><time>2026-04-18T09:32:18.136Z</time></trkpt><trkpt lat="37.785677" lon="13.0542252"><ele>194.33333333333331</ele><time>2026-04-18T09:32:19.136Z</time></trkpt><trkpt lat="37.7858685" lon="13.0543175"><ele>182.0</ele><time>2026-04-18T09:32:20.135Z</time></trkpt><trkpt lat="37.7860515" lon="13.0544059"><ele>182.0</ele><time>2026-04-18T09:32:21.136Z</time></trkpt><trkpt lat="37.7862248" lon="13.0544924"><ele>182.0</ele><time>2026-04-18T09:32:22.136Z</time></trkpt><trkpt lat="37.7863968" lon="13.0545775"><ele>182.0</ele><time>2026-04-18T09:32:23.136Z</time></trkpt><trkpt lat="37.7865727" lon="13.054659"><ele>182.0</ele><time>2026-04-18T09:32:24.136Z</time></trkpt><trkpt lat="37.7867521" lon="13.0547299"><ele>182.0</ele><time>2026-04-18T09:32:25.136Z</time></trkpt><trkpt lat="37.7869396" lon="13.0547939"><ele>182.0</ele><time>2026-04-18T09:32:26.136Z</time></trkpt><trkpt lat="37.7871304" lon="13.0548464"><ele>178.33333333333331</ele><time>2026-04-18T09:32:27.135Z</time></trkpt><trkpt lat="37.7873232" lon="13.0548833"><ele>174.66666666666666</ele><time>2026-04-18T09:32:28.136Z</time></trkpt><trkpt lat="37.7875202" lon="13.0549164"><ele>171.0</ele><time>2026-04-18T09:32:29.136Z</time></trkpt><trkpt lat="37.7877174" lon="13.0549366"><ele>164.66666666666666</ele><time>2026-04-18T09:32:30.136Z</time></trkpt><trkpt lat="37.7879112" lon="13.0549457"><ele>158.33333333333331</ele><time>2026-04-18T09:32:31.135Z</time></trkpt><trkpt lat="37.7881035" lon="13.0549417"><ele>152.0</ele><time>2026-04-18T09:32:32.136Z</time></trkpt><trkpt lat="37.7883023" lon="13.0549283"><ele>152.0</ele><time>2026-04-18T09:32:33.136Z</time></trkpt><trkpt lat="37.7884982" lon="13.0549051"><ele>152.0</ele><time>2026-04-18T09:32:34.135Z</time></trkpt><trkpt lat="37.7886959" lon="13.0548701"><ele>152.0</ele><time>2026-04-18T09:32:35.135Z</time></trkpt><trkpt lat="37.7888927" lon="13.054822"><ele>151.66666666666666</ele><time>2026-04-18T09:32:36.136Z</time></trkpt><trkpt lat="37.7890939" lon="13.0547638"><ele>151.33333333333334</ele><time>2026-04-18T09:32:37.136Z</time></trkpt><trkpt lat="37.7893006" lon="13.054702"><ele>151.0</ele><time>2026-04-18T09:32:38.136Z</time></trkpt><trkpt lat="37.7895127" lon="13.0546367"><ele>151.0</ele><time>2026-04-18T09:32:39.136Z</time></trkpt><trkpt lat="37.789732" lon="13.0545773"><ele>151.0</ele><time>2026-04-18T09:32:40.136Z</time></trkpt><trkpt lat="37.7899526" lon="13.0545155"><ele>151.0</ele><time>2026-04-18T09:32:41.135Z</time></trkpt><trkpt lat="37.790177" lon="13.0544526"><ele>151.0</ele><time>2026-04-18T09:32:42.135Z</time></trkpt><trkpt lat="37.7904154" lon="13.05438"><ele>151.0</ele><time>2026-04-18T09:32:43.135Z</time></trkpt><trkpt lat="37.7906603" lon="13.0543126"><ele>151.0</ele><time>2026-04-18T09:32:44.136Z</time></trkpt><trkpt lat="37.790906" lon="13.0542526"><ele>149.5</ele><time>2026-04-18T09:32:45.135Z</time></trkpt><trkpt lat="37.791147" lon="13.0541912"><ele>148.0</ele><time>2026-04-18T09:32:46.136Z</time></trkpt><trkpt lat="37.7913836" lon="13.0541264"><ele>150.0</ele><time>2026-04-18T09:32:47.136Z</time></trkpt><trkpt lat="37.7916209" lon="13.0540616"><ele>152.0</ele><time>2026-04-18T09:32:48.135Z</time></trkpt><trkpt lat="37.7918509" lon="13.0539985"><ele>152.5</ele><time>2026-04-18T09:32:49.135Z</time></trkpt><trkpt lat="37.7920826" lon="13.0539384"><ele>153.0</ele><time>2026-04-18T09:32:50.136Z</time></trkpt><trkpt lat="37.7923138" lon="13.0538784"><ele>153.0</ele><time>2026-04-18T09:32:51.136Z</time></trkpt><trkpt lat="37.792547" lon="13.0538198"><ele>153.0</ele><time>2026-04-18T09:32:52.136Z</time></trkpt><trkpt lat="37.7927799" lon="13.0537684"><ele>153.0</ele><time>2026-04-18T09:32:53.135Z</time></trkpt><trkpt lat="37.7930126" lon="13.0537262"><ele>153.0</ele><time>2026-04-18T09:32:54.135Z</time></trkpt><trkpt lat="37.7932469" lon="13.0536936"><ele>153.0</ele><time>2026-04-18T09:32:55.136Z</time></trkpt><trkpt lat="37.7934792" lon="13.0536738"><ele>153.0</ele><time>2026-04-18T09:32:56.136Z</time></trkpt><trkpt lat="37.7937165" lon="13.0536622"><ele>154.0</ele><time>2026-04-18T09:32:57.136Z</time></trkpt><trkpt lat="37.7939537" lon="13.0536648"><ele>155.0</ele><time>2026-04-18T09:32:58.136Z</time></trkpt><trkpt lat="37.7941896" lon="13.0536859"><ele>154.0</ele><time>2026-04-18T09:32:59.136Z</time></trkpt><trkpt lat="37.7944207" lon="13.0537266"><ele>153.0</ele><time>2026-04-18T09:33:00.136Z</time></trkpt><trkpt lat="37.7946538" lon="13.053773"><ele>153.0</ele><time>2026-04-18T09:33:01.136Z</time></trkpt><trkpt lat="37.7948853" lon="13.0538138"><ele>153.0</ele><time>2026-04-18T09:33:02.136Z</time></trkpt><trkpt lat="37.795119" lon="13.0538619"><ele>152.5</ele><time>2026-04-18T09:33:03.135Z</time></trkpt><trkpt lat="37.7953519" lon="13.0539091"><ele>152.0</ele><time>2026-04-18T09:33:04.136Z</time></trkpt><trkpt lat="37.7955842" lon="13.0539566"><ele>152.0</ele><time>2026-04-18T09:33:05.136Z</time></trkpt><trkpt lat="37.7958173" lon="13.0540016"><ele>152.0</ele><time>2026-04-18T09:33:06.136Z</time></trkpt><trkpt lat="37.7960506" lon="13.0540494"><ele>152.0</ele><time>2026-04-18T09:33:07.135Z</time></trkpt><trkpt lat="37.7962858" lon="13.0540928"><ele>152.0</ele><time>2026-04-18T09:33:08.135Z</time></trkpt><trkpt lat="37.7965207" lon="13.0541423"><ele>152.0</ele><time>2026-04-18T09:33:09.136Z</time></trkpt><trkpt lat="37.796753" lon="13.0541899"><ele>152.0</ele><time>2026-04-18T09:33:10.135Z</time></trkpt><trkpt lat="37.7969882" lon="13.0542378"><ele>153.5</ele><time>2026-04-18T09:33:11.136Z</time></trkpt><trkpt lat="37.7972209" lon="13.0542819"><ele>155.0</ele><time>2026-04-18T09:33:12.135Z</time></trkpt><trkpt lat="37.7974557" lon="13.0543288"><ele>157.0</ele><time>2026-04-18T09:33:13.136Z</time></trkpt><trkpt lat="37.7976918" lon="13.0543773"><ele>159.0</ele><time>2026-04-18T09:33:14.136Z</time></trkpt><trkpt lat="37.7979258" lon="13.0544215"><ele>159.0</ele><time>2026-04-18T09:33:15.136Z</time></trkpt><trkpt lat="37.7981594" lon="13.0544651"><ele>159.0</ele><time>2026-04-18T09:33:16.136Z</time></trkpt><trkpt lat="37.798392" lon="13.054511"><ele>160.0</ele><time>2026-04-18T09:33:17.135Z</time></trkpt><trkpt lat="37.7986237" lon="13.0545625"><ele>161.0</ele><time>2026-04-18T09:33:18.136Z</time></trkpt><trkpt lat="37.7988593" lon="13.0546102"><ele>161.0</ele><time>2026-04-18T09:33:19.136Z</time></trkpt><trkpt lat="37.799092" lon="13.0546559"><ele>161.0</ele><time>2026-04-18T09:33:20.136Z</time></trkpt><trkpt lat="37.7993249" lon="13.0547054"><ele>159.5</ele><time>2026-04-18T09:33:21.136Z</time></trkpt><trkpt lat="37.7995589" lon="13.0547553"><ele>158.0</ele><time>2026-04-18T09:33:22.136Z</time></trkpt><trkpt lat="37.7997944" lon="13.054802"><ele>158.0</ele><time>2026-04-18T09:33:23.136Z</time></trkpt><trkpt lat="37.8000271" lon="13.0548512"><ele>158.0</ele><time>2026-04-18T09:33:24.136Z</time></trkpt><trkpt lat="37.8002623" lon="13.0549003"><ele>156.5</ele><time>2026-04-18T09:33:25.136Z</time></trkpt><trkpt lat="37.800497" lon="13.0549439"><ele>155.0</ele><time>2026-04-18T09:33:26.135Z</time></trkpt><trkpt lat="37.8007285" lon="13.0549893"><ele>155.0</ele><time>2026-04-18T09:33:27.136Z</time></trkpt><trkpt lat="37.800961" lon="13.0550327"><ele>155.0</ele><time>2026-04-18T09:33:28.135Z</time></trkpt><trkpt lat="37.8011953" lon="13.0550755"><ele>155.0</ele><time>2026-04-18T09:33:29.135Z</time></trkpt><trkpt lat="37.8014308" lon="13.0551177"><ele>155.0</ele><time>2026-04-18T09:33:30.135Z</time></trkpt><trkpt lat="37.8016653" lon="13.0551499"><ele>157.0</ele><time>2026-04-18T09:33:31.135Z</time></trkpt><trkpt lat="37.8019003" lon="13.0551716"><ele>159.0</ele><time>2026-04-18T09:33:32.136Z</time></trkpt><trkpt lat="37.8021342" lon="13.0551644"><ele>159.0</ele><time>2026-04-18T09:33:33.136Z</time></trkpt><trkpt lat="37.8023652" lon="13.0551314"><ele>159.0</ele><time>2026-04-18T09:33:34.136Z</time></trkpt><trkpt lat="37.8025967" lon="13.0550641"><ele>157.5</ele><time>2026-04-18T09:33:35.136Z</time></trkpt><trkpt lat="37.8028158" lon="13.0549635"><ele>156.0</ele><time>2026-04-18T09:33:36.135Z</time></trkpt><trkpt lat="37.803029" lon="13.0548444"><ele>162.0</ele><time>2026-04-18T09:33:37.136Z</time></trkpt><trkpt lat="37.8032391" lon="13.0547202"><ele>168.0</ele><time>2026-04-18T09:33:38.136Z</time></trkpt><trkpt lat="37.8034489" lon="13.0545937"><ele>164.5</ele><time>2026-04-18T09:33:39.136Z</time></trkpt><trkpt lat="37.8036627" lon="13.054466"><ele>161.0</ele><time>2026-04-18T09:33:40.136Z</time></trkpt><trkpt lat="37.8038742" lon="13.0543352"><ele>161.0</ele><time>2026-04-18T09:33:41.135Z</time></trkpt><trkpt lat="37.8040899" lon="13.0542125"><ele>161.0</ele><time>2026-04-18T09:33:42.136Z</time></trkpt><trkpt lat="37.8043059" lon="13.054086"><ele>159.5</ele><time>2026-04-18T09:33:43.136Z</time></trkpt><trkpt lat="37.8045182" lon="13.0539636"><ele>158.0</ele><time>2026-04-18T09:33:44.136Z</time></trkpt><trkpt lat="37.8047362" lon="13.0538296"><ele>158.0</ele><time>2026-04-18T09:33:45.135Z</time></trkpt><trkpt lat="37.804947" lon="13.0536974"><ele>158.0</ele><time>2026-04-18T09:33:46.136Z</time></trkpt><trkpt lat="37.8051586" lon="13.0535624"><ele>159.0</ele><time>2026-04-18T09:33:47.135Z</time></trkpt><trkpt lat="37.8053704" lon="13.0534294"><ele>160.0</ele><time>2026-04-18T09:33:48.136Z</time></trkpt><trkpt lat="37.80558" lon="13.0532966"><ele>161.5</ele><time>2026-04-18T09:33:49.136Z</time></trkpt><trkpt lat="37.8057938" lon="13.0531656"><ele>163.0</ele><time>2026-04-18T09:33:50.136Z</time></trkpt><trkpt lat="37.806006" lon="13.0530366"><ele>163.0</ele><time>2026-04-18T09:33:51.136Z</time></trkpt><trkpt lat="37.8062173" lon="13.052906"><ele>163.0</ele><time>2026-04-18T09:33:52.136Z</time></trkpt><trkpt lat="37.8064293" lon="13.0527756"><ele>163.0</ele><time>2026-04-18T09:33:53.135Z</time></trkpt><trkpt lat="37.8066421" lon="13.0526484"><ele>163.0</ele><time>2026-04-18T09:33:54.136Z</time></trkpt><trkpt lat="37.806855" lon="13.0525215"><ele>165.0</ele><time>2026-04-18T09:33:55.136Z</time></trkpt><trkpt lat="37.8070672" lon="13.0523957"><ele>167.0</ele><time>2026-04-18T09:33:56.135Z</time></trkpt><trkpt lat="37.8072808" lon="13.0522676"><ele>167.0</ele><time>2026-04-18T09:33:57.142Z</time></trkpt><trkpt lat="37.8074967" lon="13.052143"><ele>167.0</ele><time>2026-04-18T09:33:58.142Z</time></trkpt><trkpt lat="37.8077108" lon="13.0520192"><ele>165.0</ele><time>2026-04-18T09:33:59.141Z</time></trkpt><trkpt lat="37.8079258" lon="13.0518949"><ele>163.0</ele><time>2026-04-18T09:34:00.142Z</time></trkpt><trkpt lat="37.8081366" lon="13.0517659"><ele>163.0</ele><time>2026-04-18T09:34:01.142Z</time></trkpt><trkpt lat="37.8083481" lon="13.0516383"><ele>163.0</ele><time>2026-04-18T09:34:02.142Z</time></trkpt><trkpt lat="37.808563" lon="13.0515126"><ele>164.5</ele><time>2026-04-18T09:34:03.142Z</time></trkpt><trkpt lat="37.8087797" lon="13.0513899"><ele>166.0</ele><time>2026-04-18T09:34:04.142Z</time></trkpt><trkpt lat="37.8090009" lon="13.0512734"><ele>166.0</ele><time>2026-04-18T09:34:05.141Z</time></trkpt><trkpt lat="37.8092264" lon="13.0511775"><ele>166.0</ele><time>2026-04-18T09:34:06.142Z</time></trkpt><trkpt lat="37.8094515" lon="13.0511066"><ele>165.5</ele><time>2026-04-18T09:34:07.142Z</time></trkpt><trkpt lat="37.8096842" lon="13.051056"><ele>165.0</ele><time>2026-04-18T09:34:08.142Z</time></trkpt><trkpt lat="37.8099184" lon="13.0510187"><ele>165.0</ele><time>2026-04-18T09:34:09.142Z</time></trkpt><trkpt lat="37.8101533" lon="13.0509982"><ele>165.0</ele><time>2026-04-18T09:34:10.142Z</time></trkpt><trkpt lat="37.8103908" lon="13.0509998"><ele>166.0</ele><time>2026-04-18T09:34:11.142Z</time></trkpt><trkpt lat="37.810625" lon="13.0510271"><ele>167.0</ele><time>2026-04-18T09:34:12.141Z</time></trkpt><trkpt lat="37.810857" lon="13.0510819"><ele>167.5</ele><time>2026-04-18T09:34:13.141Z</time></trkpt><trkpt lat="37.8110874" lon="13.0511417"><ele>168.0</ele><time>2026-04-18T09:34:14.141Z</time></trkpt><trkpt lat="37.8113138" lon="13.0512252"><ele>168.0</ele><time>2026-04-18T09:34:15.142Z</time></trkpt><trkpt lat="37.8115349" lon="13.0513266"><ele>168.0</ele><time>2026-04-18T09:34:16.142Z</time></trkpt><trkpt lat="37.8117486" lon="13.0514423"><ele>168.0</ele><time>2026-04-18T09:34:17.141Z</time></trkpt><trkpt lat="37.8119556" lon="13.051577"><ele>168.0</ele><time>2026-04-18T09:34:18.141Z</time></trkpt><trkpt lat="37.812157" lon="13.0517379"><ele>168.0</ele><time>2026-04-18T09:34:19.142Z</time></trkpt><trkpt lat="37.8123459" lon="13.0519191"><ele>168.0</ele><time>2026-04-18T09:34:20.142Z</time></trkpt><trkpt lat="37.8125251" lon="13.0521093"><ele>167.5</ele><time>2026-04-18T09:34:21.142Z</time></trkpt><trkpt lat="37.8126948" lon="13.0523195"><ele>167.0</ele><time>2026-04-18T09:34:22.141Z</time></trkpt><trkpt lat="37.8128602" lon="13.052534"><ele>166.0</ele><time>2026-04-18T09:34:23.141Z</time></trkpt><trkpt lat="37.8130232" lon="13.0527515"><ele>165.0</ele><time>2026-04-18T09:34:24.142Z</time></trkpt><trkpt lat="37.813184" lon="13.0529682"><ele>165.0</ele><time>2026-04-18T09:34:25.142Z</time></trkpt><trkpt lat="37.813347" lon="13.0531852"><ele>165.0</ele><time>2026-04-18T09:34:26.141Z</time></trkpt><trkpt lat="37.8135124" lon="13.0534039"><ele>170.5</ele><time>2026-04-18T09:34:27.141Z</time></trkpt><trkpt lat="37.8136773" lon="13.0536201"><ele>176.0</ele><time>2026-04-18T09:34:28.142Z</time></trkpt><trkpt lat="37.8138417" lon="13.0538346"><ele>176.0</ele><time>2026-04-18T09:34:29.142Z</time></trkpt><trkpt lat="37.8140069" lon="13.0540463"><ele>176.0</ele><time>2026-04-18T09:34:30.142Z</time></trkpt><trkpt lat="37.8141693" lon="13.0542585"><ele>176.5</ele><time>2026-04-18T09:34:31.141Z</time></trkpt><trkpt lat="37.8143325" lon="13.0544772"><ele>177.0</ele><time>2026-04-18T09:34:32.142Z</time></trkpt><trkpt lat="37.8145015" lon="13.0546952"><ele>177.0</ele><time>2026-04-18T09:34:33.142Z</time></trkpt><trkpt lat="37.8146671" lon="13.0549092"><ele>177.0</ele><time>2026-04-18T09:34:34.141Z</time></trkpt><trkpt lat="37.8148296" lon="13.0551252"><ele>175.5</ele><time>2026-04-18T09:34:35.142Z</time></trkpt><trkpt lat="37.8149926" lon="13.055338"><ele>174.0</ele><time>2026-04-18T09:34:36.141Z</time></trkpt><trkpt lat="37.8151639" lon="13.0555481"><ele>174.0</ele><time>2026-04-18T09:34:37.142Z</time></trkpt><trkpt lat="37.8153443" lon="13.0557405"><ele>174.0</ele><time>2026-04-18T09:34:38.142Z</time></trkpt><trkpt lat="37.8155332" lon="13.0559172"><ele>169.5</ele><time>2026-04-18T09:34:39.142Z</time></trkpt><trkpt lat="37.8157331" lon="13.0560698"><ele>165.0</ele><time>2026-04-18T09:34:40.142Z</time></trkpt><trkpt lat="37.8159384" lon="13.0562159"><ele>167.5</ele><time>2026-04-18T09:34:41.142Z</time></trkpt><trkpt lat="37.8161404" lon="13.0563697"><ele>170.0</ele><time>2026-04-18T09:34:42.141Z</time></trkpt><trkpt lat="37.816342" lon="13.0565274"><ele>167.5</ele><time>2026-04-18T09:34:43.141Z</time></trkpt><trkpt lat="37.8165296" lon="13.0567026"><ele>165.0</ele><time>2026-04-18T09:34:44.142Z</time></trkpt><trkpt lat="37.8167147" lon="13.0568932"><ele>167.0</ele><time>2026-04-18T09:34:45.142Z</time></trkpt><trkpt lat="37.8168808" lon="13.0571024"><ele>169.0</ele><time>2026-04-18T09:34:46.142Z</time></trkpt><trkpt lat="37.8170305" lon="13.0573273"><ele>166.5</ele><time>2026-04-18T09:34:47.141Z</time></trkpt><trkpt lat="37.8171616" lon="13.0575744"><ele>164.0</ele><time>2026-04-18T09:34:48.141Z</time></trkpt><trkpt lat="37.8172696" lon="13.0578412"><ele>164.0</ele><time>2026-04-18T09:34:49.141Z</time></trkpt><trkpt lat="37.8173634" lon="13.0581128"><ele>164.0</ele><time>2026-04-18T09:34:50.142Z</time></trkpt><trkpt lat="37.8174419" lon="13.0583906"><ele>164.5</ele><time>2026-04-18T09:34:51.142Z</time></trkpt><trkpt lat="37.8174996" lon="13.0586792"><ele>165.0</ele><time>2026-04-18T09:34:52.142Z</time></trkpt><trkpt lat="37.8175406" lon="13.0589724"><ele>165.0</ele><time>2026-04-18T09:34:53.142Z</time></trkpt><trkpt lat="37.8175668" lon="13.0592672"><ele>165.0</ele><time>2026-04-18T09:34:54.142Z</time></trkpt><trkpt lat="37.8175903" lon="13.059563"><ele>165.0</ele><time>2026-04-18T09:34:55.142Z</time></trkpt><trkpt lat="37.8176116" lon="13.0598671"><ele>165.0</ele><time>2026-04-18T09:34:56.142Z</time></trkpt><trkpt lat="37.8176391" lon="13.0601644"><ele>168.5</ele><time>2026-04-18T09:34:57.141Z</time></trkpt><trkpt lat="37.8176689" lon="13.0604615"><ele>172.0</ele><time>2026-04-18T09:34:58.141Z</time></trkpt><trkpt lat="37.8177002" lon="13.0607571"><ele>174.0</ele><time>2026-04-18T09:34:59.142Z</time></trkpt><trkpt lat="37.8177313" lon="13.0610559"><ele>176.0</ele><time>2026-04-18T09:35:00.142Z</time></trkpt><trkpt lat="37.8177586" lon="13.0613535"><ele>175.0</ele><time>2026-04-18T09:35:01.142Z</time></trkpt><trkpt lat="37.8177921" lon="13.0616482"><ele>174.0</ele><time>2026-04-18T09:35:02.142Z</time></trkpt><trkpt lat="37.81782" lon="13.0619393"><ele>174.0</ele><time>2026-04-18T09:35:03.141Z</time></trkpt><trkpt lat="37.8178449" lon="13.0622338"><ele>174.0</ele><time>2026-04-18T09:35:04.142Z</time></trkpt><trkpt lat="37.8178677" lon="13.0625302"><ele>173.5</ele><time>2026-04-18T09:35:05.141Z</time></trkpt><trkpt lat="37.817894" lon="13.0628273"><ele>173.0</ele><time>2026-04-18T09:35:06.142Z</time></trkpt><trkpt lat="37.8179296" lon="13.0631217"><ele>172.0</ele><time>2026-04-18T09:35:07.142Z</time></trkpt><trkpt lat="37.8179721" lon="13.0634181"><ele>171.0</ele><time>2026-04-18T09:35:08.142Z</time></trkpt><trkpt lat="37.8180269" lon="13.0637056"><ele>171.0</ele><time>2026-04-18T09:35:09.142Z</time></trkpt><trkpt lat="37.818091" lon="13.0639927"><ele>171.0</ele><time>2026-04-18T09:35:10.142Z</time></trkpt><trkpt lat="37.8181633" lon="13.0642721"><ele>171.0</ele><time>2026-04-18T09:35:11.142Z</time></trkpt><trkpt lat="37.8182464" lon="13.0645509"><ele>171.0</ele><time>2026-04-18T09:35:12.142Z</time></trkpt><trkpt lat="37.8183376" lon="13.0648213"><ele>171.5</ele><time>2026-04-18T09:35:13.142Z</time></trkpt><trkpt lat="37.8184396" lon="13.0650915"><ele>172.0</ele><time>2026-04-18T09:35:14.141Z</time></trkpt><trkpt lat="37.8185396" lon="13.0653659"><ele>172.0</ele><time>2026-04-18T09:35:15.142Z</time></trkpt><trkpt lat="37.8186399" lon="13.0656339"><ele>172.0</ele><time>2026-04-18T09:35:16.142Z</time></trkpt><trkpt lat="37.8187444" lon="13.0658977"><ele>171.0</ele><time>2026-04-18T09:35:17.142Z</time></trkpt><trkpt lat="37.8188467" lon="13.0661702"><ele>170.0</ele><time>2026-04-18T09:35:18.141Z</time></trkpt><trkpt lat="37.8189506" lon="13.0664354"><ele>169.5</ele><time>2026-04-18T09:35:19.141Z</time></trkpt><trkpt lat="37.8190593" lon="13.0667027"><ele>169.0</ele><time>2026-04-18T09:35:20.141Z</time></trkpt><trkpt lat="37.8191692" lon="13.0669687"><ele>169.0</ele><time>2026-04-18T09:35:21.142Z</time></trkpt><trkpt lat="37.819276" lon="13.0672355"><ele>169.0</ele><time>2026-04-18T09:35:22.142Z</time></trkpt><trkpt lat="37.8193791" lon="13.0675018"><ele>173.5</ele><time>2026-04-18T09:35:23.141Z</time></trkpt><trkpt lat="37.8194807" lon="13.0677677"><ele>178.0</ele><time>2026-04-18T09:35:24.141Z</time></trkpt><trkpt lat="37.8195838" lon="13.0680361"><ele>175.5</ele><time>2026-04-18T09:35:25.141Z</time></trkpt><trkpt lat="37.8196846" lon="13.0683042"><ele>173.0</ele><time>2026-04-18T09:35:26.142Z</time></trkpt><trkpt lat="37.8197865" lon="13.0685734"><ele>173.0</ele><time>2026-04-18T09:35:27.142Z</time></trkpt><trkpt lat="37.8198925" lon="13.0688425"><ele>173.0</ele><time>2026-04-18T09:35:28.141Z</time></trkpt><trkpt lat="37.8199961" lon="13.0691128"><ele>173.0</ele><time>2026-04-18T09:35:29.142Z</time></trkpt><trkpt lat="37.8201017" lon="13.0693762"><ele>173.0</ele><time>2026-04-18T09:35:30.141Z</time></trkpt><trkpt lat="37.8202032" lon="13.069644"><ele>175.0</ele><time>2026-04-18T09:35:31.142Z</time></trkpt><trkpt lat="37.8203035" lon="13.0699147"><ele>177.0</ele><time>2026-04-18T09:35:32.142Z</time></trkpt><trkpt lat="37.8204057" lon="13.0701802"><ele>177.5</ele><time>2026-04-18T09:35:33.142Z</time></trkpt><trkpt lat="37.8205128" lon="13.0704456"><ele>178.0</ele><time>2026-04-18T09:35:34.141Z</time></trkpt><trkpt lat="37.8206174" lon="13.0707119"><ele>177.5</ele><time>2026-04-18T09:35:35.142Z</time></trkpt><trkpt lat="37.8207209" lon="13.0709758"><ele>177.0</ele><time>2026-04-18T09:35:36.142Z</time></trkpt><trkpt lat="37.8208257" lon="13.0712426"><ele>177.0</ele><time>2026-04-18T09:35:37.142Z</time></trkpt><trkpt lat="37.8209301" lon="13.0715083"><ele>177.0</ele><time>2026-04-18T09:35:38.142Z</time></trkpt><trkpt lat="37.8210338" lon="13.071769"><ele>180.0</ele><time>2026-04-18T09:35:39.142Z</time></trkpt><trkpt lat="37.8211387" lon="13.0720281"><ele>183.0</ele><time>2026-04-18T09:35:40.142Z</time></trkpt><trkpt lat="37.821247" lon="13.072291"><ele>182.0</ele><time>2026-04-18T09:35:41.142Z</time></trkpt><trkpt lat="37.8213643" lon="13.0725563"><ele>181.0</ele><time>2026-04-18T09:35:42.142Z</time></trkpt><trkpt lat="37.821495" lon="13.0728141"><ele>181.0</ele><time>2026-04-18T09:35:43.142Z</time></trkpt><trkpt lat="37.8216375" lon="13.0730509"><ele>181.0</ele><time>2026-04-18T09:35:44.142Z</time></trkpt><trkpt lat="37.8217921" lon="13.0732778"><ele>180.5</ele><time>2026-04-18T09:35:45.141Z</time></trkpt><trkpt lat="37.8219527" lon="13.0734934"><ele>180.0</ele><time>2026-04-18T09:35:46.142Z</time></trkpt><trkpt lat="37.8221213" lon="13.0737031"><ele>180.0</ele><time>2026-04-18T09:35:47.142Z</time></trkpt><trkpt lat="37.822294" lon="13.0739073"><ele>180.0</ele><time>2026-04-18T09:35:48.141Z</time></trkpt><trkpt lat="37.8224675" lon="13.0741054"><ele>179.5</ele><time>2026-04-18T09:35:49.142Z</time></trkpt><trkpt lat="37.8226431" lon="13.0743024"><ele>179.0</ele><time>2026-04-18T09:35:50.142Z</time></trkpt><trkpt lat="37.8228229" lon="13.0744972"><ele>180.5</ele><time>2026-04-18T09:35:51.142Z</time></trkpt><trkpt lat="37.8230032" lon="13.0746933"><ele>182.0</ele><time>2026-04-18T09:35:52.141Z</time></trkpt><trkpt lat="37.8231816" lon="13.0748861"><ele>180.5</ele><time>2026-04-18T09:35:53.141Z</time></trkpt><trkpt lat="37.823361" lon="13.0750796"><ele>179.0</ele><time>2026-04-18T09:35:54.142Z</time></trkpt><trkpt lat="37.823542" lon="13.0752716"><ele>183.0</ele><time>2026-04-18T09:35:55.142Z</time></trkpt><trkpt lat="37.82372" lon="13.0754685"><ele>187.0</ele><time>2026-04-18T09:35:56.141Z</time></trkpt><trkpt lat="37.8239001" lon="13.0756612"><ele>184.5</ele><time>2026-04-18T09:35:57.142Z</time></trkpt><trkpt lat="37.8240771" lon="13.0758531"><ele>182.0</ele><time>2026-04-18T09:35:58.142Z</time></trkpt><trkpt lat="37.8242538" lon="13.0760518"><ele>183.0</ele><time>2026-04-18T09:35:59.141Z</time></trkpt><trkpt lat="37.8244277" lon="13.0762529"><ele>184.0</ele><time>2026-04-18T09:36:00.142Z</time></trkpt><trkpt lat="37.824592" lon="13.0764712"><ele>184.0</ele><time>2026-04-18T09:36:01.142Z</time></trkpt><trkpt lat="37.8247451" lon="13.0767011"><ele>184.0</ele><time>2026-04-18T09:36:02.142Z</time></trkpt><trkpt lat="37.8248805" lon="13.0769474"><ele>184.0</ele><time>2026-04-18T09:36:03.142Z</time></trkpt><trkpt lat="37.8249967" lon="13.0772064"><ele>184.0</ele><time>2026-04-18T09:36:04.142Z</time></trkpt><trkpt lat="37.8250993" lon="13.0774703"><ele>189.0</ele><time>2026-04-18T09:36:05.142Z</time></trkpt><trkpt lat="37.8251777" lon="13.0777458"><ele>194.0</ele><time>2026-04-18T09:36:06.142Z</time></trkpt><trkpt lat="37.8252522" lon="13.0780288"><ele>192.5</ele><time>2026-04-18T09:36:07.142Z</time></trkpt><trkpt lat="37.8253054" lon="13.0783201"><ele>191.0</ele><time>2026-04-18T09:36:08.142Z</time></trkpt><trkpt lat="37.8253453" lon="13.0786149"><ele>191.0</ele><time>2026-04-18T09:36:09.141Z</time></trkpt><trkpt lat="37.8253652" lon="13.0789164"><ele>191.0</ele><time>2026-04-18T09:36:10.142Z</time></trkpt><trkpt lat="37.8253708" lon="13.0792146"><ele>189.5</ele><time>2026-04-18T09:36:11.141Z</time></trkpt><trkpt lat="37.8253532" lon="13.0795109"><ele>188.0</ele><time>2026-04-18T09:36:12.141Z</time></trkpt><trkpt lat="37.8253249" lon="13.0798042"><ele>189.5</ele><time>2026-04-18T09:36:13.142Z</time></trkpt><trkpt lat="37.8252874" lon="13.0800974"><ele>191.0</ele><time>2026-04-18T09:36:14.142Z</time></trkpt><trkpt lat="37.8252467" lon="13.0803911"><ele>191.0</ele><time>2026-04-18T09:36:15.141Z</time></trkpt><trkpt lat="37.8252093" lon="13.0806878"><ele>191.0</ele><time>2026-04-18T09:36:16.142Z</time></trkpt><trkpt lat="37.8251872" lon="13.0809823"><ele>191.0</ele><time>2026-04-18T09:36:17.142Z</time></trkpt><trkpt lat="37.8251853" lon="13.0812852"><ele>191.0</ele><time>2026-04-18T09:36:18.141Z</time></trkpt><trkpt lat="37.8252087" lon="13.0815776"><ele>188.0</ele><time>2026-04-18T09:36:19.142Z</time></trkpt><trkpt lat="37.8252566" lon="13.0818647"><ele>185.0</ele><time>2026-04-18T09:36:20.141Z</time></trkpt><trkpt lat="37.8253205" lon="13.0821437"><ele>185.0</ele><time>2026-04-18T09:36:21.141Z</time></trkpt><trkpt lat="37.8254082" lon="13.0824171"><ele>185.0</ele><time>2026-04-18T09:36:22.142Z</time></trkpt><trkpt lat="37.8255128" lon="13.0826838"><ele>184.0</ele><time>2026-04-18T09:36:23.142Z</time></trkpt><trkpt lat="37.8256317" lon="13.0829306"><ele>183.0</ele><time>2026-04-18T09:36:24.142Z</time></trkpt><trkpt lat="37.8257666" lon="13.083173"><ele>183.0</ele><time>2026-04-18T09:36:25.141Z</time></trkpt><trkpt lat="37.825909" lon="13.0834098"><ele>183.0</ele><time>2026-04-18T09:36:26.142Z</time></trkpt><trkpt lat="37.8260582" lon="13.0836391"><ele>185.0</ele><time>2026-04-18T09:36:27.142Z</time></trkpt><trkpt lat="37.8262106" lon="13.083865"><ele>187.0</ele><time>2026-04-18T09:36:28.142Z</time></trkpt><trkpt lat="37.8263649" lon="13.084091"><ele>187.0</ele><time>2026-04-18T09:36:29.142Z</time></trkpt><trkpt lat="37.826517" lon="13.0843213"><ele>187.0</ele><time>2026-04-18T09:36:30.141Z</time></trkpt><trkpt lat="37.8266713" lon="13.0845494"><ele>189.5</ele><time>2026-04-18T09:36:31.141Z</time></trkpt><trkpt lat="37.8268295" lon="13.0847746"><ele>192.0</ele><time>2026-04-18T09:36:32.142Z</time></trkpt><trkpt lat="37.8269865" lon="13.0849949"><ele>192.0</ele><time>2026-04-18T09:36:33.141Z</time></trkpt><trkpt lat="37.8271406" lon="13.085222"><ele>192.0</ele><time>2026-04-18T09:36:34.142Z</time></trkpt><trkpt lat="37.8272948" lon="13.085448"><ele>192.0</ele><time>2026-04-18T09:36:35.142Z</time></trkpt><trkpt lat="37.8274474" lon="13.0856714"><ele>192.0</ele><time>2026-04-18T09:36:36.142Z</time></trkpt><trkpt lat="37.8275993" lon="13.0858967"><ele>194.0</ele><time>2026-04-18T09:36:37.142Z</time></trkpt><trkpt lat="37.8277535" lon="13.0861225"><ele>196.0</ele><time>2026-04-18T09:36:38.142Z</time></trkpt><trkpt lat="37.827906" lon="13.0863462"><ele>196.0</ele><time>2026-04-18T09:36:39.141Z</time></trkpt><trkpt lat="37.8280618" lon="13.0865746"><ele>196.0</ele><time>2026-04-18T09:36:40.141Z</time></trkpt><trkpt lat="37.8282129" lon="13.0868011"><ele>198.0</ele><time>2026-04-18T09:36:41.142Z</time></trkpt><trkpt lat="37.8283675" lon="13.0870279"><ele>200.0</ele><time>2026-04-18T09:36:42.142Z</time></trkpt><trkpt lat="37.8285235" lon="13.0872515"><ele>197.5</ele><time>2026-04-18T09:36:43.141Z</time></trkpt><trkpt lat="37.8286783" lon="13.0874758"><ele>195.0</ele><time>2026-04-18T09:36:44.142Z</time></trkpt><trkpt lat="37.8288339" lon="13.0877015"><ele>195.0</ele><time>2026-04-18T09:36:45.141Z</time></trkpt><trkpt lat="37.8289904" lon="13.0879266"><ele>195.0</ele><time>2026-04-18T09:36:46.141Z</time></trkpt><trkpt lat="37.8291482" lon="13.088153"><ele>194.0</ele><time>2026-04-18T09:36:47.142Z</time></trkpt><trkpt lat="37.8292995" lon="13.0883789"><ele>193.0</ele><time>2026-04-18T09:36:48.141Z</time></trkpt><trkpt lat="37.8294557" lon="13.0886007"><ele>196.5</ele><time>2026-04-18T09:36:49.141Z</time></trkpt><trkpt lat="37.8296091" lon="13.0888209"><ele>200.0</ele><time>2026-04-18T09:36:50.141Z</time></trkpt><trkpt lat="37.8297647" lon="13.0890452"><ele>200.0</ele><time>2026-04-18T09:36:51.142Z</time></trkpt><trkpt lat="37.8299215" lon="13.0892756"><ele>200.0</ele><time>2026-04-18T09:36:52.142Z</time></trkpt><trkpt lat="37.8300772" lon="13.0895021"><ele>200.5</ele><time>2026-04-18T09:36:53.141Z</time></trkpt><trkpt lat="37.8302303" lon="13.0897309"><ele>201.0</ele><time>2026-04-18T09:36:54.142Z</time></trkpt><trkpt lat="37.8303844" lon="13.0899583"><ele>201.0</ele><time>2026-04-18T09:36:55.142Z</time></trkpt><trkpt lat="37.83054" lon="13.0901888"><ele>201.0</ele><time>2026-04-18T09:36:56.142Z</time></trkpt><trkpt lat="37.8306937" lon="13.090414"><ele>201.0</ele><time>2026-04-18T09:36:57.142Z</time></trkpt><trkpt lat="37.8308451" lon="13.0906409"><ele>201.0</ele><time>2026-04-18T09:36:58.142Z</time></trkpt><trkpt lat="37.831" lon="13.0908685"><ele>200.0</ele><time>2026-04-18T09:36:59.142Z</time></trkpt><trkpt lat="37.8311534" lon="13.0910937"><ele>199.0</ele><time>2026-04-18T09:37:00.142Z</time></trkpt><trkpt lat="37.8313056" lon="13.091317"><ele>199.0</ele><time>2026-04-18T09:37:01.141Z</time></trkpt><trkpt lat="37.8314611" lon="13.0915426"><ele>199.0</ele><time>2026-04-18T09:37:02.141Z</time></trkpt><trkpt lat="37.831617" lon="13.0917671"><ele>199.5</ele><time>2026-04-18T09:37:03.141Z</time></trkpt><trkpt lat="37.8317751" lon="13.0919872"><ele>200.0</ele><time>2026-04-18T09:37:04.141Z</time></trkpt><trkpt lat="37.8319355" lon="13.092209"><ele>199.0</ele><time>2026-04-18T09:37:05.142Z</time></trkpt><trkpt lat="37.8321007" lon="13.0924235"><ele>198.0</ele><time>2026-04-18T09:37:06.142Z</time></trkpt><trkpt lat="37.8322734" lon="13.0926318"><ele>198.0</ele><time>2026-04-18T09:37:07.142Z</time></trkpt><trkpt lat="37.8324538" lon="13.0928255"><ele>198.0</ele><time>2026-04-18T09:37:08.142Z</time></trkpt><trkpt lat="37.8326413" lon="13.0930061"><ele>198.0</ele><time>2026-04-18T09:37:09.142Z</time></trkpt><trkpt lat="37.8328367" lon="13.0931775"><ele>198.0</ele><time>2026-04-18T09:37:10.142Z</time></trkpt><trkpt lat="37.8330354" lon="13.0933393"><ele>198.0</ele><time>2026-04-18T09:37:11.141Z</time></trkpt><trkpt lat="37.8332386" lon="13.0934994"><ele>198.0</ele><time>2026-04-18T09:37:12.142Z</time></trkpt><trkpt lat="37.8334432" lon="13.0936542"><ele>198.5</ele><time>2026-04-18T09:37:13.142Z</time></trkpt><trkpt lat="37.8336448" lon="13.0938054"><ele>199.0</ele><time>2026-04-18T09:37:14.142Z</time></trkpt><trkpt lat="37.8338496" lon="13.093958"><ele>194.0</ele><time>2026-04-18T09:37:15.141Z</time></trkpt><trkpt lat="37.8340562" lon="13.0941048"><ele>189.0</ele><time>2026-04-18T09:37:16.142Z</time></trkpt><trkpt lat="37.8342634" lon="13.0942499"><ele>190.5</ele><time>2026-04-18T09:37:17.141Z</time></trkpt><trkpt lat="37.8344713" lon="13.0943883"><ele>192.0</ele><time>2026-04-18T09:37:18.142Z</time></trkpt><trkpt lat="37.8346786" lon="13.0945316"><ele>192.0</ele><time>2026-04-18T09:37:19.142Z</time></trkpt><trkpt lat="37.8348833" lon="13.0946768"><ele>192.0</ele><time>2026-04-18T09:37:20.142Z</time></trkpt><trkpt lat="37.8350888" lon="13.0948211"><ele>190.5</ele><time>2026-04-18T09:37:21.141Z</time></trkpt><trkpt lat="37.8352952" lon="13.0949639"><ele>189.0</ele><time>2026-04-18T09:37:22.141Z</time></trkpt><trkpt lat="37.8355031" lon="13.0951055"><ele>189.0</ele><time>2026-04-18T09:37:23.142Z</time></trkpt><trkpt lat="37.8357082" lon="13.095248"><ele>189.0</ele><time>2026-04-18T09:37:24.142Z</time></trkpt><trkpt lat="37.8359159" lon="13.0953879"><ele>195.5</ele><time>2026-04-18T09:37:25.142Z</time></trkpt><trkpt lat="37.8361202" lon="13.09553"><ele>202.0</ele><time>2026-04-18T09:37:26.142Z</time></trkpt><trkpt lat="37.8363268" lon="13.0956709"><ele>196.0</ele><time>2026-04-18T09:37:27.141Z</time></trkpt><trkpt lat="37.8365338" lon="13.095809"><ele>190.0</ele><time>2026-04-18T09:37:28.142Z</time></trkpt><trkpt lat="37.8367417" lon="13.0959513"><ele>198.5</ele><time>2026-04-18T09:37:29.142Z</time></trkpt><trkpt lat="37.8369465" lon="13.0960925"><ele>207.0</ele><time>2026-04-18T09:37:30.141Z</time></trkpt><trkpt lat="37.8371531" lon="13.0962378"><ele>207.0</ele><time>2026-04-18T09:37:31.141Z</time></trkpt><trkpt lat="37.8373574" lon="13.0963793"><ele>207.0</ele><time>2026-04-18T09:37:32.141Z</time></trkpt><trkpt lat="37.8375643" lon="13.0965225"><ele>204.0</ele><time>2026-04-18T09:37:33.141Z</time></trkpt><trkpt lat="37.8377741" lon="13.0966638"><ele>201.0</ele><time>2026-04-18T09:37:34.142Z</time></trkpt><trkpt lat="37.8379861" lon="13.096808"><ele>201.0</ele><time>2026-04-18T09:37:35.141Z</time></trkpt><trkpt lat="37.8381941" lon="13.096953"><ele>201.0</ele><time>2026-04-18T09:37:36.141Z</time></trkpt><trkpt lat="37.8384017" lon="13.0970933"><ele>201.0</ele><time>2026-04-18T09:37:37.141Z</time></trkpt><trkpt lat="37.8386087" lon="13.0972345"><ele>201.0</ele><time>2026-04-18T09:37:38.142Z</time></trkpt><trkpt lat="37.8388181" lon="13.0973829"><ele>199.0</ele><time>2026-04-18T09:37:39.142Z</time></trkpt><trkpt lat="37.8390192" lon="13.097533"><ele>197.0</ele><time>2026-04-18T09:37:40.142Z</time></trkpt><trkpt lat="37.8392177" lon="13.0977046"><ele>198.0</ele><time>2026-04-18T09:37:41.141Z</time></trkpt><trkpt lat="37.8393993" lon="13.0979"><ele>199.0</ele><time>2026-04-18T09:37:42.142Z</time></trkpt><trkpt lat="37.8395678" lon="13.0981143"><ele>199.0</ele><time>2026-04-18T09:37:43.141Z</time></trkpt><trkpt lat="37.8397197" lon="13.0983417"><ele>199.0</ele><time>2026-04-18T09:37:44.142Z</time></trkpt><trkpt lat="37.8398677" lon="13.0985775"><ele>199.0</ele><time>2026-04-18T09:37:45.142Z</time></trkpt><trkpt lat="37.8399944" lon="13.0988226"><ele>199.0</ele><time>2026-04-18T09:37:46.141Z</time></trkpt><trkpt lat="37.8401139" lon="13.0990833"><ele>204.5</ele><time>2026-04-18T09:37:47.141Z</time></trkpt><trkpt lat="37.8402309" lon="13.0993416"><ele>210.0</ele><time>2026-04-18T09:37:48.142Z</time></trkpt><trkpt lat="37.8403474" lon="13.0996021"><ele>210.0</ele><time>2026-04-18T09:37:49.142Z</time></trkpt><trkpt lat="37.8404677" lon="13.0998601"><ele>210.0</ele><time>2026-04-18T09:37:50.142Z</time></trkpt><trkpt lat="37.8405866" lon="13.1001196"><ele>207.0</ele><time>2026-04-18T09:37:51.142Z</time></trkpt><trkpt lat="37.840709" lon="13.100378"><ele>204.0</ele><time>2026-04-18T09:37:52.141Z</time></trkpt><trkpt lat="37.8408298" lon="13.1006347"><ele>206.5</ele><time>2026-04-18T09:37:53.142Z</time></trkpt><trkpt lat="37.8409518" lon="13.1008924"><ele>209.0</ele><time>2026-04-18T09:37:54.142Z</time></trkpt><trkpt lat="37.8410729" lon="13.1011517"><ele>209.0</ele><time>2026-04-18T09:37:55.142Z</time></trkpt><trkpt lat="37.8411914" lon="13.1014091"><ele>209.0</ele><time>2026-04-18T09:37:56.141Z</time></trkpt><trkpt lat="37.8413079" lon="13.1016688"><ele>202.0</ele><time>2026-04-18T09:37:57.142Z</time></trkpt><trkpt lat="37.8414203" lon="13.1019296"><ele>195.0</ele><time>2026-04-18T09:37:58.141Z</time></trkpt><trkpt lat="37.8415318" lon="13.1021926"><ele>194.0</ele><time>2026-04-18T09:37:59.141Z</time></trkpt><trkpt lat="37.8416363" lon="13.1024618"><ele>193.0</ele><time>2026-04-18T09:38:00.141Z</time></trkpt><trkpt lat="37.8417269" lon="13.1027367"><ele>198.0</ele><time>2026-04-18T09:38:01.141Z</time></trkpt><trkpt lat="37.8418117" lon="13.1030142"><ele>203.0</ele><time>2026-04-18T09:38:02.141Z</time></trkpt><trkpt lat="37.8418952" lon="13.1032922"><ele>204.0</ele><time>2026-04-18T09:38:03.142Z</time></trkpt><trkpt lat="37.8419804" lon="13.1035724"><ele>205.0</ele><time>2026-04-18T09:38:04.142Z</time></trkpt><trkpt lat="37.8420652" lon="13.1038487"><ele>200.5</ele><time>2026-04-18T09:38:05.142Z</time></trkpt><trkpt lat="37.8421487" lon="13.1041278"><ele>196.0</ele><time>2026-04-18T09:38:06.142Z</time></trkpt><trkpt lat="37.8422342" lon="13.1044072"><ele>196.0</ele><time>2026-04-18T09:38:07.142Z</time></trkpt><trkpt lat="37.8423199" lon="13.1046866"><ele>196.0</ele><time>2026-04-18T09:38:08.142Z</time></trkpt><trkpt lat="37.8424056" lon="13.1049641"><ele>194.5</ele><time>2026-04-18T09:38:09.142Z</time></trkpt><trkpt lat="37.8424917" lon="13.1052387"><ele>193.0</ele><time>2026-04-18T09:38:10.142Z</time></trkpt><trkpt lat="37.8425773" lon="13.1055193"><ele>193.5</ele><time>2026-04-18T09:38:11.142Z</time></trkpt><trkpt lat="37.8426606" lon="13.1057959"><ele>194.0</ele><time>2026-04-18T09:38:12.142Z</time></trkpt><trkpt lat="37.8427445" lon="13.1060774"><ele>194.0</ele><time>2026-04-18T09:38:13.142Z</time></trkpt><trkpt lat="37.8428175" lon="13.106359"><ele>194.0</ele><time>2026-04-18T09:38:14.142Z</time></trkpt><trkpt lat="37.8428728" lon="13.1066443"><ele>195.0</ele><time>2026-04-18T09:38:15.141Z</time></trkpt><trkpt lat="37.8428986" lon="13.1069359"><ele>196.0</ele><time>2026-04-18T09:38:16.142Z</time></trkpt><trkpt lat="37.8428956" lon="13.1072279"><ele>197.5</ele><time>2026-04-18T09:38:17.142Z</time></trkpt><trkpt lat="37.8428686" lon="13.1075194"><ele>199.0</ele><time>2026-04-18T09:38:18.142Z</time></trkpt><trkpt lat="37.8428314" lon="13.1078141"><ele>199.0</ele><time>2026-04-18T09:38:19.142Z</time></trkpt><trkpt lat="37.8427926" lon="13.1081098"><ele>199.0</ele><time>2026-04-18T09:38:20.141Z</time></trkpt><trkpt lat="37.8427508" lon="13.1084072"><ele>200.0</ele><time>2026-04-18T09:38:21.142Z</time></trkpt><trkpt lat="37.8427135" lon="13.108701"><ele>201.0</ele><time>2026-04-18T09:38:22.142Z</time></trkpt><trkpt lat="37.8426772" lon="13.1089919"><ele>201.5</ele><time>2026-04-18T09:38:23.141Z</time></trkpt><trkpt lat="37.8426384" lon="13.1092884"><ele>202.0</ele><time>2026-04-18T09:38:24.142Z</time></trkpt><trkpt lat="37.8425996" lon="13.1095828"><ele>199.5</ele><time>2026-04-18T09:38:25.142Z</time></trkpt><trkpt lat="37.8425651" lon="13.1098809"><ele>197.0</ele><time>2026-04-18T09:38:26.142Z</time></trkpt><trkpt lat="37.8425264" lon="13.1101772"><ele>196.5</ele><time>2026-04-18T09:38:27.142Z</time></trkpt><trkpt lat="37.8424867" lon="13.1104699"><ele>196.0</ele><time>2026-04-18T09:38:28.142Z</time></trkpt><trkpt lat="37.8424457" lon="13.1107649"><ele>198.0</ele><time>2026-04-18T09:38:29.142Z</time></trkpt><trkpt lat="37.8424081" lon="13.1110579"><ele>200.0</ele><time>2026-04-18T09:38:30.141Z</time></trkpt><trkpt lat="37.8423751" lon="13.1113526"><ele>202.5</ele><time>2026-04-18T09:38:31.141Z</time></trkpt><trkpt lat="37.8423523" lon="13.1116483"><ele>205.0</ele><time>2026-04-18T09:38:32.142Z</time></trkpt><trkpt lat="37.8423378" lon="13.1119457"><ele>205.0</ele><time>2026-04-18T09:38:33.142Z</time></trkpt><trkpt lat="37.842332" lon="13.1122415"><ele>205.0</ele><time>2026-04-18T09:38:34.141Z</time></trkpt><trkpt lat="37.8423386" lon="13.1125366"><ele>205.5</ele><time>2026-04-18T09:38:35.142Z</time></trkpt><trkpt lat="37.8423609" lon="13.1128332"><ele>206.0</ele><time>2026-04-18T09:38:36.142Z</time></trkpt><trkpt lat="37.8423943" lon="13.1131262"><ele>207.0</ele><time>2026-04-18T09:38:37.142Z</time></trkpt><trkpt lat="37.8424378" lon="13.113421"><ele>208.0</ele><time>2026-04-18T09:38:38.142Z</time></trkpt><trkpt lat="37.842494" lon="13.1137076"><ele>208.0</ele><time>2026-04-18T09:38:39.141Z</time></trkpt><trkpt lat="37.8425568" lon="13.1139962"><ele>208.0</ele><time>2026-04-18T09:38:40.142Z</time></trkpt><trkpt lat="37.8426261" lon="13.1142819"><ele>214.5</ele><time>2026-04-18T09:38:41.141Z</time></trkpt><trkpt lat="37.84271" lon="13.1145567"><ele>221.0</ele><time>2026-04-18T09:38:42.142Z</time></trkpt><trkpt lat="37.8428089" lon="13.1148254"><ele>218.0</ele><time>2026-04-18T09:38:43.141Z</time></trkpt><trkpt lat="37.8429141" lon="13.1150874"><ele>215.0</ele><time>2026-04-18T09:38:44.142Z</time></trkpt><trkpt lat="37.8430329" lon="13.1153433"><ele>215.0</ele><time>2026-04-18T09:38:45.142Z</time></trkpt><trkpt lat="37.8431596" lon="13.115592"><ele>215.0</ele><time>2026-04-18T09:38:46.142Z</time></trkpt><trkpt lat="37.8432976" lon="13.1158343"><ele>212.5</ele><time>2026-04-18T09:38:47.142Z</time></trkpt><trkpt lat="37.843448" lon="13.1160615"><ele>210.0</ele><time>2026-04-18T09:38:48.141Z</time></trkpt><trkpt lat="37.843605" lon="13.1162795"><ele>215.5</ele><time>2026-04-18T09:38:49.142Z</time></trkpt><trkpt lat="37.8437753" lon="13.1164874"><ele>221.0</ele><time>2026-04-18T09:38:50.142Z</time></trkpt><trkpt lat="37.843953" lon="13.116682"><ele>221.0</ele><time>2026-04-18T09:38:51.141Z</time></trkpt><trkpt lat="37.8441334" lon="13.1168695"><ele>221.0</ele><time>2026-04-18T09:38:52.141Z</time></trkpt><trkpt lat="37.8443128" lon="13.117059"><ele>222.0</ele><time>2026-04-18T09:38:53.142Z</time></trkpt><trkpt lat="37.8444979" lon="13.1172466"><ele>223.0</ele><time>2026-04-18T09:38:54.142Z</time></trkpt><trkpt lat="37.8446837" lon="13.1174309"><ele>223.0</ele><time>2026-04-18T09:38:55.142Z</time></trkpt><trkpt lat="37.8448699" lon="13.1176143"><ele>223.0</ele><time>2026-04-18T09:38:56.142Z</time></trkpt><trkpt lat="37.8450604" lon="13.1177974"><ele>229.5</ele><time>2026-04-18T09:38:57.142Z</time></trkpt><trkpt lat="37.8452476" lon="13.1179795"><ele>236.0</ele><time>2026-04-18T09:38:58.142Z</time></trkpt><trkpt lat="37.8454363" lon="13.1181602"><ele>230.5</ele><time>2026-04-18T09:38:59.141Z</time></trkpt><trkpt lat="37.8456227" lon="13.1183413"><ele>225.0</ele><time>2026-04-18T09:39:00.142Z</time></trkpt><trkpt lat="37.8458091" lon="13.1185243"><ele>230.0</ele><time>2026-04-18T09:39:01.141Z</time></trkpt><trkpt lat="37.8459972" lon="13.1187047"><ele>235.0</ele><time>2026-04-18T09:39:02.141Z</time></trkpt><trkpt lat="37.8461855" lon="13.1188889"><ele>230.5</ele><time>2026-04-18T09:39:03.141Z</time></trkpt><trkpt lat="37.8463698" lon="13.1190735"><ele>226.0</ele><time>2026-04-18T09:39:04.141Z</time></trkpt><trkpt lat="37.846552" lon="13.1192633"><ele>226.0</ele><time>2026-04-18T09:39:05.142Z</time></trkpt><trkpt lat="37.8467314" lon="13.1194546"><ele>226.0</ele><time>2026-04-18T09:39:06.142Z</time></trkpt><trkpt lat="37.846903" lon="13.1196587"><ele>228.0</ele><time>2026-04-18T09:39:07.142Z</time></trkpt><trkpt lat="37.8470725" lon="13.1198733"><ele>230.0</ele><time>2026-04-18T09:39:08.141Z</time></trkpt><trkpt lat="37.8472331" lon="13.1200964"><ele>230.0</ele><time>2026-04-18T09:39:09.142Z</time></trkpt><trkpt lat="37.8473833" lon="13.1203286"><ele>230.0</ele><time>2026-04-18T09:39:10.141Z</time></trkpt><trkpt lat="37.8475262" lon="13.1205613"><ele>235.5</ele><time>2026-04-18T09:39:11.142Z</time></trkpt><trkpt lat="37.8476701" lon="13.120798"><ele>241.0</ele><time>2026-04-18T09:39:12.142Z</time></trkpt><trkpt lat="37.8478115" lon="13.1210404"><ele>241.0</ele><time>2026-04-18T09:39:13.142Z</time></trkpt><trkpt lat="37.84795" lon="13.1212818"><ele>241.0</ele><time>2026-04-18T09:39:14.141Z</time></trkpt><trkpt lat="37.8481062" lon="13.1215081"><ele>239.5</ele><time>2026-04-18T09:39:15.142Z</time></trkpt><trkpt lat="37.8482774" lon="13.1217103"><ele>238.0</ele><time>2026-04-18T09:39:16.142Z</time></trkpt><trkpt lat="37.8484625" lon="13.1218953"><ele>238.0</ele><time>2026-04-18T09:39:17.141Z</time></trkpt><trkpt lat="37.8486636" lon="13.1220483"><ele>238.0</ele><time>2026-04-18T09:39:18.142Z</time></trkpt><trkpt lat="37.8488729" lon="13.1221635"><ele>238.0</ele><time>2026-04-18T09:39:19.142Z</time></trkpt><trkpt lat="37.8490971" lon="13.1222415"><ele>238.0</ele><time>2026-04-18T09:39:20.142Z</time></trkpt><trkpt lat="37.8493269" lon="13.1222959"><ele>240.0</ele><time>2026-04-18T09:39:21.142Z</time></trkpt><trkpt lat="37.8495617" lon="13.1223257"><ele>242.0</ele><time>2026-04-18T09:39:22.142Z</time></trkpt><trkpt lat="37.849799" lon="13.1223292"><ele>242.0</ele><time>2026-04-18T09:39:23.142Z</time></trkpt><trkpt lat="37.8500302" lon="13.1223047"><ele>242.0</ele><time>2026-04-18T09:39:24.142Z</time></trkpt><trkpt lat="37.8502639" lon="13.1222618"><ele>235.5</ele><time>2026-04-18T09:39:25.141Z</time></trkpt><trkpt lat="37.850496" lon="13.1221985"><ele>229.0</ele><time>2026-04-18T09:39:26.142Z</time></trkpt><trkpt lat="37.8507274" lon="13.1221368"><ele>230.0</ele><time>2026-04-18T09:39:27.141Z</time></trkpt><trkpt lat="37.8509618" lon="13.1220847"><ele>231.0</ele><time>2026-04-18T09:39:28.141Z</time></trkpt><trkpt lat="37.8511947" lon="13.1220701"><ele>231.0</ele><time>2026-04-18T09:39:29.142Z</time></trkpt><trkpt lat="37.8514296" lon="13.1220878"><ele>231.0</ele><time>2026-04-18T09:39:30.142Z</time></trkpt><trkpt lat="37.8516616" lon="13.122138"><ele>238.5</ele><time>2026-04-18T09:39:31.142Z</time></trkpt><trkpt lat="37.8518771" lon="13.1222396"><ele>246.0</ele><time>2026-04-18T09:39:32.142Z</time></trkpt><trkpt lat="37.8520864" lon="13.1223705"><ele>240.5</ele><time>2026-04-18T09:39:33.142Z</time></trkpt><trkpt lat="37.8522766" lon="13.1225238"><ele>235.0</ele><time>2026-04-18T09:39:34.142Z</time></trkpt><trkpt lat="37.8524657" lon="13.1226867"><ele>240.5</ele><time>2026-04-18T09:39:35.141Z</time></trkpt><trkpt lat="37.8526645" lon="13.1228508"><ele>246.0</ele><time>2026-04-18T09:39:36.142Z</time></trkpt><trkpt lat="37.8528631" lon="13.1230142"><ele>246.0</ele><time>2026-04-18T09:39:37.142Z</time></trkpt><trkpt lat="37.8530605" lon="13.1231789"><ele>246.0</ele><time>2026-04-18T09:39:38.141Z</time></trkpt><trkpt lat="37.8532612" lon="13.1233415"><ele>246.0</ele><time>2026-04-18T09:39:39.142Z</time></trkpt><trkpt lat="37.8534644" lon="13.1234859"><ele>246.0</ele><time>2026-04-18T09:39:40.142Z</time></trkpt><trkpt lat="37.8536746" lon="13.1236147"><ele>246.0</ele><time>2026-04-18T09:39:41.141Z</time></trkpt><trkpt lat="37.8538951" lon="13.1237223"><ele>246.0</ele><time>2026-04-18T09:39:42.141Z</time></trkpt><trkpt lat="37.8541244" lon="13.1238067"><ele>249.0</ele><time>2026-04-18T09:39:43.141Z</time></trkpt><trkpt lat="37.8543555" lon="13.1238683"><ele>252.0</ele><time>2026-04-18T09:39:44.141Z</time></trkpt><trkpt lat="37.8545841" lon="13.1238999"><ele>252.0</ele><time>2026-04-18T09:39:45.142Z</time></trkpt><trkpt lat="37.8548158" lon="13.1238947"><ele>252.0</ele><time>2026-04-18T09:39:46.142Z</time></trkpt><trkpt lat="37.8550486" lon="13.1238708"><ele>250.5</ele><time>2026-04-18T09:39:47.142Z</time></trkpt><trkpt lat="37.8552853" lon="13.123844"><ele>249.0</ele><time>2026-04-18T09:39:48.142Z</time></trkpt><trkpt lat="37.8555227" lon="13.1238182"><ele>249.0</ele><time>2026-04-18T09:39:49.142Z</time></trkpt><trkpt lat="37.8557601" lon="13.1238008"><ele>249.0</ele><time>2026-04-18T09:39:50.142Z</time></trkpt><trkpt lat="37.8560015" lon="13.1237868"><ele>245.5</ele><time>2026-04-18T09:39:51.142Z</time></trkpt><trkpt lat="37.8562426" lon="13.1237665"><ele>242.0</ele><time>2026-04-18T09:39:52.142Z</time></trkpt><trkpt lat="37.8564831" lon="13.1237487"><ele>242.0</ele><time>2026-04-18T09:39:53.142Z</time></trkpt><trkpt lat="37.8567251" lon="13.1237329"><ele>242.0</ele><time>2026-04-18T09:39:54.142Z</time></trkpt><trkpt lat="37.8569618" lon="13.1237053"><ele>239.5</ele><time>2026-04-18T09:39:55.142Z</time></trkpt><trkpt lat="37.8571953" lon="13.1236806"><ele>237.0</ele><time>2026-04-18T09:39:56.142Z</time></trkpt><trkpt lat="37.8574317" lon="13.1236591"><ele>237.0</ele><time>2026-04-18T09:39:57.141Z</time></trkpt><trkpt lat="37.8576709" lon="13.1236377"><ele>237.0</ele><time>2026-04-18T09:39:58.142Z</time></trkpt><trkpt lat="37.8579061" lon="13.1236221"><ele>237.0</ele><time>2026-04-18T09:39:59.142Z</time></trkpt><trkpt lat="37.8581417" lon="13.1236109"><ele>237.0</ele><time>2026-04-18T09:40:00.142Z</time></trkpt><trkpt lat="37.8583779" lon="13.123606"><ele>235.5</ele><time>2026-04-18T09:40:01.141Z</time></trkpt><trkpt lat="37.8586108" lon="13.1236165"><ele>234.0</ele><time>2026-04-18T09:40:02.142Z</time></trkpt><trkpt lat="37.8588411" lon="13.1236504"><ele>234.0</ele><time>2026-04-18T09:40:03.142Z</time></trkpt><trkpt lat="37.8590732" lon="13.1236957"><ele>234.0</ele><time>2026-04-18T09:40:04.142Z</time></trkpt><trkpt lat="37.859303" lon="13.1237505"><ele>233.0</ele><time>2026-04-18T09:40:05.141Z</time></trkpt><trkpt lat="37.8595263" lon="13.1238371"><ele>232.0</ele><time>2026-04-18T09:40:06.141Z</time></trkpt><trkpt lat="37.8597463" lon="13.1239462"><ele>231.5</ele><time>2026-04-18T09:40:07.142Z</time></trkpt><trkpt lat="37.8599592" lon="13.1240781"><ele>231.0</ele><time>2026-04-18T09:40:08.141Z</time></trkpt><trkpt lat="37.8601614" lon="13.1242309"><ele>234.0</ele><time>2026-04-18T09:40:09.141Z</time></trkpt><trkpt lat="37.8603508" lon="13.1244146"><ele>237.0</ele><time>2026-04-18T09:40:10.141Z</time></trkpt><trkpt lat="37.8605162" lon="13.1246221"><ele>237.0</ele><time>2026-04-18T09:40:11.142Z</time></trkpt><trkpt lat="37.8606755" lon="13.1248376"><ele>237.0</ele><time>2026-04-18T09:40:12.141Z</time></trkpt><trkpt lat="37.8608351" lon="13.1250549"><ele>245.0</ele><time>2026-04-18T09:40:13.142Z</time></trkpt><trkpt lat="37.8609967" lon="13.1252778"><ele>253.0</ele><time>2026-04-18T09:40:14.141Z</time></trkpt><trkpt lat="37.8611546" lon="13.1255062"><ele>246.0</ele><time>2026-04-18T09:40:15.141Z</time></trkpt><trkpt lat="37.861309" lon="13.1257321"><ele>239.0</ele><time>2026-04-18T09:40:16.142Z</time></trkpt><trkpt lat="37.861462" lon="13.1259579"><ele>239.0</ele><time>2026-04-18T09:40:17.142Z</time></trkpt><trkpt lat="37.8616152" lon="13.1261835"><ele>239.0</ele><time>2026-04-18T09:40:18.142Z</time></trkpt><trkpt lat="37.8617683" lon="13.126414"><ele>235.5</ele><time>2026-04-18T09:40:19.142Z</time></trkpt><trkpt lat="37.8619218" lon="13.1266396"><ele>232.0</ele><time>2026-04-18T09:40:20.141Z</time></trkpt><trkpt lat="37.862078" lon="13.1268597"><ele>232.0</ele><time>2026-04-18T09:40:21.142Z</time></trkpt><trkpt lat="37.8622438" lon="13.1270692"><ele>232.0</ele><time>2026-04-18T09:40:22.142Z</time></trkpt><trkpt lat="37.8624237" lon="13.1272555"><ele>232.0</ele><time>2026-04-18T09:40:23.142Z</time></trkpt><trkpt lat="37.8626131" lon="13.1274276"><ele>232.0</ele><time>2026-04-18T09:40:24.142Z</time></trkpt><trkpt lat="37.8628141" lon="13.1275822"><ele>235.5</ele><time>2026-04-18T09:40:25.141Z</time></trkpt><trkpt lat="37.863021" lon="13.1277124"><ele>239.0</ele><time>2026-04-18T09:40:26.141Z</time></trkpt><trkpt lat="37.8632354" lon="13.1278265"><ele>242.5</ele><time>2026-04-18T09:40:27.141Z</time></trkpt><trkpt lat="37.8634577" lon="13.1279218"><ele>246.0</ele><time>2026-04-18T09:40:28.142Z</time></trkpt><trkpt lat="37.8636836" lon="13.1279864"><ele>246.0</ele><time>2026-04-18T09:40:29.141Z</time></trkpt><trkpt lat="37.8639174" lon="13.1280245"><ele>246.0</ele><time>2026-04-18T09:40:30.142Z</time></trkpt><trkpt lat="37.8641529" lon="13.1280247"><ele>246.5</ele><time>2026-04-18T09:40:31.142Z</time></trkpt><trkpt lat="37.8643833" lon="13.1279967"><ele>247.0</ele><time>2026-04-18T09:40:32.142Z</time></trkpt><trkpt lat="37.8646182" lon="13.1279324"><ele>247.0</ele><time>2026-04-18T09:40:33.142Z</time></trkpt><trkpt lat="37.8648414" lon="13.1278521"><ele>247.0</ele><time>2026-04-18T09:40:34.142Z</time></trkpt><trkpt lat="37.8650617" lon="13.1277475"><ele>249.0</ele><time>2026-04-18T09:40:35.142Z</time></trkpt><trkpt lat="37.8652806" lon="13.1276389"><ele>251.0</ele><time>2026-04-18T09:40:36.141Z</time></trkpt><trkpt lat="37.8655004" lon="13.1275399"><ele>251.0</ele><time>2026-04-18T09:40:37.148Z</time></trkpt><trkpt lat="37.8657213" lon="13.1274306"><ele>251.0</ele><time>2026-04-18T09:40:38.148Z</time></trkpt><trkpt lat="37.8659439" lon="13.1273224"><ele>254.5</ele><time>2026-04-18T09:40:39.149Z</time></trkpt><trkpt lat="37.8661645" lon="13.1272136"><ele>258.0</ele><time>2026-04-18T09:40:40.149Z</time></trkpt><trkpt lat="37.8663839" lon="13.1271086"><ele>258.0</ele><time>2026-04-18T09:40:41.149Z</time></trkpt><trkpt lat="37.8666049" lon="13.1269979"><ele>258.0</ele><time>2026-04-18T09:40:42.149Z</time></trkpt><trkpt lat="37.8668253" lon="13.1268888"><ele>258.0</ele><time>2026-04-18T09:40:43.148Z</time></trkpt><trkpt lat="37.867046" lon="13.1267828"><ele>258.0</ele><time>2026-04-18T09:40:44.149Z</time></trkpt><trkpt lat="37.8672664" lon="13.1266738"><ele>258.0</ele><time>2026-04-18T09:40:45.149Z</time></trkpt><trkpt lat="37.8674863" lon="13.1265754"><ele>258.0</ele><time>2026-04-18T09:40:46.149Z</time></trkpt><trkpt lat="37.867714" lon="13.1264933"><ele>261.5</ele><time>2026-04-18T09:40:47.149Z</time></trkpt><trkpt lat="37.8679513" lon="13.1264459"><ele>265.0</ele><time>2026-04-18T09:40:48.148Z</time></trkpt><trkpt lat="37.868188" lon="13.1264315"><ele>265.0</ele><time>2026-04-18T09:40:49.149Z</time></trkpt><trkpt lat="37.8684191" lon="13.1264416"><ele>265.0</ele><time>2026-04-18T09:40:50.148Z</time></trkpt><trkpt lat="37.8686486" lon="13.126478"><ele>265.0</ele><time>2026-04-18T09:40:51.149Z</time></trkpt><trkpt lat="37.868876" lon="13.1265359"><ele>265.0</ele><time>2026-04-18T09:40:52.149Z</time></trkpt><trkpt lat="37.8691018" lon="13.1266109"><ele>268.5</ele><time>2026-04-18T09:40:53.149Z</time></trkpt><trkpt lat="37.8693313" lon="13.1266918"><ele>272.0</ele><time>2026-04-18T09:40:54.148Z</time></trkpt><trkpt lat="37.8695486" lon="13.1268092"><ele>272.0</ele><time>2026-04-18T09:40:55.149Z</time></trkpt><trkpt lat="37.8697484" lon="13.1269552"><ele>272.0</ele><time>2026-04-18T09:40:56.149Z</time></trkpt><trkpt lat="37.8699376" lon="13.1271253"><ele>278.0</ele><time>2026-04-18T09:40:57.149Z</time></trkpt><trkpt lat="37.8701211" lon="13.1273192"><ele>284.0</ele><time>2026-04-18T09:40:58.149Z</time></trkpt><trkpt lat="37.870288" lon="13.1275315"><ele>284.0</ele><time>2026-04-18T09:40:59.149Z</time></trkpt><trkpt lat="37.8704363" lon="13.1277602"><ele>284.0</ele><time>2026-04-18T09:41:00.149Z</time></trkpt><trkpt lat="37.8705753" lon="13.1280052"><ele>281.0</ele><time>2026-04-18T09:41:01.149Z</time></trkpt><trkpt lat="37.8707009" lon="13.1282578"><ele>278.0</ele><time>2026-04-18T09:41:02.149Z</time></trkpt><trkpt lat="37.8708244" lon="13.1285168"><ele>281.0</ele><time>2026-04-18T09:41:03.149Z</time></trkpt><trkpt lat="37.8709479" lon="13.1287742"><ele>284.0</ele><time>2026-04-18T09:41:04.148Z</time></trkpt><trkpt lat="37.8710654" lon="13.1290279"><ele>282.5</ele><time>2026-04-18T09:41:05.149Z</time></trkpt><trkpt lat="37.8711844" lon="13.1292896"><ele>281.0</ele><time>2026-04-18T09:41:06.149Z</time></trkpt><trkpt lat="37.8712928" lon="13.1295508"><ele>281.0</ele><time>2026-04-18T09:41:07.149Z</time></trkpt><trkpt lat="37.8713932" lon="13.129817"><ele>281.0</ele><time>2026-04-18T09:41:08.149Z</time></trkpt><trkpt lat="37.8714834" lon="13.1300968"><ele>283.0</ele><time>2026-04-18T09:41:09.148Z</time></trkpt><trkpt lat="37.8715633" lon="13.1303787"><ele>285.0</ele><time>2026-04-18T09:41:10.148Z</time></trkpt><trkpt lat="37.8716254" lon="13.1306642"><ele>288.0</ele><time>2026-04-18T09:41:11.149Z</time></trkpt><trkpt lat="37.8716651" lon="13.1309596"><ele>291.0</ele><time>2026-04-18T09:41:12.148Z</time></trkpt><trkpt lat="37.8716936" lon="13.1312493"><ele>291.0</ele><time>2026-04-18T09:41:13.149Z</time></trkpt><trkpt lat="37.8717133" lon="13.1315439"><ele>291.0</ele><time>2026-04-18T09:41:14.149Z</time></trkpt><trkpt lat="37.8717249" lon="13.1318416"><ele>293.0</ele><time>2026-04-18T09:41:15.149Z</time></trkpt><trkpt lat="37.8717392" lon="13.1321383"><ele>295.0</ele><time>2026-04-18T09:41:16.148Z</time></trkpt><trkpt lat="37.8717539" lon="13.1324345"><ele>296.0</ele><time>2026-04-18T09:41:17.149Z</time></trkpt><trkpt lat="37.8717731" lon="13.1327313"><ele>297.0</ele><time>2026-04-18T09:41:18.149Z</time></trkpt><trkpt lat="37.8717899" lon="13.1330296"><ele>303.0</ele><time>2026-04-18T09:41:19.149Z</time></trkpt><trkpt lat="37.8718124" lon="13.1333294"><ele>309.0</ele><time>2026-04-18T09:41:20.149Z</time></trkpt><trkpt lat="37.871835" lon="13.1336275"><ele>309.0</ele><time>2026-04-18T09:41:21.148Z</time></trkpt><trkpt lat="37.8718562" lon="13.1339316"><ele>309.0</ele><time>2026-04-18T09:41:22.148Z</time></trkpt><trkpt lat="37.8718773" lon="13.1342305"><ele>311.5</ele><time>2026-04-18T09:41:23.148Z</time></trkpt><trkpt lat="37.8718948" lon="13.1345334"><ele>314.0</ele><time>2026-04-18T09:41:24.148Z</time></trkpt><trkpt lat="37.8719093" lon="13.1348302"><ele>317.0</ele><time>2026-04-18T09:41:25.149Z</time></trkpt><trkpt lat="37.8719291" lon="13.1351268"><ele>320.0</ele><time>2026-04-18T09:41:26.148Z</time></trkpt><trkpt lat="37.8719482" lon="13.1354192"><ele>320.0</ele><time>2026-04-18T09:41:27.149Z</time></trkpt><trkpt lat="37.871972" lon="13.1357122"><ele>320.0</ele><time>2026-04-18T09:41:28.148Z</time></trkpt><trkpt lat="37.8719938" lon="13.1360066"><ele>317.5</ele><time>2026-04-18T09:41:29.149Z</time></trkpt><trkpt lat="37.8720146" lon="13.136305"><ele>315.0</ele><time>2026-04-18T09:41:30.149Z</time></trkpt><trkpt lat="37.8720323" lon="13.1366013"><ele>308.0</ele><time>2026-04-18T09:41:31.148Z</time></trkpt><trkpt lat="37.8720478" lon="13.1368977"><ele>301.0</ele><time>2026-04-18T09:41:32.149Z</time></trkpt><trkpt lat="37.8720662" lon="13.1371938"><ele>298.5</ele><time>2026-04-18T09:41:33.149Z</time></trkpt><trkpt lat="37.8720832" lon="13.1374926"><ele>296.0</ele><time>2026-04-18T09:41:34.148Z</time></trkpt><trkpt lat="37.8720979" lon="13.13779"><ele>296.0</ele><time>2026-04-18T09:41:35.149Z</time></trkpt><trkpt lat="37.8721143" lon="13.1380852"><ele>296.0</ele><time>2026-04-18T09:41:36.149Z</time></trkpt><trkpt lat="37.8721328" lon="13.1383803"><ele>296.5</ele><time>2026-04-18T09:41:37.149Z</time></trkpt><trkpt lat="37.8721545" lon="13.1386763"><ele>297.0</ele><time>2026-04-18T09:41:38.149Z</time></trkpt><trkpt lat="37.8721751" lon="13.138974"><ele>302.0</ele><time>2026-04-18T09:41:39.149Z</time></trkpt><trkpt lat="37.8721947" lon="13.1392728"><ele>307.0</ele><time>2026-04-18T09:41:40.148Z</time></trkpt><trkpt lat="37.8722214" lon="13.1395693"><ele>307.0</ele><time>2026-04-18T09:41:41.149Z</time></trkpt><trkpt lat="37.8722573" lon="13.1398641"><ele>307.0</ele><time>2026-04-18T09:41:42.149Z</time></trkpt><trkpt lat="37.8723034" lon="13.1401586"><ele>310.0</ele><time>2026-04-18T09:41:43.148Z</time></trkpt><trkpt lat="37.8723561" lon="13.1404518"><ele>313.0</ele><time>2026-04-18T09:41:44.148Z</time></trkpt><trkpt lat="37.8724178" lon="13.1407365"><ele>313.0</ele><time>2026-04-18T09:41:45.149Z</time></trkpt><trkpt lat="37.872487" lon="13.1410229"><ele>313.0</ele><time>2026-04-18T09:41:46.149Z</time></trkpt><trkpt lat="37.8725611" lon="13.1413056"><ele>311.0</ele><time>2026-04-18T09:41:47.148Z</time></trkpt><trkpt lat="37.8726406" lon="13.1415853"><ele>309.0</ele><time>2026-04-18T09:41:48.148Z</time></trkpt><trkpt lat="37.8727229" lon="13.141862"><ele>309.0</ele><time>2026-04-18T09:41:49.149Z</time></trkpt><trkpt lat="37.8728072" lon="13.1421391"><ele>309.0</ele><time>2026-04-18T09:41:50.149Z</time></trkpt><trkpt lat="37.8728956" lon="13.1424149"><ele>301.5</ele><time>2026-04-18T09:41:51.149Z</time></trkpt><trkpt lat="37.8729832" lon="13.1426914"><ele>294.0</ele><time>2026-04-18T09:41:52.149Z</time></trkpt><trkpt lat="37.8730698" lon="13.1429692"><ele>293.0</ele><time>2026-04-18T09:41:53.148Z</time></trkpt><trkpt lat="37.8731558" lon="13.1432479"><ele>292.0</ele><time>2026-04-18T09:41:54.149Z</time></trkpt><trkpt lat="37.8732405" lon="13.1435247"><ele>292.0</ele><time>2026-04-18T09:41:55.148Z</time></trkpt><trkpt lat="37.8733287" lon="13.1437994"><ele>292.0</ele><time>2026-04-18T09:41:56.149Z</time></trkpt><trkpt lat="37.8734159" lon="13.1440769"><ele>299.0</ele><time>2026-04-18T09:41:57.149Z</time></trkpt><trkpt lat="37.8735026" lon="13.1443586"><ele>306.0</ele><time>2026-04-18T09:41:58.149Z</time></trkpt><trkpt lat="37.8735901" lon="13.1446384"><ele>309.5</ele><time>2026-04-18T09:41:59.149Z</time></trkpt><trkpt lat="37.8736754" lon="13.1449193"><ele>313.0</ele><time>2026-04-18T09:42:00.149Z</time></trkpt><trkpt lat="37.8737585" lon="13.145198"><ele>313.0</ele><time>2026-04-18T09:42:01.149Z</time></trkpt><trkpt lat="37.8738446" lon="13.1454775"><ele>313.0</ele><time>2026-04-18T09:42:02.148Z</time></trkpt><trkpt lat="37.8739296" lon="13.1457567"><ele>317.0</ele><time>2026-04-18T09:42:03.148Z</time></trkpt><trkpt lat="37.8740145" lon="13.1460346"><ele>321.0</ele><time>2026-04-18T09:42:04.149Z</time></trkpt><trkpt lat="37.8741007" lon="13.1463095"><ele>326.0</ele><time>2026-04-18T09:42:05.149Z</time></trkpt><trkpt lat="37.8741901" lon="13.1465879"><ele>331.0</ele><time>2026-04-18T09:42:06.148Z</time></trkpt><trkpt lat="37.8742807" lon="13.1468627"><ele>333.66666666666663</ele><time>2026-04-18T09:42:07.149Z</time></trkpt><trkpt lat="37.874368" lon="13.1471331"><ele>336.3333333333333</ele><time>2026-04-18T09:42:08.148Z</time></trkpt><trkpt lat="37.8744418" lon="13.147385"><ele>339.0</ele><time>2026-04-18T09:42:09.149Z</time></trkpt><trkpt lat="37.874515" lon="13.14762"><ele>339.0</ele><time>2026-04-18T09:42:10.148Z</time></trkpt><trkpt lat="37.874583" lon="13.1478519"><ele>339.0</ele><time>2026-04-18T09:42:11.148Z</time></trkpt><trkpt lat="37.8746483" lon="13.1480779"><ele>339.0</ele><time>2026-04-18T09:42:12.149Z</time></trkpt><trkpt lat="37.8747141" lon="13.1483095"><ele>335.6666666666667</ele><time>2026-04-18T09:42:13.149Z</time></trkpt><trkpt lat="37.8747816" lon="13.1485403"><ele>332.33333333333337</ele><time>2026-04-18T09:42:14.149Z</time></trkpt><trkpt lat="37.8748477" lon="13.1487716"><ele>329.0</ele><time>2026-04-18T09:42:15.149Z</time></trkpt><trkpt lat="37.8749125" lon="13.1489987"><ele>327.6666666666667</ele><time>2026-04-18T09:42:16.148Z</time></trkpt><trkpt lat="37.8749804" lon="13.1492229"><ele>326.3333333333333</ele><time>2026-04-18T09:42:17.149Z</time></trkpt><trkpt lat="37.8750493" lon="13.149453"><ele>325.0</ele><time>2026-04-18T09:42:18.149Z</time></trkpt><trkpt lat="37.8751258" lon="13.1496818"><ele>328.66666666666663</ele><time>2026-04-18T09:42:19.148Z</time></trkpt><trkpt lat="37.8752106" lon="13.1499034"><ele>332.3333333333333</ele><time>2026-04-18T09:42:20.149Z</time></trkpt><trkpt lat="37.8753058" lon="13.1501238"><ele>336.0</ele><time>2026-04-18T09:42:21.148Z</time></trkpt><trkpt lat="37.8754111" lon="13.1503358"><ele>336.0</ele><time>2026-04-18T09:42:22.149Z</time></trkpt><trkpt lat="37.8755274" lon="13.1505427"><ele>336.0</ele><time>2026-04-18T09:42:23.149Z</time></trkpt><trkpt lat="37.8756514" lon="13.1507399"><ele>336.0</ele><time>2026-04-18T09:42:24.148Z</time></trkpt><trkpt lat="37.8757816" lon="13.1509281"><ele>337.3333333333333</ele><time>2026-04-18T09:42:25.149Z</time></trkpt><trkpt lat="37.8759147" lon="13.1511139"><ele>338.66666666666663</ele><time>2026-04-18T09:42:26.149Z</time></trkpt><trkpt lat="37.8760526" lon="13.1512845"><ele>340.0</ele><time>2026-04-18T09:42:27.149Z</time></trkpt><trkpt lat="37.8761986" lon="13.1514408"><ele>345.3333333333333</ele><time>2026-04-18T09:42:28.149Z</time></trkpt><trkpt lat="37.8763681" lon="13.1515983"><ele>350.6666666666667</ele><time>2026-04-18T09:42:29.148Z</time></trkpt><trkpt lat="37.8765523" lon="13.1517512"><ele>356.0</ele><time>2026-04-18T09:42:30.148Z</time></trkpt><trkpt lat="37.8767372" lon="13.1518867"><ele>359.33333333333337</ele><time>2026-04-18T09:42:31.148Z</time></trkpt><trkpt lat="37.8769176" lon="13.1520029"><ele>362.6666666666667</ele><time>2026-04-18T09:42:32.149Z</time></trkpt><trkpt lat="37.8770941" lon="13.1521045"><ele>366.0</ele><time>2026-04-18T09:42:33.149Z</time></trkpt><trkpt lat="37.877271" lon="13.1521883"><ele>366.0</ele><time>2026-04-18T09:42:34.149Z</time></trkpt><trkpt lat="37.8774526" lon="13.1522561"><ele>366.0</ele><time>2026-04-18T09:42:35.148Z</time></trkpt><trkpt lat="37.8776388" lon="13.1523202"><ele>366.0</ele><time>2026-04-18T09:42:36.149Z</time></trkpt><trkpt lat="37.8778254" lon="13.1523727"><ele>359.6666666666667</ele><time>2026-04-18T09:42:37.149Z</time></trkpt><trkpt lat="37.8780169" lon="13.1524123"><ele>353.33333333333337</ele><time>2026-04-18T09:42:38.149Z</time></trkpt><trkpt lat="37.8782107" lon="13.1524291"><ele>347.0</ele><time>2026-04-18T09:42:39.149Z</time></trkpt><trkpt lat="37.878405" lon="13.1524279"><ele>345.6666666666667</ele><time>2026-04-18T09:42:40.148Z</time></trkpt><trkpt lat="37.8786005" lon="13.1524068"><ele>344.3333333333333</ele><time>2026-04-18T09:42:41.149Z</time></trkpt><trkpt lat="37.8787991" lon="13.1523669"><ele>343.0</ele><time>2026-04-18T09:42:42.149Z</time></trkpt><trkpt lat="37.8790076" lon="13.1523204"><ele>344.66666666666663</ele><time>2026-04-18T09:42:43.149Z</time></trkpt><trkpt lat="37.8792207" lon="13.1522765"><ele>346.3333333333333</ele><time>2026-04-18T09:42:44.149Z</time></trkpt><trkpt lat="37.8794373" lon="13.1522267"><ele>348.0</ele><time>2026-04-18T09:42:45.149Z</time></trkpt><trkpt lat="37.8796627" lon="13.1521781"><ele>348.0</ele><time>2026-04-18T09:42:46.149Z</time></trkpt><trkpt lat="37.8798957" lon="13.1521319"><ele>348.0</ele><time>2026-04-18T09:42:47.148Z</time></trkpt><trkpt lat="37.8801335" lon="13.1520894"><ele>344.5</ele><time>2026-04-18T09:42:48.149Z</time></trkpt><trkpt lat="37.8803692" lon="13.1520469"><ele>341.0</ele><time>2026-04-18T09:42:49.149Z</time></trkpt><trkpt lat="37.8806061" lon="13.1520077"><ele>341.0</ele><time>2026-04-18T09:42:50.149Z</time></trkpt><trkpt lat="37.8808411" lon="13.151966"><ele>341.0</ele><time>2026-04-18T09:42:51.149Z</time></trkpt><trkpt lat="37.8810757" lon="13.1519173"><ele>337.5</ele><time>2026-04-18T09:42:52.148Z</time></trkpt><trkpt lat="37.8813083" lon="13.1518675"><ele>334.0</ele><time>2026-04-18T09:42:53.149Z</time></trkpt><trkpt lat="37.8815402" lon="13.1518201"><ele>332.5</ele><time>2026-04-18T09:42:54.149Z</time></trkpt><trkpt lat="37.8817725" lon="13.151773"><ele>331.0</ele><time>2026-04-18T09:42:55.149Z</time></trkpt><trkpt lat="37.8820044" lon="13.1517249"><ele>331.0</ele><time>2026-04-18T09:42:56.148Z</time></trkpt><trkpt lat="37.8822378" lon="13.151674"><ele>331.0</ele><time>2026-04-18T09:42:57.148Z</time></trkpt><trkpt lat="37.8824716" lon="13.1516251"><ele>331.0</ele><time>2026-04-18T09:42:58.149Z</time></trkpt><trkpt lat="37.8827043" lon="13.151579"><ele>331.0</ele><time>2026-04-18T09:42:59.148Z</time></trkpt><trkpt lat="37.8829367" lon="13.1515341"><ele>331.0</ele><time>2026-04-18T09:43:00.149Z</time></trkpt><trkpt lat="37.8831668" lon="13.1514871"><ele>331.0</ele><time>2026-04-18T09:43:01.149Z</time></trkpt><trkpt lat="37.8833987" lon="13.1514346"><ele>330.0</ele><time>2026-04-18T09:43:02.149Z</time></trkpt><trkpt lat="37.8836313" lon="13.1513881"><ele>329.0</ele><time>2026-04-18T09:43:03.148Z</time></trkpt><trkpt lat="37.8838654" lon="13.1513424"><ele>329.0</ele><time>2026-04-18T09:43:04.149Z</time></trkpt><trkpt lat="37.8840998" lon="13.1512949"><ele>329.0</ele><time>2026-04-18T09:43:05.149Z</time></trkpt><trkpt lat="37.8843347" lon="13.1512444"><ele>328.0</ele><time>2026-04-18T09:43:06.149Z</time></trkpt><trkpt lat="37.8845692" lon="13.1511992"><ele>327.0</ele><time>2026-04-18T09:43:07.149Z</time></trkpt><trkpt lat="37.8848005" lon="13.151156"><ele>327.0</ele><time>2026-04-18T09:43:08.149Z</time></trkpt><trkpt lat="37.8850318" lon="13.1511075"><ele>327.0</ele><time>2026-04-18T09:43:09.149Z</time></trkpt><trkpt lat="37.8852683" lon="13.151061"><ele>326.5</ele><time>2026-04-18T09:43:10.149Z</time></trkpt><trkpt lat="37.8855017" lon="13.1510091"><ele>326.0</ele><time>2026-04-18T09:43:11.149Z</time></trkpt><trkpt lat="37.8857363" lon="13.1509612"><ele>324.5</ele><time>2026-04-18T09:43:12.149Z</time></trkpt><trkpt lat="37.8859717" lon="13.1509076"><ele>323.0</ele><time>2026-04-18T09:43:13.148Z</time></trkpt><trkpt lat="37.8862059" lon="13.1508548"><ele>323.0</ele><time>2026-04-18T09:43:14.149Z</time></trkpt><trkpt lat="37.8864359" lon="13.1508066"><ele>323.0</ele><time>2026-04-18T09:43:15.149Z</time></trkpt><trkpt lat="37.8866712" lon="13.150761"><ele>323.5</ele><time>2026-04-18T09:43:16.148Z</time></trkpt><trkpt lat="37.8869046" lon="13.1507177"><ele>324.0</ele><time>2026-04-18T09:43:17.149Z</time></trkpt><trkpt lat="37.8871375" lon="13.1506732"><ele>324.0</ele><time>2026-04-18T09:43:18.149Z</time></trkpt><trkpt lat="37.887371" lon="13.1506252"><ele>324.0</ele><time>2026-04-18T09:43:19.149Z</time></trkpt><trkpt lat="37.8876023" lon="13.1505776"><ele>320.0</ele><time>2026-04-18T09:43:20.149Z</time></trkpt><trkpt lat="37.8878352" lon="13.1505309"><ele>316.0</ele><time>2026-04-18T09:43:21.149Z</time></trkpt><trkpt lat="37.8880736" lon="13.15048"><ele>316.0</ele><time>2026-04-18T09:43:22.149Z</time></trkpt><trkpt lat="37.88831" lon="13.1504349"><ele>316.0</ele><time>2026-04-18T09:43:23.148Z</time></trkpt><trkpt lat="37.8885444" lon="13.150384"><ele>317.0</ele><time>2026-04-18T09:43:24.149Z</time></trkpt><trkpt lat="37.8887749" lon="13.1503308"><ele>318.0</ele><time>2026-04-18T09:43:25.149Z</time></trkpt><trkpt lat="37.8890056" lon="13.1502756"><ele>318.0</ele><time>2026-04-18T09:43:26.148Z</time></trkpt><trkpt lat="37.8892347" lon="13.1502251"><ele>318.0</ele><time>2026-04-18T09:43:27.149Z</time></trkpt><trkpt lat="37.8894637" lon="13.1501769"><ele>320.5</ele><time>2026-04-18T09:43:28.149Z</time></trkpt><trkpt lat="37.8896927" lon="13.1501285"><ele>323.0</ele><time>2026-04-18T09:43:29.149Z</time></trkpt><trkpt lat="37.8899243" lon="13.1500802"><ele>324.0</ele><time>2026-04-18T09:43:30.148Z</time></trkpt><trkpt lat="37.8901585" lon="13.1500315"><ele>325.0</ele><time>2026-04-18T09:43:31.149Z</time></trkpt><trkpt lat="37.8903908" lon="13.1499881"><ele>325.0</ele><time>2026-04-18T09:43:32.148Z</time></trkpt><trkpt lat="37.8906252" lon="13.1499407"><ele>325.0</ele><time>2026-04-18T09:43:33.149Z</time></trkpt><trkpt lat="37.890859" lon="13.1498972"><ele>330.0</ele><time>2026-04-18T09:43:34.149Z</time></trkpt><trkpt lat="37.8910951" lon="13.1498511"><ele>335.0</ele><time>2026-04-18T09:43:35.148Z</time></trkpt><trkpt lat="37.8913293" lon="13.1498045"><ele>335.0</ele><time>2026-04-18T09:43:36.149Z</time></trkpt><trkpt lat="37.891562" lon="13.1497541"><ele>335.0</ele><time>2026-04-18T09:43:37.148Z</time></trkpt><trkpt lat="37.8917937" lon="13.1497016"><ele>336.0</ele><time>2026-04-18T09:43:38.149Z</time></trkpt><trkpt lat="37.8920247" lon="13.1496404"><ele>337.0</ele><time>2026-04-18T09:43:39.149Z</time></trkpt><trkpt lat="37.8922531" lon="13.1495744"><ele>337.0</ele><time>2026-04-18T09:43:40.149Z</time></trkpt><trkpt lat="37.8924804" lon="13.1495009"><ele>337.0</ele><time>2026-04-18T09:43:41.149Z</time></trkpt><trkpt lat="37.892709" lon="13.1494241"><ele>338.5</ele><time>2026-04-18T09:43:42.149Z</time></trkpt><trkpt lat="37.8929346" lon="13.1493408"><ele>340.0</ele><time>2026-04-18T09:43:43.148Z</time></trkpt><trkpt lat="37.8931595" lon="13.1492516"><ele>340.0</ele><time>2026-04-18T09:43:44.149Z</time></trkpt><trkpt lat="37.8933831" lon="13.1491544"><ele>340.0</ele><time>2026-04-18T09:43:45.149Z</time></trkpt><trkpt lat="37.8936055" lon="13.1490486"><ele>343.0</ele><time>2026-04-18T09:43:46.149Z</time></trkpt><trkpt lat="37.8938282" lon="13.1489424"><ele>346.0</ele><time>2026-04-18T09:43:47.149Z</time></trkpt><trkpt lat="37.8940508" lon="13.1488354"><ele>348.0</ele><time>2026-04-18T09:43:48.148Z</time></trkpt><trkpt lat="37.8942738" lon="13.1487316"><ele>350.0</ele><time>2026-04-18T09:43:49.149Z</time></trkpt><trkpt lat="37.8944978" lon="13.148628"><ele>350.0</ele><time>2026-04-18T09:43:50.149Z</time></trkpt><trkpt lat="37.8947212" lon="13.1485221"><ele>350.0</ele><time>2026-04-18T09:43:51.148Z</time></trkpt><trkpt lat="37.894943" lon="13.14842"><ele>351.0</ele><time>2026-04-18T09:43:52.149Z</time></trkpt><trkpt lat="37.8951658" lon="13.1483176"><ele>352.0</ele><time>2026-04-18T09:43:53.149Z</time></trkpt><trkpt lat="37.8953894" lon="13.1482168"><ele>351.0</ele><time>2026-04-18T09:43:54.149Z</time></trkpt><trkpt lat="37.8956159" lon="13.1481112"><ele>350.0</ele><time>2026-04-18T09:43:55.149Z</time></trkpt><trkpt lat="37.895842" lon="13.1480085"><ele>346.0</ele><time>2026-04-18T09:43:56.149Z</time></trkpt><trkpt lat="37.8960662" lon="13.1479096"><ele>342.0</ele><time>2026-04-18T09:43:57.149Z</time></trkpt><trkpt lat="37.8962944" lon="13.1478064"><ele>342.0</ele><time>2026-04-18T09:43:58.148Z</time></trkpt><trkpt lat="37.8965223" lon="13.1477163"><ele>342.0</ele><time>2026-04-18T09:43:59.148Z</time></trkpt><trkpt lat="37.8967516" lon="13.1476345"><ele>339.0</ele><time>2026-04-18T09:44:00.149Z</time></trkpt><trkpt lat="37.8969844" lon="13.1475764"><ele>336.0</ele><time>2026-04-18T09:44:01.148Z</time></trkpt><trkpt lat="37.8972198" lon="13.1475461"><ele>336.0</ele><time>2026-04-18T09:44:02.149Z</time></trkpt><trkpt lat="37.8974556" lon="13.1475361"><ele>336.0</ele><time>2026-04-18T09:44:03.148Z</time></trkpt><trkpt lat="37.8976897" lon="13.1475575"><ele>333.0</ele><time>2026-04-18T09:44:04.149Z</time></trkpt><trkpt lat="37.897924" lon="13.1475829"><ele>330.0</ele><time>2026-04-18T09:44:05.148Z</time></trkpt><trkpt lat="37.8981562" lon="13.1476309"><ele>330.0</ele><time>2026-04-18T09:44:06.149Z</time></trkpt><trkpt lat="37.8983919" lon="13.1476903"><ele>330.0</ele><time>2026-04-18T09:44:07.149Z</time></trkpt><trkpt lat="37.8986216" lon="13.1477627"><ele>327.0</ele><time>2026-04-18T09:44:08.149Z</time></trkpt><trkpt lat="37.8988503" lon="13.1478446"><ele>324.0</ele><time>2026-04-18T09:44:09.149Z</time></trkpt><trkpt lat="37.8990815" lon="13.147923"><ele>320.5</ele><time>2026-04-18T09:44:10.149Z</time></trkpt><trkpt lat="37.8993111" lon="13.1480055"><ele>317.0</ele><time>2026-04-18T09:44:11.148Z</time></trkpt><trkpt lat="37.8995393" lon="13.1480885"><ele>317.0</ele><time>2026-04-18T09:44:12.149Z</time></trkpt><trkpt lat="37.8997673" lon="13.1481707"><ele>317.0</ele><time>2026-04-18T09:44:13.149Z</time></trkpt><trkpt lat="37.8999967" lon="13.1482538"><ele>315.5</ele><time>2026-04-18T09:44:14.148Z</time></trkpt><trkpt lat="37.9002255" lon="13.1483385"><ele>314.0</ele><time>2026-04-18T09:44:15.149Z</time></trkpt><trkpt lat="37.900453" lon="13.148422"><ele>314.0</ele><time>2026-04-18T09:44:16.149Z</time></trkpt><trkpt lat="37.9006828" lon="13.1484996"><ele>314.0</ele><time>2026-04-18T09:44:17.149Z</time></trkpt><trkpt lat="37.9009158" lon="13.1485702"><ele>310.5</ele><time>2026-04-18T09:44:18.149Z</time></trkpt><trkpt lat="37.9011499" lon="13.1486188"><ele>307.0</ele><time>2026-04-18T09:44:19.149Z</time></trkpt><trkpt lat="37.9013855" lon="13.1486496"><ele>307.0</ele><time>2026-04-18T09:44:20.149Z</time></trkpt><trkpt lat="37.9016212" lon="13.1486594"><ele>307.0</ele><time>2026-04-18T09:44:21.148Z</time></trkpt><trkpt lat="37.9018549" lon="13.1486537"><ele>304.5</ele><time>2026-04-18T09:44:22.148Z</time></trkpt><trkpt lat="37.9020908" lon="13.148626"><ele>302.0</ele><time>2026-04-18T09:44:23.148Z</time></trkpt><trkpt lat="37.9023266" lon="13.1485834"><ele>302.0</ele><time>2026-04-18T09:44:24.149Z</time></trkpt><trkpt lat="37.9025574" lon="13.1485151"><ele>302.0</ele><time>2026-04-18T09:44:25.148Z</time></trkpt><trkpt lat="37.9027825" lon="13.1484236"><ele>300.0</ele><time>2026-04-18T09:44:26.148Z</time></trkpt><trkpt lat="37.9030027" lon="13.1483178"><ele>298.0</ele><time>2026-04-18T09:44:27.149Z</time></trkpt><trkpt lat="37.903218" lon="13.1481932"><ele>292.5</ele><time>2026-04-18T09:44:28.149Z</time></trkpt><trkpt lat="37.9034313" lon="13.1480621"><ele>287.0</ele><time>2026-04-18T09:44:29.148Z</time></trkpt><trkpt lat="37.9036449" lon="13.1479212"><ele>287.0</ele><time>2026-04-18T09:44:30.149Z</time></trkpt><trkpt lat="37.9038527" lon="13.147781"><ele>287.0</ele><time>2026-04-18T09:44:31.148Z</time></trkpt><trkpt lat="37.904062" lon="13.1476284"><ele>287.0</ele><time>2026-04-18T09:44:32.149Z</time></trkpt><trkpt lat="37.9042637" lon="13.1474717"><ele>287.0</ele><time>2026-04-18T09:44:33.149Z</time></trkpt><trkpt lat="37.9044616" lon="13.1473128"><ele>287.0</ele><time>2026-04-18T09:44:34.148Z</time></trkpt><trkpt lat="37.9046578" lon="13.1471497"><ele>287.0</ele><time>2026-04-18T09:44:35.149Z</time></trkpt><trkpt lat="37.9048583" lon="13.1469905"><ele>287.0</ele><time>2026-04-18T09:44:36.148Z</time></trkpt><trkpt lat="37.9050566" lon="13.1468329"><ele>287.0</ele><time>2026-04-18T09:44:37.148Z</time></trkpt><trkpt lat="37.9052549" lon="13.1466736"><ele>285.0</ele><time>2026-04-18T09:44:38.149Z</time></trkpt><trkpt lat="37.905456" lon="13.1465108"><ele>283.0</ele><time>2026-04-18T09:44:39.149Z</time></trkpt><trkpt lat="37.9056557" lon="13.1463539"><ele>283.0</ele><time>2026-04-18T09:44:40.149Z</time></trkpt><trkpt lat="37.9058547" lon="13.1461942"><ele>283.0</ele><time>2026-04-18T09:44:41.149Z</time></trkpt><trkpt lat="37.906054" lon="13.1460345"><ele>283.5</ele><time>2026-04-18T09:44:42.148Z</time></trkpt><trkpt lat="37.9062502" lon="13.1458723"><ele>284.0</ele><time>2026-04-18T09:44:43.148Z</time></trkpt><trkpt lat="37.9064473" lon="13.1457106"><ele>281.0</ele><time>2026-04-18T09:44:44.149Z</time></trkpt><trkpt lat="37.9066445" lon="13.1455448"><ele>278.0</ele><time>2026-04-18T09:44:45.149Z</time></trkpt><trkpt lat="37.9068412" lon="13.1453848"><ele>278.0</ele><time>2026-04-18T09:44:46.149Z</time></trkpt><trkpt lat="37.9070403" lon="13.145223"><ele>278.0</ele><time>2026-04-18T09:44:47.148Z</time></trkpt><trkpt lat="37.9072394" lon="13.1450627"><ele>278.0</ele><time>2026-04-18T09:44:48.149Z</time></trkpt><trkpt lat="37.907438" lon="13.1449064"><ele>278.0</ele><time>2026-04-18T09:44:49.149Z</time></trkpt><trkpt lat="37.9076385" lon="13.144745"><ele>278.5</ele><time>2026-04-18T09:44:50.148Z</time></trkpt><trkpt lat="37.9078402" lon="13.1445833"><ele>279.0</ele><time>2026-04-18T09:44:51.148Z</time></trkpt><trkpt lat="37.9080401" lon="13.1444209"><ele>279.0</ele><time>2026-04-18T09:44:52.148Z</time></trkpt><trkpt lat="37.908243" lon="13.1442605"><ele>279.0</ele><time>2026-04-18T09:44:53.149Z</time></trkpt><trkpt lat="37.9084445" lon="13.1441048"><ele>278.0</ele><time>2026-04-18T09:44:54.149Z</time></trkpt><trkpt lat="37.9086524" lon="13.1439557"><ele>277.0</ele><time>2026-04-18T09:44:55.148Z</time></trkpt><trkpt lat="37.9088616" lon="13.1438225"><ele>277.0</ele><time>2026-04-18T09:44:56.149Z</time></trkpt><trkpt lat="37.9090789" lon="13.1437"><ele>277.0</ele><time>2026-04-18T09:44:57.149Z</time></trkpt><trkpt lat="37.9093037" lon="13.1435907"><ele>271.5</ele><time>2026-04-18T09:44:58.149Z</time></trkpt><trkpt lat="37.9095288" lon="13.1434959"><ele>266.0</ele><time>2026-04-18T09:44:59.149Z</time></trkpt><trkpt lat="37.909755" lon="13.1434319"><ele>266.0</ele><time>2026-04-18T09:45:00.149Z</time></trkpt><trkpt lat="37.9099864" lon="13.143395"><ele>266.0</ele><time>2026-04-18T09:45:01.149Z</time></trkpt><trkpt lat="37.9102185" lon="13.1433937"><ele>264.5</ele><time>2026-04-18T09:45:02.149Z</time></trkpt><trkpt lat="37.9104511" lon="13.1434153"><ele>263.0</ele><time>2026-04-18T09:45:03.149Z</time></trkpt><trkpt lat="37.9106839" lon="13.1434563"><ele>265.0</ele><time>2026-04-18T09:45:04.149Z</time></trkpt><trkpt lat="37.9109135" lon="13.1435144"><ele>267.0</ele><time>2026-04-18T09:45:05.149Z</time></trkpt><trkpt lat="37.9111438" lon="13.1435807"><ele>267.0</ele><time>2026-04-18T09:45:06.149Z</time></trkpt><trkpt lat="37.9113713" lon="13.1436484"><ele>267.0</ele><time>2026-04-18T09:45:07.148Z</time></trkpt><trkpt lat="37.9115972" lon="13.1437213"><ele>268.5</ele><time>2026-04-18T09:45:08.149Z</time></trkpt><trkpt lat="37.9118277" lon="13.1437976"><ele>270.0</ele><time>2026-04-18T09:45:09.149Z</time></trkpt><trkpt lat="37.9120523" lon="13.1438742"><ele>270.0</ele><time>2026-04-18T09:45:10.149Z</time></trkpt><trkpt lat="37.9122791" lon="13.1439458"><ele>270.0</ele><time>2026-04-18T09:45:11.149Z</time></trkpt><trkpt lat="37.912505" lon="13.1440248"><ele>273.5</ele><time>2026-04-18T09:45:12.148Z</time></trkpt><trkpt lat="37.9127327" lon="13.1441028"><ele>277.0</ele><time>2026-04-18T09:45:13.149Z</time></trkpt><trkpt lat="37.9129582" lon="13.1441797"><ele>277.0</ele><time>2026-04-18T09:45:14.149Z</time></trkpt><trkpt lat="37.9131823" lon="13.1442568"><ele>277.0</ele><time>2026-04-18T09:45:15.149Z</time></trkpt><trkpt lat="37.9134057" lon="13.1443369"><ele>280.0</ele><time>2026-04-18T09:45:16.149Z</time></trkpt><trkpt lat="37.9136341" lon="13.1444153"><ele>283.0</ele><time>2026-04-18T09:45:17.148Z</time></trkpt><trkpt lat="37.9138606" lon="13.1444937"><ele>283.0</ele><time>2026-04-18T09:45:18.148Z</time></trkpt><trkpt lat="37.9140882" lon="13.1445718"><ele>283.0</ele><time>2026-04-18T09:45:19.148Z</time></trkpt><trkpt lat="37.9143162" lon="13.1446493"><ele>284.5</ele><time>2026-04-18T09:45:20.149Z</time></trkpt><trkpt lat="37.9145483" lon="13.1447302"><ele>286.0</ele><time>2026-04-18T09:45:21.149Z</time></trkpt><trkpt lat="37.9147747" lon="13.1448117"><ele>287.5</ele><time>2026-04-18T09:45:22.149Z</time></trkpt><trkpt lat="37.9150021" lon="13.1448993"><ele>289.0</ele><time>2026-04-18T09:45:23.148Z</time></trkpt><trkpt lat="37.9152246" lon="13.1449946"><ele>293.5</ele><time>2026-04-18T09:45:24.149Z</time></trkpt><trkpt lat="37.9154432" lon="13.1450992"><ele>298.0</ele><time>2026-04-18T09:45:25.149Z</time></trkpt><trkpt lat="37.9156592" lon="13.145214"><ele>298.0</ele><time>2026-04-18T09:45:26.149Z</time></trkpt><trkpt lat="37.9158689" lon="13.1453429"><ele>298.0</ele><time>2026-04-18T09:45:27.149Z</time></trkpt><trkpt lat="37.9160736" lon="13.1454945"><ele>300.5</ele><time>2026-04-18T09:45:28.148Z</time></trkpt><trkpt lat="37.9162686" lon="13.1456664"><ele>303.0</ele><time>2026-04-18T09:45:29.149Z</time></trkpt><trkpt lat="37.9164499" lon="13.1458574"><ele>303.0</ele><time>2026-04-18T09:45:30.148Z</time></trkpt><trkpt lat="37.9166171" lon="13.1460698"><ele>303.0</ele><time>2026-04-18T09:45:31.148Z</time></trkpt><trkpt lat="37.9167722" lon="13.1463011"><ele>308.0</ele><time>2026-04-18T09:45:32.149Z</time></trkpt><trkpt lat="37.916916" lon="13.14654"><ele>313.0</ele><time>2026-04-18T09:45:33.148Z</time></trkpt><trkpt lat="37.9170474" lon="13.1467855"><ele>313.0</ele><time>2026-04-18T09:45:34.149Z</time></trkpt><trkpt lat="37.9171717" lon="13.1470367"><ele>313.0</ele><time>2026-04-18T09:45:35.148Z</time></trkpt><trkpt lat="37.9172929" lon="13.1472948"><ele>313.5</ele><time>2026-04-18T09:45:36.149Z</time></trkpt><trkpt lat="37.9174042" lon="13.1475544"><ele>314.0</ele><time>2026-04-18T09:45:37.148Z</time></trkpt><trkpt lat="37.9175127" lon="13.1478209"><ele>324.5</ele><time>2026-04-18T09:45:38.149Z</time></trkpt><trkpt lat="37.9176229" lon="13.1480847"><ele>335.0</ele><time>2026-04-18T09:45:39.149Z</time></trkpt><trkpt lat="37.9177272" lon="13.1483469"><ele>335.5</ele><time>2026-04-18T09:45:40.149Z</time></trkpt><trkpt lat="37.9178356" lon="13.1486124"><ele>336.0</ele><time>2026-04-18T09:45:41.149Z</time></trkpt><trkpt lat="37.917945" lon="13.1488772"><ele>332.0</ele><time>2026-04-18T09:45:42.149Z</time></trkpt><trkpt lat="37.9180542" lon="13.1491419"><ele>328.0</ele><time>2026-04-18T09:45:43.149Z</time></trkpt><trkpt lat="37.9181676" lon="13.1494026"><ele>328.0</ele><time>2026-04-18T09:45:44.148Z</time></trkpt><trkpt lat="37.9182805" lon="13.1496682"><ele>328.0</ele><time>2026-04-18T09:45:45.149Z</time></trkpt><trkpt lat="37.9183959" lon="13.1499319"><ele>329.5</ele><time>2026-04-18T09:45:46.149Z</time></trkpt><trkpt lat="37.9185152" lon="13.1501894"><ele>331.0</ele><time>2026-04-18T09:45:47.148Z</time></trkpt><trkpt lat="37.9186412" lon="13.1504427"><ele>331.0</ele><time>2026-04-18T09:45:48.148Z</time></trkpt><trkpt lat="37.9187755" lon="13.1506872"><ele>331.0</ele><time>2026-04-18T09:45:49.149Z</time></trkpt><trkpt lat="37.9189133" lon="13.1509293"><ele>326.5</ele><time>2026-04-18T09:45:50.149Z</time></trkpt><trkpt lat="37.919054" lon="13.1511693"><ele>322.0</ele><time>2026-04-18T09:45:51.149Z</time></trkpt><trkpt lat="37.9191982" lon="13.1514123"><ele>318.5</ele><time>2026-04-18T09:45:52.149Z</time></trkpt><trkpt lat="37.9193474" lon="13.1516481"><ele>315.0</ele><time>2026-04-18T09:45:53.149Z</time></trkpt><trkpt lat="37.9194978" lon="13.1518837"><ele>315.0</ele><time>2026-04-18T09:45:54.149Z</time></trkpt><trkpt lat="37.9196478" lon="13.1521194"><ele>315.0</ele><time>2026-04-18T09:45:55.149Z</time></trkpt><trkpt lat="37.9197944" lon="13.1523494"><ele>311.5</ele><time>2026-04-18T09:45:56.149Z</time></trkpt><trkpt lat="37.9199435" lon="13.152582"><ele>308.0</ele><time>2026-04-18T09:45:57.148Z</time></trkpt><trkpt lat="37.9200934" lon="13.1528181"><ele>308.0</ele><time>2026-04-18T09:45:58.149Z</time></trkpt><trkpt lat="37.9202456" lon="13.153054"><ele>308.0</ele><time>2026-04-18T09:45:59.149Z</time></trkpt><trkpt lat="37.9203981" lon="13.1532847"><ele>312.0</ele><time>2026-04-18T09:46:00.149Z</time></trkpt><trkpt lat="37.920554" lon="13.1535168"><ele>316.0</ele><time>2026-04-18T09:46:01.149Z</time></trkpt><trkpt lat="37.9207041" lon="13.1537503"><ele>316.0</ele><time>2026-04-18T09:46:02.148Z</time></trkpt><trkpt lat="37.9208515" lon="13.1539874"><ele>316.0</ele><time>2026-04-18T09:46:03.148Z</time></trkpt><trkpt lat="37.9209985" lon="13.1542227"><ele>312.0</ele><time>2026-04-18T09:46:04.149Z</time></trkpt><trkpt lat="37.9211449" lon="13.1544591"><ele>308.0</ele><time>2026-04-18T09:46:05.149Z</time></trkpt><trkpt lat="37.9212935" lon="13.1546967"><ele>309.5</ele><time>2026-04-18T09:46:06.149Z</time></trkpt><trkpt lat="37.921443" lon="13.1549324"><ele>311.0</ele><time>2026-04-18T09:46:07.149Z</time></trkpt><trkpt lat="37.9215917" lon="13.1551703"><ele>304.5</ele><time>2026-04-18T09:46:08.149Z</time></trkpt><trkpt lat="37.9217432" lon="13.1554031"><ele>298.0</ele><time>2026-04-18T09:46:09.148Z</time></trkpt><trkpt lat="37.9218926" lon="13.1556309"><ele>300.5</ele><time>2026-04-18T09:46:10.149Z</time></trkpt><trkpt lat="37.9220434" lon="13.1558631"><ele>303.0</ele><time>2026-04-18T09:46:11.148Z</time></trkpt><trkpt lat="37.9221914" lon="13.1560995"><ele>303.0</ele><time>2026-04-18T09:46:12.148Z</time></trkpt><trkpt lat="37.9223355" lon="13.1563372"><ele>303.0</ele><time>2026-04-18T09:46:13.148Z</time></trkpt><trkpt lat="37.9224827" lon="13.1565758"><ele>300.0</ele><time>2026-04-18T09:46:14.149Z</time></trkpt><trkpt lat="37.9226297" lon="13.1568088"><ele>297.0</ele><time>2026-04-18T09:46:15.149Z</time></trkpt><trkpt lat="37.9227785" lon="13.157046"><ele>297.0</ele><time>2026-04-18T09:46:16.148Z</time></trkpt><trkpt lat="37.9229276" lon="13.157277"><ele>297.0</ele><time>2026-04-18T09:46:17.149Z</time></trkpt><trkpt lat="37.9230759" lon="13.1575044"><ele>299.0</ele><time>2026-04-18T09:46:18.148Z</time></trkpt><trkpt lat="37.9232238" lon="13.1577392"><ele>301.0</ele><time>2026-04-18T09:46:19.149Z</time></trkpt><trkpt lat="37.9233733" lon="13.1579778"><ele>297.0</ele><time>2026-04-18T09:46:20.149Z</time></trkpt><trkpt lat="37.9235225" lon="13.1582123"><ele>293.0</ele><time>2026-04-18T09:46:21.149Z</time></trkpt><trkpt lat="37.923673" lon="13.1584442"><ele>293.0</ele><time>2026-04-18T09:46:22.148Z</time></trkpt><trkpt lat="37.9238234" lon="13.1586757"><ele>293.0</ele><time>2026-04-18T09:46:23.149Z</time></trkpt><trkpt lat="37.923975" lon="13.1589074"><ele>295.0</ele><time>2026-04-18T09:46:24.149Z</time></trkpt><trkpt lat="37.9241253" lon="13.159138"><ele>297.0</ele><time>2026-04-18T09:46:25.149Z</time></trkpt><trkpt lat="37.9242802" lon="13.1593649"><ele>292.5</ele><time>2026-04-18T09:46:26.148Z</time></trkpt><trkpt lat="37.9244373" lon="13.1595903"><ele>288.0</ele><time>2026-04-18T09:46:27.149Z</time></trkpt><trkpt lat="37.924596" lon="13.1598113"><ele>285.5</ele><time>2026-04-18T09:46:28.148Z</time></trkpt><trkpt lat="37.9247619" lon="13.1600239"><ele>283.0</ele><time>2026-04-18T09:46:29.149Z</time></trkpt><trkpt lat="37.9249324" lon="13.1602284"><ele>278.0</ele><time>2026-04-18T09:46:30.149Z</time></trkpt><trkpt lat="37.9251133" lon="13.160428"><ele>273.0</ele><time>2026-04-18T09:46:31.149Z</time></trkpt><trkpt lat="37.9252984" lon="13.1606146"><ele>276.5</ele><time>2026-04-18T09:46:32.148Z</time></trkpt><trkpt lat="37.9254877" lon="13.1607995"><ele>280.0</ele><time>2026-04-18T09:46:33.149Z</time></trkpt><trkpt lat="37.9256784" lon="13.1609733"><ele>280.0</ele><time>2026-04-18T09:46:34.149Z</time></trkpt><trkpt lat="37.9258745" lon="13.1611391"><ele>280.0</ele><time>2026-04-18T09:46:35.149Z</time></trkpt><trkpt lat="37.9260771" lon="13.1612949"><ele>281.0</ele><time>2026-04-18T09:46:36.148Z</time></trkpt><trkpt lat="37.9262813" lon="13.1614463"><ele>282.0</ele><time>2026-04-18T09:46:37.148Z</time></trkpt><trkpt lat="37.9264917" lon="13.1615871"><ele>283.5</ele><time>2026-04-18T09:46:38.148Z</time></trkpt><trkpt lat="37.9267078" lon="13.1617247"><ele>285.0</ele><time>2026-04-18T09:46:39.149Z</time></trkpt><trkpt lat="37.9269252" lon="13.161852"><ele>281.0</ele><time>2026-04-18T09:46:40.149Z</time></trkpt><trkpt lat="37.9271445" lon="13.1619701"><ele>277.0</ele><time>2026-04-18T09:46:41.149Z</time></trkpt><trkpt lat="37.9273637" lon="13.162085"><ele>273.5</ele><time>2026-04-18T09:46:42.148Z</time></trkpt><trkpt lat="37.9275854" lon="13.1621866"><ele>270.0</ele><time>2026-04-18T09:46:43.149Z</time></trkpt><trkpt lat="37.9278127" lon="13.1622764"><ele>270.0</ele><time>2026-04-18T09:46:44.149Z</time></trkpt><trkpt lat="37.9280483" lon="13.1623511"><ele>270.0</ele><time>2026-04-18T09:46:45.149Z</time></trkpt><trkpt lat="37.9282761" lon="13.1624183"><ele>270.0</ele><time>2026-04-18T09:46:46.149Z</time></trkpt><trkpt lat="37.928513" lon="13.1624725"><ele>270.0</ele><time>2026-04-18T09:46:47.148Z</time></trkpt><trkpt lat="37.9287474" lon="13.1625227"><ele>270.0</ele><time>2026-04-18T09:46:48.149Z</time></trkpt><trkpt lat="37.9289817" lon="13.1625657"><ele>270.0</ele><time>2026-04-18T09:46:49.148Z</time></trkpt><trkpt lat="37.9292151" lon="13.1625948"><ele>267.5</ele><time>2026-04-18T09:46:50.149Z</time></trkpt><trkpt lat="37.9294452" lon="13.1626149"><ele>265.0</ele><time>2026-04-18T09:46:51.149Z</time></trkpt><trkpt lat="37.9296766" lon="13.1626321"><ele>265.0</ele><time>2026-04-18T09:46:52.149Z</time></trkpt><trkpt lat="37.92991" lon="13.1626382"><ele>265.0</ele><time>2026-04-18T09:46:53.148Z</time></trkpt><trkpt lat="37.9301421" lon="13.162647"><ele>265.5</ele><time>2026-04-18T09:46:54.148Z</time></trkpt><trkpt lat="37.9303786" lon="13.162653"><ele>266.0</ele><time>2026-04-18T09:46:55.149Z</time></trkpt><trkpt lat="37.9306133" lon="13.162656"><ele>266.0</ele><time>2026-04-18T09:46:56.148Z</time></trkpt><trkpt lat="37.9308465" lon="13.1626599"><ele>266.0</ele><time>2026-04-18T09:46:57.149Z</time></trkpt><trkpt lat="37.9310818" lon="13.1626641"><ele>268.0</ele><time>2026-04-18T09:46:58.149Z</time></trkpt><trkpt lat="37.9313206" lon="13.16267"><ele>270.0</ele><time>2026-04-18T09:46:59.149Z</time></trkpt><trkpt lat="37.9315581" lon="13.1626775"><ele>270.0</ele><time>2026-04-18T09:47:00.149Z</time></trkpt><trkpt lat="37.9317921" lon="13.1626845"><ele>270.0</ele><time>2026-04-18T09:47:01.149Z</time></trkpt><trkpt lat="37.9320288" lon="13.1626921"><ele>270.0</ele><time>2026-04-18T09:47:02.148Z</time></trkpt><trkpt lat="37.9322629" lon="13.1626986"><ele>270.0</ele><time>2026-04-18T09:47:03.149Z</time></trkpt><trkpt lat="37.9324976" lon="13.1627062"><ele>270.5</ele><time>2026-04-18T09:47:04.148Z</time></trkpt><trkpt lat="37.9327334" lon="13.1627138"><ele>271.0</ele><time>2026-04-18T09:47:05.149Z</time></trkpt><trkpt lat="37.9329672" lon="13.1627236"><ele>271.0</ele><time>2026-04-18T09:47:06.149Z</time></trkpt><trkpt lat="37.9332013" lon="13.16273"><ele>271.0</ele><time>2026-04-18T09:47:07.148Z</time></trkpt><trkpt lat="37.9334393" lon="13.1627365"><ele>272.0</ele><time>2026-04-18T09:47:08.148Z</time></trkpt><trkpt lat="37.9336773" lon="13.1627428"><ele>273.0</ele><time>2026-04-18T09:47:09.149Z</time></trkpt><trkpt lat="37.9339146" lon="13.1627475"><ele>273.0</ele><time>2026-04-18T09:47:10.148Z</time></trkpt><trkpt lat="37.9341518" lon="13.1627511"><ele>273.0</ele><time>2026-04-18T09:47:11.148Z</time></trkpt><trkpt lat="37.9343887" lon="13.1627559"><ele>274.0</ele><time>2026-04-18T09:47:12.148Z</time></trkpt><trkpt lat="37.9346235" lon="13.1627628"><ele>275.0</ele><time>2026-04-18T09:47:13.149Z</time></trkpt><trkpt lat="37.9348599" lon="13.1627708"><ele>276.5</ele><time>2026-04-18T09:47:14.149Z</time></trkpt><trkpt lat="37.9350972" lon="13.162778"><ele>278.0</ele><time>2026-04-18T09:47:15.148Z</time></trkpt><trkpt lat="37.9353327" lon="13.1627818"><ele>278.0</ele><time>2026-04-18T09:47:16.148Z</time></trkpt><trkpt lat="37.9355709" lon="13.1627882"><ele>278.0</ele><time>2026-04-18T09:47:17.156Z</time></trkpt><trkpt lat="37.9358065" lon="13.1627895"><ele>278.5</ele><time>2026-04-18T09:47:18.155Z</time></trkpt><trkpt lat="37.9360441" lon="13.162797"><ele>279.0</ele><time>2026-04-18T09:47:19.156Z</time></trkpt><trkpt lat="37.9362793" lon="13.1628033"><ele>279.0</ele><time>2026-04-18T09:47:20.156Z</time></trkpt><trkpt lat="37.936514" lon="13.162807"><ele>279.0</ele><time>2026-04-18T09:47:21.156Z</time></trkpt><trkpt lat="37.9367482" lon="13.1628133"><ele>279.5</ele><time>2026-04-18T09:47:22.155Z</time></trkpt><trkpt lat="37.9369816" lon="13.1628231"><ele>280.0</ele><time>2026-04-18T09:47:23.156Z</time></trkpt><trkpt lat="37.9372181" lon="13.1628287"><ele>280.0</ele><time>2026-04-18T09:47:24.155Z</time></trkpt><trkpt lat="37.9374553" lon="13.1628362"><ele>280.0</ele><time>2026-04-18T09:47:25.156Z</time></trkpt><trkpt lat="37.9376939" lon="13.1628433"><ele>281.0</ele><time>2026-04-18T09:47:26.155Z</time></trkpt><trkpt lat="37.9379264" lon="13.1628485"><ele>282.0</ele><time>2026-04-18T09:47:27.156Z</time></trkpt><trkpt lat="37.9381631" lon="13.1628548"><ele>284.5</ele><time>2026-04-18T09:47:28.155Z</time></trkpt><trkpt lat="37.9384006" lon="13.1628617"><ele>287.0</ele><time>2026-04-18T09:47:29.156Z</time></trkpt><trkpt lat="37.9386349" lon="13.1628722"><ele>287.0</ele><time>2026-04-18T09:47:30.155Z</time></trkpt><trkpt lat="37.938872" lon="13.1628773"><ele>287.0</ele><time>2026-04-18T09:47:31.156Z</time></trkpt><trkpt lat="37.9391058" lon="13.162878"><ele>289.5</ele><time>2026-04-18T09:47:32.156Z</time></trkpt><trkpt lat="37.9393413" lon="13.1628784"><ele>292.0</ele><time>2026-04-18T09:47:33.156Z</time></trkpt><trkpt lat="37.9395749" lon="13.1628857"><ele>292.0</ele><time>2026-04-18T09:47:34.156Z</time></trkpt><trkpt lat="37.9398129" lon="13.1628885"><ele>292.0</ele><time>2026-04-18T09:47:35.155Z</time></trkpt><trkpt lat="37.9400548" lon="13.162895"><ele>296.5</ele><time>2026-04-18T09:47:36.155Z</time></trkpt><trkpt lat="37.9402926" lon="13.1629079"><ele>301.0</ele><time>2026-04-18T09:47:37.156Z</time></trkpt><trkpt lat="37.9405268" lon="13.162921"><ele>301.0</ele><time>2026-04-18T09:47:38.156Z</time></trkpt><trkpt lat="37.9407642" lon="13.1629302"><ele>301.0</ele><time>2026-04-18T09:47:39.156Z</time></trkpt><trkpt lat="37.9409992" lon="13.1629428"><ele>303.0</ele><time>2026-04-18T09:47:40.155Z</time></trkpt><trkpt lat="37.9412363" lon="13.1629505"><ele>305.0</ele><time>2026-04-18T09:47:41.156Z</time></trkpt><trkpt lat="37.9414716" lon="13.1629639"><ele>305.0</ele><time>2026-04-18T09:47:42.156Z</time></trkpt><trkpt lat="37.9417062" lon="13.162981"><ele>305.0</ele><time>2026-04-18T09:47:43.155Z</time></trkpt><trkpt lat="37.9419421" lon="13.1630049"><ele>305.5</ele><time>2026-04-18T09:47:44.156Z</time></trkpt><trkpt lat="37.9421763" lon="13.1630402"><ele>306.0</ele><time>2026-04-18T09:47:45.156Z</time></trkpt><trkpt lat="37.9424059" lon="13.1630844"><ele>305.5</ele><time>2026-04-18T09:47:46.156Z</time></trkpt><trkpt lat="37.9426348" lon="13.1631384"><ele>305.0</ele><time>2026-04-18T09:47:47.156Z</time></trkpt><trkpt lat="37.9428682" lon="13.1632019"><ele>300.5</ele><time>2026-04-18T09:47:48.156Z</time></trkpt><trkpt lat="37.9431001" lon="13.1632739"><ele>296.0</ele><time>2026-04-18T09:47:49.155Z</time></trkpt><trkpt lat="37.943323" lon="13.1633627"><ele>300.5</ele><time>2026-04-18T09:47:50.156Z</time></trkpt><trkpt lat="37.9435432" lon="13.1634636"><ele>305.0</ele><time>2026-04-18T09:47:51.155Z</time></trkpt><trkpt lat="37.9437597" lon="13.1635814"><ele>305.0</ele><time>2026-04-18T09:47:52.156Z</time></trkpt><trkpt lat="37.9439741" lon="13.1637162"><ele>305.0</ele><time>2026-04-18T09:47:53.156Z</time></trkpt><trkpt lat="37.9441819" lon="13.1638622"><ele>303.5</ele><time>2026-04-18T09:47:54.156Z</time></trkpt><trkpt lat="37.9443853" lon="13.1640115"><ele>302.0</ele><time>2026-04-18T09:47:55.156Z</time></trkpt><trkpt lat="37.9445885" lon="13.1641679"><ele>302.0</ele><time>2026-04-18T09:47:56.156Z</time></trkpt><trkpt lat="37.9447858" lon="13.1643292"><ele>302.0</ele><time>2026-04-18T09:47:57.156Z</time></trkpt><trkpt lat="37.9449847" lon="13.1644957"><ele>303.5</ele><time>2026-04-18T09:47:58.156Z</time></trkpt><trkpt lat="37.945182" lon="13.1646584"><ele>305.0</ele><time>2026-04-18T09:47:59.155Z</time></trkpt><trkpt lat="37.9453764" lon="13.1648313"><ele>308.5</ele><time>2026-04-18T09:48:00.156Z</time></trkpt><trkpt lat="37.9455682" lon="13.1650021"><ele>312.0</ele><time>2026-04-18T09:48:01.155Z</time></trkpt><trkpt lat="37.9457619" lon="13.1651724"><ele>316.5</ele><time>2026-04-18T09:48:02.155Z</time></trkpt><trkpt lat="37.9459596" lon="13.1653418"><ele>321.0</ele><time>2026-04-18T09:48:03.155Z</time></trkpt><trkpt lat="37.946155" lon="13.1655098"><ele>321.0</ele><time>2026-04-18T09:48:04.156Z</time></trkpt><trkpt lat="37.9463508" lon="13.1656767"><ele>321.0</ele><time>2026-04-18T09:48:05.156Z</time></trkpt><trkpt lat="37.946551" lon="13.165839"><ele>326.5</ele><time>2026-04-18T09:48:06.156Z</time></trkpt><trkpt lat="37.9467544" lon="13.1659942"><ele>332.0</ele><time>2026-04-18T09:48:07.156Z</time></trkpt><trkpt lat="37.9469589" lon="13.1661373"><ele>332.0</ele><time>2026-04-18T09:48:08.156Z</time></trkpt><trkpt lat="37.9471737" lon="13.1662648"><ele>332.0</ele><time>2026-04-18T09:48:09.156Z</time></trkpt><trkpt lat="37.9473892" lon="13.1663765"><ele>334.5</ele><time>2026-04-18T09:48:10.156Z</time></trkpt><trkpt lat="37.9476159" lon="13.166464"><ele>337.0</ele><time>2026-04-18T09:48:11.155Z</time></trkpt><trkpt lat="37.9478472" lon="13.1665191"><ele>330.0</ele><time>2026-04-18T09:48:12.156Z</time></trkpt><trkpt lat="37.9480741" lon="13.1665558"><ele>323.0</ele><time>2026-04-18T09:48:13.155Z</time></trkpt><trkpt lat="37.9483057" lon="13.1665633"><ele>324.0</ele><time>2026-04-18T09:48:14.156Z</time></trkpt><trkpt lat="37.9485424" lon="13.1665528"><ele>325.0</ele><time>2026-04-18T09:48:15.155Z</time></trkpt><trkpt lat="37.9487782" lon="13.1665227"><ele>332.0</ele><time>2026-04-18T09:48:16.156Z</time></trkpt><trkpt lat="37.9490139" lon="13.166478"><ele>339.0</ele><time>2026-04-18T09:48:17.155Z</time></trkpt><trkpt lat="37.9492476" lon="13.1664218"><ele>340.0</ele><time>2026-04-18T09:48:18.156Z</time></trkpt><trkpt lat="37.949483" lon="13.1663632"><ele>341.0</ele><time>2026-04-18T09:48:19.155Z</time></trkpt><trkpt lat="37.9497126" lon="13.1662968"><ele>341.0</ele><time>2026-04-18T09:48:20.155Z</time></trkpt><trkpt lat="37.949941" lon="13.1662282"><ele>341.0</ele><time>2026-04-18T09:48:21.156Z</time></trkpt><trkpt lat="37.9501721" lon="13.166157"><ele>341.5</ele><time>2026-04-18T09:48:22.156Z</time></trkpt><trkpt lat="37.950404" lon="13.166085"><ele>342.0</ele><time>2026-04-18T09:48:23.156Z</time></trkpt><trkpt lat="37.9506343" lon="13.1660153"><ele>342.0</ele><time>2026-04-18T09:48:24.155Z</time></trkpt><trkpt lat="37.9508678" lon="13.1659457"><ele>342.0</ele><time>2026-04-18T09:48:25.155Z</time></trkpt><trkpt lat="37.9510976" lon="13.1658773"><ele>340.5</ele><time>2026-04-18T09:48:26.156Z</time></trkpt><trkpt lat="37.9513286" lon="13.1658068"><ele>339.0</ele><time>2026-04-18T09:48:27.155Z</time></trkpt><trkpt lat="37.951558" lon="13.1657396"><ele>342.0</ele><time>2026-04-18T09:48:28.156Z</time></trkpt><trkpt lat="37.9517871" lon="13.1656714"><ele>345.0</ele><time>2026-04-18T09:48:29.156Z</time></trkpt><trkpt lat="37.9520167" lon="13.1656015"><ele>345.0</ele><time>2026-04-18T09:48:30.156Z</time></trkpt><trkpt lat="37.9522454" lon="13.1655338"><ele>345.0</ele><time>2026-04-18T09:48:31.156Z</time></trkpt><trkpt lat="37.952478" lon="13.1654732"><ele>345.0</ele><time>2026-04-18T09:48:32.156Z</time></trkpt><trkpt lat="37.9527092" lon="13.1654416"><ele>345.0</ele><time>2026-04-18T09:48:33.155Z</time></trkpt><trkpt lat="37.9529365" lon="13.1654447"><ele>345.0</ele><time>2026-04-18T09:48:34.156Z</time></trkpt><trkpt lat="37.9531697" lon="13.165486"><ele>345.0</ele><time>2026-04-18T09:48:35.156Z</time></trkpt><trkpt lat="37.9534063" lon="13.1655607"><ele>345.0</ele><time>2026-04-18T09:48:36.156Z</time></trkpt><trkpt lat="37.9536305" lon="13.1656618"><ele>345.0</ele><time>2026-04-18T09:48:37.155Z</time></trkpt><trkpt lat="37.9538477" lon="13.165789"><ele>345.0</ele><time>2026-04-18T09:48:38.155Z</time></trkpt><trkpt lat="37.9540486" lon="13.1659356"><ele>345.0</ele><time>2026-04-18T09:48:39.156Z</time></trkpt><trkpt lat="37.9542415" lon="13.1661052"><ele>348.5</ele><time>2026-04-18T09:48:40.156Z</time></trkpt><trkpt lat="37.9544172" lon="13.1662994"><ele>352.0</ele><time>2026-04-18T09:48:41.156Z</time></trkpt><trkpt lat="37.9545755" lon="13.1665184"><ele>351.0</ele><time>2026-04-18T09:48:42.156Z</time></trkpt><trkpt lat="37.9547181" lon="13.1667522"><ele>350.0</ele><time>2026-04-18T09:48:43.156Z</time></trkpt><trkpt lat="37.9548508" lon="13.1669924"><ele>350.0</ele><time>2026-04-18T09:48:44.155Z</time></trkpt><trkpt lat="37.9549861" lon="13.167243"><ele>350.0</ele><time>2026-04-18T09:48:45.156Z</time></trkpt><trkpt lat="37.9551192" lon="13.1674899"><ele>345.0</ele><time>2026-04-18T09:48:46.156Z</time></trkpt><trkpt lat="37.9552579" lon="13.1677348"><ele>340.0</ele><time>2026-04-18T09:48:47.156Z</time></trkpt><trkpt lat="37.9554068" lon="13.1679701"><ele>340.0</ele><time>2026-04-18T09:48:48.155Z</time></trkpt><trkpt lat="37.9555679" lon="13.1681894"><ele>340.0</ele><time>2026-04-18T09:48:49.156Z</time></trkpt><trkpt lat="37.9557399" lon="13.1683892"><ele>338.0</ele><time>2026-04-18T09:48:50.155Z</time></trkpt><trkpt lat="37.9559273" lon="13.1685741"><ele>336.0</ele><time>2026-04-18T09:48:51.156Z</time></trkpt><trkpt lat="37.9561248" lon="13.1687346"><ele>336.0</ele><time>2026-04-18T09:48:52.156Z</time></trkpt><trkpt lat="37.9563347" lon="13.1688684"><ele>336.0</ele><time>2026-04-18T09:48:53.156Z</time></trkpt><trkpt lat="37.9565493" lon="13.1689776"><ele>342.5</ele><time>2026-04-18T09:48:54.156Z</time></trkpt><trkpt lat="37.9567721" lon="13.1690751"><ele>349.0</ele><time>2026-04-18T09:48:55.156Z</time></trkpt><trkpt lat="37.9569962" lon="13.169165"><ele>349.0</ele><time>2026-04-18T09:48:56.156Z</time></trkpt><trkpt lat="37.9572239" lon="13.1692475"><ele>349.0</ele><time>2026-04-18T09:48:57.156Z</time></trkpt><trkpt lat="37.9574522" lon="13.1693283"><ele>349.0</ele><time>2026-04-18T09:48:58.155Z</time></trkpt><trkpt lat="37.9576784" lon="13.1694085"><ele>349.0</ele><time>2026-04-18T09:48:59.156Z</time></trkpt><trkpt lat="37.957904" lon="13.1694808"><ele>349.0</ele><time>2026-04-18T09:49:00.156Z</time></trkpt><trkpt lat="37.958117" lon="13.1695495"><ele>349.0</ele><time>2026-04-18T09:49:01.155Z</time></trkpt><trkpt lat="37.9583121" lon="13.1696162"><ele>349.0</ele><time>2026-04-18T09:49:02.156Z</time></trkpt><trkpt lat="37.9584984" lon="13.1696791"><ele>348.66666666666663</ele><time>2026-04-18T09:49:03.156Z</time></trkpt><trkpt lat="37.9586776" lon="13.1697442"><ele>348.3333333333333</ele><time>2026-04-18T09:49:04.156Z</time></trkpt><trkpt lat="37.9588568" lon="13.1698036"><ele>348.0</ele><time>2026-04-18T09:49:05.156Z</time></trkpt><trkpt lat="37.9590368" lon="13.1698616"><ele>349.0</ele><time>2026-04-18T09:49:06.155Z</time></trkpt><trkpt lat="37.9592172" lon="13.1699184"><ele>350.0</ele><time>2026-04-18T09:49:07.156Z</time></trkpt><trkpt lat="37.9594005" lon="13.1699759"><ele>351.0</ele><time>2026-04-18T09:49:08.156Z</time></trkpt><trkpt lat="37.9595848" lon="13.1700308"><ele>351.0</ele><time>2026-04-18T09:49:09.156Z</time></trkpt><trkpt lat="37.9597677" lon="13.1700957"><ele>351.0</ele><time>2026-04-18T09:49:10.156Z</time></trkpt><trkpt lat="37.9599543" lon="13.1701571"><ele>351.0</ele><time>2026-04-18T09:49:11.156Z</time></trkpt><trkpt lat="37.9601401" lon="13.1702128"><ele>350.0</ele><time>2026-04-18T09:49:12.155Z</time></trkpt><trkpt lat="37.9603288" lon="13.1702639"><ele>349.0</ele><time>2026-04-18T09:49:13.155Z</time></trkpt><trkpt lat="37.9605163" lon="13.1703091"><ele>348.0</ele><time>2026-04-18T09:49:14.155Z</time></trkpt><trkpt lat="37.9607024" lon="13.1703513"><ele>346.0</ele><time>2026-04-18T09:49:15.156Z</time></trkpt><trkpt lat="37.9608939" lon="13.1703913"><ele>344.0</ele><time>2026-04-18T09:49:16.156Z</time></trkpt><trkpt lat="37.9610871" lon="13.1704234"><ele>342.0</ele><time>2026-04-18T09:49:17.155Z</time></trkpt><trkpt lat="37.9612785" lon="13.1704465"><ele>342.0</ele><time>2026-04-18T09:49:18.156Z</time></trkpt><trkpt lat="37.9614671" lon="13.1704637"><ele>342.0</ele><time>2026-04-18T09:49:19.155Z</time></trkpt><trkpt lat="37.9616501" lon="13.170475"><ele>342.0</ele><time>2026-04-18T09:49:20.156Z</time></trkpt><trkpt lat="37.9618252" lon="13.1704814"><ele>341.0</ele><time>2026-04-18T09:49:21.156Z</time></trkpt><trkpt lat="37.9620042" lon="13.1704862"><ele>340.0</ele><time>2026-04-18T09:49:22.156Z</time></trkpt><trkpt lat="37.9621907" lon="13.1704848"><ele>339.0</ele><time>2026-04-18T09:49:23.156Z</time></trkpt><trkpt lat="37.9623771" lon="13.1704769"><ele>340.6666666666667</ele><time>2026-04-18T09:49:24.156Z</time></trkpt><trkpt lat="37.9625662" lon="13.1704726"><ele>342.33333333333337</ele><time>2026-04-18T09:49:25.156Z</time></trkpt><trkpt lat="37.9627592" lon="13.1704735"><ele>344.0</ele><time>2026-04-18T09:49:26.155Z</time></trkpt><trkpt lat="37.9629547" lon="13.170472"><ele>344.0</ele><time>2026-04-18T09:49:27.155Z</time></trkpt><trkpt lat="37.9631507" lon="13.1704626"><ele>344.0</ele><time>2026-04-18T09:49:28.155Z</time></trkpt><trkpt lat="37.9633464" lon="13.1704533"><ele>344.0</ele><time>2026-04-18T09:49:29.156Z</time></trkpt><trkpt lat="37.9635358" lon="13.1704482"><ele>346.33333333333337</ele><time>2026-04-18T09:49:30.156Z</time></trkpt><trkpt lat="37.9637234" lon="13.170445"><ele>348.6666666666667</ele><time>2026-04-18T09:49:31.156Z</time></trkpt><trkpt lat="37.9639107" lon="13.1704498"><ele>351.0</ele><time>2026-04-18T09:49:32.156Z</time></trkpt><trkpt lat="37.964098" lon="13.1704571"><ele>353.0</ele><time>2026-04-18T09:49:33.155Z</time></trkpt><trkpt lat="37.9642847" lon="13.17047"><ele>355.0</ele><time>2026-04-18T09:49:34.155Z</time></trkpt><trkpt lat="37.9644705" lon="13.1704889"><ele>357.0</ele><time>2026-04-18T09:49:35.156Z</time></trkpt><trkpt lat="37.9646551" lon="13.1705181"><ele>357.0</ele><time>2026-04-18T09:49:36.156Z</time></trkpt><trkpt lat="37.9648401" lon="13.1705487"><ele>357.0</ele><time>2026-04-18T09:49:37.156Z</time></trkpt><trkpt lat="37.9650211" lon="13.1705865"><ele>357.0</ele><time>2026-04-18T09:49:38.155Z</time></trkpt><trkpt lat="37.9652062" lon="13.1706413"><ele>356.3333333333333</ele><time>2026-04-18T09:49:39.156Z</time></trkpt><trkpt lat="37.9653828" lon="13.1707207"><ele>355.66666666666663</ele><time>2026-04-18T09:49:40.156Z</time></trkpt><trkpt lat="37.9655606" lon="13.1708098"><ele>355.0</ele><time>2026-04-18T09:49:41.156Z</time></trkpt><trkpt lat="37.9657341" lon="13.1709054"><ele>351.0</ele><time>2026-04-18T09:49:42.156Z</time></trkpt><trkpt lat="37.965902" lon="13.1710032"><ele>347.0</ele><time>2026-04-18T09:49:43.156Z</time></trkpt><trkpt lat="37.9660688" lon="13.1710993"><ele>343.0</ele><time>2026-04-18T09:49:44.156Z</time></trkpt><trkpt lat="37.9662354" lon="13.1711944"><ele>343.0</ele><time>2026-04-18T09:49:45.155Z</time></trkpt><trkpt lat="37.9664024" lon="13.1713019"><ele>343.0</ele><time>2026-04-18T09:49:46.156Z</time></trkpt><trkpt lat="37.9665672" lon="13.1714171"><ele>343.0</ele><time>2026-04-18T09:49:47.156Z</time></trkpt><trkpt lat="37.9667305" lon="13.1715365"><ele>342.66666666666663</ele><time>2026-04-18T09:49:48.156Z</time></trkpt><trkpt lat="37.9668957" lon="13.1716648"><ele>342.3333333333333</ele><time>2026-04-18T09:49:49.156Z</time></trkpt><trkpt lat="37.96706" lon="13.1717956"><ele>342.0</ele><time>2026-04-18T09:49:50.155Z</time></trkpt><trkpt lat="37.9672309" lon="13.1719311"><ele>342.0</ele><time>2026-04-18T09:49:51.156Z</time></trkpt><trkpt lat="37.9673988" lon="13.1720607"><ele>342.0</ele><time>2026-04-18T09:49:52.156Z</time></trkpt><trkpt lat="37.9675626" lon="13.1721922"><ele>342.0</ele><time>2026-04-18T09:49:53.156Z</time></trkpt><trkpt lat="37.967729" lon="13.172321"><ele>345.0</ele><time>2026-04-18T09:49:54.155Z</time></trkpt><trkpt lat="37.9678948" lon="13.1724469"><ele>348.0</ele><time>2026-04-18T09:49:55.155Z</time></trkpt><trkpt lat="37.968063" lon="13.1725721"><ele>351.0</ele><time>2026-04-18T09:49:56.155Z</time></trkpt><trkpt lat="37.968228" lon="13.1726918"><ele>350.0</ele><time>2026-04-18T09:49:57.156Z</time></trkpt><trkpt lat="37.9683944" lon="13.1728072"><ele>349.0</ele><time>2026-04-18T09:49:58.156Z</time></trkpt><trkpt lat="37.9685614" lon="13.1729225"><ele>348.0</ele><time>2026-04-18T09:49:59.156Z</time></trkpt><trkpt lat="37.9687251" lon="13.1730341"><ele>348.0</ele><time>2026-04-18T09:50:00.155Z</time></trkpt><trkpt lat="37.9688939" lon="13.1731458"><ele>348.0</ele><time>2026-04-18T09:50:01.155Z</time></trkpt><trkpt lat="37.9690637" lon="13.1732501"><ele>348.0</ele><time>2026-04-18T09:50:02.156Z</time></trkpt><trkpt lat="37.969235" lon="13.1733471"><ele>352.0</ele><time>2026-04-18T09:50:03.156Z</time></trkpt><trkpt lat="37.9694042" lon="13.1734361"><ele>356.0</ele><time>2026-04-18T09:50:04.156Z</time></trkpt><trkpt lat="37.9695727" lon="13.1735231"><ele>360.0</ele><time>2026-04-18T09:50:05.156Z</time></trkpt><trkpt lat="37.969741" lon="13.1736089"><ele>360.0</ele><time>2026-04-18T09:50:06.156Z</time></trkpt><trkpt lat="37.969908" lon="13.1736966"><ele>360.0</ele><time>2026-04-18T09:50:07.156Z</time></trkpt><trkpt lat="37.9700741" lon="13.1737841"><ele>360.0</ele><time>2026-04-18T09:50:08.156Z</time></trkpt><trkpt lat="37.9702384" lon="13.1738658"><ele>359.6666666666667</ele><time>2026-04-18T09:50:09.155Z</time></trkpt><trkpt lat="37.9704084" lon="13.1739468"><ele>359.33333333333337</ele><time>2026-04-18T09:50:10.155Z</time></trkpt><trkpt lat="37.9705791" lon="13.1740289"><ele>359.0</ele><time>2026-04-18T09:50:11.156Z</time></trkpt><trkpt lat="37.9707536" lon="13.1741106"><ele>363.33333333333337</ele><time>2026-04-18T09:50:12.156Z</time></trkpt><trkpt lat="37.9709245" lon="13.174194"><ele>367.6666666666667</ele><time>2026-04-18T09:50:13.156Z</time></trkpt><trkpt lat="37.9710867" lon="13.1742723"><ele>372.0</ele><time>2026-04-18T09:50:14.155Z</time></trkpt><trkpt lat="37.9712396" lon="13.1743507"><ele>372.0</ele><time>2026-04-18T09:50:15.156Z</time></trkpt><trkpt lat="37.9713931" lon="13.1744261"><ele>372.0</ele><time>2026-04-18T09:50:16.156Z</time></trkpt><trkpt lat="37.9715485" lon="13.1745067"><ele>372.0</ele><time>2026-04-18T09:50:17.156Z</time></trkpt><trkpt lat="37.9716985" lon="13.1745896"><ele>370.3333333333333</ele><time>2026-04-18T09:50:18.156Z</time></trkpt><trkpt lat="37.971845" lon="13.1746804"><ele>368.66666666666663</ele><time>2026-04-18T09:50:19.156Z</time></trkpt><trkpt lat="37.9719907" lon="13.1747741"><ele>367.0</ele><time>2026-04-18T09:50:20.156Z</time></trkpt><trkpt lat="37.9721365" lon="13.1748637"><ele>368.0</ele><time>2026-04-18T09:50:21.156Z</time></trkpt><trkpt lat="37.9722756" lon="13.1749584"><ele>369.0</ele><time>2026-04-18T09:50:22.155Z</time></trkpt><trkpt lat="37.9724101" lon="13.1750569"><ele>370.0</ele><time>2026-04-18T09:50:23.156Z</time></trkpt><trkpt lat="37.9725444" lon="13.1751588"><ele>370.0</ele><time>2026-04-18T09:50:24.155Z</time></trkpt><trkpt lat="37.9726771" lon="13.1752618"><ele>370.0</ele><time>2026-04-18T09:50:25.156Z</time></trkpt><trkpt lat="37.9728078" lon="13.1753706"><ele>370.0</ele><time>2026-04-18T09:50:26.156Z</time></trkpt><trkpt lat="37.9729347" lon="13.1754874"><ele>370.0</ele><time>2026-04-18T09:50:27.156Z</time></trkpt><trkpt lat="37.9730588" lon="13.1756114"><ele>370.0</ele><time>2026-04-18T09:50:28.156Z</time></trkpt><trkpt lat="37.9731787" lon="13.1757462"><ele>370.0</ele><time>2026-04-18T09:50:29.156Z</time></trkpt><trkpt lat="37.9732956" lon="13.1758902"><ele>368.0</ele><time>2026-04-18T09:50:30.156Z</time></trkpt><trkpt lat="37.9734064" lon="13.1760396"><ele>366.0</ele><time>2026-04-18T09:50:31.156Z</time></trkpt><trkpt lat="37.9735158" lon="13.1761976"><ele>364.0</ele><time>2026-04-18T09:50:32.156Z</time></trkpt><trkpt lat="37.9736224" lon="13.1763591"><ele>367.3333333333333</ele><time>2026-04-18T09:50:33.156Z</time></trkpt><trkpt lat="37.973725" lon="13.1765243"><ele>370.6666666666667</ele><time>2026-04-18T09:50:34.155Z</time></trkpt><trkpt lat="37.973826" lon="13.1766936"><ele>374.0</ele><time>2026-04-18T09:50:35.156Z</time></trkpt><trkpt lat="37.9739227" lon="13.1768698"><ele>374.0</ele><time>2026-04-18T09:50:36.156Z</time></trkpt><trkpt lat="37.9740169" lon="13.1770476"><ele>374.0</ele><time>2026-04-18T09:50:37.155Z</time></trkpt><trkpt lat="37.9741125" lon="13.1772278"><ele>374.0</ele><time>2026-04-18T09:50:38.155Z</time></trkpt><trkpt lat="37.9742039" lon="13.1774091"><ele>375.6666666666667</ele><time>2026-04-18T09:50:39.156Z</time></trkpt><trkpt lat="37.9742936" lon="13.1775922"><ele>377.3333333333333</ele><time>2026-04-18T09:50:40.156Z</time></trkpt><trkpt lat="37.9743808" lon="13.1777874"><ele>379.0</ele><time>2026-04-18T09:50:41.155Z</time></trkpt><trkpt lat="37.9744686" lon="13.1779821"><ele>379.0</ele><time>2026-04-18T09:50:42.155Z</time></trkpt><trkpt lat="37.9745553" lon="13.1781805"><ele>379.0</ele><time>2026-04-18T09:50:43.156Z</time></trkpt><trkpt lat="37.9746383" lon="13.1783827"><ele>379.0</ele><time>2026-04-18T09:50:44.155Z</time></trkpt><trkpt lat="37.9747219" lon="13.1785875"><ele>382.3333333333333</ele><time>2026-04-18T09:50:45.156Z</time></trkpt><trkpt lat="37.9748011" lon="13.1787923"><ele>385.66666666666663</ele><time>2026-04-18T09:50:46.156Z</time></trkpt><trkpt lat="37.9748874" lon="13.179"><ele>389.0</ele><time>2026-04-18T09:50:47.156Z</time></trkpt><trkpt lat="37.9749738" lon="13.1792052"><ele>388.66666666666663</ele><time>2026-04-18T09:50:48.156Z</time></trkpt><trkpt lat="37.9750619" lon="13.1794222"><ele>388.33333333333337</ele><time>2026-04-18T09:50:49.155Z</time></trkpt><trkpt lat="37.9751543" lon="13.179637"><ele>388.0</ele><time>2026-04-18T09:50:50.156Z</time></trkpt><trkpt lat="37.9752426" lon="13.1798546"><ele>390.6666666666667</ele><time>2026-04-18T09:50:51.156Z</time></trkpt><trkpt lat="37.9753302" lon="13.1800718"><ele>393.33333333333337</ele><time>2026-04-18T09:50:52.156Z</time></trkpt><trkpt lat="37.9754178" lon="13.180293"><ele>396.0</ele><time>2026-04-18T09:50:53.156Z</time></trkpt><trkpt lat="37.9755045" lon="13.1805188"><ele>398.33333333333337</ele><time>2026-04-18T09:50:54.155Z</time></trkpt><trkpt lat="37.9755913" lon="13.1807429"><ele>400.6666666666667</ele><time>2026-04-18T09:50:55.156Z</time></trkpt><trkpt lat="37.975674" lon="13.1809726"><ele>403.0</ele><time>2026-04-18T09:50:56.155Z</time></trkpt><trkpt lat="37.9757544" lon="13.1812043"><ele>403.0</ele><time>2026-04-18T09:50:57.155Z</time></trkpt><trkpt lat="37.9758356" lon="13.1814357"><ele>403.0</ele><time>2026-04-18T09:50:58.155Z</time></trkpt><trkpt lat="37.9759202" lon="13.1816702"><ele>403.0</ele><time>2026-04-18T09:50:59.156Z</time></trkpt><trkpt lat="37.9760043" lon="13.181903"><ele>401.6666666666667</ele><time>2026-04-18T09:51:00.155Z</time></trkpt><trkpt lat="37.9760821" lon="13.1821408"><ele>400.33333333333337</ele><time>2026-04-18T09:51:01.156Z</time></trkpt><trkpt lat="37.9761562" lon="13.1823789"><ele>399.0</ele><time>2026-04-18T09:51:02.156Z</time></trkpt><trkpt lat="37.9762267" lon="13.1826161"><ele>398.66666666666663</ele><time>2026-04-18T09:51:03.155Z</time></trkpt><trkpt lat="37.9762923" lon="13.18286"><ele>398.3333333333333</ele><time>2026-04-18T09:51:04.156Z</time></trkpt><trkpt lat="37.9763565" lon="13.183105"><ele>398.0</ele><time>2026-04-18T09:51:05.156Z</time></trkpt><trkpt lat="37.9764218" lon="13.1833477"><ele>398.66666666666663</ele><time>2026-04-18T09:51:06.156Z</time></trkpt><trkpt lat="37.9764876" lon="13.1835972"><ele>399.33333333333337</ele><time>2026-04-18T09:51:07.156Z</time></trkpt><trkpt lat="37.9765484" lon="13.1838418"><ele>400.0</ele><time>2026-04-18T09:51:08.156Z</time></trkpt><trkpt lat="37.9766075" lon="13.1840872"><ele>400.0</ele><time>2026-04-18T09:51:09.155Z</time></trkpt><trkpt lat="37.9766665" lon="13.1843367"><ele>400.0</ele><time>2026-04-18T09:51:10.156Z</time></trkpt><trkpt lat="37.976724" lon="13.1845861"><ele>400.0</ele><time>2026-04-18T09:51:11.156Z</time></trkpt><trkpt lat="37.976781" lon="13.1848369"><ele>402.33333333333337</ele><time>2026-04-18T09:51:12.155Z</time></trkpt><trkpt lat="37.9768381" lon="13.1850886"><ele>404.66666666666663</ele><time>2026-04-18T09:51:13.156Z</time></trkpt><trkpt lat="37.9768943" lon="13.1853379"><ele>407.0</ele><time>2026-04-18T09:51:14.155Z</time></trkpt><trkpt lat="37.9769491" lon="13.185585"><ele>408.3333333333333</ele><time>2026-04-18T09:51:15.156Z</time></trkpt><trkpt lat="37.9770027" lon="13.1858341"><ele>409.66666666666663</ele><time>2026-04-18T09:51:16.156Z</time></trkpt><trkpt lat="37.9770572" lon="13.1860833"><ele>411.0</ele><time>2026-04-18T09:51:17.156Z</time></trkpt><trkpt lat="37.977111" lon="13.1863327"><ele>413.66666666666663</ele><time>2026-04-18T09:51:18.156Z</time></trkpt><trkpt lat="37.9771677" lon="13.1865765"><ele>416.3333333333333</ele><time>2026-04-18T09:51:19.156Z</time></trkpt><trkpt lat="37.9772202" lon="13.1868204"><ele>419.0</ele><time>2026-04-18T09:51:20.156Z</time></trkpt><trkpt lat="37.9772713" lon="13.1870649"><ele>419.0</ele><time>2026-04-18T09:51:21.156Z</time></trkpt><trkpt lat="37.9773156" lon="13.1873045"><ele>419.0</ele><time>2026-04-18T09:51:22.155Z</time></trkpt><trkpt lat="37.977356" lon="13.1875519"><ele>419.0</ele><time>2026-04-18T09:51:23.155Z</time></trkpt><trkpt lat="37.9773966" lon="13.1877878"><ele>419.66666666666663</ele><time>2026-04-18T09:51:24.156Z</time></trkpt><trkpt lat="37.977434" lon="13.1880309"><ele>420.33333333333337</ele><time>2026-04-18T09:51:25.156Z</time></trkpt><trkpt lat="37.9774691" lon="13.1882627"><ele>421.0</ele><time>2026-04-18T09:51:26.155Z</time></trkpt><trkpt lat="37.977495" lon="13.1884813"><ele>421.0</ele><time>2026-04-18T09:51:27.156Z</time></trkpt><trkpt lat="37.9775152" lon="13.1886952"><ele>421.0</ele><time>2026-04-18T09:51:28.156Z</time></trkpt><trkpt lat="37.9775309" lon="13.1889123"><ele>421.0</ele><time>2026-04-18T09:51:29.156Z</time></trkpt><trkpt lat="37.9775466" lon="13.1891272"><ele>422.33333333333337</ele><time>2026-04-18T09:51:30.156Z</time></trkpt><trkpt lat="37.9775578" lon="13.1893411"><ele>423.66666666666663</ele><time>2026-04-18T09:51:31.155Z</time></trkpt><trkpt lat="37.9775637" lon="13.1895591"><ele>425.0</ele><time>2026-04-18T09:51:32.156Z</time></trkpt><trkpt lat="37.9775643" lon="13.1897871"><ele>426.3333333333333</ele><time>2026-04-18T09:51:33.155Z</time></trkpt><trkpt lat="37.9775643" lon="13.1900206"><ele>427.66666666666663</ele><time>2026-04-18T09:51:34.156Z</time></trkpt><trkpt lat="37.9775615" lon="13.1902556"><ele>429.0</ele><time>2026-04-18T09:51:35.156Z</time></trkpt><trkpt lat="37.9775548" lon="13.1904947"><ele>430.0</ele><time>2026-04-18T09:51:36.156Z</time></trkpt><trkpt lat="37.9775445" lon="13.1907341"><ele>431.0</ele><time>2026-04-18T09:51:37.155Z</time></trkpt><trkpt lat="37.9775346" lon="13.1909702"><ele>432.0</ele><time>2026-04-18T09:51:38.156Z</time></trkpt><trkpt lat="37.9775191" lon="13.1912102"><ele>434.0</ele><time>2026-04-18T09:51:39.155Z</time></trkpt><trkpt lat="37.9774999" lon="13.1914512"><ele>436.0</ele><time>2026-04-18T09:51:40.156Z</time></trkpt><trkpt lat="37.9774821" lon="13.1916835"><ele>438.0</ele><time>2026-04-18T09:51:41.156Z</time></trkpt><trkpt lat="37.9774685" lon="13.1919177"><ele>438.0</ele><time>2026-04-18T09:51:42.155Z</time></trkpt><trkpt lat="37.9774556" lon="13.1921487"><ele>438.0</ele><time>2026-04-18T09:51:43.156Z</time></trkpt><trkpt lat="37.9774442" lon="13.1923798"><ele>438.0</ele><time>2026-04-18T09:51:44.156Z</time></trkpt><trkpt lat="37.9774249" lon="13.1926087"><ele>438.0</ele><time>2026-04-18T09:51:45.156Z</time></trkpt><trkpt lat="37.9774047" lon="13.1928422"><ele>438.0</ele><time>2026-04-18T09:51:46.156Z</time></trkpt><trkpt lat="37.9773854" lon="13.1930894"><ele>438.0</ele><time>2026-04-18T09:51:47.155Z</time></trkpt><trkpt lat="37.9773688" lon="13.1933503"><ele>438.0</ele><time>2026-04-18T09:51:48.156Z</time></trkpt><trkpt lat="37.9773531" lon="13.1936271"><ele>438.0</ele><time>2026-04-18T09:51:49.156Z</time></trkpt><trkpt lat="37.9773384" lon="13.1939171"><ele>438.0</ele><time>2026-04-18T09:51:50.156Z</time></trkpt><trkpt lat="37.9773262" lon="13.1942349"><ele>439.0</ele><time>2026-04-18T09:51:51.156Z</time></trkpt><trkpt lat="37.9773066" lon="13.1945652"><ele>440.0</ele><time>2026-04-18T09:51:52.156Z</time></trkpt><trkpt lat="37.9772778" lon="13.1948882"><ele>441.0</ele><time>2026-04-18T09:51:53.155Z</time></trkpt><trkpt lat="37.9772405" lon="13.1952027"><ele>442.0</ele><time>2026-04-18T09:51:54.155Z</time></trkpt><trkpt lat="37.9772074" lon="13.1955114"><ele>442.0</ele><time>2026-04-18T09:51:55.156Z</time></trkpt><trkpt lat="37.9771767" lon="13.1958142"><ele>442.0</ele><time>2026-04-18T09:51:56.155Z</time></trkpt><trkpt lat="37.9771466" lon="13.1961087"><ele>442.0</ele><time>2026-04-18T09:51:57.156Z</time></trkpt><trkpt lat="37.9771141" lon="13.1964005"><ele>442.0</ele><time>2026-04-18T09:51:58.156Z</time></trkpt><trkpt lat="37.977071" lon="13.1966873"><ele>442.5</ele><time>2026-04-18T09:51:59.155Z</time></trkpt><trkpt lat="37.9770242" lon="13.1969644"><ele>443.0</ele><time>2026-04-18T09:52:00.156Z</time></trkpt><trkpt lat="37.9769739" lon="13.1972443"><ele>443.66666666666663</ele><time>2026-04-18T09:52:01.156Z</time></trkpt><trkpt lat="37.9769202" lon="13.1975173"><ele>444.33333333333337</ele><time>2026-04-18T09:52:02.156Z</time></trkpt><trkpt lat="37.9768623" lon="13.1977903"><ele>445.0</ele><time>2026-04-18T09:52:03.156Z</time></trkpt><trkpt lat="37.976801" lon="13.1980561"><ele>446.33333333333337</ele><time>2026-04-18T09:52:04.155Z</time></trkpt><trkpt lat="37.9767406" lon="13.1983218"><ele>447.66666666666663</ele><time>2026-04-18T09:52:05.156Z</time></trkpt><trkpt lat="37.9766797" lon="13.1985872"><ele>449.0</ele><time>2026-04-18T09:52:06.156Z</time></trkpt><trkpt lat="37.9766196" lon="13.1988498"><ele>454.66666666666663</ele><time>2026-04-18T09:52:07.156Z</time></trkpt><trkpt lat="37.9765549" lon="13.1991106"><ele>460.33333333333337</ele><time>2026-04-18T09:52:08.155Z</time></trkpt><trkpt lat="37.9764914" lon="13.1993773"><ele>466.0</ele><time>2026-04-18T09:52:09.155Z</time></trkpt><trkpt lat="37.9764242" lon="13.1996481"><ele>468.0</ele><time>2026-04-18T09:52:10.156Z</time></trkpt><trkpt lat="37.9763576" lon="13.1999275"><ele>470.0</ele><time>2026-04-18T09:52:11.156Z</time></trkpt><trkpt lat="37.9762884" lon="13.2002105"><ele>470.0</ele><time>2026-04-18T09:52:12.155Z</time></trkpt><trkpt lat="37.9762167" lon="13.2004921"><ele>470.0</ele><time>2026-04-18T09:52:13.156Z</time></trkpt><trkpt lat="37.976141" lon="13.2007741"><ele>471.5</ele><time>2026-04-18T09:52:14.155Z</time></trkpt><trkpt lat="37.9760692" lon="13.2010588"><ele>473.0</ele><time>2026-04-18T09:52:15.155Z</time></trkpt><trkpt lat="37.9759956" lon="13.2013423"><ele>474.5</ele><time>2026-04-18T09:52:16.156Z</time></trkpt><trkpt lat="37.975926" lon="13.2016289"><ele>476.0</ele><time>2026-04-18T09:52:17.155Z</time></trkpt><trkpt lat="37.9758557" lon="13.2019102"><ele>482.0</ele><time>2026-04-18T09:52:18.155Z</time></trkpt><trkpt lat="37.9757867" lon="13.2021929"><ele>488.0</ele><time>2026-04-18T09:52:19.155Z</time></trkpt><trkpt lat="37.9757182" lon="13.2024807"><ele>488.0</ele><time>2026-04-18T09:52:20.156Z</time></trkpt><trkpt lat="37.9756468" lon="13.202762"><ele>488.0</ele><time>2026-04-18T09:52:21.155Z</time></trkpt><trkpt lat="37.9755782" lon="13.203046"><ele>488.0</ele><time>2026-04-18T09:52:22.156Z</time></trkpt><trkpt lat="37.9755067" lon="13.2033283"><ele>488.0</ele><time>2026-04-18T09:52:23.156Z</time></trkpt><trkpt lat="37.9754339" lon="13.2036117"><ele>488.0</ele><time>2026-04-18T09:52:24.155Z</time></trkpt><trkpt lat="37.9753619" lon="13.2038972"><ele>488.0</ele><time>2026-04-18T09:52:25.155Z</time></trkpt><trkpt lat="37.9752935" lon="13.2041824"><ele>487.5</ele><time>2026-04-18T09:52:26.156Z</time></trkpt><trkpt lat="37.9752277" lon="13.204469"><ele>487.0</ele><time>2026-04-18T09:52:27.155Z</time></trkpt><trkpt lat="37.9751615" lon="13.204755"><ele>489.0</ele><time>2026-04-18T09:52:28.156Z</time></trkpt><trkpt lat="37.9750972" lon="13.2050422"><ele>491.0</ele><time>2026-04-18T09:52:29.155Z</time></trkpt><trkpt lat="37.9750362" lon="13.2053307"><ele>497.5</ele><time>2026-04-18T09:52:30.155Z</time></trkpt><trkpt lat="37.974977" lon="13.2056188"><ele>504.0</ele><time>2026-04-18T09:52:31.155Z</time></trkpt><trkpt lat="37.9749178" lon="13.2059096"><ele>504.0</ele><time>2026-04-18T09:52:32.156Z</time></trkpt><trkpt lat="37.9748628" lon="13.2062005"><ele>504.0</ele><time>2026-04-18T09:52:33.156Z</time></trkpt><trkpt lat="37.9748118" lon="13.2064929"><ele>505.0</ele><time>2026-04-18T09:52:34.155Z</time></trkpt><trkpt lat="37.9747659" lon="13.2067866"><ele>506.0</ele><time>2026-04-18T09:52:35.156Z</time></trkpt><trkpt lat="37.9747267" lon="13.2070824"><ele>508.5</ele><time>2026-04-18T09:52:36.155Z</time></trkpt><trkpt lat="37.9746994" lon="13.2073764"><ele>511.0</ele><time>2026-04-18T09:52:37.156Z</time></trkpt><trkpt lat="37.974681" lon="13.2076721"><ele>511.0</ele><time>2026-04-18T09:52:38.156Z</time></trkpt><trkpt lat="37.9746709" lon="13.2079696"><ele>511.0</ele><time>2026-04-18T09:52:39.156Z</time></trkpt><trkpt lat="37.9746737" lon="13.2082687"><ele>511.0</ele><time>2026-04-18T09:52:40.156Z</time></trkpt><trkpt lat="37.9746797" lon="13.2085687"><ele>511.0</ele><time>2026-04-18T09:52:41.155Z</time></trkpt><trkpt lat="37.9746917" lon="13.2088649"><ele>514.5</ele><time>2026-04-18T09:52:42.156Z</time></trkpt><trkpt lat="37.9747135" lon="13.209164"><ele>518.0</ele><time>2026-04-18T09:52:43.156Z</time></trkpt><trkpt lat="37.9747397" lon="13.2094529"><ele>518.0</ele><time>2026-04-18T09:52:44.156Z</time></trkpt><trkpt lat="37.9747715" lon="13.2097208"><ele>518.0</ele><time>2026-04-18T09:52:45.156Z</time></trkpt><trkpt lat="37.9748048" lon="13.2099763"><ele>518.0</ele><time>2026-04-18T09:52:46.156Z</time></trkpt><trkpt lat="37.9748441" lon="13.2102312"><ele>519.0</ele><time>2026-04-18T09:52:47.156Z</time></trkpt><trkpt lat="37.9748903" lon="13.2104745"><ele>520.0</ele><time>2026-04-18T09:52:48.156Z</time></trkpt><trkpt lat="37.9749378" lon="13.2107203"><ele>521.0</ele><time>2026-04-18T09:52:49.156Z</time></trkpt><trkpt lat="37.9749869" lon="13.2109657"><ele>518.3333333333333</ele><time>2026-04-18T09:52:50.156Z</time></trkpt><trkpt lat="37.9750395" lon="13.2112157"><ele>515.6666666666666</ele><time>2026-04-18T09:52:51.156Z</time></trkpt><trkpt lat="37.9750964" lon="13.2114647"><ele>513.0</ele><time>2026-04-18T09:52:52.155Z</time></trkpt><trkpt lat="37.9751563" lon="13.211716"><ele>513.0</ele><time>2026-04-18T09:52:53.156Z</time></trkpt><trkpt lat="37.9752171" lon="13.2119708"><ele>513.0</ele><time>2026-04-18T09:52:54.156Z</time></trkpt><trkpt lat="37.9752784" lon="13.21222"><ele>513.0</ele><time>2026-04-18T09:52:55.156Z</time></trkpt><trkpt lat="37.9753377" lon="13.2124536"><ele>514.6666666666666</ele><time>2026-04-18T09:52:56.155Z</time></trkpt><trkpt lat="37.9753939" lon="13.2126724"><ele>516.3333333333333</ele><time>2026-04-18T09:52:57.156Z</time></trkpt><trkpt lat="37.9754517" lon="13.21289"><ele>518.0</ele><time>2026-04-18T09:52:58.155Z</time></trkpt><trkpt lat="37.9755069" lon="13.2131032"><ele>520.6666666666666</ele><time>2026-04-18T09:52:59.156Z</time></trkpt><trkpt lat="37.9755639" lon="13.2133237"><ele>523.3333333333334</ele><time>2026-04-18T09:53:00.156Z</time></trkpt><trkpt lat="37.9756268" lon="13.2135529"><ele>526.0</ele><time>2026-04-18T09:53:01.156Z</time></trkpt><trkpt lat="37.9756894" lon="13.2137923"><ele>525.3333333333334</ele><time>2026-04-18T09:53:02.155Z</time></trkpt><trkpt lat="37.9757568" lon="13.2140361"><ele>524.6666666666666</ele><time>2026-04-18T09:53:03.155Z</time></trkpt><trkpt lat="37.9758225" lon="13.214289"><ele>524.0</ele><time>2026-04-18T09:53:04.156Z</time></trkpt><trkpt lat="37.9758883" lon="13.2145427"><ele>524.0</ele><time>2026-04-18T09:53:05.156Z</time></trkpt><trkpt lat="37.9759522" lon="13.2147945"><ele>524.0</ele><time>2026-04-18T09:53:06.155Z</time></trkpt><trkpt lat="37.9760153" lon="13.2150471"><ele>524.0</ele><time>2026-04-18T09:53:07.156Z</time></trkpt><trkpt lat="37.9760759" lon="13.2152999"><ele>526.3333333333333</ele><time>2026-04-18T09:53:08.156Z</time></trkpt><trkpt lat="37.9761436" lon="13.2155524"><ele>528.6666666666666</ele><time>2026-04-18T09:53:09.156Z</time></trkpt><trkpt lat="37.976214" lon="13.2158069"><ele>531.0</ele><time>2026-04-18T09:53:10.155Z</time></trkpt><trkpt lat="37.976289" lon="13.2160589"><ele>533.6666666666666</ele><time>2026-04-18T09:53:11.155Z</time></trkpt><trkpt lat="37.9763667" lon="13.2163096"><ele>536.3333333333333</ele><time>2026-04-18T09:53:12.156Z</time></trkpt><trkpt lat="37.9764476" lon="13.2165584"><ele>539.0</ele><time>2026-04-18T09:53:13.156Z</time></trkpt><trkpt lat="37.9765288" lon="13.2168038"><ele>540.0</ele><time>2026-04-18T09:53:14.156Z</time></trkpt><trkpt lat="37.9766059" lon="13.2170474"><ele>541.0</ele><time>2026-04-18T09:53:15.156Z</time></trkpt><trkpt lat="37.9766855" lon="13.2172925"><ele>542.0</ele><time>2026-04-18T09:53:16.155Z</time></trkpt><trkpt lat="37.9767713" lon="13.2175392"><ele>542.0</ele><time>2026-04-18T09:53:17.156Z</time></trkpt><trkpt lat="37.9768582" lon="13.2177812"><ele>542.0</ele><time>2026-04-18T09:53:18.155Z</time></trkpt><trkpt lat="37.9769493" lon="13.2180207"><ele>542.0</ele><time>2026-04-18T09:53:19.155Z</time></trkpt><trkpt lat="37.9770409" lon="13.2182614"><ele>545.3333333333333</ele><time>2026-04-18T09:53:20.156Z</time></trkpt><trkpt lat="37.9771352" lon="13.2184968"><ele>548.6666666666666</ele><time>2026-04-18T09:53:21.156Z</time></trkpt><trkpt lat="37.9772296" lon="13.218736"><ele>552.0</ele><time>2026-04-18T09:53:22.156Z</time></trkpt><trkpt lat="37.9773272" lon="13.2189775"><ele>553.3333333333334</ele><time>2026-04-18T09:53:23.155Z</time></trkpt><trkpt lat="37.97742" lon="13.2192149"><ele>554.6666666666667</ele><time>2026-04-18T09:53:24.155Z</time></trkpt><trkpt lat="37.9775153" lon="13.2194525"><ele>556.0</ele><time>2026-04-18T09:53:25.155Z</time></trkpt><trkpt lat="37.9776096" lon="13.2196906"><ele>558.0</ele><time>2026-04-18T09:53:26.156Z</time></trkpt><trkpt lat="37.9777079" lon="13.2199299"><ele>560.0</ele><time>2026-04-18T09:53:27.156Z</time></trkpt><trkpt lat="37.977804" lon="13.2201698"><ele>562.0</ele><time>2026-04-18T09:53:28.156Z</time></trkpt><trkpt lat="37.9779009" lon="13.2204069"><ele>562.0</ele><time>2026-04-18T09:53:29.156Z</time></trkpt><trkpt lat="37.9779983" lon="13.2206453"><ele>562.0</ele><time>2026-04-18T09:53:30.155Z</time></trkpt><trkpt lat="37.9780951" lon="13.2208796"><ele>562.0</ele><time>2026-04-18T09:53:31.156Z</time></trkpt><trkpt lat="37.9781905" lon="13.2211137"><ele>563.0</ele><time>2026-04-18T09:53:32.156Z</time></trkpt><trkpt lat="37.9782826" lon="13.2213516"><ele>564.0</ele><time>2026-04-18T09:53:33.156Z</time></trkpt><trkpt lat="37.9783744" lon="13.2215903"><ele>565.0</ele><time>2026-04-18T09:53:34.155Z</time></trkpt><trkpt lat="37.9784634" lon="13.2218274"><ele>565.0</ele><time>2026-04-18T09:53:35.155Z</time></trkpt><trkpt lat="37.9785562" lon="13.2220685"><ele>565.0</ele><time>2026-04-18T09:53:36.155Z</time></trkpt><trkpt lat="37.978649" lon="13.222305"><ele>565.0</ele><time>2026-04-18T09:53:37.155Z</time></trkpt><trkpt lat="37.9787482" lon="13.2225445"><ele>567.3333333333334</ele><time>2026-04-18T09:53:38.156Z</time></trkpt><trkpt lat="37.9788457" lon="13.2227812"><ele>569.6666666666666</ele><time>2026-04-18T09:53:39.156Z</time></trkpt><trkpt lat="37.9789412" lon="13.223018"><ele>572.0</ele><time>2026-04-18T09:53:40.156Z</time></trkpt><trkpt lat="37.9790369" lon="13.2232541"><ele>571.6666666666666</ele><time>2026-04-18T09:53:41.155Z</time></trkpt><trkpt lat="37.979132" lon="13.2234908"><ele>571.3333333333334</ele><time>2026-04-18T09:53:42.156Z</time></trkpt><trkpt lat="37.9792308" lon="13.2237318"><ele>571.0</ele><time>2026-04-18T09:53:43.156Z</time></trkpt><trkpt lat="37.9793244" lon="13.2239723"><ele>574.0</ele><time>2026-04-18T09:53:44.155Z</time></trkpt><trkpt lat="37.9794163" lon="13.2242105"><ele>577.0</ele><time>2026-04-18T09:53:45.156Z</time></trkpt><trkpt lat="37.979507" lon="13.2244487"><ele>580.0</ele><time>2026-04-18T09:53:46.156Z</time></trkpt><trkpt lat="37.9795992" lon="13.2246879"><ele>582.3333333333334</ele><time>2026-04-18T09:53:47.156Z</time></trkpt><trkpt lat="37.9796958" lon="13.224925"><ele>584.6666666666666</ele><time>2026-04-18T09:53:48.156Z</time></trkpt><trkpt lat="37.9797897" lon="13.2251608"><ele>587.0</ele><time>2026-04-18T09:53:49.156Z</time></trkpt><trkpt lat="37.9798826" lon="13.2253974"><ele>587.0</ele><time>2026-04-18T09:53:50.156Z</time></trkpt><trkpt lat="37.9799748" lon="13.2256336"><ele>587.0</ele><time>2026-04-18T09:53:51.155Z</time></trkpt><trkpt lat="37.9800668" lon="13.2258696"><ele>587.0</ele><time>2026-04-18T09:53:52.156Z</time></trkpt><trkpt lat="37.9801586" lon="13.2261105"><ele>587.0</ele><time>2026-04-18T09:53:53.155Z</time></trkpt><trkpt lat="37.9802483" lon="13.2263536"><ele>587.0</ele><time>2026-04-18T09:53:54.156Z</time></trkpt><trkpt lat="37.9803366" lon="13.2266"><ele>587.0</ele><time>2026-04-18T09:53:55.156Z</time></trkpt><trkpt lat="37.9804196" lon="13.2268431"><ele>589.6666666666666</ele><time>2026-04-18T09:53:56.156Z</time></trkpt><trkpt lat="37.9805028" lon="13.227089"><ele>592.3333333333334</ele><time>2026-04-18T09:53:57.156Z</time></trkpt><trkpt lat="37.9805806" lon="13.2273316"><ele>595.0</ele><time>2026-04-18T09:53:58.158Z</time></trkpt><trkpt lat="37.9806551" lon="13.2275778"><ele>595.0</ele><time>2026-04-18T09:53:59.159Z</time></trkpt><trkpt lat="37.9807251" lon="13.2278273"><ele>595.0</ele><time>2026-04-18T09:54:00.159Z</time></trkpt><trkpt lat="37.980792" lon="13.2280803"><ele>595.0</ele><time>2026-04-18T09:54:01.159Z</time></trkpt><trkpt lat="37.9808502" lon="13.2283278"><ele>595.0</ele><time>2026-04-18T09:54:02.158Z</time></trkpt><trkpt lat="37.980907" lon="13.2285846"><ele>595.0</ele><time>2026-04-18T09:54:03.159Z</time></trkpt><trkpt lat="37.9809605" lon="13.2288408"><ele>595.0</ele><time>2026-04-18T09:54:04.158Z</time></trkpt><trkpt lat="37.9810129" lon="13.2291025"><ele>596.6666666666667</ele><time>2026-04-18T09:54:05.159Z</time></trkpt><trkpt lat="37.9810637" lon="13.2293628"><ele>598.3333333333334</ele><time>2026-04-18T09:54:06.159Z</time></trkpt><trkpt lat="37.981112" lon="13.2296217"><ele>600.0</ele><time>2026-04-18T09:54:07.159Z</time></trkpt><trkpt lat="37.98116" lon="13.2298816"><ele>602.0</ele><time>2026-04-18T09:54:08.159Z</time></trkpt><trkpt lat="37.9812102" lon="13.2301432"><ele>604.0</ele><time>2026-04-18T09:54:09.159Z</time></trkpt><trkpt lat="37.9812568" lon="13.2304053"><ele>606.0</ele><time>2026-04-18T09:54:10.158Z</time></trkpt><trkpt lat="37.9813025" lon="13.2306652"><ele>607.3333333333334</ele><time>2026-04-18T09:54:11.159Z</time></trkpt><trkpt lat="37.9813462" lon="13.2309232"><ele>608.6666666666667</ele><time>2026-04-18T09:54:12.158Z</time></trkpt><trkpt lat="37.9813902" lon="13.2311846"><ele>610.0</ele><time>2026-04-18T09:54:13.158Z</time></trkpt><trkpt lat="37.9814314" lon="13.2314467"><ele>612.0</ele><time>2026-04-18T09:54:14.158Z</time></trkpt><trkpt lat="37.9814741" lon="13.2317101"><ele>614.0</ele><time>2026-04-18T09:54:15.159Z</time></trkpt><trkpt lat="37.9815173" lon="13.2319714"><ele>616.0</ele><time>2026-04-18T09:54:16.158Z</time></trkpt><trkpt lat="37.9815579" lon="13.2322307"><ele>612.6666666666667</ele><time>2026-04-18T09:54:17.159Z</time></trkpt><trkpt lat="37.9815989" lon="13.2324917"><ele>609.3333333333334</ele><time>2026-04-18T09:54:18.158Z</time></trkpt><trkpt lat="37.9816417" lon="13.2327527"><ele>606.0</ele><time>2026-04-18T09:54:19.159Z</time></trkpt><trkpt lat="37.9816847" lon="13.2330135"><ele>609.0</ele><time>2026-04-18T09:54:20.159Z</time></trkpt><trkpt lat="37.981726" lon="13.2332745"><ele>612.0</ele><time>2026-04-18T09:54:21.158Z</time></trkpt><trkpt lat="37.9817676" lon="13.2335332"><ele>615.0</ele><time>2026-04-18T09:54:22.159Z</time></trkpt><trkpt lat="37.9818104" lon="13.2337924"><ele>617.6666666666666</ele><time>2026-04-18T09:54:23.158Z</time></trkpt><trkpt lat="37.981859" lon="13.234051"><ele>620.3333333333333</ele><time>2026-04-18T09:54:24.159Z</time></trkpt><trkpt lat="37.981908" lon="13.2343122"><ele>623.0</ele><time>2026-04-18T09:54:25.158Z</time></trkpt><trkpt lat="37.9819572" lon="13.234572"><ele>624.0</ele><time>2026-04-18T09:54:26.159Z</time></trkpt><trkpt lat="37.9820105" lon="13.2348312"><ele>625.0</ele><time>2026-04-18T09:54:27.158Z</time></trkpt><trkpt lat="37.9820667" lon="13.2350926"><ele>626.0</ele><time>2026-04-18T09:54:28.159Z</time></trkpt><trkpt lat="37.982131" lon="13.2353472"><ele>626.0</ele><time>2026-04-18T09:54:29.159Z</time></trkpt><trkpt lat="37.9822019" lon="13.2356033"><ele>626.0</ele><time>2026-04-18T09:54:30.159Z</time></trkpt><trkpt lat="37.9822802" lon="13.2358506"><ele>626.0</ele><time>2026-04-18T09:54:31.159Z</time></trkpt><trkpt lat="37.9823644" lon="13.2360956"><ele>627.3333333333333</ele><time>2026-04-18T09:54:32.158Z</time></trkpt><trkpt lat="37.9824578" lon="13.2363337"><ele>628.6666666666666</ele><time>2026-04-18T09:54:33.158Z</time></trkpt><trkpt lat="37.9825606" lon="13.2365634"><ele>630.0</ele><time>2026-04-18T09:54:34.158Z</time></trkpt><trkpt lat="37.982672" lon="13.2367897"><ele>630.0</ele><time>2026-04-18T09:54:35.159Z</time></trkpt><trkpt lat="37.9827922" lon="13.2370035"><ele>630.0</ele><time>2026-04-18T09:54:36.159Z</time></trkpt><trkpt lat="37.9829303" lon="13.2372089"><ele>630.0</ele><time>2026-04-18T09:54:37.158Z</time></trkpt><trkpt lat="37.9830763" lon="13.2373981"><ele>633.3333333333334</ele><time>2026-04-18T09:54:38.159Z</time></trkpt><trkpt lat="37.9832337" lon="13.2375785"><ele>636.6666666666667</ele><time>2026-04-18T09:54:39.158Z</time></trkpt><trkpt lat="37.9833913" lon="13.2377518"><ele>640.0</ele><time>2026-04-18T09:54:40.159Z</time></trkpt><trkpt lat="37.9835518" lon="13.2379226"><ele>640.0</ele><time>2026-04-18T09:54:41.158Z</time></trkpt><trkpt lat="37.9837172" lon="13.2380855"><ele>640.0</ele><time>2026-04-18T09:54:42.159Z</time></trkpt><trkpt lat="37.9838914" lon="13.2382394"><ele>640.0</ele><time>2026-04-18T09:54:43.158Z</time></trkpt><trkpt lat="37.984067" lon="13.2383753"><ele>647.3333333333334</ele><time>2026-04-18T09:54:44.159Z</time></trkpt><trkpt lat="37.9842473" lon="13.2385126"><ele>654.6666666666666</ele><time>2026-04-18T09:54:45.158Z</time></trkpt><trkpt lat="37.9844314" lon="13.2386432"><ele>662.0</ele><time>2026-04-18T09:54:46.158Z</time></trkpt><trkpt lat="37.984621" lon="13.2387654"><ele>662.0</ele><time>2026-04-18T09:54:47.158Z</time></trkpt><trkpt lat="37.98481" lon="13.2388831"><ele>662.0</ele><time>2026-04-18T09:54:48.159Z</time></trkpt><trkpt lat="37.9850028" lon="13.2390013"><ele>662.0</ele><time>2026-04-18T09:54:49.159Z</time></trkpt><trkpt lat="37.9851965" lon="13.2391174"><ele>665.3333333333333</ele><time>2026-04-18T09:54:50.158Z</time></trkpt><trkpt lat="37.9853885" lon="13.2392361"><ele>668.6666666666666</ele><time>2026-04-18T09:54:51.159Z</time></trkpt><trkpt lat="37.9855728" lon="13.2393575"><ele>672.0</ele><time>2026-04-18T09:54:52.159Z</time></trkpt><trkpt lat="37.9857594" lon="13.2394792"><ele>670.6666666666666</ele><time>2026-04-18T09:54:53.159Z</time></trkpt><trkpt lat="37.9859484" lon="13.2395947"><ele>669.3333333333333</ele><time>2026-04-18T09:54:54.159Z</time></trkpt><trkpt lat="37.98614" lon="13.2397112"><ele>668.0</ele><time>2026-04-18T09:54:55.159Z</time></trkpt><trkpt lat="37.9863323" lon="13.2398295"><ele>669.6666666666666</ele><time>2026-04-18T09:54:56.159Z</time></trkpt><trkpt lat="37.9865219" lon="13.2399463"><ele>671.3333333333334</ele><time>2026-04-18T09:54:57.159Z</time></trkpt><trkpt lat="37.9867141" lon="13.2400611"><ele>673.0</ele><time>2026-04-18T09:54:58.158Z</time></trkpt><trkpt lat="37.9869132" lon="13.2401654"><ele>673.0</ele><time>2026-04-18T09:54:59.159Z</time></trkpt><trkpt lat="37.9871153" lon="13.2402539"><ele>673.0</ele><time>2026-04-18T09:55:00.159Z</time></trkpt><trkpt lat="37.98732" lon="13.2403298"><ele>673.0</ele><time>2026-04-18T09:55:01.158Z</time></trkpt><trkpt lat="37.987526" lon="13.2403865"><ele>672.0</ele><time>2026-04-18T09:55:02.159Z</time></trkpt><trkpt lat="37.9877328" lon="13.240423"><ele>671.0</ele><time>2026-04-18T09:55:03.159Z</time></trkpt><trkpt lat="37.9879402" lon="13.2404448"><ele>670.0</ele><time>2026-04-18T09:55:04.158Z</time></trkpt><trkpt lat="37.9881477" lon="13.2404562"><ele>670.6666666666667</ele><time>2026-04-18T09:55:05.158Z</time></trkpt><trkpt lat="37.988357" lon="13.2404505"><ele>671.3333333333334</ele><time>2026-04-18T09:55:06.159Z</time></trkpt><trkpt lat="37.9885668" lon="13.2404306"><ele>672.0</ele><time>2026-04-18T09:55:07.159Z</time></trkpt><trkpt lat="37.9887772" lon="13.2403967"><ele>672.0</ele><time>2026-04-18T09:55:08.158Z</time></trkpt><trkpt lat="37.9889844" lon="13.2403485"><ele>672.0</ele><time>2026-04-18T09:55:09.159Z</time></trkpt><trkpt lat="37.9891887" lon="13.2402876"><ele>672.0</ele><time>2026-04-18T09:55:10.158Z</time></trkpt><trkpt lat="37.9893891" lon="13.2402076"><ele>673.6666666666666</ele><time>2026-04-18T09:55:11.158Z</time></trkpt><trkpt lat="37.9895881" lon="13.2401133"><ele>675.3333333333333</ele><time>2026-04-18T09:55:12.158Z</time></trkpt><trkpt lat="37.9897817" lon="13.240004"><ele>677.0</ele><time>2026-04-18T09:55:13.159Z</time></trkpt><trkpt lat="37.9899721" lon="13.2398856"><ele>675.0</ele><time>2026-04-18T09:55:14.158Z</time></trkpt><trkpt lat="37.9901553" lon="13.2397597"><ele>673.0</ele><time>2026-04-18T09:55:15.159Z</time></trkpt><trkpt lat="37.9903317" lon="13.2396207"><ele>671.0</ele><time>2026-04-18T09:55:16.158Z</time></trkpt><trkpt lat="37.9905067" lon="13.239475"><ele>671.0</ele><time>2026-04-18T09:55:17.159Z</time></trkpt><trkpt lat="37.9906815" lon="13.2393357"><ele>671.0</ele><time>2026-04-18T09:55:18.158Z</time></trkpt><trkpt lat="37.9908565" lon="13.2391907"><ele>671.0</ele><time>2026-04-18T09:55:19.159Z</time></trkpt><trkpt lat="37.991031" lon="13.2390472"><ele>675.0</ele><time>2026-04-18T09:55:20.158Z</time></trkpt><trkpt lat="37.9912104" lon="13.2389015"><ele>679.0</ele><time>2026-04-18T09:55:21.159Z</time></trkpt><trkpt lat="37.9913856" lon="13.2387577"><ele>683.0</ele><time>2026-04-18T09:55:22.159Z</time></trkpt><trkpt lat="37.9915614" lon="13.2386125"><ele>687.3333333333333</ele><time>2026-04-18T09:55:23.158Z</time></trkpt><trkpt lat="37.9917385" lon="13.2384698"><ele>691.6666666666666</ele><time>2026-04-18T09:55:24.158Z</time></trkpt><trkpt lat="37.991916" lon="13.2383274"><ele>696.0</ele><time>2026-04-18T09:55:25.158Z</time></trkpt><trkpt lat="37.992097" lon="13.238187"><ele>695.6666666666666</ele><time>2026-04-18T09:55:26.158Z</time></trkpt><trkpt lat="37.9922773" lon="13.2380479"><ele>695.3333333333333</ele><time>2026-04-18T09:55:27.158Z</time></trkpt><trkpt lat="37.9924576" lon="13.2379146"><ele>695.0</ele><time>2026-04-18T09:55:28.159Z</time></trkpt><trkpt lat="37.9926398" lon="13.2377895"><ele>695.0</ele><time>2026-04-18T09:55:29.158Z</time></trkpt><trkpt lat="37.9928303" lon="13.2376749"><ele>695.0</ele><time>2026-04-18T09:55:30.159Z</time></trkpt><trkpt lat="37.9930228" lon="13.2375721"><ele>695.0</ele><time>2026-04-18T09:55:31.159Z</time></trkpt><trkpt lat="37.9932223" lon="13.2374829"><ele>695.6666666666666</ele><time>2026-04-18T09:55:32.159Z</time></trkpt><trkpt lat="37.9934276" lon="13.2374142"><ele>696.3333333333334</ele><time>2026-04-18T09:55:33.158Z</time></trkpt><trkpt lat="37.9936346" lon="13.2373601"><ele>697.0</ele><time>2026-04-18T09:55:34.159Z</time></trkpt><trkpt lat="37.9938416" lon="13.2373245"><ele>697.0</ele><time>2026-04-18T09:55:35.159Z</time></trkpt><trkpt lat="37.9940525" lon="13.2373071"><ele>697.0</ele><time>2026-04-18T09:55:36.158Z</time></trkpt><trkpt lat="37.9942641" lon="13.237313"><ele>697.0</ele><time>2026-04-18T09:55:37.158Z</time></trkpt><trkpt lat="37.9944715" lon="13.2373391"><ele>686.6666666666667</ele><time>2026-04-18T09:55:38.159Z</time></trkpt><trkpt lat="37.9946774" lon="13.2373881"><ele>676.3333333333334</ele><time>2026-04-18T09:55:39.159Z</time></trkpt><trkpt lat="37.9948805" lon="13.2374591"><ele>666.0</ele><time>2026-04-18T09:55:40.158Z</time></trkpt><trkpt lat="37.9950832" lon="13.2375455"><ele>658.6666666666666</ele><time>2026-04-18T09:55:41.158Z</time></trkpt><trkpt lat="37.9952829" lon="13.2376452"><ele>651.3333333333333</ele><time>2026-04-18T09:55:42.159Z</time></trkpt><trkpt lat="37.9954776" lon="13.2377542"><ele>644.0</ele><time>2026-04-18T09:55:43.159Z</time></trkpt><trkpt lat="37.9956694" lon="13.2378734"><ele>643.3333333333333</ele><time>2026-04-18T09:55:44.158Z</time></trkpt><trkpt lat="37.9958555" lon="13.2380032"><ele>642.6666666666666</ele><time>2026-04-18T09:55:45.158Z</time></trkpt><trkpt lat="37.9960388" lon="13.2381361"><ele>642.0</ele><time>2026-04-18T09:55:46.159Z</time></trkpt><trkpt lat="37.9962226" lon="13.2382655"><ele>650.0</ele><time>2026-04-18T09:55:47.159Z</time></trkpt><trkpt lat="37.9964071" lon="13.2383941"><ele>658.0</ele><time>2026-04-18T09:55:48.159Z</time></trkpt><trkpt lat="37.9965898" lon="13.238526"><ele>666.0</ele><time>2026-04-18T09:55:49.159Z</time></trkpt><trkpt lat="37.9967737" lon="13.2386616"><ele>666.0</ele><time>2026-04-18T09:55:50.158Z</time></trkpt><trkpt lat="37.9969551" lon="13.2387924"><ele>666.0</ele><time>2026-04-18T09:55:51.159Z</time></trkpt><trkpt lat="37.9971374" lon="13.2389257"><ele>666.0</ele><time>2026-04-18T09:55:52.159Z</time></trkpt><trkpt lat="37.9973185" lon="13.2390594"><ele>673.3333333333334</ele><time>2026-04-18T09:55:53.159Z</time></trkpt><trkpt lat="37.9974997" lon="13.2391926"><ele>680.6666666666667</ele><time>2026-04-18T09:55:54.158Z</time></trkpt><trkpt lat="37.9976785" lon="13.2393277"><ele>688.0</ele><time>2026-04-18T09:55:55.159Z</time></trkpt><trkpt lat="37.9978585" lon="13.2394611"><ele>688.0</ele><time>2026-04-18T09:55:56.159Z</time></trkpt><trkpt lat="37.9980388" lon="13.2395943"><ele>688.0</ele><time>2026-04-18T09:55:57.158Z</time></trkpt><trkpt lat="37.9982194" lon="13.2397272"><ele>688.0</ele><time>2026-04-18T09:55:58.159Z</time></trkpt><trkpt lat="37.9984018" lon="13.2398624"><ele>695.6666666666667</ele><time>2026-04-18T09:55:59.159Z</time></trkpt><trkpt lat="37.9985864" lon="13.24"><ele>703.3333333333334</ele><time>2026-04-18T09:56:00.159Z</time></trkpt><trkpt lat="37.9987705" lon="13.2401344"><ele>711.0</ele><time>2026-04-18T09:56:01.159Z</time></trkpt><trkpt lat="37.9989554" lon="13.2402659"><ele>711.0</ele><time>2026-04-18T09:56:02.158Z</time></trkpt><trkpt lat="37.9991388" lon="13.2403998"><ele>711.0</ele><time>2026-04-18T09:56:03.159Z</time></trkpt><trkpt lat="37.9993183" lon="13.2405329"><ele>711.0</ele><time>2026-04-18T09:56:04.159Z</time></trkpt><trkpt lat="37.9995008" lon="13.2406693"><ele>716.6666666666666</ele><time>2026-04-18T09:56:05.159Z</time></trkpt><trkpt lat="37.9996831" lon="13.2408007"><ele>722.3333333333333</ele><time>2026-04-18T09:56:06.159Z</time></trkpt><trkpt lat="37.9998686" lon="13.2409328"><ele>728.0</ele><time>2026-04-18T09:56:07.159Z</time></trkpt><trkpt lat="38.0000512" lon="13.2410672"><ele>728.0</ele><time>2026-04-18T09:56:08.158Z</time></trkpt><trkpt lat="38.0002364" lon="13.2411971"><ele>728.0</ele><time>2026-04-18T09:56:09.158Z</time></trkpt><trkpt lat="38.0004229" lon="13.2413203"><ele>728.0</ele><time>2026-04-18T09:56:10.158Z</time></trkpt><trkpt lat="38.0006109" lon="13.2414311"><ele>727.6666666666666</ele><time>2026-04-18T09:56:11.159Z</time></trkpt><trkpt lat="38.000807" lon="13.2415373"><ele>727.3333333333334</ele><time>2026-04-18T09:56:12.159Z</time></trkpt><trkpt lat="38.0010013" lon="13.2416272"><ele>727.0</ele><time>2026-04-18T09:56:13.159Z</time></trkpt><trkpt lat="38.0012005" lon="13.2417145"><ele>727.0</ele><time>2026-04-18T09:56:14.158Z</time></trkpt><trkpt lat="38.0014" lon="13.241789"><ele>727.0</ele><time>2026-04-18T09:56:15.159Z</time></trkpt><trkpt lat="38.0016007" lon="13.2418512"><ele>727.0</ele><time>2026-04-18T09:56:16.158Z</time></trkpt><trkpt lat="38.0018044" lon="13.241903"><ele>729.3333333333334</ele><time>2026-04-18T09:56:17.158Z</time></trkpt><trkpt lat="38.0020111" lon="13.2419372"><ele>731.6666666666666</ele><time>2026-04-18T09:56:18.159Z</time></trkpt><trkpt lat="38.0022194" lon="13.2419606"><ele>734.0</ele><time>2026-04-18T09:56:19.159Z</time></trkpt><trkpt lat="38.0024292" lon="13.2419718"><ele>732.6666666666666</ele><time>2026-04-18T09:56:20.158Z</time></trkpt><trkpt lat="38.002641" lon="13.2419789"><ele>731.3333333333334</ele><time>2026-04-18T09:56:21.159Z</time></trkpt><trkpt lat="38.0028537" lon="13.2419801"><ele>730.0</ele><time>2026-04-18T09:56:22.159Z</time></trkpt><trkpt lat="38.0030642" lon="13.2419777"><ele>730.0</ele><time>2026-04-18T09:56:23.158Z</time></trkpt><trkpt lat="38.0032763" lon="13.2419764"><ele>730.0</ele><time>2026-04-18T09:56:24.158Z</time></trkpt><trkpt lat="38.0034869" lon="13.2419797"><ele>730.0</ele><time>2026-04-18T09:56:25.159Z</time></trkpt><trkpt lat="38.003697" lon="13.2419776"><ele>732.6666666666667</ele><time>2026-04-18T09:56:26.159Z</time></trkpt><trkpt lat="38.0039084" lon="13.2419733"><ele>735.3333333333334</ele><time>2026-04-18T09:56:27.159Z</time></trkpt><trkpt lat="38.0041201" lon="13.2419706"><ele>738.0</ele><time>2026-04-18T09:56:28.159Z</time></trkpt><trkpt lat="38.0043312" lon="13.2419688"><ele>738.0</ele><time>2026-04-18T09:56:29.159Z</time></trkpt><trkpt lat="38.0045429" lon="13.2419619"><ele>738.0</ele><time>2026-04-18T09:56:30.159Z</time></trkpt><trkpt lat="38.0047521" lon="13.2419581"><ele>738.0</ele><time>2026-04-18T09:56:31.159Z</time></trkpt><trkpt lat="38.0049621" lon="13.2419506"><ele>742.6666666666666</ele><time>2026-04-18T09:56:32.158Z</time></trkpt><trkpt lat="38.0051739" lon="13.2419403"><ele>747.3333333333333</ele><time>2026-04-18T09:56:33.159Z</time></trkpt><trkpt lat="38.0053844" lon="13.2419357"><ele>752.0</ele><time>2026-04-18T09:56:34.159Z</time></trkpt><trkpt lat="38.0055973" lon="13.2419314"><ele>752.0</ele><time>2026-04-18T09:56:35.159Z</time></trkpt><trkpt lat="38.0058085" lon="13.2419254"><ele>752.0</ele><time>2026-04-18T09:56:36.159Z</time></trkpt><trkpt lat="38.00602" lon="13.2419204"><ele>752.0</ele><time>2026-04-18T09:56:37.159Z</time></trkpt><trkpt lat="38.0062294" lon="13.2419187"><ele>761.6666666666666</ele><time>2026-04-18T09:56:38.159Z</time></trkpt><trkpt lat="38.0064382" lon="13.2419221"><ele>771.3333333333333</ele><time>2026-04-18T09:56:39.159Z</time></trkpt><trkpt lat="38.0066484" lon="13.2419312"><ele>781.0</ele><time>2026-04-18T09:56:40.159Z</time></trkpt><trkpt lat="38.006859" lon="13.241945"><ele>786.3333333333333</ele><time>2026-04-18T09:56:41.159Z</time></trkpt><trkpt lat="38.0070682" lon="13.2419711"><ele>791.6666666666667</ele><time>2026-04-18T09:56:42.159Z</time></trkpt><trkpt lat="38.0072763" lon="13.2420118"><ele>797.0</ele><time>2026-04-18T09:56:43.159Z</time></trkpt><trkpt lat="38.0074859" lon="13.242059"><ele>797.0</ele><time>2026-04-18T09:56:44.159Z</time></trkpt><trkpt lat="38.007694" lon="13.2421209"><ele>797.0</ele><time>2026-04-18T09:56:45.158Z</time></trkpt><trkpt lat="38.0078963" lon="13.242195"><ele>797.0</ele><time>2026-04-18T09:56:46.159Z</time></trkpt><trkpt lat="38.0081001" lon="13.2422753"><ele>793.0</ele><time>2026-04-18T09:56:47.158Z</time></trkpt><trkpt lat="38.0082988" lon="13.2423728"><ele>789.0</ele><time>2026-04-18T09:56:48.159Z</time></trkpt><trkpt lat="38.0084925" lon="13.2424751"><ele>785.0</ele><time>2026-04-18T09:56:49.158Z</time></trkpt><trkpt lat="38.0086871" lon="13.2425919"><ele>785.0</ele><time>2026-04-18T09:56:50.159Z</time></trkpt><trkpt lat="38.0088789" lon="13.2427081"><ele>785.0</ele><time>2026-04-18T09:56:51.158Z</time></trkpt><trkpt lat="38.0090701" lon="13.2428253"><ele>785.0</ele><time>2026-04-18T09:56:52.158Z</time></trkpt><trkpt lat="38.0092571" lon="13.2429468"><ele>786.6666666666667</ele><time>2026-04-18T09:56:53.159Z</time></trkpt><trkpt lat="38.009446" lon="13.2430752"><ele>788.3333333333333</ele><time>2026-04-18T09:56:54.158Z</time></trkpt><trkpt lat="38.0096313" lon="13.2432067"><ele>790.0</ele><time>2026-04-18T09:56:55.158Z</time></trkpt><trkpt lat="38.0098155" lon="13.2433426"><ele>791.0</ele><time>2026-04-18T09:56:56.159Z</time></trkpt><trkpt lat="38.0099959" lon="13.2434841"><ele>792.0</ele><time>2026-04-18T09:56:57.159Z</time></trkpt><trkpt lat="38.0101782" lon="13.2436233"><ele>793.0</ele><time>2026-04-18T09:56:58.158Z</time></trkpt><trkpt lat="38.0103572" lon="13.2437574"><ele>793.0</ele><time>2026-04-18T09:56:59.159Z</time></trkpt><trkpt lat="38.0105419" lon="13.2438951"><ele>793.0</ele><time>2026-04-18T09:57:00.159Z</time></trkpt><trkpt lat="38.0107275" lon="13.2440327"><ele>793.0</ele><time>2026-04-18T09:57:01.159Z</time></trkpt><trkpt lat="38.0109152" lon="13.2441623"><ele>796.3333333333333</ele><time>2026-04-18T09:57:02.159Z</time></trkpt><trkpt lat="38.0111035" lon="13.2442924"><ele>799.6666666666667</ele><time>2026-04-18T09:57:03.159Z</time></trkpt><trkpt lat="38.0112937" lon="13.244416"><ele>803.0</ele><time>2026-04-18T09:57:04.159Z</time></trkpt><trkpt lat="38.011482" lon="13.2445427"><ele>802.0</ele><time>2026-04-18T09:57:05.159Z</time></trkpt><trkpt lat="38.0116709" lon="13.2446725"><ele>801.0</ele><time>2026-04-18T09:57:06.159Z</time></trkpt><trkpt lat="38.0118603" lon="13.2447966"><ele>800.0</ele><time>2026-04-18T09:57:07.159Z</time></trkpt><trkpt lat="38.0120497" lon="13.2449135"><ele>799.0</ele><time>2026-04-18T09:57:08.158Z</time></trkpt><trkpt lat="38.012246" lon="13.2450299"><ele>798.0</ele><time>2026-04-18T09:57:09.159Z</time></trkpt><trkpt lat="38.012444" lon="13.2451463"><ele>797.0</ele><time>2026-04-18T09:57:10.158Z</time></trkpt><trkpt lat="38.0126427" lon="13.2452603"><ele>797.0</ele><time>2026-04-18T09:57:11.158Z</time></trkpt><trkpt lat="38.0128362" lon="13.2453665"><ele>797.0</ele><time>2026-04-18T09:57:12.158Z</time></trkpt><trkpt lat="38.0130316" lon="13.2454699"><ele>797.0</ele><time>2026-04-18T09:57:13.158Z</time></trkpt><trkpt lat="38.0132274" lon="13.2455679"><ele>793.0</ele><time>2026-04-18T09:57:14.158Z</time></trkpt><trkpt lat="38.0134265" lon="13.2456564"><ele>789.0</ele><time>2026-04-18T09:57:15.159Z</time></trkpt><trkpt lat="38.0136273" lon="13.2457444"><ele>785.0</ele><time>2026-04-18T09:57:16.159Z</time></trkpt><trkpt lat="38.0138279" lon="13.2458347"><ele>785.0</ele><time>2026-04-18T09:57:17.158Z</time></trkpt><trkpt lat="38.0140264" lon="13.2459203"><ele>785.0</ele><time>2026-04-18T09:57:18.158Z</time></trkpt><trkpt lat="38.0142228" lon="13.2460087"><ele>785.0</ele><time>2026-04-18T09:57:19.158Z</time></trkpt><trkpt lat="38.0144226" lon="13.2460989"><ele>784.6666666666667</ele><time>2026-04-18T09:57:20.159Z</time></trkpt><trkpt lat="38.0146227" lon="13.2461893"><ele>784.3333333333333</ele><time>2026-04-18T09:57:21.159Z</time></trkpt><trkpt lat="38.0148222" lon="13.2462758"><ele>784.0</ele><time>2026-04-18T09:57:22.159Z</time></trkpt><trkpt lat="38.015025" lon="13.2463591"><ele>781.6666666666666</ele><time>2026-04-18T09:57:23.158Z</time></trkpt><trkpt lat="38.0152264" lon="13.2464432"><ele>779.3333333333333</ele><time>2026-04-18T09:57:24.159Z</time></trkpt><trkpt lat="38.015426" lon="13.2465315"><ele>777.0</ele><time>2026-04-18T09:57:25.159Z</time></trkpt><trkpt lat="38.0156274" lon="13.2466158"><ele>772.6666666666666</ele><time>2026-04-18T09:57:26.158Z</time></trkpt><trkpt lat="38.0158329" lon="13.2466947"><ele>768.3333333333333</ele><time>2026-04-18T09:57:27.159Z</time></trkpt><trkpt lat="38.0160369" lon="13.2467795"><ele>764.0</ele><time>2026-04-18T09:57:28.159Z</time></trkpt><trkpt lat="38.0162378" lon="13.2468658"><ele>764.0</ele><time>2026-04-18T09:57:29.159Z</time></trkpt><trkpt lat="38.0164385" lon="13.2469553"><ele>764.0</ele><time>2026-04-18T09:57:30.158Z</time></trkpt><trkpt lat="38.0166385" lon="13.2470403"><ele>764.0</ele><time>2026-04-18T09:57:31.159Z</time></trkpt><trkpt lat="38.0168424" lon="13.2471221"><ele>763.0</ele><time>2026-04-18T09:57:32.159Z</time></trkpt><trkpt lat="38.017046" lon="13.2472027"><ele>762.0</ele><time>2026-04-18T09:57:33.159Z</time></trkpt><trkpt lat="38.017248" lon="13.2472854"><ele>761.0</ele><time>2026-04-18T09:57:34.159Z</time></trkpt><trkpt lat="38.0174507" lon="13.2473722"><ele>757.0</ele><time>2026-04-18T09:57:35.159Z</time></trkpt><trkpt lat="38.0176505" lon="13.2474613"><ele>753.0</ele><time>2026-04-18T09:57:36.158Z</time></trkpt><trkpt lat="38.0178509" lon="13.2475463"><ele>749.0</ele><time>2026-04-18T09:57:37.159Z</time></trkpt><trkpt lat="38.0180552" lon="13.247622"><ele>749.0</ele><time>2026-04-18T09:57:38.159Z</time></trkpt><trkpt lat="38.0182619" lon="13.247689"><ele>749.0</ele><time>2026-04-18T09:57:39.159Z</time></trkpt><trkpt lat="38.0184712" lon="13.2477396"><ele>749.0</ele><time>2026-04-18T09:57:40.158Z</time></trkpt><trkpt lat="38.0186826" lon="13.2477805"><ele>749.0</ele><time>2026-04-18T09:57:41.158Z</time></trkpt><trkpt lat="38.0188939" lon="13.2478091"><ele>749.0</ele><time>2026-04-18T09:57:42.159Z</time></trkpt><trkpt lat="38.0191066" lon="13.2478234"><ele>749.0</ele><time>2026-04-18T09:57:43.159Z</time></trkpt><trkpt lat="38.0193182" lon="13.2478281"><ele>748.0</ele><time>2026-04-18T09:57:44.158Z</time></trkpt><trkpt lat="38.019529" lon="13.2478165"><ele>747.0</ele><time>2026-04-18T09:57:45.159Z</time></trkpt><trkpt lat="38.0197415" lon="13.2477907"><ele>746.0</ele><time>2026-04-18T09:57:46.158Z</time></trkpt><trkpt lat="38.0199548" lon="13.2477537"><ele>743.6666666666666</ele><time>2026-04-18T09:57:47.158Z</time></trkpt><trkpt lat="38.0201639" lon="13.2477024"><ele>741.3333333333334</ele><time>2026-04-18T09:57:48.159Z</time></trkpt><trkpt lat="38.0203714" lon="13.2476372"><ele>739.0</ele><time>2026-04-18T09:57:49.159Z</time></trkpt><trkpt lat="38.0205743" lon="13.247561"><ele>739.0</ele><time>2026-04-18T09:57:50.159Z</time></trkpt><trkpt lat="38.0207766" lon="13.2474789"><ele>739.0</ele><time>2026-04-18T09:57:51.158Z</time></trkpt><trkpt lat="38.0209773" lon="13.2473886"><ele>739.0</ele><time>2026-04-18T09:57:52.159Z</time></trkpt><trkpt lat="38.0211758" lon="13.2472971"><ele>739.6666666666667</ele><time>2026-04-18T09:57:53.158Z</time></trkpt><trkpt lat="38.0213746" lon="13.247201"><ele>740.3333333333334</ele><time>2026-04-18T09:57:54.159Z</time></trkpt><trkpt lat="38.0215729" lon="13.2471054"><ele>741.0</ele><time>2026-04-18T09:57:55.159Z</time></trkpt><trkpt lat="38.0217725" lon="13.2470096"><ele>738.3333333333334</ele><time>2026-04-18T09:57:56.158Z</time></trkpt><trkpt lat="38.0219725" lon="13.2469117"><ele>735.6666666666667</ele><time>2026-04-18T09:57:57.159Z</time></trkpt><trkpt lat="38.0221725" lon="13.2468158"><ele>733.0</ele><time>2026-04-18T09:57:58.158Z</time></trkpt><trkpt lat="38.0223715" lon="13.246722"><ele>732.3333333333334</ele><time>2026-04-18T09:57:59.159Z</time></trkpt><trkpt lat="38.02257" lon="13.2466293"><ele>731.6666666666666</ele><time>2026-04-18T09:58:00.159Z</time></trkpt><trkpt lat="38.0227697" lon="13.2465351"><ele>731.0</ele><time>2026-04-18T09:58:01.158Z</time></trkpt><trkpt lat="38.0229691" lon="13.2464381"><ele>731.0</ele><time>2026-04-18T09:58:02.158Z</time></trkpt><trkpt lat="38.0231681" lon="13.2463403"><ele>731.0</ele><time>2026-04-18T09:58:03.158Z</time></trkpt><trkpt lat="38.0233641" lon="13.2462422"><ele>731.0</ele><time>2026-04-18T09:58:04.159Z</time></trkpt><trkpt lat="38.0235632" lon="13.246144"><ele>727.3333333333333</ele><time>2026-04-18T09:58:05.159Z</time></trkpt><trkpt lat="38.0237631" lon="13.2460439"><ele>723.6666666666666</ele><time>2026-04-18T09:58:06.159Z</time></trkpt><trkpt lat="38.0239636" lon="13.2459505"><ele>720.0</ele><time>2026-04-18T09:58:07.159Z</time></trkpt><trkpt lat="38.0241585" lon="13.2458518"><ele>716.3333333333334</ele><time>2026-04-18T09:58:08.158Z</time></trkpt><trkpt lat="38.0243522" lon="13.2457471"><ele>712.6666666666667</ele><time>2026-04-18T09:58:09.158Z</time></trkpt><trkpt lat="38.0245477" lon="13.2456506"><ele>709.0</ele><time>2026-04-18T09:58:10.159Z</time></trkpt><trkpt lat="38.0247476" lon="13.2455566"><ele>708.6666666666667</ele><time>2026-04-18T09:58:11.158Z</time></trkpt><trkpt lat="38.0249499" lon="13.2454643"><ele>708.3333333333334</ele><time>2026-04-18T09:58:12.159Z</time></trkpt><trkpt lat="38.0251519" lon="13.2453728"><ele>708.0</ele><time>2026-04-18T09:58:13.158Z</time></trkpt><trkpt lat="38.0253525" lon="13.2452829"><ele>706.3333333333334</ele><time>2026-04-18T09:58:14.158Z</time></trkpt><trkpt lat="38.0255493" lon="13.2451867"><ele>704.6666666666667</ele><time>2026-04-18T09:58:15.158Z</time></trkpt><trkpt lat="38.025744" lon="13.2450851"><ele>703.0</ele><time>2026-04-18T09:58:16.158Z</time></trkpt><trkpt lat="38.0259393" lon="13.244976"><ele>703.0</ele><time>2026-04-18T09:58:17.158Z</time></trkpt><trkpt lat="38.0261323" lon="13.2448603"><ele>703.0</ele><time>2026-04-18T09:58:18.158Z</time></trkpt><trkpt lat="38.0263224" lon="13.2447396"><ele>703.0</ele><time>2026-04-18T09:58:19.159Z</time></trkpt><trkpt lat="38.0265107" lon="13.2446142"><ele>701.6666666666667</ele><time>2026-04-18T09:58:20.158Z</time></trkpt><trkpt lat="38.0266918" lon="13.2444813"><ele>700.3333333333334</ele><time>2026-04-18T09:58:21.159Z</time></trkpt><trkpt lat="38.0268718" lon="13.2443383"><ele>699.0</ele><time>2026-04-18T09:58:22.158Z</time></trkpt><trkpt lat="38.0270505" lon="13.244189"><ele>699.0</ele><time>2026-04-18T09:58:23.159Z</time></trkpt><trkpt lat="38.0272282" lon="13.244034"><ele>699.0</ele><time>2026-04-18T09:58:24.158Z</time></trkpt><trkpt lat="38.0273971" lon="13.2438692"><ele>699.0</ele><time>2026-04-18T09:58:25.159Z</time></trkpt><trkpt lat="38.0275645" lon="13.243707"><ele>695.6666666666666</ele><time>2026-04-18T09:58:26.158Z</time></trkpt><trkpt lat="38.0277298" lon="13.2435353"><ele>692.3333333333333</ele><time>2026-04-18T09:58:27.159Z</time></trkpt><trkpt lat="38.0278944" lon="13.2433636"><ele>689.0</ele><time>2026-04-18T09:58:28.159Z</time></trkpt><trkpt lat="38.0280587" lon="13.2431931"><ele>689.6666666666666</ele><time>2026-04-18T09:58:29.159Z</time></trkpt><trkpt lat="38.0282225" lon="13.2430235"><ele>690.3333333333334</ele><time>2026-04-18T09:58:30.158Z</time></trkpt><trkpt lat="38.0283836" lon="13.2428474"><ele>691.0</ele><time>2026-04-18T09:58:31.158Z</time></trkpt><trkpt lat="38.0285383" lon="13.2426738"><ele>688.0</ele><time>2026-04-18T09:58:32.159Z</time></trkpt><trkpt lat="38.0286888" lon="13.2425039"><ele>685.0</ele><time>2026-04-18T09:58:33.158Z</time></trkpt><trkpt lat="38.0288402" lon="13.2423416"><ele>682.0</ele><time>2026-04-18T09:58:34.159Z</time></trkpt><trkpt lat="38.0289912" lon="13.2421745"><ele>678.3333333333334</ele><time>2026-04-18T09:58:35.159Z</time></trkpt><trkpt lat="38.0291452" lon="13.2419991"><ele>674.6666666666666</ele><time>2026-04-18T09:58:36.159Z</time></trkpt><trkpt lat="38.0293057" lon="13.2418212"><ele>671.0</ele><time>2026-04-18T09:58:37.159Z</time></trkpt><trkpt lat="38.0294755" lon="13.2416425"><ele>671.6666666666666</ele><time>2026-04-18T09:58:38.159Z</time></trkpt><trkpt lat="38.0296471" lon="13.2414632"><ele>672.3333333333334</ele><time>2026-04-18T09:58:39.158Z</time></trkpt><trkpt lat="38.0298221" lon="13.2412835"><ele>673.0</ele><time>2026-04-18T09:58:40.159Z</time></trkpt><trkpt lat="38.0299973" lon="13.2411067"><ele>665.5</ele><time>2026-04-18T09:58:41.159Z</time></trkpt><trkpt lat="38.0301743" lon="13.240923"><ele>658.0</ele><time>2026-04-18T09:58:42.158Z</time></trkpt><trkpt lat="38.0303466" lon="13.2407398"><ele>659.3333333333334</ele><time>2026-04-18T09:58:43.159Z</time></trkpt><trkpt lat="38.0305201" lon="13.240559"><ele>660.6666666666666</ele><time>2026-04-18T09:58:44.159Z</time></trkpt><trkpt lat="38.0306924" lon="13.2403763"><ele>662.0</ele><time>2026-04-18T09:58:45.158Z</time></trkpt><trkpt lat="38.030862" lon="13.2401964"><ele>659.0</ele><time>2026-04-18T09:58:46.159Z</time></trkpt><trkpt lat="38.0310246" lon="13.2400219"><ele>656.0</ele><time>2026-04-18T09:58:47.159Z</time></trkpt><trkpt lat="38.0311866" lon="13.2398491"><ele>653.0</ele><time>2026-04-18T09:58:48.159Z</time></trkpt><trkpt lat="38.0313484" lon="13.2396749"><ele>653.0</ele><time>2026-04-18T09:58:49.159Z</time></trkpt><trkpt lat="38.0315118" lon="13.2395015"><ele>653.0</ele><time>2026-04-18T09:58:50.158Z</time></trkpt><trkpt lat="38.031676" lon="13.2393271"><ele>653.0</ele><time>2026-04-18T09:58:51.159Z</time></trkpt><trkpt lat="38.0318395" lon="13.2391491"><ele>653.3333333333333</ele><time>2026-04-18T09:58:52.158Z</time></trkpt><trkpt lat="38.0320019" lon="13.2389738"><ele>653.6666666666666</ele><time>2026-04-18T09:58:53.159Z</time></trkpt><trkpt lat="38.032166" lon="13.2388003"><ele>654.0</ele><time>2026-04-18T09:58:54.159Z</time></trkpt><trkpt lat="38.032329" lon="13.2386273"><ele>655.3333333333334</ele><time>2026-04-18T09:58:55.159Z</time></trkpt><trkpt lat="38.0324903" lon="13.2384532"><ele>656.6666666666667</ele><time>2026-04-18T09:58:56.158Z</time></trkpt><trkpt lat="38.0326515" lon="13.2382772"><ele>658.0</ele><time>2026-04-18T09:58:57.159Z</time></trkpt><trkpt lat="38.0328125" lon="13.2380967"><ele>658.0</ele><time>2026-04-18T09:58:58.159Z</time></trkpt><trkpt lat="38.0329739" lon="13.2379199"><ele>658.0</ele><time>2026-04-18T09:58:59.158Z</time></trkpt><trkpt lat="38.0331376" lon="13.237746"><ele>658.0</ele><time>2026-04-18T09:59:00.159Z</time></trkpt><trkpt lat="38.0332994" lon="13.2375736"><ele>653.6666666666667</ele><time>2026-04-18T09:59:01.158Z</time></trkpt><trkpt lat="38.0334601" lon="13.2374007"><ele>649.3333333333334</ele><time>2026-04-18T09:59:02.159Z</time></trkpt><trkpt lat="38.033622" lon="13.2372268"><ele>645.0</ele><time>2026-04-18T09:59:03.159Z</time></trkpt><trkpt lat="38.033785" lon="13.237056"><ele>645.0</ele><time>2026-04-18T09:59:04.159Z</time></trkpt><trkpt lat="38.033948" lon="13.236886"><ele>645.0</ele><time>2026-04-18T09:59:05.158Z</time></trkpt><trkpt lat="38.0341114" lon="13.2367164"><ele>645.0</ele><time>2026-04-18T09:59:06.159Z</time></trkpt><trkpt lat="38.034275" lon="13.236547"><ele>641.3333333333334</ele><time>2026-04-18T09:59:07.159Z</time></trkpt><trkpt lat="38.0344437" lon="13.2363849"><ele>637.6666666666667</ele><time>2026-04-18T09:59:08.159Z</time></trkpt><trkpt lat="38.0346209" lon="13.2362331"><ele>634.0</ele><time>2026-04-18T09:59:09.159Z</time></trkpt><trkpt lat="38.0348049" lon="13.2360968"><ele>631.0</ele><time>2026-04-18T09:59:10.159Z</time></trkpt><trkpt lat="38.0349934" lon="13.2359744"><ele>628.0</ele><time>2026-04-18T09:59:11.158Z</time></trkpt><trkpt lat="38.0351881" lon="13.2358674"><ele>625.0</ele><time>2026-04-18T09:59:12.158Z</time></trkpt><trkpt lat="38.0353858" lon="13.2357752"><ele>625.0</ele><time>2026-04-18T09:59:13.159Z</time></trkpt><trkpt lat="38.0355914" lon="13.2357152"><ele>625.0</ele><time>2026-04-18T09:59:14.159Z</time></trkpt><trkpt lat="38.0357993" lon="13.2356802"><ele>625.0</ele><time>2026-04-18T09:59:15.159Z</time></trkpt><trkpt lat="38.0360078" lon="13.2356695"><ele>622.0</ele><time>2026-04-18T09:59:16.159Z</time></trkpt><trkpt lat="38.0362203" lon="13.2356881"><ele>619.0</ele><time>2026-04-18T09:59:17.159Z</time></trkpt><trkpt lat="38.0364271" lon="13.2357304"><ele>616.0</ele><time>2026-04-18T09:59:18.159Z</time></trkpt><trkpt lat="38.0366359" lon="13.2357983"><ele>612.6666666666667</ele><time>2026-04-18T09:59:19.159Z</time></trkpt><trkpt lat="38.0368373" lon="13.2358969"><ele>609.3333333333334</ele><time>2026-04-18T09:59:20.158Z</time></trkpt><trkpt lat="38.0370267" lon="13.2360148"><ele>606.0</ele><time>2026-04-18T09:59:21.159Z</time></trkpt><trkpt lat="38.0372047" lon="13.2361563"><ele>606.0</ele><time>2026-04-18T09:59:22.159Z</time></trkpt><trkpt lat="38.0373655" lon="13.2363223"><ele>606.0</ele><time>2026-04-18T09:59:23.158Z</time></trkpt><trkpt lat="38.0375152" lon="13.2365086"><ele>606.0</ele><time>2026-04-18T09:59:24.159Z</time></trkpt><trkpt lat="38.0376466" lon="13.2367186"><ele>604.0</ele><time>2026-04-18T09:59:25.158Z</time></trkpt><trkpt lat="38.0377593" lon="13.2369418"><ele>602.0</ele><time>2026-04-18T09:59:26.159Z</time></trkpt><trkpt lat="38.037852" lon="13.2371824"><ele>600.0</ele><time>2026-04-18T09:59:27.159Z</time></trkpt><trkpt lat="38.0379258" lon="13.2374361"><ele>600.0</ele><time>2026-04-18T09:59:28.159Z</time></trkpt><trkpt lat="38.0379855" lon="13.2376942"><ele>600.0</ele><time>2026-04-18T09:59:29.158Z</time></trkpt><trkpt lat="38.0380219" lon="13.2379536"><ele>600.0</ele><time>2026-04-18T09:59:30.159Z</time></trkpt><trkpt lat="38.0380388" lon="13.2382154"><ele>599.3333333333334</ele><time>2026-04-18T09:59:31.159Z</time></trkpt><trkpt lat="38.0380319" lon="13.238486"><ele>598.6666666666667</ele><time>2026-04-18T09:59:32.159Z</time></trkpt><trkpt lat="38.0380036" lon="13.2387496"><ele>598.0</ele><time>2026-04-18T09:59:33.159Z</time></trkpt><trkpt lat="38.037953" lon="13.2390089"><ele>598.0</ele><time>2026-04-18T09:59:34.158Z</time></trkpt><trkpt lat="38.0378828" lon="13.2392606"><ele>598.0</ele><time>2026-04-18T09:59:35.159Z</time></trkpt><trkpt lat="38.0377942" lon="13.2395052"><ele>598.0</ele><time>2026-04-18T09:59:36.158Z</time></trkpt><trkpt lat="38.0376908" lon="13.2397437"><ele>596.6666666666667</ele><time>2026-04-18T09:59:37.158Z</time></trkpt><trkpt lat="38.0375807" lon="13.2399743"><ele>595.3333333333334</ele><time>2026-04-18T09:59:38.158Z</time></trkpt><trkpt lat="38.0374668" lon="13.2402013"><ele>594.0</ele><time>2026-04-18T09:59:39.159Z</time></trkpt><trkpt lat="38.0373506" lon="13.2404253"><ele>589.0</ele><time>2026-04-18T09:59:40.158Z</time></trkpt><trkpt lat="38.0372352" lon="13.2406474"><ele>584.0</ele><time>2026-04-18T09:59:41.158Z</time></trkpt><trkpt lat="38.0371166" lon="13.2408723"><ele>579.0</ele><time>2026-04-18T09:59:42.159Z</time></trkpt><trkpt lat="38.0370011" lon="13.241099"><ele>579.0</ele><time>2026-04-18T09:59:43.159Z</time></trkpt><trkpt lat="38.0368833" lon="13.2413203"><ele>579.0</ele><time>2026-04-18T09:59:44.159Z</time></trkpt><trkpt lat="38.0367657" lon="13.2415405"><ele>579.0</ele><time>2026-04-18T09:59:45.159Z</time></trkpt><trkpt lat="38.0366479" lon="13.2417585"><ele>578.3333333333334</ele><time>2026-04-18T09:59:46.159Z</time></trkpt><trkpt lat="38.0365313" lon="13.2419845"><ele>577.6666666666667</ele><time>2026-04-18T09:59:47.158Z</time></trkpt><trkpt lat="38.0364158" lon="13.2422086"><ele>577.0</ele><time>2026-04-18T09:59:48.159Z</time></trkpt><trkpt lat="38.0362978" lon="13.2424311"><ele>574.3333333333334</ele><time>2026-04-18T09:59:49.159Z</time></trkpt><trkpt lat="38.03618" lon="13.2426531"><ele>571.6666666666666</ele><time>2026-04-18T09:59:50.159Z</time></trkpt><trkpt lat="38.0360656" lon="13.242875"><ele>569.0</ele><time>2026-04-18T09:59:51.159Z</time></trkpt><trkpt lat="38.0359536" lon="13.2431033"><ele>567.3333333333333</ele><time>2026-04-18T09:59:52.159Z</time></trkpt><trkpt lat="38.0358459" lon="13.2433331"><ele>565.6666666666666</ele><time>2026-04-18T09:59:53.159Z</time></trkpt><trkpt lat="38.0357439" lon="13.2435705"><ele>564.0</ele><time>2026-04-18T09:59:54.159Z</time></trkpt><trkpt lat="38.0356475" lon="13.2438122"><ele>566.6666666666666</ele><time>2026-04-18T09:59:55.158Z</time></trkpt><trkpt lat="38.0355541" lon="13.2440551"><ele>569.3333333333333</ele><time>2026-04-18T09:59:56.159Z</time></trkpt><trkpt lat="38.0354668" lon="13.2442974"><ele>572.0</ele><time>2026-04-18T09:59:57.159Z</time></trkpt><trkpt lat="38.0353861" lon="13.2445392"><ele>572.0</ele><time>2026-04-18T09:59:58.158Z</time></trkpt><trkpt lat="38.0353085" lon="13.2447883"><ele>572.0</ele><time>2026-04-18T09:59:59.159Z</time></trkpt><trkpt lat="38.0352343" lon="13.2450404"><ele>572.0</ele><time>2026-04-18T10:00:00.159Z</time></trkpt><trkpt lat="38.0351682" lon="13.245293"><ele>572.6666666666666</ele><time>2026-04-18T10:00:01.158Z</time></trkpt><trkpt lat="38.0351062" lon="13.2455496"><ele>573.3333333333334</ele><time>2026-04-18T10:00:02.159Z</time></trkpt><trkpt lat="38.0350512" lon="13.2458056"><ele>574.0</ele><time>2026-04-18T10:00:03.158Z</time></trkpt><trkpt lat="38.0349965" lon="13.2460632"><ele>575.0</ele><time>2026-04-18T10:00:04.158Z</time></trkpt><trkpt lat="38.0349427" lon="13.2463218"><ele>576.0</ele><time>2026-04-18T10:00:05.159Z</time></trkpt><trkpt lat="38.0348906" lon="13.2465804"><ele>577.0</ele><time>2026-04-18T10:00:06.159Z</time></trkpt><trkpt lat="38.0348353" lon="13.2468412"><ele>575.0</ele><time>2026-04-18T10:00:07.159Z</time></trkpt><trkpt lat="38.0347806" lon="13.2470988"><ele>573.0</ele><time>2026-04-18T10:00:08.159Z</time></trkpt><trkpt lat="38.0347248" lon="13.2473575"><ele>571.0</ele><time>2026-04-18T10:00:09.158Z</time></trkpt><trkpt lat="38.0346685" lon="13.2476164"><ele>569.6666666666667</ele><time>2026-04-18T10:00:10.159Z</time></trkpt><trkpt lat="38.0346169" lon="13.2478769"><ele>568.3333333333334</ele><time>2026-04-18T10:00:11.159Z</time></trkpt><trkpt lat="38.0345639" lon="13.2481343"><ele>567.0</ele><time>2026-04-18T10:00:12.158Z</time></trkpt><trkpt lat="38.0345122" lon="13.2483992"><ele>567.0</ele><time>2026-04-18T10:00:13.159Z</time></trkpt><trkpt lat="38.0344631" lon="13.2486595"><ele>567.0</ele><time>2026-04-18T10:00:14.159Z</time></trkpt><trkpt lat="38.0344103" lon="13.2489221"><ele>567.0</ele><time>2026-04-18T10:00:15.158Z</time></trkpt><trkpt lat="38.0343587" lon="13.2491816"><ele>566.3333333333334</ele><time>2026-04-18T10:00:16.159Z</time></trkpt><trkpt lat="38.0343086" lon="13.2494426"><ele>565.6666666666667</ele><time>2026-04-18T10:00:17.159Z</time></trkpt><trkpt lat="38.0342559" lon="13.2497017"><ele>565.0</ele><time>2026-04-18T10:00:18.159Z</time></trkpt><trkpt lat="38.0342018" lon="13.2499607"><ele>565.3333333333334</ele><time>2026-04-18T10:00:19.159Z</time></trkpt><trkpt lat="38.0341487" lon="13.2502187"><ele>565.6666666666666</ele><time>2026-04-18T10:00:20.159Z</time></trkpt><trkpt lat="38.0340898" lon="13.2504735"><ele>566.0</ele><time>2026-04-18T10:00:21.159Z</time></trkpt><trkpt lat="38.0340261" lon="13.2507286"><ele>566.0</ele><time>2026-04-18T10:00:22.159Z</time></trkpt><trkpt lat="38.0339622" lon="13.2509824"><ele>566.0</ele><time>2026-04-18T10:00:23.158Z</time></trkpt><trkpt lat="38.0338943" lon="13.2512386"><ele>566.0</ele><time>2026-04-18T10:00:24.159Z</time></trkpt><trkpt lat="38.0338245" lon="13.2514909"><ele>566.3333333333333</ele><time>2026-04-18T10:00:25.159Z</time></trkpt><trkpt lat="38.0337526" lon="13.2517437"><ele>566.6666666666666</ele><time>2026-04-18T10:00:26.158Z</time></trkpt><trkpt lat="38.0336761" lon="13.2519948"><ele>567.0</ele><time>2026-04-18T10:00:27.159Z</time></trkpt><trkpt lat="38.0335958" lon="13.2522423"><ele>566.6666666666666</ele><time>2026-04-18T10:00:28.159Z</time></trkpt><trkpt lat="38.0335119" lon="13.2524881"><ele>566.3333333333333</ele><time>2026-04-18T10:00:29.159Z</time></trkpt><trkpt lat="38.0334269" lon="13.252736"><ele>566.0</ele><time>2026-04-18T10:00:30.158Z</time></trkpt><trkpt lat="38.0333406" lon="13.2529843"><ele>572.6666666666666</ele><time>2026-04-18T10:00:31.158Z</time></trkpt><trkpt lat="38.0332499" lon="13.2532264"><ele>579.3333333333334</ele><time>2026-04-18T10:00:32.159Z</time></trkpt><trkpt lat="38.0331563" lon="13.2534727"><ele>586.0</ele><time>2026-04-18T10:00:33.159Z</time></trkpt><trkpt lat="38.0330631" lon="13.2537152"><ele>586.0</ele><time>2026-04-18T10:00:34.159Z</time></trkpt><trkpt lat="38.0329709" lon="13.2539536"><ele>586.0</ele><time>2026-04-18T10:00:35.159Z</time></trkpt><trkpt lat="38.0328786" lon="13.2541975"><ele>586.0</ele><time>2026-04-18T10:00:36.159Z</time></trkpt><trkpt lat="38.0327859" lon="13.2544378"><ele>585.0</ele><time>2026-04-18T10:00:37.159Z</time></trkpt><trkpt lat="38.0326924" lon="13.2546783"><ele>584.0</ele><time>2026-04-18T10:00:38.17Z</time></trkpt><trkpt lat="38.0325983" lon="13.2549206"><ele>583.0</ele><time>2026-04-18T10:00:39.17Z</time></trkpt><trkpt lat="38.0325031" lon="13.2551657"><ele>583.0</ele><time>2026-04-18T10:00:40.171Z</time></trkpt><trkpt lat="38.0324077" lon="13.2554053"><ele>583.0</ele><time>2026-04-18T10:00:41.171Z</time></trkpt><trkpt lat="38.0323146" lon="13.2556476"><ele>583.0</ele><time>2026-04-18T10:00:42.171Z</time></trkpt><trkpt lat="38.0322194" lon="13.255891"><ele>578.0</ele><time>2026-04-18T10:00:43.171Z</time></trkpt><trkpt lat="38.032127" lon="13.2561361"><ele>573.0</ele><time>2026-04-18T10:00:44.171Z</time></trkpt><trkpt lat="38.0320301" lon="13.2563796"><ele>568.0</ele><time>2026-04-18T10:00:45.17Z</time></trkpt><trkpt lat="38.0319336" lon="13.2566232"><ele>564.0</ele><time>2026-04-18T10:00:46.171Z</time></trkpt><trkpt lat="38.0318404" lon="13.256867"><ele>560.0</ele><time>2026-04-18T10:00:47.171Z</time></trkpt><trkpt lat="38.0317454" lon="13.2571093"><ele>556.0</ele><time>2026-04-18T10:00:48.171Z</time></trkpt><trkpt lat="38.0316552" lon="13.2573475"><ele>554.0</ele><time>2026-04-18T10:00:49.171Z</time></trkpt><trkpt lat="38.0315637" lon="13.2575873"><ele>552.0</ele><time>2026-04-18T10:00:50.17Z</time></trkpt><trkpt lat="38.0314739" lon="13.257829"><ele>550.0</ele><time>2026-04-18T10:00:51.171Z</time></trkpt><trkpt lat="38.0313818" lon="13.258068"><ele>548.3333333333334</ele><time>2026-04-18T10:00:52.171Z</time></trkpt><trkpt lat="38.0312856" lon="13.258311"><ele>546.6666666666666</ele><time>2026-04-18T10:00:53.17Z</time></trkpt><trkpt lat="38.0311905" lon="13.2585497"><ele>545.0</ele><time>2026-04-18T10:00:54.171Z</time></trkpt><trkpt lat="38.0311002" lon="13.2587958"><ele>543.6666666666666</ele><time>2026-04-18T10:00:55.171Z</time></trkpt><trkpt lat="38.0310094" lon="13.2590358"><ele>542.3333333333334</ele><time>2026-04-18T10:00:56.171Z</time></trkpt><trkpt lat="38.0309167" lon="13.2592764"><ele>541.0</ele><time>2026-04-18T10:00:57.171Z</time></trkpt><trkpt lat="38.0308277" lon="13.2595166"><ele>540.3333333333334</ele><time>2026-04-18T10:00:58.17Z</time></trkpt><trkpt lat="38.0307461" lon="13.2597623"><ele>539.6666666666666</ele><time>2026-04-18T10:00:59.171Z</time></trkpt><trkpt lat="38.0306746" lon="13.2600129"><ele>539.0</ele><time>2026-04-18T10:01:00.171Z</time></trkpt><trkpt lat="38.0306168" lon="13.2602709"><ele>539.0</ele><time>2026-04-18T10:01:01.171Z</time></trkpt><trkpt lat="38.0305703" lon="13.2605324"><ele>539.0</ele><time>2026-04-18T10:01:02.17Z</time></trkpt><trkpt lat="38.0305332" lon="13.2608006"><ele>539.0</ele><time>2026-04-18T10:01:03.171Z</time></trkpt><trkpt lat="38.0305183" lon="13.2610694"><ele>537.0</ele><time>2026-04-18T10:01:04.171Z</time></trkpt><trkpt lat="38.0305166" lon="13.2613377"><ele>535.0</ele><time>2026-04-18T10:01:05.171Z</time></trkpt><trkpt lat="38.0305227" lon="13.2616035"><ele>533.0</ele><time>2026-04-18T10:01:06.171Z</time></trkpt><trkpt lat="38.0305388" lon="13.261872"><ele>530.0</ele><time>2026-04-18T10:01:07.171Z</time></trkpt><trkpt lat="38.0305683" lon="13.2621401"><ele>527.0</ele><time>2026-04-18T10:01:08.171Z</time></trkpt><trkpt lat="38.0306128" lon="13.2624021"><ele>524.0</ele><time>2026-04-18T10:01:09.171Z</time></trkpt><trkpt lat="38.0306781" lon="13.2626553"><ele>523.0</ele><time>2026-04-18T10:01:10.171Z</time></trkpt><trkpt lat="38.0307504" lon="13.2629069"><ele>522.0</ele><time>2026-04-18T10:01:11.171Z</time></trkpt><trkpt lat="38.0308312" lon="13.2631517"><ele>521.0</ele><time>2026-04-18T10:01:12.17Z</time></trkpt><trkpt lat="38.030926" lon="13.2633922"><ele>520.6666666666666</ele><time>2026-04-18T10:01:13.171Z</time></trkpt><trkpt lat="38.0310319" lon="13.2636292"><ele>520.3333333333334</ele><time>2026-04-18T10:01:14.171Z</time></trkpt><trkpt lat="38.0311466" lon="13.2638551"><ele>520.0</ele><time>2026-04-18T10:01:15.171Z</time></trkpt><trkpt lat="38.031277" lon="13.2640671"><ele>520.0</ele><time>2026-04-18T10:01:16.171Z</time></trkpt><trkpt lat="38.0314122" lon="13.2642646"><ele>520.0</ele><time>2026-04-18T10:01:17.171Z</time></trkpt><trkpt lat="38.0315603" lon="13.2644567"><ele>520.0</ele><time>2026-04-18T10:01:18.17Z</time></trkpt><trkpt lat="38.031715" lon="13.2646303"><ele>517.3333333333334</ele><time>2026-04-18T10:01:19.171Z</time></trkpt><trkpt lat="38.0318722" lon="13.2647918"><ele>514.6666666666666</ele><time>2026-04-18T10:01:20.171Z</time></trkpt><trkpt lat="38.0320282" lon="13.2649338"><ele>512.0</ele><time>2026-04-18T10:01:21.17Z</time></trkpt><trkpt lat="38.0321886" lon="13.2650645"><ele>512.0</ele><time>2026-04-18T10:01:22.17Z</time></trkpt><trkpt lat="38.0323534" lon="13.2651808"><ele>512.0</ele><time>2026-04-18T10:01:23.17Z</time></trkpt><trkpt lat="38.0325191" lon="13.265283"><ele>512.0</ele><time>2026-04-18T10:01:24.171Z</time></trkpt><trkpt lat="38.0326792" lon="13.2653737"><ele>513.0</ele><time>2026-04-18T10:01:25.171Z</time></trkpt><trkpt lat="38.0328435" lon="13.2654588"><ele>514.0</ele><time>2026-04-18T10:01:26.17Z</time></trkpt><trkpt lat="38.0330091" lon="13.2655367"><ele>515.0</ele><time>2026-04-18T10:01:27.171Z</time></trkpt><trkpt lat="38.0331788" lon="13.2656139"><ele>514.3333333333333</ele><time>2026-04-18T10:01:28.171Z</time></trkpt><trkpt lat="38.0333539" lon="13.2656859"><ele>513.6666666666666</ele><time>2026-04-18T10:01:29.171Z</time></trkpt><trkpt lat="38.0335271" lon="13.2657609"><ele>513.0</ele><time>2026-04-18T10:01:30.171Z</time></trkpt><trkpt lat="38.0337038" lon="13.2658395"><ele>513.0</ele><time>2026-04-18T10:01:31.171Z</time></trkpt><trkpt lat="38.0338809" lon="13.2659179"><ele>513.0</ele><time>2026-04-18T10:01:32.171Z</time></trkpt><trkpt lat="38.0340558" lon="13.2659952"><ele>513.0</ele><time>2026-04-18T10:01:33.171Z</time></trkpt><trkpt lat="38.0342329" lon="13.2660758"><ele>511.33333333333337</ele><time>2026-04-18T10:01:34.171Z</time></trkpt><trkpt lat="38.0344113" lon="13.266158"><ele>509.6666666666667</ele><time>2026-04-18T10:01:35.171Z</time></trkpt><trkpt lat="38.0345919" lon="13.2662348"><ele>508.0</ele><time>2026-04-18T10:01:36.171Z</time></trkpt><trkpt lat="38.0347735" lon="13.2663143"><ele>508.0</ele><time>2026-04-18T10:01:37.17Z</time></trkpt><trkpt lat="38.0349587" lon="13.2663914"><ele>508.0</ele><time>2026-04-18T10:01:38.171Z</time></trkpt><trkpt lat="38.0351452" lon="13.2664739"><ele>508.0</ele><time>2026-04-18T10:01:39.17Z</time></trkpt><trkpt lat="38.0353356" lon="13.2665516"><ele>505.33333333333337</ele><time>2026-04-18T10:01:40.171Z</time></trkpt><trkpt lat="38.0355264" lon="13.2666316"><ele>502.66666666666663</ele><time>2026-04-18T10:01:41.171Z</time></trkpt><trkpt lat="38.0357196" lon="13.2667094"><ele>500.0</ele><time>2026-04-18T10:01:42.17Z</time></trkpt><trkpt lat="38.0359164" lon="13.2667889"><ele>496.3333333333333</ele><time>2026-04-18T10:01:43.17Z</time></trkpt><trkpt lat="38.0361177" lon="13.266871"><ele>492.66666666666663</ele><time>2026-04-18T10:01:44.171Z</time></trkpt><trkpt lat="38.0363187" lon="13.2669545"><ele>489.0</ele><time>2026-04-18T10:01:45.171Z</time></trkpt><trkpt lat="38.0365206" lon="13.2670413"><ele>488.33333333333337</ele><time>2026-04-18T10:01:46.171Z</time></trkpt><trkpt lat="38.0367255" lon="13.2671257"><ele>487.6666666666667</ele><time>2026-04-18T10:01:47.171Z</time></trkpt><trkpt lat="38.036931" lon="13.2672115"><ele>487.0</ele><time>2026-04-18T10:01:48.171Z</time></trkpt><trkpt lat="38.0371346" lon="13.2672999"><ele>486.6666666666667</ele><time>2026-04-18T10:01:49.17Z</time></trkpt><trkpt lat="38.0373373" lon="13.2673865"><ele>486.33333333333337</ele><time>2026-04-18T10:01:50.171Z</time></trkpt><trkpt lat="38.0375365" lon="13.2674739"><ele>486.0</ele><time>2026-04-18T10:01:51.171Z</time></trkpt><trkpt lat="38.0377331" lon="13.2675685"><ele>486.0</ele><time>2026-04-18T10:01:52.17Z</time></trkpt><trkpt lat="38.0379318" lon="13.26766"><ele>486.0</ele><time>2026-04-18T10:01:53.171Z</time></trkpt><trkpt lat="38.0381301" lon="13.267759"><ele>486.0</ele><time>2026-04-18T10:01:54.171Z</time></trkpt><trkpt lat="38.0383224" lon="13.2678716"><ele>485.0</ele><time>2026-04-18T10:01:55.17Z</time></trkpt><trkpt lat="38.0385105" lon="13.2679996"><ele>484.0</ele><time>2026-04-18T10:01:56.171Z</time></trkpt><trkpt lat="38.03869" lon="13.268143"><ele>483.0</ele><time>2026-04-18T10:01:57.17Z</time></trkpt><trkpt lat="38.0388579" lon="13.2683044"><ele>480.33333333333337</ele><time>2026-04-18T10:01:58.171Z</time></trkpt><trkpt lat="38.0390197" lon="13.2684735"><ele>477.6666666666667</ele><time>2026-04-18T10:01:59.171Z</time></trkpt><trkpt lat="38.0391758" lon="13.2686559"><ele>475.0</ele><time>2026-04-18T10:02:00.171Z</time></trkpt><trkpt lat="38.0393216" lon="13.268854"><ele>468.6666666666667</ele><time>2026-04-18T10:02:01.171Z</time></trkpt><trkpt lat="38.039461" lon="13.2690636"><ele>462.33333333333337</ele><time>2026-04-18T10:02:02.171Z</time></trkpt><trkpt lat="38.0395876" lon="13.2692831"><ele>456.0</ele><time>2026-04-18T10:02:03.171Z</time></trkpt><trkpt lat="38.0397025" lon="13.269507"><ele>456.0</ele><time>2026-04-18T10:02:04.171Z</time></trkpt><trkpt lat="38.0398091" lon="13.2697366"><ele>456.0</ele><time>2026-04-18T10:02:05.17Z</time></trkpt><trkpt lat="38.0399057" lon="13.2699782"><ele>456.0</ele><time>2026-04-18T10:02:06.17Z</time></trkpt><trkpt lat="38.0399924" lon="13.2702235"><ele>455.33333333333337</ele><time>2026-04-18T10:02:07.17Z</time></trkpt><trkpt lat="38.0400651" lon="13.2704744"><ele>454.6666666666667</ele><time>2026-04-18T10:02:08.171Z</time></trkpt><trkpt lat="38.0401291" lon="13.2707305"><ele>454.0</ele><time>2026-04-18T10:02:09.171Z</time></trkpt><trkpt lat="38.0401922" lon="13.2709875"><ele>454.0</ele><time>2026-04-18T10:02:10.17Z</time></trkpt><trkpt lat="38.0402585" lon="13.2712441"><ele>454.0</ele><time>2026-04-18T10:02:11.171Z</time></trkpt><trkpt lat="38.0403243" lon="13.2715014"><ele>454.0</ele><time>2026-04-18T10:02:12.171Z</time></trkpt><trkpt lat="38.0403886" lon="13.2717551"><ele>454.33333333333337</ele><time>2026-04-18T10:02:13.17Z</time></trkpt><trkpt lat="38.0404571" lon="13.2720137"><ele>454.66666666666663</ele><time>2026-04-18T10:02:14.171Z</time></trkpt><trkpt lat="38.0405218" lon="13.2722676"><ele>455.0</ele><time>2026-04-18T10:02:15.171Z</time></trkpt><trkpt lat="38.0405863" lon="13.2725231"><ele>454.3333333333333</ele><time>2026-04-18T10:02:16.171Z</time></trkpt><trkpt lat="38.0406539" lon="13.2727803"><ele>453.66666666666663</ele><time>2026-04-18T10:02:17.171Z</time></trkpt><trkpt lat="38.0407199" lon="13.2730338"><ele>453.0</ele><time>2026-04-18T10:02:18.171Z</time></trkpt><trkpt lat="38.0407872" lon="13.2732879"><ele>450.33333333333337</ele><time>2026-04-18T10:02:19.17Z</time></trkpt><trkpt lat="38.0408527" lon="13.2735441"><ele>447.6666666666667</ele><time>2026-04-18T10:02:20.171Z</time></trkpt><trkpt lat="38.0409175" lon="13.2737977"><ele>445.0</ele><time>2026-04-18T10:02:21.171Z</time></trkpt><trkpt lat="38.0409856" lon="13.2740475"><ele>444.0</ele><time>2026-04-18T10:02:22.171Z</time></trkpt><trkpt lat="38.0410593" lon="13.274303"><ele>443.0</ele><time>2026-04-18T10:02:23.171Z</time></trkpt><trkpt lat="38.0411354" lon="13.2745578"><ele>442.0</ele><time>2026-04-18T10:02:24.171Z</time></trkpt><trkpt lat="38.0412121" lon="13.2748101"><ele>440.6666666666667</ele><time>2026-04-18T10:02:25.17Z</time></trkpt><trkpt lat="38.0412925" lon="13.2750579"><ele>439.33333333333337</ele><time>2026-04-18T10:02:26.171Z</time></trkpt><trkpt lat="38.0413773" lon="13.2753001"><ele>438.0</ele><time>2026-04-18T10:02:27.171Z</time></trkpt><trkpt lat="38.0414713" lon="13.2755388"><ele>438.66666666666663</ele><time>2026-04-18T10:02:28.17Z</time></trkpt><trkpt lat="38.0415693" lon="13.2757772"><ele>439.3333333333333</ele><time>2026-04-18T10:02:29.171Z</time></trkpt><trkpt lat="38.0416745" lon="13.2760103"><ele>440.0</ele><time>2026-04-18T10:02:30.171Z</time></trkpt><trkpt lat="38.041788" lon="13.2762404"><ele>435.3333333333333</ele><time>2026-04-18T10:02:31.17Z</time></trkpt><trkpt lat="38.0419052" lon="13.2764633"><ele>430.66666666666663</ele><time>2026-04-18T10:02:32.171Z</time></trkpt><trkpt lat="38.0420328" lon="13.2766797"><ele>426.0</ele><time>2026-04-18T10:02:33.171Z</time></trkpt><trkpt lat="38.0421587" lon="13.276896"><ele>426.0</ele><time>2026-04-18T10:02:34.171Z</time></trkpt><trkpt lat="38.0422838" lon="13.2771107"><ele>426.0</ele><time>2026-04-18T10:02:35.171Z</time></trkpt><trkpt lat="38.0424115" lon="13.277325"><ele>426.0</ele><time>2026-04-18T10:02:36.171Z</time></trkpt><trkpt lat="38.0425386" lon="13.2775406"><ele>424.33333333333337</ele><time>2026-04-18T10:02:37.171Z</time></trkpt><trkpt lat="38.0426687" lon="13.2777518"><ele>422.6666666666667</ele><time>2026-04-18T10:02:38.171Z</time></trkpt><trkpt lat="38.0427983" lon="13.2779635"><ele>421.0</ele><time>2026-04-18T10:02:39.171Z</time></trkpt><trkpt lat="38.0429276" lon="13.2781758"><ele>425.0</ele><time>2026-04-18T10:02:40.171Z</time></trkpt><trkpt lat="38.0430549" lon="13.2783885"><ele>429.0</ele><time>2026-04-18T10:02:41.171Z</time></trkpt><trkpt lat="38.0431812" lon="13.2786053"><ele>433.0</ele><time>2026-04-18T10:02:42.17Z</time></trkpt><trkpt lat="38.0433083" lon="13.2788261"><ele>427.0</ele><time>2026-04-18T10:02:43.171Z</time></trkpt><trkpt lat="38.0434304" lon="13.2790448"><ele>421.0</ele><time>2026-04-18T10:02:44.171Z</time></trkpt><trkpt lat="38.0435497" lon="13.2792656"><ele>415.0</ele><time>2026-04-18T10:02:45.171Z</time></trkpt><trkpt lat="38.0436656" lon="13.2794897"><ele>415.0</ele><time>2026-04-18T10:02:46.17Z</time></trkpt><trkpt lat="38.0437773" lon="13.279719"><ele>415.0</ele><time>2026-04-18T10:02:47.171Z</time></trkpt><trkpt lat="38.0438794" lon="13.2799524"><ele>415.0</ele><time>2026-04-18T10:02:48.17Z</time></trkpt><trkpt lat="38.0439808" lon="13.2801865"><ele>412.6666666666667</ele><time>2026-04-18T10:02:49.17Z</time></trkpt><trkpt lat="38.0440776" lon="13.2804306"><ele>410.33333333333337</ele><time>2026-04-18T10:02:50.17Z</time></trkpt><trkpt lat="38.0441716" lon="13.280675"><ele>408.0</ele><time>2026-04-18T10:02:51.171Z</time></trkpt><trkpt lat="38.044261" lon="13.2809218"><ele>408.0</ele><time>2026-04-18T10:02:52.171Z</time></trkpt><trkpt lat="38.0443475" lon="13.2811758"><ele>408.0</ele><time>2026-04-18T10:02:53.171Z</time></trkpt><trkpt lat="38.0444231" lon="13.2814304"><ele>408.0</ele><time>2026-04-18T10:02:54.17Z</time></trkpt><trkpt lat="38.0444879" lon="13.2816818"><ele>405.66666666666663</ele><time>2026-04-18T10:02:55.171Z</time></trkpt><trkpt lat="38.0445556" lon="13.2819397"><ele>403.3333333333333</ele><time>2026-04-18T10:02:56.171Z</time></trkpt><trkpt lat="38.0446166" lon="13.2821951"><ele>401.0</ele><time>2026-04-18T10:02:57.17Z</time></trkpt><trkpt lat="38.0446772" lon="13.2824534"><ele>400.0</ele><time>2026-04-18T10:02:58.17Z</time></trkpt><trkpt lat="38.0447293" lon="13.2827109"><ele>399.0</ele><time>2026-04-18T10:02:59.171Z</time></trkpt><trkpt lat="38.0447752" lon="13.2829711"><ele>398.0</ele><time>2026-04-18T10:03:00.171Z</time></trkpt><trkpt lat="38.0448165" lon="13.2832372"><ele>402.0</ele><time>2026-04-18T10:03:01.171Z</time></trkpt><trkpt lat="38.0448551" lon="13.2834998"><ele>406.0</ele><time>2026-04-18T10:03:02.171Z</time></trkpt><trkpt lat="38.0448857" lon="13.2837617"><ele>410.0</ele><time>2026-04-18T10:03:03.17Z</time></trkpt><trkpt lat="38.0449149" lon="13.2840248"><ele>410.0</ele><time>2026-04-18T10:03:04.17Z</time></trkpt><trkpt lat="38.0449392" lon="13.2842906"><ele>410.0</ele><time>2026-04-18T10:03:05.171Z</time></trkpt><trkpt lat="38.0449557" lon="13.2845563"><ele>410.0</ele><time>2026-04-18T10:03:06.17Z</time></trkpt><trkpt lat="38.0449692" lon="13.2848236"><ele>395.3333333333333</ele><time>2026-04-18T10:03:07.171Z</time></trkpt><trkpt lat="38.0449786" lon="13.2850913"><ele>380.66666666666663</ele><time>2026-04-18T10:03:08.171Z</time></trkpt><trkpt lat="38.0449842" lon="13.2853601"><ele>366.0</ele><time>2026-04-18T10:03:09.171Z</time></trkpt><trkpt lat="38.0449869" lon="13.2856319"><ele>366.0</ele><time>2026-04-18T10:03:10.17Z</time></trkpt><trkpt lat="38.0449874" lon="13.2859037"><ele>366.0</ele><time>2026-04-18T10:03:11.17Z</time></trkpt><trkpt lat="38.0449918" lon="13.2861716"><ele>366.0</ele><time>2026-04-18T10:03:12.171Z</time></trkpt><trkpt lat="38.0449988" lon="13.2864405"><ele>370.3333333333333</ele><time>2026-04-18T10:03:13.171Z</time></trkpt><trkpt lat="38.0450076" lon="13.2867102"><ele>374.66666666666663</ele><time>2026-04-18T10:03:14.17Z</time></trkpt><trkpt lat="38.0450212" lon="13.2869785"><ele>379.0</ele><time>2026-04-18T10:03:15.171Z</time></trkpt><trkpt lat="38.0450358" lon="13.2872472"><ele>379.0</ele><time>2026-04-18T10:03:16.171Z</time></trkpt><trkpt lat="38.0450595" lon="13.2875157"><ele>379.0</ele><time>2026-04-18T10:03:17.171Z</time></trkpt><trkpt lat="38.0450917" lon="13.2877832"><ele>379.0</ele><time>2026-04-18T10:03:18.171Z</time></trkpt><trkpt lat="38.0451283" lon="13.2880489"><ele>375.0</ele><time>2026-04-18T10:03:19.171Z</time></trkpt><trkpt lat="38.0451682" lon="13.288312"><ele>371.0</ele><time>2026-04-18T10:03:20.171Z</time></trkpt><trkpt lat="38.0452135" lon="13.2885771"><ele>367.0</ele><time>2026-04-18T10:03:21.171Z</time></trkpt><trkpt lat="38.0452622" lon="13.2888371"><ele>365.0</ele><time>2026-04-18T10:03:22.171Z</time></trkpt><trkpt lat="38.045315" lon="13.2890929"><ele>363.0</ele><time>2026-04-18T10:03:23.171Z</time></trkpt><trkpt lat="38.0453717" lon="13.2893536"><ele>361.0</ele><time>2026-04-18T10:03:24.171Z</time></trkpt><trkpt lat="38.0454352" lon="13.2896105"><ele>365.0</ele><time>2026-04-18T10:03:25.171Z</time></trkpt><trkpt lat="38.0455024" lon="13.2898624"><ele>369.0</ele><time>2026-04-18T10:03:26.171Z</time></trkpt><trkpt lat="38.0455757" lon="13.2901158"><ele>373.0</ele><time>2026-04-18T10:03:27.17Z</time></trkpt><trkpt lat="38.0456512" lon="13.2903662"><ele>370.0</ele><time>2026-04-18T10:03:28.17Z</time></trkpt><trkpt lat="38.0457278" lon="13.2906218"><ele>367.0</ele><time>2026-04-18T10:03:29.17Z</time></trkpt><trkpt lat="38.0458053" lon="13.2908741"><ele>364.0</ele><time>2026-04-18T10:03:30.171Z</time></trkpt><trkpt lat="38.0458829" lon="13.2911261"><ele>357.66666666666663</ele><time>2026-04-18T10:03:31.171Z</time></trkpt><trkpt lat="38.0459597" lon="13.2913757"><ele>351.3333333333333</ele><time>2026-04-18T10:03:32.17Z</time></trkpt><trkpt lat="38.0460349" lon="13.291628"><ele>345.0</ele><time>2026-04-18T10:03:33.171Z</time></trkpt><trkpt lat="38.0461059" lon="13.2918814"><ele>344.0</ele><time>2026-04-18T10:03:34.171Z</time></trkpt><trkpt lat="38.0461697" lon="13.2921326"><ele>343.0</ele><time>2026-04-18T10:03:35.17Z</time></trkpt><trkpt lat="38.0462301" lon="13.2923898"><ele>342.0</ele><time>2026-04-18T10:03:36.17Z</time></trkpt><trkpt lat="38.0462846" lon="13.2926473"><ele>339.6666666666667</ele><time>2026-04-18T10:03:37.171Z</time></trkpt><trkpt lat="38.0463336" lon="13.2929095"><ele>337.33333333333337</ele><time>2026-04-18T10:03:38.17Z</time></trkpt><trkpt lat="38.0463746" lon="13.2931725"><ele>335.0</ele><time>2026-04-18T10:03:39.17Z</time></trkpt><trkpt lat="38.0464149" lon="13.2934378"><ele>335.33333333333337</ele><time>2026-04-18T10:03:40.171Z</time></trkpt><trkpt lat="38.0464513" lon="13.2937012"><ele>335.6666666666667</ele><time>2026-04-18T10:03:41.171Z</time></trkpt><trkpt lat="38.0464802" lon="13.2939657"><ele>336.0</ele><time>2026-04-18T10:03:42.17Z</time></trkpt><trkpt lat="38.0465095" lon="13.2942319"><ele>336.0</ele><time>2026-04-18T10:03:43.171Z</time></trkpt><trkpt lat="38.0465317" lon="13.2944986"><ele>336.0</ele><time>2026-04-18T10:03:44.17Z</time></trkpt><trkpt lat="38.0465514" lon="13.2947682"><ele>336.0</ele><time>2026-04-18T10:03:45.171Z</time></trkpt><trkpt lat="38.0465698" lon="13.2950388"><ele>336.3333333333333</ele><time>2026-04-18T10:03:46.171Z</time></trkpt><trkpt lat="38.0465913" lon="13.2953052"><ele>336.66666666666663</ele><time>2026-04-18T10:03:47.171Z</time></trkpt><trkpt lat="38.0466131" lon="13.2955721"><ele>337.0</ele><time>2026-04-18T10:03:48.171Z</time></trkpt><trkpt lat="38.0466322" lon="13.2958401"><ele>332.3333333333333</ele><time>2026-04-18T10:03:49.171Z</time></trkpt><trkpt lat="38.0466493" lon="13.2961076"><ele>327.6666666666667</ele><time>2026-04-18T10:03:50.171Z</time></trkpt><trkpt lat="38.046667" lon="13.2963723"><ele>323.0</ele><time>2026-04-18T10:03:51.171Z</time></trkpt><trkpt lat="38.0466876" lon="13.2966417"><ele>320.0</ele><time>2026-04-18T10:03:52.171Z</time></trkpt><trkpt lat="38.0467071" lon="13.2969078"><ele>317.0</ele><time>2026-04-18T10:03:53.171Z</time></trkpt><trkpt lat="38.046725" lon="13.2971716"><ele>314.0</ele><time>2026-04-18T10:03:54.171Z</time></trkpt><trkpt lat="38.0467469" lon="13.2974384"><ele>310.6666666666667</ele><time>2026-04-18T10:03:55.171Z</time></trkpt><trkpt lat="38.0467701" lon="13.2977059"><ele>307.3333333333333</ele><time>2026-04-18T10:03:56.171Z</time></trkpt><trkpt lat="38.0467911" lon="13.2979704"><ele>304.0</ele><time>2026-04-18T10:03:57.17Z</time></trkpt><trkpt lat="38.0468202" lon="13.298235"><ele>303.0</ele><time>2026-04-18T10:03:58.17Z</time></trkpt><trkpt lat="38.0468521" lon="13.2985005"><ele>302.0</ele><time>2026-04-18T10:03:59.17Z</time></trkpt><trkpt lat="38.0468876" lon="13.2987655"><ele>301.0</ele><time>2026-04-18T10:04:00.169Z</time></trkpt><trkpt lat="38.0469293" lon="13.2990331"><ele>304.0</ele><time>2026-04-18T10:04:01.17Z</time></trkpt><trkpt lat="38.0469747" lon="13.2992952"><ele>307.0</ele><time>2026-04-18T10:04:02.17Z</time></trkpt><trkpt lat="38.0470236" lon="13.2995575"><ele>310.0</ele><time>2026-04-18T10:04:03.17Z</time></trkpt><trkpt lat="38.0470786" lon="13.2998191"><ele>312.66666666666663</ele><time>2026-04-18T10:04:04.169Z</time></trkpt><trkpt lat="38.0471394" lon="13.3000773"><ele>315.3333333333333</ele><time>2026-04-18T10:04:05.17Z</time></trkpt><trkpt lat="38.0472059" lon="13.3003366"><ele>318.0</ele><time>2026-04-18T10:04:06.17Z</time></trkpt><trkpt lat="38.0472753" lon="13.3005887"><ele>320.6666666666667</ele><time>2026-04-18T10:04:07.169Z</time></trkpt><trkpt lat="38.0473488" lon="13.3008413"><ele>323.33333333333337</ele><time>2026-04-18T10:04:08.17Z</time></trkpt><trkpt lat="38.0474279" lon="13.3010925"><ele>326.0</ele><time>2026-04-18T10:04:09.17Z</time></trkpt><trkpt lat="38.0475127" lon="13.3013409"><ele>322.0</ele><time>2026-04-18T10:04:10.17Z</time></trkpt><trkpt lat="38.0476026" lon="13.3015818"><ele>318.0</ele><time>2026-04-18T10:04:11.17Z</time></trkpt><trkpt lat="38.0476983" lon="13.3018202"><ele>314.0</ele><time>2026-04-18T10:04:12.17Z</time></trkpt><trkpt lat="38.0477979" lon="13.3020561"><ele>318.33333333333337</ele><time>2026-04-18T10:04:13.17Z</time></trkpt><trkpt lat="38.047899" lon="13.3022913"><ele>322.6666666666667</ele><time>2026-04-18T10:04:14.17Z</time></trkpt><trkpt lat="38.0480082" lon="13.3025248"><ele>327.0</ele><time>2026-04-18T10:04:15.17Z</time></trkpt><trkpt lat="38.0481208" lon="13.3027557"><ele>327.0</ele><time>2026-04-18T10:04:16.17Z</time></trkpt><trkpt lat="38.048235" lon="13.302981"><ele>327.0</ele><time>2026-04-18T10:04:17.169Z</time></trkpt><trkpt lat="38.0483515" lon="13.3032021"><ele>327.0</ele><time>2026-04-18T10:04:18.169Z</time></trkpt><trkpt lat="38.0484684" lon="13.3034214"><ele>323.0</ele><time>2026-04-18T10:04:19.169Z</time></trkpt><trkpt lat="38.0485924" lon="13.3036391"><ele>319.0</ele><time>2026-04-18T10:04:20.17Z</time></trkpt><trkpt lat="38.0487203" lon="13.3038555"><ele>315.0</ele><time>2026-04-18T10:04:21.17Z</time></trkpt><trkpt lat="38.0488481" lon="13.3040723"><ele>315.0</ele><time>2026-04-18T10:04:22.169Z</time></trkpt><trkpt lat="38.0489763" lon="13.3042843"><ele>315.0</ele><time>2026-04-18T10:04:23.17Z</time></trkpt><trkpt lat="38.0491051" lon="13.3045004"><ele>315.0</ele><time>2026-04-18T10:04:24.169Z</time></trkpt><trkpt lat="38.0492385" lon="13.3047119"><ele>304.3333333333333</ele><time>2026-04-18T10:04:25.17Z</time></trkpt><trkpt lat="38.0493772" lon="13.3049168"><ele>293.66666666666663</ele><time>2026-04-18T10:04:26.17Z</time></trkpt><trkpt lat="38.0495196" lon="13.3051144"><ele>283.0</ele><time>2026-04-18T10:04:27.17Z</time></trkpt><trkpt lat="38.0496633" lon="13.3053139"><ele>283.0</ele><time>2026-04-18T10:04:28.169Z</time></trkpt><trkpt lat="38.0498136" lon="13.3055066"><ele>283.0</ele><time>2026-04-18T10:04:29.17Z</time></trkpt><trkpt lat="38.049962" lon="13.3056939"><ele>283.0</ele><time>2026-04-18T10:04:30.17Z</time></trkpt><trkpt lat="38.0501172" lon="13.3058761"><ele>277.0</ele><time>2026-04-18T10:04:31.17Z</time></trkpt><trkpt lat="38.0502748" lon="13.3060562"><ele>271.0</ele><time>2026-04-18T10:04:32.17Z</time></trkpt><trkpt lat="38.0504344" lon="13.3062333"><ele>265.0</ele><time>2026-04-18T10:04:33.169Z</time></trkpt><trkpt lat="38.0505983" lon="13.3064041"><ele>265.0</ele><time>2026-04-18T10:04:34.169Z</time></trkpt><trkpt lat="38.0507675" lon="13.3065681"><ele>265.0</ele><time>2026-04-18T10:04:35.17Z</time></trkpt><trkpt lat="38.0509381" lon="13.3067263"><ele>265.0</ele><time>2026-04-18T10:04:36.17Z</time></trkpt><trkpt lat="38.051109" lon="13.3068851"><ele>265.0</ele><time>2026-04-18T10:04:37.169Z</time></trkpt><trkpt lat="38.0512806" lon="13.3070433"><ele>265.0</ele><time>2026-04-18T10:04:38.169Z</time></trkpt><trkpt lat="38.0514537" lon="13.3072036"><ele>265.0</ele><time>2026-04-18T10:04:39.17Z</time></trkpt><trkpt lat="38.0516218" lon="13.3073697"><ele>268.0</ele><time>2026-04-18T10:04:40.17Z</time></trkpt><trkpt lat="38.0517905" lon="13.3075331"><ele>271.0</ele><time>2026-04-18T10:04:41.169Z</time></trkpt><trkpt lat="38.0519582" lon="13.3076884"><ele>274.0</ele><time>2026-04-18T10:04:42.169Z</time></trkpt><trkpt lat="38.0521312" lon="13.3078431"><ele>274.0</ele><time>2026-04-18T10:04:43.17Z</time></trkpt><trkpt lat="38.052303" lon="13.3079978"><ele>274.0</ele><time>2026-04-18T10:04:44.17Z</time></trkpt><trkpt lat="38.0524752" lon="13.3081521"><ele>274.0</ele><time>2026-04-18T10:04:45.169Z</time></trkpt><trkpt lat="38.0526495" lon="13.3083101"><ele>270.3333333333333</ele><time>2026-04-18T10:04:46.17Z</time></trkpt><trkpt lat="38.0528212" lon="13.3084655"><ele>266.6666666666667</ele><time>2026-04-18T10:04:47.17Z</time></trkpt><trkpt lat="38.0529927" lon="13.3086231"><ele>263.0</ele><time>2026-04-18T10:04:48.17Z</time></trkpt><trkpt lat="38.0531714" lon="13.3087714"><ele>261.33333333333337</ele><time>2026-04-18T10:04:49.169Z</time></trkpt><trkpt lat="38.0533538" lon="13.308915"><ele>259.6666666666667</ele><time>2026-04-18T10:04:50.17Z</time></trkpt><trkpt lat="38.053539" lon="13.3090449"><ele>258.0</ele><time>2026-04-18T10:04:51.169Z</time></trkpt><trkpt lat="38.0537285" lon="13.3091704"><ele>258.0</ele><time>2026-04-18T10:04:52.17Z</time></trkpt><trkpt lat="38.0539174" lon="13.3092897"><ele>258.0</ele><time>2026-04-18T10:04:53.17Z</time></trkpt><trkpt lat="38.0541122" lon="13.3094081"><ele>258.0</ele><time>2026-04-18T10:04:54.17Z</time></trkpt><trkpt lat="38.0543003" lon="13.3095218"><ele>258.0</ele><time>2026-04-18T10:04:55.17Z</time></trkpt><trkpt lat="38.0544931" lon="13.3096344"><ele>258.0</ele><time>2026-04-18T10:04:56.17Z</time></trkpt><trkpt lat="38.0546836" lon="13.3097429"><ele>258.0</ele><time>2026-04-18T10:04:57.17Z</time></trkpt><trkpt lat="38.0548815" lon="13.3098532"><ele>255.0</ele><time>2026-04-18T10:04:58.17Z</time></trkpt><trkpt lat="38.0550767" lon="13.309964"><ele>252.0</ele><time>2026-04-18T10:04:59.169Z</time></trkpt><trkpt lat="38.0552684" lon="13.3100747"><ele>249.0</ele><time>2026-04-18T10:05:00.17Z</time></trkpt><trkpt lat="38.0554616" lon="13.3101832"><ele>249.0</ele><time>2026-04-18T10:05:01.17Z</time></trkpt><trkpt lat="38.055655" lon="13.31029"><ele>249.0</ele><time>2026-04-18T10:05:02.17Z</time></trkpt><trkpt lat="38.0558497" lon="13.3103993"><ele>249.0</ele><time>2026-04-18T10:05:03.169Z</time></trkpt><trkpt lat="38.0560453" lon="13.3105091"><ele>250.0</ele><time>2026-04-18T10:05:04.17Z</time></trkpt><trkpt lat="38.0562409" lon="13.3106144"><ele>251.0</ele><time>2026-04-18T10:05:05.17Z</time></trkpt><trkpt lat="38.0564377" lon="13.3107112"><ele>252.0</ele><time>2026-04-18T10:05:06.169Z</time></trkpt><trkpt lat="38.0566288" lon="13.3108118"><ele>249.33333333333331</ele><time>2026-04-18T10:05:07.17Z</time></trkpt><trkpt lat="38.0568171" lon="13.3109249"><ele>246.66666666666666</ele><time>2026-04-18T10:05:08.17Z</time></trkpt><trkpt lat="38.0570087" lon="13.311041"><ele>244.0</ele><time>2026-04-18T10:05:09.17Z</time></trkpt><trkpt lat="38.0572023" lon="13.3111621"><ele>244.0</ele><time>2026-04-18T10:05:10.169Z</time></trkpt><trkpt lat="38.0573978" lon="13.3112782"><ele>244.0</ele><time>2026-04-18T10:05:11.17Z</time></trkpt><trkpt lat="38.0575908" lon="13.311398"><ele>244.0</ele><time>2026-04-18T10:05:12.17Z</time></trkpt><trkpt lat="38.0577793" lon="13.3115232"><ele>242.33333333333331</ele><time>2026-04-18T10:05:13.17Z</time></trkpt><trkpt lat="38.0579695" lon="13.3116456"><ele>240.66666666666669</ele><time>2026-04-18T10:05:14.17Z</time></trkpt><trkpt lat="38.058157" lon="13.3117743"><ele>239.0</ele><time>2026-04-18T10:05:15.17Z</time></trkpt><trkpt lat="38.0583386" lon="13.311914"><ele>236.66666666666669</ele><time>2026-04-18T10:05:16.17Z</time></trkpt><trkpt lat="38.05851" lon="13.3120653"><ele>234.33333333333331</ele><time>2026-04-18T10:05:17.169Z</time></trkpt><trkpt lat="38.0586764" lon="13.312231"><ele>232.0</ele><time>2026-04-18T10:05:18.17Z</time></trkpt><trkpt lat="38.0588405" lon="13.3124011"><ele>232.0</ele><time>2026-04-18T10:05:19.17Z</time></trkpt><trkpt lat="38.0590094" lon="13.312573"><ele>232.0</ele><time>2026-04-18T10:05:20.17Z</time></trkpt><trkpt lat="38.0591751" lon="13.3127405"><ele>232.0</ele><time>2026-04-18T10:05:21.17Z</time></trkpt><trkpt lat="38.059342" lon="13.3129081"><ele>230.33333333333331</ele><time>2026-04-18T10:05:22.17Z</time></trkpt><trkpt lat="38.0595073" lon="13.3130766"><ele>228.66666666666669</ele><time>2026-04-18T10:05:23.17Z</time></trkpt><trkpt lat="38.0596693" lon="13.3132474"><ele>227.0</ele><time>2026-04-18T10:05:24.17Z</time></trkpt><trkpt lat="38.0598319" lon="13.3134157"><ele>226.66666666666669</ele><time>2026-04-18T10:05:25.17Z</time></trkpt><trkpt lat="38.0599974" lon="13.3135852"><ele>226.33333333333331</ele><time>2026-04-18T10:05:26.169Z</time></trkpt><trkpt lat="38.060157" lon="13.3137619"><ele>226.0</ele><time>2026-04-18T10:05:27.17Z</time></trkpt><trkpt lat="38.0603168" lon="13.3139359"><ele>226.0</ele><time>2026-04-18T10:05:28.17Z</time></trkpt><trkpt lat="38.0604771" lon="13.3141081"><ele>226.0</ele><time>2026-04-18T10:05:29.17Z</time></trkpt><trkpt lat="38.0606382" lon="13.3142804"><ele>226.0</ele><time>2026-04-18T10:05:30.17Z</time></trkpt><trkpt lat="38.0608018" lon="13.314451"><ele>223.0</ele><time>2026-04-18T10:05:31.17Z</time></trkpt><trkpt lat="38.0609664" lon="13.314627"><ele>220.0</ele><time>2026-04-18T10:05:32.17Z</time></trkpt><trkpt lat="38.0611303" lon="13.3148035"><ele>217.0</ele><time>2026-04-18T10:05:33.17Z</time></trkpt><trkpt lat="38.0612909" lon="13.3149772"><ele>217.0</ele><time>2026-04-18T10:05:34.17Z</time></trkpt><trkpt lat="38.0614499" lon="13.3151513"><ele>217.0</ele><time>2026-04-18T10:05:35.169Z</time></trkpt><trkpt lat="38.0616118" lon="13.3153269"><ele>217.0</ele><time>2026-04-18T10:05:36.17Z</time></trkpt><trkpt lat="38.0617751" lon="13.3155028"><ele>215.0</ele><time>2026-04-18T10:05:37.17Z</time></trkpt><trkpt lat="38.0619359" lon="13.3156785"><ele>213.0</ele><time>2026-04-18T10:05:38.17Z</time></trkpt><trkpt lat="38.0620975" lon="13.3158537"><ele>211.0</ele><time>2026-04-18T10:05:39.169Z</time></trkpt><trkpt lat="38.0622583" lon="13.3160282"><ele>211.0</ele><time>2026-04-18T10:05:40.17Z</time></trkpt><trkpt lat="38.0624203" lon="13.3162006"><ele>211.0</ele><time>2026-04-18T10:05:41.17Z</time></trkpt><trkpt lat="38.0625858" lon="13.3163727"><ele>211.0</ele><time>2026-04-18T10:05:42.169Z</time></trkpt><trkpt lat="38.0627503" lon="13.3165457"><ele>210.33333333333331</ele><time>2026-04-18T10:05:43.17Z</time></trkpt><trkpt lat="38.0629109" lon="13.31672"><ele>209.66666666666669</ele><time>2026-04-18T10:05:44.17Z</time></trkpt><trkpt lat="38.0630732" lon="13.3168948"><ele>209.0</ele><time>2026-04-18T10:05:45.169Z</time></trkpt><trkpt lat="38.0632355" lon="13.3170676"><ele>204.66666666666669</ele><time>2026-04-18T10:05:46.17Z</time></trkpt><trkpt lat="38.0633994" lon="13.3172429"><ele>200.33333333333331</ele><time>2026-04-18T10:05:47.17Z</time></trkpt><trkpt lat="38.0635589" lon="13.3174185"><ele>196.0</ele><time>2026-04-18T10:05:48.17Z</time></trkpt><trkpt lat="38.0637196" lon="13.3175899"><ele>196.0</ele><time>2026-04-18T10:05:49.17Z</time></trkpt><trkpt lat="38.0638835" lon="13.3177648"><ele>196.0</ele><time>2026-04-18T10:05:50.17Z</time></trkpt><trkpt lat="38.0640423" lon="13.3179422"><ele>196.0</ele><time>2026-04-18T10:05:51.169Z</time></trkpt><trkpt lat="38.0642029" lon="13.3181173"><ele>195.0</ele><time>2026-04-18T10:05:52.17Z</time></trkpt><trkpt lat="38.0643632" lon="13.3182919"><ele>194.0</ele><time>2026-04-18T10:05:53.169Z</time></trkpt><trkpt lat="38.0645227" lon="13.3184638"><ele>193.0</ele><time>2026-04-18T10:05:54.169Z</time></trkpt><trkpt lat="38.0646879" lon="13.3186348"><ele>193.0</ele><time>2026-04-18T10:05:55.17Z</time></trkpt><trkpt lat="38.0648531" lon="13.3188094"><ele>193.0</ele><time>2026-04-18T10:05:56.17Z</time></trkpt><trkpt lat="38.0650176" lon="13.3189801"><ele>193.0</ele><time>2026-04-18T10:05:57.17Z</time></trkpt><trkpt lat="38.0651817" lon="13.3191549"><ele>190.33333333333331</ele><time>2026-04-18T10:05:58.169Z</time></trkpt><trkpt lat="38.0653406" lon="13.3193315"><ele>187.66666666666666</ele><time>2026-04-18T10:05:59.17Z</time></trkpt><trkpt lat="38.0654982" lon="13.3195102"><ele>185.0</ele><time>2026-04-18T10:06:00.17Z</time></trkpt><trkpt lat="38.0656605" lon="13.3196834"><ele>182.33333333333331</ele><time>2026-04-18T10:06:01.17Z</time></trkpt><trkpt lat="38.0658215" lon="13.3198572"><ele>179.66666666666666</ele><time>2026-04-18T10:06:02.17Z</time></trkpt><trkpt lat="38.065982" lon="13.3200334"><ele>177.0</ele><time>2026-04-18T10:06:03.169Z</time></trkpt><trkpt lat="38.0661444" lon="13.3202093"><ele>177.0</ele><time>2026-04-18T10:06:04.169Z</time></trkpt><trkpt lat="38.0663052" lon="13.3203821"><ele>177.0</ele><time>2026-04-18T10:06:05.169Z</time></trkpt><trkpt lat="38.066469" lon="13.3205537"><ele>177.0</ele><time>2026-04-18T10:06:06.169Z</time></trkpt><trkpt lat="38.0666318" lon="13.3207231"><ele>174.66666666666666</ele><time>2026-04-18T10:06:07.17Z</time></trkpt><trkpt lat="38.0667962" lon="13.320892"><ele>172.33333333333331</ele><time>2026-04-18T10:06:08.169Z</time></trkpt><trkpt lat="38.0669561" lon="13.3210647"><ele>170.0</ele><time>2026-04-18T10:06:09.17Z</time></trkpt><trkpt lat="38.0671184" lon="13.3212373"><ele>169.66666666666666</ele><time>2026-04-18T10:06:10.17Z</time></trkpt><trkpt lat="38.0672788" lon="13.3214172"><ele>169.33333333333334</ele><time>2026-04-18T10:06:11.17Z</time></trkpt><trkpt lat="38.06744" lon="13.3215989"><ele>169.0</ele><time>2026-04-18T10:06:12.17Z</time></trkpt><trkpt lat="38.0676004" lon="13.3217765"><ele>167.0</ele><time>2026-04-18T10:06:13.17Z</time></trkpt><trkpt lat="38.0677629" lon="13.3219474"><ele>165.0</ele><time>2026-04-18T10:06:14.17Z</time></trkpt><trkpt lat="38.0679282" lon="13.3221172"><ele>163.0</ele><time>2026-04-18T10:06:15.17Z</time></trkpt><trkpt lat="38.0680978" lon="13.3222878"><ele>163.0</ele><time>2026-04-18T10:06:16.17Z</time></trkpt><trkpt lat="38.0682623" lon="13.3224546"><ele>163.0</ele><time>2026-04-18T10:06:17.169Z</time></trkpt><trkpt lat="38.068432" lon="13.3226198"><ele>163.0</ele><time>2026-04-18T10:06:18.17Z</time></trkpt><trkpt lat="38.0686054" lon="13.3227753"><ele>160.66666666666669</ele><time>2026-04-18T10:06:19.17Z</time></trkpt><trkpt lat="38.0687845" lon="13.3229203"><ele>158.33333333333334</ele><time>2026-04-18T10:06:20.169Z</time></trkpt><trkpt lat="38.0689666" lon="13.3230585"><ele>156.0</ele><time>2026-04-18T10:06:21.17Z</time></trkpt><trkpt lat="38.0691519" lon="13.3231878"><ele>154.66666666666666</ele><time>2026-04-18T10:06:22.17Z</time></trkpt><trkpt lat="38.0693398" lon="13.323308"><ele>153.33333333333331</ele><time>2026-04-18T10:06:23.17Z</time></trkpt><trkpt lat="38.0695329" lon="13.323425"><ele>152.0</ele><time>2026-04-18T10:06:24.17Z</time></trkpt><trkpt lat="38.0697243" lon="13.3235395"><ele>152.0</ele><time>2026-04-18T10:06:25.17Z</time></trkpt><trkpt lat="38.0699184" lon="13.3236429"><ele>152.0</ele><time>2026-04-18T10:06:26.17Z</time></trkpt><trkpt lat="38.0701165" lon="13.3237408"><ele>152.0</ele><time>2026-04-18T10:06:27.17Z</time></trkpt><trkpt lat="38.0703172" lon="13.3238235"><ele>151.33333333333331</ele><time>2026-04-18T10:06:28.17Z</time></trkpt><trkpt lat="38.0705232" lon="13.3238953"><ele>150.66666666666666</ele><time>2026-04-18T10:06:29.17Z</time></trkpt><trkpt lat="38.0707295" lon="13.3239579"><ele>150.0</ele><time>2026-04-18T10:06:30.169Z</time></trkpt><trkpt lat="38.0709352" lon="13.3240175"><ele>147.66666666666666</ele><time>2026-04-18T10:06:31.17Z</time></trkpt><trkpt lat="38.071145" lon="13.3240719"><ele>145.33333333333331</ele><time>2026-04-18T10:06:32.17Z</time></trkpt><trkpt lat="38.0713542" lon="13.3241257"><ele>143.0</ele><time>2026-04-18T10:06:33.169Z</time></trkpt><trkpt lat="38.0715677" lon="13.3241726"><ele>141.0</ele><time>2026-04-18T10:06:34.169Z</time></trkpt><trkpt lat="38.0717769" lon="13.3242205"><ele>139.0</ele><time>2026-04-18T10:06:35.17Z</time></trkpt><trkpt lat="38.0719853" lon="13.324264"><ele>137.0</ele><time>2026-04-18T10:06:36.17Z</time></trkpt><trkpt lat="38.0721932" lon="13.3243113"><ele>137.0</ele><time>2026-04-18T10:06:37.17Z</time></trkpt><trkpt lat="38.0724015" lon="13.3243644"><ele>137.0</ele><time>2026-04-18T10:06:38.17Z</time></trkpt><trkpt lat="38.0726089" lon="13.3244149"><ele>137.0</ele><time>2026-04-18T10:06:39.17Z</time></trkpt><trkpt lat="38.0728196" lon="13.324463"><ele>135.66666666666666</ele><time>2026-04-18T10:06:40.17Z</time></trkpt><trkpt lat="38.0730288" lon="13.3245137"><ele>134.33333333333334</ele><time>2026-04-18T10:06:41.17Z</time></trkpt><trkpt lat="38.0732389" lon="13.3245617"><ele>133.0</ele><time>2026-04-18T10:06:42.17Z</time></trkpt><trkpt lat="38.0734473" lon="13.3246127"><ele>130.66666666666669</ele><time>2026-04-18T10:06:43.17Z</time></trkpt><trkpt lat="38.073653" lon="13.3246572"><ele>128.33333333333334</ele><time>2026-04-18T10:06:44.17Z</time></trkpt><trkpt lat="38.0738638" lon="13.3246972"><ele>126.0</ele><time>2026-04-18T10:06:45.17Z</time></trkpt><trkpt lat="38.0740712" lon="13.3247248"><ele>124.66666666666666</ele><time>2026-04-18T10:06:46.17Z</time></trkpt><trkpt lat="38.0742824" lon="13.3247407"><ele>123.33333333333333</ele><time>2026-04-18T10:06:47.17Z</time></trkpt><trkpt lat="38.0744954" lon="13.3247451"><ele>122.0</ele><time>2026-04-18T10:06:48.17Z</time></trkpt><trkpt lat="38.0747069" lon="13.3247359"><ele>121.66666666666666</ele><time>2026-04-18T10:06:49.169Z</time></trkpt><trkpt lat="38.0749175" lon="13.3247215"><ele>121.33333333333334</ele><time>2026-04-18T10:06:50.169Z</time></trkpt><trkpt lat="38.0751285" lon="13.3246914"><ele>121.0</ele><time>2026-04-18T10:06:51.17Z</time></trkpt><trkpt lat="38.0753403" lon="13.3246506"><ele>120.0</ele><time>2026-04-18T10:06:52.17Z</time></trkpt><trkpt lat="38.0755493" lon="13.3245991"><ele>119.0</ele><time>2026-04-18T10:06:53.17Z</time></trkpt><trkpt lat="38.0757558" lon="13.3245317"><ele>118.0</ele><time>2026-04-18T10:06:54.169Z</time></trkpt><trkpt lat="38.0759578" lon="13.3244514"><ele>114.0</ele><time>2026-04-18T10:06:55.17Z</time></trkpt><trkpt lat="38.0761615" lon="13.3243638"><ele>110.0</ele><time>2026-04-18T10:06:56.17Z</time></trkpt><trkpt lat="38.0763587" lon="13.3242746"><ele>106.0</ele><time>2026-04-18T10:06:57.169Z</time></trkpt><trkpt lat="38.0765581" lon="13.324182"><ele>105.0</ele><time>2026-04-18T10:06:58.169Z</time></trkpt><trkpt lat="38.0767561" lon="13.3240871"><ele>104.0</ele><time>2026-04-18T10:06:59.17Z</time></trkpt><trkpt lat="38.0769532" lon="13.3239977"><ele>103.0</ele><time>2026-04-18T10:07:00.169Z</time></trkpt><trkpt lat="38.077151" lon="13.3239098"><ele>103.0</ele><time>2026-04-18T10:07:01.169Z</time></trkpt><trkpt lat="38.0773495" lon="13.323821"><ele>103.0</ele><time>2026-04-18T10:07:02.17Z</time></trkpt><trkpt lat="38.0775504" lon="13.3237339"><ele>103.0</ele><time>2026-04-18T10:07:03.17Z</time></trkpt><trkpt lat="38.0777468" lon="13.3236414"><ele>100.33333333333334</ele><time>2026-04-18T10:07:04.17Z</time></trkpt><trkpt lat="38.0779452" lon="13.3235397"><ele>97.66666666666667</ele><time>2026-04-18T10:07:05.17Z</time></trkpt><trkpt lat="38.0781433" lon="13.3234431"><ele>95.0</ele><time>2026-04-18T10:07:06.17Z</time></trkpt><trkpt lat="38.078342" lon="13.3233503"><ele>92.66666666666667</ele><time>2026-04-18T10:07:07.169Z</time></trkpt><trkpt lat="38.0785371" lon="13.3232646"><ele>90.33333333333333</ele><time>2026-04-18T10:07:08.17Z</time></trkpt><trkpt lat="38.0787216" lon="13.3231955"><ele>88.0</ele><time>2026-04-18T10:07:09.17Z</time></trkpt><trkpt lat="38.0788999" lon="13.3231507"><ele>88.0</ele><time>2026-04-18T10:07:10.17Z</time></trkpt><trkpt lat="38.0790864" lon="13.3231182"><ele>88.0</ele><time>2026-04-18T10:07:11.169Z</time></trkpt><trkpt lat="38.0792841" lon="13.3231016"><ele>88.0</ele><time>2026-04-18T10:07:12.17Z</time></trkpt><trkpt lat="38.0794858" lon="13.323101"><ele>89.0</ele><time>2026-04-18T10:07:13.17Z</time></trkpt><trkpt lat="38.0796928" lon="13.323121"><ele>90.0</ele><time>2026-04-18T10:07:14.17Z</time></trkpt><trkpt lat="38.0798997" lon="13.3231682"><ele>91.0</ele><time>2026-04-18T10:07:15.17Z</time></trkpt><trkpt lat="38.0801004" lon="13.323237"><ele>91.0</ele><time>2026-04-18T10:07:16.17Z</time></trkpt><trkpt lat="38.0803011" lon="13.3233269"><ele>91.0</ele><time>2026-04-18T10:07:17.17Z</time></trkpt><trkpt lat="38.080499" lon="13.3234285"><ele>91.0</ele><time>2026-04-18T10:07:18.177Z</time></trkpt><trkpt lat="38.0806882" lon="13.3235452"><ele>91.0</ele><time>2026-04-18T10:07:19.178Z</time></trkpt><trkpt lat="38.0808644" lon="13.3236755"><ele>91.0</ele><time>2026-04-18T10:07:20.177Z</time></trkpt><trkpt lat="38.0810331" lon="13.323828"><ele>91.0</ele><time>2026-04-18T10:07:21.177Z</time></trkpt><trkpt lat="38.0811932" lon="13.3239974"><ele>91.0</ele><time>2026-04-18T10:07:22.177Z</time></trkpt><trkpt lat="38.0813403" lon="13.3241853"><ele>91.0</ele><time>2026-04-18T10:07:23.178Z</time></trkpt><trkpt lat="38.0814781" lon="13.3243924"><ele>91.0</ele><time>2026-04-18T10:07:24.178Z</time></trkpt><trkpt lat="38.0816042" lon="13.3245997"><ele>90.66666666666666</ele><time>2026-04-18T10:07:25.178Z</time></trkpt><trkpt lat="38.0817291" lon="13.324811"><ele>90.33333333333333</ele><time>2026-04-18T10:07:26.178Z</time></trkpt><trkpt lat="38.0818529" lon="13.3250274"><ele>90.0</ele><time>2026-04-18T10:07:27.178Z</time></trkpt><trkpt lat="38.0819751" lon="13.3252457"><ele>90.0</ele><time>2026-04-18T10:07:28.178Z</time></trkpt><trkpt lat="38.0820972" lon="13.3254648"><ele>90.0</ele><time>2026-04-18T10:07:29.178Z</time></trkpt><trkpt lat="38.0822206" lon="13.3256831"><ele>90.0</ele><time>2026-04-18T10:07:30.178Z</time></trkpt><trkpt lat="38.0823453" lon="13.3259027"><ele>91.66666666666667</ele><time>2026-04-18T10:07:31.178Z</time></trkpt><trkpt lat="38.082468" lon="13.3261165"><ele>93.33333333333334</ele><time>2026-04-18T10:07:32.178Z</time></trkpt><trkpt lat="38.0825895" lon="13.3263352"><ele>95.0</ele><time>2026-04-18T10:07:33.178Z</time></trkpt><trkpt lat="38.0827176" lon="13.3265527"><ele>95.0</ele><time>2026-04-18T10:07:34.178Z</time></trkpt><trkpt lat="38.0828503" lon="13.3267622"><ele>95.0</ele><time>2026-04-18T10:07:35.178Z</time></trkpt><trkpt lat="38.0829945" lon="13.3269581"><ele>95.0</ele><time>2026-04-18T10:07:36.178Z</time></trkpt><trkpt lat="38.0831462" lon="13.3271478"><ele>99.33333333333334</ele><time>2026-04-18T10:07:37.177Z</time></trkpt><trkpt lat="38.0833054" lon="13.3273257"><ele>103.66666666666667</ele><time>2026-04-18T10:07:38.178Z</time></trkpt><trkpt lat="38.0834701" lon="13.3274954"><ele>108.0</ele><time>2026-04-18T10:07:39.178Z</time></trkpt><trkpt lat="38.0836451" lon="13.3276534"><ele>108.0</ele><time>2026-04-18T10:07:40.178Z</time></trkpt><trkpt lat="38.0838228" lon="13.3278031"><ele>108.0</ele><time>2026-04-18T10:07:41.177Z</time></trkpt><trkpt lat="38.0840015" lon="13.3279476"><ele>108.0</ele><time>2026-04-18T10:07:42.178Z</time></trkpt><trkpt lat="38.0841792" lon="13.3280931"><ele>108.33333333333334</ele><time>2026-04-18T10:07:43.178Z</time></trkpt><trkpt lat="38.0843558" lon="13.3282412"><ele>108.66666666666667</ele><time>2026-04-18T10:07:44.178Z</time></trkpt><trkpt lat="38.0845346" lon="13.3283861"><ele>109.0</ele><time>2026-04-18T10:07:45.178Z</time></trkpt><trkpt lat="38.0847095" lon="13.3285417"><ele>109.0</ele><time>2026-04-18T10:07:46.177Z</time></trkpt><trkpt lat="38.084872" lon="13.3287127"><ele>109.0</ele><time>2026-04-18T10:07:47.178Z</time></trkpt><trkpt lat="38.0850225" lon="13.3288966"><ele>109.0</ele><time>2026-04-18T10:07:48.178Z</time></trkpt><trkpt lat="38.0851595" lon="13.3290993"><ele>108.0</ele><time>2026-04-18T10:07:49.178Z</time></trkpt><trkpt lat="38.0852883" lon="13.329307"><ele>107.0</ele><time>2026-04-18T10:07:50.178Z</time></trkpt><trkpt lat="38.0853986" lon="13.3295392"><ele>106.0</ele><time>2026-04-18T10:07:51.178Z</time></trkpt><trkpt lat="38.0854866" lon="13.3297834"><ele>104.33333333333334</ele><time>2026-04-18T10:07:52.178Z</time></trkpt><trkpt lat="38.0855592" lon="13.330037"><ele>102.66666666666666</ele><time>2026-04-18T10:07:53.178Z</time></trkpt><trkpt lat="38.0856156" lon="13.3302947"><ele>101.0</ele><time>2026-04-18T10:07:54.177Z</time></trkpt><trkpt lat="38.0856613" lon="13.3305551"><ele>100.66666666666666</ele><time>2026-04-18T10:07:55.178Z</time></trkpt><trkpt lat="38.0857058" lon="13.3308172"><ele>100.33333333333334</ele><time>2026-04-18T10:07:56.178Z</time></trkpt><trkpt lat="38.0857488" lon="13.3310756"><ele>100.0</ele><time>2026-04-18T10:07:57.178Z</time></trkpt><trkpt lat="38.0857957" lon="13.33134"><ele>99.66666666666667</ele><time>2026-04-18T10:07:58.178Z</time></trkpt><trkpt lat="38.0858442" lon="13.3316068"><ele>99.33333333333334</ele><time>2026-04-18T10:07:59.178Z</time></trkpt><trkpt lat="38.0858907" lon="13.3318698"><ele>99.0</ele><time>2026-04-18T10:08:00.178Z</time></trkpt><trkpt lat="38.085932" lon="13.3321351"><ele>98.66666666666666</ele><time>2026-04-18T10:08:01.177Z</time></trkpt><trkpt lat="38.0859782" lon="13.3323973"><ele>98.33333333333333</ele><time>2026-04-18T10:08:02.178Z</time></trkpt><trkpt lat="38.0860223" lon="13.3326649"><ele>98.0</ele><time>2026-04-18T10:08:03.177Z</time></trkpt><trkpt lat="38.0860713" lon="13.332923"><ele>94.33333333333333</ele><time>2026-04-18T10:08:04.178Z</time></trkpt><trkpt lat="38.0861375" lon="13.3331817"><ele>90.66666666666666</ele><time>2026-04-18T10:08:05.178Z</time></trkpt><trkpt lat="38.0862174" lon="13.3334302"><ele>87.0</ele><time>2026-04-18T10:08:06.177Z</time></trkpt><trkpt lat="38.0863125" lon="13.33367"><ele>84.33333333333333</ele><time>2026-04-18T10:08:07.177Z</time></trkpt><trkpt lat="38.0864229" lon="13.3338964"><ele>81.66666666666666</ele><time>2026-04-18T10:08:08.177Z</time></trkpt><trkpt lat="38.0865528" lon="13.3341071"><ele>79.0</ele><time>2026-04-18T10:08:09.177Z</time></trkpt><trkpt lat="38.0866962" lon="13.3343028"><ele>84.0</ele><time>2026-04-18T10:08:10.178Z</time></trkpt><trkpt lat="38.0868467" lon="13.3344826"><ele>89.0</ele><time>2026-04-18T10:08:11.178Z</time></trkpt><trkpt lat="38.087013" lon="13.3346501"><ele>94.0</ele><time>2026-04-18T10:08:12.178Z</time></trkpt><trkpt lat="38.0871914" lon="13.33479"><ele>94.0</ele><time>2026-04-18T10:08:13.178Z</time></trkpt><trkpt lat="38.0873817" lon="13.3349045"><ele>94.0</ele><time>2026-04-18T10:08:14.177Z</time></trkpt><trkpt lat="38.0875818" lon="13.3349918"><ele>94.0</ele><time>2026-04-18T10:08:15.178Z</time></trkpt><trkpt lat="38.0877866" lon="13.3350586"><ele>94.0</ele><time>2026-04-18T10:08:16.178Z</time></trkpt><trkpt lat="38.0879948" lon="13.3351112"><ele>94.0</ele><time>2026-04-18T10:08:17.178Z</time></trkpt><trkpt lat="38.0882044" lon="13.3351558"><ele>94.0</ele><time>2026-04-18T10:08:18.178Z</time></trkpt><trkpt lat="38.0884155" lon="13.3351912"><ele>94.0</ele><time>2026-04-18T10:08:19.177Z</time></trkpt><trkpt lat="38.088625" lon="13.3352296"><ele>94.0</ele><time>2026-04-18T10:08:20.177Z</time></trkpt><trkpt lat="38.0888346" lon="13.3352707"><ele>94.0</ele><time>2026-04-18T10:08:21.178Z</time></trkpt><trkpt lat="38.0890408" lon="13.3353056"><ele>92.33333333333333</ele><time>2026-04-18T10:08:22.178Z</time></trkpt><trkpt lat="38.0892506" lon="13.3353429"><ele>90.66666666666667</ele><time>2026-04-18T10:08:23.178Z</time></trkpt><trkpt lat="38.0894626" lon="13.3353789"><ele>89.0</ele><time>2026-04-18T10:08:24.178Z</time></trkpt><trkpt lat="38.0896723" lon="13.3354161"><ele>89.0</ele><time>2026-04-18T10:08:25.178Z</time></trkpt><trkpt lat="38.0898832" lon="13.3354546"><ele>89.0</ele><time>2026-04-18T10:08:26.177Z</time></trkpt><trkpt lat="38.090095" lon="13.3354872"><ele>89.0</ele><time>2026-04-18T10:08:27.178Z</time></trkpt><trkpt lat="38.0903061" lon="13.3355161"><ele>88.33333333333334</ele><time>2026-04-18T10:08:28.177Z</time></trkpt><trkpt lat="38.0905189" lon="13.3355476"><ele>87.66666666666667</ele><time>2026-04-18T10:08:29.178Z</time></trkpt><trkpt lat="38.0907262" lon="13.3355769"><ele>87.0</ele><time>2026-04-18T10:08:30.177Z</time></trkpt><trkpt lat="38.0909356" lon="13.3356117"><ele>86.0</ele><time>2026-04-18T10:08:31.178Z</time></trkpt><trkpt lat="38.0911435" lon="13.3356498"><ele>85.0</ele><time>2026-04-18T10:08:32.178Z</time></trkpt><trkpt lat="38.0913539" lon="13.3357015"><ele>84.0</ele><time>2026-04-18T10:08:33.178Z</time></trkpt><trkpt lat="38.091559" lon="13.3357668"><ele>83.33333333333333</ele><time>2026-04-18T10:08:34.178Z</time></trkpt><trkpt lat="38.0917607" lon="13.335854"><ele>82.66666666666666</ele><time>2026-04-18T10:08:35.178Z</time></trkpt><trkpt lat="38.0919517" lon="13.3359674"><ele>82.0</ele><time>2026-04-18T10:08:36.178Z</time></trkpt><trkpt lat="38.0921307" lon="13.3361025"><ele>82.0</ele><time>2026-04-18T10:08:37.178Z</time></trkpt><trkpt lat="38.0922996" lon="13.3362471"><ele>82.0</ele><time>2026-04-18T10:08:38.178Z</time></trkpt><trkpt lat="38.0924132" lon="13.3363781"><ele>82.0</ele><time>2026-04-18T10:08:39.178Z</time></trkpt><trkpt lat="38.092478" lon="13.3364816"><ele>81.5</ele><time>2026-04-18T10:08:40.178Z</time></trkpt><trkpt lat="38.0925292" lon="13.3365702"><ele>81.0</ele><time>2026-04-18T10:08:41.177Z</time></trkpt><trkpt lat="38.0925865" lon="13.3366868"><ele>80.5</ele><time>2026-04-18T10:08:42.177Z</time></trkpt><trkpt lat="38.0926614" lon="13.3368257"><ele>80.0</ele><time>2026-04-18T10:08:43.178Z</time></trkpt><trkpt lat="38.0927407" lon="13.3369685"><ele>80.0</ele><time>2026-04-18T10:08:44.177Z</time></trkpt><trkpt lat="38.0928246" lon="13.3371287"><ele>80.0</ele><time>2026-04-18T10:08:45.178Z</time></trkpt><trkpt lat="38.0929121" lon="13.3372948"><ele>80.0</ele><time>2026-04-18T10:08:46.178Z</time></trkpt><trkpt lat="38.0929934" lon="13.3374639"><ele>79.75</ele><time>2026-04-18T10:08:47.178Z</time></trkpt><trkpt lat="38.0930563" lon="13.3376225"><ele>79.5</ele><time>2026-04-18T10:08:48.178Z</time></trkpt><trkpt lat="38.0931044" lon="13.33777"><ele>79.25</ele><time>2026-04-18T10:08:49.177Z</time></trkpt><trkpt lat="38.093124" lon="13.3379104"><ele>79.0</ele><time>2026-04-18T10:08:50.178Z</time></trkpt><trkpt lat="38.0930991" lon="13.3380387"><ele>78.75</ele><time>2026-04-18T10:08:51.178Z</time></trkpt><trkpt lat="38.0930358" lon="13.3381427"><ele>78.5</ele><time>2026-04-18T10:08:52.177Z</time></trkpt><trkpt lat="38.0929534" lon="13.3382388"><ele>78.25</ele><time>2026-04-18T10:08:53.178Z</time></trkpt><trkpt lat="38.0928756" lon="13.3383531"><ele>78.0</ele><time>2026-04-18T10:08:54.178Z</time></trkpt><trkpt lat="38.0928131" lon="13.3384847"><ele>78.0</ele><time>2026-04-18T10:08:55.177Z</time></trkpt><trkpt lat="38.0927808" lon="13.338643"><ele>78.0</ele><time>2026-04-18T10:08:56.177Z</time></trkpt><trkpt lat="38.092779" lon="13.3388056"><ele>78.0</ele><time>2026-04-18T10:08:57.177Z</time></trkpt><trkpt lat="38.0928054" lon="13.3389695"><ele>78.0</ele><time>2026-04-18T10:08:58.178Z</time></trkpt><trkpt lat="38.092863" lon="13.3391354"><ele>77.0</ele><time>2026-04-18T10:08:59.178Z</time></trkpt><trkpt lat="38.0929156" lon="13.3392982"><ele>76.0</ele><time>2026-04-18T10:09:00.178Z</time></trkpt><trkpt lat="38.0929323" lon="13.3394588"><ele>75.0</ele><time>2026-04-18T10:09:01.178Z</time></trkpt><trkpt lat="38.0929227" lon="13.3396151"><ele>74.0</ele><time>2026-04-18T10:09:02.177Z</time></trkpt><trkpt lat="38.092898" lon="13.3397644"><ele>73.60000000000001</ele><time>2026-04-18T10:09:03.178Z</time></trkpt><trkpt lat="38.0928444" lon="13.3398945"><ele>73.2</ele><time>2026-04-18T10:09:04.178Z</time></trkpt><trkpt lat="38.0927841" lon="13.3400144"><ele>72.80000000000001</ele><time>2026-04-18T10:09:05.178Z</time></trkpt><trkpt lat="38.0927272" lon="13.3401185"><ele>72.4</ele><time>2026-04-18T10:09:06.178Z</time></trkpt><trkpt lat="38.0926702" lon="13.3402266"><ele>72.0</ele><time>2026-04-18T10:09:07.178Z</time></trkpt><trkpt lat="38.0926077" lon="13.3403374"><ele>72.0</ele><time>2026-04-18T10:09:08.177Z</time></trkpt><trkpt lat="38.0925375" lon="13.3404486"><ele>72.0</ele><time>2026-04-18T10:09:09.178Z</time></trkpt><trkpt lat="38.0924659" lon="13.3405623"><ele>72.0</ele><time>2026-04-18T10:09:10.178Z</time></trkpt><trkpt lat="38.0923866" lon="13.3406753"><ele>72.0</ele><time>2026-04-18T10:09:11.178Z</time></trkpt><trkpt lat="38.0923102" lon="13.3407883"><ele>73.0</ele><time>2026-04-18T10:09:12.178Z</time></trkpt><trkpt lat="38.092239" lon="13.3409077"><ele>74.0</ele><time>2026-04-18T10:09:13.178Z</time></trkpt><trkpt lat="38.0921707" lon="13.3410191"><ele>75.0</ele><time>2026-04-18T10:09:14.178Z</time></trkpt><trkpt lat="38.0921053" lon="13.3411248"><ele>76.0</ele><time>2026-04-18T10:09:15.177Z</time></trkpt><trkpt lat="38.092045" lon="13.3412306"><ele>77.0</ele><time>2026-04-18T10:09:16.178Z</time></trkpt><trkpt lat="38.0919877" lon="13.3413376"><ele>76.25</ele><time>2026-04-18T10:09:17.178Z</time></trkpt><trkpt lat="38.091924" lon="13.3414557"><ele>75.5</ele><time>2026-04-18T10:09:18.178Z</time></trkpt><trkpt lat="38.0918473" lon="13.3415718"><ele>74.75</ele><time>2026-04-18T10:09:19.178Z</time></trkpt><trkpt lat="38.0917579" lon="13.3416958"><ele>74.0</ele><time>2026-04-18T10:09:20.178Z</time></trkpt><trkpt lat="38.0916622" lon="13.3418367"><ele>74.0</ele><time>2026-04-18T10:09:21.178Z</time></trkpt><trkpt lat="38.0915533" lon="13.3419906"><ele>74.0</ele><time>2026-04-18T10:09:22.178Z</time></trkpt><trkpt lat="38.0914346" lon="13.342154"><ele>74.0</ele><time>2026-04-18T10:09:23.177Z</time></trkpt><trkpt lat="38.0913142" lon="13.3423214"><ele>74.66666666666667</ele><time>2026-04-18T10:09:24.178Z</time></trkpt><trkpt lat="38.0911954" lon="13.342499"><ele>75.33333333333333</ele><time>2026-04-18T10:09:25.178Z</time></trkpt><trkpt lat="38.0910741" lon="13.3426768"><ele>76.0</ele><time>2026-04-18T10:09:26.177Z</time></trkpt><trkpt lat="38.0909538" lon="13.342857"><ele>76.0</ele><time>2026-04-18T10:09:27.178Z</time></trkpt><trkpt lat="38.0908315" lon="13.3430462"><ele>76.0</ele><time>2026-04-18T10:09:28.178Z</time></trkpt><trkpt lat="38.090703" lon="13.3432469"><ele>76.0</ele><time>2026-04-18T10:09:29.178Z</time></trkpt><trkpt lat="38.0905673" lon="13.3434528"><ele>74.66666666666666</ele><time>2026-04-18T10:09:30.178Z</time></trkpt><trkpt lat="38.0904299" lon="13.3436448"><ele>73.33333333333333</ele><time>2026-04-18T10:09:31.178Z</time></trkpt><trkpt lat="38.0902997" lon="13.3438253"><ele>72.0</ele><time>2026-04-18T10:09:32.177Z</time></trkpt><trkpt lat="38.0901717" lon="13.3440022"><ele>68.66666666666667</ele><time>2026-04-18T10:09:33.178Z</time></trkpt><trkpt lat="38.0900445" lon="13.3441768"><ele>65.33333333333334</ele><time>2026-04-18T10:09:34.178Z</time></trkpt><trkpt lat="38.089903" lon="13.3443646"><ele>62.0</ele><time>2026-04-18T10:09:35.178Z</time></trkpt><trkpt lat="38.0897513" lon="13.3445667"><ele>65.33333333333334</ele><time>2026-04-18T10:09:36.178Z</time></trkpt><trkpt lat="38.0895973" lon="13.3447696"><ele>68.66666666666667</ele><time>2026-04-18T10:09:37.177Z</time></trkpt><trkpt lat="38.0894449" lon="13.3449778"><ele>72.0</ele><time>2026-04-18T10:09:38.178Z</time></trkpt><trkpt lat="38.0892903" lon="13.345193"><ele>72.0</ele><time>2026-04-18T10:09:39.178Z</time></trkpt><trkpt lat="38.0891327" lon="13.3454091"><ele>72.0</ele><time>2026-04-18T10:09:40.178Z</time></trkpt><trkpt lat="38.0889737" lon="13.3456169"><ele>73.0</ele><time>2026-04-18T10:09:41.177Z</time></trkpt><trkpt lat="38.0888112" lon="13.3458304"><ele>74.0</ele><time>2026-04-18T10:09:42.177Z</time></trkpt><trkpt lat="38.0886503" lon="13.3460485"><ele>74.0</ele><time>2026-04-18T10:09:43.178Z</time></trkpt><trkpt lat="38.0884954" lon="13.3462579"><ele>74.0</ele><time>2026-04-18T10:09:44.178Z</time></trkpt><trkpt lat="38.0883497" lon="13.3464627"><ele>74.0</ele><time>2026-04-18T10:09:45.177Z</time></trkpt><trkpt lat="38.0882005" lon="13.346666"><ele>75.0</ele><time>2026-04-18T10:09:46.177Z</time></trkpt><trkpt lat="38.0880469" lon="13.3468745"><ele>76.0</ele><time>2026-04-18T10:09:47.178Z</time></trkpt><trkpt lat="38.0878951" lon="13.3471009"><ele>76.5</ele><time>2026-04-18T10:09:48.178Z</time></trkpt><trkpt lat="38.0877473" lon="13.3473442"><ele>77.0</ele><time>2026-04-18T10:09:49.177Z</time></trkpt><trkpt lat="38.0876064" lon="13.3475972"><ele>77.0</ele><time>2026-04-18T10:09:50.177Z</time></trkpt><trkpt lat="38.0874714" lon="13.3478581"><ele>77.0</ele><time>2026-04-18T10:09:51.177Z</time></trkpt><trkpt lat="38.0873454" lon="13.3481204"><ele>78.0</ele><time>2026-04-18T10:09:52.177Z</time></trkpt><trkpt lat="38.0872205" lon="13.3483879"><ele>79.0</ele><time>2026-04-18T10:09:53.178Z</time></trkpt><trkpt lat="38.0870982" lon="13.3486543"><ele>77.5</ele><time>2026-04-18T10:09:54.178Z</time></trkpt><trkpt lat="38.0869824" lon="13.3489273"><ele>76.0</ele><time>2026-04-18T10:09:55.178Z</time></trkpt><trkpt lat="38.0868692" lon="13.3492001"><ele>76.0</ele><time>2026-04-18T10:09:56.178Z</time></trkpt><trkpt lat="38.086761" lon="13.3494766"><ele>76.0</ele><time>2026-04-18T10:09:57.178Z</time></trkpt><trkpt lat="38.0866567" lon="13.349754"><ele>76.0</ele><time>2026-04-18T10:09:58.178Z</time></trkpt><trkpt lat="38.086557" lon="13.3500327"><ele>76.0</ele><time>2026-04-18T10:09:59.178Z</time></trkpt><trkpt lat="38.0864633" lon="13.3503202"><ele>75.0</ele><time>2026-04-18T10:10:00.178Z</time></trkpt><trkpt lat="38.086387" lon="13.3506094"><ele>74.0</ele><time>2026-04-18T10:10:01.177Z</time></trkpt><trkpt lat="38.086337" lon="13.3509084"><ele>74.0</ele><time>2026-04-18T10:10:02.177Z</time></trkpt><trkpt lat="38.0863057" lon="13.3512135"><ele>74.0</ele><time>2026-04-18T10:10:03.178Z</time></trkpt><trkpt lat="38.08629" lon="13.3515191"><ele>74.0</ele><time>2026-04-18T10:10:04.178Z</time></trkpt><trkpt lat="38.0862826" lon="13.3518336"><ele>74.0</ele><time>2026-04-18T10:10:05.177Z</time></trkpt><trkpt lat="38.0862802" lon="13.3521414"><ele>74.0</ele><time>2026-04-18T10:10:06.178Z</time></trkpt><trkpt lat="38.0862813" lon="13.3524537"><ele>74.0</ele><time>2026-04-18T10:10:07.178Z</time></trkpt><trkpt lat="38.086288" lon="13.352764"><ele>73.5</ele><time>2026-04-18T10:10:08.177Z</time></trkpt><trkpt lat="38.0863156" lon="13.3530726"><ele>73.0</ele><time>2026-04-18T10:10:09.178Z</time></trkpt><trkpt lat="38.0863598" lon="13.3533918"><ele>73.0</ele><time>2026-04-18T10:10:10.178Z</time></trkpt><trkpt lat="38.0864126" lon="13.353701"><ele>73.0</ele><time>2026-04-18T10:10:11.178Z</time></trkpt><trkpt lat="38.0864679" lon="13.3540132"><ele>72.0</ele><time>2026-04-18T10:10:12.178Z</time></trkpt><trkpt lat="38.0865174" lon="13.3543252"><ele>71.0</ele><time>2026-04-18T10:10:13.178Z</time></trkpt><trkpt lat="38.0865666" lon="13.3546379"><ele>71.5</ele><time>2026-04-18T10:10:14.178Z</time></trkpt><trkpt lat="38.0866144" lon="13.3549456"><ele>72.0</ele><time>2026-04-18T10:10:15.178Z</time></trkpt><trkpt lat="38.0866625" lon="13.3552526"><ele>70.5</ele><time>2026-04-18T10:10:16.177Z</time></trkpt><trkpt lat="38.0867091" lon="13.3555509"><ele>69.0</ele><time>2026-04-18T10:10:17.178Z</time></trkpt><trkpt lat="38.0867532" lon="13.3558445"><ele>69.0</ele><time>2026-04-18T10:10:18.178Z</time></trkpt><trkpt lat="38.0867983" lon="13.3561321"><ele>69.0</ele><time>2026-04-18T10:10:19.178Z</time></trkpt><trkpt lat="38.0868442" lon="13.3564178"><ele>69.0</ele><time>2026-04-18T10:10:20.178Z</time></trkpt><trkpt lat="38.0868892" lon="13.3566955"><ele>69.0</ele><time>2026-04-18T10:10:21.176Z</time></trkpt><trkpt lat="38.0869355" lon="13.3569723"><ele>69.0</ele><time>2026-04-18T10:10:22.177Z</time></trkpt><trkpt lat="38.0869786" lon="13.3572472"><ele>69.0</ele><time>2026-04-18T10:10:23.177Z</time></trkpt><trkpt lat="38.0870147" lon="13.3575201"><ele>69.0</ele><time>2026-04-18T10:10:24.177Z</time></trkpt><trkpt lat="38.0870558" lon="13.3577782"><ele>69.0</ele><time>2026-04-18T10:10:25.177Z</time></trkpt><trkpt lat="38.0870934" lon="13.3580198"><ele>68.66666666666667</ele><time>2026-04-18T10:10:26.177Z</time></trkpt><trkpt lat="38.0871347" lon="13.3582645"><ele>68.33333333333334</ele><time>2026-04-18T10:10:27.177Z</time></trkpt><trkpt lat="38.0871755" lon="13.3585185"><ele>68.0</ele><time>2026-04-18T10:10:28.177Z</time></trkpt><trkpt lat="38.0872121" lon="13.3587819"><ele>67.33333333333334</ele><time>2026-04-18T10:10:29.177Z</time></trkpt><trkpt lat="38.0872548" lon="13.3590555"><ele>66.66666666666667</ele><time>2026-04-18T10:10:30.176Z</time></trkpt><trkpt lat="38.087293" lon="13.3593167"><ele>66.0</ele><time>2026-04-18T10:10:31.177Z</time></trkpt><trkpt lat="38.087331" lon="13.3595655"><ele>66.0</ele><time>2026-04-18T10:10:32.177Z</time></trkpt><trkpt lat="38.0873687" lon="13.359799"><ele>66.0</ele><time>2026-04-18T10:10:33.176Z</time></trkpt><trkpt lat="38.0874059" lon="13.3600228"><ele>66.0</ele><time>2026-04-18T10:10:34.177Z</time></trkpt><trkpt lat="38.0874387" lon="13.3602401"><ele>65.0</ele><time>2026-04-18T10:10:35.176Z</time></trkpt><trkpt lat="38.0874729" lon="13.3604545"><ele>64.0</ele><time>2026-04-18T10:10:36.177Z</time></trkpt><trkpt lat="38.0875088" lon="13.3606542"><ele>63.0</ele><time>2026-04-18T10:10:37.176Z</time></trkpt><trkpt lat="38.0875428" lon="13.3608449"><ele>62.5</ele><time>2026-04-18T10:10:38.176Z</time></trkpt><trkpt lat="38.0875777" lon="13.3610303"><ele>62.0</ele><time>2026-04-18T10:10:39.177Z</time></trkpt><trkpt lat="38.0876141" lon="13.3612148"><ele>61.5</ele><time>2026-04-18T10:10:40.176Z</time></trkpt><trkpt lat="38.087641" lon="13.3614005"><ele>61.0</ele><time>2026-04-18T10:10:41.177Z</time></trkpt><trkpt lat="38.0876685" lon="13.3616021"><ele>61.0</ele><time>2026-04-18T10:10:42.177Z</time></trkpt><trkpt lat="38.0876962" lon="13.3618194"><ele>61.0</ele><time>2026-04-18T10:10:43.177Z</time></trkpt><trkpt lat="38.08773" lon="13.3620544"><ele>61.0</ele><time>2026-04-18T10:10:44.177Z</time></trkpt><trkpt lat="38.0877725" lon="13.3623235"><ele>60.5</ele><time>2026-04-18T10:10:45.177Z</time></trkpt><trkpt lat="38.0878143" lon="13.3626087"><ele>60.0</ele><time>2026-04-18T10:10:46.177Z</time></trkpt><trkpt lat="38.0878605" lon="13.3628985"><ele>60.0</ele><time>2026-04-18T10:10:47.177Z</time></trkpt><trkpt lat="38.0879043" lon="13.3632002"><ele>60.0</ele><time>2026-04-18T10:10:48.177Z</time></trkpt><trkpt lat="38.0879508" lon="13.3635044"><ele>60.0</ele><time>2026-04-18T10:10:49.177Z</time></trkpt><trkpt lat="38.0879974" lon="13.363812"><ele>60.0</ele><time>2026-04-18T10:10:50.177Z</time></trkpt><trkpt lat="38.0880507" lon="13.3641239"><ele>59.0</ele><time>2026-04-18T10:10:51.177Z</time></trkpt><trkpt lat="38.0880959" lon="13.3644321"><ele>58.0</ele><time>2026-04-18T10:10:52.176Z</time></trkpt><trkpt lat="38.0881438" lon="13.364733"><ele>58.0</ele><time>2026-04-18T10:10:53.177Z</time></trkpt><trkpt lat="38.0881911" lon="13.3650279"><ele>58.0</ele><time>2026-04-18T10:10:54.177Z</time></trkpt><trkpt lat="38.0882391" lon="13.3653205"><ele>57.5</ele><time>2026-04-18T10:10:55.177Z</time></trkpt><trkpt lat="38.088284" lon="13.3656073"><ele>57.0</ele><time>2026-04-18T10:10:56.176Z</time></trkpt><trkpt lat="38.0883255" lon="13.3658953"><ele>57.0</ele><time>2026-04-18T10:10:57.177Z</time></trkpt><trkpt lat="38.0883594" lon="13.366191"><ele>57.0</ele><time>2026-04-18T10:10:58.177Z</time></trkpt><trkpt lat="38.0884089" lon="13.3664901"><ele>57.0</ele><time>2026-04-18T10:10:59.177Z</time></trkpt><trkpt lat="38.0884603" lon="13.366804"><ele>57.0</ele><time>2026-04-18T10:11:00.177Z</time></trkpt><trkpt lat="38.0885129" lon="13.3671264"><ele>56.5</ele><time>2026-04-18T10:11:01.177Z</time></trkpt><trkpt lat="38.0885685" lon="13.3674438"><ele>56.0</ele><time>2026-04-18T10:11:02.177Z</time></trkpt><trkpt lat="38.0886217" lon="13.3677588"><ele>55.0</ele><time>2026-04-18T10:11:03.176Z</time></trkpt><trkpt lat="38.0886665" lon="13.3680779"><ele>54.0</ele><time>2026-04-18T10:11:04.177Z</time></trkpt><trkpt lat="38.0887183" lon="13.3683982"><ele>54.0</ele><time>2026-04-18T10:11:05.177Z</time></trkpt><trkpt lat="38.0887738" lon="13.3687285"><ele>54.0</ele><time>2026-04-18T10:11:06.177Z</time></trkpt><trkpt lat="38.0888377" lon="13.3690712"><ele>53.5</ele><time>2026-04-18T10:11:07.177Z</time></trkpt><trkpt lat="38.0889086" lon="13.369434"><ele>53.0</ele><time>2026-04-18T10:11:08.176Z</time></trkpt><trkpt lat="38.0889832" lon="13.3698069"><ele>53.0</ele><time>2026-04-18T10:11:09.176Z</time></trkpt><trkpt lat="38.0890561" lon="13.3701624"><ele>53.0</ele><time>2026-04-18T10:11:10.177Z</time></trkpt><trkpt lat="38.0891288" lon="13.3704878"><ele>52.0</ele><time>2026-04-18T10:11:11.176Z</time></trkpt><trkpt lat="38.0891977" lon="13.3707969"><ele>51.0</ele><time>2026-04-18T10:11:12.177Z</time></trkpt><trkpt lat="38.0892658" lon="13.3710917"><ele>51.0</ele><time>2026-04-18T10:11:13.177Z</time></trkpt><trkpt lat="38.0893302" lon="13.3713753"><ele>51.0</ele><time>2026-04-18T10:11:14.177Z</time></trkpt><trkpt lat="38.0893893" lon="13.3716559"><ele>51.0</ele><time>2026-04-18T10:11:15.177Z</time></trkpt><trkpt lat="38.0894502" lon="13.3719372"><ele>51.0</ele><time>2026-04-18T10:11:16.176Z</time></trkpt><trkpt lat="38.0895227" lon="13.3722228"><ele>52.5</ele><time>2026-04-18T10:11:17.177Z</time></trkpt><trkpt lat="38.0895931" lon="13.372514"><ele>54.0</ele><time>2026-04-18T10:11:18.176Z</time></trkpt><trkpt lat="38.0896642" lon="13.3728115"><ele>52.0</ele><time>2026-04-18T10:11:19.176Z</time></trkpt><trkpt lat="38.0897318" lon="13.3731155"><ele>50.0</ele><time>2026-04-18T10:11:20.177Z</time></trkpt><trkpt lat="38.0897968" lon="13.3734202"><ele>50.0</ele><time>2026-04-18T10:11:21.176Z</time></trkpt><trkpt lat="38.0898605" lon="13.3737196"><ele>50.0</ele><time>2026-04-18T10:11:22.177Z</time></trkpt><trkpt lat="38.089926" lon="13.3740267"><ele>49.0</ele><time>2026-04-18T10:11:23.176Z</time></trkpt><trkpt lat="38.0899867" lon="13.3743387"><ele>48.0</ele><time>2026-04-18T10:11:24.177Z</time></trkpt><trkpt lat="38.0900451" lon="13.3746505"><ele>47.5</ele><time>2026-04-18T10:11:25.176Z</time></trkpt><trkpt lat="38.0901012" lon="13.3749581"><ele>47.0</ele><time>2026-04-18T10:11:26.177Z</time></trkpt><trkpt lat="38.0901673" lon="13.3752666"><ele>46.0</ele><time>2026-04-18T10:11:27.177Z</time></trkpt><trkpt lat="38.0902401" lon="13.3755734"><ele>45.0</ele><time>2026-04-18T10:11:28.176Z</time></trkpt><trkpt lat="38.0903097" lon="13.3758725"><ele>45.0</ele><time>2026-04-18T10:11:29.177Z</time></trkpt><trkpt lat="38.0903757" lon="13.3761737"><ele>45.0</ele><time>2026-04-18T10:11:30.177Z</time></trkpt><trkpt lat="38.0904443" lon="13.3764799"><ele>43.5</ele><time>2026-04-18T10:11:31.177Z</time></trkpt><trkpt lat="38.0905116" lon="13.376783"><ele>42.0</ele><time>2026-04-18T10:11:32.177Z</time></trkpt><trkpt lat="38.0905802" lon="13.3770836"><ele>42.5</ele><time>2026-04-18T10:11:33.177Z</time></trkpt><trkpt lat="38.090645" lon="13.3773745"><ele>43.0</ele><time>2026-04-18T10:11:34.177Z</time></trkpt><trkpt lat="38.0907087" lon="13.3776679"><ele>42.0</ele><time>2026-04-18T10:11:35.176Z</time></trkpt><trkpt lat="38.0907745" lon="13.3779612"><ele>41.0</ele><time>2026-04-18T10:11:36.177Z</time></trkpt><trkpt lat="38.0908287" lon="13.3782619"><ele>41.0</ele><time>2026-04-18T10:11:37.176Z</time></trkpt><trkpt lat="38.0908655" lon="13.3785622"><ele>41.0</ele><time>2026-04-18T10:11:38.177Z</time></trkpt><trkpt lat="38.0908971" lon="13.3788681"><ele>40.0</ele><time>2026-04-18T10:11:39.177Z</time></trkpt><trkpt lat="38.0909166" lon="13.3791729"><ele>39.0</ele><time>2026-04-18T10:11:40.177Z</time></trkpt><trkpt lat="38.090929" lon="13.3794804"><ele>38.0</ele><time>2026-04-18T10:11:41.177Z</time></trkpt><trkpt lat="38.0909264" lon="13.3797857"><ele>37.0</ele><time>2026-04-18T10:11:42.177Z</time></trkpt><trkpt lat="38.0909124" lon="13.3800798"><ele>37.0</ele><time>2026-04-18T10:11:43.176Z</time></trkpt><trkpt lat="38.0908932" lon="13.3803617"><ele>37.0</ele><time>2026-04-18T10:11:44.176Z</time></trkpt><trkpt lat="38.0908612" lon="13.3806316"><ele>37.0</ele><time>2026-04-18T10:11:45.177Z</time></trkpt><trkpt lat="38.0908182" lon="13.3809051"><ele>36.0</ele><time>2026-04-18T10:11:46.177Z</time></trkpt><trkpt lat="38.0907717" lon="13.3811929"><ele>35.0</ele><time>2026-04-18T10:11:47.176Z</time></trkpt><trkpt lat="38.0907009" lon="13.3814817"><ele>35.0</ele><time>2026-04-18T10:11:48.177Z</time></trkpt><trkpt lat="38.0906217" lon="13.3817708"><ele>35.0</ele><time>2026-04-18T10:11:49.177Z</time></trkpt><trkpt lat="38.090532" lon="13.3820576"><ele>35.0</ele><time>2026-04-18T10:11:50.177Z</time></trkpt><trkpt lat="38.0904184" lon="13.3823453"><ele>35.0</ele><time>2026-04-18T10:11:51.177Z</time></trkpt><trkpt lat="38.0903055" lon="13.3826445"><ele>35.0</ele><time>2026-04-18T10:11:52.177Z</time></trkpt><trkpt lat="38.0901996" lon="13.3829695"><ele>35.0</ele><time>2026-04-18T10:11:53.177Z</time></trkpt><trkpt lat="38.0900772" lon="13.383321"><ele>34.5</ele><time>2026-04-18T10:11:54.176Z</time></trkpt><trkpt lat="38.089952" lon="13.3836845"><ele>34.0</ele><time>2026-04-18T10:11:55.177Z</time></trkpt><trkpt lat="38.0898263" lon="13.3840305"><ele>32.5</ele><time>2026-04-18T10:11:56.177Z</time></trkpt><trkpt lat="38.0897014" lon="13.3843721"><ele>31.0</ele><time>2026-04-18T10:11:57.176Z</time></trkpt><trkpt lat="38.0895785" lon="13.3847046"><ele>29.5</ele><time>2026-04-18T10:11:58.176Z</time></trkpt><trkpt lat="38.089458" lon="13.3850301"><ele>28.0</ele><time>2026-04-18T10:11:59.177Z</time></trkpt><trkpt lat="38.0893428" lon="13.3853477"><ele>28.5</ele><time>2026-04-18T10:12:00.177Z</time></trkpt><trkpt lat="38.0892323" lon="13.3856595"><ele>29.0</ele><time>2026-04-18T10:12:01.177Z</time></trkpt><trkpt lat="38.08913" lon="13.385972"><ele>33.0</ele><time>2026-04-18T10:12:02.176Z</time></trkpt><trkpt lat="38.0890355" lon="13.3862792"><ele>37.0</ele><time>2026-04-18T10:12:03.176Z</time></trkpt><trkpt lat="38.0889471" lon="13.3865793"><ele>37.0</ele><time>2026-04-18T10:12:04.176Z</time></trkpt><trkpt lat="38.0888604" lon="13.3868841"><ele>37.0</ele><time>2026-04-18T10:12:05.177Z</time></trkpt><trkpt lat="38.088778" lon="13.3871896"><ele>39.0</ele><time>2026-04-18T10:12:06.177Z</time></trkpt><trkpt lat="38.0886987" lon="13.3875068"><ele>41.0</ele><time>2026-04-18T10:12:07.176Z</time></trkpt><trkpt lat="38.0886358" lon="13.38783"><ele>39.5</ele><time>2026-04-18T10:12:08.177Z</time></trkpt><trkpt lat="38.0885818" lon="13.3881336"><ele>38.0</ele><time>2026-04-18T10:12:09.177Z</time></trkpt><trkpt lat="38.0885239" lon="13.3884145"><ele>38.0</ele><time>2026-04-18T10:12:10.177Z</time></trkpt><trkpt lat="38.0884646" lon="13.3886851"><ele>38.0</ele><time>2026-04-18T10:12:11.176Z</time></trkpt><trkpt lat="38.0884132" lon="13.3889459"><ele>38.0</ele><time>2026-04-18T10:12:12.177Z</time></trkpt><trkpt lat="38.0883647" lon="13.3891951"><ele>36.666666666666664</ele><time>2026-04-18T10:12:13.176Z</time></trkpt><trkpt lat="38.0883158" lon="13.3894396"><ele>35.333333333333336</ele><time>2026-04-18T10:12:14.177Z</time></trkpt><trkpt lat="38.0882679" lon="13.3896914"><ele>34.0</ele><time>2026-04-18T10:12:15.177Z</time></trkpt><trkpt lat="38.0882219" lon="13.3899584"><ele>34.0</ele><time>2026-04-18T10:12:16.177Z</time></trkpt><trkpt lat="38.0881703" lon="13.3902347"><ele>34.0</ele><time>2026-04-18T10:12:17.176Z</time></trkpt><trkpt lat="38.088113" lon="13.3905439"><ele>32.5</ele><time>2026-04-18T10:12:18.177Z</time></trkpt><trkpt lat="38.0880393" lon="13.390891"><ele>31.0</ele><time>2026-04-18T10:12:19.177Z</time></trkpt><trkpt lat="38.0879568" lon="13.3912769"><ele>30.0</ele><time>2026-04-18T10:12:20.177Z</time></trkpt><trkpt lat="38.0878629" lon="13.3916914"><ele>29.0</ele><time>2026-04-18T10:12:21.176Z</time></trkpt><trkpt lat="38.0877689" lon="13.3921445"><ele>30.0</ele><time>2026-04-18T10:12:22.177Z</time></trkpt><trkpt lat="38.0876685" lon="13.3926211"><ele>31.0</ele><time>2026-04-18T10:12:23.177Z</time></trkpt><trkpt lat="38.0875717" lon="13.3931166"><ele>31.0</ele><time>2026-04-18T10:12:24.176Z</time></trkpt><trkpt lat="38.0874844" lon="13.3936356"><ele>31.0</ele><time>2026-04-18T10:12:25.177Z</time></trkpt><trkpt lat="38.0874115" lon="13.3941514"><ele>31.0</ele><time>2026-04-18T10:12:26.177Z</time></trkpt><trkpt lat="38.0873623" lon="13.394631"><ele>31.0</ele><time>2026-04-18T10:12:27.177Z</time></trkpt><trkpt lat="38.0873222" lon="13.3950769"><ele>31.5</ele><time>2026-04-18T10:12:28.177Z</time></trkpt><trkpt lat="38.0872813" lon="13.3955091"><ele>32.0</ele><time>2026-04-18T10:12:29.177Z</time></trkpt><trkpt lat="38.0872434" lon="13.3959323"><ele>32.5</ele><time>2026-04-18T10:12:30.176Z</time></trkpt><trkpt lat="38.0872097" lon="13.3963512"><ele>33.0</ele><time>2026-04-18T10:12:31.176Z</time></trkpt><trkpt lat="38.0871765" lon="13.3967606"><ele>33.0</ele><time>2026-04-18T10:12:32.177Z</time></trkpt><trkpt lat="38.0871426" lon="13.3971567"><ele>33.0</ele><time>2026-04-18T10:12:33.176Z</time></trkpt><trkpt lat="38.0871118" lon="13.3975565"><ele>33.5</ele><time>2026-04-18T10:12:34.177Z</time></trkpt><trkpt lat="38.0870813" lon="13.3979522"><ele>34.0</ele><time>2026-04-18T10:12:35.176Z</time></trkpt><trkpt lat="38.0870504" lon="13.3983431"><ele>32.5</ele><time>2026-04-18T10:12:36.177Z</time></trkpt><trkpt lat="38.0870144" lon="13.3987247"><ele>31.0</ele><time>2026-04-18T10:12:37.176Z</time></trkpt><trkpt lat="38.0869816" lon="13.3991085"><ele>30.5</ele><time>2026-04-18T10:12:38.177Z</time></trkpt><trkpt lat="38.086949" lon="13.3994845"><ele>30.0</ele><time>2026-04-18T10:12:39.176Z</time></trkpt><trkpt lat="38.0869142" lon="13.3998561"><ele>30.0</ele><time>2026-04-18T10:12:40.177Z</time></trkpt><trkpt lat="38.0868817" lon="13.4002248"><ele>30.0</ele><time>2026-04-18T10:12:41.177Z</time></trkpt><trkpt lat="38.0868487" lon="13.4005925"><ele>29.5</ele><time>2026-04-18T10:12:42.177Z</time></trkpt><trkpt lat="38.0868187" lon="13.400959"><ele>29.0</ele><time>2026-04-18T10:12:43.176Z</time></trkpt><trkpt lat="38.086789" lon="13.4013258"><ele>30.5</ele><time>2026-04-18T10:12:44.176Z</time></trkpt><trkpt lat="38.086757" lon="13.401689"><ele>32.0</ele><time>2026-04-18T10:12:45.176Z</time></trkpt><trkpt lat="38.0867254" lon="13.4020504"><ele>32.0</ele><time>2026-04-18T10:12:46.176Z</time></trkpt><trkpt lat="38.0866922" lon="13.4024087"><ele>32.0</ele><time>2026-04-18T10:12:47.176Z</time></trkpt><trkpt lat="38.08666" lon="13.4027638"><ele>31.5</ele><time>2026-04-18T10:12:48.177Z</time></trkpt><trkpt lat="38.0866292" lon="13.4031196"><ele>31.0</ele><time>2026-04-18T10:12:49.177Z</time></trkpt><trkpt lat="38.0865977" lon="13.4034729"><ele>31.5</ele><time>2026-04-18T10:12:50.177Z</time></trkpt><trkpt lat="38.0865646" lon="13.4038273"><ele>32.0</ele><time>2026-04-18T10:12:51.177Z</time></trkpt><trkpt lat="38.0865316" lon="13.4041796"><ele>32.0</ele><time>2026-04-18T10:12:52.177Z</time></trkpt><trkpt lat="38.0864987" lon="13.4045368"><ele>32.0</ele><time>2026-04-18T10:12:53.177Z</time></trkpt><trkpt lat="38.0864652" lon="13.4048988"><ele>32.0</ele><time>2026-04-18T10:12:54.177Z</time></trkpt><trkpt lat="38.0864319" lon="13.4052788"><ele>32.0</ele><time>2026-04-18T10:12:55.177Z</time></trkpt><trkpt lat="38.0864017" lon="13.4056687"><ele>31.5</ele><time>2026-04-18T10:12:56.176Z</time></trkpt><trkpt lat="38.0863664" lon="13.4060557"><ele>31.0</ele><time>2026-04-18T10:12:57.177Z</time></trkpt><trkpt lat="38.0863327" lon="13.4064305"><ele>31.0</ele><time>2026-04-18T10:12:58.177Z</time></trkpt><trkpt lat="38.0863048" lon="13.4068022"><ele>31.0</ele><time>2026-04-18T10:12:59.176Z</time></trkpt><trkpt lat="38.086273" lon="13.4071684"><ele>31.0</ele><time>2026-04-18T10:13:00.177Z</time></trkpt><trkpt lat="38.0862459" lon="13.4075307"><ele>31.0</ele><time>2026-04-18T10:13:01.177Z</time></trkpt><trkpt lat="38.0862128" lon="13.4078905"><ele>31.0</ele><time>2026-04-18T10:13:02.177Z</time></trkpt><trkpt lat="38.0861811" lon="13.4082401"><ele>31.0</ele><time>2026-04-18T10:13:03.176Z</time></trkpt><trkpt lat="38.0861502" lon="13.4085896"><ele>31.5</ele><time>2026-04-18T10:13:04.177Z</time></trkpt><trkpt lat="38.0861198" lon="13.4089322"><ele>32.0</ele><time>2026-04-18T10:13:05.177Z</time></trkpt><trkpt lat="38.0860909" lon="13.4092684"><ele>32.0</ele><time>2026-04-18T10:13:06.177Z</time></trkpt><trkpt lat="38.0860611" lon="13.4096005"><ele>32.0</ele><time>2026-04-18T10:13:07.176Z</time></trkpt><trkpt lat="38.0860325" lon="13.4099253"><ele>31.0</ele><time>2026-04-18T10:13:08.177Z</time></trkpt><trkpt lat="38.0860101" lon="13.4102368"><ele>30.0</ele><time>2026-04-18T10:13:09.176Z</time></trkpt><trkpt lat="38.0859886" lon="13.4105569"><ele>29.5</ele><time>2026-04-18T10:13:10.176Z</time></trkpt><trkpt lat="38.0859644" lon="13.4108869"><ele>29.0</ele><time>2026-04-18T10:13:11.176Z</time></trkpt><trkpt lat="38.0859335" lon="13.4112289"><ele>30.0</ele><time>2026-04-18T10:13:12.177Z</time></trkpt><trkpt lat="38.0859009" lon="13.4115788"><ele>31.0</ele><time>2026-04-18T10:13:13.176Z</time></trkpt><trkpt lat="38.0858734" lon="13.4119367"><ele>31.0</ele><time>2026-04-18T10:13:14.177Z</time></trkpt><trkpt lat="38.0858543" lon="13.4122984"><ele>31.0</ele><time>2026-04-18T10:13:15.177Z</time></trkpt><trkpt lat="38.0858394" lon="13.4126609"><ele>31.0</ele><time>2026-04-18T10:13:16.177Z</time></trkpt><trkpt lat="38.0858267" lon="13.4130284"><ele>31.0</ele><time>2026-04-18T10:13:17.176Z</time></trkpt><trkpt lat="38.0858209" lon="13.413394"><ele>31.0</ele><time>2026-04-18T10:13:18.177Z</time></trkpt><trkpt lat="38.0858208" lon="13.4137611"><ele>31.0</ele><time>2026-04-18T10:13:19.176Z</time></trkpt><trkpt lat="38.0858241" lon="13.4141258"><ele>31.0</ele><time>2026-04-18T10:13:20.176Z</time></trkpt><trkpt lat="38.0858227" lon="13.4144905"><ele>31.0</ele><time>2026-04-18T10:13:21.177Z</time></trkpt><trkpt lat="38.0858265" lon="13.4148489"><ele>31.5</ele><time>2026-04-18T10:13:22.177Z</time></trkpt><trkpt lat="38.0858301" lon="13.4152047"><ele>32.0</ele><time>2026-04-18T10:13:23.176Z</time></trkpt><trkpt lat="38.0858344" lon="13.4155602"><ele>32.0</ele><time>2026-04-18T10:13:24.177Z</time></trkpt><trkpt lat="38.0858371" lon="13.4159108"><ele>32.0</ele><time>2026-04-18T10:13:25.177Z</time></trkpt><trkpt lat="38.085841" lon="13.4162601"><ele>31.0</ele><time>2026-04-18T10:13:26.177Z</time></trkpt><trkpt lat="38.0858434" lon="13.4166062"><ele>30.0</ele><time>2026-04-18T10:13:27.177Z</time></trkpt><trkpt lat="38.0858459" lon="13.4169465"><ele>30.5</ele><time>2026-04-18T10:13:28.177Z</time></trkpt><trkpt lat="38.0858458" lon="13.4172801"><ele>31.0</ele><time>2026-04-18T10:13:29.176Z</time></trkpt><trkpt lat="38.0858428" lon="13.4176084"><ele>31.0</ele><time>2026-04-18T10:13:30.176Z</time></trkpt><trkpt lat="38.0858436" lon="13.4179319"><ele>31.0</ele><time>2026-04-18T10:13:31.176Z</time></trkpt><trkpt lat="38.0858459" lon="13.4182494"><ele>31.5</ele><time>2026-04-18T10:13:32.176Z</time></trkpt><trkpt lat="38.0858462" lon="13.4185677"><ele>32.0</ele><time>2026-04-18T10:13:33.177Z</time></trkpt><trkpt lat="38.085837" lon="13.4188966"><ele>31.0</ele><time>2026-04-18T10:13:34.176Z</time></trkpt><trkpt lat="38.0858253" lon="13.4192471"><ele>30.0</ele><time>2026-04-18T10:13:35.176Z</time></trkpt><trkpt lat="38.0858278" lon="13.4196247"><ele>29.5</ele><time>2026-04-18T10:13:36.177Z</time></trkpt><trkpt lat="38.0858339" lon="13.4199943"><ele>29.0</ele><time>2026-04-18T10:13:37.176Z</time></trkpt><trkpt lat="38.0858477" lon="13.4203617"><ele>29.5</ele><time>2026-04-18T10:13:38.176Z</time></trkpt><trkpt lat="38.085855" lon="13.4207308"><ele>30.0</ele><time>2026-04-18T10:13:39.177Z</time></trkpt><trkpt lat="38.0858627" lon="13.4211084"><ele>29.5</ele><time>2026-04-18T10:13:40.177Z</time></trkpt><trkpt lat="38.0858687" lon="13.4214874"><ele>29.0</ele><time>2026-04-18T10:13:41.176Z</time></trkpt><trkpt lat="38.0858714" lon="13.4218613"><ele>29.5</ele><time>2026-04-18T10:13:42.177Z</time></trkpt><trkpt lat="38.0858795" lon="13.422232"><ele>30.0</ele><time>2026-04-18T10:13:43.177Z</time></trkpt><trkpt lat="38.0858844" lon="13.422584"><ele>30.0</ele><time>2026-04-18T10:13:44.177Z</time></trkpt><trkpt lat="38.0858851" lon="13.4229139"><ele>30.0</ele><time>2026-04-18T10:13:45.177Z</time></trkpt><trkpt lat="38.085887" lon="13.4232334"><ele>30.0</ele><time>2026-04-18T10:13:46.176Z</time></trkpt><trkpt lat="38.0858935" lon="13.4235463"><ele>30.0</ele><time>2026-04-18T10:13:47.177Z</time></trkpt><trkpt lat="38.0859009" lon="13.4238618"><ele>29.5</ele><time>2026-04-18T10:13:48.177Z</time></trkpt><trkpt lat="38.0859057" lon="13.4241832"><ele>29.0</ele><time>2026-04-18T10:13:49.176Z</time></trkpt><trkpt lat="38.0859098" lon="13.42452"><ele>28.0</ele><time>2026-04-18T10:13:50.176Z</time></trkpt><trkpt lat="38.0859186" lon="13.4248709"><ele>27.0</ele><time>2026-04-18T10:13:51.177Z</time></trkpt><trkpt lat="38.0859221" lon="13.4252298"><ele>26.5</ele><time>2026-04-18T10:13:52.176Z</time></trkpt><trkpt lat="38.0859241" lon="13.4255975"><ele>26.0</ele><time>2026-04-18T10:13:53.177Z</time></trkpt><trkpt lat="38.0859195" lon="13.425965"><ele>26.5</ele><time>2026-04-18T10:13:54.177Z</time></trkpt><trkpt lat="38.0859197" lon="13.4263379"><ele>27.0</ele><time>2026-04-18T10:13:55.177Z</time></trkpt><trkpt lat="38.085922" lon="13.4267105"><ele>27.0</ele><time>2026-04-18T10:13:56.176Z</time></trkpt><trkpt lat="38.085925" lon="13.4270855"><ele>27.0</ele><time>2026-04-18T10:13:57.176Z</time></trkpt><trkpt lat="38.0859266" lon="13.4274628"><ele>28.5</ele><time>2026-04-18T10:13:58.184Z</time></trkpt><trkpt lat="38.0859265" lon="13.4278369"><ele>30.0</ele><time>2026-04-18T10:13:59.185Z</time></trkpt><trkpt lat="38.0859252" lon="13.4282069"><ele>31.0</ele><time>2026-04-18T10:14:00.185Z</time></trkpt><trkpt lat="38.0859237" lon="13.4285767"><ele>32.0</ele><time>2026-04-18T10:14:01.184Z</time></trkpt><trkpt lat="38.0859218" lon="13.4289521"><ele>32.5</ele><time>2026-04-18T10:14:02.185Z</time></trkpt><trkpt lat="38.0859239" lon="13.4293391"><ele>33.0</ele><time>2026-04-18T10:14:03.184Z</time></trkpt><trkpt lat="38.0859283" lon="13.4297355"><ele>33.0</ele><time>2026-04-18T10:14:04.185Z</time></trkpt><trkpt lat="38.0859391" lon="13.4301537"><ele>33.0</ele><time>2026-04-18T10:14:05.185Z</time></trkpt><trkpt lat="38.0859496" lon="13.4305951"><ele>33.5</ele><time>2026-04-18T10:14:06.185Z</time></trkpt><trkpt lat="38.0859654" lon="13.4310665"><ele>34.0</ele><time>2026-04-18T10:14:07.184Z</time></trkpt><trkpt lat="38.0859806" lon="13.4315286"><ele>34.0</ele><time>2026-04-18T10:14:08.185Z</time></trkpt><trkpt lat="38.0859966" lon="13.4319551"><ele>34.0</ele><time>2026-04-18T10:14:09.185Z</time></trkpt><trkpt lat="38.08601" lon="13.432354"><ele>35.5</ele><time>2026-04-18T10:14:10.185Z</time></trkpt><trkpt lat="38.0860166" lon="13.4327296"><ele>37.0</ele><time>2026-04-18T10:14:11.185Z</time></trkpt><trkpt lat="38.0860189" lon="13.4330821"><ele>38.0</ele><time>2026-04-18T10:14:12.185Z</time></trkpt><trkpt lat="38.0860076" lon="13.4334226"><ele>39.0</ele><time>2026-04-18T10:14:13.185Z</time></trkpt><trkpt lat="38.0859821" lon="13.4337527"><ele>38.0</ele><time>2026-04-18T10:14:14.185Z</time></trkpt><trkpt lat="38.0859361" lon="13.4340547"><ele>37.0</ele><time>2026-04-18T10:14:15.185Z</time></trkpt><trkpt lat="38.0858645" lon="13.4343455"><ele>37.0</ele><time>2026-04-18T10:14:16.184Z</time></trkpt><trkpt lat="38.0857727" lon="13.4346252"><ele>37.0</ele><time>2026-04-18T10:14:17.184Z</time></trkpt><trkpt lat="38.0856533" lon="13.43489"><ele>37.0</ele><time>2026-04-18T10:14:18.185Z</time></trkpt><trkpt lat="38.085497" lon="13.4351399"><ele>37.0</ele><time>2026-04-18T10:14:19.185Z</time></trkpt><trkpt lat="38.0853136" lon="13.4353692"><ele>35.5</ele><time>2026-04-18T10:14:20.185Z</time></trkpt><trkpt lat="38.0851257" lon="13.4355823"><ele>34.0</ele><time>2026-04-18T10:14:21.185Z</time></trkpt><trkpt lat="38.0849473" lon="13.4357888"><ele>35.0</ele><time>2026-04-18T10:14:22.185Z</time></trkpt><trkpt lat="38.0847682" lon="13.4360019"><ele>36.0</ele><time>2026-04-18T10:14:23.184Z</time></trkpt><trkpt lat="38.0845839" lon="13.4362158"><ele>35.5</ele><time>2026-04-18T10:14:24.185Z</time></trkpt><trkpt lat="38.0844052" lon="13.4364289"><ele>35.0</ele><time>2026-04-18T10:14:25.185Z</time></trkpt><trkpt lat="38.0842387" lon="13.4366338"><ele>35.0</ele><time>2026-04-18T10:14:26.185Z</time></trkpt><trkpt lat="38.084086" lon="13.4368235"><ele>35.0</ele><time>2026-04-18T10:14:27.184Z</time></trkpt><trkpt lat="38.0839449" lon="13.4369939"><ele>35.0</ele><time>2026-04-18T10:14:28.184Z</time></trkpt><trkpt lat="38.0838237" lon="13.43714"><ele>35.0</ele><time>2026-04-18T10:14:29.184Z</time></trkpt><trkpt lat="38.0837084" lon="13.4372384"><ele>35.0</ele><time>2026-04-18T10:14:30.184Z</time></trkpt><trkpt lat="38.0835844" lon="13.4372953"><ele>35.0</ele><time>2026-04-18T10:14:31.184Z</time></trkpt><trkpt lat="38.0834389" lon="13.4373074"><ele>35.0</ele><time>2026-04-18T10:14:32.184Z</time></trkpt><trkpt lat="38.0832986" lon="13.4372959"><ele>36.0</ele><time>2026-04-18T10:14:33.184Z</time></trkpt><trkpt lat="38.0831668" lon="13.4372271"><ele>37.0</ele><time>2026-04-18T10:14:34.184Z</time></trkpt><trkpt lat="38.0830352" lon="13.4371132"><ele>38.0</ele><time>2026-04-18T10:14:35.184Z</time></trkpt><trkpt lat="38.0828841" lon="13.4369627"><ele>38.5</ele><time>2026-04-18T10:14:36.184Z</time></trkpt><trkpt lat="38.0826957" lon="13.4367835"><ele>39.0</ele><time>2026-04-18T10:14:37.184Z</time></trkpt><trkpt lat="38.0824809" lon="13.4365907"><ele>39.5</ele><time>2026-04-18T10:14:38.183Z</time></trkpt><trkpt lat="38.0822711" lon="13.4363954"><ele>40.0</ele><time>2026-04-18T10:14:39.183Z</time></trkpt><trkpt lat="38.0821065" lon="13.4361944"><ele>40.333333333333336</ele><time>2026-04-18T10:14:40.184Z</time></trkpt><trkpt lat="38.0819836" lon="13.4359848"><ele>40.666666666666664</ele><time>2026-04-18T10:14:41.183Z</time></trkpt><trkpt lat="38.0818929" lon="13.4357743"><ele>41.0</ele><time>2026-04-18T10:14:42.183Z</time></trkpt><trkpt lat="38.0818264" lon="13.4355662"><ele>41.75</ele><time>2026-04-18T10:14:43.184Z</time></trkpt><trkpt lat="38.0817838" lon="13.4353724"><ele>42.5</ele><time>2026-04-18T10:14:44.183Z</time></trkpt><trkpt lat="38.0817692" lon="13.4351928"><ele>43.25</ele><time>2026-04-18T10:14:45.184Z</time></trkpt><trkpt lat="38.0817858" lon="13.4350273"><ele>44.0</ele><time>2026-04-18T10:14:46.184Z</time></trkpt><trkpt lat="38.0818279" lon="13.4348799"><ele>44.0</ele><time>2026-04-18T10:14:47.184Z</time></trkpt><trkpt lat="38.0818874" lon="13.4347642"><ele>44.0</ele><time>2026-04-18T10:14:48.183Z</time></trkpt><trkpt lat="38.0819651" lon="13.4346696"><ele>44.0</ele><time>2026-04-18T10:14:49.184Z</time></trkpt><trkpt lat="38.0820561" lon="13.4345893"><ele>44.0</ele><time>2026-04-18T10:14:50.183Z</time></trkpt><trkpt lat="38.0821652" lon="13.4345162"><ele>44.400000000000006</ele><time>2026-04-18T10:14:51.183Z</time></trkpt><trkpt lat="38.0822766" lon="13.4344551"><ele>44.8</ele><time>2026-04-18T10:14:52.184Z</time></trkpt><trkpt lat="38.0823774" lon="13.4344049"><ele>45.2</ele><time>2026-04-18T10:14:53.184Z</time></trkpt><trkpt lat="38.0824582" lon="13.4343645"><ele>45.599999999999994</ele><time>2026-04-18T10:14:54.184Z</time></trkpt><trkpt lat="38.0825445" lon="13.4343143"><ele>46.0</ele><time>2026-04-18T10:14:56.184Z</time></trkpt><trkpt lat="38.0826263" lon="13.4342614"><ele>45.0</ele><time>2026-04-18T10:14:58.184Z</time></trkpt><trkpt lat="38.0827505" lon="13.4341971"><ele>44.0</ele><time>2026-04-18T10:15:00.183Z</time></trkpt><trkpt lat="38.0828375" lon="13.4341603"><ele>43.0</ele><time>2026-04-18T10:15:01.183Z</time></trkpt><trkpt lat="38.0829399" lon="13.4341102"><ele>42.0</ele><time>2026-04-18T10:15:02.184Z</time></trkpt><trkpt lat="38.0830852" lon="13.434042"><ele>42.0</ele><time>2026-04-18T10:15:03.184Z</time></trkpt><trkpt lat="38.0832601" lon="13.4339755"><ele>42.0</ele><time>2026-04-18T10:15:04.184Z</time></trkpt><trkpt lat="38.0834227" lon="13.4339273"><ele>42.0</ele><time>2026-04-18T10:15:05.184Z</time></trkpt><trkpt lat="38.0835509" lon="13.4338972"><ele>42.166666666666664</ele><time>2026-04-18T10:15:06.184Z</time></trkpt><trkpt lat="38.0836455" lon="13.433877"><ele>42.333333333333336</ele><time>2026-04-18T10:15:07.184Z</time></trkpt><trkpt lat="38.083731" lon="13.4338604"><ele>42.5</ele><time>2026-04-18T10:15:08.184Z</time></trkpt><trkpt lat="38.0837945" lon="13.4338461"><ele>42.66666666666667</ele><time>2026-04-18T10:15:09.184Z</time></trkpt><trkpt lat="38.0838695" lon="13.433831"><ele>42.833333333333336</ele><time>2026-04-18T10:15:11.183Z</time></trkpt><trkpt lat="38.0839372" lon="13.4338213"><ele>43.0</ele><time>2026-04-18T10:15:13.184Z</time></trkpt><trkpt lat="38.0840334" lon="13.4338023"><ele>42.599999999999994</ele><time>2026-04-18T10:15:15.184Z</time></trkpt><trkpt lat="38.0841096" lon="13.433786"><ele>42.199999999999996</ele><time>2026-04-18T10:15:16.183Z</time></trkpt><trkpt lat="38.0841978" lon="13.4337686"><ele>41.8</ele><time>2026-04-18T10:15:17.184Z</time></trkpt><trkpt lat="38.0842951" lon="13.4337498"><ele>41.4</ele><time>2026-04-18T10:15:18.184Z</time></trkpt><trkpt lat="38.0843964" lon="13.433732"><ele>41.0</ele><time>2026-04-18T10:15:19.183Z</time></trkpt><trkpt lat="38.0845052" lon="13.433713"><ele>41.0</ele><time>2026-04-18T10:15:20.183Z</time></trkpt><trkpt lat="38.0846273" lon="13.4336878"><ele>41.0</ele><time>2026-04-18T10:15:21.183Z</time></trkpt><trkpt lat="38.0847475" lon="13.4336622"><ele>41.0</ele><time>2026-04-18T10:15:22.183Z</time></trkpt><trkpt lat="38.0848534" lon="13.4336395"><ele>41.0</ele><time>2026-04-18T10:15:23.184Z</time></trkpt><trkpt lat="38.0849487" lon="13.4336171"><ele>41.0</ele><time>2026-04-18T10:15:24.184Z</time></trkpt><trkpt lat="38.0850335" lon="13.4335936"><ele>41.0</ele><time>2026-04-18T10:15:25.184Z</time></trkpt><trkpt lat="38.085121" lon="13.4335695"><ele>41.0</ele><time>2026-04-18T10:15:26.184Z</time></trkpt><trkpt lat="38.0852117" lon="13.4335448"><ele>41.0</ele><time>2026-04-18T10:15:27.184Z</time></trkpt><trkpt lat="38.0853063" lon="13.4335211"><ele>41.0</ele><time>2026-04-18T10:15:28.184Z</time></trkpt><trkpt lat="38.0854063" lon="13.4335072"><ele>41.0</ele><time>2026-04-18T10:15:29.184Z</time></trkpt><trkpt lat="38.085505" lon="13.4334814"><ele>41.0</ele><time>2026-04-18T10:15:30.184Z</time></trkpt><trkpt lat="38.0856062" lon="13.4334564"><ele>41.0</ele><time>2026-04-18T10:15:31.184Z</time></trkpt><trkpt lat="38.085712" lon="13.4334411"><ele>41.0</ele><time>2026-04-18T10:15:32.184Z</time></trkpt><trkpt lat="38.0858164" lon="13.4334154"><ele>41.0</ele><time>2026-04-18T10:15:33.184Z</time></trkpt><trkpt lat="38.0859176" lon="13.4333838"><ele>40.599999999999994</ele><time>2026-04-18T10:15:34.184Z</time></trkpt><trkpt lat="38.0860141" lon="13.4333565"><ele>40.199999999999996</ele><time>2026-04-18T10:15:35.183Z</time></trkpt><trkpt lat="38.0861159" lon="13.4333312"><ele>39.8</ele><time>2026-04-18T10:15:36.184Z</time></trkpt><trkpt lat="38.0862262" lon="13.4333072"><ele>39.4</ele><time>2026-04-18T10:15:37.184Z</time></trkpt><trkpt lat="38.0863401" lon="13.4332786"><ele>39.0</ele><time>2026-04-18T10:15:38.184Z</time></trkpt><trkpt lat="38.0864634" lon="13.4332419"><ele>38.333333333333336</ele><time>2026-04-18T10:15:39.184Z</time></trkpt><trkpt lat="38.086604" lon="13.4332145"><ele>37.66666666666667</ele><time>2026-04-18T10:15:40.184Z</time></trkpt><trkpt lat="38.086766" lon="13.4331834"><ele>37.0</ele><time>2026-04-18T10:15:41.184Z</time></trkpt><trkpt lat="38.0869574" lon="13.4331316"><ele>37.0</ele><time>2026-04-18T10:15:42.184Z</time></trkpt><trkpt lat="38.0871554" lon="13.4330819"><ele>37.0</ele><time>2026-04-18T10:15:43.184Z</time></trkpt><trkpt lat="38.0873559" lon="13.4330389"><ele>37.0</ele><time>2026-04-18T10:15:44.184Z</time></trkpt><trkpt lat="38.0875694" lon="13.4329905"><ele>37.5</ele><time>2026-04-18T10:15:45.184Z</time></trkpt><trkpt lat="38.0878055" lon="13.4329416"><ele>38.0</ele><time>2026-04-18T10:15:46.184Z</time></trkpt><trkpt lat="38.0880341" lon="13.4329081"><ele>38.0</ele><time>2026-04-18T10:15:47.184Z</time></trkpt><trkpt lat="38.0882395" lon="13.4328659"><ele>38.0</ele><time>2026-04-18T10:15:48.184Z</time></trkpt><trkpt lat="38.0884289" lon="13.4328257"><ele>38.0</ele><time>2026-04-18T10:15:49.184Z</time></trkpt><trkpt lat="38.0885992" lon="13.4327835"><ele>37.5</ele><time>2026-04-18T10:15:50.183Z</time></trkpt><trkpt lat="38.0887422" lon="13.4327493"><ele>37.0</ele><time>2026-04-18T10:15:51.184Z</time></trkpt><trkpt lat="38.0888807" lon="13.4327092"><ele>36.5</ele><time>2026-04-18T10:15:52.184Z</time></trkpt><trkpt lat="38.0890355" lon="13.4326726"><ele>36.0</ele><time>2026-04-18T10:15:53.184Z</time></trkpt><trkpt lat="38.0892059" lon="13.4326475"><ele>34.666666666666664</ele><time>2026-04-18T10:15:54.184Z</time></trkpt><trkpt lat="38.0893825" lon="13.4326183"><ele>33.33333333333333</ele><time>2026-04-18T10:15:55.184Z</time></trkpt><trkpt lat="38.0895606" lon="13.4325832"><ele>32.0</ele><time>2026-04-18T10:15:56.184Z</time></trkpt><trkpt lat="38.0897353" lon="13.4325488"><ele>32.0</ele><time>2026-04-18T10:15:57.184Z</time></trkpt><trkpt lat="38.0899136" lon="13.4325119"><ele>32.0</ele><time>2026-04-18T10:15:58.184Z</time></trkpt><trkpt lat="38.0900915" lon="13.4324793"><ele>32.0</ele><time>2026-04-18T10:15:59.184Z</time></trkpt><trkpt lat="38.0902582" lon="13.4324321"><ele>31.666666666666664</ele><time>2026-04-18T10:16:00.183Z</time></trkpt><trkpt lat="38.090416" lon="13.4323665"><ele>31.333333333333336</ele><time>2026-04-18T10:16:01.183Z</time></trkpt><trkpt lat="38.0905711" lon="13.432287"><ele>31.0</ele><time>2026-04-18T10:16:02.184Z</time></trkpt><trkpt lat="38.0907298" lon="13.4321958"><ele>31.333333333333336</ele><time>2026-04-18T10:16:03.184Z</time></trkpt><trkpt lat="38.090889" lon="13.4321052"><ele>31.666666666666664</ele><time>2026-04-18T10:16:04.184Z</time></trkpt><trkpt lat="38.0910455" lon="13.4320123"><ele>32.0</ele><time>2026-04-18T10:16:05.184Z</time></trkpt><trkpt lat="38.0911985" lon="13.4319201"><ele>32.0</ele><time>2026-04-18T10:16:06.184Z</time></trkpt><trkpt lat="38.0913472" lon="13.431835"><ele>32.0</ele><time>2026-04-18T10:16:07.184Z</time></trkpt><trkpt lat="38.0914933" lon="13.4317527"><ele>32.0</ele><time>2026-04-18T10:16:08.184Z</time></trkpt><trkpt lat="38.0916276" lon="13.4316632"><ele>30.0</ele><time>2026-04-18T10:16:09.183Z</time></trkpt><trkpt lat="38.0917535" lon="13.4315712"><ele>28.0</ele><time>2026-04-18T10:16:10.184Z</time></trkpt><trkpt lat="38.0918779" lon="13.4314731"><ele>26.0</ele><time>2026-04-18T10:16:11.184Z</time></trkpt><trkpt lat="38.0920122" lon="13.4313631"><ele>26.5</ele><time>2026-04-18T10:16:12.184Z</time></trkpt><trkpt lat="38.0921431" lon="13.4312531"><ele>27.0</ele><time>2026-04-18T10:16:13.184Z</time></trkpt><trkpt lat="38.0922646" lon="13.431154"><ele>27.5</ele><time>2026-04-18T10:16:14.183Z</time></trkpt><trkpt lat="38.0923889" lon="13.4310575"><ele>28.0</ele><time>2026-04-18T10:16:15.183Z</time></trkpt><trkpt lat="38.0925251" lon="13.4309632"><ele>27.0</ele><time>2026-04-18T10:16:16.184Z</time></trkpt><trkpt lat="38.0926655" lon="13.4308726"><ele>26.0</ele><time>2026-04-18T10:16:17.183Z</time></trkpt><trkpt lat="38.0927914" lon="13.4307909"><ele>25.0</ele><time>2026-04-18T10:16:18.184Z</time></trkpt><trkpt lat="38.0929079" lon="13.4307234"><ele>24.0</ele><time>2026-04-18T10:16:19.184Z</time></trkpt><trkpt lat="38.0930181" lon="13.4306607"><ele>24.0</ele><time>2026-04-18T10:16:20.183Z</time></trkpt><trkpt lat="38.0931203" lon="13.4306064"><ele>24.0</ele><time>2026-04-18T10:16:21.184Z</time></trkpt><trkpt lat="38.0932187" lon="13.4305552"><ele>24.0</ele><time>2026-04-18T10:16:22.184Z</time></trkpt><trkpt lat="38.0933183" lon="13.4305026"><ele>24.0</ele><time>2026-04-18T10:16:23.183Z</time></trkpt><trkpt lat="38.0934197" lon="13.4304525"><ele>24.0</ele><time>2026-04-18T10:16:24.183Z</time></trkpt><trkpt lat="38.0935205" lon="13.4304065"><ele>23.2</ele><time>2026-04-18T10:16:25.183Z</time></trkpt><trkpt lat="38.0936199" lon="13.4303548"><ele>22.4</ele><time>2026-04-18T10:16:26.184Z</time></trkpt><trkpt lat="38.0937212" lon="13.4303053"><ele>21.6</ele><time>2026-04-18T10:16:27.184Z</time></trkpt><trkpt lat="38.093821" lon="13.4302581"><ele>20.8</ele><time>2026-04-18T10:16:28.184Z</time></trkpt><trkpt lat="38.0939202" lon="13.430213"><ele>20.0</ele><time>2026-04-18T10:16:29.184Z</time></trkpt><trkpt lat="38.0940184" lon="13.4301718"><ele>20.0</ele><time>2026-04-18T10:16:30.184Z</time></trkpt><trkpt lat="38.0941128" lon="13.4301304"><ele>21.0</ele><time>2026-04-18T10:16:31.183Z</time></trkpt><trkpt lat="38.0942017" lon="13.4300919"><ele>21.0</ele><time>2026-04-18T10:16:32.184Z</time></trkpt><trkpt lat="38.0942766" lon="13.4300654"><ele>21.0</ele><time>2026-04-18T10:16:33.184Z</time></trkpt><trkpt lat="38.0943653" lon="13.4300235"><ele>21.0</ele><time>2026-04-18T10:16:35.184Z</time></trkpt><trkpt lat="38.0943785" lon="13.4299435"><ele>21.0</ele><time>2026-04-18T10:16:39.184Z</time></trkpt><trkpt lat="38.0943785" lon="13.4299435"><ele>21.0</ele><time>2026-04-18T10:16:39.184Z</time></trkpt><trkpt lat="38.0943785" lon="13.4299435"><ele>21.0</ele><time>2026-04-18T10:16:39.184Z</time></trkpt></trkseg></trk></gpx>